<?xml version="1.0" encoding="UTF-8"?>
<gpx version="1.1" creator="https://www.youtrack.es" xsi:schemaLocation="http://www.topografix.com/GPX/1/1 http://www.topografix.com/GPX/1/1/gpx.xsd http://www.garmin.com/xmlschemas/GpxExtensions/v3 http://www.garmin.com/xmlschemas/GpxExtensionsv3.xsd http://www.garmin.com/xmlschemas/TrackPointExtension/v1 http://www.garmin.com/xmlschemas/TrackPointExtensionv1.xsd" xmlns:gpxtpx="http://www.garmin.com/xmlschemas/TrackPointExtension/v1" xmlns:gpxx="http://www.garmin.com/xmlschemas/GpxExtensions/v3" xmlns:xsi="http://www.w3.org/2001/XMLSchema-instance">
  <metadata>
    <link href="https://www.youtrack.es">
      <text>YouTrack.es</text>
    </link>
    <time>2026-05-07T14:44:55Z</time>
  </metadata>
  <trk>
    <src>https://www.youtrack.es</src>
    <link href="https://www.youtrack.es/ruta/21947-tgnbcn">
      <text>YouTrack.es</text>
    </link>
    <trkseg>
      <trkpt lat="41.1656010" lon="1.2612470">
        <ele>142.2</ele>
        <time>2021-05-07T18:15:15Z</time>
      </trkpt>
      <trkpt lat="41.1656010" lon="1.2612470">
        <ele>142.2</ele>
        <time>2021-05-07T18:15:16Z</time>
      </trkpt>
      <trkpt lat="41.1655700" lon="1.2613110">
        <ele>142.2</ele>
        <time>2021-05-07T18:15:24Z</time>
      </trkpt>
      <trkpt lat="41.1655820" lon="1.2613690">
        <ele>142.2</ele>
        <time>2021-05-07T18:15:27Z</time>
      </trkpt>
      <trkpt lat="41.1656420" lon="1.2615760">
        <ele>143.0</ele>
        <time>2021-05-07T18:15:36Z</time>
      </trkpt>
      <trkpt lat="41.1656670" lon="1.2616620">
        <ele>143.6</ele>
        <time>2021-05-07T18:15:40Z</time>
      </trkpt>
      <trkpt lat="41.1657050" lon="1.2617890">
        <ele>144.2</ele>
        <time>2021-05-07T18:15:46Z</time>
      </trkpt>
      <trkpt lat="41.1657150" lon="1.2618600">
        <ele>144.6</ele>
        <time>2021-05-07T18:15:49Z</time>
      </trkpt>
      <trkpt lat="41.1657200" lon="1.2619290">
        <ele>145.0</ele>
        <time>2021-05-07T18:15:52Z</time>
      </trkpt>
      <trkpt lat="41.1657210" lon="1.2620700">
        <ele>145.6</ele>
        <time>2021-05-07T18:15:58Z</time>
      </trkpt>
      <trkpt lat="41.1657170" lon="1.2621180">
        <ele>145.8</ele>
        <time>2021-05-07T18:16:00Z</time>
      </trkpt>
      <trkpt lat="41.1657150" lon="1.2623090">
        <ele>145.8</ele>
        <time>2021-05-07T18:16:07Z</time>
      </trkpt>
      <trkpt lat="41.1657070" lon="1.2624830">
        <ele>146.0</ele>
        <time>2021-05-07T18:16:13Z</time>
      </trkpt>
      <trkpt lat="41.1656950" lon="1.2627440">
        <ele>145.8</ele>
        <time>2021-05-07T18:16:21Z</time>
      </trkpt>
      <trkpt lat="41.1656840" lon="1.2630740">
        <ele>145.2</ele>
        <time>2021-05-07T18:16:31Z</time>
      </trkpt>
      <trkpt lat="41.1656820" lon="1.2632780">
        <ele>144.4</ele>
        <time>2021-05-07T18:16:37Z</time>
      </trkpt>
      <trkpt lat="41.1656830" lon="1.2633810">
        <ele>144.0</ele>
        <time>2021-05-07T18:16:40Z</time>
      </trkpt>
      <trkpt lat="41.1656910" lon="1.2636110">
        <ele>143.4</ele>
        <time>2021-05-07T18:16:47Z</time>
      </trkpt>
      <trkpt lat="41.1656820" lon="1.2637150">
        <ele>143.0</ele>
        <time>2021-05-07T18:16:50Z</time>
      </trkpt>
      <trkpt lat="41.1656970" lon="1.2640140">
        <ele>142.4</ele>
        <time>2021-05-07T18:16:57Z</time>
      </trkpt>
      <trkpt lat="41.1656950" lon="1.2640590">
        <ele>142.4</ele>
        <time>2021-05-07T18:16:58Z</time>
      </trkpt>
      <trkpt lat="41.1656860" lon="1.2642070">
        <ele>142.4</ele>
        <time>2021-05-07T18:17:02Z</time>
      </trkpt>
      <trkpt lat="41.1656670" lon="1.2645040">
        <ele>143.2</ele>
        <time>2021-05-07T18:17:11Z</time>
      </trkpt>
      <trkpt lat="41.1656710" lon="1.2646420">
        <ele>143.4</ele>
        <time>2021-05-07T18:17:15Z</time>
      </trkpt>
      <trkpt lat="41.1656750" lon="1.2647550">
        <ele>143.8</ele>
        <time>2021-05-07T18:17:18Z</time>
      </trkpt>
      <trkpt lat="41.1656790" lon="1.2650920">
        <ele>144.6</ele>
        <time>2021-05-07T18:17:27Z</time>
      </trkpt>
      <trkpt lat="41.1656800" lon="1.2651680">
        <ele>144.6</ele>
        <time>2021-05-07T18:17:29Z</time>
      </trkpt>
      <trkpt lat="41.1656860" lon="1.2655350">
        <ele>145.0</ele>
        <time>2021-05-07T18:17:39Z</time>
      </trkpt>
      <trkpt lat="41.1656880" lon="1.2658220">
        <ele>145.0</ele>
        <time>2021-05-07T18:17:46Z</time>
      </trkpt>
      <trkpt lat="41.1656840" lon="1.2661240">
        <ele>144.4</ele>
        <time>2021-05-07T18:17:54Z</time>
      </trkpt>
      <trkpt lat="41.1656090" lon="1.2665290">
        <ele>143.8</ele>
        <time>2021-05-07T18:18:02Z</time>
      </trkpt>
      <trkpt lat="41.1655610" lon="1.2666960">
        <ele>143.4</ele>
        <time>2021-05-07T18:18:05Z</time>
      </trkpt>
      <trkpt lat="41.1654620" lon="1.2669730">
        <ele>142.6</ele>
        <time>2021-05-07T18:18:10Z</time>
      </trkpt>
      <trkpt lat="41.1654400" lon="1.2670280">
        <ele>142.4</ele>
        <time>2021-05-07T18:18:11Z</time>
      </trkpt>
      <trkpt lat="41.1653050" lon="1.2673480">
        <ele>141.6</ele>
        <time>2021-05-07T18:18:17Z</time>
      </trkpt>
      <trkpt lat="41.1652550" lon="1.2674590">
        <ele>141.2</ele>
        <time>2021-05-07T18:18:19Z</time>
      </trkpt>
      <trkpt lat="41.1651310" lon="1.2677490">
        <ele>140.2</ele>
        <time>2021-05-07T18:18:24Z</time>
      </trkpt>
      <trkpt lat="41.1650770" lon="1.2678700">
        <ele>139.8</ele>
        <time>2021-05-07T18:18:26Z</time>
      </trkpt>
      <trkpt lat="41.1649310" lon="1.2682030">
        <ele>139.0</ele>
        <time>2021-05-07T18:18:31Z</time>
      </trkpt>
      <trkpt lat="41.1648620" lon="1.2683390">
        <ele>138.8</ele>
        <time>2021-05-07T18:18:33Z</time>
      </trkpt>
      <trkpt lat="41.1647470" lon="1.2686120">
        <ele>137.8</ele>
        <time>2021-05-07T18:18:37Z</time>
      </trkpt>
      <trkpt lat="41.1647240" lon="1.2686760">
        <ele>137.8</ele>
        <time>2021-05-07T18:18:38Z</time>
      </trkpt>
      <trkpt lat="41.1645330" lon="1.2691860">
        <ele>136.8</ele>
        <time>2021-05-07T18:18:46Z</time>
      </trkpt>
      <trkpt lat="41.1644010" lon="1.2694820">
        <ele>136.6</ele>
        <time>2021-05-07T18:18:51Z</time>
      </trkpt>
      <trkpt lat="41.1643540" lon="1.2695950">
        <ele>136.8</ele>
        <time>2021-05-07T18:18:53Z</time>
      </trkpt>
      <trkpt lat="41.1641930" lon="1.2699380">
        <ele>136.6</ele>
        <time>2021-05-07T18:19:00Z</time>
      </trkpt>
      <trkpt lat="41.1640930" lon="1.2702160">
        <ele>136.6</ele>
        <time>2021-05-07T18:19:07Z</time>
      </trkpt>
      <trkpt lat="41.1641060" lon="1.2702950">
        <ele>136.8</ele>
        <time>2021-05-07T18:19:10Z</time>
      </trkpt>
      <trkpt lat="41.1641250" lon="1.2703130">
        <ele>136.6</ele>
        <time>2021-05-07T18:19:11Z</time>
      </trkpt>
      <trkpt lat="41.1642580" lon="1.2703240">
        <ele>136.6</ele>
        <time>2021-05-07T18:19:15Z</time>
      </trkpt>
      <trkpt lat="41.1645240" lon="1.2703020">
        <ele>135.6</ele>
        <time>2021-05-07T18:19:21Z</time>
      </trkpt>
      <trkpt lat="41.1645700" lon="1.2703070">
        <ele>135.6</ele>
        <time>2021-05-07T18:19:22Z</time>
      </trkpt>
      <trkpt lat="41.1647550" lon="1.2703310">
        <ele>134.2</ele>
        <time>2021-05-07T18:19:26Z</time>
      </trkpt>
      <trkpt lat="41.1649000" lon="1.2703500">
        <ele>133.2</ele>
        <time>2021-05-07T18:19:29Z</time>
      </trkpt>
      <trkpt lat="41.1649500" lon="1.2703570">
        <ele>133.0</ele>
        <time>2021-05-07T18:19:30Z</time>
      </trkpt>
      <trkpt lat="41.1650980" lon="1.2703790">
        <ele>131.4</ele>
        <time>2021-05-07T18:19:33Z</time>
      </trkpt>
      <trkpt lat="41.1651890" lon="1.2703950">
        <ele>130.2</ele>
        <time>2021-05-07T18:19:35Z</time>
      </trkpt>
      <trkpt lat="41.1652290" lon="1.2704210">
        <ele>129.6</ele>
        <time>2021-05-07T18:19:36Z</time>
      </trkpt>
      <trkpt lat="41.1652630" lon="1.2705350">
        <ele>128.8</ele>
        <time>2021-05-07T18:19:38Z</time>
      </trkpt>
      <trkpt lat="41.1652530" lon="1.2707220">
        <ele>128.2</ele>
        <time>2021-05-07T18:19:41Z</time>
      </trkpt>
      <trkpt lat="41.1652570" lon="1.2708430">
        <ele>127.8</ele>
        <time>2021-05-07T18:19:43Z</time>
      </trkpt>
      <trkpt lat="41.1653100" lon="1.2711490">
        <ele>127.6</ele>
        <time>2021-05-07T18:19:49Z</time>
      </trkpt>
      <trkpt lat="41.1654410" lon="1.2712380">
        <ele>127.6</ele>
        <time>2021-05-07T18:19:53Z</time>
      </trkpt>
      <trkpt lat="41.1656850" lon="1.2712950">
        <ele>127.6</ele>
        <time>2021-05-07T18:20:00Z</time>
      </trkpt>
      <trkpt lat="41.1659130" lon="1.2713570">
        <ele>127.4</ele>
        <time>2021-05-07T18:20:07Z</time>
      </trkpt>
      <trkpt lat="41.1660660" lon="1.2714050">
        <ele>127.6</ele>
        <time>2021-05-07T18:20:12Z</time>
      </trkpt>
      <trkpt lat="41.1662990" lon="1.2714850">
        <ele>128.4</ele>
        <time>2021-05-07T18:20:20Z</time>
      </trkpt>
      <trkpt lat="41.1664050" lon="1.2715060">
        <ele>128.6</ele>
        <time>2021-05-07T18:20:25Z</time>
      </trkpt>
      <trkpt lat="41.1664820" lon="1.2715380">
        <ele>128.8</ele>
        <time>2021-05-07T18:20:28Z</time>
      </trkpt>
      <trkpt lat="41.1665910" lon="1.2715840">
        <ele>129.4</ele>
        <time>2021-05-07T18:20:32Z</time>
      </trkpt>
      <trkpt lat="41.1667170" lon="1.2716530">
        <ele>130.0</ele>
        <time>2021-05-07T18:20:38Z</time>
      </trkpt>
      <trkpt lat="41.1668190" lon="1.2717180">
        <ele>130.6</ele>
        <time>2021-05-07T18:20:44Z</time>
      </trkpt>
      <trkpt lat="41.1669290" lon="1.2717430">
        <ele>130.6</ele>
        <time>2021-05-07T18:20:48Z</time>
      </trkpt>
      <trkpt lat="41.1670920" lon="1.2717900">
        <ele>130.6</ele>
        <time>2021-05-07T18:20:54Z</time>
      </trkpt>
      <trkpt lat="41.1671460" lon="1.2717950">
        <ele>130.8</ele>
        <time>2021-05-07T18:20:56Z</time>
      </trkpt>
      <trkpt lat="41.1672380" lon="1.2718120">
        <ele>131.0</ele>
        <time>2021-05-07T18:20:59Z</time>
      </trkpt>
      <trkpt lat="41.1674330" lon="1.2719010">
        <ele>131.2</ele>
        <time>2021-05-07T18:21:06Z</time>
      </trkpt>
      <trkpt lat="41.1676010" lon="1.2719680">
        <ele>130.8</ele>
        <time>2021-05-07T18:21:12Z</time>
      </trkpt>
      <trkpt lat="41.1677810" lon="1.2720620">
        <ele>130.2</ele>
        <time>2021-05-07T18:21:18Z</time>
      </trkpt>
      <trkpt lat="41.1679730" lon="1.2721600">
        <ele>130.2</ele>
        <time>2021-05-07T18:21:26Z</time>
      </trkpt>
      <trkpt lat="41.1681440" lon="1.2722410">
        <ele>130.4</ele>
        <time>2021-05-07T18:21:33Z</time>
      </trkpt>
      <trkpt lat="41.1682890" lon="1.2723160">
        <ele>131.0</ele>
        <time>2021-05-07T18:21:39Z</time>
      </trkpt>
      <trkpt lat="41.1684160" lon="1.2723950">
        <ele>131.2</ele>
        <time>2021-05-07T18:21:44Z</time>
      </trkpt>
      <trkpt lat="41.1685900" lon="1.2725080">
        <ele>131.6</ele>
        <time>2021-05-07T18:21:51Z</time>
      </trkpt>
      <trkpt lat="41.1686140" lon="1.2725260">
        <ele>131.6</ele>
        <time>2021-05-07T18:21:52Z</time>
      </trkpt>
      <trkpt lat="41.1687330" lon="1.2726070">
        <ele>132.0</ele>
        <time>2021-05-07T18:21:57Z</time>
      </trkpt>
      <trkpt lat="41.1688280" lon="1.2726770">
        <ele>132.8</ele>
        <time>2021-05-07T18:22:02Z</time>
      </trkpt>
      <trkpt lat="41.1689450" lon="1.2727660">
        <ele>133.6</ele>
        <time>2021-05-07T18:22:08Z</time>
      </trkpt>
      <trkpt lat="41.1690030" lon="1.2728090">
        <ele>133.8</ele>
        <time>2021-05-07T18:22:11Z</time>
      </trkpt>
      <trkpt lat="41.1690620" lon="1.2728580">
        <ele>134.0</ele>
        <time>2021-05-07T18:22:14Z</time>
      </trkpt>
      <trkpt lat="41.1691630" lon="1.2729440">
        <ele>134.6</ele>
        <time>2021-05-07T18:22:19Z</time>
      </trkpt>
      <trkpt lat="41.1691830" lon="1.2729670">
        <ele>134.8</ele>
        <time>2021-05-07T18:22:20Z</time>
      </trkpt>
      <trkpt lat="41.1693520" lon="1.2731400">
        <ele>135.4</ele>
        <time>2021-05-07T18:22:27Z</time>
      </trkpt>
      <trkpt lat="41.1695650" lon="1.2734030">
        <ele>133.6</ele>
        <time>2021-05-07T18:22:36Z</time>
      </trkpt>
      <trkpt lat="41.1695920" lon="1.2735970">
        <ele>132.4</ele>
        <time>2021-05-07T18:22:40Z</time>
      </trkpt>
      <trkpt lat="41.1696040" lon="1.2736460">
        <ele>132.0</ele>
        <time>2021-05-07T18:22:41Z</time>
      </trkpt>
      <trkpt lat="41.1696600" lon="1.2737150">
        <ele>131.8</ele>
        <time>2021-05-07T18:22:43Z</time>
      </trkpt>
      <trkpt lat="41.1697020" lon="1.2737210">
        <ele>131.8</ele>
        <time>2021-05-07T18:22:44Z</time>
      </trkpt>
      <trkpt lat="41.1698350" lon="1.2737280">
        <ele>131.4</ele>
        <time>2021-05-07T18:22:47Z</time>
      </trkpt>
      <trkpt lat="41.1698830" lon="1.2737410">
        <ele>131.0</ele>
        <time>2021-05-07T18:22:48Z</time>
      </trkpt>
      <trkpt lat="41.1699810" lon="1.2737730">
        <ele>130.4</ele>
        <time>2021-05-07T18:22:50Z</time>
      </trkpt>
      <trkpt lat="41.1701280" lon="1.2738230">
        <ele>129.8</ele>
        <time>2021-05-07T18:22:53Z</time>
      </trkpt>
      <trkpt lat="41.1704010" lon="1.2739220">
        <ele>129.4</ele>
        <time>2021-05-07T18:22:59Z</time>
      </trkpt>
      <trkpt lat="41.1706090" lon="1.2740030">
        <ele>130.0</ele>
        <time>2021-05-07T18:23:05Z</time>
      </trkpt>
      <trkpt lat="41.1707960" lon="1.2740960">
        <ele>130.0</ele>
        <time>2021-05-07T18:23:12Z</time>
      </trkpt>
      <trkpt lat="41.1709840" lon="1.2741780">
        <ele>130.4</ele>
        <time>2021-05-07T18:23:19Z</time>
      </trkpt>
      <trkpt lat="41.1711360" lon="1.2742370">
        <ele>130.6</ele>
        <time>2021-05-07T18:23:24Z</time>
      </trkpt>
      <trkpt lat="41.1711660" lon="1.2742480">
        <ele>130.8</ele>
        <time>2021-05-07T18:23:25Z</time>
      </trkpt>
      <trkpt lat="41.1713830" lon="1.2743160">
        <ele>130.4</ele>
        <time>2021-05-07T18:23:31Z</time>
      </trkpt>
      <trkpt lat="41.1716270" lon="1.2744060">
        <ele>129.6</ele>
        <time>2021-05-07T18:23:38Z</time>
      </trkpt>
      <trkpt lat="41.1718680" lon="1.2745320">
        <ele>129.4</ele>
        <time>2021-05-07T18:23:45Z</time>
      </trkpt>
      <trkpt lat="41.1719570" lon="1.2747370">
        <ele>129.6</ele>
        <time>2021-05-07T18:23:51Z</time>
      </trkpt>
      <trkpt lat="41.1719630" lon="1.2749450">
        <ele>130.6</ele>
        <time>2021-05-07T18:23:58Z</time>
      </trkpt>
      <trkpt lat="41.1719630" lon="1.2749710">
        <ele>130.6</ele>
        <time>2021-05-07T18:23:59Z</time>
      </trkpt>
      <trkpt lat="41.1719540" lon="1.2751510">
        <ele>131.6</ele>
        <time>2021-05-07T18:24:06Z</time>
      </trkpt>
      <trkpt lat="41.1719250" lon="1.2753080">
        <ele>132.6</ele>
        <time>2021-05-07T18:24:12Z</time>
      </trkpt>
      <trkpt lat="41.1719110" lon="1.2753800">
        <ele>133.2</ele>
        <time>2021-05-07T18:24:15Z</time>
      </trkpt>
      <trkpt lat="41.1719020" lon="1.2754740">
        <ele>133.6</ele>
        <time>2021-05-07T18:24:19Z</time>
      </trkpt>
      <trkpt lat="41.1718960" lon="1.2755670">
        <ele>134.4</ele>
        <time>2021-05-07T18:24:23Z</time>
      </trkpt>
      <trkpt lat="41.1718900" lon="1.2756110">
        <ele>134.6</ele>
        <time>2021-05-07T18:24:25Z</time>
      </trkpt>
      <trkpt lat="41.1718790" lon="1.2757170">
        <ele>135.4</ele>
        <time>2021-05-07T18:24:30Z</time>
      </trkpt>
      <trkpt lat="41.1718710" lon="1.2757680">
        <ele>135.8</ele>
        <time>2021-05-07T18:24:33Z</time>
      </trkpt>
      <trkpt lat="41.1718710" lon="1.2758210">
        <ele>136.4</ele>
        <time>2021-05-07T18:24:37Z</time>
      </trkpt>
      <trkpt lat="41.1718740" lon="1.2758400">
        <ele>136.4</ele>
        <time>2021-05-07T18:24:38Z</time>
      </trkpt>
      <trkpt lat="41.1718620" lon="1.2758980">
        <ele>136.8</ele>
        <time>2021-05-07T18:24:41Z</time>
      </trkpt>
      <trkpt lat="41.1718520" lon="1.2759360">
        <ele>137.0</ele>
        <time>2021-05-07T18:24:43Z</time>
      </trkpt>
      <trkpt lat="41.1718030" lon="1.2760740">
        <ele>137.8</ele>
        <time>2021-05-07T18:24:50Z</time>
      </trkpt>
      <trkpt lat="41.1717930" lon="1.2761180">
        <ele>138.2</ele>
        <time>2021-05-07T18:24:52Z</time>
      </trkpt>
      <trkpt lat="41.1717690" lon="1.2762020">
        <ele>139.0</ele>
        <time>2021-05-07T18:24:56Z</time>
      </trkpt>
      <trkpt lat="41.1717210" lon="1.2763150">
        <ele>139.8</ele>
        <time>2021-05-07T18:25:02Z</time>
      </trkpt>
      <trkpt lat="41.1717060" lon="1.2763550">
        <ele>140.0</ele>
        <time>2021-05-07T18:25:04Z</time>
      </trkpt>
      <trkpt lat="41.1716250" lon="1.2765230">
        <ele>140.8</ele>
        <time>2021-05-07T18:25:12Z</time>
      </trkpt>
      <trkpt lat="41.1716020" lon="1.2765610">
        <ele>141.2</ele>
        <time>2021-05-07T18:25:14Z</time>
      </trkpt>
      <trkpt lat="41.1715260" lon="1.2766990">
        <ele>142.0</ele>
        <time>2021-05-07T18:25:21Z</time>
      </trkpt>
      <trkpt lat="41.1714940" lon="1.2767590">
        <ele>142.2</ele>
        <time>2021-05-07T18:25:24Z</time>
      </trkpt>
      <trkpt lat="41.1714450" lon="1.2768370">
        <ele>142.6</ele>
        <time>2021-05-07T18:25:28Z</time>
      </trkpt>
      <trkpt lat="41.1713260" lon="1.2769860">
        <ele>143.2</ele>
        <time>2021-05-07T18:25:36Z</time>
      </trkpt>
      <trkpt lat="41.1712770" lon="1.2770450">
        <ele>143.4</ele>
        <time>2021-05-07T18:25:39Z</time>
      </trkpt>
      <trkpt lat="41.1712490" lon="1.2771220">
        <ele>143.4</ele>
        <time>2021-05-07T18:25:42Z</time>
      </trkpt>
      <trkpt lat="41.1712460" lon="1.2771500">
        <ele>143.4</ele>
        <time>2021-05-07T18:25:43Z</time>
      </trkpt>
      <trkpt lat="41.1712340" lon="1.2772270">
        <ele>143.4</ele>
        <time>2021-05-07T18:25:46Z</time>
      </trkpt>
      <trkpt lat="41.1712090" lon="1.2772580">
        <ele>143.4</ele>
        <time>2021-05-07T18:25:48Z</time>
      </trkpt>
      <trkpt lat="41.1711230" lon="1.2773490">
        <ele>143.6</ele>
        <time>2021-05-07T18:25:53Z</time>
      </trkpt>
      <trkpt lat="41.1710240" lon="1.2774650">
        <ele>143.8</ele>
        <time>2021-05-07T18:25:58Z</time>
      </trkpt>
      <trkpt lat="41.1708750" lon="1.2776260">
        <ele>143.4</ele>
        <time>2021-05-07T18:26:05Z</time>
      </trkpt>
      <trkpt lat="41.1707250" lon="1.2777810">
        <ele>143.8</ele>
        <time>2021-05-07T18:26:12Z</time>
      </trkpt>
      <trkpt lat="41.1706850" lon="1.2779180">
        <ele>143.8</ele>
        <time>2021-05-07T18:26:16Z</time>
      </trkpt>
      <trkpt lat="41.1707190" lon="1.2781110">
        <ele>143.4</ele>
        <time>2021-05-07T18:26:22Z</time>
      </trkpt>
      <trkpt lat="41.1707280" lon="1.2781400">
        <ele>143.4</ele>
        <time>2021-05-07T18:26:25Z</time>
      </trkpt>
      <trkpt lat="41.1706880" lon="1.2781640">
        <ele>143.2</ele>
        <time>2021-05-07T18:26:37Z</time>
      </trkpt>
      <trkpt lat="41.1706250" lon="1.2782550">
        <ele>143.2</ele>
        <time>2021-05-07T18:26:41Z</time>
      </trkpt>
      <trkpt lat="41.1706260" lon="1.2782910">
        <ele>143.2</ele>
        <time>2021-05-07T18:26:42Z</time>
      </trkpt>
      <trkpt lat="41.1706490" lon="1.2784700">
        <ele>143.2</ele>
        <time>2021-05-07T18:26:47Z</time>
      </trkpt>
      <trkpt lat="41.1706650" lon="1.2784830">
        <ele>143.2</ele>
        <time>2021-05-07T18:26:48Z</time>
      </trkpt>
      <trkpt lat="41.1707290" lon="1.2784780">
        <ele>143.4</ele>
        <time>2021-05-07T18:26:51Z</time>
      </trkpt>
      <trkpt lat="41.1708070" lon="1.2785760">
        <ele>143.4</ele>
        <time>2021-05-07T18:26:55Z</time>
      </trkpt>
      <trkpt lat="41.1708220" lon="1.2786110">
        <ele>143.4</ele>
        <time>2021-05-07T18:26:56Z</time>
      </trkpt>
      <trkpt lat="41.1709320" lon="1.2788530">
        <ele>142.6</ele>
        <time>2021-05-07T18:27:03Z</time>
      </trkpt>
      <trkpt lat="41.1710270" lon="1.2790370">
        <ele>142.8</ele>
        <time>2021-05-07T18:27:09Z</time>
      </trkpt>
      <trkpt lat="41.1711590" lon="1.2792690">
        <ele>141.8</ele>
        <time>2021-05-07T18:27:15Z</time>
      </trkpt>
      <trkpt lat="41.1712800" lon="1.2795150">
        <ele>141.8</ele>
        <time>2021-05-07T18:27:21Z</time>
      </trkpt>
      <trkpt lat="41.1714060" lon="1.2797730">
        <ele>141.0</ele>
        <time>2021-05-07T18:27:28Z</time>
      </trkpt>
      <trkpt lat="41.1714250" lon="1.2799350">
        <ele>141.4</ele>
        <time>2021-05-07T18:27:32Z</time>
      </trkpt>
      <trkpt lat="41.1713700" lon="1.2800510">
        <ele>141.8</ele>
        <time>2021-05-07T18:27:36Z</time>
      </trkpt>
      <trkpt lat="41.1713020" lon="1.2802230">
        <ele>141.8</ele>
        <time>2021-05-07T18:27:42Z</time>
      </trkpt>
      <trkpt lat="41.1712670" lon="1.2802970">
        <ele>142.8</ele>
        <time>2021-05-07T18:27:45Z</time>
      </trkpt>
      <trkpt lat="41.1712410" lon="1.2803440">
        <ele>143.2</ele>
        <time>2021-05-07T18:27:47Z</time>
      </trkpt>
      <trkpt lat="41.1712160" lon="1.2803840">
        <ele>143.2</ele>
        <time>2021-05-07T18:27:49Z</time>
      </trkpt>
      <trkpt lat="41.1711750" lon="1.2804440">
        <ele>143.8</ele>
        <time>2021-05-07T18:27:52Z</time>
      </trkpt>
      <trkpt lat="41.1711390" lon="1.2804960">
        <ele>143.8</ele>
        <time>2021-05-07T18:27:54Z</time>
      </trkpt>
      <trkpt lat="41.1710760" lon="1.2805810">
        <ele>143.8</ele>
        <time>2021-05-07T18:27:57Z</time>
      </trkpt>
      <trkpt lat="41.1709760" lon="1.2807600">
        <ele>143.4</ele>
        <time>2021-05-07T18:28:03Z</time>
      </trkpt>
      <trkpt lat="41.1709610" lon="1.2808160">
        <ele>143.0</ele>
        <time>2021-05-07T18:28:05Z</time>
      </trkpt>
      <trkpt lat="41.1709740" lon="1.2808890">
        <ele>143.0</ele>
        <time>2021-05-07T18:28:07Z</time>
      </trkpt>
      <trkpt lat="41.1710780" lon="1.2809750">
        <ele>143.4</ele>
        <time>2021-05-07T18:28:12Z</time>
      </trkpt>
      <trkpt lat="41.1711000" lon="1.2809860">
        <ele>143.4</ele>
        <time>2021-05-07T18:28:13Z</time>
      </trkpt>
      <trkpt lat="41.1712210" lon="1.2810240">
        <ele>143.4</ele>
        <time>2021-05-07T18:28:18Z</time>
      </trkpt>
      <trkpt lat="41.1713640" lon="1.2810630">
        <ele>143.6</ele>
        <time>2021-05-07T18:28:24Z</time>
      </trkpt>
      <trkpt lat="41.1714930" lon="1.2811040">
        <ele>143.8</ele>
        <time>2021-05-07T18:28:30Z</time>
      </trkpt>
      <trkpt lat="41.1716230" lon="1.2811630">
        <ele>144.2</ele>
        <time>2021-05-07T18:28:36Z</time>
      </trkpt>
      <trkpt lat="41.1716730" lon="1.2812050">
        <ele>144.8</ele>
        <time>2021-05-07T18:28:39Z</time>
      </trkpt>
      <trkpt lat="41.1716930" lon="1.2812550">
        <ele>145.0</ele>
        <time>2021-05-07T18:28:41Z</time>
      </trkpt>
      <trkpt lat="41.1716870" lon="1.2814020">
        <ele>144.4</ele>
        <time>2021-05-07T18:28:46Z</time>
      </trkpt>
      <trkpt lat="41.1716820" lon="1.2814350">
        <ele>144.4</ele>
        <time>2021-05-07T18:28:47Z</time>
      </trkpt>
      <trkpt lat="41.1716810" lon="1.2815070">
        <ele>143.6</ele>
        <time>2021-05-07T18:28:49Z</time>
      </trkpt>
      <trkpt lat="41.1716710" lon="1.2816160">
        <ele>141.4</ele>
        <time>2021-05-07T18:28:52Z</time>
      </trkpt>
      <trkpt lat="41.1716430" lon="1.2817100">
        <ele>140.2</ele>
        <time>2021-05-07T18:28:54Z</time>
      </trkpt>
      <trkpt lat="41.1716150" lon="1.2818720">
        <ele>139.6</ele>
        <time>2021-05-07T18:28:57Z</time>
      </trkpt>
      <trkpt lat="41.1716050" lon="1.2819800">
        <ele>139.0</ele>
        <time>2021-05-07T18:28:59Z</time>
      </trkpt>
      <trkpt lat="41.1715940" lon="1.2820790">
        <ele>137.6</ele>
        <time>2021-05-07T18:29:01Z</time>
      </trkpt>
      <trkpt lat="41.1716000" lon="1.2821230">
        <ele>137.2</ele>
        <time>2021-05-07T18:29:02Z</time>
      </trkpt>
      <trkpt lat="41.1716140" lon="1.2821610">
        <ele>137.0</ele>
        <time>2021-05-07T18:29:03Z</time>
      </trkpt>
      <trkpt lat="41.1716520" lon="1.2822180">
        <ele>136.4</ele>
        <time>2021-05-07T18:29:06Z</time>
      </trkpt>
      <trkpt lat="41.1716560" lon="1.2822240">
        <ele>136.4</ele>
        <time>2021-05-07T18:29:07Z</time>
      </trkpt>
      <trkpt lat="41.1717270" lon="1.2822500">
        <ele>136.2</ele>
        <time>2021-05-07T18:29:12Z</time>
      </trkpt>
      <trkpt lat="41.1718780" lon="1.2822950">
        <ele>136.8</ele>
        <time>2021-05-07T18:29:19Z</time>
      </trkpt>
      <trkpt lat="41.1719940" lon="1.2823250">
        <ele>136.4</ele>
        <time>2021-05-07T18:29:25Z</time>
      </trkpt>
      <trkpt lat="41.1720270" lon="1.2824180">
        <ele>136.8</ele>
        <time>2021-05-07T18:29:29Z</time>
      </trkpt>
      <trkpt lat="41.1720320" lon="1.2824410">
        <ele>136.8</ele>
        <time>2021-05-07T18:29:30Z</time>
      </trkpt>
      <trkpt lat="41.1720450" lon="1.2825760">
        <ele>136.2</ele>
        <time>2021-05-07T18:29:34Z</time>
      </trkpt>
      <trkpt lat="41.1720690" lon="1.2826690">
        <ele>135.2</ele>
        <time>2021-05-07T18:29:37Z</time>
      </trkpt>
      <trkpt lat="41.1720900" lon="1.2827120">
        <ele>134.6</ele>
        <time>2021-05-07T18:29:39Z</time>
      </trkpt>
      <trkpt lat="41.1721000" lon="1.2827270">
        <ele>134.2</ele>
        <time>2021-05-07T18:29:42Z</time>
      </trkpt>
      <trkpt lat="41.1721110" lon="1.2827730">
        <ele>134.2</ele>
        <time>2021-05-07T18:29:54Z</time>
      </trkpt>
      <trkpt lat="41.1721150" lon="1.2827910">
        <ele>134.2</ele>
        <time>2021-05-07T18:29:55Z</time>
      </trkpt>
      <trkpt lat="41.1721160" lon="1.2828690">
        <ele>133.8</ele>
        <time>2021-05-07T18:29:58Z</time>
      </trkpt>
      <trkpt lat="41.1721100" lon="1.2830130">
        <ele>133.0</ele>
        <time>2021-05-07T18:30:01Z</time>
      </trkpt>
      <trkpt lat="41.1721290" lon="1.2831180">
        <ele>132.8</ele>
        <time>2021-05-07T18:30:03Z</time>
      </trkpt>
      <trkpt lat="41.1721560" lon="1.2832790">
        <ele>133.0</ele>
        <time>2021-05-07T18:30:06Z</time>
      </trkpt>
      <trkpt lat="41.1721580" lon="1.2833880">
        <ele>132.6</ele>
        <time>2021-05-07T18:30:08Z</time>
      </trkpt>
      <trkpt lat="41.1721630" lon="1.2834900">
        <ele>131.8</ele>
        <time>2021-05-07T18:30:10Z</time>
      </trkpt>
      <trkpt lat="41.1721570" lon="1.2835950">
        <ele>130.6</ele>
        <time>2021-05-07T18:30:12Z</time>
      </trkpt>
      <trkpt lat="41.1721500" lon="1.2836520">
        <ele>130.2</ele>
        <time>2021-05-07T18:30:13Z</time>
      </trkpt>
      <trkpt lat="41.1721280" lon="1.2837670">
        <ele>130.0</ele>
        <time>2021-05-07T18:30:15Z</time>
      </trkpt>
      <trkpt lat="41.1720930" lon="1.2839130">
        <ele>129.2</ele>
        <time>2021-05-07T18:30:18Z</time>
      </trkpt>
      <trkpt lat="41.1720620" lon="1.2840450">
        <ele>128.0</ele>
        <time>2021-05-07T18:30:21Z</time>
      </trkpt>
      <trkpt lat="41.1720330" lon="1.2841010">
        <ele>127.0</ele>
        <time>2021-05-07T18:30:23Z</time>
      </trkpt>
      <trkpt lat="41.1720120" lon="1.2841040">
        <ele>127.0</ele>
        <time>2021-05-07T18:30:24Z</time>
      </trkpt>
      <trkpt lat="41.1719370" lon="1.2841120">
        <ele>127.0</ele>
        <time>2021-05-07T18:30:27Z</time>
      </trkpt>
      <trkpt lat="41.1718560" lon="1.2842520">
        <ele>126.6</ele>
        <time>2021-05-07T18:30:31Z</time>
      </trkpt>
      <trkpt lat="41.1718360" lon="1.2842960">
        <ele>126.4</ele>
        <time>2021-05-07T18:30:32Z</time>
      </trkpt>
      <trkpt lat="41.1718160" lon="1.2843510">
        <ele>126.0</ele>
        <time>2021-05-07T18:30:33Z</time>
      </trkpt>
      <trkpt lat="41.1717980" lon="1.2844100">
        <ele>125.6</ele>
        <time>2021-05-07T18:30:34Z</time>
      </trkpt>
      <trkpt lat="41.1717620" lon="1.2845250">
        <ele>125.0</ele>
        <time>2021-05-07T18:30:36Z</time>
      </trkpt>
      <trkpt lat="41.1717360" lon="1.2846270">
        <ele>124.2</ele>
        <time>2021-05-07T18:30:38Z</time>
      </trkpt>
      <trkpt lat="41.1716890" lon="1.2847670">
        <ele>123.0</ele>
        <time>2021-05-07T18:30:41Z</time>
      </trkpt>
      <trkpt lat="41.1716190" lon="1.2850130">
        <ele>121.2</ele>
        <time>2021-05-07T18:30:46Z</time>
      </trkpt>
      <trkpt lat="41.1715920" lon="1.2851070">
        <ele>120.0</ele>
        <time>2021-05-07T18:30:48Z</time>
      </trkpt>
      <trkpt lat="41.1714920" lon="1.2854280">
        <ele>118.8</ele>
        <time>2021-05-07T18:30:55Z</time>
      </trkpt>
      <trkpt lat="41.1713790" lon="1.2857000">
        <ele>118.2</ele>
        <time>2021-05-07T18:31:01Z</time>
      </trkpt>
      <trkpt lat="41.1713610" lon="1.2857480">
        <ele>118.0</ele>
        <time>2021-05-07T18:31:02Z</time>
      </trkpt>
      <trkpt lat="41.1713470" lon="1.2858030">
        <ele>117.0</ele>
        <time>2021-05-07T18:31:03Z</time>
      </trkpt>
      <trkpt lat="41.1713340" lon="1.2859250">
        <ele>116.2</ele>
        <time>2021-05-07T18:31:05Z</time>
      </trkpt>
      <trkpt lat="41.1713310" lon="1.2859860">
        <ele>115.6</ele>
        <time>2021-05-07T18:31:06Z</time>
      </trkpt>
      <trkpt lat="41.1713290" lon="1.2861060">
        <ele>114.6</ele>
        <time>2021-05-07T18:31:08Z</time>
      </trkpt>
      <trkpt lat="41.1713210" lon="1.2861700">
        <ele>114.6</ele>
        <time>2021-05-07T18:31:09Z</time>
      </trkpt>
      <trkpt lat="41.1713010" lon="1.2862390">
        <ele>114.2</ele>
        <time>2021-05-07T18:31:10Z</time>
      </trkpt>
      <trkpt lat="41.1711910" lon="1.2864200">
        <ele>113.8</ele>
        <time>2021-05-07T18:31:13Z</time>
      </trkpt>
      <trkpt lat="41.1711470" lon="1.2864750">
        <ele>112.8</ele>
        <time>2021-05-07T18:31:14Z</time>
      </trkpt>
      <trkpt lat="41.1711080" lon="1.2865350">
        <ele>112.6</ele>
        <time>2021-05-07T18:31:15Z</time>
      </trkpt>
      <trkpt lat="41.1710520" lon="1.2866570">
        <ele>112.0</ele>
        <time>2021-05-07T18:31:17Z</time>
      </trkpt>
      <trkpt lat="41.1708750" lon="1.2871180">
        <ele>111.4</ele>
        <time>2021-05-07T18:31:25Z</time>
      </trkpt>
      <trkpt lat="41.1707990" lon="1.2872650">
        <ele>110.8</ele>
        <time>2021-05-07T18:31:28Z</time>
      </trkpt>
      <trkpt lat="41.1707730" lon="1.2873090">
        <ele>110.6</ele>
        <time>2021-05-07T18:31:29Z</time>
      </trkpt>
      <trkpt lat="41.1706820" lon="1.2874140">
        <ele>109.8</ele>
        <time>2021-05-07T18:31:32Z</time>
      </trkpt>
      <trkpt lat="41.1706510" lon="1.2874440">
        <ele>109.6</ele>
        <time>2021-05-07T18:31:33Z</time>
      </trkpt>
      <trkpt lat="41.1705450" lon="1.2875740">
        <ele>109.0</ele>
        <time>2021-05-07T18:31:37Z</time>
      </trkpt>
      <trkpt lat="41.1705300" lon="1.2875960">
        <ele>109.0</ele>
        <time>2021-05-07T18:31:38Z</time>
      </trkpt>
      <trkpt lat="41.1705230" lon="1.2876060">
        <ele>108.6</ele>
        <time>2021-05-07T18:31:39Z</time>
      </trkpt>
      <trkpt lat="41.1705220" lon="1.2876150">
        <ele>108.4</ele>
        <time>2021-05-07T18:31:41Z</time>
      </trkpt>
      <trkpt lat="41.1705710" lon="1.2876860">
        <ele>108.4</ele>
        <time>2021-05-07T18:32:10Z</time>
      </trkpt>
      <trkpt lat="41.1707040" lon="1.2877640">
        <ele>108.4</ele>
        <time>2021-05-07T18:32:17Z</time>
      </trkpt>
      <trkpt lat="41.1708940" lon="1.2879030">
        <ele>108.4</ele>
        <time>2021-05-07T18:32:25Z</time>
      </trkpt>
      <trkpt lat="41.1710870" lon="1.2880490">
        <ele>109.0</ele>
        <time>2021-05-07T18:32:33Z</time>
      </trkpt>
      <trkpt lat="41.1712310" lon="1.2881880">
        <ele>108.8</ele>
        <time>2021-05-07T18:32:40Z</time>
      </trkpt>
      <trkpt lat="41.1713660" lon="1.2883550">
        <ele>109.8</ele>
        <time>2021-05-07T18:32:48Z</time>
      </trkpt>
      <trkpt lat="41.1713850" lon="1.2883720">
        <ele>109.8</ele>
        <time>2021-05-07T18:32:49Z</time>
      </trkpt>
      <trkpt lat="41.1714940" lon="1.2884660">
        <ele>111.0</ele>
        <time>2021-05-07T18:32:55Z</time>
      </trkpt>
      <trkpt lat="41.1715260" lon="1.2885020">
        <ele>111.2</ele>
        <time>2021-05-07T18:32:57Z</time>
      </trkpt>
      <trkpt lat="41.1716470" lon="1.2886160">
        <ele>111.6</ele>
        <time>2021-05-07T18:33:04Z</time>
      </trkpt>
      <trkpt lat="41.1717480" lon="1.2886970">
        <ele>112.0</ele>
        <time>2021-05-07T18:33:10Z</time>
      </trkpt>
      <trkpt lat="41.1717780" lon="1.2887340">
        <ele>112.2</ele>
        <time>2021-05-07T18:33:12Z</time>
      </trkpt>
      <trkpt lat="41.1718420" lon="1.2888530">
        <ele>112.4</ele>
        <time>2021-05-07T18:33:17Z</time>
      </trkpt>
      <trkpt lat="41.1718670" lon="1.2888960">
        <ele>112.6</ele>
        <time>2021-05-07T18:33:19Z</time>
      </trkpt>
      <trkpt lat="41.1719430" lon="1.2890640">
        <ele>112.8</ele>
        <time>2021-05-07T18:33:26Z</time>
      </trkpt>
      <trkpt lat="41.1720100" lon="1.2892290">
        <ele>112.6</ele>
        <time>2021-05-07T18:33:33Z</time>
      </trkpt>
      <trkpt lat="41.1720470" lon="1.2893160">
        <ele>113.0</ele>
        <time>2021-05-07T18:33:37Z</time>
      </trkpt>
      <trkpt lat="41.1720780" lon="1.2893780">
        <ele>113.2</ele>
        <time>2021-05-07T18:33:40Z</time>
      </trkpt>
      <trkpt lat="41.1721450" lon="1.2895060">
        <ele>113.2</ele>
        <time>2021-05-07T18:33:46Z</time>
      </trkpt>
      <trkpt lat="41.1722040" lon="1.2896470">
        <ele>113.4</ele>
        <time>2021-05-07T18:33:52Z</time>
      </trkpt>
      <trkpt lat="41.1722630" lon="1.2897710">
        <ele>113.4</ele>
        <time>2021-05-07T18:33:58Z</time>
      </trkpt>
      <trkpt lat="41.1723350" lon="1.2898780">
        <ele>113.4</ele>
        <time>2021-05-07T18:34:04Z</time>
      </trkpt>
      <trkpt lat="41.1723920" lon="1.2900230">
        <ele>113.6</ele>
        <time>2021-05-07T18:34:10Z</time>
      </trkpt>
      <trkpt lat="41.1724630" lon="1.2901830">
        <ele>113.4</ele>
        <time>2021-05-07T18:34:17Z</time>
      </trkpt>
      <trkpt lat="41.1724930" lon="1.2903330">
        <ele>113.8</ele>
        <time>2021-05-07T18:34:23Z</time>
      </trkpt>
      <trkpt lat="41.1725060" lon="1.2905250">
        <ele>113.8</ele>
        <time>2021-05-07T18:34:30Z</time>
      </trkpt>
      <trkpt lat="41.1725090" lon="1.2906050">
        <ele>114.4</ele>
        <time>2021-05-07T18:34:33Z</time>
      </trkpt>
      <trkpt lat="41.1725180" lon="1.2906990">
        <ele>114.4</ele>
        <time>2021-05-07T18:34:37Z</time>
      </trkpt>
      <trkpt lat="41.1725170" lon="1.2908950">
        <ele>114.0</ele>
        <time>2021-05-07T18:34:44Z</time>
      </trkpt>
      <trkpt lat="41.1725320" lon="1.2911380">
        <ele>115.4</ele>
        <time>2021-05-07T18:34:52Z</time>
      </trkpt>
      <trkpt lat="41.1725430" lon="1.2912860">
        <ele>115.8</ele>
        <time>2021-05-07T18:34:57Z</time>
      </trkpt>
      <trkpt lat="41.1725580" lon="1.2915100">
        <ele>116.0</ele>
        <time>2021-05-07T18:35:05Z</time>
      </trkpt>
      <trkpt lat="41.1725620" lon="1.2915580">
        <ele>116.6</ele>
        <time>2021-05-07T18:35:07Z</time>
      </trkpt>
      <trkpt lat="41.1725700" lon="1.2916370">
        <ele>117.2</ele>
        <time>2021-05-07T18:35:11Z</time>
      </trkpt>
      <trkpt lat="41.1725740" lon="1.2916580">
        <ele>117.2</ele>
        <time>2021-05-07T18:35:12Z</time>
      </trkpt>
      <trkpt lat="41.1725810" lon="1.2917200">
        <ele>117.4</ele>
        <time>2021-05-07T18:35:15Z</time>
      </trkpt>
      <trkpt lat="41.1725880" lon="1.2917670">
        <ele>117.8</ele>
        <time>2021-05-07T18:35:17Z</time>
      </trkpt>
      <trkpt lat="41.1725980" lon="1.2918150">
        <ele>118.4</ele>
        <time>2021-05-07T18:35:19Z</time>
      </trkpt>
      <trkpt lat="41.1726140" lon="1.2919290">
        <ele>118.8</ele>
        <time>2021-05-07T18:35:24Z</time>
      </trkpt>
      <trkpt lat="41.1726270" lon="1.2920060">
        <ele>119.2</ele>
        <time>2021-05-07T18:35:28Z</time>
      </trkpt>
      <trkpt lat="41.1726310" lon="1.2920230">
        <ele>119.2</ele>
        <time>2021-05-07T18:35:29Z</time>
      </trkpt>
      <trkpt lat="41.1726410" lon="1.2921310">
        <ele>119.4</ele>
        <time>2021-05-07T18:35:34Z</time>
      </trkpt>
      <trkpt lat="41.1726470" lon="1.2922480">
        <ele>119.8</ele>
        <time>2021-05-07T18:35:39Z</time>
      </trkpt>
      <trkpt lat="41.1726510" lon="1.2922720">
        <ele>119.8</ele>
        <time>2021-05-07T18:35:40Z</time>
      </trkpt>
      <trkpt lat="41.1726580" lon="1.2922960">
        <ele>119.8</ele>
        <time>2021-05-07T18:35:41Z</time>
      </trkpt>
      <trkpt lat="41.1727520" lon="1.2924440">
        <ele>120.6</ele>
        <time>2021-05-07T18:35:49Z</time>
      </trkpt>
      <trkpt lat="41.1727610" lon="1.2924650">
        <ele>120.8</ele>
        <time>2021-05-07T18:35:50Z</time>
      </trkpt>
      <trkpt lat="41.1728140" lon="1.2925880">
        <ele>120.6</ele>
        <time>2021-05-07T18:35:55Z</time>
      </trkpt>
      <trkpt lat="41.1728180" lon="1.2926180">
        <ele>120.4</ele>
        <time>2021-05-07T18:35:56Z</time>
      </trkpt>
      <trkpt lat="41.1728830" lon="1.2928040">
        <ele>119.6</ele>
        <time>2021-05-07T18:36:01Z</time>
      </trkpt>
      <trkpt lat="41.1729540" lon="1.2929430">
        <ele>118.8</ele>
        <time>2021-05-07T18:36:05Z</time>
      </trkpt>
      <trkpt lat="41.1729700" lon="1.2929840">
        <ele>118.4</ele>
        <time>2021-05-07T18:36:06Z</time>
      </trkpt>
      <trkpt lat="41.1730330" lon="1.2931230">
        <ele>117.2</ele>
        <time>2021-05-07T18:36:10Z</time>
      </trkpt>
      <trkpt lat="41.1730790" lon="1.2933170">
        <ele>116.6</ele>
        <time>2021-05-07T18:36:15Z</time>
      </trkpt>
      <trkpt lat="41.1730950" lon="1.2933610">
        <ele>116.2</ele>
        <time>2021-05-07T18:36:16Z</time>
      </trkpt>
      <trkpt lat="41.1731480" lon="1.2934540">
        <ele>115.2</ele>
        <time>2021-05-07T18:36:19Z</time>
      </trkpt>
      <trkpt lat="41.1731790" lon="1.2935050">
        <ele>114.0</ele>
        <time>2021-05-07T18:36:21Z</time>
      </trkpt>
      <trkpt lat="41.1732530" lon="1.2935870">
        <ele>113.0</ele>
        <time>2021-05-07T18:36:25Z</time>
      </trkpt>
      <trkpt lat="41.1733810" lon="1.2936330">
        <ele>111.8</ele>
        <time>2021-05-07T18:36:32Z</time>
      </trkpt>
      <trkpt lat="41.1734910" lon="1.2937210">
        <ele>111.0</ele>
        <time>2021-05-07T18:36:37Z</time>
      </trkpt>
      <trkpt lat="41.1735090" lon="1.2937450">
        <ele>110.6</ele>
        <time>2021-05-07T18:36:38Z</time>
      </trkpt>
      <trkpt lat="41.1735670" lon="1.2938170">
        <ele>110.2</ele>
        <time>2021-05-07T18:36:41Z</time>
      </trkpt>
      <trkpt lat="41.1736070" lon="1.2938550">
        <ele>109.4</ele>
        <time>2021-05-07T18:36:43Z</time>
      </trkpt>
      <trkpt lat="41.1736770" lon="1.2939200">
        <ele>108.2</ele>
        <time>2021-05-07T18:36:46Z</time>
      </trkpt>
      <trkpt lat="41.1736970" lon="1.2939420">
        <ele>107.8</ele>
        <time>2021-05-07T18:36:47Z</time>
      </trkpt>
      <trkpt lat="41.1737380" lon="1.2940270">
        <ele>106.6</ele>
        <time>2021-05-07T18:36:50Z</time>
      </trkpt>
      <trkpt lat="41.1737750" lon="1.2940730">
        <ele>106.4</ele>
        <time>2021-05-07T18:36:52Z</time>
      </trkpt>
      <trkpt lat="41.1738350" lon="1.2941060">
        <ele>105.6</ele>
        <time>2021-05-07T18:36:55Z</time>
      </trkpt>
      <trkpt lat="41.1738750" lon="1.2940980">
        <ele>105.2</ele>
        <time>2021-05-07T18:36:57Z</time>
      </trkpt>
      <trkpt lat="41.1739370" lon="1.2940840">
        <ele>104.6</ele>
        <time>2021-05-07T18:37:00Z</time>
      </trkpt>
      <trkpt lat="41.1739550" lon="1.2940760">
        <ele>104.2</ele>
        <time>2021-05-07T18:37:01Z</time>
      </trkpt>
      <trkpt lat="41.1740090" lon="1.2940510">
        <ele>103.0</ele>
        <time>2021-05-07T18:37:04Z</time>
      </trkpt>
      <trkpt lat="41.1740210" lon="1.2940520">
        <ele>102.8</ele>
        <time>2021-05-07T18:37:05Z</time>
      </trkpt>
      <trkpt lat="41.1740660" lon="1.2940920">
        <ele>101.8</ele>
        <time>2021-05-07T18:37:08Z</time>
      </trkpt>
      <trkpt lat="41.1741090" lon="1.2941310">
        <ele>101.2</ele>
        <time>2021-05-07T18:37:10Z</time>
      </trkpt>
      <trkpt lat="41.1741520" lon="1.2941780">
        <ele>100.4</ele>
        <time>2021-05-07T18:37:12Z</time>
      </trkpt>
      <trkpt lat="41.1742100" lon="1.2942610">
        <ele>99.6</ele>
        <time>2021-05-07T18:37:15Z</time>
      </trkpt>
      <trkpt lat="41.1742310" lon="1.2942860">
        <ele>99.2</ele>
        <time>2021-05-07T18:37:16Z</time>
      </trkpt>
      <trkpt lat="41.1742480" lon="1.2943100">
        <ele>99.0</ele>
        <time>2021-05-07T18:37:17Z</time>
      </trkpt>
      <trkpt lat="41.1742850" lon="1.2943550">
        <ele>98.8</ele>
        <time>2021-05-07T18:37:19Z</time>
      </trkpt>
      <trkpt lat="41.1743210" lon="1.2944330">
        <ele>98.4</ele>
        <time>2021-05-07T18:37:22Z</time>
      </trkpt>
      <trkpt lat="41.1743380" lon="1.2944600">
        <ele>98.0</ele>
        <time>2021-05-07T18:37:23Z</time>
      </trkpt>
      <trkpt lat="41.1743720" lon="1.2945060">
        <ele>97.8</ele>
        <time>2021-05-07T18:37:25Z</time>
      </trkpt>
      <trkpt lat="41.1744130" lon="1.2945600">
        <ele>97.0</ele>
        <time>2021-05-07T18:37:27Z</time>
      </trkpt>
      <trkpt lat="41.1744670" lon="1.2946330">
        <ele>96.0</ele>
        <time>2021-05-07T18:37:29Z</time>
      </trkpt>
      <trkpt lat="41.1744970" lon="1.2946720">
        <ele>95.6</ele>
        <time>2021-05-07T18:37:30Z</time>
      </trkpt>
      <trkpt lat="41.1745340" lon="1.2947070">
        <ele>95.4</ele>
        <time>2021-05-07T18:37:31Z</time>
      </trkpt>
      <trkpt lat="41.1746250" lon="1.2947560">
        <ele>95.0</ele>
        <time>2021-05-07T18:37:33Z</time>
      </trkpt>
      <trkpt lat="41.1747540" lon="1.2948040">
        <ele>94.6</ele>
        <time>2021-05-07T18:37:36Z</time>
      </trkpt>
      <trkpt lat="41.1748710" lon="1.2948330">
        <ele>93.8</ele>
        <time>2021-05-07T18:37:39Z</time>
      </trkpt>
      <trkpt lat="41.1750250" lon="1.2948610">
        <ele>93.6</ele>
        <time>2021-05-07T18:37:44Z</time>
      </trkpt>
      <trkpt lat="41.1752040" lon="1.2948560">
        <ele>94.0</ele>
        <time>2021-05-07T18:37:51Z</time>
      </trkpt>
      <trkpt lat="41.1752910" lon="1.2949170">
        <ele>94.2</ele>
        <time>2021-05-07T18:37:56Z</time>
      </trkpt>
      <trkpt lat="41.1753930" lon="1.2950170">
        <ele>94.8</ele>
        <time>2021-05-07T18:38:03Z</time>
      </trkpt>
      <trkpt lat="41.1754860" lon="1.2950980">
        <ele>95.4</ele>
        <time>2021-05-07T18:38:09Z</time>
      </trkpt>
      <trkpt lat="41.1755630" lon="1.2951680">
        <ele>95.6</ele>
        <time>2021-05-07T18:38:14Z</time>
      </trkpt>
      <trkpt lat="41.1756070" lon="1.2952050">
        <ele>95.6</ele>
        <time>2021-05-07T18:38:17Z</time>
      </trkpt>
      <trkpt lat="41.1756950" lon="1.2952850">
        <ele>95.8</ele>
        <time>2021-05-07T18:38:25Z</time>
      </trkpt>
      <trkpt lat="41.1757050" lon="1.2952950">
        <ele>95.8</ele>
        <time>2021-05-07T18:38:26Z</time>
      </trkpt>
      <trkpt lat="41.1757450" lon="1.2953310">
        <ele>96.2</ele>
        <time>2021-05-07T18:38:30Z</time>
      </trkpt>
      <trkpt lat="41.1758180" lon="1.2954190">
        <ele>96.4</ele>
        <time>2021-05-07T18:38:37Z</time>
      </trkpt>
      <trkpt lat="41.1758670" lon="1.2954830">
        <ele>96.0</ele>
        <time>2021-05-07T18:38:43Z</time>
      </trkpt>
      <trkpt lat="41.1758760" lon="1.2954970">
        <ele>96.0</ele>
        <time>2021-05-07T18:38:44Z</time>
      </trkpt>
      <trkpt lat="41.1759400" lon="1.2955410">
        <ele>96.4</ele>
        <time>2021-05-07T18:38:49Z</time>
      </trkpt>
      <trkpt lat="41.1759550" lon="1.2955550">
        <ele>96.4</ele>
        <time>2021-05-07T18:38:50Z</time>
      </trkpt>
      <trkpt lat="41.1760140" lon="1.2956230">
        <ele>96.2</ele>
        <time>2021-05-07T18:38:54Z</time>
      </trkpt>
      <trkpt lat="41.1760330" lon="1.2956590">
        <ele>96.4</ele>
        <time>2021-05-07T18:38:56Z</time>
      </trkpt>
      <trkpt lat="41.1760360" lon="1.2956950">
        <ele>96.4</ele>
        <time>2021-05-07T18:38:58Z</time>
      </trkpt>
      <trkpt lat="41.1760270" lon="1.2957910">
        <ele>96.4</ele>
        <time>2021-05-07T18:39:03Z</time>
      </trkpt>
      <trkpt lat="41.1759680" lon="1.2959010">
        <ele>97.0</ele>
        <time>2021-05-07T18:39:09Z</time>
      </trkpt>
      <trkpt lat="41.1758810" lon="1.2960110">
        <ele>97.2</ele>
        <time>2021-05-07T18:39:16Z</time>
      </trkpt>
      <trkpt lat="41.1757960" lon="1.2960630">
        <ele>97.0</ele>
        <time>2021-05-07T18:39:22Z</time>
      </trkpt>
      <trkpt lat="41.1757480" lon="1.2961200">
        <ele>97.4</ele>
        <time>2021-05-07T18:39:26Z</time>
      </trkpt>
      <trkpt lat="41.1757360" lon="1.2961520">
        <ele>97.6</ele>
        <time>2021-05-07T18:39:28Z</time>
      </trkpt>
      <trkpt lat="41.1757220" lon="1.2962770">
        <ele>98.4</ele>
        <time>2021-05-07T18:39:35Z</time>
      </trkpt>
      <trkpt lat="41.1757130" lon="1.2963310">
        <ele>98.4</ele>
        <time>2021-05-07T18:39:38Z</time>
      </trkpt>
      <trkpt lat="41.1757090" lon="1.2964250">
        <ele>98.8</ele>
        <time>2021-05-07T18:39:42Z</time>
      </trkpt>
      <trkpt lat="41.1757140" lon="1.2964480">
        <ele>99.0</ele>
        <time>2021-05-07T18:39:43Z</time>
      </trkpt>
      <trkpt lat="41.1757340" lon="1.2964760">
        <ele>99.8</ele>
        <time>2021-05-07T18:39:45Z</time>
      </trkpt>
      <trkpt lat="41.1757450" lon="1.2964860">
        <ele>100.2</ele>
        <time>2021-05-07T18:39:46Z</time>
      </trkpt>
      <trkpt lat="41.1757750" lon="1.2965380">
        <ele>100.8</ele>
        <time>2021-05-07T18:39:49Z</time>
      </trkpt>
      <trkpt lat="41.1757970" lon="1.2965780">
        <ele>101.6</ele>
        <time>2021-05-07T18:39:51Z</time>
      </trkpt>
      <trkpt lat="41.1758090" lon="1.2965940">
        <ele>102.0</ele>
        <time>2021-05-07T18:39:52Z</time>
      </trkpt>
      <trkpt lat="41.1758310" lon="1.2966270">
        <ele>102.6</ele>
        <time>2021-05-07T18:39:54Z</time>
      </trkpt>
      <trkpt lat="41.1758520" lon="1.2966790">
        <ele>103.2</ele>
        <time>2021-05-07T18:39:57Z</time>
      </trkpt>
      <trkpt lat="41.1758620" lon="1.2966960">
        <ele>103.4</ele>
        <time>2021-05-07T18:39:58Z</time>
      </trkpt>
      <trkpt lat="41.1758720" lon="1.2967080">
        <ele>103.4</ele>
        <time>2021-05-07T18:39:59Z</time>
      </trkpt>
      <trkpt lat="41.1759180" lon="1.2967650">
        <ele>103.8</ele>
        <time>2021-05-07T18:40:03Z</time>
      </trkpt>
      <trkpt lat="41.1759260" lon="1.2967980">
        <ele>103.8</ele>
        <time>2021-05-07T18:40:05Z</time>
      </trkpt>
      <trkpt lat="41.1759310" lon="1.2968640">
        <ele>103.6</ele>
        <time>2021-05-07T18:40:08Z</time>
      </trkpt>
      <trkpt lat="41.1759480" lon="1.2969330">
        <ele>103.6</ele>
        <time>2021-05-07T18:40:11Z</time>
      </trkpt>
      <trkpt lat="41.1759740" lon="1.2970050">
        <ele>103.6</ele>
        <time>2021-05-07T18:40:14Z</time>
      </trkpt>
      <trkpt lat="41.1760180" lon="1.2972050">
        <ele>104.0</ele>
        <time>2021-05-07T18:40:22Z</time>
      </trkpt>
      <trkpt lat="41.1759970" lon="1.2974380">
        <ele>103.8</ele>
        <time>2021-05-07T18:40:30Z</time>
      </trkpt>
      <trkpt lat="41.1759560" lon="1.2976160">
        <ele>103.6</ele>
        <time>2021-05-07T18:40:36Z</time>
      </trkpt>
      <trkpt lat="41.1758940" lon="1.2978600">
        <ele>103.4</ele>
        <time>2021-05-07T18:40:43Z</time>
      </trkpt>
      <trkpt lat="41.1758460" lon="1.2981230">
        <ele>104.0</ele>
        <time>2021-05-07T18:40:51Z</time>
      </trkpt>
      <trkpt lat="41.1758100" lon="1.2983820">
        <ele>104.4</ele>
        <time>2021-05-07T18:40:59Z</time>
      </trkpt>
      <trkpt lat="41.1758040" lon="1.2984710">
        <ele>105.0</ele>
        <time>2021-05-07T18:41:02Z</time>
      </trkpt>
      <trkpt lat="41.1757900" lon="1.2986180">
        <ele>105.4</ele>
        <time>2021-05-07T18:41:08Z</time>
      </trkpt>
      <trkpt lat="41.1757910" lon="1.2986400">
        <ele>105.6</ele>
        <time>2021-05-07T18:41:09Z</time>
      </trkpt>
      <trkpt lat="41.1757960" lon="1.2988130">
        <ele>106.4</ele>
        <time>2021-05-07T18:41:17Z</time>
      </trkpt>
      <trkpt lat="41.1757960" lon="1.2988490">
        <ele>106.6</ele>
        <time>2021-05-07T18:41:19Z</time>
      </trkpt>
      <trkpt lat="41.1757890" lon="1.2989940">
        <ele>107.6</ele>
        <time>2021-05-07T18:41:26Z</time>
      </trkpt>
      <trkpt lat="41.1757830" lon="1.2990180">
        <ele>107.6</ele>
        <time>2021-05-07T18:41:27Z</time>
      </trkpt>
      <trkpt lat="41.1757330" lon="1.2992340">
        <ele>108.2</ele>
        <time>2021-05-07T18:41:35Z</time>
      </trkpt>
      <trkpt lat="41.1756710" lon="1.2994910">
        <ele>108.4</ele>
        <time>2021-05-07T18:41:44Z</time>
      </trkpt>
      <trkpt lat="41.1756580" lon="1.2995450">
        <ele>108.6</ele>
        <time>2021-05-07T18:41:46Z</time>
      </trkpt>
      <trkpt lat="41.1755960" lon="1.2997870">
        <ele>109.2</ele>
        <time>2021-05-07T18:41:55Z</time>
      </trkpt>
      <trkpt lat="41.1755730" lon="1.2998910">
        <ele>109.6</ele>
        <time>2021-05-07T18:41:59Z</time>
      </trkpt>
      <trkpt lat="41.1755430" lon="1.3000200">
        <ele>110.2</ele>
        <time>2021-05-07T18:42:04Z</time>
      </trkpt>
      <trkpt lat="41.1755030" lon="1.3001970">
        <ele>110.8</ele>
        <time>2021-05-07T18:42:11Z</time>
      </trkpt>
      <trkpt lat="41.1754770" lon="1.3003020">
        <ele>111.4</ele>
        <time>2021-05-07T18:42:15Z</time>
      </trkpt>
      <trkpt lat="41.1754350" lon="1.3004000">
        <ele>111.8</ele>
        <time>2021-05-07T18:42:19Z</time>
      </trkpt>
      <trkpt lat="41.1754040" lon="1.3004610">
        <ele>112.2</ele>
        <time>2021-05-07T18:42:22Z</time>
      </trkpt>
      <trkpt lat="41.1753680" lon="1.3005750">
        <ele>112.8</ele>
        <time>2021-05-07T18:42:27Z</time>
      </trkpt>
      <trkpt lat="41.1753600" lon="1.3005980">
        <ele>113.0</ele>
        <time>2021-05-07T18:42:28Z</time>
      </trkpt>
      <trkpt lat="41.1753170" lon="1.3007040">
        <ele>113.8</ele>
        <time>2021-05-07T18:42:33Z</time>
      </trkpt>
      <trkpt lat="41.1752810" lon="1.3007610">
        <ele>114.2</ele>
        <time>2021-05-07T18:42:36Z</time>
      </trkpt>
      <trkpt lat="41.1752210" lon="1.3008900">
        <ele>115.0</ele>
        <time>2021-05-07T18:42:42Z</time>
      </trkpt>
      <trkpt lat="41.1752030" lon="1.3009470">
        <ele>115.2</ele>
        <time>2021-05-07T18:42:44Z</time>
      </trkpt>
      <trkpt lat="41.1751470" lon="1.3011600">
        <ele>115.6</ele>
        <time>2021-05-07T18:42:52Z</time>
      </trkpt>
      <trkpt lat="41.1751650" lon="1.3012380">
        <ele>116.0</ele>
        <time>2021-05-07T18:42:55Z</time>
      </trkpt>
      <trkpt lat="41.1751870" lon="1.3012870">
        <ele>115.8</ele>
        <time>2021-05-07T18:42:57Z</time>
      </trkpt>
      <trkpt lat="41.1752650" lon="1.3014200">
        <ele>116.4</ele>
        <time>2021-05-07T18:43:04Z</time>
      </trkpt>
      <trkpt lat="41.1752890" lon="1.3014490">
        <ele>116.8</ele>
        <time>2021-05-07T18:43:06Z</time>
      </trkpt>
      <trkpt lat="41.1753440" lon="1.3015070">
        <ele>117.4</ele>
        <time>2021-05-07T18:43:10Z</time>
      </trkpt>
      <trkpt lat="41.1753830" lon="1.3015570">
        <ele>117.8</ele>
        <time>2021-05-07T18:43:13Z</time>
      </trkpt>
      <trkpt lat="41.1754540" lon="1.3016340">
        <ele>118.2</ele>
        <time>2021-05-07T18:43:18Z</time>
      </trkpt>
      <trkpt lat="41.1755110" lon="1.3016860">
        <ele>118.8</ele>
        <time>2021-05-07T18:43:22Z</time>
      </trkpt>
      <trkpt lat="41.1755400" lon="1.3017110">
        <ele>119.0</ele>
        <time>2021-05-07T18:43:24Z</time>
      </trkpt>
      <trkpt lat="41.1756560" lon="1.3018250">
        <ele>120.0</ele>
        <time>2021-05-07T18:43:32Z</time>
      </trkpt>
      <trkpt lat="41.1756690" lon="1.3018410">
        <ele>120.2</ele>
        <time>2021-05-07T18:43:33Z</time>
      </trkpt>
      <trkpt lat="41.1757800" lon="1.3019410">
        <ele>121.0</ele>
        <time>2021-05-07T18:43:40Z</time>
      </trkpt>
      <trkpt lat="41.1757950" lon="1.3019550">
        <ele>121.0</ele>
        <time>2021-05-07T18:43:41Z</time>
      </trkpt>
      <trkpt lat="41.1758860" lon="1.3020410">
        <ele>122.2</ele>
        <time>2021-05-07T18:43:48Z</time>
      </trkpt>
      <trkpt lat="41.1759790" lon="1.3021250">
        <ele>123.2</ele>
        <time>2021-05-07T18:43:54Z</time>
      </trkpt>
      <trkpt lat="41.1760260" lon="1.3021720">
        <ele>123.4</ele>
        <time>2021-05-07T18:43:57Z</time>
      </trkpt>
      <trkpt lat="41.1761260" lon="1.3022660">
        <ele>124.4</ele>
        <time>2021-05-07T18:44:04Z</time>
      </trkpt>
      <trkpt lat="41.1761550" lon="1.3022940">
        <ele>124.6</ele>
        <time>2021-05-07T18:44:06Z</time>
      </trkpt>
      <trkpt lat="41.1762450" lon="1.3023880">
        <ele>125.4</ele>
        <time>2021-05-07T18:44:12Z</time>
      </trkpt>
      <trkpt lat="41.1762610" lon="1.3024010">
        <ele>125.6</ele>
        <time>2021-05-07T18:44:13Z</time>
      </trkpt>
      <trkpt lat="41.1762890" lon="1.3024310">
        <ele>125.8</ele>
        <time>2021-05-07T18:44:15Z</time>
      </trkpt>
      <trkpt lat="41.1763970" lon="1.3025270">
        <ele>126.6</ele>
        <time>2021-05-07T18:44:22Z</time>
      </trkpt>
      <trkpt lat="41.1765230" lon="1.3026420">
        <ele>127.6</ele>
        <time>2021-05-07T18:44:30Z</time>
      </trkpt>
      <trkpt lat="41.1766310" lon="1.3027370">
        <ele>128.2</ele>
        <time>2021-05-07T18:44:38Z</time>
      </trkpt>
      <trkpt lat="41.1767500" lon="1.3028380">
        <ele>128.6</ele>
        <time>2021-05-07T18:44:45Z</time>
      </trkpt>
      <trkpt lat="41.1768160" lon="1.3028970">
        <ele>128.8</ele>
        <time>2021-05-07T18:44:49Z</time>
      </trkpt>
      <trkpt lat="41.1768800" lon="1.3029560">
        <ele>128.6</ele>
        <time>2021-05-07T18:44:52Z</time>
      </trkpt>
      <trkpt lat="41.1770380" lon="1.3030940">
        <ele>128.4</ele>
        <time>2021-05-07T18:44:57Z</time>
      </trkpt>
      <trkpt lat="41.1771090" lon="1.3031530">
        <ele>127.6</ele>
        <time>2021-05-07T18:44:59Z</time>
      </trkpt>
      <trkpt lat="41.1772160" lon="1.3032420">
        <ele>126.4</ele>
        <time>2021-05-07T18:45:02Z</time>
      </trkpt>
      <trkpt lat="41.1773200" lon="1.3033240">
        <ele>125.6</ele>
        <time>2021-05-07T18:45:05Z</time>
      </trkpt>
      <trkpt lat="41.1773950" lon="1.3033690">
        <ele>125.4</ele>
        <time>2021-05-07T18:45:07Z</time>
      </trkpt>
      <trkpt lat="41.1775600" lon="1.3034320">
        <ele>124.0</ele>
        <time>2021-05-07T18:45:11Z</time>
      </trkpt>
      <trkpt lat="41.1778130" lon="1.3035010">
        <ele>125.4</ele>
        <time>2021-05-07T18:45:19Z</time>
      </trkpt>
      <trkpt lat="41.1779430" lon="1.3035200">
        <ele>123.8</ele>
        <time>2021-05-07T18:45:25Z</time>
      </trkpt>
      <trkpt lat="41.1780550" lon="1.3035670">
        <ele>124.2</ele>
        <time>2021-05-07T18:45:31Z</time>
      </trkpt>
      <trkpt lat="41.1780660" lon="1.3035840">
        <ele>124.4</ele>
        <time>2021-05-07T18:45:32Z</time>
      </trkpt>
      <trkpt lat="41.1780800" lon="1.3035990">
        <ele>124.4</ele>
        <time>2021-05-07T18:45:33Z</time>
      </trkpt>
      <trkpt lat="41.1781560" lon="1.3036330">
        <ele>124.6</ele>
        <time>2021-05-07T18:45:37Z</time>
      </trkpt>
      <trkpt lat="41.1782100" lon="1.3036660">
        <ele>125.2</ele>
        <time>2021-05-07T18:45:40Z</time>
      </trkpt>
      <trkpt lat="41.1782800" lon="1.3037050">
        <ele>126.0</ele>
        <time>2021-05-07T18:45:44Z</time>
      </trkpt>
      <trkpt lat="41.1782960" lon="1.3037160">
        <ele>126.4</ele>
        <time>2021-05-07T18:45:45Z</time>
      </trkpt>
      <trkpt lat="41.1783700" lon="1.3037660">
        <ele>127.6</ele>
        <time>2021-05-07T18:45:50Z</time>
      </trkpt>
      <trkpt lat="41.1784520" lon="1.3038040">
        <ele>128.2</ele>
        <time>2021-05-07T18:45:56Z</time>
      </trkpt>
      <trkpt lat="41.1784860" lon="1.3037850">
        <ele>128.4</ele>
        <time>2021-05-07T18:46:00Z</time>
      </trkpt>
      <trkpt lat="41.1785210" lon="1.3037740">
        <ele>128.8</ele>
        <time>2021-05-07T18:46:18Z</time>
      </trkpt>
      <trkpt lat="41.1785910" lon="1.3037710">
        <ele>129.0</ele>
        <time>2021-05-07T18:46:24Z</time>
      </trkpt>
      <trkpt lat="41.1786050" lon="1.3037690">
        <ele>129.0</ele>
        <time>2021-05-07T18:46:25Z</time>
      </trkpt>
      <trkpt lat="41.1786320" lon="1.3038160">
        <ele>129.0</ele>
        <time>2021-05-07T18:46:28Z</time>
      </trkpt>
      <trkpt lat="41.1786300" lon="1.3039650">
        <ele>129.8</ele>
        <time>2021-05-07T18:46:34Z</time>
      </trkpt>
      <trkpt lat="41.1786290" lon="1.3039940">
        <ele>129.8</ele>
        <time>2021-05-07T18:46:35Z</time>
      </trkpt>
      <trkpt lat="41.1786240" lon="1.3040870">
        <ele>129.8</ele>
        <time>2021-05-07T18:46:38Z</time>
      </trkpt>
      <trkpt lat="41.1786190" lon="1.3041870">
        <ele>129.6</ele>
        <time>2021-05-07T18:46:41Z</time>
      </trkpt>
      <trkpt lat="41.1786130" lon="1.3044420">
        <ele>129.8</ele>
        <time>2021-05-07T18:46:48Z</time>
      </trkpt>
      <trkpt lat="41.1786520" lon="1.3046690">
        <ele>130.0</ele>
        <time>2021-05-07T18:46:54Z</time>
      </trkpt>
      <trkpt lat="41.1787290" lon="1.3048750">
        <ele>130.6</ele>
        <time>2021-05-07T18:47:01Z</time>
      </trkpt>
      <trkpt lat="41.1787830" lon="1.3049890">
        <ele>131.2</ele>
        <time>2021-05-07T18:47:06Z</time>
      </trkpt>
      <trkpt lat="41.1788420" lon="1.3050930">
        <ele>131.8</ele>
        <time>2021-05-07T18:47:11Z</time>
      </trkpt>
      <trkpt lat="41.1789040" lon="1.3051960">
        <ele>132.4</ele>
        <time>2021-05-07T18:47:16Z</time>
      </trkpt>
      <trkpt lat="41.1789550" lon="1.3052860">
        <ele>132.8</ele>
        <time>2021-05-07T18:47:20Z</time>
      </trkpt>
      <trkpt lat="41.1790210" lon="1.3053870">
        <ele>133.2</ele>
        <time>2021-05-07T18:47:25Z</time>
      </trkpt>
      <trkpt lat="41.1790930" lon="1.3054750">
        <ele>134.0</ele>
        <time>2021-05-07T18:47:30Z</time>
      </trkpt>
      <trkpt lat="41.1791230" lon="1.3055100">
        <ele>134.0</ele>
        <time>2021-05-07T18:47:32Z</time>
      </trkpt>
      <trkpt lat="41.1792300" lon="1.3056670">
        <ele>134.6</ele>
        <time>2021-05-07T18:47:39Z</time>
      </trkpt>
      <trkpt lat="41.1793230" lon="1.3058810">
        <ele>134.8</ele>
        <time>2021-05-07T18:47:47Z</time>
      </trkpt>
      <trkpt lat="41.1793350" lon="1.3059070">
        <ele>135.0</ele>
        <time>2021-05-07T18:47:48Z</time>
      </trkpt>
      <trkpt lat="41.1794050" lon="1.3060690">
        <ele>135.4</ele>
        <time>2021-05-07T18:47:55Z</time>
      </trkpt>
      <trkpt lat="41.1794800" lon="1.3061740">
        <ele>135.6</ele>
        <time>2021-05-07T18:48:01Z</time>
      </trkpt>
      <trkpt lat="41.1794940" lon="1.3061880">
        <ele>135.4</ele>
        <time>2021-05-07T18:48:02Z</time>
      </trkpt>
      <trkpt lat="41.1795790" lon="1.3062450">
        <ele>135.2</ele>
        <time>2021-05-07T18:48:06Z</time>
      </trkpt>
      <trkpt lat="41.1796820" lon="1.3063040">
        <ele>135.2</ele>
        <time>2021-05-07T18:48:11Z</time>
      </trkpt>
      <trkpt lat="41.1798280" lon="1.3063200">
        <ele>134.4</ele>
        <time>2021-05-07T18:48:17Z</time>
      </trkpt>
      <trkpt lat="41.1799270" lon="1.3063200">
        <ele>134.0</ele>
        <time>2021-05-07T18:48:20Z</time>
      </trkpt>
      <trkpt lat="41.1799950" lon="1.3063180">
        <ele>133.8</ele>
        <time>2021-05-07T18:48:22Z</time>
      </trkpt>
      <trkpt lat="41.1800950" lon="1.3063240">
        <ele>133.0</ele>
        <time>2021-05-07T18:48:24Z</time>
      </trkpt>
      <trkpt lat="41.1801570" lon="1.3063240">
        <ele>132.6</ele>
        <time>2021-05-07T18:48:25Z</time>
      </trkpt>
      <trkpt lat="41.1802150" lon="1.3063220">
        <ele>132.4</ele>
        <time>2021-05-07T18:48:26Z</time>
      </trkpt>
      <trkpt lat="41.1803470" lon="1.3063320">
        <ele>131.6</ele>
        <time>2021-05-07T18:48:29Z</time>
      </trkpt>
      <trkpt lat="41.1804340" lon="1.3063330">
        <ele>131.2</ele>
        <time>2021-05-07T18:48:31Z</time>
      </trkpt>
      <trkpt lat="41.1806150" lon="1.3063070">
        <ele>130.4</ele>
        <time>2021-05-07T18:48:34Z</time>
      </trkpt>
      <trkpt lat="41.1806760" lon="1.3063020">
        <ele>130.0</ele>
        <time>2021-05-07T18:48:35Z</time>
      </trkpt>
      <trkpt lat="41.1808370" lon="1.3062860">
        <ele>129.4</ele>
        <time>2021-05-07T18:48:38Z</time>
      </trkpt>
      <trkpt lat="41.1809420" lon="1.3062720">
        <ele>129.2</ele>
        <time>2021-05-07T18:48:40Z</time>
      </trkpt>
      <trkpt lat="41.1810730" lon="1.3062590">
        <ele>129.4</ele>
        <time>2021-05-07T18:48:44Z</time>
      </trkpt>
      <trkpt lat="41.1812360" lon="1.3062300">
        <ele>128.6</ele>
        <time>2021-05-07T18:48:50Z</time>
      </trkpt>
      <trkpt lat="41.1812590" lon="1.3062230">
        <ele>128.4</ele>
        <time>2021-05-07T18:48:51Z</time>
      </trkpt>
      <trkpt lat="41.1813700" lon="1.3061380">
        <ele>128.0</ele>
        <time>2021-05-07T18:48:54Z</time>
      </trkpt>
      <trkpt lat="41.1814030" lon="1.3060930">
        <ele>127.6</ele>
        <time>2021-05-07T18:48:55Z</time>
      </trkpt>
      <trkpt lat="41.1814270" lon="1.3060400">
        <ele>127.4</ele>
        <time>2021-05-07T18:48:56Z</time>
      </trkpt>
      <trkpt lat="41.1814500" lon="1.3059870">
        <ele>127.0</ele>
        <time>2021-05-07T18:48:57Z</time>
      </trkpt>
      <trkpt lat="41.1815090" lon="1.3058740">
        <ele>126.2</ele>
        <time>2021-05-07T18:48:59Z</time>
      </trkpt>
      <trkpt lat="41.1815610" lon="1.3057620">
        <ele>125.0</ele>
        <time>2021-05-07T18:49:01Z</time>
      </trkpt>
      <trkpt lat="41.1816050" lon="1.3056300">
        <ele>123.4</ele>
        <time>2021-05-07T18:49:03Z</time>
      </trkpt>
      <trkpt lat="41.1816470" lon="1.3054910">
        <ele>122.0</ele>
        <time>2021-05-07T18:49:05Z</time>
      </trkpt>
      <trkpt lat="41.1817100" lon="1.3052690">
        <ele>120.8</ele>
        <time>2021-05-07T18:49:08Z</time>
      </trkpt>
      <trkpt lat="41.1817320" lon="1.3051830">
        <ele>120.4</ele>
        <time>2021-05-07T18:49:09Z</time>
      </trkpt>
      <trkpt lat="41.1817780" lon="1.3049980">
        <ele>119.2</ele>
        <time>2021-05-07T18:49:11Z</time>
      </trkpt>
      <trkpt lat="41.1818260" lon="1.3048250">
        <ele>117.6</ele>
        <time>2021-05-07T18:49:13Z</time>
      </trkpt>
      <trkpt lat="41.1818500" lon="1.3047460">
        <ele>116.8</ele>
        <time>2021-05-07T18:49:14Z</time>
      </trkpt>
      <trkpt lat="41.1818730" lon="1.3046760">
        <ele>116.2</ele>
        <time>2021-05-07T18:49:15Z</time>
      </trkpt>
      <trkpt lat="41.1819210" lon="1.3044910">
        <ele>115.6</ele>
        <time>2021-05-07T18:49:18Z</time>
      </trkpt>
      <trkpt lat="41.1820250" lon="1.3043600">
        <ele>115.4</ele>
        <time>2021-05-07T18:49:22Z</time>
      </trkpt>
      <trkpt lat="41.1820620" lon="1.3043540">
        <ele>115.2</ele>
        <time>2021-05-07T18:49:23Z</time>
      </trkpt>
      <trkpt lat="41.1821780" lon="1.3043850">
        <ele>114.6</ele>
        <time>2021-05-07T18:49:26Z</time>
      </trkpt>
      <trkpt lat="41.1822240" lon="1.3044140">
        <ele>114.4</ele>
        <time>2021-05-07T18:49:27Z</time>
      </trkpt>
      <trkpt lat="41.1822670" lon="1.3044560">
        <ele>114.2</ele>
        <time>2021-05-07T18:49:28Z</time>
      </trkpt>
      <trkpt lat="41.1823040" lon="1.3045040">
        <ele>114.0</ele>
        <time>2021-05-07T18:49:29Z</time>
      </trkpt>
      <trkpt lat="41.1823870" lon="1.3046680">
        <ele>113.0</ele>
        <time>2021-05-07T18:49:32Z</time>
      </trkpt>
      <trkpt lat="41.1824390" lon="1.3047870">
        <ele>112.6</ele>
        <time>2021-05-07T18:49:34Z</time>
      </trkpt>
      <trkpt lat="41.1826080" lon="1.3049730">
        <ele>112.2</ele>
        <time>2021-05-07T18:49:38Z</time>
      </trkpt>
      <trkpt lat="41.1826490" lon="1.3050140">
        <ele>111.8</ele>
        <time>2021-05-07T18:49:39Z</time>
      </trkpt>
      <trkpt lat="41.1827720" lon="1.3051450">
        <ele>110.2</ele>
        <time>2021-05-07T18:49:42Z</time>
      </trkpt>
      <trkpt lat="41.1829200" lon="1.3051220">
        <ele>108.8</ele>
        <time>2021-05-07T18:49:45Z</time>
      </trkpt>
      <trkpt lat="41.1829700" lon="1.3050900">
        <ele>108.2</ele>
        <time>2021-05-07T18:49:46Z</time>
      </trkpt>
      <trkpt lat="41.1830210" lon="1.3050570">
        <ele>107.8</ele>
        <time>2021-05-07T18:49:47Z</time>
      </trkpt>
      <trkpt lat="41.1831650" lon="1.3049740">
        <ele>106.8</ele>
        <time>2021-05-07T18:49:50Z</time>
      </trkpt>
      <trkpt lat="41.1832560" lon="1.3049360">
        <ele>106.0</ele>
        <time>2021-05-07T18:49:52Z</time>
      </trkpt>
      <trkpt lat="41.1833000" lon="1.3049360">
        <ele>105.6</ele>
        <time>2021-05-07T18:49:53Z</time>
      </trkpt>
      <trkpt lat="41.1833880" lon="1.3049860">
        <ele>104.4</ele>
        <time>2021-05-07T18:49:55Z</time>
      </trkpt>
      <trkpt lat="41.1834700" lon="1.3050720">
        <ele>103.4</ele>
        <time>2021-05-07T18:49:57Z</time>
      </trkpt>
      <trkpt lat="41.1835090" lon="1.3051170">
        <ele>103.0</ele>
        <time>2021-05-07T18:49:58Z</time>
      </trkpt>
      <trkpt lat="41.1836270" lon="1.3052510">
        <ele>103.2</ele>
        <time>2021-05-07T18:50:01Z</time>
      </trkpt>
      <trkpt lat="41.1838520" lon="1.3054340">
        <ele>102.4</ele>
        <time>2021-05-07T18:50:06Z</time>
      </trkpt>
      <trkpt lat="41.1838930" lon="1.3054690">
        <ele>102.4</ele>
        <time>2021-05-07T18:50:07Z</time>
      </trkpt>
      <trkpt lat="41.1839380" lon="1.3055030">
        <ele>102.2</ele>
        <time>2021-05-07T18:50:08Z</time>
      </trkpt>
      <trkpt lat="41.1841420" lon="1.3056640">
        <ele>102.4</ele>
        <time>2021-05-07T18:50:13Z</time>
      </trkpt>
      <trkpt lat="41.1841810" lon="1.3056950">
        <ele>102.4</ele>
        <time>2021-05-07T18:50:14Z</time>
      </trkpt>
      <trkpt lat="41.1842190" lon="1.3057270">
        <ele>102.4</ele>
        <time>2021-05-07T18:50:15Z</time>
      </trkpt>
      <trkpt lat="41.1843790" lon="1.3058650">
        <ele>102.4</ele>
        <time>2021-05-07T18:50:19Z</time>
      </trkpt>
      <trkpt lat="41.1845100" lon="1.3060270">
        <ele>101.2</ele>
        <time>2021-05-07T18:50:23Z</time>
      </trkpt>
      <trkpt lat="41.1846000" lon="1.3061360">
        <ele>100.8</ele>
        <time>2021-05-07T18:50:26Z</time>
      </trkpt>
      <trkpt lat="41.1846660" lon="1.3061960">
        <ele>100.2</ele>
        <time>2021-05-07T18:50:28Z</time>
      </trkpt>
      <trkpt lat="41.1847360" lon="1.3062110">
        <ele>99.4</ele>
        <time>2021-05-07T18:50:30Z</time>
      </trkpt>
      <trkpt lat="41.1847740" lon="1.3061990">
        <ele>99.0</ele>
        <time>2021-05-07T18:50:31Z</time>
      </trkpt>
      <trkpt lat="41.1849190" lon="1.3061280">
        <ele>98.2</ele>
        <time>2021-05-07T18:50:35Z</time>
      </trkpt>
      <trkpt lat="41.1849520" lon="1.3061230">
        <ele>97.8</ele>
        <time>2021-05-07T18:50:36Z</time>
      </trkpt>
      <trkpt lat="41.1850190" lon="1.3061450">
        <ele>96.8</ele>
        <time>2021-05-07T18:50:38Z</time>
      </trkpt>
      <trkpt lat="41.1850500" lon="1.3061610">
        <ele>96.4</ele>
        <time>2021-05-07T18:50:39Z</time>
      </trkpt>
      <trkpt lat="41.1852220" lon="1.3062780">
        <ele>96.0</ele>
        <time>2021-05-07T18:50:45Z</time>
      </trkpt>
      <trkpt lat="41.1852450" lon="1.3062840">
        <ele>95.6</ele>
        <time>2021-05-07T18:50:46Z</time>
      </trkpt>
      <trkpt lat="41.1853160" lon="1.3063050">
        <ele>94.8</ele>
        <time>2021-05-07T18:50:49Z</time>
      </trkpt>
      <trkpt lat="41.1853450" lon="1.3063260">
        <ele>94.6</ele>
        <time>2021-05-07T18:50:50Z</time>
      </trkpt>
      <trkpt lat="41.1854380" lon="1.3063280">
        <ele>94.6</ele>
        <time>2021-05-07T18:50:53Z</time>
      </trkpt>
      <trkpt lat="41.1854800" lon="1.3063550">
        <ele>94.2</ele>
        <time>2021-05-07T18:50:55Z</time>
      </trkpt>
      <trkpt lat="41.1855150" lon="1.3064150">
        <ele>93.6</ele>
        <time>2021-05-07T18:50:57Z</time>
      </trkpt>
      <trkpt lat="41.1855110" lon="1.3065570">
        <ele>92.2</ele>
        <time>2021-05-07T18:51:01Z</time>
      </trkpt>
      <trkpt lat="41.1855110" lon="1.3065900">
        <ele>91.8</ele>
        <time>2021-05-07T18:51:02Z</time>
      </trkpt>
      <trkpt lat="41.1855280" lon="1.3066610">
        <ele>91.0</ele>
        <time>2021-05-07T18:51:04Z</time>
      </trkpt>
      <trkpt lat="41.1855540" lon="1.3067160">
        <ele>90.4</ele>
        <time>2021-05-07T18:51:06Z</time>
      </trkpt>
      <trkpt lat="41.1855710" lon="1.3068270">
        <ele>90.2</ele>
        <time>2021-05-07T18:51:09Z</time>
      </trkpt>
      <trkpt lat="41.1855750" lon="1.3068670">
        <ele>90.2</ele>
        <time>2021-05-07T18:51:10Z</time>
      </trkpt>
      <trkpt lat="41.1855720" lon="1.3069030">
        <ele>89.8</ele>
        <time>2021-05-07T18:51:11Z</time>
      </trkpt>
      <trkpt lat="41.1855650" lon="1.3070360">
        <ele>89.4</ele>
        <time>2021-05-07T18:51:14Z</time>
      </trkpt>
      <trkpt lat="41.1855330" lon="1.3072310">
        <ele>88.8</ele>
        <time>2021-05-07T18:51:19Z</time>
      </trkpt>
      <trkpt lat="41.1855280" lon="1.3072650">
        <ele>88.6</ele>
        <time>2021-05-07T18:51:20Z</time>
      </trkpt>
      <trkpt lat="41.1855180" lon="1.3073810">
        <ele>87.6</ele>
        <time>2021-05-07T18:51:24Z</time>
      </trkpt>
      <trkpt lat="41.1855060" lon="1.3074100">
        <ele>87.4</ele>
        <time>2021-05-07T18:51:25Z</time>
      </trkpt>
      <trkpt lat="41.1855010" lon="1.3074370">
        <ele>87.2</ele>
        <time>2021-05-07T18:51:26Z</time>
      </trkpt>
      <trkpt lat="41.1855010" lon="1.3074670">
        <ele>87.0</ele>
        <time>2021-05-07T18:51:27Z</time>
      </trkpt>
      <trkpt lat="41.1854910" lon="1.3075280">
        <ele>86.4</ele>
        <time>2021-05-07T18:51:29Z</time>
      </trkpt>
      <trkpt lat="41.1854850" lon="1.3075630">
        <ele>86.4</ele>
        <time>2021-05-07T18:51:30Z</time>
      </trkpt>
      <trkpt lat="41.1854840" lon="1.3075920">
        <ele>86.2</ele>
        <time>2021-05-07T18:51:31Z</time>
      </trkpt>
      <trkpt lat="41.1854890" lon="1.3076230">
        <ele>86.2</ele>
        <time>2021-05-07T18:51:32Z</time>
      </trkpt>
      <trkpt lat="41.1855230" lon="1.3077790">
        <ele>85.6</ele>
        <time>2021-05-07T18:51:36Z</time>
      </trkpt>
      <trkpt lat="41.1855740" lon="1.3078920">
        <ele>85.6</ele>
        <time>2021-05-07T18:51:39Z</time>
      </trkpt>
      <trkpt lat="41.1856060" lon="1.3079630">
        <ele>85.4</ele>
        <time>2021-05-07T18:51:41Z</time>
      </trkpt>
      <trkpt lat="41.1856750" lon="1.3080920">
        <ele>84.2</ele>
        <time>2021-05-07T18:51:45Z</time>
      </trkpt>
      <trkpt lat="41.1856860" lon="1.3081240">
        <ele>83.8</ele>
        <time>2021-05-07T18:51:46Z</time>
      </trkpt>
      <trkpt lat="41.1856980" lon="1.3081740">
        <ele>83.6</ele>
        <time>2021-05-07T18:51:50Z</time>
      </trkpt>
      <trkpt lat="41.1856960" lon="1.3082400">
        <ele>83.6</ele>
        <time>2021-05-07T18:51:55Z</time>
      </trkpt>
      <trkpt lat="41.1857060" lon="1.3082580">
        <ele>83.4</ele>
        <time>2021-05-07T18:51:56Z</time>
      </trkpt>
      <trkpt lat="41.1857200" lon="1.3082780">
        <ele>83.4</ele>
        <time>2021-05-07T18:51:57Z</time>
      </trkpt>
      <trkpt lat="41.1858060" lon="1.3084200">
        <ele>83.2</ele>
        <time>2021-05-07T18:52:03Z</time>
      </trkpt>
      <trkpt lat="41.1858240" lon="1.3084650">
        <ele>82.4</ele>
        <time>2021-05-07T18:52:05Z</time>
      </trkpt>
      <trkpt lat="41.1858260" lon="1.3084770">
        <ele>82.0</ele>
        <time>2021-05-07T18:52:06Z</time>
      </trkpt>
      <trkpt lat="41.1858280" lon="1.3084800">
        <ele>82.0</ele>
        <time>2021-05-07T18:52:07Z</time>
      </trkpt>
      <trkpt lat="41.1858470" lon="1.3085550">
        <ele>81.6</ele>
        <time>2021-05-07T18:52:57Z</time>
      </trkpt>
      <trkpt lat="41.1858490" lon="1.3086280">
        <ele>81.6</ele>
        <time>2021-05-07T18:53:00Z</time>
      </trkpt>
      <trkpt lat="41.1858710" lon="1.3087980">
        <ele>82.2</ele>
        <time>2021-05-07T18:53:06Z</time>
      </trkpt>
      <trkpt lat="41.1858830" lon="1.3088220">
        <ele>82.6</ele>
        <time>2021-05-07T18:53:07Z</time>
      </trkpt>
      <trkpt lat="41.1859380" lon="1.3088490">
        <ele>82.2</ele>
        <time>2021-05-07T18:53:10Z</time>
      </trkpt>
      <trkpt lat="41.1860150" lon="1.3088480">
        <ele>81.4</ele>
        <time>2021-05-07T18:53:13Z</time>
      </trkpt>
      <trkpt lat="41.1861120" lon="1.3088670">
        <ele>81.0</ele>
        <time>2021-05-07T18:53:17Z</time>
      </trkpt>
      <trkpt lat="41.1862500" lon="1.3089660">
        <ele>81.0</ele>
        <time>2021-05-07T18:53:23Z</time>
      </trkpt>
      <trkpt lat="41.1862870" lon="1.3090910">
        <ele>81.0</ele>
        <time>2021-05-07T18:53:27Z</time>
      </trkpt>
      <trkpt lat="41.1863700" lon="1.3092010">
        <ele>80.8</ele>
        <time>2021-05-07T18:53:32Z</time>
      </trkpt>
      <trkpt lat="41.1864550" lon="1.3093000">
        <ele>80.8</ele>
        <time>2021-05-07T18:53:37Z</time>
      </trkpt>
      <trkpt lat="41.1865080" lon="1.3093620">
        <ele>80.8</ele>
        <time>2021-05-07T18:53:41Z</time>
      </trkpt>
      <trkpt lat="41.1865230" lon="1.3093640">
        <ele>80.8</ele>
        <time>2021-05-07T18:53:42Z</time>
      </trkpt>
      <trkpt lat="41.1865730" lon="1.3093680">
        <ele>80.6</ele>
        <time>2021-05-07T18:53:45Z</time>
      </trkpt>
      <trkpt lat="41.1867150" lon="1.3093700">
        <ele>81.2</ele>
        <time>2021-05-07T18:53:52Z</time>
      </trkpt>
      <trkpt lat="41.1869400" lon="1.3092850">
        <ele>81.8</ele>
        <time>2021-05-07T18:54:00Z</time>
      </trkpt>
      <trkpt lat="41.1870690" lon="1.3092880">
        <ele>82.0</ele>
        <time>2021-05-07T18:54:07Z</time>
      </trkpt>
      <trkpt lat="41.1870870" lon="1.3093800">
        <ele>81.8</ele>
        <time>2021-05-07T18:54:11Z</time>
      </trkpt>
      <trkpt lat="41.1872030" lon="1.3093840">
        <ele>82.0</ele>
        <time>2021-05-07T18:54:16Z</time>
      </trkpt>
      <trkpt lat="41.1872680" lon="1.3093920">
        <ele>82.2</ele>
        <time>2021-05-07T18:54:19Z</time>
      </trkpt>
      <trkpt lat="41.1873120" lon="1.3094140">
        <ele>83.0</ele>
        <time>2021-05-07T18:54:23Z</time>
      </trkpt>
      <trkpt lat="41.1873230" lon="1.3094240">
        <ele>83.2</ele>
        <time>2021-05-07T18:54:24Z</time>
      </trkpt>
      <trkpt lat="41.1873640" lon="1.3094790">
        <ele>83.8</ele>
        <time>2021-05-07T18:54:28Z</time>
      </trkpt>
      <trkpt lat="41.1873810" lon="1.3095110">
        <ele>84.2</ele>
        <time>2021-05-07T18:54:30Z</time>
      </trkpt>
      <trkpt lat="41.1873940" lon="1.3095350">
        <ele>84.6</ele>
        <time>2021-05-07T18:54:32Z</time>
      </trkpt>
      <trkpt lat="41.1874280" lon="1.3095510">
        <ele>84.8</ele>
        <time>2021-05-07T18:54:35Z</time>
      </trkpt>
      <trkpt lat="41.1874680" lon="1.3095700">
        <ele>85.2</ele>
        <time>2021-05-07T18:54:38Z</time>
      </trkpt>
      <trkpt lat="41.1875460" lon="1.3095800">
        <ele>85.8</ele>
        <time>2021-05-07T18:54:42Z</time>
      </trkpt>
      <trkpt lat="41.1876480" lon="1.3095920">
        <ele>86.0</ele>
        <time>2021-05-07T18:54:48Z</time>
      </trkpt>
      <trkpt lat="41.1877070" lon="1.3095970">
        <ele>86.0</ele>
        <time>2021-05-07T18:54:52Z</time>
      </trkpt>
      <trkpt lat="41.1877180" lon="1.3095990">
        <ele>86.2</ele>
        <time>2021-05-07T18:54:53Z</time>
      </trkpt>
      <trkpt lat="41.1877300" lon="1.3096020">
        <ele>86.2</ele>
        <time>2021-05-07T18:54:54Z</time>
      </trkpt>
      <trkpt lat="41.1877890" lon="1.3096170">
        <ele>86.6</ele>
        <time>2021-05-07T18:54:59Z</time>
      </trkpt>
      <trkpt lat="41.1878770" lon="1.3096350">
        <ele>87.0</ele>
        <time>2021-05-07T18:55:04Z</time>
      </trkpt>
      <trkpt lat="41.1879850" lon="1.3096540">
        <ele>87.4</ele>
        <time>2021-05-07T18:55:10Z</time>
      </trkpt>
      <trkpt lat="41.1880460" lon="1.3096650">
        <ele>87.6</ele>
        <time>2021-05-07T18:55:14Z</time>
      </trkpt>
      <trkpt lat="41.1880790" lon="1.3096690">
        <ele>87.4</ele>
        <time>2021-05-07T18:55:16Z</time>
      </trkpt>
      <trkpt lat="41.1881640" lon="1.3096850">
        <ele>87.4</ele>
        <time>2021-05-07T18:55:21Z</time>
      </trkpt>
      <trkpt lat="41.1881800" lon="1.3096920">
        <ele>87.4</ele>
        <time>2021-05-07T18:55:22Z</time>
      </trkpt>
      <trkpt lat="41.1882800" lon="1.3097530">
        <ele>88.4</ele>
        <time>2021-05-07T18:55:29Z</time>
      </trkpt>
      <trkpt lat="41.1883500" lon="1.3097930">
        <ele>88.8</ele>
        <time>2021-05-07T18:55:34Z</time>
      </trkpt>
      <trkpt lat="41.1883810" lon="1.3098000">
        <ele>88.8</ele>
        <time>2021-05-07T18:55:36Z</time>
      </trkpt>
      <trkpt lat="41.1884420" lon="1.3097980">
        <ele>89.4</ele>
        <time>2021-05-07T18:55:40Z</time>
      </trkpt>
      <trkpt lat="41.1885310" lon="1.3097940">
        <ele>89.8</ele>
        <time>2021-05-07T18:55:45Z</time>
      </trkpt>
      <trkpt lat="41.1886500" lon="1.3098050">
        <ele>90.0</ele>
        <time>2021-05-07T18:55:51Z</time>
      </trkpt>
      <trkpt lat="41.1887670" lon="1.3098260">
        <ele>90.2</ele>
        <time>2021-05-07T18:55:57Z</time>
      </trkpt>
      <trkpt lat="41.1888790" lon="1.3098920">
        <ele>90.8</ele>
        <time>2021-05-07T18:56:04Z</time>
      </trkpt>
      <trkpt lat="41.1889890" lon="1.3099690">
        <ele>90.6</ele>
        <time>2021-05-07T18:56:11Z</time>
      </trkpt>
      <trkpt lat="41.1890600" lon="1.3100300">
        <ele>91.2</ele>
        <time>2021-05-07T18:56:16Z</time>
      </trkpt>
      <trkpt lat="41.1890690" lon="1.3100450">
        <ele>91.2</ele>
        <time>2021-05-07T18:56:17Z</time>
      </trkpt>
      <trkpt lat="41.1891320" lon="1.3100960">
        <ele>91.8</ele>
        <time>2021-05-07T18:56:22Z</time>
      </trkpt>
      <trkpt lat="41.1891420" lon="1.3101020">
        <ele>92.0</ele>
        <time>2021-05-07T18:56:23Z</time>
      </trkpt>
      <trkpt lat="41.1891670" lon="1.3101200">
        <ele>92.0</ele>
        <time>2021-05-07T18:56:25Z</time>
      </trkpt>
      <trkpt lat="41.1892460" lon="1.3101710">
        <ele>92.8</ele>
        <time>2021-05-07T18:56:30Z</time>
      </trkpt>
      <trkpt lat="41.1892710" lon="1.3101930">
        <ele>93.0</ele>
        <time>2021-05-07T18:56:32Z</time>
      </trkpt>
      <trkpt lat="41.1893090" lon="1.3102320">
        <ele>93.2</ele>
        <time>2021-05-07T18:56:36Z</time>
      </trkpt>
      <trkpt lat="41.1893110" lon="1.3102340">
        <ele>93.2</ele>
        <time>2021-05-07T18:56:37Z</time>
      </trkpt>
      <trkpt lat="41.1893860" lon="1.3103480">
        <ele>94.2</ele>
        <time>2021-05-07T18:56:52Z</time>
      </trkpt>
      <trkpt lat="41.1894040" lon="1.3103860">
        <ele>94.2</ele>
        <time>2021-05-07T18:56:54Z</time>
      </trkpt>
      <trkpt lat="41.1894290" lon="1.3104350">
        <ele>94.0</ele>
        <time>2021-05-07T18:56:57Z</time>
      </trkpt>
      <trkpt lat="41.1894570" lon="1.3104600">
        <ele>94.2</ele>
        <time>2021-05-07T18:56:59Z</time>
      </trkpt>
      <trkpt lat="41.1895630" lon="1.3105040">
        <ele>94.4</ele>
        <time>2021-05-07T18:57:05Z</time>
      </trkpt>
      <trkpt lat="41.1896530" lon="1.3105850">
        <ele>95.0</ele>
        <time>2021-05-07T18:57:11Z</time>
      </trkpt>
      <trkpt lat="41.1896780" lon="1.3106060">
        <ele>95.2</ele>
        <time>2021-05-07T18:57:13Z</time>
      </trkpt>
      <trkpt lat="41.1897030" lon="1.3106300">
        <ele>95.2</ele>
        <time>2021-05-07T18:57:15Z</time>
      </trkpt>
      <trkpt lat="41.1897230" lon="1.3106440">
        <ele>95.2</ele>
        <time>2021-05-07T18:57:17Z</time>
      </trkpt>
      <trkpt lat="41.1897340" lon="1.3106540">
        <ele>95.4</ele>
        <time>2021-05-07T18:57:18Z</time>
      </trkpt>
      <trkpt lat="41.1897610" lon="1.3106680">
        <ele>95.6</ele>
        <time>2021-05-07T18:57:21Z</time>
      </trkpt>
      <trkpt lat="41.1898280" lon="1.3106630">
        <ele>95.6</ele>
        <time>2021-05-07T18:58:48Z</time>
      </trkpt>
      <trkpt lat="41.1898430" lon="1.3106600">
        <ele>95.6</ele>
        <time>2021-05-07T18:58:49Z</time>
      </trkpt>
      <trkpt lat="41.1899170" lon="1.3106390">
        <ele>95.4</ele>
        <time>2021-05-07T18:58:54Z</time>
      </trkpt>
      <trkpt lat="41.1899560" lon="1.3106310">
        <ele>95.8</ele>
        <time>2021-05-07T18:58:56Z</time>
      </trkpt>
      <trkpt lat="41.1900580" lon="1.3106250">
        <ele>96.2</ele>
        <time>2021-05-07T18:59:02Z</time>
      </trkpt>
      <trkpt lat="41.1901200" lon="1.3106170">
        <ele>96.6</ele>
        <time>2021-05-07T18:59:05Z</time>
      </trkpt>
      <trkpt lat="41.1902030" lon="1.3106120">
        <ele>96.6</ele>
        <time>2021-05-07T18:59:08Z</time>
      </trkpt>
      <trkpt lat="41.1903630" lon="1.3106290">
        <ele>96.4</ele>
        <time>2021-05-07T18:59:15Z</time>
      </trkpt>
      <trkpt lat="41.1904480" lon="1.3106360">
        <ele>96.6</ele>
        <time>2021-05-07T18:59:19Z</time>
      </trkpt>
      <trkpt lat="41.1905970" lon="1.3106160">
        <ele>96.2</ele>
        <time>2021-05-07T18:59:26Z</time>
      </trkpt>
      <trkpt lat="41.1907000" lon="1.3106050">
        <ele>96.4</ele>
        <time>2021-05-07T18:59:31Z</time>
      </trkpt>
      <trkpt lat="41.1908290" lon="1.3106400">
        <ele>96.8</ele>
        <time>2021-05-07T18:59:36Z</time>
      </trkpt>
      <trkpt lat="41.1909180" lon="1.3106330">
        <ele>96.2</ele>
        <time>2021-05-07T18:59:40Z</time>
      </trkpt>
      <trkpt lat="41.1909760" lon="1.3105860">
        <ele>95.4</ele>
        <time>2021-05-07T18:59:42Z</time>
      </trkpt>
      <trkpt lat="41.1910600" lon="1.3104910">
        <ele>95.2</ele>
        <time>2021-05-07T18:59:46Z</time>
      </trkpt>
      <trkpt lat="41.1910950" lon="1.3104840">
        <ele>95.2</ele>
        <time>2021-05-07T18:59:48Z</time>
      </trkpt>
      <trkpt lat="41.1911210" lon="1.3104940">
        <ele>95.4</ele>
        <time>2021-05-07T18:59:50Z</time>
      </trkpt>
      <trkpt lat="41.1911550" lon="1.3105300">
        <ele>95.2</ele>
        <time>2021-05-07T18:59:56Z</time>
      </trkpt>
      <trkpt lat="41.1911460" lon="1.3104620">
        <ele>94.2</ele>
        <time>2021-05-07T19:01:56Z</time>
      </trkpt>
      <trkpt lat="41.1911430" lon="1.3105090">
        <ele>95.0</ele>
        <time>2021-05-07T19:01:59Z</time>
      </trkpt>
      <trkpt lat="41.1911430" lon="1.3105250">
        <ele>95.2</ele>
        <time>2021-05-07T19:02:00Z</time>
      </trkpt>
      <trkpt lat="41.1911350" lon="1.3106290">
        <ele>95.2</ele>
        <time>2021-05-07T19:02:06Z</time>
      </trkpt>
      <trkpt lat="41.1911260" lon="1.3106960">
        <ele>96.4</ele>
        <time>2021-05-07T19:02:10Z</time>
      </trkpt>
      <trkpt lat="41.1911340" lon="1.3107410">
        <ele>97.0</ele>
        <time>2021-05-07T19:02:13Z</time>
      </trkpt>
      <trkpt lat="41.1911350" lon="1.3107980">
        <ele>97.4</ele>
        <time>2021-05-07T19:02:17Z</time>
      </trkpt>
      <trkpt lat="41.1911360" lon="1.3108430">
        <ele>97.8</ele>
        <time>2021-05-07T19:02:20Z</time>
      </trkpt>
      <trkpt lat="41.1911340" lon="1.3108670">
        <ele>98.6</ele>
        <time>2021-05-07T19:02:22Z</time>
      </trkpt>
      <trkpt lat="41.1911340" lon="1.3108910">
        <ele>99.0</ele>
        <time>2021-05-07T19:02:24Z</time>
      </trkpt>
      <trkpt lat="41.1911350" lon="1.3109150">
        <ele>99.4</ele>
        <time>2021-05-07T19:02:26Z</time>
      </trkpt>
      <trkpt lat="41.1911330" lon="1.3109280">
        <ele>99.8</ele>
        <time>2021-05-07T19:02:27Z</time>
      </trkpt>
      <trkpt lat="41.1911300" lon="1.3110120">
        <ele>100.2</ele>
        <time>2021-05-07T19:02:33Z</time>
      </trkpt>
      <trkpt lat="41.1911230" lon="1.3110780">
        <ele>101.0</ele>
        <time>2021-05-07T19:02:38Z</time>
      </trkpt>
      <trkpt lat="41.1911220" lon="1.3110940">
        <ele>101.2</ele>
        <time>2021-05-07T19:02:39Z</time>
      </trkpt>
      <trkpt lat="41.1911170" lon="1.3111220">
        <ele>101.4</ele>
        <time>2021-05-07T19:02:41Z</time>
      </trkpt>
      <trkpt lat="41.1911160" lon="1.3111990">
        <ele>102.6</ele>
        <time>2021-05-07T19:02:46Z</time>
      </trkpt>
      <trkpt lat="41.1911140" lon="1.3112380">
        <ele>103.2</ele>
        <time>2021-05-07T19:02:49Z</time>
      </trkpt>
      <trkpt lat="41.1911140" lon="1.3112710">
        <ele>103.8</ele>
        <time>2021-05-07T19:02:51Z</time>
      </trkpt>
      <trkpt lat="41.1911090" lon="1.3113720">
        <ele>104.8</ele>
        <time>2021-05-07T19:02:57Z</time>
      </trkpt>
      <trkpt lat="41.1911060" lon="1.3114060">
        <ele>105.0</ele>
        <time>2021-05-07T19:02:59Z</time>
      </trkpt>
      <trkpt lat="41.1910920" lon="1.3115420">
        <ele>105.4</ele>
        <time>2021-05-07T19:03:07Z</time>
      </trkpt>
      <trkpt lat="41.1910910" lon="1.3115760">
        <ele>106.0</ele>
        <time>2021-05-07T19:03:09Z</time>
      </trkpt>
      <trkpt lat="41.1910690" lon="1.3116850">
        <ele>107.0</ele>
        <time>2021-05-07T19:03:16Z</time>
      </trkpt>
      <trkpt lat="41.1910680" lon="1.3117240">
        <ele>107.4</ele>
        <time>2021-05-07T19:03:18Z</time>
      </trkpt>
      <trkpt lat="41.1910570" lon="1.3117840">
        <ele>107.6</ele>
        <time>2021-05-07T19:03:21Z</time>
      </trkpt>
      <trkpt lat="41.1910440" lon="1.3118350">
        <ele>108.6</ele>
        <time>2021-05-07T19:03:24Z</time>
      </trkpt>
      <trkpt lat="41.1910400" lon="1.3118800">
        <ele>109.2</ele>
        <time>2021-05-07T19:03:27Z</time>
      </trkpt>
      <trkpt lat="41.1910360" lon="1.3119100">
        <ele>109.6</ele>
        <time>2021-05-07T19:03:29Z</time>
      </trkpt>
      <trkpt lat="41.1910280" lon="1.3120060">
        <ele>110.8</ele>
        <time>2021-05-07T19:03:35Z</time>
      </trkpt>
      <trkpt lat="41.1910180" lon="1.3120910">
        <ele>111.8</ele>
        <time>2021-05-07T19:03:41Z</time>
      </trkpt>
      <trkpt lat="41.1910200" lon="1.3121120">
        <ele>112.2</ele>
        <time>2021-05-07T19:03:42Z</time>
      </trkpt>
      <trkpt lat="41.1910050" lon="1.3121640">
        <ele>112.8</ele>
        <time>2021-05-07T19:03:45Z</time>
      </trkpt>
      <trkpt lat="41.1909980" lon="1.3121880">
        <ele>112.4</ele>
        <time>2021-05-07T19:03:46Z</time>
      </trkpt>
      <trkpt lat="41.1910020" lon="1.3122600">
        <ele>113.4</ele>
        <time>2021-05-07T19:03:50Z</time>
      </trkpt>
      <trkpt lat="41.1910030" lon="1.3122760">
        <ele>113.6</ele>
        <time>2021-05-07T19:03:51Z</time>
      </trkpt>
      <trkpt lat="41.1910020" lon="1.3123060">
        <ele>114.0</ele>
        <time>2021-05-07T19:03:53Z</time>
      </trkpt>
      <trkpt lat="41.1909910" lon="1.3123790">
        <ele>114.4</ele>
        <time>2021-05-07T19:03:58Z</time>
      </trkpt>
      <trkpt lat="41.1909900" lon="1.3123910">
        <ele>114.8</ele>
        <time>2021-05-07T19:03:59Z</time>
      </trkpt>
      <trkpt lat="41.1909740" lon="1.3124940">
        <ele>115.4</ele>
        <time>2021-05-07T19:04:06Z</time>
      </trkpt>
      <trkpt lat="41.1909710" lon="1.3125070">
        <ele>115.6</ele>
        <time>2021-05-07T19:04:07Z</time>
      </trkpt>
      <trkpt lat="41.1909610" lon="1.3125380">
        <ele>116.0</ele>
        <time>2021-05-07T19:04:11Z</time>
      </trkpt>
      <trkpt lat="41.1909520" lon="1.3127770">
        <ele>116.8</ele>
        <time>2021-05-07T19:06:36Z</time>
      </trkpt>
      <trkpt lat="41.1909250" lon="1.3129330">
        <ele>117.4</ele>
        <time>2021-05-07T19:06:43Z</time>
      </trkpt>
      <trkpt lat="41.1908910" lon="1.3131380">
        <ele>117.0</ele>
        <time>2021-05-07T19:06:51Z</time>
      </trkpt>
      <trkpt lat="41.1908880" lon="1.3133130">
        <ele>117.4</ele>
        <time>2021-05-07T19:06:58Z</time>
      </trkpt>
      <trkpt lat="41.1908890" lon="1.3133370">
        <ele>117.4</ele>
        <time>2021-05-07T19:06:59Z</time>
      </trkpt>
      <trkpt lat="41.1908790" lon="1.3135150">
        <ele>117.4</ele>
        <time>2021-05-07T19:07:06Z</time>
      </trkpt>
      <trkpt lat="41.1908590" lon="1.3137410">
        <ele>117.6</ele>
        <time>2021-05-07T19:07:15Z</time>
      </trkpt>
      <trkpt lat="41.1908340" lon="1.3139760">
        <ele>117.6</ele>
        <time>2021-05-07T19:07:23Z</time>
      </trkpt>
      <trkpt lat="41.1908110" lon="1.3141570">
        <ele>117.4</ele>
        <time>2021-05-07T19:07:29Z</time>
      </trkpt>
      <trkpt lat="41.1907920" lon="1.3143510">
        <ele>117.0</ele>
        <time>2021-05-07T19:07:36Z</time>
      </trkpt>
      <trkpt lat="41.1907900" lon="1.3145050">
        <ele>117.8</ele>
        <time>2021-05-07T19:07:41Z</time>
      </trkpt>
      <trkpt lat="41.1907800" lon="1.3145790">
        <ele>118.0</ele>
        <time>2021-05-07T19:07:44Z</time>
      </trkpt>
      <trkpt lat="41.1907690" lon="1.3146510">
        <ele>118.2</ele>
        <time>2021-05-07T19:07:47Z</time>
      </trkpt>
      <trkpt lat="41.1907480" lon="1.3148350">
        <ele>119.0</ele>
        <time>2021-05-07T19:07:54Z</time>
      </trkpt>
      <trkpt lat="41.1907270" lon="1.3150490">
        <ele>119.4</ele>
        <time>2021-05-07T19:08:02Z</time>
      </trkpt>
      <trkpt lat="41.1907190" lon="1.3150960">
        <ele>119.8</ele>
        <time>2021-05-07T19:08:04Z</time>
      </trkpt>
      <trkpt lat="41.1907130" lon="1.3151650">
        <ele>120.4</ele>
        <time>2021-05-07T19:08:07Z</time>
      </trkpt>
      <trkpt lat="41.1906870" lon="1.3153340">
        <ele>120.6</ele>
        <time>2021-05-07T19:08:14Z</time>
      </trkpt>
      <trkpt lat="41.1906830" lon="1.3156220">
        <ele>120.2</ele>
        <time>2021-05-07T19:08:23Z</time>
      </trkpt>
      <trkpt lat="41.1906540" lon="1.3158570">
        <ele>120.2</ele>
        <time>2021-05-07T19:08:30Z</time>
      </trkpt>
      <trkpt lat="41.1906160" lon="1.3161390">
        <ele>120.8</ele>
        <time>2021-05-07T19:08:38Z</time>
      </trkpt>
      <trkpt lat="41.1906170" lon="1.3163720">
        <ele>120.8</ele>
        <time>2021-05-07T19:08:44Z</time>
      </trkpt>
      <trkpt lat="41.1906470" lon="1.3165910">
        <ele>120.2</ele>
        <time>2021-05-07T19:08:50Z</time>
      </trkpt>
      <trkpt lat="41.1906700" lon="1.3166780">
        <ele>119.2</ele>
        <time>2021-05-07T19:08:54Z</time>
      </trkpt>
      <trkpt lat="41.1906760" lon="1.3166950">
        <ele>119.2</ele>
        <time>2021-05-07T19:08:55Z</time>
      </trkpt>
      <trkpt lat="41.1906870" lon="1.3167490">
        <ele>119.0</ele>
        <time>2021-05-07T19:09:00Z</time>
      </trkpt>
      <trkpt lat="41.1907380" lon="1.3168770">
        <ele>119.2</ele>
        <time>2021-05-07T19:09:07Z</time>
      </trkpt>
      <trkpt lat="41.1907740" lon="1.3169900">
        <ele>118.2</ele>
        <time>2021-05-07T19:09:11Z</time>
      </trkpt>
      <trkpt lat="41.1908150" lon="1.3170760">
        <ele>118.0</ele>
        <time>2021-05-07T19:09:14Z</time>
      </trkpt>
      <trkpt lat="41.1908810" lon="1.3171910">
        <ele>117.0</ele>
        <time>2021-05-07T19:09:18Z</time>
      </trkpt>
      <trkpt lat="41.1908980" lon="1.3172250">
        <ele>116.8</ele>
        <time>2021-05-07T19:09:19Z</time>
      </trkpt>
      <trkpt lat="41.1910090" lon="1.3174200">
        <ele>116.0</ele>
        <time>2021-05-07T19:09:24Z</time>
      </trkpt>
      <trkpt lat="41.1910360" lon="1.3174650">
        <ele>115.2</ele>
        <time>2021-05-07T19:09:25Z</time>
      </trkpt>
      <trkpt lat="41.1910620" lon="1.3175060">
        <ele>114.8</ele>
        <time>2021-05-07T19:09:26Z</time>
      </trkpt>
      <trkpt lat="41.1911670" lon="1.3177030">
        <ele>114.8</ele>
        <time>2021-05-07T19:09:31Z</time>
      </trkpt>
      <trkpt lat="41.1912040" lon="1.3177770">
        <ele>114.6</ele>
        <time>2021-05-07T19:09:35Z</time>
      </trkpt>
      <trkpt lat="41.1912050" lon="1.3177770">
        <ele>114.6</ele>
        <time>2021-05-07T19:09:36Z</time>
      </trkpt>
      <trkpt lat="41.1912410" lon="1.3177950">
        <ele>115.2</ele>
        <time>2021-05-07T19:09:44Z</time>
      </trkpt>
      <trkpt lat="41.1912640" lon="1.3178280">
        <ele>115.4</ele>
        <time>2021-05-07T19:09:46Z</time>
      </trkpt>
      <trkpt lat="41.1912730" lon="1.3178480">
        <ele>115.6</ele>
        <time>2021-05-07T19:09:47Z</time>
      </trkpt>
      <trkpt lat="41.1912950" lon="1.3178970">
        <ele>116.4</ele>
        <time>2021-05-07T19:09:50Z</time>
      </trkpt>
      <trkpt lat="41.1913030" lon="1.3179070">
        <ele>116.6</ele>
        <time>2021-05-07T19:09:51Z</time>
      </trkpt>
      <trkpt lat="41.1913050" lon="1.3179120">
        <ele>116.8</ele>
        <time>2021-05-07T19:09:52Z</time>
      </trkpt>
      <trkpt lat="41.1913050" lon="1.3179110">
        <ele>116.8</ele>
        <time>2021-05-07T19:09:53Z</time>
      </trkpt>
      <trkpt lat="41.1913380" lon="1.3179610">
        <ele>116.6</ele>
        <time>2021-05-07T19:09:58Z</time>
      </trkpt>
      <trkpt lat="41.1913550" lon="1.3180030">
        <ele>117.2</ele>
        <time>2021-05-07T19:10:00Z</time>
      </trkpt>
      <trkpt lat="41.1913640" lon="1.3180240">
        <ele>117.6</ele>
        <time>2021-05-07T19:10:01Z</time>
      </trkpt>
      <trkpt lat="41.1914240" lon="1.3181300">
        <ele>118.0</ele>
        <time>2021-05-07T19:10:07Z</time>
      </trkpt>
      <trkpt lat="41.1915400" lon="1.3183100">
        <ele>118.2</ele>
        <time>2021-05-07T19:10:15Z</time>
      </trkpt>
      <trkpt lat="41.1916910" lon="1.3185470">
        <ele>118.0</ele>
        <time>2021-05-07T19:10:23Z</time>
      </trkpt>
      <trkpt lat="41.1918580" lon="1.3188470">
        <ele>117.0</ele>
        <time>2021-05-07T19:10:32Z</time>
      </trkpt>
      <trkpt lat="41.1919080" lon="1.3189260">
        <ele>116.6</ele>
        <time>2021-05-07T19:10:34Z</time>
      </trkpt>
      <trkpt lat="41.1920300" lon="1.3190760">
        <ele>115.6</ele>
        <time>2021-05-07T19:10:38Z</time>
      </trkpt>
      <trkpt lat="41.1920830" lon="1.3191550">
        <ele>115.6</ele>
        <time>2021-05-07T19:10:40Z</time>
      </trkpt>
      <trkpt lat="41.1921140" lon="1.3192420">
        <ele>115.4</ele>
        <time>2021-05-07T19:10:42Z</time>
      </trkpt>
      <trkpt lat="41.1922160" lon="1.3194740">
        <ele>116.4</ele>
        <time>2021-05-07T19:10:49Z</time>
      </trkpt>
      <trkpt lat="41.1922930" lon="1.3195920">
        <ele>116.8</ele>
        <time>2021-05-07T19:10:54Z</time>
      </trkpt>
      <trkpt lat="41.1923630" lon="1.3197220">
        <ele>117.6</ele>
        <time>2021-05-07T19:10:59Z</time>
      </trkpt>
      <trkpt lat="41.1923860" lon="1.3197730">
        <ele>118.0</ele>
        <time>2021-05-07T19:11:01Z</time>
      </trkpt>
      <trkpt lat="41.1924080" lon="1.3198180">
        <ele>119.4</ele>
        <time>2021-05-07T19:11:03Z</time>
      </trkpt>
      <trkpt lat="41.1924590" lon="1.3198780">
        <ele>120.0</ele>
        <time>2021-05-07T19:11:06Z</time>
      </trkpt>
      <trkpt lat="41.1925280" lon="1.3200150">
        <ele>119.4</ele>
        <time>2021-05-07T19:11:11Z</time>
      </trkpt>
      <trkpt lat="41.1926160" lon="1.3202110">
        <ele>118.4</ele>
        <time>2021-05-07T19:11:18Z</time>
      </trkpt>
      <trkpt lat="41.1927630" lon="1.3203770">
        <ele>118.8</ele>
        <time>2021-05-07T19:11:25Z</time>
      </trkpt>
      <trkpt lat="41.1928920" lon="1.3205580">
        <ele>119.2</ele>
        <time>2021-05-07T19:11:34Z</time>
      </trkpt>
      <trkpt lat="41.1930260" lon="1.3207790">
        <ele>119.4</ele>
        <time>2021-05-07T19:11:43Z</time>
      </trkpt>
      <trkpt lat="41.1931890" lon="1.3210370">
        <ele>119.0</ele>
        <time>2021-05-07T19:11:53Z</time>
      </trkpt>
      <trkpt lat="41.1932690" lon="1.3212070">
        <ele>119.0</ele>
        <time>2021-05-07T19:11:59Z</time>
      </trkpt>
      <trkpt lat="41.1933600" lon="1.3214280">
        <ele>119.2</ele>
        <time>2021-05-07T19:12:07Z</time>
      </trkpt>
      <trkpt lat="41.1934440" lon="1.3216030">
        <ele>119.4</ele>
        <time>2021-05-07T19:12:15Z</time>
      </trkpt>
      <trkpt lat="41.1934830" lon="1.3217190">
        <ele>119.8</ele>
        <time>2021-05-07T19:12:21Z</time>
      </trkpt>
      <trkpt lat="41.1935480" lon="1.3217920">
        <ele>120.2</ele>
        <time>2021-05-07T19:12:26Z</time>
      </trkpt>
      <trkpt lat="41.1935640" lon="1.3218050">
        <ele>120.2</ele>
        <time>2021-05-07T19:12:27Z</time>
      </trkpt>
      <trkpt lat="41.1936460" lon="1.3218780">
        <ele>120.6</ele>
        <time>2021-05-07T19:12:33Z</time>
      </trkpt>
      <trkpt lat="41.1937010" lon="1.3219680">
        <ele>121.4</ele>
        <time>2021-05-07T19:12:40Z</time>
      </trkpt>
      <trkpt lat="41.1937390" lon="1.3220680">
        <ele>122.4</ele>
        <time>2021-05-07T19:12:48Z</time>
      </trkpt>
      <trkpt lat="41.1937540" lon="1.3221330">
        <ele>122.2</ele>
        <time>2021-05-07T19:12:53Z</time>
      </trkpt>
      <trkpt lat="41.1937530" lon="1.3221620">
        <ele>122.2</ele>
        <time>2021-05-07T19:12:55Z</time>
      </trkpt>
      <trkpt lat="41.1937560" lon="1.3222170">
        <ele>122.4</ele>
        <time>2021-05-07T19:12:58Z</time>
      </trkpt>
      <trkpt lat="41.1937630" lon="1.3222950">
        <ele>123.2</ele>
        <time>2021-05-07T19:13:02Z</time>
      </trkpt>
      <trkpt lat="41.1937600" lon="1.3223330">
        <ele>123.4</ele>
        <time>2021-05-07T19:13:04Z</time>
      </trkpt>
      <trkpt lat="41.1937530" lon="1.3223950">
        <ele>123.8</ele>
        <time>2021-05-07T19:13:07Z</time>
      </trkpt>
      <trkpt lat="41.1937110" lon="1.3225350">
        <ele>124.2</ele>
        <time>2021-05-07T19:13:14Z</time>
      </trkpt>
      <trkpt lat="41.1937060" lon="1.3225560">
        <ele>124.4</ele>
        <time>2021-05-07T19:13:15Z</time>
      </trkpt>
      <trkpt lat="41.1936710" lon="1.3226530">
        <ele>125.4</ele>
        <time>2021-05-07T19:13:20Z</time>
      </trkpt>
      <trkpt lat="41.1936620" lon="1.3226710">
        <ele>125.6</ele>
        <time>2021-05-07T19:13:21Z</time>
      </trkpt>
      <trkpt lat="41.1936390" lon="1.3227980">
        <ele>126.4</ele>
        <time>2021-05-07T19:13:27Z</time>
      </trkpt>
      <trkpt lat="41.1936280" lon="1.3228960">
        <ele>126.8</ele>
        <time>2021-05-07T19:13:31Z</time>
      </trkpt>
      <trkpt lat="41.1936210" lon="1.3229410">
        <ele>127.2</ele>
        <time>2021-05-07T19:13:33Z</time>
      </trkpt>
      <trkpt lat="41.1936100" lon="1.3230040">
        <ele>127.8</ele>
        <time>2021-05-07T19:13:36Z</time>
      </trkpt>
      <trkpt lat="41.1935990" lon="1.3231150">
        <ele>127.8</ele>
        <time>2021-05-07T19:13:40Z</time>
      </trkpt>
      <trkpt lat="41.1936000" lon="1.3232080">
        <ele>127.8</ele>
        <time>2021-05-07T19:13:43Z</time>
      </trkpt>
      <trkpt lat="41.1936110" lon="1.3232580">
        <ele>128.0</ele>
        <time>2021-05-07T19:13:45Z</time>
      </trkpt>
      <trkpt lat="41.1936320" lon="1.3233720">
        <ele>128.4</ele>
        <time>2021-05-07T19:13:49Z</time>
      </trkpt>
      <trkpt lat="41.1936460" lon="1.3234080">
        <ele>128.4</ele>
        <time>2021-05-07T19:13:50Z</time>
      </trkpt>
      <trkpt lat="41.1937370" lon="1.3235310">
        <ele>128.0</ele>
        <time>2021-05-07T19:13:55Z</time>
      </trkpt>
      <trkpt lat="41.1938430" lon="1.3236750">
        <ele>128.6</ele>
        <time>2021-05-07T19:14:00Z</time>
      </trkpt>
      <trkpt lat="41.1939380" lon="1.3238400">
        <ele>127.6</ele>
        <time>2021-05-07T19:14:06Z</time>
      </trkpt>
      <trkpt lat="41.1939890" lon="1.3240430">
        <ele>127.6</ele>
        <time>2021-05-07T19:14:12Z</time>
      </trkpt>
      <trkpt lat="41.1939850" lon="1.3241850">
        <ele>127.0</ele>
        <time>2021-05-07T19:14:16Z</time>
      </trkpt>
      <trkpt lat="41.1939820" lon="1.3242770">
        <ele>126.6</ele>
        <time>2021-05-07T19:14:19Z</time>
      </trkpt>
      <trkpt lat="41.1939810" lon="1.3244190">
        <ele>126.6</ele>
        <time>2021-05-07T19:14:24Z</time>
      </trkpt>
      <trkpt lat="41.1939730" lon="1.3245880">
        <ele>126.6</ele>
        <time>2021-05-07T19:14:29Z</time>
      </trkpt>
      <trkpt lat="41.1939590" lon="1.3248160">
        <ele>126.4</ele>
        <time>2021-05-07T19:14:34Z</time>
      </trkpt>
      <trkpt lat="41.1939660" lon="1.3250190">
        <ele>125.6</ele>
        <time>2021-05-07T19:14:38Z</time>
      </trkpt>
      <trkpt lat="41.1939720" lon="1.3251650">
        <ele>125.0</ele>
        <time>2021-05-07T19:14:41Z</time>
      </trkpt>
      <trkpt lat="41.1940190" lon="1.3254340">
        <ele>124.6</ele>
        <time>2021-05-07T19:14:47Z</time>
      </trkpt>
      <trkpt lat="41.1940290" lon="1.3254730">
        <ele>124.2</ele>
        <time>2021-05-07T19:14:48Z</time>
      </trkpt>
      <trkpt lat="41.1940900" lon="1.3257260">
        <ele>123.6</ele>
        <time>2021-05-07T19:14:55Z</time>
      </trkpt>
      <trkpt lat="41.1941110" lon="1.3257960">
        <ele>123.6</ele>
        <time>2021-05-07T19:14:57Z</time>
      </trkpt>
      <trkpt lat="41.1942170" lon="1.3259000">
        <ele>123.6</ele>
        <time>2021-05-07T19:15:02Z</time>
      </trkpt>
      <trkpt lat="41.1943110" lon="1.3258960">
        <ele>122.4</ele>
        <time>2021-05-07T19:15:05Z</time>
      </trkpt>
      <trkpt lat="41.1943730" lon="1.3258910">
        <ele>121.8</ele>
        <time>2021-05-07T19:15:07Z</time>
      </trkpt>
      <trkpt lat="41.1944010" lon="1.3259030">
        <ele>121.4</ele>
        <time>2021-05-07T19:15:08Z</time>
      </trkpt>
      <trkpt lat="41.1944640" lon="1.3259890">
        <ele>120.8</ele>
        <time>2021-05-07T19:15:11Z</time>
      </trkpt>
      <trkpt lat="41.1944800" lon="1.3260200">
        <ele>120.6</ele>
        <time>2021-05-07T19:15:12Z</time>
      </trkpt>
      <trkpt lat="41.1945560" lon="1.3262210">
        <ele>120.6</ele>
        <time>2021-05-07T19:15:19Z</time>
      </trkpt>
      <trkpt lat="41.1946160" lon="1.3263570">
        <ele>120.4</ele>
        <time>2021-05-07T19:15:25Z</time>
      </trkpt>
      <trkpt lat="41.1946370" lon="1.3263690">
        <ele>120.4</ele>
        <time>2021-05-07T19:15:26Z</time>
      </trkpt>
      <trkpt lat="41.1946760" lon="1.3264500">
        <ele>120.4</ele>
        <time>2021-05-07T19:15:30Z</time>
      </trkpt>
      <trkpt lat="41.1946850" lon="1.3264690">
        <ele>120.4</ele>
        <time>2021-05-07T19:15:31Z</time>
      </trkpt>
      <trkpt lat="41.1947540" lon="1.3266470">
        <ele>120.6</ele>
        <time>2021-05-07T19:15:39Z</time>
      </trkpt>
      <trkpt lat="41.1948180" lon="1.3268130">
        <ele>120.8</ele>
        <time>2021-05-07T19:15:46Z</time>
      </trkpt>
      <trkpt lat="41.1948710" lon="1.3269600">
        <ele>120.6</ele>
        <time>2021-05-07T19:15:52Z</time>
      </trkpt>
      <trkpt lat="41.1949370" lon="1.3271320">
        <ele>120.6</ele>
        <time>2021-05-07T19:15:59Z</time>
      </trkpt>
      <trkpt lat="41.1949650" lon="1.3272100">
        <ele>120.4</ele>
        <time>2021-05-07T19:16:02Z</time>
      </trkpt>
      <trkpt lat="41.1950300" lon="1.3273850">
        <ele>120.6</ele>
        <time>2021-05-07T19:16:09Z</time>
      </trkpt>
      <trkpt lat="41.1951070" lon="1.3275950">
        <ele>121.0</ele>
        <time>2021-05-07T19:16:17Z</time>
      </trkpt>
      <trkpt lat="41.1951230" lon="1.3276250">
        <ele>120.8</ele>
        <time>2021-05-07T19:16:19Z</time>
      </trkpt>
      <trkpt lat="41.1951290" lon="1.3276370">
        <ele>120.0</ele>
        <time>2021-05-07T19:16:22Z</time>
      </trkpt>
      <trkpt lat="41.1951060" lon="1.3276440">
        <ele>119.0</ele>
        <time>2021-05-07T19:20:29Z</time>
      </trkpt>
      <trkpt lat="41.1950830" lon="1.3276640">
        <ele>119.2</ele>
        <time>2021-05-07T19:20:32Z</time>
      </trkpt>
      <trkpt lat="41.1950810" lon="1.3276660">
        <ele>119.4</ele>
        <time>2021-05-07T19:20:33Z</time>
      </trkpt>
      <trkpt lat="41.1951260" lon="1.3277270">
        <ele>119.2</ele>
        <time>2021-05-07T19:21:20Z</time>
      </trkpt>
      <trkpt lat="41.1951480" lon="1.3277870">
        <ele>119.2</ele>
        <time>2021-05-07T19:21:22Z</time>
      </trkpt>
      <trkpt lat="41.1952490" lon="1.3280840">
        <ele>119.2</ele>
        <time>2021-05-07T19:21:30Z</time>
      </trkpt>
      <trkpt lat="41.1953390" lon="1.3283450">
        <ele>119.2</ele>
        <time>2021-05-07T19:21:37Z</time>
      </trkpt>
      <trkpt lat="41.1954720" lon="1.3287210">
        <ele>119.6</ele>
        <time>2021-05-07T19:21:47Z</time>
      </trkpt>
      <trkpt lat="41.1955640" lon="1.3290020">
        <ele>119.6</ele>
        <time>2021-05-07T19:21:55Z</time>
      </trkpt>
      <trkpt lat="41.1956450" lon="1.3292270">
        <ele>119.2</ele>
        <time>2021-05-07T19:22:02Z</time>
      </trkpt>
      <trkpt lat="41.1957660" lon="1.3295270">
        <ele>119.6</ele>
        <time>2021-05-07T19:22:11Z</time>
      </trkpt>
      <trkpt lat="41.1958300" lon="1.3297240">
        <ele>119.6</ele>
        <time>2021-05-07T19:22:17Z</time>
      </trkpt>
      <trkpt lat="41.1959130" lon="1.3299740">
        <ele>119.4</ele>
        <time>2021-05-07T19:22:25Z</time>
      </trkpt>
      <trkpt lat="41.1959120" lon="1.3300120">
        <ele>119.4</ele>
        <time>2021-05-07T19:22:29Z</time>
      </trkpt>
      <trkpt lat="41.1959350" lon="1.3301350">
        <ele>118.4</ele>
        <time>2021-05-07T19:25:19Z</time>
      </trkpt>
      <trkpt lat="41.1959590" lon="1.3302220">
        <ele>118.4</ele>
        <time>2021-05-07T19:25:24Z</time>
      </trkpt>
      <trkpt lat="41.1959620" lon="1.3303800">
        <ele>118.6</ele>
        <time>2021-05-07T19:25:32Z</time>
      </trkpt>
      <trkpt lat="41.1959700" lon="1.3305430">
        <ele>118.4</ele>
        <time>2021-05-07T19:25:40Z</time>
      </trkpt>
      <trkpt lat="41.1959790" lon="1.3307310">
        <ele>118.8</ele>
        <time>2021-05-07T19:25:48Z</time>
      </trkpt>
      <trkpt lat="41.1959800" lon="1.3308820">
        <ele>118.6</ele>
        <time>2021-05-07T19:25:56Z</time>
      </trkpt>
      <trkpt lat="41.1959840" lon="1.3309000">
        <ele>118.6</ele>
        <time>2021-05-07T19:25:57Z</time>
      </trkpt>
      <trkpt lat="41.1959960" lon="1.3310380">
        <ele>118.4</ele>
        <time>2021-05-07T19:26:03Z</time>
      </trkpt>
      <trkpt lat="41.1960320" lon="1.3312110">
        <ele>119.6</ele>
        <time>2021-05-07T19:26:11Z</time>
      </trkpt>
      <trkpt lat="41.1960370" lon="1.3312280">
        <ele>119.8</ele>
        <time>2021-05-07T19:26:12Z</time>
      </trkpt>
      <trkpt lat="41.1960560" lon="1.3312990">
        <ele>121.0</ele>
        <time>2021-05-07T19:26:16Z</time>
      </trkpt>
      <trkpt lat="41.1960780" lon="1.3313430">
        <ele>121.4</ele>
        <time>2021-05-07T19:26:19Z</time>
      </trkpt>
      <trkpt lat="41.1961010" lon="1.3313830">
        <ele>122.4</ele>
        <time>2021-05-07T19:26:22Z</time>
      </trkpt>
      <trkpt lat="41.1961210" lon="1.3314450">
        <ele>122.8</ele>
        <time>2021-05-07T19:26:26Z</time>
      </trkpt>
      <trkpt lat="41.1961280" lon="1.3314580">
        <ele>122.8</ele>
        <time>2021-05-07T19:26:27Z</time>
      </trkpt>
      <trkpt lat="41.1961510" lon="1.3315160">
        <ele>123.4</ele>
        <time>2021-05-07T19:26:31Z</time>
      </trkpt>
      <trkpt lat="41.1961570" lon="1.3315320">
        <ele>123.4</ele>
        <time>2021-05-07T19:26:32Z</time>
      </trkpt>
      <trkpt lat="41.1962040" lon="1.3316500">
        <ele>123.6</ele>
        <time>2021-05-07T19:26:39Z</time>
      </trkpt>
      <trkpt lat="41.1962350" lon="1.3317220">
        <ele>123.8</ele>
        <time>2021-05-07T19:26:43Z</time>
      </trkpt>
      <trkpt lat="41.1962540" lon="1.3317560">
        <ele>123.6</ele>
        <time>2021-05-07T19:26:45Z</time>
      </trkpt>
      <trkpt lat="41.1963040" lon="1.3319160">
        <ele>124.0</ele>
        <time>2021-05-07T19:26:53Z</time>
      </trkpt>
      <trkpt lat="41.1963000" lon="1.3319890">
        <ele>124.6</ele>
        <time>2021-05-07T19:26:57Z</time>
      </trkpt>
      <trkpt lat="41.1962900" lon="1.3320440">
        <ele>124.8</ele>
        <time>2021-05-07T19:27:00Z</time>
      </trkpt>
      <trkpt lat="41.1962760" lon="1.3321860">
        <ele>125.0</ele>
        <time>2021-05-07T19:27:08Z</time>
      </trkpt>
      <trkpt lat="41.1962490" lon="1.3323190">
        <ele>125.6</ele>
        <time>2021-05-07T19:27:15Z</time>
      </trkpt>
      <trkpt lat="41.1962400" lon="1.3323530">
        <ele>126.0</ele>
        <time>2021-05-07T19:27:17Z</time>
      </trkpt>
      <trkpt lat="41.1962120" lon="1.3324500">
        <ele>126.4</ele>
        <time>2021-05-07T19:27:23Z</time>
      </trkpt>
      <trkpt lat="41.1961950" lon="1.3325360">
        <ele>126.6</ele>
        <time>2021-05-07T19:27:28Z</time>
      </trkpt>
      <trkpt lat="41.1961900" lon="1.3325920">
        <ele>127.0</ele>
        <time>2021-05-07T19:27:31Z</time>
      </trkpt>
      <trkpt lat="41.1961910" lon="1.3326740">
        <ele>126.6</ele>
        <time>2021-05-07T19:27:35Z</time>
      </trkpt>
      <trkpt lat="41.1961950" lon="1.3327110">
        <ele>126.8</ele>
        <time>2021-05-07T19:27:37Z</time>
      </trkpt>
      <trkpt lat="41.1961910" lon="1.3327410">
        <ele>127.0</ele>
        <time>2021-05-07T19:27:39Z</time>
      </trkpt>
      <trkpt lat="41.1961920" lon="1.3328170">
        <ele>127.2</ele>
        <time>2021-05-07T19:27:43Z</time>
      </trkpt>
      <trkpt lat="41.1961970" lon="1.3329750">
        <ele>127.2</ele>
        <time>2021-05-07T19:27:51Z</time>
      </trkpt>
      <trkpt lat="41.1961970" lon="1.3329940">
        <ele>127.6</ele>
        <time>2021-05-07T19:27:52Z</time>
      </trkpt>
      <trkpt lat="41.1961930" lon="1.3330420">
        <ele>128.0</ele>
        <time>2021-05-07T19:27:55Z</time>
      </trkpt>
      <trkpt lat="41.1961930" lon="1.3330670">
        <ele>128.2</ele>
        <time>2021-05-07T19:27:57Z</time>
      </trkpt>
      <trkpt lat="41.1961920" lon="1.3330690">
        <ele>128.2</ele>
        <time>2021-05-07T19:27:58Z</time>
      </trkpt>
      <trkpt lat="41.1961990" lon="1.3335280">
        <ele>129.8</ele>
        <time>2021-05-07T19:29:02Z</time>
      </trkpt>
      <trkpt lat="41.1961810" lon="1.3335620">
        <ele>130.0</ele>
        <time>2021-05-07T19:29:04Z</time>
      </trkpt>
      <trkpt lat="41.1961460" lon="1.3336760">
        <ele>130.2</ele>
        <time>2021-05-07T19:29:10Z</time>
      </trkpt>
      <trkpt lat="41.1961420" lon="1.3336950">
        <ele>130.2</ele>
        <time>2021-05-07T19:29:11Z</time>
      </trkpt>
      <trkpt lat="41.1961320" lon="1.3337760">
        <ele>130.0</ele>
        <time>2021-05-07T19:29:14Z</time>
      </trkpt>
      <trkpt lat="41.1961220" lon="1.3338070">
        <ele>130.0</ele>
        <time>2021-05-07T19:29:15Z</time>
      </trkpt>
      <trkpt lat="41.1960920" lon="1.3339000">
        <ele>129.6</ele>
        <time>2021-05-07T19:29:18Z</time>
      </trkpt>
      <trkpt lat="41.1960800" lon="1.3339950">
        <ele>128.8</ele>
        <time>2021-05-07T19:29:21Z</time>
      </trkpt>
      <trkpt lat="41.1960720" lon="1.3340180">
        <ele>128.4</ele>
        <time>2021-05-07T19:29:22Z</time>
      </trkpt>
      <trkpt lat="41.1960550" lon="1.3341170">
        <ele>127.6</ele>
        <time>2021-05-07T19:29:27Z</time>
      </trkpt>
      <trkpt lat="41.1960490" lon="1.3341300">
        <ele>127.4</ele>
        <time>2021-05-07T19:29:28Z</time>
      </trkpt>
      <trkpt lat="41.1960440" lon="1.3341360">
        <ele>127.0</ele>
        <time>2021-05-07T19:29:30Z</time>
      </trkpt>
      <trkpt lat="41.1960270" lon="1.3341620">
        <ele>126.8</ele>
        <time>2021-05-07T19:29:33Z</time>
      </trkpt>
      <trkpt lat="41.1960120" lon="1.3341760">
        <ele>126.6</ele>
        <time>2021-05-07T19:29:34Z</time>
      </trkpt>
      <trkpt lat="41.1959970" lon="1.3341910">
        <ele>126.6</ele>
        <time>2021-05-07T19:29:35Z</time>
      </trkpt>
      <trkpt lat="41.1958850" lon="1.3342600">
        <ele>126.0</ele>
        <time>2021-05-07T19:29:40Z</time>
      </trkpt>
      <trkpt lat="41.1957970" lon="1.3342900">
        <ele>125.6</ele>
        <time>2021-05-07T19:29:43Z</time>
      </trkpt>
      <trkpt lat="41.1956750" lon="1.3343260">
        <ele>125.2</ele>
        <time>2021-05-07T19:29:47Z</time>
      </trkpt>
      <trkpt lat="41.1955120" lon="1.3344200">
        <ele>125.8</ele>
        <time>2021-05-07T19:29:54Z</time>
      </trkpt>
      <trkpt lat="41.1953910" lon="1.3345750">
        <ele>125.6</ele>
        <time>2021-05-07T19:30:02Z</time>
      </trkpt>
      <trkpt lat="41.1953080" lon="1.3346720">
        <ele>124.6</ele>
        <time>2021-05-07T19:30:08Z</time>
      </trkpt>
      <trkpt lat="41.1951850" lon="1.3347380">
        <ele>124.8</ele>
        <time>2021-05-07T19:30:15Z</time>
      </trkpt>
      <trkpt lat="41.1950990" lon="1.3348200">
        <ele>125.2</ele>
        <time>2021-05-07T19:30:21Z</time>
      </trkpt>
      <trkpt lat="41.1950280" lon="1.3349130">
        <ele>125.2</ele>
        <time>2021-05-07T19:30:28Z</time>
      </trkpt>
      <trkpt lat="41.1949290" lon="1.3350200">
        <ele>125.2</ele>
        <time>2021-05-07T19:30:38Z</time>
      </trkpt>
      <trkpt lat="41.1948190" lon="1.3351390">
        <ele>125.4</ele>
        <time>2021-05-07T19:30:46Z</time>
      </trkpt>
      <trkpt lat="41.1946630" lon="1.3353000">
        <ele>126.0</ele>
        <time>2021-05-07T19:30:55Z</time>
      </trkpt>
      <trkpt lat="41.1944870" lon="1.3355400">
        <ele>126.6</ele>
        <time>2021-05-07T19:31:03Z</time>
      </trkpt>
      <trkpt lat="41.1943030" lon="1.3356610">
        <ele>126.6</ele>
        <time>2021-05-07T19:31:09Z</time>
      </trkpt>
      <trkpt lat="41.1941360" lon="1.3358090">
        <ele>126.6</ele>
        <time>2021-05-07T19:31:15Z</time>
      </trkpt>
      <trkpt lat="41.1940420" lon="1.3359890">
        <ele>126.2</ele>
        <time>2021-05-07T19:31:21Z</time>
      </trkpt>
      <trkpt lat="41.1940420" lon="1.3361780">
        <ele>127.4</ele>
        <time>2021-05-07T19:31:26Z</time>
      </trkpt>
      <trkpt lat="41.1940480" lon="1.3362180">
        <ele>127.4</ele>
        <time>2021-05-07T19:31:27Z</time>
      </trkpt>
      <trkpt lat="41.1940390" lon="1.3364100">
        <ele>128.4</ele>
        <time>2021-05-07T19:31:32Z</time>
      </trkpt>
      <trkpt lat="41.1940330" lon="1.3364460">
        <ele>128.6</ele>
        <time>2021-05-07T19:31:33Z</time>
      </trkpt>
      <trkpt lat="41.1940240" lon="1.3365150">
        <ele>129.6</ele>
        <time>2021-05-07T19:31:35Z</time>
      </trkpt>
      <trkpt lat="41.1940010" lon="1.3366510">
        <ele>130.4</ele>
        <time>2021-05-07T19:31:39Z</time>
      </trkpt>
      <trkpt lat="41.1939960" lon="1.3366850">
        <ele>130.6</ele>
        <time>2021-05-07T19:31:40Z</time>
      </trkpt>
      <trkpt lat="41.1939800" lon="1.3369060">
        <ele>130.6</ele>
        <time>2021-05-07T19:31:46Z</time>
      </trkpt>
      <trkpt lat="41.1940260" lon="1.3370640">
        <ele>129.4</ele>
        <time>2021-05-07T19:31:50Z</time>
      </trkpt>
      <trkpt lat="41.1940520" lon="1.3371500">
        <ele>129.2</ele>
        <time>2021-05-07T19:31:52Z</time>
      </trkpt>
      <trkpt lat="41.1941750" lon="1.3373240">
        <ele>128.8</ele>
        <time>2021-05-07T19:31:57Z</time>
      </trkpt>
      <trkpt lat="41.1942840" lon="1.3374240">
        <ele>128.6</ele>
        <time>2021-05-07T19:32:02Z</time>
      </trkpt>
      <trkpt lat="41.1944150" lon="1.3374860">
        <ele>129.2</ele>
        <time>2021-05-07T19:32:09Z</time>
      </trkpt>
      <trkpt lat="41.1945930" lon="1.3375470">
        <ele>129.4</ele>
        <time>2021-05-07T19:32:17Z</time>
      </trkpt>
      <trkpt lat="41.1948090" lon="1.3376090">
        <ele>129.6</ele>
        <time>2021-05-07T19:32:25Z</time>
      </trkpt>
      <trkpt lat="41.1949450" lon="1.3376510">
        <ele>129.6</ele>
        <time>2021-05-07T19:32:29Z</time>
      </trkpt>
      <trkpt lat="41.1951680" lon="1.3377110">
        <ele>129.2</ele>
        <time>2021-05-07T19:32:35Z</time>
      </trkpt>
      <trkpt lat="41.1955460" lon="1.3377970">
        <ele>129.0</ele>
        <time>2021-05-07T19:32:45Z</time>
      </trkpt>
      <trkpt lat="41.1957620" lon="1.3377950">
        <ele>128.4</ele>
        <time>2021-05-07T19:32:50Z</time>
      </trkpt>
      <trkpt lat="41.1958490" lon="1.3377790">
        <ele>128.2</ele>
        <time>2021-05-07T19:32:52Z</time>
      </trkpt>
      <trkpt lat="41.1959740" lon="1.3377690">
        <ele>128.0</ele>
        <time>2021-05-07T19:32:55Z</time>
      </trkpt>
      <trkpt lat="41.1960880" lon="1.3378210">
        <ele>128.0</ele>
        <time>2021-05-07T19:32:58Z</time>
      </trkpt>
      <trkpt lat="41.1961830" lon="1.3379160">
        <ele>127.8</ele>
        <time>2021-05-07T19:33:01Z</time>
      </trkpt>
      <trkpt lat="41.1962740" lon="1.3380100">
        <ele>127.8</ele>
        <time>2021-05-07T19:33:04Z</time>
      </trkpt>
      <trkpt lat="41.1964830" lon="1.3381620">
        <ele>127.8</ele>
        <time>2021-05-07T19:33:11Z</time>
      </trkpt>
      <trkpt lat="41.1966250" lon="1.3382190">
        <ele>128.4</ele>
        <time>2021-05-07T19:33:17Z</time>
      </trkpt>
      <trkpt lat="41.1968340" lon="1.3382610">
        <ele>129.4</ele>
        <time>2021-05-07T19:33:26Z</time>
      </trkpt>
      <trkpt lat="41.1968570" lon="1.3382620">
        <ele>129.4</ele>
        <time>2021-05-07T19:33:27Z</time>
      </trkpt>
      <trkpt lat="41.1970130" lon="1.3382720">
        <ele>130.2</ele>
        <time>2021-05-07T19:33:34Z</time>
      </trkpt>
      <trkpt lat="41.1970540" lon="1.3382780">
        <ele>130.6</ele>
        <time>2021-05-07T19:33:36Z</time>
      </trkpt>
      <trkpt lat="41.1971670" lon="1.3382760">
        <ele>131.0</ele>
        <time>2021-05-07T19:33:41Z</time>
      </trkpt>
      <trkpt lat="41.1973430" lon="1.3382590">
        <ele>131.6</ele>
        <time>2021-05-07T19:33:48Z</time>
      </trkpt>
      <trkpt lat="41.1974450" lon="1.3382280">
        <ele>131.8</ele>
        <time>2021-05-07T19:33:52Z</time>
      </trkpt>
      <trkpt lat="41.1976640" lon="1.3381620">
        <ele>132.4</ele>
        <time>2021-05-07T19:34:01Z</time>
      </trkpt>
      <trkpt lat="41.1979210" lon="1.3381020">
        <ele>132.6</ele>
        <time>2021-05-07T19:34:11Z</time>
      </trkpt>
      <trkpt lat="41.1979710" lon="1.3380980">
        <ele>132.8</ele>
        <time>2021-05-07T19:34:13Z</time>
      </trkpt>
      <trkpt lat="41.1982130" lon="1.3381110">
        <ele>133.2</ele>
        <time>2021-05-07T19:34:23Z</time>
      </trkpt>
      <trkpt lat="41.1983050" lon="1.3381440">
        <ele>133.4</ele>
        <time>2021-05-07T19:34:27Z</time>
      </trkpt>
      <trkpt lat="41.1984140" lon="1.3382000">
        <ele>134.2</ele>
        <time>2021-05-07T19:34:32Z</time>
      </trkpt>
      <trkpt lat="41.1984560" lon="1.3382240">
        <ele>134.4</ele>
        <time>2021-05-07T19:34:34Z</time>
      </trkpt>
      <trkpt lat="41.1985950" lon="1.3382880">
        <ele>135.4</ele>
        <time>2021-05-07T19:34:41Z</time>
      </trkpt>
      <trkpt lat="41.1986310" lon="1.3383100">
        <ele>135.6</ele>
        <time>2021-05-07T19:34:43Z</time>
      </trkpt>
      <trkpt lat="41.1987510" lon="1.3383620">
        <ele>136.6</ele>
        <time>2021-05-07T19:34:49Z</time>
      </trkpt>
      <trkpt lat="41.1989120" lon="1.3383920">
        <ele>137.4</ele>
        <time>2021-05-07T19:34:57Z</time>
      </trkpt>
      <trkpt lat="41.1989330" lon="1.3383920">
        <ele>137.8</ele>
        <time>2021-05-07T19:34:58Z</time>
      </trkpt>
      <trkpt lat="41.1990540" lon="1.3383960">
        <ele>138.8</ele>
        <time>2021-05-07T19:35:04Z</time>
      </trkpt>
      <trkpt lat="41.1990960" lon="1.3383920">
        <ele>139.0</ele>
        <time>2021-05-07T19:35:06Z</time>
      </trkpt>
      <trkpt lat="41.1991930" lon="1.3384060">
        <ele>139.8</ele>
        <time>2021-05-07T19:35:11Z</time>
      </trkpt>
      <trkpt lat="41.1992570" lon="1.3384310">
        <ele>140.6</ele>
        <time>2021-05-07T19:35:15Z</time>
      </trkpt>
      <trkpt lat="41.1993060" lon="1.3384660">
        <ele>141.0</ele>
        <time>2021-05-07T19:35:18Z</time>
      </trkpt>
      <trkpt lat="41.1993870" lon="1.3385490">
        <ele>141.8</ele>
        <time>2021-05-07T19:35:23Z</time>
      </trkpt>
      <trkpt lat="41.1994090" lon="1.3385910">
        <ele>142.0</ele>
        <time>2021-05-07T19:35:25Z</time>
      </trkpt>
      <trkpt lat="41.1994570" lon="1.3386780">
        <ele>142.4</ele>
        <time>2021-05-07T19:35:29Z</time>
      </trkpt>
      <trkpt lat="41.1995450" lon="1.3387900">
        <ele>143.0</ele>
        <time>2021-05-07T19:35:35Z</time>
      </trkpt>
      <trkpt lat="41.1996170" lon="1.3388630">
        <ele>143.2</ele>
        <time>2021-05-07T19:35:39Z</time>
      </trkpt>
      <trkpt lat="41.1996770" lon="1.3389350">
        <ele>143.6</ele>
        <time>2021-05-07T19:35:43Z</time>
      </trkpt>
      <trkpt lat="41.1997320" lon="1.3389920">
        <ele>144.2</ele>
        <time>2021-05-07T19:35:47Z</time>
      </trkpt>
      <trkpt lat="41.1997700" lon="1.3390380">
        <ele>144.6</ele>
        <time>2021-05-07T19:35:50Z</time>
      </trkpt>
      <trkpt lat="41.1998210" lon="1.3391180">
        <ele>145.2</ele>
        <time>2021-05-07T19:35:55Z</time>
      </trkpt>
      <trkpt lat="41.1998340" lon="1.3391340">
        <ele>145.4</ele>
        <time>2021-05-07T19:35:56Z</time>
      </trkpt>
      <trkpt lat="41.1998460" lon="1.3391490">
        <ele>145.6</ele>
        <time>2021-05-07T19:35:57Z</time>
      </trkpt>
      <trkpt lat="41.1998660" lon="1.3391810">
        <ele>146.2</ele>
        <time>2021-05-07T19:35:59Z</time>
      </trkpt>
      <trkpt lat="41.1998750" lon="1.3391970">
        <ele>146.4</ele>
        <time>2021-05-07T19:36:00Z</time>
      </trkpt>
      <trkpt lat="41.1998990" lon="1.3392240">
        <ele>146.8</ele>
        <time>2021-05-07T19:36:02Z</time>
      </trkpt>
      <trkpt lat="41.1999460" lon="1.3392700">
        <ele>147.4</ele>
        <time>2021-05-07T19:36:06Z</time>
      </trkpt>
      <trkpt lat="41.1999570" lon="1.3393030">
        <ele>147.4</ele>
        <time>2021-05-07T19:36:08Z</time>
      </trkpt>
      <trkpt lat="41.1999680" lon="1.3393390">
        <ele>147.8</ele>
        <time>2021-05-07T19:36:10Z</time>
      </trkpt>
      <trkpt lat="41.1999920" lon="1.3394270">
        <ele>148.4</ele>
        <time>2021-05-07T19:36:15Z</time>
      </trkpt>
      <trkpt lat="41.2000030" lon="1.3394820">
        <ele>148.6</ele>
        <time>2021-05-07T19:36:18Z</time>
      </trkpt>
      <trkpt lat="41.2000390" lon="1.3395710">
        <ele>149.4</ele>
        <time>2021-05-07T19:36:23Z</time>
      </trkpt>
      <trkpt lat="41.2000720" lon="1.3396460">
        <ele>150.0</ele>
        <time>2021-05-07T19:36:27Z</time>
      </trkpt>
      <trkpt lat="41.2001000" lon="1.3397210">
        <ele>150.4</ele>
        <time>2021-05-07T19:36:31Z</time>
      </trkpt>
      <trkpt lat="41.2001330" lon="1.3398360">
        <ele>151.0</ele>
        <time>2021-05-07T19:36:37Z</time>
      </trkpt>
      <trkpt lat="41.2001380" lon="1.3398510">
        <ele>151.2</ele>
        <time>2021-05-07T19:36:38Z</time>
      </trkpt>
      <trkpt lat="41.2001580" lon="1.3399280">
        <ele>151.2</ele>
        <time>2021-05-07T19:36:42Z</time>
      </trkpt>
      <trkpt lat="41.2001750" lon="1.3399660">
        <ele>151.4</ele>
        <time>2021-05-07T19:36:44Z</time>
      </trkpt>
      <trkpt lat="41.2002090" lon="1.3400550">
        <ele>152.2</ele>
        <time>2021-05-07T19:36:49Z</time>
      </trkpt>
      <trkpt lat="41.2002310" lon="1.3401090">
        <ele>152.2</ele>
        <time>2021-05-07T19:36:52Z</time>
      </trkpt>
      <trkpt lat="41.2002340" lon="1.3401310">
        <ele>152.4</ele>
        <time>2021-05-07T19:36:53Z</time>
      </trkpt>
      <trkpt lat="41.2002620" lon="1.3402140">
        <ele>152.6</ele>
        <time>2021-05-07T19:36:57Z</time>
      </trkpt>
      <trkpt lat="41.2002790" lon="1.3402520">
        <ele>153.2</ele>
        <time>2021-05-07T19:36:59Z</time>
      </trkpt>
      <trkpt lat="41.2003320" lon="1.3404200">
        <ele>154.0</ele>
        <time>2021-05-07T19:37:07Z</time>
      </trkpt>
      <trkpt lat="41.2003410" lon="1.3404390">
        <ele>154.2</ele>
        <time>2021-05-07T19:37:08Z</time>
      </trkpt>
      <trkpt lat="41.2003760" lon="1.3405460">
        <ele>154.8</ele>
        <time>2021-05-07T19:37:13Z</time>
      </trkpt>
      <trkpt lat="41.2004140" lon="1.3407360">
        <ele>155.4</ele>
        <time>2021-05-07T19:37:21Z</time>
      </trkpt>
      <trkpt lat="41.2004240" lon="1.3407820">
        <ele>155.6</ele>
        <time>2021-05-07T19:37:23Z</time>
      </trkpt>
      <trkpt lat="41.2004410" lon="1.3409300">
        <ele>156.2</ele>
        <time>2021-05-07T19:37:29Z</time>
      </trkpt>
      <trkpt lat="41.2004280" lon="1.3411300">
        <ele>156.6</ele>
        <time>2021-05-07T19:37:36Z</time>
      </trkpt>
      <trkpt lat="41.2004130" lon="1.3413690">
        <ele>157.0</ele>
        <time>2021-05-07T19:37:45Z</time>
      </trkpt>
      <trkpt lat="41.2004160" lon="1.3414700">
        <ele>157.6</ele>
        <time>2021-05-07T19:37:49Z</time>
      </trkpt>
      <trkpt lat="41.2004370" lon="1.3415470">
        <ele>157.8</ele>
        <time>2021-05-07T19:37:52Z</time>
      </trkpt>
      <trkpt lat="41.2005160" lon="1.3416860">
        <ele>158.6</ele>
        <time>2021-05-07T19:37:59Z</time>
      </trkpt>
      <trkpt lat="41.2006020" lon="1.3417620">
        <ele>159.8</ele>
        <time>2021-05-07T19:38:05Z</time>
      </trkpt>
      <trkpt lat="41.2006500" lon="1.3417930">
        <ele>160.4</ele>
        <time>2021-05-07T19:38:08Z</time>
      </trkpt>
      <trkpt lat="41.2006970" lon="1.3418170">
        <ele>160.8</ele>
        <time>2021-05-07T19:38:11Z</time>
      </trkpt>
      <trkpt lat="41.2007780" lon="1.3418650">
        <ele>161.8</ele>
        <time>2021-05-07T19:38:16Z</time>
      </trkpt>
      <trkpt lat="41.2007940" lon="1.3418760">
        <ele>162.0</ele>
        <time>2021-05-07T19:38:17Z</time>
      </trkpt>
      <trkpt lat="41.2009260" lon="1.3419510">
        <ele>162.2</ele>
        <time>2021-05-07T19:38:25Z</time>
      </trkpt>
      <trkpt lat="41.2009940" lon="1.3419880">
        <ele>163.2</ele>
        <time>2021-05-07T19:38:29Z</time>
      </trkpt>
      <trkpt lat="41.2010430" lon="1.3420170">
        <ele>163.4</ele>
        <time>2021-05-07T19:38:32Z</time>
      </trkpt>
      <trkpt lat="41.2011840" lon="1.3421010">
        <ele>163.6</ele>
        <time>2021-05-07T19:38:40Z</time>
      </trkpt>
      <trkpt lat="41.2013100" lon="1.3422020">
        <ele>164.2</ele>
        <time>2021-05-07T19:38:47Z</time>
      </trkpt>
      <trkpt lat="41.2013270" lon="1.3422180">
        <ele>164.4</ele>
        <time>2021-05-07T19:38:48Z</time>
      </trkpt>
      <trkpt lat="41.2014720" lon="1.3423850">
        <ele>165.2</ele>
        <time>2021-05-07T19:38:57Z</time>
      </trkpt>
      <trkpt lat="41.2016090" lon="1.3425220">
        <ele>165.2</ele>
        <time>2021-05-07T19:39:05Z</time>
      </trkpt>
      <trkpt lat="41.2016380" lon="1.3425610">
        <ele>165.4</ele>
        <time>2021-05-07T19:39:07Z</time>
      </trkpt>
      <trkpt lat="41.2017450" lon="1.3427070">
        <ele>165.6</ele>
        <time>2021-05-07T19:39:14Z</time>
      </trkpt>
      <trkpt lat="41.2018600" lon="1.3428800">
        <ele>166.2</ele>
        <time>2021-05-07T19:39:21Z</time>
      </trkpt>
      <trkpt lat="41.2018910" lon="1.3429220">
        <ele>166.2</ele>
        <time>2021-05-07T19:39:23Z</time>
      </trkpt>
      <trkpt lat="41.2019680" lon="1.3430390">
        <ele>166.8</ele>
        <time>2021-05-07T19:39:28Z</time>
      </trkpt>
      <trkpt lat="41.2020140" lon="1.3431340">
        <ele>166.8</ele>
        <time>2021-05-07T19:39:32Z</time>
      </trkpt>
      <trkpt lat="41.2020300" lon="1.3431590">
        <ele>166.8</ele>
        <time>2021-05-07T19:39:33Z</time>
      </trkpt>
      <trkpt lat="41.2021000" lon="1.3432670">
        <ele>167.0</ele>
        <time>2021-05-07T19:39:38Z</time>
      </trkpt>
      <trkpt lat="41.2021860" lon="1.3433620">
        <ele>167.2</ele>
        <time>2021-05-07T19:39:43Z</time>
      </trkpt>
      <trkpt lat="41.2022690" lon="1.3434470">
        <ele>167.4</ele>
        <time>2021-05-07T19:39:48Z</time>
      </trkpt>
      <trkpt lat="41.2023690" lon="1.3435160">
        <ele>167.8</ele>
        <time>2021-05-07T19:39:54Z</time>
      </trkpt>
      <trkpt lat="41.2025030" lon="1.3436030">
        <ele>168.2</ele>
        <time>2021-05-07T19:40:02Z</time>
      </trkpt>
      <trkpt lat="41.2025330" lon="1.3436220">
        <ele>168.2</ele>
        <time>2021-05-07T19:40:04Z</time>
      </trkpt>
      <trkpt lat="41.2026090" lon="1.3436640">
        <ele>168.4</ele>
        <time>2021-05-07T19:40:09Z</time>
      </trkpt>
      <trkpt lat="41.2027180" lon="1.3437220">
        <ele>169.4</ele>
        <time>2021-05-07T19:40:16Z</time>
      </trkpt>
      <trkpt lat="41.2027360" lon="1.3437300">
        <ele>169.6</ele>
        <time>2021-05-07T19:40:17Z</time>
      </trkpt>
      <trkpt lat="41.2028090" lon="1.3437720">
        <ele>170.4</ele>
        <time>2021-05-07T19:40:21Z</time>
      </trkpt>
      <trkpt lat="41.2029120" lon="1.3438250">
        <ele>171.0</ele>
        <time>2021-05-07T19:40:27Z</time>
      </trkpt>
      <trkpt lat="41.2029680" lon="1.3438530">
        <ele>171.6</ele>
        <time>2021-05-07T19:40:30Z</time>
      </trkpt>
      <trkpt lat="41.2030580" lon="1.3438920">
        <ele>172.2</ele>
        <time>2021-05-07T19:40:35Z</time>
      </trkpt>
      <trkpt lat="41.2030940" lon="1.3439030">
        <ele>172.6</ele>
        <time>2021-05-07T19:40:37Z</time>
      </trkpt>
      <trkpt lat="41.2031920" lon="1.3439040">
        <ele>173.8</ele>
        <time>2021-05-07T19:40:42Z</time>
      </trkpt>
      <trkpt lat="41.2032120" lon="1.3439080">
        <ele>173.8</ele>
        <time>2021-05-07T19:40:43Z</time>
      </trkpt>
      <trkpt lat="41.2032700" lon="1.3439220">
        <ele>174.0</ele>
        <time>2021-05-07T19:40:46Z</time>
      </trkpt>
      <trkpt lat="41.2034120" lon="1.3439620">
        <ele>174.2</ele>
        <time>2021-05-07T19:40:53Z</time>
      </trkpt>
      <trkpt lat="41.2035380" lon="1.3440030">
        <ele>174.8</ele>
        <time>2021-05-07T19:40:59Z</time>
      </trkpt>
      <trkpt lat="41.2035880" lon="1.3440280">
        <ele>175.0</ele>
        <time>2021-05-07T19:41:02Z</time>
      </trkpt>
      <trkpt lat="41.2036900" lon="1.3440670">
        <ele>175.6</ele>
        <time>2021-05-07T19:41:09Z</time>
      </trkpt>
      <trkpt lat="41.2037180" lon="1.3440780">
        <ele>175.8</ele>
        <time>2021-05-07T19:41:11Z</time>
      </trkpt>
      <trkpt lat="41.2038210" lon="1.3441050">
        <ele>176.0</ele>
        <time>2021-05-07T19:41:18Z</time>
      </trkpt>
      <trkpt lat="41.2038960" lon="1.3441160">
        <ele>176.6</ele>
        <time>2021-05-07T19:41:24Z</time>
      </trkpt>
      <trkpt lat="41.2040230" lon="1.3441530">
        <ele>176.8</ele>
        <time>2021-05-07T19:41:31Z</time>
      </trkpt>
      <trkpt lat="41.2040630" lon="1.3441590">
        <ele>176.8</ele>
        <time>2021-05-07T19:41:33Z</time>
      </trkpt>
      <trkpt lat="41.2042000" lon="1.3441520">
        <ele>177.4</ele>
        <time>2021-05-07T19:41:40Z</time>
      </trkpt>
      <trkpt lat="41.2042980" lon="1.3441430">
        <ele>177.8</ele>
        <time>2021-05-07T19:41:45Z</time>
      </trkpt>
      <trkpt lat="41.2044320" lon="1.3441230">
        <ele>178.4</ele>
        <time>2021-05-07T19:41:52Z</time>
      </trkpt>
      <trkpt lat="41.2045090" lon="1.3441120">
        <ele>178.8</ele>
        <time>2021-05-07T19:41:56Z</time>
      </trkpt>
      <trkpt lat="41.2045870" lon="1.3440920">
        <ele>178.6</ele>
        <time>2021-05-07T19:42:00Z</time>
      </trkpt>
      <trkpt lat="41.2046960" lon="1.3440820">
        <ele>179.2</ele>
        <time>2021-05-07T19:42:06Z</time>
      </trkpt>
      <trkpt lat="41.2047990" lon="1.3441110">
        <ele>179.4</ele>
        <time>2021-05-07T19:42:12Z</time>
      </trkpt>
      <trkpt lat="41.2049230" lon="1.3441370">
        <ele>179.8</ele>
        <time>2021-05-07T19:42:19Z</time>
      </trkpt>
      <trkpt lat="41.2049390" lon="1.3441420">
        <ele>179.8</ele>
        <time>2021-05-07T19:42:20Z</time>
      </trkpt>
      <trkpt lat="41.2050770" lon="1.3441930">
        <ele>180.0</ele>
        <time>2021-05-07T19:42:29Z</time>
      </trkpt>
      <trkpt lat="41.2051850" lon="1.3442500">
        <ele>180.8</ele>
        <time>2021-05-07T19:42:36Z</time>
      </trkpt>
      <trkpt lat="41.2052000" lon="1.3442590">
        <ele>180.8</ele>
        <time>2021-05-07T19:42:37Z</time>
      </trkpt>
      <trkpt lat="41.2053000" lon="1.3443240">
        <ele>181.8</ele>
        <time>2021-05-07T19:42:44Z</time>
      </trkpt>
      <trkpt lat="41.2053380" lon="1.3443600">
        <ele>182.0</ele>
        <time>2021-05-07T19:42:47Z</time>
      </trkpt>
      <trkpt lat="41.2054260" lon="1.3444350">
        <ele>183.0</ele>
        <time>2021-05-07T19:42:54Z</time>
      </trkpt>
      <trkpt lat="41.2055280" lon="1.3445380">
        <ele>184.2</ele>
        <time>2021-05-07T19:43:02Z</time>
      </trkpt>
      <trkpt lat="41.2056140" lon="1.3446340">
        <ele>185.0</ele>
        <time>2021-05-07T19:43:10Z</time>
      </trkpt>
      <trkpt lat="41.2056240" lon="1.3446480">
        <ele>185.2</ele>
        <time>2021-05-07T19:43:11Z</time>
      </trkpt>
      <trkpt lat="41.2056890" lon="1.3447160">
        <ele>185.8</ele>
        <time>2021-05-07T19:43:17Z</time>
      </trkpt>
      <trkpt lat="41.2057260" lon="1.3447500">
        <ele>186.2</ele>
        <time>2021-05-07T19:43:20Z</time>
      </trkpt>
      <trkpt lat="41.2057890" lon="1.3448090">
        <ele>186.8</ele>
        <time>2021-05-07T19:43:25Z</time>
      </trkpt>
      <trkpt lat="41.2058440" lon="1.3448500">
        <ele>187.2</ele>
        <time>2021-05-07T19:43:29Z</time>
      </trkpt>
      <trkpt lat="41.2059370" lon="1.3449130">
        <ele>188.0</ele>
        <time>2021-05-07T19:43:36Z</time>
      </trkpt>
      <trkpt lat="41.2059660" lon="1.3449250">
        <ele>188.4</ele>
        <time>2021-05-07T19:43:38Z</time>
      </trkpt>
      <trkpt lat="41.2060210" lon="1.3449570">
        <ele>188.6</ele>
        <time>2021-05-07T19:43:42Z</time>
      </trkpt>
      <trkpt lat="41.2061080" lon="1.3450070">
        <ele>189.4</ele>
        <time>2021-05-07T19:43:49Z</time>
      </trkpt>
      <trkpt lat="41.2061400" lon="1.3450230">
        <ele>189.8</ele>
        <time>2021-05-07T19:43:52Z</time>
      </trkpt>
      <trkpt lat="41.2062570" lon="1.3450730">
        <ele>190.2</ele>
        <time>2021-05-07T19:44:00Z</time>
      </trkpt>
      <trkpt lat="41.2063100" lon="1.3451050">
        <ele>190.4</ele>
        <time>2021-05-07T19:44:04Z</time>
      </trkpt>
      <trkpt lat="41.2063470" lon="1.3451280">
        <ele>191.0</ele>
        <time>2021-05-07T19:44:07Z</time>
      </trkpt>
      <trkpt lat="41.2063880" lon="1.3451550">
        <ele>191.4</ele>
        <time>2021-05-07T19:44:10Z</time>
      </trkpt>
      <trkpt lat="41.2064610" lon="1.3451970">
        <ele>192.0</ele>
        <time>2021-05-07T19:44:15Z</time>
      </trkpt>
      <trkpt lat="41.2065300" lon="1.3452280">
        <ele>192.6</ele>
        <time>2021-05-07T19:44:20Z</time>
      </trkpt>
      <trkpt lat="41.2065430" lon="1.3452360">
        <ele>192.6</ele>
        <time>2021-05-07T19:44:21Z</time>
      </trkpt>
      <trkpt lat="41.2066510" lon="1.3453620">
        <ele>193.6</ele>
        <time>2021-05-07T19:44:30Z</time>
      </trkpt>
      <trkpt lat="41.2067320" lon="1.3455080">
        <ele>194.6</ele>
        <time>2021-05-07T19:44:38Z</time>
      </trkpt>
      <trkpt lat="41.2067410" lon="1.3455280">
        <ele>194.8</ele>
        <time>2021-05-07T19:44:39Z</time>
      </trkpt>
      <trkpt lat="41.2067910" lon="1.3456800">
        <ele>195.4</ele>
        <time>2021-05-07T19:44:46Z</time>
      </trkpt>
      <trkpt lat="41.2068290" lon="1.3458180">
        <ele>195.4</ele>
        <time>2021-05-07T19:44:52Z</time>
      </trkpt>
      <trkpt lat="41.2068360" lon="1.3458420">
        <ele>195.6</ele>
        <time>2021-05-07T19:44:53Z</time>
      </trkpt>
      <trkpt lat="41.2068980" lon="1.3459850">
        <ele>196.0</ele>
        <time>2021-05-07T19:44:59Z</time>
      </trkpt>
      <trkpt lat="41.2070150" lon="1.3461950">
        <ele>196.2</ele>
        <time>2021-05-07T19:45:09Z</time>
      </trkpt>
      <trkpt lat="41.2070840" lon="1.3462930">
        <ele>196.6</ele>
        <time>2021-05-07T19:45:14Z</time>
      </trkpt>
      <trkpt lat="41.2071120" lon="1.3463320">
        <ele>196.6</ele>
        <time>2021-05-07T19:45:16Z</time>
      </trkpt>
      <trkpt lat="41.2072270" lon="1.3465060">
        <ele>196.4</ele>
        <time>2021-05-07T19:45:23Z</time>
      </trkpt>
      <trkpt lat="41.2073430" lon="1.3467080">
        <ele>196.4</ele>
        <time>2021-05-07T19:45:30Z</time>
      </trkpt>
      <trkpt lat="41.2074330" lon="1.3468950">
        <ele>196.6</ele>
        <time>2021-05-07T19:45:37Z</time>
      </trkpt>
      <trkpt lat="41.2075750" lon="1.3471650">
        <ele>196.8</ele>
        <time>2021-05-07T19:45:47Z</time>
      </trkpt>
      <trkpt lat="41.2076920" lon="1.3473860">
        <ele>197.4</ele>
        <time>2021-05-07T19:45:55Z</time>
      </trkpt>
      <trkpt lat="41.2077310" lon="1.3474550">
        <ele>197.6</ele>
        <time>2021-05-07T19:45:58Z</time>
      </trkpt>
      <trkpt lat="41.2077790" lon="1.3475480">
        <ele>197.8</ele>
        <time>2021-05-07T19:46:01Z</time>
      </trkpt>
      <trkpt lat="41.2078360" lon="1.3477720">
        <ele>197.8</ele>
        <time>2021-05-07T19:46:08Z</time>
      </trkpt>
      <trkpt lat="41.2078640" lon="1.3479780">
        <ele>198.0</ele>
        <time>2021-05-07T19:46:15Z</time>
      </trkpt>
      <trkpt lat="41.2078790" lon="1.3481200">
        <ele>198.6</ele>
        <time>2021-05-07T19:46:21Z</time>
      </trkpt>
      <trkpt lat="41.2079000" lon="1.3483200">
        <ele>198.8</ele>
        <time>2021-05-07T19:46:29Z</time>
      </trkpt>
      <trkpt lat="41.2079130" lon="1.3484540">
        <ele>198.8</ele>
        <time>2021-05-07T19:46:36Z</time>
      </trkpt>
      <trkpt lat="41.2079370" lon="1.3486240">
        <ele>199.4</ele>
        <time>2021-05-07T19:46:45Z</time>
      </trkpt>
      <trkpt lat="41.2079400" lon="1.3486470">
        <ele>199.6</ele>
        <time>2021-05-07T19:46:46Z</time>
      </trkpt>
      <trkpt lat="41.2079730" lon="1.3488060">
        <ele>200.2</ele>
        <time>2021-05-07T19:46:52Z</time>
      </trkpt>
      <trkpt lat="41.2080120" lon="1.3489630">
        <ele>200.6</ele>
        <time>2021-05-07T19:46:58Z</time>
      </trkpt>
      <trkpt lat="41.2080460" lon="1.3490370">
        <ele>200.6</ele>
        <time>2021-05-07T19:47:01Z</time>
      </trkpt>
      <trkpt lat="41.2081430" lon="1.3492440">
        <ele>201.0</ele>
        <time>2021-05-07T19:47:09Z</time>
      </trkpt>
      <trkpt lat="41.2082780" lon="1.3494510">
        <ele>201.6</ele>
        <time>2021-05-07T19:47:17Z</time>
      </trkpt>
      <trkpt lat="41.2084460" lon="1.3496940">
        <ele>201.2</ele>
        <time>2021-05-07T19:47:25Z</time>
      </trkpt>
      <trkpt lat="41.2085400" lon="1.3498730">
        <ele>200.6</ele>
        <time>2021-05-07T19:47:29Z</time>
      </trkpt>
      <trkpt lat="41.2085860" lon="1.3499800">
        <ele>200.4</ele>
        <time>2021-05-07T19:47:31Z</time>
      </trkpt>
      <trkpt lat="41.2086990" lon="1.3502440">
        <ele>199.4</ele>
        <time>2021-05-07T19:47:36Z</time>
      </trkpt>
      <trkpt lat="41.2088360" lon="1.3504900">
        <ele>198.6</ele>
        <time>2021-05-07T19:47:41Z</time>
      </trkpt>
      <trkpt lat="41.2090410" lon="1.3506740">
        <ele>198.8</ele>
        <time>2021-05-07T19:47:47Z</time>
      </trkpt>
      <trkpt lat="41.2092530" lon="1.3507640">
        <ele>198.8</ele>
        <time>2021-05-07T19:47:54Z</time>
      </trkpt>
      <trkpt lat="41.2094710" lon="1.3508250">
        <ele>199.6</ele>
        <time>2021-05-07T19:48:02Z</time>
      </trkpt>
      <trkpt lat="41.2097310" lon="1.3509230">
        <ele>199.8</ele>
        <time>2021-05-07T19:48:11Z</time>
      </trkpt>
      <trkpt lat="41.2099290" lon="1.3509440">
        <ele>199.6</ele>
        <time>2021-05-07T19:48:17Z</time>
      </trkpt>
      <trkpt lat="41.2101140" lon="1.3508520">
        <ele>199.2</ele>
        <time>2021-05-07T19:48:23Z</time>
      </trkpt>
      <trkpt lat="41.2103430" lon="1.3507030">
        <ele>199.4</ele>
        <time>2021-05-07T19:48:31Z</time>
      </trkpt>
      <trkpt lat="41.2105160" lon="1.3505400">
        <ele>199.8</ele>
        <time>2021-05-07T19:48:39Z</time>
      </trkpt>
      <trkpt lat="41.2106030" lon="1.3502920">
        <ele>199.4</ele>
        <time>2021-05-07T19:48:46Z</time>
      </trkpt>
      <trkpt lat="41.2106680" lon="1.3501170">
        <ele>199.8</ele>
        <time>2021-05-07T19:48:51Z</time>
      </trkpt>
      <trkpt lat="41.2108170" lon="1.3499310">
        <ele>199.8</ele>
        <time>2021-05-07T19:48:57Z</time>
      </trkpt>
      <trkpt lat="41.2109520" lon="1.3498830">
        <ele>199.2</ele>
        <time>2021-05-07T19:49:02Z</time>
      </trkpt>
      <trkpt lat="41.2110750" lon="1.3499050">
        <ele>198.2</ele>
        <time>2021-05-07T19:49:06Z</time>
      </trkpt>
      <trkpt lat="41.2111100" lon="1.3499260">
        <ele>198.0</ele>
        <time>2021-05-07T19:49:07Z</time>
      </trkpt>
      <trkpt lat="41.2111450" lon="1.3499550">
        <ele>197.8</ele>
        <time>2021-05-07T19:49:08Z</time>
      </trkpt>
      <trkpt lat="41.2111970" lon="1.3500370">
        <ele>197.0</ele>
        <time>2021-05-07T19:49:10Z</time>
      </trkpt>
      <trkpt lat="41.2112150" lon="1.3500790">
        <ele>196.6</ele>
        <time>2021-05-07T19:49:11Z</time>
      </trkpt>
      <trkpt lat="41.2112690" lon="1.3501680">
        <ele>196.0</ele>
        <time>2021-05-07T19:49:13Z</time>
      </trkpt>
      <trkpt lat="41.2112970" lon="1.3502100">
        <ele>195.2</ele>
        <time>2021-05-07T19:49:14Z</time>
      </trkpt>
      <trkpt lat="41.2113260" lon="1.3502570">
        <ele>194.4</ele>
        <time>2021-05-07T19:49:15Z</time>
      </trkpt>
      <trkpt lat="41.2113560" lon="1.3503030">
        <ele>194.0</ele>
        <time>2021-05-07T19:49:16Z</time>
      </trkpt>
      <trkpt lat="41.2114160" lon="1.3504010">
        <ele>193.4</ele>
        <time>2021-05-07T19:49:18Z</time>
      </trkpt>
      <trkpt lat="41.2115050" lon="1.3505680">
        <ele>193.0</ele>
        <time>2021-05-07T19:49:21Z</time>
      </trkpt>
      <trkpt lat="41.2115850" lon="1.3507340">
        <ele>192.2</ele>
        <time>2021-05-07T19:49:24Z</time>
      </trkpt>
      <trkpt lat="41.2116500" lon="1.3509040">
        <ele>192.0</ele>
        <time>2021-05-07T19:49:27Z</time>
      </trkpt>
      <trkpt lat="41.2117070" lon="1.3512200">
        <ele>192.0</ele>
        <time>2021-05-07T19:49:33Z</time>
      </trkpt>
      <trkpt lat="41.2117330" lon="1.3515640">
        <ele>191.4</ele>
        <time>2021-05-07T19:49:41Z</time>
      </trkpt>
      <trkpt lat="41.2117360" lon="1.3516030">
        <ele>191.0</ele>
        <time>2021-05-07T19:49:42Z</time>
      </trkpt>
      <trkpt lat="41.2117640" lon="1.3517980">
        <ele>189.6</ele>
        <time>2021-05-07T19:49:47Z</time>
      </trkpt>
      <trkpt lat="41.2118040" lon="1.3519980">
        <ele>189.0</ele>
        <time>2021-05-07T19:49:52Z</time>
      </trkpt>
      <trkpt lat="41.2118550" lon="1.3521450">
        <ele>188.2</ele>
        <time>2021-05-07T19:49:56Z</time>
      </trkpt>
      <trkpt lat="41.2118890" lon="1.3522090">
        <ele>187.6</ele>
        <time>2021-05-07T19:49:58Z</time>
      </trkpt>
      <trkpt lat="41.2119630" lon="1.3523010">
        <ele>187.2</ele>
        <time>2021-05-07T19:50:02Z</time>
      </trkpt>
      <trkpt lat="41.2120010" lon="1.3523360">
        <ele>186.8</ele>
        <time>2021-05-07T19:50:04Z</time>
      </trkpt>
      <trkpt lat="41.2121690" lon="1.3524430">
        <ele>186.2</ele>
        <time>2021-05-07T19:50:12Z</time>
      </trkpt>
      <trkpt lat="41.2122490" lon="1.3524780">
        <ele>186.0</ele>
        <time>2021-05-07T19:50:15Z</time>
      </trkpt>
      <trkpt lat="41.2123500" lon="1.3525600">
        <ele>185.8</ele>
        <time>2021-05-07T19:50:19Z</time>
      </trkpt>
      <trkpt lat="41.2124540" lon="1.3527480">
        <ele>186.0</ele>
        <time>2021-05-07T19:50:26Z</time>
      </trkpt>
      <trkpt lat="41.2124450" lon="1.3529390">
        <ele>185.6</ele>
        <time>2021-05-07T19:50:32Z</time>
      </trkpt>
      <trkpt lat="41.2123780" lon="1.3530950">
        <ele>186.2</ele>
        <time>2021-05-07T19:50:39Z</time>
      </trkpt>
      <trkpt lat="41.2123570" lon="1.3531400">
        <ele>186.6</ele>
        <time>2021-05-07T19:50:45Z</time>
      </trkpt>
      <trkpt lat="41.2123460" lon="1.3532500">
        <ele>186.8</ele>
        <time>2021-05-07T19:54:20Z</time>
      </trkpt>
      <trkpt lat="41.2123560" lon="1.3533020">
        <ele>187.0</ele>
        <time>2021-05-07T19:54:23Z</time>
      </trkpt>
      <trkpt lat="41.2124360" lon="1.3533680">
        <ele>187.8</ele>
        <time>2021-05-07T19:54:30Z</time>
      </trkpt>
      <trkpt lat="41.2124500" lon="1.3533680">
        <ele>187.8</ele>
        <time>2021-05-07T19:54:31Z</time>
      </trkpt>
      <trkpt lat="41.2125190" lon="1.3533280">
        <ele>188.0</ele>
        <time>2021-05-07T19:54:36Z</time>
      </trkpt>
      <trkpt lat="41.2126420" lon="1.3532440">
        <ele>188.4</ele>
        <time>2021-05-07T19:54:45Z</time>
      </trkpt>
      <trkpt lat="41.2127700" lon="1.3531840">
        <ele>189.0</ele>
        <time>2021-05-07T19:54:54Z</time>
      </trkpt>
      <trkpt lat="41.2128900" lon="1.3531810">
        <ele>190.2</ele>
        <time>2021-05-07T19:55:02Z</time>
      </trkpt>
      <trkpt lat="41.2129340" lon="1.3531840">
        <ele>190.6</ele>
        <time>2021-05-07T19:55:05Z</time>
      </trkpt>
      <trkpt lat="41.2130020" lon="1.3531940">
        <ele>191.2</ele>
        <time>2021-05-07T19:55:10Z</time>
      </trkpt>
      <trkpt lat="41.2130580" lon="1.3532000">
        <ele>191.8</ele>
        <time>2021-05-07T19:55:14Z</time>
      </trkpt>
      <trkpt lat="41.2131640" lon="1.3532080">
        <ele>192.4</ele>
        <time>2021-05-07T19:55:22Z</time>
      </trkpt>
      <trkpt lat="41.2132030" lon="1.3532090">
        <ele>192.8</ele>
        <time>2021-05-07T19:55:25Z</time>
      </trkpt>
      <trkpt lat="41.2132530" lon="1.3532160">
        <ele>193.6</ele>
        <time>2021-05-07T19:55:29Z</time>
      </trkpt>
      <trkpt lat="41.2132890" lon="1.3532230">
        <ele>194.4</ele>
        <time>2021-05-07T19:55:32Z</time>
      </trkpt>
      <trkpt lat="41.2133130" lon="1.3532250">
        <ele>194.6</ele>
        <time>2021-05-07T19:55:34Z</time>
      </trkpt>
      <trkpt lat="41.2134040" lon="1.3532250">
        <ele>195.6</ele>
        <time>2021-05-07T19:55:41Z</time>
      </trkpt>
      <trkpt lat="41.2134170" lon="1.3532280">
        <ele>195.8</ele>
        <time>2021-05-07T19:55:42Z</time>
      </trkpt>
      <trkpt lat="41.2135010" lon="1.3532340">
        <ele>196.8</ele>
        <time>2021-05-07T19:55:49Z</time>
      </trkpt>
      <trkpt lat="41.2135130" lon="1.3532340">
        <ele>197.0</ele>
        <time>2021-05-07T19:55:50Z</time>
      </trkpt>
      <trkpt lat="41.2135840" lon="1.3532290">
        <ele>198.0</ele>
        <time>2021-05-07T19:55:56Z</time>
      </trkpt>
      <trkpt lat="41.2135950" lon="1.3532270">
        <ele>198.0</ele>
        <time>2021-05-07T19:55:57Z</time>
      </trkpt>
      <trkpt lat="41.2136620" lon="1.3532000">
        <ele>199.0</ele>
        <time>2021-05-07T19:56:03Z</time>
      </trkpt>
      <trkpt lat="41.2136950" lon="1.3531780">
        <ele>199.2</ele>
        <time>2021-05-07T19:56:06Z</time>
      </trkpt>
      <trkpt lat="41.2137150" lon="1.3531610">
        <ele>199.4</ele>
        <time>2021-05-07T19:56:08Z</time>
      </trkpt>
      <trkpt lat="41.2137390" lon="1.3531570">
        <ele>199.8</ele>
        <time>2021-05-07T19:56:10Z</time>
      </trkpt>
      <trkpt lat="41.2137510" lon="1.3531570">
        <ele>200.0</ele>
        <time>2021-05-07T19:56:11Z</time>
      </trkpt>
      <trkpt lat="41.2137870" lon="1.3531470">
        <ele>200.6</ele>
        <time>2021-05-07T19:56:14Z</time>
      </trkpt>
      <trkpt lat="41.2138480" lon="1.3531490">
        <ele>201.2</ele>
        <time>2021-05-07T19:56:19Z</time>
      </trkpt>
      <trkpt lat="41.2139080" lon="1.3531540">
        <ele>201.4</ele>
        <time>2021-05-07T19:56:24Z</time>
      </trkpt>
      <trkpt lat="41.2139570" lon="1.3531680">
        <ele>202.2</ele>
        <time>2021-05-07T19:56:28Z</time>
      </trkpt>
      <trkpt lat="41.2140010" lon="1.3531930">
        <ele>202.6</ele>
        <time>2021-05-07T19:56:32Z</time>
      </trkpt>
      <trkpt lat="41.2140350" lon="1.3531950">
        <ele>203.0</ele>
        <time>2021-05-07T19:56:35Z</time>
      </trkpt>
      <trkpt lat="41.2140730" lon="1.3532000">
        <ele>203.4</ele>
        <time>2021-05-07T19:56:38Z</time>
      </trkpt>
      <trkpt lat="41.2141560" lon="1.3532000">
        <ele>204.6</ele>
        <time>2021-05-07T19:56:45Z</time>
      </trkpt>
      <trkpt lat="41.2141680" lon="1.3531990">
        <ele>204.8</ele>
        <time>2021-05-07T19:56:46Z</time>
      </trkpt>
      <trkpt lat="41.2142560" lon="1.3532010">
        <ele>204.8</ele>
        <time>2021-05-07T19:56:53Z</time>
      </trkpt>
      <trkpt lat="41.2143810" lon="1.3531890">
        <ele>205.6</ele>
        <time>2021-05-07T19:57:03Z</time>
      </trkpt>
      <trkpt lat="41.2144560" lon="1.3531810">
        <ele>206.6</ele>
        <time>2021-05-07T19:57:10Z</time>
      </trkpt>
      <trkpt lat="41.2144620" lon="1.3531800">
        <ele>206.8</ele>
        <time>2021-05-07T19:57:11Z</time>
      </trkpt>
      <trkpt lat="41.2144520" lon="1.3531810">
        <ele>207.0</ele>
        <time>2021-05-07T19:57:16Z</time>
      </trkpt>
      <trkpt lat="41.2144940" lon="1.3531720">
        <ele>207.0</ele>
        <time>2021-05-07T19:58:03Z</time>
      </trkpt>
      <trkpt lat="41.2145390" lon="1.3531650">
        <ele>207.0</ele>
        <time>2021-05-07T19:58:06Z</time>
      </trkpt>
      <trkpt lat="41.2146450" lon="1.3531070">
        <ele>206.6</ele>
        <time>2021-05-07T19:58:12Z</time>
      </trkpt>
      <trkpt lat="41.2148250" lon="1.3530230">
        <ele>205.8</ele>
        <time>2021-05-07T19:58:19Z</time>
      </trkpt>
      <trkpt lat="41.2149750" lon="1.3529560">
        <ele>205.4</ele>
        <time>2021-05-07T19:58:23Z</time>
      </trkpt>
      <trkpt lat="41.2150540" lon="1.3529450">
        <ele>205.0</ele>
        <time>2021-05-07T19:58:25Z</time>
      </trkpt>
      <trkpt lat="41.2152180" lon="1.3530000">
        <ele>205.0</ele>
        <time>2021-05-07T19:58:30Z</time>
      </trkpt>
      <trkpt lat="41.2152970" lon="1.3530670">
        <ele>204.8</ele>
        <time>2021-05-07T19:58:34Z</time>
      </trkpt>
      <trkpt lat="41.2154600" lon="1.3531740">
        <ele>205.0</ele>
        <time>2021-05-07T19:58:42Z</time>
      </trkpt>
      <trkpt lat="41.2155660" lon="1.3532810">
        <ele>205.4</ele>
        <time>2021-05-07T19:58:47Z</time>
      </trkpt>
      <trkpt lat="41.2156820" lon="1.3534140">
        <ele>204.4</ele>
        <time>2021-05-07T19:58:54Z</time>
      </trkpt>
      <trkpt lat="41.2156990" lon="1.3534240">
        <ele>204.0</ele>
        <time>2021-05-07T19:58:55Z</time>
      </trkpt>
      <trkpt lat="41.2157910" lon="1.3534590">
        <ele>203.4</ele>
        <time>2021-05-07T19:58:59Z</time>
      </trkpt>
      <trkpt lat="41.2158250" lon="1.3534640">
        <ele>202.8</ele>
        <time>2021-05-07T19:59:00Z</time>
      </trkpt>
      <trkpt lat="41.2160000" lon="1.3535170">
        <ele>202.4</ele>
        <time>2021-05-07T19:59:05Z</time>
      </trkpt>
      <trkpt lat="41.2162530" lon="1.3535890">
        <ele>202.6</ele>
        <time>2021-05-07T19:59:12Z</time>
      </trkpt>
      <trkpt lat="41.2164210" lon="1.3536160">
        <ele>203.2</ele>
        <time>2021-05-07T19:59:17Z</time>
      </trkpt>
      <trkpt lat="41.2165560" lon="1.3536340">
        <ele>201.6</ele>
        <time>2021-05-07T19:59:23Z</time>
      </trkpt>
      <trkpt lat="41.2166590" lon="1.3535480">
        <ele>200.8</ele>
        <time>2021-05-07T19:59:28Z</time>
      </trkpt>
      <trkpt lat="41.2167440" lon="1.3534870">
        <ele>200.4</ele>
        <time>2021-05-07T19:59:32Z</time>
      </trkpt>
      <trkpt lat="41.2167850" lon="1.3534510">
        <ele>199.2</ele>
        <time>2021-05-07T19:59:34Z</time>
      </trkpt>
      <trkpt lat="41.2168360" lon="1.3534270">
        <ele>198.2</ele>
        <time>2021-05-07T19:59:36Z</time>
      </trkpt>
      <trkpt lat="41.2169100" lon="1.3534150">
        <ele>197.4</ele>
        <time>2021-05-07T19:59:39Z</time>
      </trkpt>
      <trkpt lat="41.2169410" lon="1.3534100">
        <ele>197.0</ele>
        <time>2021-05-07T19:59:40Z</time>
      </trkpt>
      <trkpt lat="41.2170070" lon="1.3534070">
        <ele>196.0</ele>
        <time>2021-05-07T19:59:42Z</time>
      </trkpt>
      <trkpt lat="41.2170410" lon="1.3534060">
        <ele>195.6</ele>
        <time>2021-05-07T19:59:43Z</time>
      </trkpt>
      <trkpt lat="41.2172020" lon="1.3534010">
        <ele>195.4</ele>
        <time>2021-05-07T19:59:48Z</time>
      </trkpt>
      <trkpt lat="41.2174140" lon="1.3534860">
        <ele>195.2</ele>
        <time>2021-05-07T19:59:55Z</time>
      </trkpt>
      <trkpt lat="41.2176490" lon="1.3536960">
        <ele>195.0</ele>
        <time>2021-05-07T20:00:02Z</time>
      </trkpt>
      <trkpt lat="41.2176810" lon="1.3537270">
        <ele>194.8</ele>
        <time>2021-05-07T20:00:03Z</time>
      </trkpt>
      <trkpt lat="41.2177870" lon="1.3538580">
        <ele>194.4</ele>
        <time>2021-05-07T20:00:07Z</time>
      </trkpt>
      <trkpt lat="41.2178480" lon="1.3539120">
        <ele>194.2</ele>
        <time>2021-05-07T20:00:10Z</time>
      </trkpt>
      <trkpt lat="41.2178650" lon="1.3539080">
        <ele>194.2</ele>
        <time>2021-05-07T20:00:11Z</time>
      </trkpt>
      <trkpt lat="41.2179250" lon="1.3539380">
        <ele>193.8</ele>
        <time>2021-05-07T20:00:14Z</time>
      </trkpt>
      <trkpt lat="41.2179730" lon="1.3540090">
        <ele>193.8</ele>
        <time>2021-05-07T20:00:17Z</time>
      </trkpt>
      <trkpt lat="41.2179900" lon="1.3540320">
        <ele>193.8</ele>
        <time>2021-05-07T20:00:18Z</time>
      </trkpt>
      <trkpt lat="41.2180610" lon="1.3541200">
        <ele>193.8</ele>
        <time>2021-05-07T20:00:22Z</time>
      </trkpt>
      <trkpt lat="41.2181360" lon="1.3542320">
        <ele>194.2</ele>
        <time>2021-05-07T20:00:27Z</time>
      </trkpt>
      <trkpt lat="41.2181450" lon="1.3542520">
        <ele>194.4</ele>
        <time>2021-05-07T20:00:28Z</time>
      </trkpt>
      <trkpt lat="41.2181870" lon="1.3543100">
        <ele>194.0</ele>
        <time>2021-05-07T20:00:32Z</time>
      </trkpt>
      <trkpt lat="41.2182010" lon="1.3543380">
        <ele>194.2</ele>
        <time>2021-05-07T20:00:34Z</time>
      </trkpt>
      <trkpt lat="41.2181830" lon="1.3543670">
        <ele>194.8</ele>
        <time>2021-05-07T20:00:36Z</time>
      </trkpt>
      <trkpt lat="41.2181760" lon="1.3543800">
        <ele>195.0</ele>
        <time>2021-05-07T20:00:37Z</time>
      </trkpt>
      <trkpt lat="41.2181700" lon="1.3544020">
        <ele>195.0</ele>
        <time>2021-05-07T20:00:38Z</time>
      </trkpt>
      <trkpt lat="41.2181660" lon="1.3544250">
        <ele>195.0</ele>
        <time>2021-05-07T20:00:39Z</time>
      </trkpt>
      <trkpt lat="41.2181650" lon="1.3544370">
        <ele>194.8</ele>
        <time>2021-05-07T20:00:41Z</time>
      </trkpt>
      <trkpt lat="41.2182340" lon="1.3545280">
        <ele>194.4</ele>
        <time>2021-05-07T20:01:37Z</time>
      </trkpt>
      <trkpt lat="41.2182470" lon="1.3545410">
        <ele>194.4</ele>
        <time>2021-05-07T20:01:38Z</time>
      </trkpt>
      <trkpt lat="41.2182600" lon="1.3545540">
        <ele>194.4</ele>
        <time>2021-05-07T20:01:39Z</time>
      </trkpt>
      <trkpt lat="41.2183630" lon="1.3546940">
        <ele>194.6</ele>
        <time>2021-05-07T20:01:46Z</time>
      </trkpt>
      <trkpt lat="41.2184560" lon="1.3547950">
        <ele>195.4</ele>
        <time>2021-05-07T20:01:52Z</time>
      </trkpt>
      <trkpt lat="41.2184690" lon="1.3548090">
        <ele>195.4</ele>
        <time>2021-05-07T20:01:53Z</time>
      </trkpt>
      <trkpt lat="41.2185680" lon="1.3549190">
        <ele>195.4</ele>
        <time>2021-05-07T20:02:01Z</time>
      </trkpt>
      <trkpt lat="41.2186410" lon="1.3550260">
        <ele>195.4</ele>
        <time>2021-05-07T20:02:08Z</time>
      </trkpt>
      <trkpt lat="41.2187020" lon="1.3551410">
        <ele>195.4</ele>
        <time>2021-05-07T20:02:14Z</time>
      </trkpt>
      <trkpt lat="41.2187620" lon="1.3552720">
        <ele>195.4</ele>
        <time>2021-05-07T20:02:19Z</time>
      </trkpt>
      <trkpt lat="41.2188650" lon="1.3554400">
        <ele>194.4</ele>
        <time>2021-05-07T20:02:25Z</time>
      </trkpt>
      <trkpt lat="41.2189390" lon="1.3555950">
        <ele>195.2</ele>
        <time>2021-05-07T20:02:30Z</time>
      </trkpt>
      <trkpt lat="41.2190310" lon="1.3557690">
        <ele>194.2</ele>
        <time>2021-05-07T20:02:36Z</time>
      </trkpt>
      <trkpt lat="41.2190630" lon="1.3558290">
        <ele>193.8</ele>
        <time>2021-05-07T20:02:38Z</time>
      </trkpt>
      <trkpt lat="41.2191120" lon="1.3558760">
        <ele>194.0</ele>
        <time>2021-05-07T20:02:40Z</time>
      </trkpt>
      <trkpt lat="41.2192400" lon="1.3559980">
        <ele>194.4</ele>
        <time>2021-05-07T20:02:46Z</time>
      </trkpt>
      <trkpt lat="41.2193220" lon="1.3560610">
        <ele>194.4</ele>
        <time>2021-05-07T20:02:52Z</time>
      </trkpt>
      <trkpt lat="41.2194090" lon="1.3561200">
        <ele>195.6</ele>
        <time>2021-05-07T20:02:59Z</time>
      </trkpt>
      <trkpt lat="41.2194940" lon="1.3561660">
        <ele>196.2</ele>
        <time>2021-05-07T20:03:06Z</time>
      </trkpt>
      <trkpt lat="41.2195350" lon="1.3561900">
        <ele>196.6</ele>
        <time>2021-05-07T20:03:09Z</time>
      </trkpt>
      <trkpt lat="41.2195890" lon="1.3562250">
        <ele>197.0</ele>
        <time>2021-05-07T20:03:13Z</time>
      </trkpt>
      <trkpt lat="41.2196710" lon="1.3562760">
        <ele>197.8</ele>
        <time>2021-05-07T20:03:18Z</time>
      </trkpt>
      <trkpt lat="41.2197140" lon="1.3563040">
        <ele>198.0</ele>
        <time>2021-05-07T20:03:20Z</time>
      </trkpt>
      <trkpt lat="41.2198480" lon="1.3563570">
        <ele>198.4</ele>
        <time>2021-05-07T20:03:25Z</time>
      </trkpt>
      <trkpt lat="41.2199540" lon="1.3564450">
        <ele>198.2</ele>
        <time>2021-05-07T20:03:30Z</time>
      </trkpt>
      <trkpt lat="41.2200370" lon="1.3565170">
        <ele>198.6</ele>
        <time>2021-05-07T20:03:34Z</time>
      </trkpt>
      <trkpt lat="41.2200500" lon="1.3565410">
        <ele>198.8</ele>
        <time>2021-05-07T20:03:35Z</time>
      </trkpt>
      <trkpt lat="41.2200620" lon="1.3565710">
        <ele>198.8</ele>
        <time>2021-05-07T20:03:36Z</time>
      </trkpt>
      <trkpt lat="41.2200890" lon="1.3566770">
        <ele>198.8</ele>
        <time>2021-05-07T20:03:39Z</time>
      </trkpt>
      <trkpt lat="41.2201540" lon="1.3568080">
        <ele>198.4</ele>
        <time>2021-05-07T20:03:44Z</time>
      </trkpt>
      <trkpt lat="41.2201780" lon="1.3568290">
        <ele>198.4</ele>
        <time>2021-05-07T20:03:45Z</time>
      </trkpt>
      <trkpt lat="41.2202730" lon="1.3569460">
        <ele>198.2</ele>
        <time>2021-05-07T20:03:51Z</time>
      </trkpt>
      <trkpt lat="41.2203770" lon="1.3570850">
        <ele>198.2</ele>
        <time>2021-05-07T20:03:57Z</time>
      </trkpt>
      <trkpt lat="41.2204990" lon="1.3572380">
        <ele>198.8</ele>
        <time>2021-05-07T20:04:04Z</time>
      </trkpt>
      <trkpt lat="41.2205430" lon="1.3573720">
        <ele>199.2</ele>
        <time>2021-05-07T20:04:09Z</time>
      </trkpt>
      <trkpt lat="41.2205730" lon="1.3575450">
        <ele>198.4</ele>
        <time>2021-05-07T20:04:15Z</time>
      </trkpt>
      <trkpt lat="41.2206250" lon="1.3576660">
        <ele>198.6</ele>
        <time>2021-05-07T20:04:20Z</time>
      </trkpt>
      <trkpt lat="41.2206910" lon="1.3578300">
        <ele>199.0</ele>
        <time>2021-05-07T20:04:27Z</time>
      </trkpt>
      <trkpt lat="41.2207410" lon="1.3578840">
        <ele>199.6</ele>
        <time>2021-05-07T20:04:31Z</time>
      </trkpt>
      <trkpt lat="41.2207730" lon="1.3579010">
        <ele>200.2</ele>
        <time>2021-05-07T20:04:33Z</time>
      </trkpt>
      <trkpt lat="41.2207890" lon="1.3579110">
        <ele>200.2</ele>
        <time>2021-05-07T20:04:34Z</time>
      </trkpt>
      <trkpt lat="41.2208760" lon="1.3579550">
        <ele>200.0</ele>
        <time>2021-05-07T20:04:40Z</time>
      </trkpt>
      <trkpt lat="41.2210030" lon="1.3579460">
        <ele>200.8</ele>
        <time>2021-05-07T20:04:47Z</time>
      </trkpt>
      <trkpt lat="41.2211530" lon="1.3579030">
        <ele>201.2</ele>
        <time>2021-05-07T20:04:54Z</time>
      </trkpt>
      <trkpt lat="41.2211750" lon="1.3578880">
        <ele>201.2</ele>
        <time>2021-05-07T20:04:55Z</time>
      </trkpt>
      <trkpt lat="41.2212620" lon="1.3578720">
        <ele>200.4</ele>
        <time>2021-05-07T20:05:00Z</time>
      </trkpt>
      <trkpt lat="41.2213150" lon="1.3578930">
        <ele>200.4</ele>
        <time>2021-05-07T20:05:03Z</time>
      </trkpt>
      <trkpt lat="41.2213640" lon="1.3579280">
        <ele>200.4</ele>
        <time>2021-05-07T20:05:06Z</time>
      </trkpt>
      <trkpt lat="41.2214540" lon="1.3579470">
        <ele>200.6</ele>
        <time>2021-05-07T20:05:13Z</time>
      </trkpt>
      <trkpt lat="41.2215580" lon="1.3579560">
        <ele>201.0</ele>
        <time>2021-05-07T20:05:20Z</time>
      </trkpt>
      <trkpt lat="41.2216570" lon="1.3578970">
        <ele>201.8</ele>
        <time>2021-05-07T20:05:28Z</time>
      </trkpt>
      <trkpt lat="41.2217220" lon="1.3578340">
        <ele>202.4</ele>
        <time>2021-05-07T20:05:34Z</time>
      </trkpt>
      <trkpt lat="41.2217480" lon="1.3578060">
        <ele>202.6</ele>
        <time>2021-05-07T20:05:36Z</time>
      </trkpt>
      <trkpt lat="41.2218180" lon="1.3577060">
        <ele>203.2</ele>
        <time>2021-05-07T20:05:43Z</time>
      </trkpt>
      <trkpt lat="41.2218280" lon="1.3576890">
        <ele>203.4</ele>
        <time>2021-05-07T20:05:44Z</time>
      </trkpt>
      <trkpt lat="41.2218610" lon="1.3576210">
        <ele>203.8</ele>
        <time>2021-05-07T20:05:49Z</time>
      </trkpt>
      <trkpt lat="41.2218880" lon="1.3575850">
        <ele>204.4</ele>
        <time>2021-05-07T20:05:52Z</time>
      </trkpt>
      <trkpt lat="41.2219030" lon="1.3575630">
        <ele>204.6</ele>
        <time>2021-05-07T20:05:54Z</time>
      </trkpt>
      <trkpt lat="41.2219100" lon="1.3575500">
        <ele>204.6</ele>
        <time>2021-05-07T20:05:55Z</time>
      </trkpt>
      <trkpt lat="41.2219310" lon="1.3575040">
        <ele>205.0</ele>
        <time>2021-05-07T20:05:59Z</time>
      </trkpt>
      <trkpt lat="41.2219470" lon="1.3574850">
        <ele>205.0</ele>
        <time>2021-05-07T20:06:01Z</time>
      </trkpt>
      <trkpt lat="41.2219770" lon="1.3574560">
        <ele>205.4</ele>
        <time>2021-05-07T20:06:04Z</time>
      </trkpt>
      <trkpt lat="41.2220060" lon="1.3573970">
        <ele>206.2</ele>
        <time>2021-05-07T20:06:09Z</time>
      </trkpt>
      <trkpt lat="41.2220640" lon="1.3573280">
        <ele>206.2</ele>
        <time>2021-05-07T20:06:15Z</time>
      </trkpt>
      <trkpt lat="41.2220840" lon="1.3573020">
        <ele>206.4</ele>
        <time>2021-05-07T20:06:17Z</time>
      </trkpt>
      <trkpt lat="41.2221050" lon="1.3572720">
        <ele>206.4</ele>
        <time>2021-05-07T20:06:19Z</time>
      </trkpt>
      <trkpt lat="41.2221320" lon="1.3572410">
        <ele>206.8</ele>
        <time>2021-05-07T20:06:21Z</time>
      </trkpt>
      <trkpt lat="41.2221840" lon="1.3572000">
        <ele>207.6</ele>
        <time>2021-05-07T20:06:25Z</time>
      </trkpt>
      <trkpt lat="41.2222080" lon="1.3571680">
        <ele>207.6</ele>
        <time>2021-05-07T20:06:27Z</time>
      </trkpt>
      <trkpt lat="41.2222930" lon="1.3571300">
        <ele>207.6</ele>
        <time>2021-05-07T20:06:33Z</time>
      </trkpt>
      <trkpt lat="41.2224040" lon="1.3571230">
        <ele>207.6</ele>
        <time>2021-05-07T20:06:40Z</time>
      </trkpt>
      <trkpt lat="41.2225100" lon="1.3571180">
        <ele>208.2</ele>
        <time>2021-05-07T20:06:47Z</time>
      </trkpt>
      <trkpt lat="41.2225550" lon="1.3571220">
        <ele>208.8</ele>
        <time>2021-05-07T20:06:50Z</time>
      </trkpt>
      <trkpt lat="41.2226370" lon="1.3571050">
        <ele>209.4</ele>
        <time>2021-05-07T20:06:56Z</time>
      </trkpt>
      <trkpt lat="41.2227460" lon="1.3570820">
        <ele>208.8</ele>
        <time>2021-05-07T20:07:03Z</time>
      </trkpt>
      <trkpt lat="41.2229000" lon="1.3570780">
        <ele>208.8</ele>
        <time>2021-05-07T20:07:12Z</time>
      </trkpt>
      <trkpt lat="41.2230250" lon="1.3570870">
        <ele>208.6</ele>
        <time>2021-05-07T20:07:18Z</time>
      </trkpt>
      <trkpt lat="41.2231330" lon="1.3571340">
        <ele>209.4</ele>
        <time>2021-05-07T20:07:23Z</time>
      </trkpt>
      <trkpt lat="41.2232330" lon="1.3571560">
        <ele>208.8</ele>
        <time>2021-05-07T20:07:28Z</time>
      </trkpt>
      <trkpt lat="41.2233360" lon="1.3571930">
        <ele>209.0</ele>
        <time>2021-05-07T20:07:32Z</time>
      </trkpt>
      <trkpt lat="41.2235530" lon="1.3572090">
        <ele>207.8</ele>
        <time>2021-05-07T20:07:38Z</time>
      </trkpt>
      <trkpt lat="41.2235950" lon="1.3572000">
        <ele>207.2</ele>
        <time>2021-05-07T20:07:39Z</time>
      </trkpt>
      <trkpt lat="41.2237070" lon="1.3571660">
        <ele>205.8</ele>
        <time>2021-05-07T20:07:42Z</time>
      </trkpt>
      <trkpt lat="41.2237410" lon="1.3571580">
        <ele>205.6</ele>
        <time>2021-05-07T20:07:43Z</time>
      </trkpt>
      <trkpt lat="41.2238700" lon="1.3571050">
        <ele>205.4</ele>
        <time>2021-05-07T20:07:48Z</time>
      </trkpt>
      <trkpt lat="41.2239450" lon="1.3570830">
        <ele>206.2</ele>
        <time>2021-05-07T20:07:54Z</time>
      </trkpt>
      <trkpt lat="41.2240390" lon="1.3570440">
        <ele>206.4</ele>
        <time>2021-05-07T20:07:59Z</time>
      </trkpt>
      <trkpt lat="41.2240800" lon="1.3570430">
        <ele>206.8</ele>
        <time>2021-05-07T20:08:01Z</time>
      </trkpt>
      <trkpt lat="41.2241790" lon="1.3570570">
        <ele>207.4</ele>
        <time>2021-05-07T20:08:05Z</time>
      </trkpt>
      <trkpt lat="41.2242870" lon="1.3570840">
        <ele>207.0</ele>
        <time>2021-05-07T20:08:09Z</time>
      </trkpt>
      <trkpt lat="41.2243340" lon="1.3570770">
        <ele>206.8</ele>
        <time>2021-05-07T20:08:11Z</time>
      </trkpt>
      <trkpt lat="41.2245400" lon="1.3570800">
        <ele>207.4</ele>
        <time>2021-05-07T20:08:18Z</time>
      </trkpt>
      <trkpt lat="41.2246550" lon="1.3571390">
        <ele>207.2</ele>
        <time>2021-05-07T20:08:23Z</time>
      </trkpt>
      <trkpt lat="41.2248000" lon="1.3571930">
        <ele>207.6</ele>
        <time>2021-05-07T20:08:29Z</time>
      </trkpt>
      <trkpt lat="41.2249470" lon="1.3572530">
        <ele>207.2</ele>
        <time>2021-05-07T20:08:35Z</time>
      </trkpt>
      <trkpt lat="41.2251000" lon="1.3573360">
        <ele>207.0</ele>
        <time>2021-05-07T20:08:42Z</time>
      </trkpt>
      <trkpt lat="41.2252290" lon="1.3573440">
        <ele>206.8</ele>
        <time>2021-05-07T20:08:47Z</time>
      </trkpt>
      <trkpt lat="41.2254210" lon="1.3573030">
        <ele>207.2</ele>
        <time>2021-05-07T20:08:53Z</time>
      </trkpt>
      <trkpt lat="41.2255620" lon="1.3573160">
        <ele>206.8</ele>
        <time>2021-05-07T20:08:57Z</time>
      </trkpt>
      <trkpt lat="41.2256460" lon="1.3573360">
        <ele>205.6</ele>
        <time>2021-05-07T20:08:59Z</time>
      </trkpt>
      <trkpt lat="41.2257700" lon="1.3573520">
        <ele>204.8</ele>
        <time>2021-05-07T20:09:02Z</time>
      </trkpt>
      <trkpt lat="41.2258690" lon="1.3573600">
        <ele>204.6</ele>
        <time>2021-05-07T20:09:06Z</time>
      </trkpt>
      <trkpt lat="41.2258850" lon="1.3573550">
        <ele>204.6</ele>
        <time>2021-05-07T20:09:07Z</time>
      </trkpt>
      <trkpt lat="41.2259380" lon="1.3573340">
        <ele>204.4</ele>
        <time>2021-05-07T20:09:10Z</time>
      </trkpt>
      <trkpt lat="41.2259710" lon="1.3573230">
        <ele>204.0</ele>
        <time>2021-05-07T20:09:12Z</time>
      </trkpt>
      <trkpt lat="41.2259890" lon="1.3573210">
        <ele>203.8</ele>
        <time>2021-05-07T20:09:15Z</time>
      </trkpt>
      <trkpt lat="41.2263290" lon="1.3571580">
        <ele>201.2</ele>
        <time>2021-05-07T20:12:50Z</time>
      </trkpt>
      <trkpt lat="41.2264250" lon="1.3572290">
        <ele>200.8</ele>
        <time>2021-05-07T20:12:55Z</time>
      </trkpt>
      <trkpt lat="41.2264690" lon="1.3572930">
        <ele>200.2</ele>
        <time>2021-05-07T20:12:58Z</time>
      </trkpt>
      <trkpt lat="41.2264950" lon="1.3573540">
        <ele>199.8</ele>
        <time>2021-05-07T20:13:00Z</time>
      </trkpt>
      <trkpt lat="41.2265440" lon="1.3574200">
        <ele>199.2</ele>
        <time>2021-05-07T20:13:02Z</time>
      </trkpt>
      <trkpt lat="41.2265770" lon="1.3574500">
        <ele>198.8</ele>
        <time>2021-05-07T20:13:03Z</time>
      </trkpt>
      <trkpt lat="41.2266170" lon="1.3574790">
        <ele>198.8</ele>
        <time>2021-05-07T20:13:04Z</time>
      </trkpt>
      <trkpt lat="41.2267550" lon="1.3575740">
        <ele>198.2</ele>
        <time>2021-05-07T20:13:07Z</time>
      </trkpt>
      <trkpt lat="41.2268030" lon="1.3576090">
        <ele>198.0</ele>
        <time>2021-05-07T20:13:08Z</time>
      </trkpt>
      <trkpt lat="41.2269580" lon="1.3577220">
        <ele>197.2</ele>
        <time>2021-05-07T20:13:11Z</time>
      </trkpt>
      <trkpt lat="41.2270090" lon="1.3577600">
        <ele>196.8</ele>
        <time>2021-05-07T20:13:12Z</time>
      </trkpt>
      <trkpt lat="41.2270590" lon="1.3577980">
        <ele>196.4</ele>
        <time>2021-05-07T20:13:13Z</time>
      </trkpt>
      <trkpt lat="41.2272370" lon="1.3579530">
        <ele>196.0</ele>
        <time>2021-05-07T20:13:18Z</time>
      </trkpt>
      <trkpt lat="41.2273430" lon="1.3580450">
        <ele>197.0</ele>
        <time>2021-05-07T20:13:24Z</time>
      </trkpt>
      <trkpt lat="41.2274190" lon="1.3581020">
        <ele>197.6</ele>
        <time>2021-05-07T20:13:29Z</time>
      </trkpt>
      <trkpt lat="41.2275920" lon="1.3582290">
        <ele>197.4</ele>
        <time>2021-05-07T20:13:38Z</time>
      </trkpt>
      <trkpt lat="41.2277930" lon="1.3583410">
        <ele>196.2</ele>
        <time>2021-05-07T20:13:46Z</time>
      </trkpt>
      <trkpt lat="41.2278640" lon="1.3583920">
        <ele>195.8</ele>
        <time>2021-05-07T20:13:49Z</time>
      </trkpt>
      <trkpt lat="41.2278910" lon="1.3584100">
        <ele>195.8</ele>
        <time>2021-05-07T20:13:50Z</time>
      </trkpt>
      <trkpt lat="41.2280440" lon="1.3585000">
        <ele>196.0</ele>
        <time>2021-05-07T20:13:55Z</time>
      </trkpt>
      <trkpt lat="41.2282000" lon="1.3585530">
        <ele>195.2</ele>
        <time>2021-05-07T20:14:00Z</time>
      </trkpt>
      <trkpt lat="41.2282410" lon="1.3585520">
        <ele>195.0</ele>
        <time>2021-05-07T20:14:01Z</time>
      </trkpt>
      <trkpt lat="41.2282790" lon="1.3585490">
        <ele>194.8</ele>
        <time>2021-05-07T20:14:02Z</time>
      </trkpt>
      <trkpt lat="41.2283510" lon="1.3585600">
        <ele>194.6</ele>
        <time>2021-05-07T20:14:04Z</time>
      </trkpt>
      <trkpt lat="41.2284150" lon="1.3585860">
        <ele>194.6</ele>
        <time>2021-05-07T20:14:06Z</time>
      </trkpt>
      <trkpt lat="41.2285000" lon="1.3586740">
        <ele>194.4</ele>
        <time>2021-05-07T20:14:09Z</time>
      </trkpt>
      <trkpt lat="41.2286620" lon="1.3587980">
        <ele>193.8</ele>
        <time>2021-05-07T20:14:14Z</time>
      </trkpt>
      <trkpt lat="41.2286920" lon="1.3588010">
        <ele>193.6</ele>
        <time>2021-05-07T20:14:15Z</time>
      </trkpt>
      <trkpt lat="41.2287900" lon="1.3588260">
        <ele>192.8</ele>
        <time>2021-05-07T20:14:18Z</time>
      </trkpt>
      <trkpt lat="41.2288210" lon="1.3588440">
        <ele>192.2</ele>
        <time>2021-05-07T20:14:19Z</time>
      </trkpt>
      <trkpt lat="41.2288860" lon="1.3588860">
        <ele>190.8</ele>
        <time>2021-05-07T20:14:21Z</time>
      </trkpt>
      <trkpt lat="41.2289480" lon="1.3589280">
        <ele>190.2</ele>
        <time>2021-05-07T20:14:23Z</time>
      </trkpt>
      <trkpt lat="41.2290230" lon="1.3590520">
        <ele>189.8</ele>
        <time>2021-05-07T20:14:27Z</time>
      </trkpt>
      <trkpt lat="41.2290470" lon="1.3591410">
        <ele>188.4</ele>
        <time>2021-05-07T20:14:30Z</time>
      </trkpt>
      <trkpt lat="41.2290550" lon="1.3592260">
        <ele>188.2</ele>
        <time>2021-05-07T20:14:33Z</time>
      </trkpt>
      <trkpt lat="41.2290810" lon="1.3593950">
        <ele>187.6</ele>
        <time>2021-05-07T20:14:39Z</time>
      </trkpt>
      <trkpt lat="41.2290830" lon="1.3594290">
        <ele>187.4</ele>
        <time>2021-05-07T20:14:40Z</time>
      </trkpt>
      <trkpt lat="41.2291190" lon="1.3595880">
        <ele>186.6</ele>
        <time>2021-05-07T20:14:44Z</time>
      </trkpt>
      <trkpt lat="41.2291310" lon="1.3596370">
        <ele>186.2</ele>
        <time>2021-05-07T20:14:45Z</time>
      </trkpt>
      <trkpt lat="41.2291380" lon="1.3596900">
        <ele>185.8</ele>
        <time>2021-05-07T20:14:46Z</time>
      </trkpt>
      <trkpt lat="41.2291330" lon="1.3598050">
        <ele>185.2</ele>
        <time>2021-05-07T20:14:48Z</time>
      </trkpt>
      <trkpt lat="41.2291180" lon="1.3598610">
        <ele>184.6</ele>
        <time>2021-05-07T20:14:49Z</time>
      </trkpt>
      <trkpt lat="41.2290730" lon="1.3599660">
        <ele>184.0</ele>
        <time>2021-05-07T20:14:51Z</time>
      </trkpt>
      <trkpt lat="41.2290460" lon="1.3600140">
        <ele>183.8</ele>
        <time>2021-05-07T20:14:52Z</time>
      </trkpt>
      <trkpt lat="41.2289870" lon="1.3601060">
        <ele>183.4</ele>
        <time>2021-05-07T20:14:54Z</time>
      </trkpt>
      <trkpt lat="41.2288270" lon="1.3603160">
        <ele>183.2</ele>
        <time>2021-05-07T20:14:59Z</time>
      </trkpt>
      <trkpt lat="41.2287970" lon="1.3603470">
        <ele>183.2</ele>
        <time>2021-05-07T20:15:00Z</time>
      </trkpt>
      <trkpt lat="41.2287430" lon="1.3604060">
        <ele>182.8</ele>
        <time>2021-05-07T20:15:02Z</time>
      </trkpt>
      <trkpt lat="41.2286530" lon="1.3605000">
        <ele>182.8</ele>
        <time>2021-05-07T20:15:06Z</time>
      </trkpt>
      <trkpt lat="41.2285580" lon="1.3606650">
        <ele>183.8</ele>
        <time>2021-05-07T20:15:13Z</time>
      </trkpt>
      <trkpt lat="41.2285380" lon="1.3607220">
        <ele>184.0</ele>
        <time>2021-05-07T20:15:15Z</time>
      </trkpt>
      <trkpt lat="41.2285080" lon="1.3608760">
        <ele>184.4</ele>
        <time>2021-05-07T20:15:20Z</time>
      </trkpt>
      <trkpt lat="41.2285050" lon="1.3611460">
        <ele>184.2</ele>
        <time>2021-05-07T20:15:27Z</time>
      </trkpt>
      <trkpt lat="41.2285590" lon="1.3613610">
        <ele>184.2</ele>
        <time>2021-05-07T20:15:33Z</time>
      </trkpt>
      <trkpt lat="41.2286330" lon="1.3615070">
        <ele>184.6</ele>
        <time>2021-05-07T20:15:38Z</time>
      </trkpt>
      <trkpt lat="41.2286990" lon="1.3616060">
        <ele>185.0</ele>
        <time>2021-05-07T20:15:42Z</time>
      </trkpt>
      <trkpt lat="41.2287590" lon="1.3616590">
        <ele>185.2</ele>
        <time>2021-05-07T20:15:45Z</time>
      </trkpt>
      <trkpt lat="41.2289300" lon="1.3617640">
        <ele>185.6</ele>
        <time>2021-05-07T20:15:51Z</time>
      </trkpt>
      <trkpt lat="41.2291570" lon="1.3619190">
        <ele>184.4</ele>
        <time>2021-05-07T20:15:57Z</time>
      </trkpt>
      <trkpt lat="41.2292350" lon="1.3619330">
        <ele>183.8</ele>
        <time>2021-05-07T20:15:59Z</time>
      </trkpt>
      <trkpt lat="41.2293220" lon="1.3619140">
        <ele>183.6</ele>
        <time>2021-05-07T20:16:01Z</time>
      </trkpt>
      <trkpt lat="41.2293660" lon="1.3618960">
        <ele>183.4</ele>
        <time>2021-05-07T20:16:02Z</time>
      </trkpt>
      <trkpt lat="41.2294930" lon="1.3618230">
        <ele>182.8</ele>
        <time>2021-05-07T20:16:05Z</time>
      </trkpt>
      <trkpt lat="41.2295350" lon="1.3618030">
        <ele>182.2</ele>
        <time>2021-05-07T20:16:06Z</time>
      </trkpt>
      <trkpt lat="41.2295770" lon="1.3617870">
        <ele>182.0</ele>
        <time>2021-05-07T20:16:07Z</time>
      </trkpt>
      <trkpt lat="41.2296230" lon="1.3617760">
        <ele>181.8</ele>
        <time>2021-05-07T20:16:08Z</time>
      </trkpt>
      <trkpt lat="41.2297650" lon="1.3617580">
        <ele>180.6</ele>
        <time>2021-05-07T20:16:11Z</time>
      </trkpt>
      <trkpt lat="41.2298150" lon="1.3617580">
        <ele>180.6</ele>
        <time>2021-05-07T20:16:12Z</time>
      </trkpt>
      <trkpt lat="41.2299660" lon="1.3617820">
        <ele>179.4</ele>
        <time>2021-05-07T20:16:15Z</time>
      </trkpt>
      <trkpt lat="41.2301060" lon="1.3618110">
        <ele>178.4</ele>
        <time>2021-05-07T20:16:18Z</time>
      </trkpt>
      <trkpt lat="41.2301520" lon="1.3618220">
        <ele>178.2</ele>
        <time>2021-05-07T20:16:19Z</time>
      </trkpt>
      <trkpt lat="41.2306220" lon="1.3619260">
        <ele>177.2</ele>
        <time>2021-05-07T20:16:29Z</time>
      </trkpt>
      <trkpt lat="41.2306730" lon="1.3619360">
        <ele>177.0</ele>
        <time>2021-05-07T20:16:30Z</time>
      </trkpt>
      <trkpt lat="41.2307230" lon="1.3619560">
        <ele>177.0</ele>
        <time>2021-05-07T20:16:31Z</time>
      </trkpt>
      <trkpt lat="41.2308050" lon="1.3620310">
        <ele>176.8</ele>
        <time>2021-05-07T20:16:33Z</time>
      </trkpt>
      <trkpt lat="41.2308920" lon="1.3622440">
        <ele>176.4</ele>
        <time>2021-05-07T20:16:37Z</time>
      </trkpt>
      <trkpt lat="41.2308830" lon="1.3624710">
        <ele>176.8</ele>
        <time>2021-05-07T20:16:42Z</time>
      </trkpt>
      <trkpt lat="41.2308720" lon="1.3625150">
        <ele>176.8</ele>
        <time>2021-05-07T20:16:43Z</time>
      </trkpt>
      <trkpt lat="41.2307890" lon="1.3627630">
        <ele>176.2</ele>
        <time>2021-05-07T20:16:49Z</time>
      </trkpt>
      <trkpt lat="41.2307780" lon="1.3628100">
        <ele>175.8</ele>
        <time>2021-05-07T20:16:50Z</time>
      </trkpt>
      <trkpt lat="41.2307300" lon="1.3630530">
        <ele>175.0</ele>
        <time>2021-05-07T20:16:54Z</time>
      </trkpt>
      <trkpt lat="41.2306870" lon="1.3632810">
        <ele>174.8</ele>
        <time>2021-05-07T20:16:57Z</time>
      </trkpt>
      <trkpt lat="41.2306460" lon="1.3635180">
        <ele>174.0</ele>
        <time>2021-05-07T20:17:00Z</time>
      </trkpt>
      <trkpt lat="41.2306120" lon="1.3636720">
        <ele>173.6</ele>
        <time>2021-05-07T20:17:02Z</time>
      </trkpt>
      <trkpt lat="41.2305510" lon="1.3638810">
        <ele>172.4</ele>
        <time>2021-05-07T20:17:05Z</time>
      </trkpt>
      <trkpt lat="41.2305290" lon="1.3639490">
        <ele>172.2</ele>
        <time>2021-05-07T20:17:06Z</time>
      </trkpt>
      <trkpt lat="41.2304620" lon="1.3641650">
        <ele>170.8</ele>
        <time>2021-05-07T20:17:09Z</time>
      </trkpt>
      <trkpt lat="41.2304020" lon="1.3643050">
        <ele>169.6</ele>
        <time>2021-05-07T20:17:11Z</time>
      </trkpt>
      <trkpt lat="41.2302330" lon="1.3645530">
        <ele>168.2</ele>
        <time>2021-05-07T20:17:15Z</time>
      </trkpt>
      <trkpt lat="41.2301950" lon="1.3646120">
        <ele>167.8</ele>
        <time>2021-05-07T20:17:16Z</time>
      </trkpt>
      <trkpt lat="41.2301630" lon="1.3646730">
        <ele>166.8</ele>
        <time>2021-05-07T20:17:17Z</time>
      </trkpt>
      <trkpt lat="41.2301350" lon="1.3647360">
        <ele>166.4</ele>
        <time>2021-05-07T20:17:18Z</time>
      </trkpt>
      <trkpt lat="41.2301100" lon="1.3648050">
        <ele>165.8</ele>
        <time>2021-05-07T20:17:19Z</time>
      </trkpt>
      <trkpt lat="41.2300710" lon="1.3649570">
        <ele>164.8</ele>
        <time>2021-05-07T20:17:21Z</time>
      </trkpt>
      <trkpt lat="41.2300590" lon="1.3650280">
        <ele>164.6</ele>
        <time>2021-05-07T20:17:22Z</time>
      </trkpt>
      <trkpt lat="41.2300420" lon="1.3652110">
        <ele>163.6</ele>
        <time>2021-05-07T20:17:25Z</time>
      </trkpt>
      <trkpt lat="41.2300380" lon="1.3652600">
        <ele>163.0</ele>
        <time>2021-05-07T20:17:26Z</time>
      </trkpt>
      <trkpt lat="41.2300290" lon="1.3653020">
        <ele>162.4</ele>
        <time>2021-05-07T20:17:27Z</time>
      </trkpt>
      <trkpt lat="41.2299660" lon="1.3654870">
        <ele>161.2</ele>
        <time>2021-05-07T20:17:31Z</time>
      </trkpt>
      <trkpt lat="41.2299240" lon="1.3655930">
        <ele>160.8</ele>
        <time>2021-05-07T20:17:33Z</time>
      </trkpt>
      <trkpt lat="41.2298770" lon="1.3656920">
        <ele>159.6</ele>
        <time>2021-05-07T20:17:35Z</time>
      </trkpt>
      <trkpt lat="41.2298530" lon="1.3657500">
        <ele>159.2</ele>
        <time>2021-05-07T20:17:36Z</time>
      </trkpt>
      <trkpt lat="41.2298100" lon="1.3658940">
        <ele>158.2</ele>
        <time>2021-05-07T20:17:38Z</time>
      </trkpt>
      <trkpt lat="41.2297620" lon="1.3660520">
        <ele>157.0</ele>
        <time>2021-05-07T20:17:40Z</time>
      </trkpt>
      <trkpt lat="41.2297340" lon="1.3661360">
        <ele>156.8</ele>
        <time>2021-05-07T20:17:41Z</time>
      </trkpt>
      <trkpt lat="41.2296750" lon="1.3662940">
        <ele>156.0</ele>
        <time>2021-05-07T20:17:43Z</time>
      </trkpt>
      <trkpt lat="41.2296010" lon="1.3664950">
        <ele>154.8</ele>
        <time>2021-05-07T20:17:46Z</time>
      </trkpt>
      <trkpt lat="41.2295360" lon="1.3666670">
        <ele>153.4</ele>
        <time>2021-05-07T20:17:49Z</time>
      </trkpt>
      <trkpt lat="41.2295090" lon="1.3667300">
        <ele>153.4</ele>
        <time>2021-05-07T20:17:50Z</time>
      </trkpt>
      <trkpt lat="41.2294250" lon="1.3669040">
        <ele>152.8</ele>
        <time>2021-05-07T20:17:53Z</time>
      </trkpt>
      <trkpt lat="41.2293620" lon="1.3670280">
        <ele>152.2</ele>
        <time>2021-05-07T20:17:55Z</time>
      </trkpt>
      <trkpt lat="41.2292640" lon="1.3672780">
        <ele>150.8</ele>
        <time>2021-05-07T20:17:59Z</time>
      </trkpt>
      <trkpt lat="41.2292370" lon="1.3673480">
        <ele>150.0</ele>
        <time>2021-05-07T20:18:00Z</time>
      </trkpt>
      <trkpt lat="41.2292050" lon="1.3674170">
        <ele>149.6</ele>
        <time>2021-05-07T20:18:01Z</time>
      </trkpt>
      <trkpt lat="41.2291340" lon="1.3675370">
        <ele>148.4</ele>
        <time>2021-05-07T20:18:03Z</time>
      </trkpt>
      <trkpt lat="41.2291030" lon="1.3675950">
        <ele>147.8</ele>
        <time>2021-05-07T20:18:04Z</time>
      </trkpt>
      <trkpt lat="41.2290770" lon="1.3676590">
        <ele>147.4</ele>
        <time>2021-05-07T20:18:05Z</time>
      </trkpt>
      <trkpt lat="41.2290720" lon="1.3678850">
        <ele>146.6</ele>
        <time>2021-05-07T20:18:08Z</time>
      </trkpt>
      <trkpt lat="41.2290790" lon="1.3679580">
        <ele>146.4</ele>
        <time>2021-05-07T20:18:09Z</time>
      </trkpt>
      <trkpt lat="41.2290890" lon="1.3680890">
        <ele>146.2</ele>
        <time>2021-05-07T20:18:11Z</time>
      </trkpt>
      <trkpt lat="41.2290830" lon="1.3682160">
        <ele>146.0</ele>
        <time>2021-05-07T20:18:13Z</time>
      </trkpt>
      <trkpt lat="41.2290700" lon="1.3683350">
        <ele>146.2</ele>
        <time>2021-05-07T20:18:15Z</time>
      </trkpt>
      <trkpt lat="41.2290150" lon="1.3684740">
        <ele>146.4</ele>
        <time>2021-05-07T20:18:18Z</time>
      </trkpt>
      <trkpt lat="41.2289920" lon="1.3685100">
        <ele>146.2</ele>
        <time>2021-05-07T20:18:19Z</time>
      </trkpt>
      <trkpt lat="41.2289030" lon="1.3687110">
        <ele>146.4</ele>
        <time>2021-05-07T20:18:25Z</time>
      </trkpt>
      <trkpt lat="41.2288630" lon="1.3688950">
        <ele>147.4</ele>
        <time>2021-05-07T20:18:30Z</time>
      </trkpt>
      <trkpt lat="41.2288220" lon="1.3689880">
        <ele>147.6</ele>
        <time>2021-05-07T20:18:33Z</time>
      </trkpt>
      <trkpt lat="41.2286960" lon="1.3691110">
        <ele>148.4</ele>
        <time>2021-05-07T20:18:39Z</time>
      </trkpt>
      <trkpt lat="41.2285220" lon="1.3692500">
        <ele>149.6</ele>
        <time>2021-05-07T20:18:46Z</time>
      </trkpt>
      <trkpt lat="41.2283590" lon="1.3694100">
        <ele>150.2</ele>
        <time>2021-05-07T20:18:52Z</time>
      </trkpt>
      <trkpt lat="41.2283070" lon="1.3694560">
        <ele>150.6</ele>
        <time>2021-05-07T20:18:54Z</time>
      </trkpt>
      <trkpt lat="41.2281780" lon="1.3695620">
        <ele>151.2</ele>
        <time>2021-05-07T20:18:59Z</time>
      </trkpt>
      <trkpt lat="41.2280800" lon="1.3696610">
        <ele>151.8</ele>
        <time>2021-05-07T20:19:03Z</time>
      </trkpt>
      <trkpt lat="41.2280340" lon="1.3697460">
        <ele>152.0</ele>
        <time>2021-05-07T20:19:06Z</time>
      </trkpt>
      <trkpt lat="41.2279710" lon="1.3699830">
        <ele>151.6</ele>
        <time>2021-05-07T20:19:12Z</time>
      </trkpt>
      <trkpt lat="41.2278870" lon="1.3703040">
        <ele>150.8</ele>
        <time>2021-05-07T20:19:20Z</time>
      </trkpt>
      <trkpt lat="41.2278780" lon="1.3703400">
        <ele>150.8</ele>
        <time>2021-05-07T20:19:21Z</time>
      </trkpt>
      <trkpt lat="41.2278260" lon="1.3705320">
        <ele>150.6</ele>
        <time>2021-05-07T20:19:27Z</time>
      </trkpt>
      <trkpt lat="41.2278230" lon="1.3707410">
        <ele>151.0</ele>
        <time>2021-05-07T20:19:34Z</time>
      </trkpt>
      <trkpt lat="41.2278500" lon="1.3709370">
        <ele>151.2</ele>
        <time>2021-05-07T20:19:41Z</time>
      </trkpt>
      <trkpt lat="41.2278960" lon="1.3712190">
        <ele>150.4</ele>
        <time>2021-05-07T20:19:49Z</time>
      </trkpt>
      <trkpt lat="41.2279230" lon="1.3713270">
        <ele>150.0</ele>
        <time>2021-05-07T20:19:52Z</time>
      </trkpt>
      <trkpt lat="41.2279440" lon="1.3714030">
        <ele>149.6</ele>
        <time>2021-05-07T20:19:54Z</time>
      </trkpt>
      <trkpt lat="41.2279800" lon="1.3715230">
        <ele>149.2</ele>
        <time>2021-05-07T20:19:57Z</time>
      </trkpt>
      <trkpt lat="41.2280230" lon="1.3716840">
        <ele>148.6</ele>
        <time>2021-05-07T20:20:01Z</time>
      </trkpt>
      <trkpt lat="41.2280520" lon="1.3717720">
        <ele>148.2</ele>
        <time>2021-05-07T20:20:03Z</time>
      </trkpt>
      <trkpt lat="41.2280820" lon="1.3718570">
        <ele>147.4</ele>
        <time>2021-05-07T20:20:05Z</time>
      </trkpt>
      <trkpt lat="41.2281310" lon="1.3720260">
        <ele>146.4</ele>
        <time>2021-05-07T20:20:09Z</time>
      </trkpt>
      <trkpt lat="41.2281470" lon="1.3720650">
        <ele>146.2</ele>
        <time>2021-05-07T20:20:10Z</time>
      </trkpt>
      <trkpt lat="41.2282730" lon="1.3722870">
        <ele>145.6</ele>
        <time>2021-05-07T20:20:17Z</time>
      </trkpt>
      <trkpt lat="41.2283230" lon="1.3723860">
        <ele>145.2</ele>
        <time>2021-05-07T20:20:20Z</time>
      </trkpt>
      <trkpt lat="41.2284120" lon="1.3724930">
        <ele>144.2</ele>
        <time>2021-05-07T20:20:24Z</time>
      </trkpt>
      <trkpt lat="41.2284420" lon="1.3724950">
        <ele>143.8</ele>
        <time>2021-05-07T20:20:25Z</time>
      </trkpt>
      <trkpt lat="41.2285310" lon="1.3724710">
        <ele>143.0</ele>
        <time>2021-05-07T20:20:28Z</time>
      </trkpt>
      <trkpt lat="41.2286880" lon="1.3724340">
        <ele>142.0</ele>
        <time>2021-05-07T20:20:34Z</time>
      </trkpt>
      <trkpt lat="41.2287840" lon="1.3725200">
        <ele>141.6</ele>
        <time>2021-05-07T20:20:38Z</time>
      </trkpt>
      <trkpt lat="41.2288470" lon="1.3726440">
        <ele>140.8</ele>
        <time>2021-05-07T20:20:42Z</time>
      </trkpt>
      <trkpt lat="41.2289180" lon="1.3727780">
        <ele>139.6</ele>
        <time>2021-05-07T20:20:47Z</time>
      </trkpt>
      <trkpt lat="41.2289460" lon="1.3728210">
        <ele>139.6</ele>
        <time>2021-05-07T20:20:49Z</time>
      </trkpt>
      <trkpt lat="41.2290310" lon="1.3729500">
        <ele>139.4</ele>
        <time>2021-05-07T20:20:56Z</time>
      </trkpt>
      <trkpt lat="41.2291120" lon="1.3730780">
        <ele>140.2</ele>
        <time>2021-05-07T20:21:04Z</time>
      </trkpt>
      <trkpt lat="41.2291660" lon="1.3731670">
        <ele>140.8</ele>
        <time>2021-05-07T20:21:09Z</time>
      </trkpt>
      <trkpt lat="41.2291880" lon="1.3732010">
        <ele>140.8</ele>
        <time>2021-05-07T20:21:11Z</time>
      </trkpt>
      <trkpt lat="41.2291940" lon="1.3732160">
        <ele>141.0</ele>
        <time>2021-05-07T20:21:12Z</time>
      </trkpt>
      <trkpt lat="41.2292210" lon="1.3732770">
        <ele>141.4</ele>
        <time>2021-05-07T20:21:16Z</time>
      </trkpt>
      <trkpt lat="41.2292360" lon="1.3732820">
        <ele>141.6</ele>
        <time>2021-05-07T20:21:17Z</time>
      </trkpt>
      <trkpt lat="41.2292660" lon="1.3732930">
        <ele>141.8</ele>
        <time>2021-05-07T20:21:19Z</time>
      </trkpt>
      <trkpt lat="41.2293020" lon="1.3733200">
        <ele>142.2</ele>
        <time>2021-05-07T20:21:22Z</time>
      </trkpt>
      <trkpt lat="41.2293450" lon="1.3734020">
        <ele>142.8</ele>
        <time>2021-05-07T20:21:27Z</time>
      </trkpt>
      <trkpt lat="41.2293500" lon="1.3734190">
        <ele>143.0</ele>
        <time>2021-05-07T20:21:28Z</time>
      </trkpt>
      <trkpt lat="41.2294070" lon="1.3735490">
        <ele>143.6</ele>
        <time>2021-05-07T20:21:35Z</time>
      </trkpt>
      <trkpt lat="41.2294420" lon="1.3735810">
        <ele>144.0</ele>
        <time>2021-05-07T20:21:38Z</time>
      </trkpt>
      <trkpt lat="41.2294550" lon="1.3735950">
        <ele>144.0</ele>
        <time>2021-05-07T20:21:39Z</time>
      </trkpt>
      <trkpt lat="41.2294640" lon="1.3736110">
        <ele>144.2</ele>
        <time>2021-05-07T20:21:40Z</time>
      </trkpt>
      <trkpt lat="41.2294930" lon="1.3736670">
        <ele>144.2</ele>
        <time>2021-05-07T20:21:43Z</time>
      </trkpt>
      <trkpt lat="41.2295280" lon="1.3737190">
        <ele>144.6</ele>
        <time>2021-05-07T20:21:46Z</time>
      </trkpt>
      <trkpt lat="41.2295400" lon="1.3737420">
        <ele>144.8</ele>
        <time>2021-05-07T20:21:47Z</time>
      </trkpt>
      <trkpt lat="41.2295610" lon="1.3737830">
        <ele>145.0</ele>
        <time>2021-05-07T20:21:49Z</time>
      </trkpt>
      <trkpt lat="41.2295740" lon="1.3738030">
        <ele>145.2</ele>
        <time>2021-05-07T20:21:50Z</time>
      </trkpt>
      <trkpt lat="41.2296220" lon="1.3738540">
        <ele>145.4</ele>
        <time>2021-05-07T20:21:53Z</time>
      </trkpt>
      <trkpt lat="41.2296580" lon="1.3739090">
        <ele>145.6</ele>
        <time>2021-05-07T20:21:56Z</time>
      </trkpt>
      <trkpt lat="41.2296810" lon="1.3739490">
        <ele>146.0</ele>
        <time>2021-05-07T20:21:58Z</time>
      </trkpt>
      <trkpt lat="41.2297220" lon="1.3739950">
        <ele>146.2</ele>
        <time>2021-05-07T20:22:01Z</time>
      </trkpt>
      <trkpt lat="41.2297320" lon="1.3740170">
        <ele>146.2</ele>
        <time>2021-05-07T20:22:02Z</time>
      </trkpt>
      <trkpt lat="41.2297480" lon="1.3740290">
        <ele>146.4</ele>
        <time>2021-05-07T20:22:03Z</time>
      </trkpt>
      <trkpt lat="41.2297880" lon="1.3740480">
        <ele>146.8</ele>
        <time>2021-05-07T20:22:06Z</time>
      </trkpt>
      <trkpt lat="41.2297960" lon="1.3740530">
        <ele>147.0</ele>
        <time>2021-05-07T20:22:08Z</time>
      </trkpt>
      <trkpt lat="41.2296660" lon="1.3741140">
        <ele>147.0</ele>
        <time>2021-05-07T20:22:19Z</time>
      </trkpt>
      <trkpt lat="41.2296430" lon="1.3741180">
        <ele>147.0</ele>
        <time>2021-05-07T20:22:20Z</time>
      </trkpt>
      <trkpt lat="41.2296330" lon="1.3741090">
        <ele>147.0</ele>
        <time>2021-05-07T20:22:23Z</time>
      </trkpt>
      <trkpt lat="41.2296320" lon="1.3741500">
        <ele>146.8</ele>
        <time>2021-05-07T20:22:27Z</time>
      </trkpt>
      <trkpt lat="41.2295940" lon="1.3741760">
        <ele>146.8</ele>
        <time>2021-05-07T20:22:29Z</time>
      </trkpt>
      <trkpt lat="41.2295790" lon="1.3741750">
        <ele>146.8</ele>
        <time>2021-05-07T20:22:31Z</time>
      </trkpt>
      <trkpt lat="41.2294940" lon="1.3741500">
        <ele>146.4</ele>
        <time>2021-05-07T20:22:54Z</time>
      </trkpt>
      <trkpt lat="41.2294790" lon="1.3741380">
        <ele>146.0</ele>
        <time>2021-05-07T20:22:55Z</time>
      </trkpt>
      <trkpt lat="41.2294290" lon="1.3740860">
        <ele>145.2</ele>
        <time>2021-05-07T20:22:59Z</time>
      </trkpt>
      <trkpt lat="41.2293860" lon="1.3740570">
        <ele>145.0</ele>
        <time>2021-05-07T20:23:02Z</time>
      </trkpt>
      <trkpt lat="41.2293430" lon="1.3740640">
        <ele>144.8</ele>
        <time>2021-05-07T20:23:04Z</time>
      </trkpt>
      <trkpt lat="41.2293250" lon="1.3740660">
        <ele>144.8</ele>
        <time>2021-05-07T20:23:05Z</time>
      </trkpt>
      <trkpt lat="41.2292720" lon="1.3740690">
        <ele>144.6</ele>
        <time>2021-05-07T20:23:09Z</time>
      </trkpt>
      <trkpt lat="41.2292720" lon="1.3740690">
        <ele>147.8</ele>
        <time>2021-05-07T20:33:01Z</time>
      </trkpt>
      <trkpt lat="41.2299740" lon="1.3756450">
        <ele>147.8</ele>
        <time>2021-05-07T20:33:06Z</time>
      </trkpt>
      <trkpt lat="41.2299860" lon="1.3756230">
        <ele>147.8</ele>
        <time>2021-05-07T20:33:08Z</time>
      </trkpt>
      <trkpt lat="41.2299970" lon="1.3755590">
        <ele>147.4</ele>
        <time>2021-05-07T20:33:12Z</time>
      </trkpt>
      <trkpt lat="41.2299640" lon="1.3755230">
        <ele>147.2</ele>
        <time>2021-05-07T20:33:19Z</time>
      </trkpt>
      <trkpt lat="41.2299910" lon="1.3755100">
        <ele>147.2</ele>
        <time>2021-05-07T20:33:21Z</time>
      </trkpt>
      <trkpt lat="41.2300100" lon="1.3754860">
        <ele>147.0</ele>
        <time>2021-05-07T20:33:24Z</time>
      </trkpt>
      <trkpt lat="41.2300070" lon="1.3754720">
        <ele>147.0</ele>
        <time>2021-05-07T20:33:25Z</time>
      </trkpt>
      <trkpt lat="41.2299850" lon="1.3754580">
        <ele>147.0</ele>
        <time>2021-05-07T20:33:29Z</time>
      </trkpt>
      <trkpt lat="41.2299600" lon="1.3754590">
        <ele>146.2</ele>
        <time>2021-05-07T20:34:37Z</time>
      </trkpt>
      <trkpt lat="41.2298780" lon="1.3753340">
        <ele>146.6</ele>
        <time>2021-05-07T20:34:43Z</time>
      </trkpt>
      <trkpt lat="41.2297970" lon="1.3751860">
        <ele>146.8</ele>
        <time>2021-05-07T20:34:51Z</time>
      </trkpt>
      <trkpt lat="41.2296960" lon="1.3750310">
        <ele>146.4</ele>
        <time>2021-05-07T20:34:58Z</time>
      </trkpt>
      <trkpt lat="41.2296210" lon="1.3748620">
        <ele>146.8</ele>
        <time>2021-05-07T20:35:04Z</time>
      </trkpt>
      <trkpt lat="41.2295840" lon="1.3747470">
        <ele>147.0</ele>
        <time>2021-05-07T20:35:08Z</time>
      </trkpt>
      <trkpt lat="41.2295680" lon="1.3747330">
        <ele>147.0</ele>
        <time>2021-05-07T20:35:09Z</time>
      </trkpt>
      <trkpt lat="41.2294820" lon="1.3746670">
        <ele>148.0</ele>
        <time>2021-05-07T20:35:14Z</time>
      </trkpt>
      <trkpt lat="41.2294230" lon="1.3746370">
        <ele>148.2</ele>
        <time>2021-05-07T20:35:17Z</time>
      </trkpt>
      <trkpt lat="41.2293450" lon="1.3746220">
        <ele>147.8</ele>
        <time>2021-05-07T20:35:21Z</time>
      </trkpt>
      <trkpt lat="41.2293240" lon="1.3746270">
        <ele>147.8</ele>
        <time>2021-05-07T20:35:22Z</time>
      </trkpt>
      <trkpt lat="41.2292130" lon="1.3746790">
        <ele>147.4</ele>
        <time>2021-05-07T20:35:28Z</time>
      </trkpt>
      <trkpt lat="41.2291080" lon="1.3748180">
        <ele>147.8</ele>
        <time>2021-05-07T20:35:35Z</time>
      </trkpt>
      <trkpt lat="41.2289860" lon="1.3749560">
        <ele>147.4</ele>
        <time>2021-05-07T20:35:42Z</time>
      </trkpt>
      <trkpt lat="41.2289240" lon="1.3750010">
        <ele>147.4</ele>
        <time>2021-05-07T20:35:46Z</time>
      </trkpt>
      <trkpt lat="41.2288970" lon="1.3750230">
        <ele>147.4</ele>
        <time>2021-05-07T20:35:48Z</time>
      </trkpt>
      <trkpt lat="41.2287930" lon="1.3751050">
        <ele>147.8</ele>
        <time>2021-05-07T20:35:55Z</time>
      </trkpt>
      <trkpt lat="41.2287030" lon="1.3751800">
        <ele>148.2</ele>
        <time>2021-05-07T20:36:01Z</time>
      </trkpt>
      <trkpt lat="41.2286480" lon="1.3752740">
        <ele>148.8</ele>
        <time>2021-05-07T20:36:07Z</time>
      </trkpt>
      <trkpt lat="41.2286370" lon="1.3752930">
        <ele>149.2</ele>
        <time>2021-05-07T20:36:08Z</time>
      </trkpt>
      <trkpt lat="41.2285630" lon="1.3754680">
        <ele>149.2</ele>
        <time>2021-05-07T20:36:15Z</time>
      </trkpt>
      <trkpt lat="41.2284820" lon="1.3756060">
        <ele>149.2</ele>
        <time>2021-05-07T20:36:22Z</time>
      </trkpt>
      <trkpt lat="41.2284140" lon="1.3757240">
        <ele>149.6</ele>
        <time>2021-05-07T20:36:28Z</time>
      </trkpt>
      <trkpt lat="41.2283520" lon="1.3758210">
        <ele>150.2</ele>
        <time>2021-05-07T20:36:33Z</time>
      </trkpt>
      <trkpt lat="41.2283310" lon="1.3758560">
        <ele>150.4</ele>
        <time>2021-05-07T20:36:35Z</time>
      </trkpt>
      <trkpt lat="41.2282770" lon="1.3759690">
        <ele>151.2</ele>
        <time>2021-05-07T20:36:42Z</time>
      </trkpt>
      <trkpt lat="41.2282670" lon="1.3759800">
        <ele>151.2</ele>
        <time>2021-05-07T20:36:43Z</time>
      </trkpt>
      <trkpt lat="41.2282350" lon="1.3760100">
        <ele>151.4</ele>
        <time>2021-05-07T20:36:47Z</time>
      </trkpt>
      <trkpt lat="41.2282170" lon="1.3759930">
        <ele>151.4</ele>
        <time>2021-05-07T20:36:49Z</time>
      </trkpt>
      <trkpt lat="41.2282520" lon="1.3759330">
        <ele>151.4</ele>
        <time>2021-05-07T20:36:53Z</time>
      </trkpt>
      <trkpt lat="41.2282690" lon="1.3759850">
        <ele>151.6</ele>
        <time>2021-05-07T20:36:56Z</time>
      </trkpt>
      <trkpt lat="41.2282480" lon="1.3760260">
        <ele>151.6</ele>
        <time>2021-05-07T20:36:58Z</time>
      </trkpt>
      <trkpt lat="41.2281710" lon="1.3761280">
        <ele>152.2</ele>
        <time>2021-05-07T20:37:03Z</time>
      </trkpt>
      <trkpt lat="41.2280540" lon="1.3762920">
        <ele>153.0</ele>
        <time>2021-05-07T20:37:11Z</time>
      </trkpt>
      <trkpt lat="41.2280090" lon="1.3763540">
        <ele>153.2</ele>
        <time>2021-05-07T20:37:14Z</time>
      </trkpt>
      <trkpt lat="41.2279310" lon="1.3764740">
        <ele>154.0</ele>
        <time>2021-05-07T20:37:20Z</time>
      </trkpt>
      <trkpt lat="41.2278870" lon="1.3765540">
        <ele>154.4</ele>
        <time>2021-05-07T20:37:24Z</time>
      </trkpt>
      <trkpt lat="41.2278080" lon="1.3766640">
        <ele>155.2</ele>
        <time>2021-05-07T20:37:30Z</time>
      </trkpt>
      <trkpt lat="41.2277400" lon="1.3767790">
        <ele>155.8</ele>
        <time>2021-05-07T20:37:36Z</time>
      </trkpt>
      <trkpt lat="41.2276700" lon="1.3768680">
        <ele>156.4</ele>
        <time>2021-05-07T20:37:41Z</time>
      </trkpt>
      <trkpt lat="41.2276020" lon="1.3769640">
        <ele>156.8</ele>
        <time>2021-05-07T20:37:46Z</time>
      </trkpt>
      <trkpt lat="41.2275620" lon="1.3770190">
        <ele>157.4</ele>
        <time>2021-05-07T20:37:49Z</time>
      </trkpt>
      <trkpt lat="41.2275220" lon="1.3771270">
        <ele>158.0</ele>
        <time>2021-05-07T20:37:54Z</time>
      </trkpt>
      <trkpt lat="41.2275400" lon="1.3772370">
        <ele>158.4</ele>
        <time>2021-05-07T20:37:59Z</time>
      </trkpt>
      <trkpt lat="41.2275520" lon="1.3772800">
        <ele>158.6</ele>
        <time>2021-05-07T20:38:01Z</time>
      </trkpt>
      <trkpt lat="41.2275530" lon="1.3774390">
        <ele>158.8</ele>
        <time>2021-05-07T20:38:08Z</time>
      </trkpt>
      <trkpt lat="41.2274600" lon="1.3775460">
        <ele>159.2</ele>
        <time>2021-05-07T20:38:15Z</time>
      </trkpt>
      <trkpt lat="41.2273720" lon="1.3776210">
        <ele>159.2</ele>
        <time>2021-05-07T20:38:21Z</time>
      </trkpt>
      <trkpt lat="41.2272690" lon="1.3777230">
        <ele>159.2</ele>
        <time>2021-05-07T20:38:28Z</time>
      </trkpt>
      <trkpt lat="41.2271580" lon="1.3778390">
        <ele>159.0</ele>
        <time>2021-05-07T20:38:35Z</time>
      </trkpt>
      <trkpt lat="41.2271290" lon="1.3778800">
        <ele>159.2</ele>
        <time>2021-05-07T20:38:37Z</time>
      </trkpt>
      <trkpt lat="41.2270440" lon="1.3779710">
        <ele>159.2</ele>
        <time>2021-05-07T20:38:42Z</time>
      </trkpt>
      <trkpt lat="41.2269220" lon="1.3780680">
        <ele>159.2</ele>
        <time>2021-05-07T20:38:49Z</time>
      </trkpt>
      <trkpt lat="41.2267890" lon="1.3781400">
        <ele>159.4</ele>
        <time>2021-05-07T20:38:56Z</time>
      </trkpt>
      <trkpt lat="41.2266820" lon="1.3782060">
        <ele>160.4</ele>
        <time>2021-05-07T20:39:03Z</time>
      </trkpt>
      <trkpt lat="41.2266550" lon="1.3782230">
        <ele>160.4</ele>
        <time>2021-05-07T20:39:05Z</time>
      </trkpt>
      <trkpt lat="41.2265470" lon="1.3782990">
        <ele>161.4</ele>
        <time>2021-05-07T20:39:13Z</time>
      </trkpt>
      <trkpt lat="41.2264530" lon="1.3783740">
        <ele>162.4</ele>
        <time>2021-05-07T20:39:20Z</time>
      </trkpt>
      <trkpt lat="41.2264400" lon="1.3783860">
        <ele>162.6</ele>
        <time>2021-05-07T20:39:21Z</time>
      </trkpt>
      <trkpt lat="41.2263610" lon="1.3785010">
        <ele>163.6</ele>
        <time>2021-05-07T20:39:28Z</time>
      </trkpt>
      <trkpt lat="41.2263400" lon="1.3785380">
        <ele>164.0</ele>
        <time>2021-05-07T20:39:30Z</time>
      </trkpt>
      <trkpt lat="41.2263230" lon="1.3785810">
        <ele>164.6</ele>
        <time>2021-05-07T20:39:32Z</time>
      </trkpt>
      <trkpt lat="41.2262430" lon="1.3787350">
        <ele>165.4</ele>
        <time>2021-05-07T20:39:39Z</time>
      </trkpt>
      <trkpt lat="41.2262050" lon="1.3787990">
        <ele>165.6</ele>
        <time>2021-05-07T20:39:42Z</time>
      </trkpt>
      <trkpt lat="41.2261350" lon="1.3789170">
        <ele>165.8</ele>
        <time>2021-05-07T20:39:47Z</time>
      </trkpt>
      <trkpt lat="41.2260130" lon="1.3791400">
        <ele>165.0</ele>
        <time>2021-05-07T20:39:55Z</time>
      </trkpt>
      <trkpt lat="41.2259470" lon="1.3792370">
        <ele>164.6</ele>
        <time>2021-05-07T20:39:59Z</time>
      </trkpt>
      <trkpt lat="41.2258510" lon="1.3793600">
        <ele>164.2</ele>
        <time>2021-05-07T20:40:04Z</time>
      </trkpt>
      <trkpt lat="41.2257170" lon="1.3796100">
        <ele>163.8</ele>
        <time>2021-05-07T20:40:13Z</time>
      </trkpt>
      <trkpt lat="41.2256910" lon="1.3796820">
        <ele>163.4</ele>
        <time>2021-05-07T20:40:15Z</time>
      </trkpt>
      <trkpt lat="41.2256160" lon="1.3798960">
        <ele>163.2</ele>
        <time>2021-05-07T20:40:20Z</time>
      </trkpt>
      <trkpt lat="41.2255950" lon="1.3800360">
        <ele>162.4</ele>
        <time>2021-05-07T20:40:23Z</time>
      </trkpt>
      <trkpt lat="41.2256010" lon="1.3801750">
        <ele>161.8</ele>
        <time>2021-05-07T20:40:26Z</time>
      </trkpt>
      <trkpt lat="41.2256550" lon="1.3804930">
        <ele>161.8</ele>
        <time>2021-05-07T20:40:34Z</time>
      </trkpt>
      <trkpt lat="41.2257530" lon="1.3806960">
        <ele>162.6</ele>
        <time>2021-05-07T20:40:41Z</time>
      </trkpt>
      <trkpt lat="41.2259030" lon="1.3808510">
        <ele>162.4</ele>
        <time>2021-05-07T20:40:48Z</time>
      </trkpt>
      <trkpt lat="41.2261520" lon="1.3810790">
        <ele>161.4</ele>
        <time>2021-05-07T20:40:56Z</time>
      </trkpt>
      <trkpt lat="41.2263080" lon="1.3812410">
        <ele>160.2</ele>
        <time>2021-05-07T20:41:00Z</time>
      </trkpt>
      <trkpt lat="41.2263960" lon="1.3813400">
        <ele>159.4</ele>
        <time>2021-05-07T20:41:02Z</time>
      </trkpt>
      <trkpt lat="41.2264410" lon="1.3813890">
        <ele>159.2</ele>
        <time>2021-05-07T20:41:03Z</time>
      </trkpt>
      <trkpt lat="41.2266740" lon="1.3816500">
        <ele>158.2</ele>
        <time>2021-05-07T20:41:08Z</time>
      </trkpt>
      <trkpt lat="41.2267080" lon="1.3817170">
        <ele>158.0</ele>
        <time>2021-05-07T20:41:09Z</time>
      </trkpt>
      <trkpt lat="41.2267740" lon="1.3820300">
        <ele>157.4</ele>
        <time>2021-05-07T20:41:13Z</time>
      </trkpt>
      <trkpt lat="41.2267720" lon="1.3821220">
        <ele>157.0</ele>
        <time>2021-05-07T20:41:14Z</time>
      </trkpt>
      <trkpt lat="41.2267640" lon="1.3822160">
        <ele>156.6</ele>
        <time>2021-05-07T20:41:15Z</time>
      </trkpt>
      <trkpt lat="41.2267290" lon="1.3824950">
        <ele>156.2</ele>
        <time>2021-05-07T20:41:18Z</time>
      </trkpt>
      <trkpt lat="41.2267030" lon="1.3826690">
        <ele>156.0</ele>
        <time>2021-05-07T20:41:20Z</time>
      </trkpt>
      <trkpt lat="41.2266380" lon="1.3830480">
        <ele>156.0</ele>
        <time>2021-05-07T20:41:25Z</time>
      </trkpt>
      <trkpt lat="41.2265980" lon="1.3833190">
        <ele>156.8</ele>
        <time>2021-05-07T20:41:30Z</time>
      </trkpt>
      <trkpt lat="41.2265890" lon="1.3833900">
        <ele>157.0</ele>
        <time>2021-05-07T20:41:32Z</time>
      </trkpt>
      <trkpt lat="41.2265640" lon="1.3835470">
        <ele>157.2</ele>
        <time>2021-05-07T20:41:37Z</time>
      </trkpt>
      <trkpt lat="41.2265780" lon="1.3838270">
        <ele>156.8</ele>
        <time>2021-05-07T20:41:45Z</time>
      </trkpt>
      <trkpt lat="41.2266410" lon="1.3841520">
        <ele>156.0</ele>
        <time>2021-05-07T20:41:53Z</time>
      </trkpt>
      <trkpt lat="41.2266270" lon="1.3842550">
        <ele>155.8</ele>
        <time>2021-05-07T20:41:55Z</time>
      </trkpt>
      <trkpt lat="41.2266080" lon="1.3843080">
        <ele>155.8</ele>
        <time>2021-05-07T20:41:56Z</time>
      </trkpt>
      <trkpt lat="41.2265840" lon="1.3843570">
        <ele>155.6</ele>
        <time>2021-05-07T20:41:57Z</time>
      </trkpt>
      <trkpt lat="41.2265340" lon="1.3845650">
        <ele>155.6</ele>
        <time>2021-05-07T20:42:02Z</time>
      </trkpt>
      <trkpt lat="41.2266030" lon="1.3847570">
        <ele>156.8</ele>
        <time>2021-05-07T20:42:08Z</time>
      </trkpt>
      <trkpt lat="41.2266190" lon="1.3847840">
        <ele>156.8</ele>
        <time>2021-05-07T20:42:09Z</time>
      </trkpt>
      <trkpt lat="41.2267390" lon="1.3849850">
        <ele>157.6</ele>
        <time>2021-05-07T20:42:17Z</time>
      </trkpt>
      <trkpt lat="41.2267650" lon="1.3850370">
        <ele>157.8</ele>
        <time>2021-05-07T20:42:19Z</time>
      </trkpt>
      <trkpt lat="41.2268350" lon="1.3851540">
        <ele>158.2</ele>
        <time>2021-05-07T20:42:24Z</time>
      </trkpt>
      <trkpt lat="41.2269140" lon="1.3852820">
        <ele>159.0</ele>
        <time>2021-05-07T20:42:30Z</time>
      </trkpt>
      <trkpt lat="41.2269570" lon="1.3853410">
        <ele>159.6</ele>
        <time>2021-05-07T20:42:33Z</time>
      </trkpt>
      <trkpt lat="41.2270340" lon="1.3854170">
        <ele>160.0</ele>
        <time>2021-05-07T20:42:38Z</time>
      </trkpt>
      <trkpt lat="41.2270940" lon="1.3854850">
        <ele>160.8</ele>
        <time>2021-05-07T20:42:42Z</time>
      </trkpt>
      <trkpt lat="41.2271400" lon="1.3855500">
        <ele>161.0</ele>
        <time>2021-05-07T20:42:45Z</time>
      </trkpt>
      <trkpt lat="41.2272200" lon="1.3856740">
        <ele>161.8</ele>
        <time>2021-05-07T20:42:51Z</time>
      </trkpt>
      <trkpt lat="41.2272540" lon="1.3857320">
        <ele>162.2</ele>
        <time>2021-05-07T20:42:54Z</time>
      </trkpt>
      <trkpt lat="41.2272850" lon="1.3857900">
        <ele>162.6</ele>
        <time>2021-05-07T20:42:57Z</time>
      </trkpt>
      <trkpt lat="41.2273480" lon="1.3858750">
        <ele>163.4</ele>
        <time>2021-05-07T20:43:02Z</time>
      </trkpt>
      <trkpt lat="41.2273600" lon="1.3858930">
        <ele>163.6</ele>
        <time>2021-05-07T20:43:03Z</time>
      </trkpt>
      <trkpt lat="41.2273890" lon="1.3859440">
        <ele>164.0</ele>
        <time>2021-05-07T20:43:06Z</time>
      </trkpt>
      <trkpt lat="41.2274180" lon="1.3859730">
        <ele>164.2</ele>
        <time>2021-05-07T20:43:08Z</time>
      </trkpt>
      <trkpt lat="41.2274320" lon="1.3859890">
        <ele>164.4</ele>
        <time>2021-05-07T20:43:09Z</time>
      </trkpt>
      <trkpt lat="41.2275010" lon="1.3860510">
        <ele>165.4</ele>
        <time>2021-05-07T20:43:14Z</time>
      </trkpt>
      <trkpt lat="41.2275180" lon="1.3860590">
        <ele>165.6</ele>
        <time>2021-05-07T20:43:15Z</time>
      </trkpt>
      <trkpt lat="41.2275850" lon="1.3860800">
        <ele>166.0</ele>
        <time>2021-05-07T20:43:19Z</time>
      </trkpt>
      <trkpt lat="41.2277020" lon="1.3861220">
        <ele>166.6</ele>
        <time>2021-05-07T20:43:26Z</time>
      </trkpt>
      <trkpt lat="41.2277200" lon="1.3861290">
        <ele>166.8</ele>
        <time>2021-05-07T20:43:27Z</time>
      </trkpt>
      <trkpt lat="41.2277880" lon="1.3861650">
        <ele>167.6</ele>
        <time>2021-05-07T20:43:31Z</time>
      </trkpt>
      <trkpt lat="41.2278420" lon="1.3861980">
        <ele>168.2</ele>
        <time>2021-05-07T20:43:34Z</time>
      </trkpt>
      <trkpt lat="41.2279520" lon="1.3863010">
        <ele>168.6</ele>
        <time>2021-05-07T20:43:41Z</time>
      </trkpt>
      <trkpt lat="41.2279890" lon="1.3863400">
        <ele>168.6</ele>
        <time>2021-05-07T20:43:44Z</time>
      </trkpt>
      <trkpt lat="41.2280020" lon="1.3863510">
        <ele>168.8</ele>
        <time>2021-05-07T20:43:45Z</time>
      </trkpt>
      <trkpt lat="41.2280480" lon="1.3863930">
        <ele>169.0</ele>
        <time>2021-05-07T20:43:48Z</time>
      </trkpt>
      <trkpt lat="41.2281250" lon="1.3864630">
        <ele>169.8</ele>
        <time>2021-05-07T20:43:53Z</time>
      </trkpt>
      <trkpt lat="41.2281380" lon="1.3864790">
        <ele>170.0</ele>
        <time>2021-05-07T20:43:54Z</time>
      </trkpt>
      <trkpt lat="41.2281810" lon="1.3865510">
        <ele>170.2</ele>
        <time>2021-05-07T20:43:58Z</time>
      </trkpt>
      <trkpt lat="41.2281940" lon="1.3865700">
        <ele>170.4</ele>
        <time>2021-05-07T20:43:59Z</time>
      </trkpt>
      <trkpt lat="41.2282490" lon="1.3866570">
        <ele>170.6</ele>
        <time>2021-05-07T20:44:04Z</time>
      </trkpt>
      <trkpt lat="41.2282600" lon="1.3867040">
        <ele>170.8</ele>
        <time>2021-05-07T20:44:06Z</time>
      </trkpt>
      <trkpt lat="41.2282750" lon="1.3868890">
        <ele>171.4</ele>
        <time>2021-05-07T20:44:13Z</time>
      </trkpt>
      <trkpt lat="41.2282430" lon="1.3871250">
        <ele>171.6</ele>
        <time>2021-05-07T20:44:21Z</time>
      </trkpt>
      <trkpt lat="41.2282390" lon="1.3873640">
        <ele>171.6</ele>
        <time>2021-05-07T20:44:29Z</time>
      </trkpt>
      <trkpt lat="41.2282360" lon="1.3874980">
        <ele>172.0</ele>
        <time>2021-05-07T20:44:34Z</time>
      </trkpt>
      <trkpt lat="41.2282420" lon="1.3876060">
        <ele>172.2</ele>
        <time>2021-05-07T20:44:38Z</time>
      </trkpt>
      <trkpt lat="41.2282540" lon="1.3878180">
        <ele>173.0</ele>
        <time>2021-05-07T20:44:46Z</time>
      </trkpt>
      <trkpt lat="41.2282550" lon="1.3878720">
        <ele>173.2</ele>
        <time>2021-05-07T20:44:48Z</time>
      </trkpt>
      <trkpt lat="41.2282600" lon="1.3882060">
        <ele>174.0</ele>
        <time>2021-05-07T20:45:00Z</time>
      </trkpt>
      <trkpt lat="41.2282610" lon="1.3883190">
        <ele>174.0</ele>
        <time>2021-05-07T20:45:04Z</time>
      </trkpt>
      <trkpt lat="41.2282640" lon="1.3885190">
        <ele>174.6</ele>
        <time>2021-05-07T20:45:11Z</time>
      </trkpt>
      <trkpt lat="41.2282620" lon="1.3886600">
        <ele>175.0</ele>
        <time>2021-05-07T20:45:16Z</time>
      </trkpt>
      <trkpt lat="41.2282510" lon="1.3887680">
        <ele>175.2</ele>
        <time>2021-05-07T20:45:20Z</time>
      </trkpt>
      <trkpt lat="41.2281490" lon="1.3889550">
        <ele>175.8</ele>
        <time>2021-05-07T20:45:28Z</time>
      </trkpt>
      <trkpt lat="41.2280540" lon="1.3890350">
        <ele>176.2</ele>
        <time>2021-05-07T20:45:33Z</time>
      </trkpt>
      <trkpt lat="41.2279680" lon="1.3891260">
        <ele>176.2</ele>
        <time>2021-05-07T20:45:38Z</time>
      </trkpt>
      <trkpt lat="41.2278550" lon="1.3893580">
        <ele>176.2</ele>
        <time>2021-05-07T20:45:47Z</time>
      </trkpt>
      <trkpt lat="41.2277420" lon="1.3895930">
        <ele>176.4</ele>
        <time>2021-05-07T20:45:56Z</time>
      </trkpt>
      <trkpt lat="41.2276210" lon="1.3898340">
        <ele>176.4</ele>
        <time>2021-05-07T20:46:05Z</time>
      </trkpt>
      <trkpt lat="41.2274780" lon="1.3900860">
        <ele>176.2</ele>
        <time>2021-05-07T20:46:15Z</time>
      </trkpt>
      <trkpt lat="41.2273580" lon="1.3903580">
        <ele>176.8</ele>
        <time>2021-05-07T20:46:26Z</time>
      </trkpt>
      <trkpt lat="41.2273080" lon="1.3904810">
        <ele>177.2</ele>
        <time>2021-05-07T20:46:31Z</time>
      </trkpt>
      <trkpt lat="41.2272690" lon="1.3906140">
        <ele>177.8</ele>
        <time>2021-05-07T20:46:36Z</time>
      </trkpt>
      <trkpt lat="41.2272570" lon="1.3907460">
        <ele>178.2</ele>
        <time>2021-05-07T20:46:41Z</time>
      </trkpt>
      <trkpt lat="41.2272590" lon="1.3908210">
        <ele>178.6</ele>
        <time>2021-05-07T20:46:44Z</time>
      </trkpt>
      <trkpt lat="41.2272580" lon="1.3909700">
        <ele>179.2</ele>
        <time>2021-05-07T20:46:50Z</time>
      </trkpt>
      <trkpt lat="41.2272610" lon="1.3910220">
        <ele>179.4</ele>
        <time>2021-05-07T20:46:52Z</time>
      </trkpt>
      <trkpt lat="41.2272690" lon="1.3912390">
        <ele>179.8</ele>
        <time>2021-05-07T20:47:01Z</time>
      </trkpt>
      <trkpt lat="41.2272670" lon="1.3913680">
        <ele>180.2</ele>
        <time>2021-05-07T20:47:07Z</time>
      </trkpt>
      <trkpt lat="41.2272660" lon="1.3914180">
        <ele>180.6</ele>
        <time>2021-05-07T20:47:09Z</time>
      </trkpt>
      <trkpt lat="41.2272170" lon="1.3916180">
        <ele>181.2</ele>
        <time>2021-05-07T20:47:17Z</time>
      </trkpt>
      <trkpt lat="41.2271610" lon="1.3917410">
        <ele>180.6</ele>
        <time>2021-05-07T20:47:23Z</time>
      </trkpt>
      <trkpt lat="41.2271080" lon="1.3919250">
        <ele>181.2</ele>
        <time>2021-05-07T20:47:30Z</time>
      </trkpt>
      <trkpt lat="41.2271220" lon="1.3920720">
        <ele>181.2</ele>
        <time>2021-05-07T20:47:36Z</time>
      </trkpt>
      <trkpt lat="41.2271920" lon="1.3921780">
        <ele>181.2</ele>
        <time>2021-05-07T20:47:43Z</time>
      </trkpt>
      <trkpt lat="41.2272050" lon="1.3921870">
        <ele>181.4</ele>
        <time>2021-05-07T20:47:44Z</time>
      </trkpt>
      <trkpt lat="41.2272800" lon="1.3922330">
        <ele>181.8</ele>
        <time>2021-05-07T20:47:50Z</time>
      </trkpt>
      <trkpt lat="41.2273950" lon="1.3923020">
        <ele>182.4</ele>
        <time>2021-05-07T20:47:57Z</time>
      </trkpt>
      <trkpt lat="41.2275340" lon="1.3924190">
        <ele>182.8</ele>
        <time>2021-05-07T20:48:04Z</time>
      </trkpt>
      <trkpt lat="41.2276510" lon="1.3924940">
        <ele>183.2</ele>
        <time>2021-05-07T20:48:10Z</time>
      </trkpt>
      <trkpt lat="41.2277580" lon="1.3925660">
        <ele>183.4</ele>
        <time>2021-05-07T20:48:16Z</time>
      </trkpt>
      <trkpt lat="41.2277760" lon="1.3925790">
        <ele>183.4</ele>
        <time>2021-05-07T20:48:17Z</time>
      </trkpt>
      <trkpt lat="41.2278740" lon="1.3926960">
        <ele>183.6</ele>
        <time>2021-05-07T20:48:24Z</time>
      </trkpt>
      <trkpt lat="41.2279330" lon="1.3928400">
        <ele>183.6</ele>
        <time>2021-05-07T20:48:30Z</time>
      </trkpt>
      <trkpt lat="41.2279780" lon="1.3930660">
        <ele>183.8</ele>
        <time>2021-05-07T20:48:38Z</time>
      </trkpt>
      <trkpt lat="41.2280010" lon="1.3932090">
        <ele>184.4</ele>
        <time>2021-05-07T20:48:43Z</time>
      </trkpt>
      <trkpt lat="41.2280210" lon="1.3933080">
        <ele>185.0</ele>
        <time>2021-05-07T20:48:47Z</time>
      </trkpt>
      <trkpt lat="41.2280410" lon="1.3933770">
        <ele>185.6</ele>
        <time>2021-05-07T20:48:50Z</time>
      </trkpt>
      <trkpt lat="41.2280650" lon="1.3934640">
        <ele>186.6</ele>
        <time>2021-05-07T20:48:54Z</time>
      </trkpt>
      <trkpt lat="41.2280720" lon="1.3935050">
        <ele>186.8</ele>
        <time>2021-05-07T20:48:56Z</time>
      </trkpt>
      <trkpt lat="41.2280850" lon="1.3936680">
        <ele>186.8</ele>
        <time>2021-05-07T20:49:04Z</time>
      </trkpt>
      <trkpt lat="41.2280630" lon="1.3938650">
        <ele>186.8</ele>
        <time>2021-05-07T20:49:11Z</time>
      </trkpt>
      <trkpt lat="41.2280610" lon="1.3940480">
        <ele>186.4</ele>
        <time>2021-05-07T20:49:18Z</time>
      </trkpt>
      <trkpt lat="41.2280730" lon="1.3940940">
        <ele>186.4</ele>
        <time>2021-05-07T20:49:20Z</time>
      </trkpt>
      <trkpt lat="41.2281320" lon="1.3941590">
        <ele>186.6</ele>
        <time>2021-05-07T20:49:24Z</time>
      </trkpt>
      <trkpt lat="41.2282130" lon="1.3941920">
        <ele>187.2</ele>
        <time>2021-05-07T20:49:30Z</time>
      </trkpt>
      <trkpt lat="41.2283000" lon="1.3942080">
        <ele>187.6</ele>
        <time>2021-05-07T20:49:36Z</time>
      </trkpt>
      <trkpt lat="41.2283500" lon="1.3942190">
        <ele>187.8</ele>
        <time>2021-05-07T20:49:39Z</time>
      </trkpt>
      <trkpt lat="41.2284580" lon="1.3942370">
        <ele>188.6</ele>
        <time>2021-05-07T20:49:45Z</time>
      </trkpt>
      <trkpt lat="41.2284790" lon="1.3942350">
        <ele>188.8</ele>
        <time>2021-05-07T20:49:46Z</time>
      </trkpt>
      <trkpt lat="41.2286190" lon="1.3941480">
        <ele>189.0</ele>
        <time>2021-05-07T20:49:52Z</time>
      </trkpt>
      <trkpt lat="41.2287270" lon="1.3939920">
        <ele>189.8</ele>
        <time>2021-05-07T20:49:58Z</time>
      </trkpt>
      <trkpt lat="41.2288310" lon="1.3938290">
        <ele>190.2</ele>
        <time>2021-05-07T20:50:05Z</time>
      </trkpt>
      <trkpt lat="41.2288920" lon="1.3937110">
        <ele>191.0</ele>
        <time>2021-05-07T20:50:10Z</time>
      </trkpt>
      <trkpt lat="41.2289310" lon="1.3936460">
        <ele>191.4</ele>
        <time>2021-05-07T20:50:13Z</time>
      </trkpt>
      <trkpt lat="41.2289880" lon="1.3935300">
        <ele>191.8</ele>
        <time>2021-05-07T20:50:18Z</time>
      </trkpt>
      <trkpt lat="41.2290260" lon="1.3934640">
        <ele>192.2</ele>
        <time>2021-05-07T20:50:21Z</time>
      </trkpt>
      <trkpt lat="41.2291480" lon="1.3932710">
        <ele>192.8</ele>
        <time>2021-05-07T20:50:30Z</time>
      </trkpt>
      <trkpt lat="41.2291750" lon="1.3932250">
        <ele>192.8</ele>
        <time>2021-05-07T20:50:32Z</time>
      </trkpt>
      <trkpt lat="41.2292740" lon="1.3930610">
        <ele>193.8</ele>
        <time>2021-05-07T20:50:39Z</time>
      </trkpt>
      <trkpt lat="41.2292860" lon="1.3930380">
        <ele>193.8</ele>
        <time>2021-05-07T20:50:40Z</time>
      </trkpt>
      <trkpt lat="41.2293000" lon="1.3930160">
        <ele>193.8</ele>
        <time>2021-05-07T20:50:41Z</time>
      </trkpt>
      <trkpt lat="41.2293770" lon="1.3929520">
        <ele>194.6</ele>
        <time>2021-05-07T20:50:46Z</time>
      </trkpt>
      <trkpt lat="41.2293960" lon="1.3929520">
        <ele>194.8</ele>
        <time>2021-05-07T20:50:47Z</time>
      </trkpt>
      <trkpt lat="41.2294590" lon="1.3929860">
        <ele>195.4</ele>
        <time>2021-05-07T20:50:51Z</time>
      </trkpt>
      <trkpt lat="41.2294950" lon="1.3930660">
        <ele>196.0</ele>
        <time>2021-05-07T20:50:55Z</time>
      </trkpt>
      <trkpt lat="41.2295080" lon="1.3931100">
        <ele>196.0</ele>
        <time>2021-05-07T20:50:57Z</time>
      </trkpt>
      <trkpt lat="41.2295840" lon="1.3932010">
        <ele>197.0</ele>
        <time>2021-05-07T20:51:03Z</time>
      </trkpt>
      <trkpt lat="41.2296000" lon="1.3932070">
        <ele>197.0</ele>
        <time>2021-05-07T20:51:04Z</time>
      </trkpt>
      <trkpt lat="41.2296840" lon="1.3932080">
        <ele>197.4</ele>
        <time>2021-05-07T20:51:09Z</time>
      </trkpt>
      <trkpt lat="41.2298250" lon="1.3932210">
        <ele>197.4</ele>
        <time>2021-05-07T20:51:16Z</time>
      </trkpt>
      <trkpt lat="41.2299030" lon="1.3932630">
        <ele>197.8</ele>
        <time>2021-05-07T20:51:20Z</time>
      </trkpt>
      <trkpt lat="41.2299340" lon="1.3932990">
        <ele>197.8</ele>
        <time>2021-05-07T20:51:22Z</time>
      </trkpt>
      <trkpt lat="41.2299950" lon="1.3934240">
        <ele>198.2</ele>
        <time>2021-05-07T20:51:28Z</time>
      </trkpt>
      <trkpt lat="41.2300140" lon="1.3935730">
        <ele>198.8</ele>
        <time>2021-05-07T20:51:34Z</time>
      </trkpt>
      <trkpt lat="41.2300230" lon="1.3937980">
        <ele>198.4</ele>
        <time>2021-05-07T20:51:40Z</time>
      </trkpt>
      <trkpt lat="41.2300140" lon="1.3941310">
        <ele>197.4</ele>
        <time>2021-05-07T20:51:47Z</time>
      </trkpt>
      <trkpt lat="41.2300130" lon="1.3943980">
        <ele>197.4</ele>
        <time>2021-05-07T20:51:54Z</time>
      </trkpt>
      <trkpt lat="41.2300540" lon="1.3946330">
        <ele>198.2</ele>
        <time>2021-05-07T20:52:02Z</time>
      </trkpt>
      <trkpt lat="41.2300960" lon="1.3947740">
        <ele>198.4</ele>
        <time>2021-05-07T20:52:08Z</time>
      </trkpt>
      <trkpt lat="41.2301600" lon="1.3949210">
        <ele>198.0</ele>
        <time>2021-05-07T20:52:16Z</time>
      </trkpt>
      <trkpt lat="41.2302110" lon="1.3950200">
        <ele>197.8</ele>
        <time>2021-05-07T20:52:21Z</time>
      </trkpt>
      <trkpt lat="41.2302860" lon="1.3951800">
        <ele>196.8</ele>
        <time>2021-05-07T20:52:25Z</time>
      </trkpt>
      <trkpt lat="41.2303060" lon="1.3952290">
        <ele>196.2</ele>
        <time>2021-05-07T20:52:26Z</time>
      </trkpt>
      <trkpt lat="41.2303540" lon="1.3953300">
        <ele>195.4</ele>
        <time>2021-05-07T20:52:28Z</time>
      </trkpt>
      <trkpt lat="41.2304330" lon="1.3954780">
        <ele>194.2</ele>
        <time>2021-05-07T20:52:31Z</time>
      </trkpt>
      <trkpt lat="41.2304790" lon="1.3955850">
        <ele>193.2</ele>
        <time>2021-05-07T20:52:33Z</time>
      </trkpt>
      <trkpt lat="41.2304990" lon="1.3956380">
        <ele>192.8</ele>
        <time>2021-05-07T20:52:34Z</time>
      </trkpt>
      <trkpt lat="41.2305640" lon="1.3957790">
        <ele>192.0</ele>
        <time>2021-05-07T20:52:38Z</time>
      </trkpt>
      <trkpt lat="41.2305820" lon="1.3958070">
        <ele>191.8</ele>
        <time>2021-05-07T20:52:40Z</time>
      </trkpt>
      <trkpt lat="41.2305870" lon="1.3958120">
        <ele>191.8</ele>
        <time>2021-05-07T20:52:42Z</time>
      </trkpt>
      <trkpt lat="41.2306650" lon="1.3958870">
        <ele>191.2</ele>
        <time>2021-05-07T20:54:50Z</time>
      </trkpt>
      <trkpt lat="41.2307020" lon="1.3959220">
        <ele>191.8</ele>
        <time>2021-05-07T20:54:53Z</time>
      </trkpt>
      <trkpt lat="41.2307350" lon="1.3959710">
        <ele>192.0</ele>
        <time>2021-05-07T20:54:57Z</time>
      </trkpt>
      <trkpt lat="41.2307400" lon="1.3959870">
        <ele>192.0</ele>
        <time>2021-05-07T20:54:58Z</time>
      </trkpt>
      <trkpt lat="41.2307790" lon="1.3960240">
        <ele>192.4</ele>
        <time>2021-05-07T20:55:02Z</time>
      </trkpt>
      <trkpt lat="41.2307880" lon="1.3960350">
        <ele>192.6</ele>
        <time>2021-05-07T20:55:03Z</time>
      </trkpt>
      <trkpt lat="41.2307970" lon="1.3960480">
        <ele>192.8</ele>
        <time>2021-05-07T20:55:04Z</time>
      </trkpt>
      <trkpt lat="41.2308720" lon="1.3961550">
        <ele>193.2</ele>
        <time>2021-05-07T20:55:10Z</time>
      </trkpt>
      <trkpt lat="41.2309260" lon="1.3962980">
        <ele>193.4</ele>
        <time>2021-05-07T20:55:15Z</time>
      </trkpt>
      <trkpt lat="41.2309840" lon="1.3965060">
        <ele>193.0</ele>
        <time>2021-05-07T20:55:20Z</time>
      </trkpt>
      <trkpt lat="41.2311050" lon="1.3967290">
        <ele>192.4</ele>
        <time>2021-05-07T20:55:26Z</time>
      </trkpt>
      <trkpt lat="41.2312080" lon="1.3969710">
        <ele>192.2</ele>
        <time>2021-05-07T20:55:33Z</time>
      </trkpt>
      <trkpt lat="41.2312590" lon="1.3972290">
        <ele>192.6</ele>
        <time>2021-05-07T20:55:41Z</time>
      </trkpt>
      <trkpt lat="41.2313130" lon="1.3975290">
        <ele>192.4</ele>
        <time>2021-05-07T20:55:50Z</time>
      </trkpt>
      <trkpt lat="41.2313830" lon="1.3978310">
        <ele>192.0</ele>
        <time>2021-05-07T20:55:58Z</time>
      </trkpt>
      <trkpt lat="41.2313960" lon="1.3980250">
        <ele>191.2</ele>
        <time>2021-05-07T20:56:02Z</time>
      </trkpt>
      <trkpt lat="41.2313870" lon="1.3981250">
        <ele>190.6</ele>
        <time>2021-05-07T20:56:04Z</time>
      </trkpt>
      <trkpt lat="41.2313390" lon="1.3983680">
        <ele>190.2</ele>
        <time>2021-05-07T20:56:09Z</time>
      </trkpt>
      <trkpt lat="41.2313350" lon="1.3984230">
        <ele>189.8</ele>
        <time>2021-05-07T20:56:10Z</time>
      </trkpt>
      <trkpt lat="41.2313930" lon="1.3985930">
        <ele>189.4</ele>
        <time>2021-05-07T20:56:13Z</time>
      </trkpt>
      <trkpt lat="41.2314200" lon="1.3986360">
        <ele>189.0</ele>
        <time>2021-05-07T20:56:14Z</time>
      </trkpt>
      <trkpt lat="41.2315150" lon="1.3987530">
        <ele>188.2</ele>
        <time>2021-05-07T20:56:18Z</time>
      </trkpt>
      <trkpt lat="41.2316270" lon="1.3988850">
        <ele>188.8</ele>
        <time>2021-05-07T20:56:25Z</time>
      </trkpt>
      <trkpt lat="41.2316830" lon="1.3989690">
        <ele>189.8</ele>
        <time>2021-05-07T20:56:32Z</time>
      </trkpt>
      <trkpt lat="41.2316990" lon="1.3989900">
        <ele>190.0</ele>
        <time>2021-05-07T20:56:35Z</time>
      </trkpt>
      <trkpt lat="41.2317190" lon="1.3990200">
        <ele>190.2</ele>
        <time>2021-05-07T20:56:38Z</time>
      </trkpt>
      <trkpt lat="41.2317240" lon="1.3990280">
        <ele>190.4</ele>
        <time>2021-05-07T20:56:39Z</time>
      </trkpt>
      <trkpt lat="41.2317510" lon="1.3990750">
        <ele>190.8</ele>
        <time>2021-05-07T20:56:43Z</time>
      </trkpt>
      <trkpt lat="41.2317590" lon="1.3990860">
        <ele>191.0</ele>
        <time>2021-05-07T20:56:44Z</time>
      </trkpt>
      <trkpt lat="41.2317840" lon="1.3991210">
        <ele>192.2</ele>
        <time>2021-05-07T20:56:48Z</time>
      </trkpt>
      <trkpt lat="41.2318070" lon="1.3991430">
        <ele>192.2</ele>
        <time>2021-05-07T20:56:51Z</time>
      </trkpt>
      <trkpt lat="41.2318170" lon="1.3991560">
        <ele>192.4</ele>
        <time>2021-05-07T20:56:52Z</time>
      </trkpt>
      <trkpt lat="41.2318500" lon="1.3992100">
        <ele>192.8</ele>
        <time>2021-05-07T20:56:55Z</time>
      </trkpt>
      <trkpt lat="41.2318770" lon="1.3992430">
        <ele>193.4</ele>
        <time>2021-05-07T20:56:57Z</time>
      </trkpt>
      <trkpt lat="41.2319200" lon="1.3993080">
        <ele>194.2</ele>
        <time>2021-05-07T20:57:01Z</time>
      </trkpt>
      <trkpt lat="41.2319380" lon="1.3993430">
        <ele>194.6</ele>
        <time>2021-05-07T20:57:03Z</time>
      </trkpt>
      <trkpt lat="41.2319990" lon="1.3994330">
        <ele>195.6</ele>
        <time>2021-05-07T20:57:09Z</time>
      </trkpt>
      <trkpt lat="41.2320110" lon="1.3994490">
        <ele>195.8</ele>
        <time>2021-05-07T20:57:10Z</time>
      </trkpt>
      <trkpt lat="41.2320610" lon="1.3995240">
        <ele>196.8</ele>
        <time>2021-05-07T20:57:15Z</time>
      </trkpt>
      <trkpt lat="41.2321180" lon="1.3995880">
        <ele>197.8</ele>
        <time>2021-05-07T20:57:20Z</time>
      </trkpt>
      <trkpt lat="41.2321500" lon="1.3996370">
        <ele>198.4</ele>
        <time>2021-05-07T20:57:23Z</time>
      </trkpt>
      <trkpt lat="41.2321930" lon="1.3996960">
        <ele>199.0</ele>
        <time>2021-05-07T20:57:27Z</time>
      </trkpt>
      <trkpt lat="41.2322330" lon="1.3997640">
        <ele>199.4</ele>
        <time>2021-05-07T20:57:31Z</time>
      </trkpt>
      <trkpt lat="41.2322980" lon="1.3998790">
        <ele>200.0</ele>
        <time>2021-05-07T20:57:37Z</time>
      </trkpt>
      <trkpt lat="41.2323270" lon="1.3999410">
        <ele>200.4</ele>
        <time>2021-05-07T20:57:40Z</time>
      </trkpt>
      <trkpt lat="41.2323710" lon="1.4000610">
        <ele>201.0</ele>
        <time>2021-05-07T20:57:45Z</time>
      </trkpt>
      <trkpt lat="41.2323840" lon="1.4001150">
        <ele>201.0</ele>
        <time>2021-05-07T20:57:47Z</time>
      </trkpt>
      <trkpt lat="41.2323990" lon="1.4003330">
        <ele>200.0</ele>
        <time>2021-05-07T20:57:53Z</time>
      </trkpt>
      <trkpt lat="41.2323950" lon="1.4005440">
        <ele>198.4</ele>
        <time>2021-05-07T20:57:57Z</time>
      </trkpt>
      <trkpt lat="41.2324120" lon="1.4006670">
        <ele>196.6</ele>
        <time>2021-05-07T20:57:59Z</time>
      </trkpt>
      <trkpt lat="41.2324250" lon="1.4007290">
        <ele>196.0</ele>
        <time>2021-05-07T20:58:00Z</time>
      </trkpt>
      <trkpt lat="41.2324410" lon="1.4007870">
        <ele>195.2</ele>
        <time>2021-05-07T20:58:01Z</time>
      </trkpt>
      <trkpt lat="41.2324520" lon="1.4008450">
        <ele>194.6</ele>
        <time>2021-05-07T20:58:02Z</time>
      </trkpt>
      <trkpt lat="41.2324550" lon="1.4009060">
        <ele>194.0</ele>
        <time>2021-05-07T20:58:03Z</time>
      </trkpt>
      <trkpt lat="41.2324550" lon="1.4009670">
        <ele>193.8</ele>
        <time>2021-05-07T20:58:04Z</time>
      </trkpt>
      <trkpt lat="41.2324510" lon="1.4010290">
        <ele>193.6</ele>
        <time>2021-05-07T20:58:05Z</time>
      </trkpt>
      <trkpt lat="41.2324330" lon="1.4011480">
        <ele>193.2</ele>
        <time>2021-05-07T20:58:07Z</time>
      </trkpt>
      <trkpt lat="41.2323930" lon="1.4012570">
        <ele>193.0</ele>
        <time>2021-05-07T20:58:09Z</time>
      </trkpt>
      <trkpt lat="41.2323030" lon="1.4013920">
        <ele>193.0</ele>
        <time>2021-05-07T20:58:12Z</time>
      </trkpt>
      <trkpt lat="41.2322750" lon="1.4014270">
        <ele>193.4</ele>
        <time>2021-05-07T20:58:13Z</time>
      </trkpt>
      <trkpt lat="41.2322240" lon="1.4014830">
        <ele>194.2</ele>
        <time>2021-05-07T20:58:15Z</time>
      </trkpt>
      <trkpt lat="41.2321750" lon="1.4015380">
        <ele>195.4</ele>
        <time>2021-05-07T20:58:18Z</time>
      </trkpt>
      <trkpt lat="41.2321180" lon="1.4016000">
        <ele>196.4</ele>
        <time>2021-05-07T20:58:22Z</time>
      </trkpt>
      <trkpt lat="41.2320830" lon="1.4016310">
        <ele>197.0</ele>
        <time>2021-05-07T20:58:24Z</time>
      </trkpt>
      <trkpt lat="41.2320060" lon="1.4016740">
        <ele>197.6</ele>
        <time>2021-05-07T20:58:28Z</time>
      </trkpt>
      <trkpt lat="41.2319470" lon="1.4016870">
        <ele>198.0</ele>
        <time>2021-05-07T20:58:31Z</time>
      </trkpt>
      <trkpt lat="41.2318670" lon="1.4016950">
        <ele>198.6</ele>
        <time>2021-05-07T20:58:35Z</time>
      </trkpt>
      <trkpt lat="41.2317970" lon="1.4016990">
        <ele>199.4</ele>
        <time>2021-05-07T20:58:39Z</time>
      </trkpt>
      <trkpt lat="41.2317770" lon="1.4017040">
        <ele>199.8</ele>
        <time>2021-05-07T20:58:40Z</time>
      </trkpt>
      <trkpt lat="41.2316510" lon="1.4017360">
        <ele>200.4</ele>
        <time>2021-05-07T20:58:46Z</time>
      </trkpt>
      <trkpt lat="41.2315390" lon="1.4017610">
        <ele>200.8</ele>
        <time>2021-05-07T20:58:51Z</time>
      </trkpt>
      <trkpt lat="41.2314960" lon="1.4017820">
        <ele>201.0</ele>
        <time>2021-05-07T20:58:53Z</time>
      </trkpt>
      <trkpt lat="41.2313930" lon="1.4018670">
        <ele>201.4</ele>
        <time>2021-05-07T20:58:59Z</time>
      </trkpt>
      <trkpt lat="41.2313250" lon="1.4019350">
        <ele>201.8</ele>
        <time>2021-05-07T20:59:03Z</time>
      </trkpt>
      <trkpt lat="41.2312760" lon="1.4019960">
        <ele>202.0</ele>
        <time>2021-05-07T20:59:06Z</time>
      </trkpt>
      <trkpt lat="41.2311950" lon="1.4021780">
        <ele>201.8</ele>
        <time>2021-05-07T20:59:12Z</time>
      </trkpt>
      <trkpt lat="41.2311710" lon="1.4023900">
        <ele>201.8</ele>
        <time>2021-05-07T20:59:17Z</time>
      </trkpt>
      <trkpt lat="41.2311670" lon="1.4026320">
        <ele>202.0</ele>
        <time>2021-05-07T20:59:23Z</time>
      </trkpt>
      <trkpt lat="41.2311690" lon="1.4028880">
        <ele>201.6</ele>
        <time>2021-05-07T20:59:29Z</time>
      </trkpt>
      <trkpt lat="41.2312100" lon="1.4030900">
        <ele>201.6</ele>
        <time>2021-05-07T20:59:34Z</time>
      </trkpt>
      <trkpt lat="41.2312310" lon="1.4033330">
        <ele>201.2</ele>
        <time>2021-05-07T20:59:39Z</time>
      </trkpt>
      <trkpt lat="41.2312250" lon="1.4034810">
        <ele>200.6</ele>
        <time>2021-05-07T20:59:41Z</time>
      </trkpt>
      <trkpt lat="41.2312050" lon="1.4035840">
        <ele>200.4</ele>
        <time>2021-05-07T20:59:43Z</time>
      </trkpt>
      <trkpt lat="41.2311600" lon="1.4037410">
        <ele>201.8</ele>
        <time>2021-05-07T20:59:47Z</time>
      </trkpt>
      <trkpt lat="41.2311280" lon="1.4038240">
        <ele>202.8</ele>
        <time>2021-05-07T20:59:49Z</time>
      </trkpt>
      <trkpt lat="41.2311150" lon="1.4038670">
        <ele>203.4</ele>
        <time>2021-05-07T20:59:50Z</time>
      </trkpt>
      <trkpt lat="41.2310920" lon="1.4040280">
        <ele>204.0</ele>
        <time>2021-05-07T20:59:54Z</time>
      </trkpt>
      <trkpt lat="41.2310940" lon="1.4040700">
        <ele>204.0</ele>
        <time>2021-05-07T20:59:55Z</time>
      </trkpt>
      <trkpt lat="41.2311020" lon="1.4043020">
        <ele>204.6</ele>
        <time>2021-05-07T21:00:00Z</time>
      </trkpt>
      <trkpt lat="41.2310880" lon="1.4046370">
        <ele>203.4</ele>
        <time>2021-05-07T21:00:04Z</time>
      </trkpt>
      <trkpt lat="41.2310940" lon="1.4047310">
        <ele>203.0</ele>
        <time>2021-05-07T21:00:05Z</time>
      </trkpt>
      <trkpt lat="41.2311050" lon="1.4048260">
        <ele>202.4</ele>
        <time>2021-05-07T21:00:06Z</time>
      </trkpt>
      <trkpt lat="41.2311410" lon="1.4050080">
        <ele>201.4</ele>
        <time>2021-05-07T21:00:08Z</time>
      </trkpt>
      <trkpt lat="41.2311980" lon="1.4052330">
        <ele>201.2</ele>
        <time>2021-05-07T21:00:11Z</time>
      </trkpt>
      <trkpt lat="41.2312540" lon="1.4053660">
        <ele>201.4</ele>
        <time>2021-05-07T21:00:13Z</time>
      </trkpt>
      <trkpt lat="41.2313090" lon="1.4054760">
        <ele>201.4</ele>
        <time>2021-05-07T21:00:15Z</time>
      </trkpt>
      <trkpt lat="41.2313730" lon="1.4055710">
        <ele>201.6</ele>
        <time>2021-05-07T21:00:17Z</time>
      </trkpt>
      <trkpt lat="41.2314960" lon="1.4056780">
        <ele>201.8</ele>
        <time>2021-05-07T21:00:21Z</time>
      </trkpt>
      <trkpt lat="41.2315750" lon="1.4057490">
        <ele>202.6</ele>
        <time>2021-05-07T21:00:25Z</time>
      </trkpt>
      <trkpt lat="41.2315900" lon="1.4057700">
        <ele>203.0</ele>
        <time>2021-05-07T21:00:26Z</time>
      </trkpt>
      <trkpt lat="41.2316370" lon="1.4059180">
        <ele>203.8</ele>
        <time>2021-05-07T21:00:32Z</time>
      </trkpt>
      <trkpt lat="41.2316410" lon="1.4059420">
        <ele>204.0</ele>
        <time>2021-05-07T21:00:33Z</time>
      </trkpt>
      <trkpt lat="41.2316210" lon="1.4061250">
        <ele>204.2</ele>
        <time>2021-05-07T21:00:40Z</time>
      </trkpt>
      <trkpt lat="41.2315970" lon="1.4062190">
        <ele>204.8</ele>
        <time>2021-05-07T21:00:44Z</time>
      </trkpt>
      <trkpt lat="41.2315710" lon="1.4063220">
        <ele>205.8</ele>
        <time>2021-05-07T21:00:48Z</time>
      </trkpt>
      <trkpt lat="41.2315630" lon="1.4063490">
        <ele>205.8</ele>
        <time>2021-05-07T21:00:49Z</time>
      </trkpt>
      <trkpt lat="41.2314980" lon="1.4065310">
        <ele>205.8</ele>
        <time>2021-05-07T21:00:56Z</time>
      </trkpt>
      <trkpt lat="41.2314240" lon="1.4067150">
        <ele>206.4</ele>
        <time>2021-05-07T21:01:03Z</time>
      </trkpt>
      <trkpt lat="41.2313620" lon="1.4068750">
        <ele>206.8</ele>
        <time>2021-05-07T21:01:10Z</time>
      </trkpt>
      <trkpt lat="41.2313500" lon="1.4069430">
        <ele>207.0</ele>
        <time>2021-05-07T21:01:13Z</time>
      </trkpt>
      <trkpt lat="41.2313380" lon="1.4070470">
        <ele>208.2</ele>
        <time>2021-05-07T21:01:18Z</time>
      </trkpt>
      <trkpt lat="41.2313210" lon="1.4071790">
        <ele>208.2</ele>
        <time>2021-05-07T21:01:24Z</time>
      </trkpt>
      <trkpt lat="41.2312930" lon="1.4073340">
        <ele>208.2</ele>
        <time>2021-05-07T21:01:31Z</time>
      </trkpt>
      <trkpt lat="41.2312320" lon="1.4075600">
        <ele>208.8</ele>
        <time>2021-05-07T21:01:40Z</time>
      </trkpt>
      <trkpt lat="41.2312080" lon="1.4076560">
        <ele>209.2</ele>
        <time>2021-05-07T21:01:44Z</time>
      </trkpt>
      <trkpt lat="41.2311920" lon="1.4077010">
        <ele>209.2</ele>
        <time>2021-05-07T21:01:46Z</time>
      </trkpt>
      <trkpt lat="41.2311500" lon="1.4078300">
        <ele>210.2</ele>
        <time>2021-05-07T21:01:52Z</time>
      </trkpt>
      <trkpt lat="41.2311450" lon="1.4078850">
        <ele>211.0</ele>
        <time>2021-05-07T21:01:55Z</time>
      </trkpt>
      <trkpt lat="41.2311320" lon="1.4079830">
        <ele>211.2</ele>
        <time>2021-05-07T21:02:00Z</time>
      </trkpt>
      <trkpt lat="41.2311250" lon="1.4080230">
        <ele>211.4</ele>
        <time>2021-05-07T21:02:02Z</time>
      </trkpt>
      <trkpt lat="41.2311010" lon="1.4081170">
        <ele>212.4</ele>
        <time>2021-05-07T21:02:07Z</time>
      </trkpt>
      <trkpt lat="41.2310950" lon="1.4081330">
        <ele>212.6</ele>
        <time>2021-05-07T21:02:08Z</time>
      </trkpt>
      <trkpt lat="41.2310900" lon="1.4082660">
        <ele>213.0</ele>
        <time>2021-05-07T21:02:15Z</time>
      </trkpt>
      <trkpt lat="41.2310920" lon="1.4082850">
        <ele>213.6</ele>
        <time>2021-05-07T21:02:16Z</time>
      </trkpt>
      <trkpt lat="41.2311170" lon="1.4084150">
        <ele>214.6</ele>
        <time>2021-05-07T21:02:22Z</time>
      </trkpt>
      <trkpt lat="41.2311210" lon="1.4084370">
        <ele>214.6</ele>
        <time>2021-05-07T21:02:23Z</time>
      </trkpt>
      <trkpt lat="41.2311300" lon="1.4086030">
        <ele>214.8</ele>
        <time>2021-05-07T21:02:31Z</time>
      </trkpt>
      <trkpt lat="41.2311200" lon="1.4087520">
        <ele>215.6</ele>
        <time>2021-05-07T21:02:38Z</time>
      </trkpt>
      <trkpt lat="41.2311090" lon="1.4088110">
        <ele>215.8</ele>
        <time>2021-05-07T21:02:41Z</time>
      </trkpt>
      <trkpt lat="41.2310590" lon="1.4089600">
        <ele>216.4</ele>
        <time>2021-05-07T21:02:49Z</time>
      </trkpt>
      <trkpt lat="41.2310460" lon="1.4089950">
        <ele>216.8</ele>
        <time>2021-05-07T21:02:51Z</time>
      </trkpt>
      <trkpt lat="41.2310130" lon="1.4091090">
        <ele>217.2</ele>
        <time>2021-05-07T21:02:57Z</time>
      </trkpt>
      <trkpt lat="41.2309900" lon="1.4092100">
        <ele>221.4</ele>
        <time>2021-05-07T21:03:02Z</time>
      </trkpt>
      <trkpt lat="41.2309800" lon="1.4092480">
        <ele>218.0</ele>
        <time>2021-05-07T21:03:04Z</time>
      </trkpt>
      <trkpt lat="41.2309750" lon="1.4092860">
        <ele>219.0</ele>
        <time>2021-05-07T21:03:06Z</time>
      </trkpt>
      <trkpt lat="41.2309680" lon="1.4093840">
        <ele>219.2</ele>
        <time>2021-05-07T21:03:11Z</time>
      </trkpt>
      <trkpt lat="41.2309580" lon="1.4095660">
        <ele>220.2</ele>
        <time>2021-05-07T21:03:19Z</time>
      </trkpt>
      <trkpt lat="41.2309540" lon="1.4095870">
        <ele>220.4</ele>
        <time>2021-05-07T21:03:20Z</time>
      </trkpt>
      <trkpt lat="41.2309110" lon="1.4097220">
        <ele>221.2</ele>
        <time>2021-05-07T21:03:27Z</time>
      </trkpt>
      <trkpt lat="41.2308930" lon="1.4097650">
        <ele>221.4</ele>
        <time>2021-05-07T21:03:29Z</time>
      </trkpt>
      <trkpt lat="41.2308350" lon="1.4098680">
        <ele>222.0</ele>
        <time>2021-05-07T21:03:35Z</time>
      </trkpt>
      <trkpt lat="41.2307360" lon="1.4100830">
        <ele>222.4</ele>
        <time>2021-05-07T21:03:45Z</time>
      </trkpt>
      <trkpt lat="41.2306930" lon="1.4103150">
        <ele>222.6</ele>
        <time>2021-05-07T21:03:52Z</time>
      </trkpt>
      <trkpt lat="41.2306420" lon="1.4105390">
        <ele>221.6</ele>
        <time>2021-05-07T21:03:58Z</time>
      </trkpt>
      <trkpt lat="41.2306350" lon="1.4105790">
        <ele>221.0</ele>
        <time>2021-05-07T21:03:59Z</time>
      </trkpt>
      <trkpt lat="41.2305720" lon="1.4109060">
        <ele>220.6</ele>
        <time>2021-05-07T21:04:05Z</time>
      </trkpt>
      <trkpt lat="41.2305610" lon="1.4109600">
        <ele>220.4</ele>
        <time>2021-05-07T21:04:06Z</time>
      </trkpt>
      <trkpt lat="41.2304980" lon="1.4112210">
        <ele>219.4</ele>
        <time>2021-05-07T21:04:12Z</time>
      </trkpt>
      <trkpt lat="41.2304250" lon="1.4114590">
        <ele>219.2</ele>
        <time>2021-05-07T21:04:19Z</time>
      </trkpt>
      <trkpt lat="41.2304140" lon="1.4114900">
        <ele>219.2</ele>
        <time>2021-05-07T21:04:20Z</time>
      </trkpt>
      <trkpt lat="41.2303730" lon="1.4116400">
        <ele>219.6</ele>
        <time>2021-05-07T21:04:25Z</time>
      </trkpt>
      <trkpt lat="41.2302960" lon="1.4119060">
        <ele>219.6</ele>
        <time>2021-05-07T21:04:34Z</time>
      </trkpt>
      <trkpt lat="41.2301950" lon="1.4122240">
        <ele>219.2</ele>
        <time>2021-05-07T21:04:44Z</time>
      </trkpt>
      <trkpt lat="41.2301460" lon="1.4123970">
        <ele>219.2</ele>
        <time>2021-05-07T21:04:51Z</time>
      </trkpt>
      <trkpt lat="41.2300840" lon="1.4125940">
        <ele>219.8</ele>
        <time>2021-05-07T21:05:00Z</time>
      </trkpt>
      <trkpt lat="41.2300210" lon="1.4127830">
        <ele>219.8</ele>
        <time>2021-05-07T21:05:08Z</time>
      </trkpt>
      <trkpt lat="41.2299660" lon="1.4129350">
        <ele>219.6</ele>
        <time>2021-05-07T21:05:14Z</time>
      </trkpt>
      <trkpt lat="41.2299160" lon="1.4130710">
        <ele>219.6</ele>
        <time>2021-05-07T21:05:20Z</time>
      </trkpt>
      <trkpt lat="41.2299080" lon="1.4130760">
        <ele>219.6</ele>
        <time>2021-05-07T21:05:21Z</time>
      </trkpt>
      <trkpt lat="41.2299090" lon="1.4130660">
        <ele>219.8</ele>
        <time>2021-05-07T21:05:22Z</time>
      </trkpt>
      <trkpt lat="41.2299390" lon="1.4130280">
        <ele>219.6</ele>
        <time>2021-05-07T21:05:25Z</time>
      </trkpt>
      <trkpt lat="41.2299650" lon="1.4129700">
        <ele>219.6</ele>
        <time>2021-05-07T21:05:29Z</time>
      </trkpt>
      <trkpt lat="41.2299580" lon="1.4129680">
        <ele>219.6</ele>
        <time>2021-05-07T21:05:30Z</time>
      </trkpt>
      <trkpt lat="41.2299280" lon="1.4130190">
        <ele>219.6</ele>
        <time>2021-05-07T21:05:33Z</time>
      </trkpt>
      <trkpt lat="41.2299190" lon="1.4130460">
        <ele>219.8</ele>
        <time>2021-05-07T21:05:34Z</time>
      </trkpt>
      <trkpt lat="41.2298560" lon="1.4131910">
        <ele>219.8</ele>
        <time>2021-05-07T21:05:40Z</time>
      </trkpt>
      <trkpt lat="41.2297760" lon="1.4134110">
        <ele>220.2</ele>
        <time>2021-05-07T21:05:48Z</time>
      </trkpt>
      <trkpt lat="41.2297520" lon="1.4135100">
        <ele>220.6</ele>
        <time>2021-05-07T21:05:51Z</time>
      </trkpt>
      <trkpt lat="41.2297090" lon="1.4137010">
        <ele>220.6</ele>
        <time>2021-05-07T21:05:57Z</time>
      </trkpt>
      <trkpt lat="41.2296530" lon="1.4139390">
        <ele>221.0</ele>
        <time>2021-05-07T21:06:05Z</time>
      </trkpt>
      <trkpt lat="41.2296330" lon="1.4140390">
        <ele>221.6</ele>
        <time>2021-05-07T21:06:08Z</time>
      </trkpt>
      <trkpt lat="41.2296140" lon="1.4141960">
        <ele>221.4</ele>
        <time>2021-05-07T21:06:13Z</time>
      </trkpt>
      <trkpt lat="41.2296200" lon="1.4143820">
        <ele>220.4</ele>
        <time>2021-05-07T21:06:19Z</time>
      </trkpt>
      <trkpt lat="41.2296250" lon="1.4144130">
        <ele>220.4</ele>
        <time>2021-05-07T21:06:20Z</time>
      </trkpt>
      <trkpt lat="41.2296770" lon="1.4146400">
        <ele>220.8</ele>
        <time>2021-05-07T21:06:27Z</time>
      </trkpt>
      <trkpt lat="41.2297320" lon="1.4147660">
        <ele>220.6</ele>
        <time>2021-05-07T21:06:32Z</time>
      </trkpt>
      <trkpt lat="41.2297480" lon="1.4149440">
        <ele>221.4</ele>
        <time>2021-05-07T21:06:38Z</time>
      </trkpt>
      <trkpt lat="41.2297490" lon="1.4149710">
        <ele>221.8</ele>
        <time>2021-05-07T21:06:39Z</time>
      </trkpt>
      <trkpt lat="41.2297210" lon="1.4151570">
        <ele>222.6</ele>
        <time>2021-05-07T21:06:47Z</time>
      </trkpt>
      <trkpt lat="41.2297030" lon="1.4152260">
        <ele>223.0</ele>
        <time>2021-05-07T21:06:50Z</time>
      </trkpt>
      <trkpt lat="41.2296630" lon="1.4153160">
        <ele>223.6</ele>
        <time>2021-05-07T21:06:54Z</time>
      </trkpt>
      <trkpt lat="41.2296500" lon="1.4154360">
        <ele>223.6</ele>
        <time>2021-05-07T21:07:00Z</time>
      </trkpt>
      <trkpt lat="41.2297270" lon="1.4155420">
        <ele>223.8</ele>
        <time>2021-05-07T21:07:07Z</time>
      </trkpt>
      <trkpt lat="41.2297770" lon="1.4156030">
        <ele>224.0</ele>
        <time>2021-05-07T21:07:11Z</time>
      </trkpt>
      <trkpt lat="41.2298230" lon="1.4156680">
        <ele>225.2</ele>
        <time>2021-05-07T21:07:15Z</time>
      </trkpt>
      <trkpt lat="41.2299240" lon="1.4157180">
        <ele>226.0</ele>
        <time>2021-05-07T21:07:22Z</time>
      </trkpt>
      <trkpt lat="41.2299550" lon="1.4157160">
        <ele>226.2</ele>
        <time>2021-05-07T21:07:24Z</time>
      </trkpt>
      <trkpt lat="41.2300310" lon="1.4157040">
        <ele>227.2</ele>
        <time>2021-05-07T21:07:29Z</time>
      </trkpt>
      <trkpt lat="41.2300910" lon="1.4157010">
        <ele>228.2</ele>
        <time>2021-05-07T21:07:33Z</time>
      </trkpt>
      <trkpt lat="41.2301220" lon="1.4157200">
        <ele>228.8</ele>
        <time>2021-05-07T21:07:35Z</time>
      </trkpt>
      <trkpt lat="41.2301470" lon="1.4157410">
        <ele>229.2</ele>
        <time>2021-05-07T21:07:37Z</time>
      </trkpt>
      <trkpt lat="41.2302020" lon="1.4158060">
        <ele>230.0</ele>
        <time>2021-05-07T21:07:42Z</time>
      </trkpt>
      <trkpt lat="41.2303050" lon="1.4157990">
        <ele>230.2</ele>
        <time>2021-05-07T21:07:49Z</time>
      </trkpt>
      <trkpt lat="41.2303200" lon="1.4157900">
        <ele>230.4</ele>
        <time>2021-05-07T21:07:50Z</time>
      </trkpt>
      <trkpt lat="41.2304050" lon="1.4157380">
        <ele>230.6</ele>
        <time>2021-05-07T21:07:56Z</time>
      </trkpt>
      <trkpt lat="41.2305360" lon="1.4156460">
        <ele>230.4</ele>
        <time>2021-05-07T21:08:03Z</time>
      </trkpt>
      <trkpt lat="41.2307070" lon="1.4156030">
        <ele>229.8</ele>
        <time>2021-05-07T21:08:10Z</time>
      </trkpt>
      <trkpt lat="41.2308840" lon="1.4155070">
        <ele>229.2</ele>
        <time>2021-05-07T21:08:16Z</time>
      </trkpt>
      <trkpt lat="41.2310220" lon="1.4154090">
        <ele>228.2</ele>
        <time>2021-05-07T21:08:20Z</time>
      </trkpt>
      <trkpt lat="41.2310630" lon="1.4153900">
        <ele>227.8</ele>
        <time>2021-05-07T21:08:21Z</time>
      </trkpt>
      <trkpt lat="41.2311060" lon="1.4153710">
        <ele>227.6</ele>
        <time>2021-05-07T21:08:22Z</time>
      </trkpt>
      <trkpt lat="41.2311920" lon="1.4153180">
        <ele>226.8</ele>
        <time>2021-05-07T21:08:24Z</time>
      </trkpt>
      <trkpt lat="41.2312270" lon="1.4152810">
        <ele>226.8</ele>
        <time>2021-05-07T21:08:25Z</time>
      </trkpt>
      <trkpt lat="41.2312580" lon="1.4152380">
        <ele>226.4</ele>
        <time>2021-05-07T21:08:26Z</time>
      </trkpt>
      <trkpt lat="41.2313400" lon="1.4151070">
        <ele>225.8</ele>
        <time>2021-05-07T21:08:29Z</time>
      </trkpt>
      <trkpt lat="41.2313720" lon="1.4150710">
        <ele>225.4</ele>
        <time>2021-05-07T21:08:30Z</time>
      </trkpt>
      <trkpt lat="41.2314020" lon="1.4150430">
        <ele>224.4</ele>
        <time>2021-05-07T21:08:31Z</time>
      </trkpt>
      <trkpt lat="41.2314300" lon="1.4150240">
        <ele>223.4</ele>
        <time>2021-05-07T21:08:32Z</time>
      </trkpt>
      <trkpt lat="41.2314610" lon="1.4150130">
        <ele>223.2</ele>
        <time>2021-05-07T21:08:33Z</time>
      </trkpt>
      <trkpt lat="41.2316060" lon="1.4149630">
        <ele>222.6</ele>
        <time>2021-05-07T21:08:37Z</time>
      </trkpt>
      <trkpt lat="41.2317390" lon="1.4148080">
        <ele>222.6</ele>
        <time>2021-05-07T21:08:41Z</time>
      </trkpt>
      <trkpt lat="41.2318180" lon="1.4146480">
        <ele>222.2</ele>
        <time>2021-05-07T21:08:44Z</time>
      </trkpt>
      <trkpt lat="41.2318640" lon="1.4145290">
        <ele>222.0</ele>
        <time>2021-05-07T21:08:46Z</time>
      </trkpt>
      <trkpt lat="41.2318880" lon="1.4144720">
        <ele>222.0</ele>
        <time>2021-05-07T21:08:47Z</time>
      </trkpt>
      <trkpt lat="41.2319150" lon="1.4144210">
        <ele>221.6</ele>
        <time>2021-05-07T21:08:48Z</time>
      </trkpt>
      <trkpt lat="41.2320080" lon="1.4143220">
        <ele>221.6</ele>
        <time>2021-05-07T21:08:51Z</time>
      </trkpt>
      <trkpt lat="41.2320790" lon="1.4143100">
        <ele>221.0</ele>
        <time>2021-05-07T21:08:53Z</time>
      </trkpt>
      <trkpt lat="41.2321470" lon="1.4143270">
        <ele>221.0</ele>
        <time>2021-05-07T21:08:55Z</time>
      </trkpt>
      <trkpt lat="41.2322550" lon="1.4144690">
        <ele>220.6</ele>
        <time>2021-05-07T21:08:59Z</time>
      </trkpt>
      <trkpt lat="41.2322860" lon="1.4145670">
        <ele>220.0</ele>
        <time>2021-05-07T21:09:01Z</time>
      </trkpt>
      <trkpt lat="41.2323390" lon="1.4147600">
        <ele>219.6</ele>
        <time>2021-05-07T21:09:05Z</time>
      </trkpt>
      <trkpt lat="41.2323920" lon="1.4148680">
        <ele>218.6</ele>
        <time>2021-05-07T21:09:08Z</time>
      </trkpt>
      <trkpt lat="41.2324530" lon="1.4149220">
        <ele>218.2</ele>
        <time>2021-05-07T21:09:10Z</time>
      </trkpt>
      <trkpt lat="41.2325210" lon="1.4149700">
        <ele>217.6</ele>
        <time>2021-05-07T21:09:12Z</time>
      </trkpt>
      <trkpt lat="41.2327770" lon="1.4151240">
        <ele>218.2</ele>
        <time>2021-05-07T21:09:19Z</time>
      </trkpt>
      <trkpt lat="41.2330050" lon="1.4152450">
        <ele>217.4</ele>
        <time>2021-05-07T21:09:26Z</time>
      </trkpt>
      <trkpt lat="41.2331390" lon="1.4153470">
        <ele>218.4</ele>
        <time>2021-05-07T21:09:33Z</time>
      </trkpt>
      <trkpt lat="41.2331430" lon="1.4154620">
        <ele>218.8</ele>
        <time>2021-05-07T21:09:38Z</time>
      </trkpt>
      <trkpt lat="41.2330530" lon="1.4156150">
        <ele>218.8</ele>
        <time>2021-05-07T21:09:46Z</time>
      </trkpt>
      <trkpt lat="41.2330010" lon="1.4157080">
        <ele>219.2</ele>
        <time>2021-05-07T21:09:53Z</time>
      </trkpt>
      <trkpt lat="41.2329700" lon="1.4157700">
        <ele>219.4</ele>
        <time>2021-05-07T21:09:59Z</time>
      </trkpt>
      <trkpt lat="41.2329570" lon="1.4157900">
        <ele>219.6</ele>
        <time>2021-05-07T21:10:01Z</time>
      </trkpt>
      <trkpt lat="41.2329320" lon="1.4158160">
        <ele>219.4</ele>
        <time>2021-05-07T21:10:06Z</time>
      </trkpt>
      <trkpt lat="41.2329740" lon="1.4157330">
        <ele>219.4</ele>
        <time>2021-05-07T21:10:32Z</time>
      </trkpt>
      <trkpt lat="41.2329840" lon="1.4157150">
        <ele>219.2</ele>
        <time>2021-05-07T21:10:33Z</time>
      </trkpt>
      <trkpt lat="41.2330680" lon="1.4155610">
        <ele>218.6</ele>
        <time>2021-05-07T21:10:41Z</time>
      </trkpt>
      <trkpt lat="41.2331220" lon="1.4154710">
        <ele>218.6</ele>
        <time>2021-05-07T21:10:49Z</time>
      </trkpt>
      <trkpt lat="41.2331690" lon="1.4154210">
        <ele>218.4</ele>
        <time>2021-05-07T21:10:58Z</time>
      </trkpt>
      <trkpt lat="41.2332360" lon="1.4154060">
        <ele>218.4</ele>
        <time>2021-05-07T21:11:04Z</time>
      </trkpt>
      <trkpt lat="41.2333230" lon="1.4154380">
        <ele>219.6</ele>
        <time>2021-05-07T21:11:11Z</time>
      </trkpt>
      <trkpt lat="41.2334250" lon="1.4154910">
        <ele>220.0</ele>
        <time>2021-05-07T21:11:17Z</time>
      </trkpt>
      <trkpt lat="41.2334950" lon="1.4155030">
        <ele>220.2</ele>
        <time>2021-05-07T21:11:21Z</time>
      </trkpt>
      <trkpt lat="41.2335340" lon="1.4155030">
        <ele>220.4</ele>
        <time>2021-05-07T21:11:23Z</time>
      </trkpt>
      <trkpt lat="41.2336340" lon="1.4154890">
        <ele>220.8</ele>
        <time>2021-05-07T21:11:29Z</time>
      </trkpt>
      <trkpt lat="41.2337460" lon="1.4154710">
        <ele>221.4</ele>
        <time>2021-05-07T21:11:35Z</time>
      </trkpt>
      <trkpt lat="41.2337640" lon="1.4154740">
        <ele>221.4</ele>
        <time>2021-05-07T21:11:36Z</time>
      </trkpt>
      <trkpt lat="41.2338930" lon="1.4155000">
        <ele>222.0</ele>
        <time>2021-05-07T21:11:43Z</time>
      </trkpt>
      <trkpt lat="41.2339680" lon="1.4155090">
        <ele>221.4</ele>
        <time>2021-05-07T21:11:48Z</time>
      </trkpt>
      <trkpt lat="41.2340670" lon="1.4155350">
        <ele>222.0</ele>
        <time>2021-05-07T21:11:54Z</time>
      </trkpt>
      <trkpt lat="41.2341140" lon="1.4155730">
        <ele>221.8</ele>
        <time>2021-05-07T21:11:57Z</time>
      </trkpt>
      <trkpt lat="41.2341700" lon="1.4155980">
        <ele>221.8</ele>
        <time>2021-05-07T21:11:59Z</time>
      </trkpt>
      <trkpt lat="41.2343460" lon="1.4156470">
        <ele>221.0</ele>
        <time>2021-05-07T21:12:04Z</time>
      </trkpt>
      <trkpt lat="41.2344990" lon="1.4156860">
        <ele>220.2</ele>
        <time>2021-05-07T21:12:08Z</time>
      </trkpt>
      <trkpt lat="41.2347870" lon="1.4157860">
        <ele>220.6</ele>
        <time>2021-05-07T21:12:15Z</time>
      </trkpt>
      <trkpt lat="41.2349930" lon="1.4158370">
        <ele>219.4</ele>
        <time>2021-05-07T21:12:20Z</time>
      </trkpt>
      <trkpt lat="41.2351770" lon="1.4158820">
        <ele>218.6</ele>
        <time>2021-05-07T21:12:25Z</time>
      </trkpt>
      <trkpt lat="41.2353770" lon="1.4159270">
        <ele>217.8</ele>
        <time>2021-05-07T21:12:31Z</time>
      </trkpt>
      <trkpt lat="41.2354930" lon="1.4159430">
        <ele>218.0</ele>
        <time>2021-05-07T21:12:35Z</time>
      </trkpt>
      <trkpt lat="41.2355770" lon="1.4159130">
        <ele>217.6</ele>
        <time>2021-05-07T21:12:38Z</time>
      </trkpt>
      <trkpt lat="41.2356870" lon="1.4158600">
        <ele>217.4</ele>
        <time>2021-05-07T21:12:42Z</time>
      </trkpt>
      <trkpt lat="41.2359140" lon="1.4157300">
        <ele>217.2</ele>
        <time>2021-05-07T21:12:51Z</time>
      </trkpt>
      <trkpt lat="41.2360890" lon="1.4156410">
        <ele>217.6</ele>
        <time>2021-05-07T21:12:59Z</time>
      </trkpt>
      <trkpt lat="41.2361810" lon="1.4155530">
        <ele>218.0</ele>
        <time>2021-05-07T21:13:05Z</time>
      </trkpt>
      <trkpt lat="41.2362720" lon="1.4154640">
        <ele>218.8</ele>
        <time>2021-05-07T21:13:12Z</time>
      </trkpt>
      <trkpt lat="41.2362740" lon="1.4154650">
        <ele>219.0</ele>
        <time>2021-05-07T21:13:14Z</time>
      </trkpt>
      <trkpt lat="41.2363110" lon="1.4154430">
        <ele>219.0</ele>
        <time>2021-05-07T21:13:27Z</time>
      </trkpt>
      <trkpt lat="41.2363240" lon="1.4154370">
        <ele>218.8</ele>
        <time>2021-05-07T21:13:28Z</time>
      </trkpt>
      <trkpt lat="41.2364110" lon="1.4154070">
        <ele>220.0</ele>
        <time>2021-05-07T21:13:35Z</time>
      </trkpt>
      <trkpt lat="41.2365040" lon="1.4153530">
        <ele>220.0</ele>
        <time>2021-05-07T21:13:43Z</time>
      </trkpt>
      <trkpt lat="41.2365220" lon="1.4153420">
        <ele>220.2</ele>
        <time>2021-05-07T21:13:48Z</time>
      </trkpt>
      <trkpt lat="41.2365550" lon="1.4153810">
        <ele>220.2</ele>
        <time>2021-05-07T21:15:17Z</time>
      </trkpt>
      <trkpt lat="41.2365630" lon="1.4154000">
        <ele>220.2</ele>
        <time>2021-05-07T21:15:18Z</time>
      </trkpt>
      <trkpt lat="41.2365820" lon="1.4154370">
        <ele>220.4</ele>
        <time>2021-05-07T21:15:20Z</time>
      </trkpt>
      <trkpt lat="41.2366120" lon="1.4155010">
        <ele>220.8</ele>
        <time>2021-05-07T21:15:23Z</time>
      </trkpt>
      <trkpt lat="41.2366210" lon="1.4155230">
        <ele>221.0</ele>
        <time>2021-05-07T21:15:24Z</time>
      </trkpt>
      <trkpt lat="41.2366690" lon="1.4156430">
        <ele>221.0</ele>
        <time>2021-05-07T21:15:29Z</time>
      </trkpt>
      <trkpt lat="41.2366800" lon="1.4156700">
        <ele>220.8</ele>
        <time>2021-05-07T21:15:30Z</time>
      </trkpt>
      <trkpt lat="41.2367300" lon="1.4158410">
        <ele>220.8</ele>
        <time>2021-05-07T21:15:36Z</time>
      </trkpt>
      <trkpt lat="41.2367850" lon="1.4160580">
        <ele>220.4</ele>
        <time>2021-05-07T21:15:43Z</time>
      </trkpt>
      <trkpt lat="41.2368330" lon="1.4161820">
        <ele>220.6</ele>
        <time>2021-05-07T21:15:48Z</time>
      </trkpt>
      <trkpt lat="41.2368850" lon="1.4162700">
        <ele>220.4</ele>
        <time>2021-05-07T21:15:52Z</time>
      </trkpt>
      <trkpt lat="41.2369110" lon="1.4162960">
        <ele>220.4</ele>
        <time>2021-05-07T21:15:54Z</time>
      </trkpt>
      <trkpt lat="41.2370240" lon="1.4163450">
        <ele>220.4</ele>
        <time>2021-05-07T21:15:59Z</time>
      </trkpt>
      <trkpt lat="41.2371490" lon="1.4164070">
        <ele>221.4</ele>
        <time>2021-05-07T21:16:06Z</time>
      </trkpt>
      <trkpt lat="41.2372340" lon="1.4164910">
        <ele>222.0</ele>
        <time>2021-05-07T21:16:12Z</time>
      </trkpt>
      <trkpt lat="41.2372460" lon="1.4165060">
        <ele>222.0</ele>
        <time>2021-05-07T21:16:13Z</time>
      </trkpt>
      <trkpt lat="41.2373200" lon="1.4165920">
        <ele>222.6</ele>
        <time>2021-05-07T21:16:19Z</time>
      </trkpt>
      <trkpt lat="41.2374100" lon="1.4166780">
        <ele>223.0</ele>
        <time>2021-05-07T21:16:25Z</time>
      </trkpt>
      <trkpt lat="41.2375060" lon="1.4167640">
        <ele>223.0</ele>
        <time>2021-05-07T21:16:30Z</time>
      </trkpt>
      <trkpt lat="41.2375280" lon="1.4167790">
        <ele>223.0</ele>
        <time>2021-05-07T21:16:31Z</time>
      </trkpt>
      <trkpt lat="41.2376680" lon="1.4168850">
        <ele>222.6</ele>
        <time>2021-05-07T21:16:38Z</time>
      </trkpt>
      <trkpt lat="41.2378010" lon="1.4169580">
        <ele>222.0</ele>
        <time>2021-05-07T21:16:44Z</time>
      </trkpt>
      <trkpt lat="41.2379440" lon="1.4169740">
        <ele>222.8</ele>
        <time>2021-05-07T21:16:51Z</time>
      </trkpt>
      <trkpt lat="41.2380630" lon="1.4169700">
        <ele>223.2</ele>
        <time>2021-05-07T21:16:57Z</time>
      </trkpt>
      <trkpt lat="41.2381660" lon="1.4169910">
        <ele>224.0</ele>
        <time>2021-05-07T21:17:02Z</time>
      </trkpt>
      <trkpt lat="41.2382040" lon="1.4170050">
        <ele>224.2</ele>
        <time>2021-05-07T21:17:04Z</time>
      </trkpt>
      <trkpt lat="41.2383140" lon="1.4170180">
        <ele>223.8</ele>
        <time>2021-05-07T21:17:10Z</time>
      </trkpt>
      <trkpt lat="41.2384360" lon="1.4169700">
        <ele>224.2</ele>
        <time>2021-05-07T21:17:17Z</time>
      </trkpt>
      <trkpt lat="41.2385260" lon="1.4169420">
        <ele>225.0</ele>
        <time>2021-05-07T21:17:22Z</time>
      </trkpt>
      <trkpt lat="41.2385780" lon="1.4169200">
        <ele>225.2</ele>
        <time>2021-05-07T21:17:25Z</time>
      </trkpt>
      <trkpt lat="41.2386600" lon="1.4168990">
        <ele>225.0</ele>
        <time>2021-05-07T21:17:30Z</time>
      </trkpt>
      <trkpt lat="41.2387850" lon="1.4168970">
        <ele>225.0</ele>
        <time>2021-05-07T21:17:35Z</time>
      </trkpt>
      <trkpt lat="41.2389550" lon="1.4168710">
        <ele>224.8</ele>
        <time>2021-05-07T21:17:42Z</time>
      </trkpt>
      <trkpt lat="41.2390260" lon="1.4168100">
        <ele>225.0</ele>
        <time>2021-05-07T21:17:46Z</time>
      </trkpt>
      <trkpt lat="41.2391050" lon="1.4167470">
        <ele>225.4</ele>
        <time>2021-05-07T21:17:52Z</time>
      </trkpt>
      <trkpt lat="41.2391340" lon="1.4167390">
        <ele>225.4</ele>
        <time>2021-05-07T21:17:54Z</time>
      </trkpt>
      <trkpt lat="41.2391690" lon="1.4167620">
        <ele>225.8</ele>
        <time>2021-05-07T21:17:57Z</time>
      </trkpt>
      <trkpt lat="41.2391830" lon="1.4167670">
        <ele>225.8</ele>
        <time>2021-05-07T21:17:58Z</time>
      </trkpt>
      <trkpt lat="41.2392000" lon="1.4167670">
        <ele>226.2</ele>
        <time>2021-05-07T21:17:59Z</time>
      </trkpt>
      <trkpt lat="41.2392530" lon="1.4167570">
        <ele>226.6</ele>
        <time>2021-05-07T21:18:02Z</time>
      </trkpt>
      <trkpt lat="41.2393990" lon="1.4166680">
        <ele>226.2</ele>
        <time>2021-05-07T21:18:11Z</time>
      </trkpt>
      <trkpt lat="41.2395000" lon="1.4166310">
        <ele>227.2</ele>
        <time>2021-05-07T21:18:18Z</time>
      </trkpt>
      <trkpt lat="41.2395150" lon="1.4166340">
        <ele>227.2</ele>
        <time>2021-05-07T21:18:19Z</time>
      </trkpt>
      <trkpt lat="41.2395600" lon="1.4166390">
        <ele>228.2</ele>
        <time>2021-05-07T21:18:22Z</time>
      </trkpt>
      <trkpt lat="41.2396230" lon="1.4166080">
        <ele>229.0</ele>
        <time>2021-05-07T21:18:26Z</time>
      </trkpt>
      <trkpt lat="41.2396450" lon="1.4165850">
        <ele>229.4</ele>
        <time>2021-05-07T21:18:28Z</time>
      </trkpt>
      <trkpt lat="41.2396870" lon="1.4165630">
        <ele>229.4</ele>
        <time>2021-05-07T21:18:31Z</time>
      </trkpt>
      <trkpt lat="41.2397030" lon="1.4165620">
        <ele>229.4</ele>
        <time>2021-05-07T21:18:32Z</time>
      </trkpt>
      <trkpt lat="41.2397820" lon="1.4165740">
        <ele>229.6</ele>
        <time>2021-05-07T21:18:38Z</time>
      </trkpt>
      <trkpt lat="41.2399070" lon="1.4165780">
        <ele>230.2</ele>
        <time>2021-05-07T21:18:44Z</time>
      </trkpt>
      <trkpt lat="41.2399270" lon="1.4165750">
        <ele>230.4</ele>
        <time>2021-05-07T21:18:45Z</time>
      </trkpt>
      <trkpt lat="41.2400140" lon="1.4165680">
        <ele>231.0</ele>
        <time>2021-05-07T21:18:50Z</time>
      </trkpt>
      <trkpt lat="41.2401070" lon="1.4165680">
        <ele>231.6</ele>
        <time>2021-05-07T21:18:55Z</time>
      </trkpt>
      <trkpt lat="41.2401260" lon="1.4165720">
        <ele>231.8</ele>
        <time>2021-05-07T21:18:56Z</time>
      </trkpt>
      <trkpt lat="41.2402520" lon="1.4166300">
        <ele>231.2</ele>
        <time>2021-05-07T21:19:02Z</time>
      </trkpt>
      <trkpt lat="41.2403270" lon="1.4166950">
        <ele>231.0</ele>
        <time>2021-05-07T21:19:06Z</time>
      </trkpt>
      <trkpt lat="41.2403820" lon="1.4167630">
        <ele>230.6</ele>
        <time>2021-05-07T21:19:11Z</time>
      </trkpt>
      <trkpt lat="41.2404890" lon="1.4168570">
        <ele>231.0</ele>
        <time>2021-05-07T21:19:18Z</time>
      </trkpt>
      <trkpt lat="41.2405360" lon="1.4168940">
        <ele>231.8</ele>
        <time>2021-05-07T21:19:21Z</time>
      </trkpt>
      <trkpt lat="41.2405720" lon="1.4169030">
        <ele>231.8</ele>
        <time>2021-05-07T21:19:23Z</time>
      </trkpt>
      <trkpt lat="41.2406320" lon="1.4169170">
        <ele>232.2</ele>
        <time>2021-05-07T21:19:27Z</time>
      </trkpt>
      <trkpt lat="41.2406560" lon="1.4169250">
        <ele>232.2</ele>
        <time>2021-05-07T21:19:29Z</time>
      </trkpt>
      <trkpt lat="41.2407640" lon="1.4169790">
        <ele>232.4</ele>
        <time>2021-05-07T21:19:37Z</time>
      </trkpt>
      <trkpt lat="41.2408410" lon="1.4170720">
        <ele>232.8</ele>
        <time>2021-05-07T21:19:44Z</time>
      </trkpt>
      <trkpt lat="41.2408510" lon="1.4170890">
        <ele>232.8</ele>
        <time>2021-05-07T21:19:45Z</time>
      </trkpt>
      <trkpt lat="41.2409190" lon="1.4171540">
        <ele>233.6</ele>
        <time>2021-05-07T21:19:51Z</time>
      </trkpt>
      <trkpt lat="41.2410300" lon="1.4171870">
        <ele>233.6</ele>
        <time>2021-05-07T21:19:58Z</time>
      </trkpt>
      <trkpt lat="41.2410960" lon="1.4172000">
        <ele>234.2</ele>
        <time>2021-05-07T21:20:02Z</time>
      </trkpt>
      <trkpt lat="41.2411600" lon="1.4172410">
        <ele>235.0</ele>
        <time>2021-05-07T21:20:06Z</time>
      </trkpt>
      <trkpt lat="41.2411740" lon="1.4172570">
        <ele>235.2</ele>
        <time>2021-05-07T21:20:07Z</time>
      </trkpt>
      <trkpt lat="41.2412420" lon="1.4173710">
        <ele>235.2</ele>
        <time>2021-05-07T21:20:13Z</time>
      </trkpt>
      <trkpt lat="41.2413570" lon="1.4174670">
        <ele>236.0</ele>
        <time>2021-05-07T21:20:21Z</time>
      </trkpt>
      <trkpt lat="41.2413910" lon="1.4174840">
        <ele>236.2</ele>
        <time>2021-05-07T21:20:24Z</time>
      </trkpt>
      <trkpt lat="41.2414240" lon="1.4174980">
        <ele>236.4</ele>
        <time>2021-05-07T21:20:26Z</time>
      </trkpt>
      <trkpt lat="41.2415250" lon="1.4175810">
        <ele>236.6</ele>
        <time>2021-05-07T21:20:32Z</time>
      </trkpt>
      <trkpt lat="41.2416590" lon="1.4176160">
        <ele>237.0</ele>
        <time>2021-05-07T21:20:39Z</time>
      </trkpt>
      <trkpt lat="41.2417790" lon="1.4176470">
        <ele>236.4</ele>
        <time>2021-05-07T21:20:46Z</time>
      </trkpt>
      <trkpt lat="41.2418460" lon="1.4176850">
        <ele>237.2</ele>
        <time>2021-05-07T21:20:50Z</time>
      </trkpt>
      <trkpt lat="41.2418600" lon="1.4176920">
        <ele>237.4</ele>
        <time>2021-05-07T21:20:51Z</time>
      </trkpt>
      <trkpt lat="41.2419340" lon="1.4177480">
        <ele>238.6</ele>
        <time>2021-05-07T21:20:57Z</time>
      </trkpt>
      <trkpt lat="41.2419460" lon="1.4177620">
        <ele>239.0</ele>
        <time>2021-05-07T21:20:58Z</time>
      </trkpt>
      <trkpt lat="41.2420280" lon="1.4178640">
        <ele>239.2</ele>
        <time>2021-05-07T21:21:06Z</time>
      </trkpt>
      <trkpt lat="41.2420380" lon="1.4178780">
        <ele>239.8</ele>
        <time>2021-05-07T21:21:08Z</time>
      </trkpt>
      <trkpt lat="41.2420520" lon="1.4179120">
        <ele>240.0</ele>
        <time>2021-05-07T21:21:11Z</time>
      </trkpt>
      <trkpt lat="41.2421030" lon="1.4180110">
        <ele>239.8</ele>
        <time>2021-05-07T21:21:17Z</time>
      </trkpt>
      <trkpt lat="41.2421310" lon="1.4180730">
        <ele>241.0</ele>
        <time>2021-05-07T21:21:21Z</time>
      </trkpt>
      <trkpt lat="41.2421610" lon="1.4181260">
        <ele>240.6</ele>
        <time>2021-05-07T21:21:25Z</time>
      </trkpt>
      <trkpt lat="41.2422420" lon="1.4181810">
        <ele>241.6</ele>
        <time>2021-05-07T21:21:32Z</time>
      </trkpt>
      <trkpt lat="41.2423390" lon="1.4182150">
        <ele>241.6</ele>
        <time>2021-05-07T21:21:38Z</time>
      </trkpt>
      <trkpt lat="41.2424540" lon="1.4183120">
        <ele>242.6</ele>
        <time>2021-05-07T21:21:45Z</time>
      </trkpt>
      <trkpt lat="41.2425260" lon="1.4184710">
        <ele>242.2</ele>
        <time>2021-05-07T21:21:52Z</time>
      </trkpt>
      <trkpt lat="41.2426250" lon="1.4186280">
        <ele>243.4</ele>
        <time>2021-05-07T21:22:00Z</time>
      </trkpt>
      <trkpt lat="41.2426340" lon="1.4186540">
        <ele>243.6</ele>
        <time>2021-05-07T21:22:01Z</time>
      </trkpt>
      <trkpt lat="41.2426840" lon="1.4188120">
        <ele>244.2</ele>
        <time>2021-05-07T21:22:07Z</time>
      </trkpt>
      <trkpt lat="41.2427680" lon="1.4189360">
        <ele>244.2</ele>
        <time>2021-05-07T21:22:14Z</time>
      </trkpt>
      <trkpt lat="41.2428470" lon="1.4190020">
        <ele>244.6</ele>
        <time>2021-05-07T21:22:21Z</time>
      </trkpt>
      <trkpt lat="41.2429230" lon="1.4190600">
        <ele>245.4</ele>
        <time>2021-05-07T21:22:27Z</time>
      </trkpt>
      <trkpt lat="41.2429610" lon="1.4190670">
        <ele>245.6</ele>
        <time>2021-05-07T21:22:29Z</time>
      </trkpt>
      <trkpt lat="41.2430110" lon="1.4190800">
        <ele>245.6</ele>
        <time>2021-05-07T21:22:32Z</time>
      </trkpt>
      <trkpt lat="41.2430340" lon="1.4190850">
        <ele>245.8</ele>
        <time>2021-05-07T21:22:34Z</time>
      </trkpt>
      <trkpt lat="41.2430820" lon="1.4191400">
        <ele>246.0</ele>
        <time>2021-05-07T21:22:37Z</time>
      </trkpt>
      <trkpt lat="41.2431620" lon="1.4192860">
        <ele>246.4</ele>
        <time>2021-05-07T21:22:43Z</time>
      </trkpt>
      <trkpt lat="41.2431740" lon="1.4193070">
        <ele>246.6</ele>
        <time>2021-05-07T21:22:44Z</time>
      </trkpt>
      <trkpt lat="41.2431860" lon="1.4193300">
        <ele>246.8</ele>
        <time>2021-05-07T21:22:45Z</time>
      </trkpt>
      <trkpt lat="41.2432640" lon="1.4194760">
        <ele>246.2</ele>
        <time>2021-05-07T21:22:51Z</time>
      </trkpt>
      <trkpt lat="41.2433680" lon="1.4196620">
        <ele>245.8</ele>
        <time>2021-05-07T21:22:59Z</time>
      </trkpt>
      <trkpt lat="41.2435060" lon="1.4199120">
        <ele>246.6</ele>
        <time>2021-05-07T21:23:08Z</time>
      </trkpt>
      <trkpt lat="41.2436290" lon="1.4201350">
        <ele>246.2</ele>
        <time>2021-05-07T21:23:17Z</time>
      </trkpt>
      <trkpt lat="41.2437470" lon="1.4203490">
        <ele>246.8</ele>
        <time>2021-05-07T21:23:26Z</time>
      </trkpt>
      <trkpt lat="41.2438490" lon="1.4205220">
        <ele>247.2</ele>
        <time>2021-05-07T21:23:34Z</time>
      </trkpt>
      <trkpt lat="41.2439350" lon="1.4206810">
        <ele>247.0</ele>
        <time>2021-05-07T21:23:41Z</time>
      </trkpt>
      <trkpt lat="41.2440150" lon="1.4208260">
        <ele>247.2</ele>
        <time>2021-05-07T21:23:48Z</time>
      </trkpt>
      <trkpt lat="41.2440700" lon="1.4209300">
        <ele>247.4</ele>
        <time>2021-05-07T21:23:54Z</time>
      </trkpt>
      <trkpt lat="41.2440880" lon="1.4209590">
        <ele>247.4</ele>
        <time>2021-05-07T21:23:56Z</time>
      </trkpt>
      <trkpt lat="41.2441920" lon="1.4211260">
        <ele>248.0</ele>
        <time>2021-05-07T21:24:03Z</time>
      </trkpt>
      <trkpt lat="41.2443060" lon="1.4213330">
        <ele>248.2</ele>
        <time>2021-05-07T21:24:10Z</time>
      </trkpt>
      <trkpt lat="41.2443200" lon="1.4213620">
        <ele>248.2</ele>
        <time>2021-05-07T21:24:11Z</time>
      </trkpt>
      <trkpt lat="41.2443760" lon="1.4214720">
        <ele>248.4</ele>
        <time>2021-05-07T21:24:15Z</time>
      </trkpt>
      <trkpt lat="41.2444330" lon="1.4215680">
        <ele>248.8</ele>
        <time>2021-05-07T21:24:19Z</time>
      </trkpt>
      <trkpt lat="41.2445320" lon="1.4217470">
        <ele>249.4</ele>
        <time>2021-05-07T21:24:27Z</time>
      </trkpt>
      <trkpt lat="41.2445930" lon="1.4218600">
        <ele>249.4</ele>
        <time>2021-05-07T21:24:32Z</time>
      </trkpt>
      <trkpt lat="41.2446060" lon="1.4218850">
        <ele>249.4</ele>
        <time>2021-05-07T21:24:33Z</time>
      </trkpt>
      <trkpt lat="41.2447190" lon="1.4220930">
        <ele>250.0</ele>
        <time>2021-05-07T21:24:41Z</time>
      </trkpt>
      <trkpt lat="41.2448230" lon="1.4222650">
        <ele>250.2</ele>
        <time>2021-05-07T21:24:48Z</time>
      </trkpt>
      <trkpt lat="41.2448670" lon="1.4223550">
        <ele>250.4</ele>
        <time>2021-05-07T21:24:52Z</time>
      </trkpt>
      <trkpt lat="41.2448870" lon="1.4224010">
        <ele>251.0</ele>
        <time>2021-05-07T21:24:54Z</time>
      </trkpt>
      <trkpt lat="41.2449720" lon="1.4225570">
        <ele>251.4</ele>
        <time>2021-05-07T21:25:01Z</time>
      </trkpt>
      <trkpt lat="41.2449960" lon="1.4226050">
        <ele>251.6</ele>
        <time>2021-05-07T21:25:03Z</time>
      </trkpt>
      <trkpt lat="41.2450590" lon="1.4227080">
        <ele>252.0</ele>
        <time>2021-05-07T21:25:08Z</time>
      </trkpt>
      <trkpt lat="41.2451460" lon="1.4228150">
        <ele>251.8</ele>
        <time>2021-05-07T21:25:16Z</time>
      </trkpt>
      <trkpt lat="41.2451450" lon="1.4228210">
        <ele>251.6</ele>
        <time>2021-05-07T21:25:18Z</time>
      </trkpt>
      <trkpt lat="41.2452030" lon="1.4228900">
        <ele>250.8</ele>
        <time>2021-05-07T21:28:45Z</time>
      </trkpt>
      <trkpt lat="41.2452300" lon="1.4229240">
        <ele>250.4</ele>
        <time>2021-05-07T21:28:47Z</time>
      </trkpt>
      <trkpt lat="41.2453590" lon="1.4230060">
        <ele>249.8</ele>
        <time>2021-05-07T21:28:52Z</time>
      </trkpt>
      <trkpt lat="41.2454700" lon="1.4230460">
        <ele>249.0</ele>
        <time>2021-05-07T21:28:55Z</time>
      </trkpt>
      <trkpt lat="41.2455090" lon="1.4230700">
        <ele>248.4</ele>
        <time>2021-05-07T21:28:56Z</time>
      </trkpt>
      <trkpt lat="41.2455750" lon="1.4231180">
        <ele>247.8</ele>
        <time>2021-05-07T21:28:58Z</time>
      </trkpt>
      <trkpt lat="41.2456410" lon="1.4231980">
        <ele>247.2</ele>
        <time>2021-05-07T21:29:01Z</time>
      </trkpt>
      <trkpt lat="41.2456980" lon="1.4233230">
        <ele>246.8</ele>
        <time>2021-05-07T21:29:06Z</time>
      </trkpt>
      <trkpt lat="41.2457100" lon="1.4233510">
        <ele>246.6</ele>
        <time>2021-05-07T21:29:07Z</time>
      </trkpt>
      <trkpt lat="41.2458070" lon="1.4234520">
        <ele>246.2</ele>
        <time>2021-05-07T21:29:12Z</time>
      </trkpt>
      <trkpt lat="41.2459500" lon="1.4235410">
        <ele>246.4</ele>
        <time>2021-05-07T21:29:18Z</time>
      </trkpt>
      <trkpt lat="41.2459690" lon="1.4235610">
        <ele>245.6</ele>
        <time>2021-05-07T21:29:19Z</time>
      </trkpt>
      <trkpt lat="41.2460810" lon="1.4237170">
        <ele>246.2</ele>
        <time>2021-05-07T21:29:25Z</time>
      </trkpt>
      <trkpt lat="41.2462200" lon="1.4238940">
        <ele>245.4</ele>
        <time>2021-05-07T21:29:31Z</time>
      </trkpt>
      <trkpt lat="41.2463270" lon="1.4240490">
        <ele>246.0</ele>
        <time>2021-05-07T21:29:37Z</time>
      </trkpt>
      <trkpt lat="41.2464710" lon="1.4242670">
        <ele>244.6</ele>
        <time>2021-05-07T21:29:45Z</time>
      </trkpt>
      <trkpt lat="41.2465570" lon="1.4243740">
        <ele>244.2</ele>
        <time>2021-05-07T21:29:49Z</time>
      </trkpt>
      <trkpt lat="41.2465970" lon="1.4244240">
        <ele>243.4</ele>
        <time>2021-05-07T21:29:51Z</time>
      </trkpt>
      <trkpt lat="41.2466180" lon="1.4244520">
        <ele>243.0</ele>
        <time>2021-05-07T21:29:52Z</time>
      </trkpt>
      <trkpt lat="41.2466650" lon="1.4245590">
        <ele>242.8</ele>
        <time>2021-05-07T21:29:55Z</time>
      </trkpt>
      <trkpt lat="41.2467560" lon="1.4246760">
        <ele>241.8</ele>
        <time>2021-05-07T21:30:00Z</time>
      </trkpt>
      <trkpt lat="41.2467800" lon="1.4247030">
        <ele>241.4</ele>
        <time>2021-05-07T21:30:01Z</time>
      </trkpt>
      <trkpt lat="41.2468340" lon="1.4247650">
        <ele>240.8</ele>
        <time>2021-05-07T21:30:03Z</time>
      </trkpt>
      <trkpt lat="41.2469290" lon="1.4248890">
        <ele>240.0</ele>
        <time>2021-05-07T21:30:06Z</time>
      </trkpt>
      <trkpt lat="41.2469630" lon="1.4249260">
        <ele>239.6</ele>
        <time>2021-05-07T21:30:07Z</time>
      </trkpt>
      <trkpt lat="41.2470700" lon="1.4250680">
        <ele>239.2</ele>
        <time>2021-05-07T21:30:11Z</time>
      </trkpt>
      <trkpt lat="41.2471690" lon="1.4252840">
        <ele>239.6</ele>
        <time>2021-05-07T21:30:17Z</time>
      </trkpt>
      <trkpt lat="41.2471940" lon="1.4254390">
        <ele>239.2</ele>
        <time>2021-05-07T21:30:22Z</time>
      </trkpt>
      <trkpt lat="41.2471910" lon="1.4255570">
        <ele>238.4</ele>
        <time>2021-05-07T21:30:26Z</time>
      </trkpt>
      <trkpt lat="41.2471980" lon="1.4256190">
        <ele>238.2</ele>
        <time>2021-05-07T21:30:28Z</time>
      </trkpt>
      <trkpt lat="41.2472540" lon="1.4258180">
        <ele>237.8</ele>
        <time>2021-05-07T21:30:33Z</time>
      </trkpt>
      <trkpt lat="41.2473110" lon="1.4258780">
        <ele>237.4</ele>
        <time>2021-05-07T21:30:35Z</time>
      </trkpt>
      <trkpt lat="41.2473780" lon="1.4259130">
        <ele>236.8</ele>
        <time>2021-05-07T21:30:37Z</time>
      </trkpt>
      <trkpt lat="41.2475710" lon="1.4260020">
        <ele>237.2</ele>
        <time>2021-05-07T21:30:43Z</time>
      </trkpt>
      <trkpt lat="41.2477070" lon="1.4260550">
        <ele>236.4</ele>
        <time>2021-05-07T21:30:47Z</time>
      </trkpt>
      <trkpt lat="41.2477670" lon="1.4260920">
        <ele>236.0</ele>
        <time>2021-05-07T21:30:49Z</time>
      </trkpt>
      <trkpt lat="41.2478260" lon="1.4261250">
        <ele>235.4</ele>
        <time>2021-05-07T21:30:51Z</time>
      </trkpt>
      <trkpt lat="41.2479030" lon="1.4261920">
        <ele>235.8</ele>
        <time>2021-05-07T21:30:54Z</time>
      </trkpt>
      <trkpt lat="41.2480510" lon="1.4263750">
        <ele>234.4</ele>
        <time>2021-05-07T21:30:59Z</time>
      </trkpt>
      <trkpt lat="41.2480720" lon="1.4264070">
        <ele>234.2</ele>
        <time>2021-05-07T21:31:00Z</time>
      </trkpt>
      <trkpt lat="41.2481300" lon="1.4265390">
        <ele>234.0</ele>
        <time>2021-05-07T21:31:04Z</time>
      </trkpt>
      <trkpt lat="41.2481310" lon="1.4267480">
        <ele>234.4</ele>
        <time>2021-05-07T21:31:09Z</time>
      </trkpt>
      <trkpt lat="41.2480910" lon="1.4270060">
        <ele>233.0</ele>
        <time>2021-05-07T21:31:15Z</time>
      </trkpt>
      <trkpt lat="41.2480800" lon="1.4271040">
        <ele>231.2</ele>
        <time>2021-05-07T21:31:17Z</time>
      </trkpt>
      <trkpt lat="41.2480680" lon="1.4272450">
        <ele>230.0</ele>
        <time>2021-05-07T21:31:20Z</time>
      </trkpt>
      <trkpt lat="41.2480790" lon="1.4273750">
        <ele>230.0</ele>
        <time>2021-05-07T21:31:23Z</time>
      </trkpt>
      <trkpt lat="41.2480540" lon="1.4276540">
        <ele>229.6</ele>
        <time>2021-05-07T21:31:29Z</time>
      </trkpt>
      <trkpt lat="41.2480420" lon="1.4278000">
        <ele>229.0</ele>
        <time>2021-05-07T21:31:32Z</time>
      </trkpt>
      <trkpt lat="41.2480310" lon="1.4279630">
        <ele>228.0</ele>
        <time>2021-05-07T21:31:36Z</time>
      </trkpt>
      <trkpt lat="41.2480380" lon="1.4280010">
        <ele>227.8</ele>
        <time>2021-05-07T21:31:37Z</time>
      </trkpt>
      <trkpt lat="41.2480780" lon="1.4281630">
        <ele>226.6</ele>
        <time>2021-05-07T21:31:41Z</time>
      </trkpt>
      <trkpt lat="41.2480880" lon="1.4282050">
        <ele>226.4</ele>
        <time>2021-05-07T21:31:42Z</time>
      </trkpt>
      <trkpt lat="41.2481660" lon="1.4284910">
        <ele>225.4</ele>
        <time>2021-05-07T21:31:49Z</time>
      </trkpt>
      <trkpt lat="41.2483330" lon="1.4287530">
        <ele>224.6</ele>
        <time>2021-05-07T21:31:56Z</time>
      </trkpt>
      <trkpt lat="41.2483760" lon="1.4288310">
        <ele>224.6</ele>
        <time>2021-05-07T21:31:58Z</time>
      </trkpt>
      <trkpt lat="41.2484390" lon="1.4289360">
        <ele>224.0</ele>
        <time>2021-05-07T21:32:01Z</time>
      </trkpt>
      <trkpt lat="41.2484670" lon="1.4289690">
        <ele>223.8</ele>
        <time>2021-05-07T21:32:02Z</time>
      </trkpt>
      <trkpt lat="41.2485010" lon="1.4289950">
        <ele>223.4</ele>
        <time>2021-05-07T21:32:03Z</time>
      </trkpt>
      <trkpt lat="41.2485400" lon="1.4290160">
        <ele>223.0</ele>
        <time>2021-05-07T21:32:04Z</time>
      </trkpt>
      <trkpt lat="41.2486180" lon="1.4290460">
        <ele>222.6</ele>
        <time>2021-05-07T21:32:06Z</time>
      </trkpt>
      <trkpt lat="41.2487660" lon="1.4290910">
        <ele>221.8</ele>
        <time>2021-05-07T21:32:10Z</time>
      </trkpt>
      <trkpt lat="41.2488730" lon="1.4291270">
        <ele>221.6</ele>
        <time>2021-05-07T21:32:13Z</time>
      </trkpt>
      <trkpt lat="41.2491200" lon="1.4292200">
        <ele>221.4</ele>
        <time>2021-05-07T21:32:20Z</time>
      </trkpt>
      <trkpt lat="41.2493130" lon="1.4293110">
        <ele>221.4</ele>
        <time>2021-05-07T21:32:26Z</time>
      </trkpt>
      <trkpt lat="41.2495040" lon="1.4294200">
        <ele>221.2</ele>
        <time>2021-05-07T21:32:32Z</time>
      </trkpt>
      <trkpt lat="41.2495970" lon="1.4294860">
        <ele>220.6</ele>
        <time>2021-05-07T21:32:35Z</time>
      </trkpt>
      <trkpt lat="41.2496720" lon="1.4295150">
        <ele>220.2</ele>
        <time>2021-05-07T21:32:37Z</time>
      </trkpt>
      <trkpt lat="41.2497590" lon="1.4295430">
        <ele>219.2</ele>
        <time>2021-05-07T21:32:39Z</time>
      </trkpt>
      <trkpt lat="41.2499050" lon="1.4296670">
        <ele>218.4</ele>
        <time>2021-05-07T21:32:43Z</time>
      </trkpt>
      <trkpt lat="41.2499360" lon="1.4297070">
        <ele>218.2</ele>
        <time>2021-05-07T21:32:44Z</time>
      </trkpt>
      <trkpt lat="41.2499680" lon="1.4297460">
        <ele>218.0</ele>
        <time>2021-05-07T21:32:45Z</time>
      </trkpt>
      <trkpt lat="41.2500330" lon="1.4298250">
        <ele>217.8</ele>
        <time>2021-05-07T21:32:47Z</time>
      </trkpt>
      <trkpt lat="41.2501230" lon="1.4299640">
        <ele>217.8</ele>
        <time>2021-05-07T21:32:50Z</time>
      </trkpt>
      <trkpt lat="41.2502800" lon="1.4302920">
        <ele>217.4</ele>
        <time>2021-05-07T21:32:57Z</time>
      </trkpt>
      <trkpt lat="41.2503930" lon="1.4304940">
        <ele>217.0</ele>
        <time>2021-05-07T21:33:02Z</time>
      </trkpt>
      <trkpt lat="41.2504430" lon="1.4305640">
        <ele>217.2</ele>
        <time>2021-05-07T21:33:04Z</time>
      </trkpt>
      <trkpt lat="41.2504930" lon="1.4306240">
        <ele>217.4</ele>
        <time>2021-05-07T21:33:06Z</time>
      </trkpt>
      <trkpt lat="41.2506050" lon="1.4307920">
        <ele>217.2</ele>
        <time>2021-05-07T21:33:11Z</time>
      </trkpt>
      <trkpt lat="41.2507030" lon="1.4309600">
        <ele>217.0</ele>
        <time>2021-05-07T21:33:16Z</time>
      </trkpt>
      <trkpt lat="41.2507830" lon="1.4312000">
        <ele>217.6</ele>
        <time>2021-05-07T21:33:24Z</time>
      </trkpt>
      <trkpt lat="41.2508140" lon="1.4314070">
        <ele>217.2</ele>
        <time>2021-05-07T21:33:30Z</time>
      </trkpt>
      <trkpt lat="41.2508230" lon="1.4316860">
        <ele>218.0</ele>
        <time>2021-05-07T21:33:38Z</time>
      </trkpt>
      <trkpt lat="41.2508740" lon="1.4319520">
        <ele>217.2</ele>
        <time>2021-05-07T21:33:45Z</time>
      </trkpt>
      <trkpt lat="41.2508980" lon="1.4320270">
        <ele>216.8</ele>
        <time>2021-05-07T21:33:47Z</time>
      </trkpt>
      <trkpt lat="41.2509760" lon="1.4322500">
        <ele>216.2</ele>
        <time>2021-05-07T21:33:53Z</time>
      </trkpt>
      <trkpt lat="41.2510770" lon="1.4326250">
        <ele>216.4</ele>
        <time>2021-05-07T21:34:02Z</time>
      </trkpt>
      <trkpt lat="41.2511180" lon="1.4327570">
        <ele>215.6</ele>
        <time>2021-05-07T21:34:05Z</time>
      </trkpt>
      <trkpt lat="41.2511570" lon="1.4328520">
        <ele>213.8</ele>
        <time>2021-05-07T21:34:07Z</time>
      </trkpt>
      <trkpt lat="41.2513540" lon="1.4332540">
        <ele>213.2</ele>
        <time>2021-05-07T21:34:14Z</time>
      </trkpt>
      <trkpt lat="41.2513820" lon="1.4333100">
        <ele>213.4</ele>
        <time>2021-05-07T21:34:15Z</time>
      </trkpt>
      <trkpt lat="41.2515270" lon="1.4335780">
        <ele>213.8</ele>
        <time>2021-05-07T21:34:20Z</time>
      </trkpt>
      <trkpt lat="41.2517340" lon="1.4339670">
        <ele>213.4</ele>
        <time>2021-05-07T21:34:28Z</time>
      </trkpt>
      <trkpt lat="41.2518400" lon="1.4341760">
        <ele>212.6</ele>
        <time>2021-05-07T21:34:33Z</time>
      </trkpt>
      <trkpt lat="41.2518990" lon="1.4342920">
        <ele>212.4</ele>
        <time>2021-05-07T21:34:36Z</time>
      </trkpt>
      <trkpt lat="41.2519630" lon="1.4345210">
        <ele>212.6</ele>
        <time>2021-05-07T21:34:42Z</time>
      </trkpt>
      <trkpt lat="41.2519380" lon="1.4346560">
        <ele>213.4</ele>
        <time>2021-05-07T21:34:47Z</time>
      </trkpt>
      <trkpt lat="41.2518810" lon="1.4348310">
        <ele>212.8</ele>
        <time>2021-05-07T21:34:53Z</time>
      </trkpt>
      <trkpt lat="41.2518270" lon="1.4349690">
        <ele>212.4</ele>
        <time>2021-05-07T21:34:59Z</time>
      </trkpt>
      <trkpt lat="41.2517800" lon="1.4351480">
        <ele>213.6</ele>
        <time>2021-05-07T21:35:06Z</time>
      </trkpt>
      <trkpt lat="41.2517760" lon="1.4351680">
        <ele>213.6</ele>
        <time>2021-05-07T21:35:07Z</time>
      </trkpt>
      <trkpt lat="41.2517510" lon="1.4353410">
        <ele>213.8</ele>
        <time>2021-05-07T21:35:15Z</time>
      </trkpt>
      <trkpt lat="41.2517420" lon="1.4354660">
        <ele>213.2</ele>
        <time>2021-05-07T21:35:21Z</time>
      </trkpt>
      <trkpt lat="41.2517380" lon="1.4355770">
        <ele>213.4</ele>
        <time>2021-05-07T21:35:26Z</time>
      </trkpt>
      <trkpt lat="41.2517210" lon="1.4357260">
        <ele>213.8</ele>
        <time>2021-05-07T21:35:33Z</time>
      </trkpt>
      <trkpt lat="41.2516970" lon="1.4358910">
        <ele>213.6</ele>
        <time>2021-05-07T21:35:40Z</time>
      </trkpt>
      <trkpt lat="41.2517020" lon="1.4360000">
        <ele>213.8</ele>
        <time>2021-05-07T21:35:46Z</time>
      </trkpt>
      <trkpt lat="41.2517190" lon="1.4361460">
        <ele>214.4</ele>
        <time>2021-05-07T21:35:53Z</time>
      </trkpt>
      <trkpt lat="41.2517210" lon="1.4362170">
        <ele>214.2</ele>
        <time>2021-05-07T21:35:57Z</time>
      </trkpt>
      <trkpt lat="41.2517240" lon="1.4362280">
        <ele>214.4</ele>
        <time>2021-05-07T21:35:58Z</time>
      </trkpt>
      <trkpt lat="41.2517280" lon="1.4362400">
        <ele>214.6</ele>
        <time>2021-05-07T21:35:59Z</time>
      </trkpt>
      <trkpt lat="41.2517320" lon="1.4362730">
        <ele>214.6</ele>
        <time>2021-05-07T21:36:03Z</time>
      </trkpt>
      <trkpt lat="41.2517860" lon="1.4368350">
        <ele>214.4</ele>
        <time>2021-05-07T21:36:39Z</time>
      </trkpt>
      <trkpt lat="41.2517900" lon="1.4368580">
        <ele>214.2</ele>
        <time>2021-05-07T21:36:40Z</time>
      </trkpt>
      <trkpt lat="41.2518120" lon="1.4369780">
        <ele>215.4</ele>
        <time>2021-05-07T21:36:46Z</time>
      </trkpt>
      <trkpt lat="41.2518280" lon="1.4371450">
        <ele>215.4</ele>
        <time>2021-05-07T21:36:52Z</time>
      </trkpt>
      <trkpt lat="41.2518290" lon="1.4373120">
        <ele>215.0</ele>
        <time>2021-05-07T21:36:58Z</time>
      </trkpt>
      <trkpt lat="41.2518380" lon="1.4375290">
        <ele>215.4</ele>
        <time>2021-05-07T21:37:05Z</time>
      </trkpt>
      <trkpt lat="41.2518850" lon="1.4377050">
        <ele>214.6</ele>
        <time>2021-05-07T21:37:10Z</time>
      </trkpt>
      <trkpt lat="41.2519900" lon="1.4378560">
        <ele>215.0</ele>
        <time>2021-05-07T21:37:16Z</time>
      </trkpt>
      <trkpt lat="41.2521200" lon="1.4379050">
        <ele>214.8</ele>
        <time>2021-05-07T21:37:21Z</time>
      </trkpt>
      <trkpt lat="41.2521370" lon="1.4379030">
        <ele>214.8</ele>
        <time>2021-05-07T21:37:22Z</time>
      </trkpt>
      <trkpt lat="41.2522390" lon="1.4378760">
        <ele>215.6</ele>
        <time>2021-05-07T21:37:26Z</time>
      </trkpt>
      <trkpt lat="41.2523560" lon="1.4378590">
        <ele>215.4</ele>
        <time>2021-05-07T21:37:31Z</time>
      </trkpt>
      <trkpt lat="41.2525160" lon="1.4378360">
        <ele>215.2</ele>
        <time>2021-05-07T21:37:38Z</time>
      </trkpt>
      <trkpt lat="41.2526650" lon="1.4378010">
        <ele>215.8</ele>
        <time>2021-05-07T21:37:45Z</time>
      </trkpt>
      <trkpt lat="41.2527600" lon="1.4377720">
        <ele>216.4</ele>
        <time>2021-05-07T21:37:50Z</time>
      </trkpt>
      <trkpt lat="41.2528000" lon="1.4377570">
        <ele>216.8</ele>
        <time>2021-05-07T21:37:52Z</time>
      </trkpt>
      <trkpt lat="41.2529040" lon="1.4377280">
        <ele>216.6</ele>
        <time>2021-05-07T21:37:57Z</time>
      </trkpt>
      <trkpt lat="41.2530950" lon="1.4376750">
        <ele>216.0</ele>
        <time>2021-05-07T21:38:03Z</time>
      </trkpt>
      <trkpt lat="41.2532600" lon="1.4376690">
        <ele>216.4</ele>
        <time>2021-05-07T21:38:09Z</time>
      </trkpt>
      <trkpt lat="41.2534890" lon="1.4376300">
        <ele>216.2</ele>
        <time>2021-05-07T21:38:18Z</time>
      </trkpt>
      <trkpt lat="41.2535900" lon="1.4376100">
        <ele>217.2</ele>
        <time>2021-05-07T21:38:23Z</time>
      </trkpt>
      <trkpt lat="41.2536820" lon="1.4375680">
        <ele>216.8</ele>
        <time>2021-05-07T21:38:28Z</time>
      </trkpt>
      <trkpt lat="41.2538270" lon="1.4375030">
        <ele>216.8</ele>
        <time>2021-05-07T21:38:34Z</time>
      </trkpt>
      <trkpt lat="41.2539810" lon="1.4373830">
        <ele>217.4</ele>
        <time>2021-05-07T21:38:41Z</time>
      </trkpt>
      <trkpt lat="41.2541150" lon="1.4372580">
        <ele>217.8</ele>
        <time>2021-05-07T21:38:47Z</time>
      </trkpt>
      <trkpt lat="41.2542870" lon="1.4371120">
        <ele>217.6</ele>
        <time>2021-05-07T21:38:54Z</time>
      </trkpt>
      <trkpt lat="41.2544560" lon="1.4370200">
        <ele>217.6</ele>
        <time>2021-05-07T21:39:01Z</time>
      </trkpt>
      <trkpt lat="41.2545640" lon="1.4369390">
        <ele>218.2</ele>
        <time>2021-05-07T21:39:06Z</time>
      </trkpt>
      <trkpt lat="41.2547350" lon="1.4368260">
        <ele>217.8</ele>
        <time>2021-05-07T21:39:13Z</time>
      </trkpt>
      <trkpt lat="41.2548700" lon="1.4367860">
        <ele>217.8</ele>
        <time>2021-05-07T21:39:17Z</time>
      </trkpt>
      <trkpt lat="41.2550350" lon="1.4367920">
        <ele>217.6</ele>
        <time>2021-05-07T21:39:23Z</time>
      </trkpt>
      <trkpt lat="41.2551570" lon="1.4367930">
        <ele>216.8</ele>
        <time>2021-05-07T21:39:29Z</time>
      </trkpt>
      <trkpt lat="41.2553130" lon="1.4367920">
        <ele>216.4</ele>
        <time>2021-05-07T21:39:35Z</time>
      </trkpt>
      <trkpt lat="41.2553660" lon="1.4367810">
        <ele>216.4</ele>
        <time>2021-05-07T21:39:37Z</time>
      </trkpt>
      <trkpt lat="41.2554510" lon="1.4367200">
        <ele>216.0</ele>
        <time>2021-05-07T21:39:40Z</time>
      </trkpt>
      <trkpt lat="41.2556030" lon="1.4366360">
        <ele>215.4</ele>
        <time>2021-05-07T21:39:45Z</time>
      </trkpt>
      <trkpt lat="41.2557000" lon="1.4367240">
        <ele>215.6</ele>
        <time>2021-05-07T21:39:50Z</time>
      </trkpt>
      <trkpt lat="41.2558390" lon="1.4368320">
        <ele>216.6</ele>
        <time>2021-05-07T21:39:56Z</time>
      </trkpt>
      <trkpt lat="41.2559270" lon="1.4368330">
        <ele>217.4</ele>
        <time>2021-05-07T21:40:00Z</time>
      </trkpt>
      <trkpt lat="41.2559680" lon="1.4368240">
        <ele>217.2</ele>
        <time>2021-05-07T21:40:02Z</time>
      </trkpt>
      <trkpt lat="41.2561230" lon="1.4367790">
        <ele>218.0</ele>
        <time>2021-05-07T21:40:10Z</time>
      </trkpt>
      <trkpt lat="41.2561610" lon="1.4367580">
        <ele>218.6</ele>
        <time>2021-05-07T21:40:12Z</time>
      </trkpt>
      <trkpt lat="41.2562780" lon="1.4367080">
        <ele>219.6</ele>
        <time>2021-05-07T21:40:18Z</time>
      </trkpt>
      <trkpt lat="41.2562950" lon="1.4367170">
        <ele>219.8</ele>
        <time>2021-05-07T21:40:19Z</time>
      </trkpt>
      <trkpt lat="41.2563160" lon="1.4367800">
        <ele>220.6</ele>
        <time>2021-05-07T21:40:22Z</time>
      </trkpt>
      <trkpt lat="41.2562800" lon="1.4368920">
        <ele>221.4</ele>
        <time>2021-05-07T21:40:27Z</time>
      </trkpt>
      <trkpt lat="41.2561940" lon="1.4371140">
        <ele>221.2</ele>
        <time>2021-05-07T21:40:35Z</time>
      </trkpt>
      <trkpt lat="41.2560950" lon="1.4373320">
        <ele>221.6</ele>
        <time>2021-05-07T21:40:43Z</time>
      </trkpt>
      <trkpt lat="41.2560820" lon="1.4373590">
        <ele>221.6</ele>
        <time>2021-05-07T21:40:44Z</time>
      </trkpt>
      <trkpt lat="41.2559840" lon="1.4375600">
        <ele>222.2</ele>
        <time>2021-05-07T21:40:52Z</time>
      </trkpt>
      <trkpt lat="41.2559690" lon="1.4376660">
        <ele>222.6</ele>
        <time>2021-05-07T21:40:56Z</time>
      </trkpt>
      <trkpt lat="41.2559770" lon="1.4377180">
        <ele>223.0</ele>
        <time>2021-05-07T21:40:58Z</time>
      </trkpt>
      <trkpt lat="41.2560130" lon="1.4378270">
        <ele>223.8</ele>
        <time>2021-05-07T21:41:03Z</time>
      </trkpt>
      <trkpt lat="41.2560180" lon="1.4378500">
        <ele>224.0</ele>
        <time>2021-05-07T21:41:04Z</time>
      </trkpt>
      <trkpt lat="41.2560760" lon="1.4379780">
        <ele>224.8</ele>
        <time>2021-05-07T21:41:10Z</time>
      </trkpt>
      <trkpt lat="41.2561520" lon="1.4381310">
        <ele>224.8</ele>
        <time>2021-05-07T21:41:16Z</time>
      </trkpt>
      <trkpt lat="41.2562850" lon="1.4382150">
        <ele>225.2</ele>
        <time>2021-05-07T21:41:22Z</time>
      </trkpt>
      <trkpt lat="41.2564790" lon="1.4382390">
        <ele>225.2</ele>
        <time>2021-05-07T21:41:30Z</time>
      </trkpt>
      <trkpt lat="41.2565820" lon="1.4382290">
        <ele>225.8</ele>
        <time>2021-05-07T21:41:35Z</time>
      </trkpt>
      <trkpt lat="41.2566390" lon="1.4382150">
        <ele>226.0</ele>
        <time>2021-05-07T21:41:38Z</time>
      </trkpt>
      <trkpt lat="41.2567750" lon="1.4381930">
        <ele>226.6</ele>
        <time>2021-05-07T21:41:45Z</time>
      </trkpt>
      <trkpt lat="41.2568100" lon="1.4381860">
        <ele>227.0</ele>
        <time>2021-05-07T21:41:47Z</time>
      </trkpt>
      <trkpt lat="41.2569050" lon="1.4381770">
        <ele>227.8</ele>
        <time>2021-05-07T21:41:52Z</time>
      </trkpt>
      <trkpt lat="41.2569660" lon="1.4381880">
        <ele>227.8</ele>
        <time>2021-05-07T21:41:55Z</time>
      </trkpt>
      <trkpt lat="41.2571080" lon="1.4382780">
        <ele>228.4</ele>
        <time>2021-05-07T21:42:03Z</time>
      </trkpt>
      <trkpt lat="41.2571420" lon="1.4383150">
        <ele>228.8</ele>
        <time>2021-05-07T21:42:05Z</time>
      </trkpt>
      <trkpt lat="41.2572130" lon="1.4384140">
        <ele>229.2</ele>
        <time>2021-05-07T21:42:10Z</time>
      </trkpt>
      <trkpt lat="41.2572920" lon="1.4385800">
        <ele>229.8</ele>
        <time>2021-05-07T21:42:17Z</time>
      </trkpt>
      <trkpt lat="41.2573280" lon="1.4386480">
        <ele>230.4</ele>
        <time>2021-05-07T21:42:20Z</time>
      </trkpt>
      <trkpt lat="41.2573800" lon="1.4387160">
        <ele>231.0</ele>
        <time>2021-05-07T21:42:24Z</time>
      </trkpt>
      <trkpt lat="41.2573910" lon="1.4387300">
        <ele>231.2</ele>
        <time>2021-05-07T21:42:25Z</time>
      </trkpt>
      <trkpt lat="41.2574070" lon="1.4387670">
        <ele>231.8</ele>
        <time>2021-05-07T21:42:27Z</time>
      </trkpt>
      <trkpt lat="41.2574160" lon="1.4387850">
        <ele>232.0</ele>
        <time>2021-05-07T21:42:28Z</time>
      </trkpt>
      <trkpt lat="41.2574230" lon="1.4388090">
        <ele>232.2</ele>
        <time>2021-05-07T21:42:29Z</time>
      </trkpt>
      <trkpt lat="41.2574310" lon="1.4388610">
        <ele>232.2</ele>
        <time>2021-05-07T21:42:31Z</time>
      </trkpt>
      <trkpt lat="41.2574340" lon="1.4388860">
        <ele>232.2</ele>
        <time>2021-05-07T21:42:32Z</time>
      </trkpt>
      <trkpt lat="41.2574630" lon="1.4390850">
        <ele>231.6</ele>
        <time>2021-05-07T21:42:40Z</time>
      </trkpt>
      <trkpt lat="41.2574000" lon="1.4392560">
        <ele>230.4</ele>
        <time>2021-05-07T21:42:44Z</time>
      </trkpt>
      <trkpt lat="41.2573040" lon="1.4394710">
        <ele>230.0</ele>
        <time>2021-05-07T21:42:49Z</time>
      </trkpt>
      <trkpt lat="41.2572790" lon="1.4395020">
        <ele>230.2</ele>
        <time>2021-05-07T21:42:50Z</time>
      </trkpt>
      <trkpt lat="41.2572170" lon="1.4395170">
        <ele>230.4</ele>
        <time>2021-05-07T21:42:52Z</time>
      </trkpt>
      <trkpt lat="41.2570960" lon="1.4394530">
        <ele>230.0</ele>
        <time>2021-05-07T21:42:57Z</time>
      </trkpt>
      <trkpt lat="41.2570750" lon="1.4394350">
        <ele>230.0</ele>
        <time>2021-05-07T21:42:58Z</time>
      </trkpt>
      <trkpt lat="41.2570000" lon="1.4393460">
        <ele>229.6</ele>
        <time>2021-05-07T21:43:04Z</time>
      </trkpt>
      <trkpt lat="41.2569770" lon="1.4393050">
        <ele>229.6</ele>
        <time>2021-05-07T21:43:07Z</time>
      </trkpt>
      <trkpt lat="41.2569600" lon="1.4392850">
        <ele>230.2</ele>
        <time>2021-05-07T21:43:09Z</time>
      </trkpt>
      <trkpt lat="41.2569360" lon="1.4392540">
        <ele>231.0</ele>
        <time>2021-05-07T21:43:12Z</time>
      </trkpt>
      <trkpt lat="41.2569050" lon="1.4392260">
        <ele>231.2</ele>
        <time>2021-05-07T21:43:15Z</time>
      </trkpt>
      <trkpt lat="41.2568850" lon="1.4391970">
        <ele>231.0</ele>
        <time>2021-05-07T21:43:17Z</time>
      </trkpt>
      <trkpt lat="41.2568520" lon="1.4391580">
        <ele>231.0</ele>
        <time>2021-05-07T21:43:20Z</time>
      </trkpt>
      <trkpt lat="41.2568050" lon="1.4391200">
        <ele>231.0</ele>
        <time>2021-05-07T21:43:23Z</time>
      </trkpt>
      <trkpt lat="41.2567520" lon="1.4390890">
        <ele>230.8</ele>
        <time>2021-05-07T21:43:25Z</time>
      </trkpt>
      <trkpt lat="41.2566080" lon="1.4390870">
        <ele>230.6</ele>
        <time>2021-05-07T21:43:30Z</time>
      </trkpt>
      <trkpt lat="41.2565760" lon="1.4390910">
        <ele>230.6</ele>
        <time>2021-05-07T21:43:31Z</time>
      </trkpt>
      <trkpt lat="41.2564190" lon="1.4391410">
        <ele>230.0</ele>
        <time>2021-05-07T21:43:36Z</time>
      </trkpt>
      <trkpt lat="41.2562330" lon="1.4391830">
        <ele>229.8</ele>
        <time>2021-05-07T21:43:42Z</time>
      </trkpt>
      <trkpt lat="41.2561160" lon="1.4392040">
        <ele>229.4</ele>
        <time>2021-05-07T21:43:46Z</time>
      </trkpt>
      <trkpt lat="41.2560190" lon="1.4392200">
        <ele>229.0</ele>
        <time>2021-05-07T21:43:49Z</time>
      </trkpt>
      <trkpt lat="41.2559060" lon="1.4392270">
        <ele>228.4</ele>
        <time>2021-05-07T21:43:52Z</time>
      </trkpt>
      <trkpt lat="41.2557900" lon="1.4391920">
        <ele>227.2</ele>
        <time>2021-05-07T21:43:55Z</time>
      </trkpt>
      <trkpt lat="41.2555600" lon="1.4391140">
        <ele>226.6</ele>
        <time>2021-05-07T21:44:01Z</time>
      </trkpt>
      <trkpt lat="41.2554340" lon="1.4390880">
        <ele>226.2</ele>
        <time>2021-05-07T21:44:04Z</time>
      </trkpt>
      <trkpt lat="41.2553140" lon="1.4390810">
        <ele>225.4</ele>
        <time>2021-05-07T21:44:07Z</time>
      </trkpt>
      <trkpt lat="41.2551990" lon="1.4390810">
        <ele>225.2</ele>
        <time>2021-05-07T21:44:10Z</time>
      </trkpt>
      <trkpt lat="41.2550460" lon="1.4390700">
        <ele>225.2</ele>
        <time>2021-05-07T21:44:14Z</time>
      </trkpt>
      <trkpt lat="41.2547840" lon="1.4390510">
        <ele>224.2</ele>
        <time>2021-05-07T21:44:20Z</time>
      </trkpt>
      <trkpt lat="41.2547410" lon="1.4390550">
        <ele>223.8</ele>
        <time>2021-05-07T21:44:21Z</time>
      </trkpt>
      <trkpt lat="41.2546560" lon="1.4390690">
        <ele>223.0</ele>
        <time>2021-05-07T21:44:23Z</time>
      </trkpt>
      <trkpt lat="41.2545000" lon="1.4390880">
        <ele>222.6</ele>
        <time>2021-05-07T21:44:27Z</time>
      </trkpt>
      <trkpt lat="41.2543960" lon="1.4391100">
        <ele>222.6</ele>
        <time>2021-05-07T21:44:31Z</time>
      </trkpt>
      <trkpt lat="41.2542460" lon="1.4391430">
        <ele>222.4</ele>
        <time>2021-05-07T21:44:36Z</time>
      </trkpt>
      <trkpt lat="41.2542180" lon="1.4391550">
        <ele>222.0</ele>
        <time>2021-05-07T21:44:37Z</time>
      </trkpt>
      <trkpt lat="41.2540820" lon="1.4392470">
        <ele>220.8</ele>
        <time>2021-05-07T21:44:41Z</time>
      </trkpt>
      <trkpt lat="41.2540090" lon="1.4393140">
        <ele>219.8</ele>
        <time>2021-05-07T21:44:43Z</time>
      </trkpt>
      <trkpt lat="41.2539660" lon="1.4393470">
        <ele>219.6</ele>
        <time>2021-05-07T21:44:44Z</time>
      </trkpt>
      <trkpt lat="41.2538840" lon="1.4393980">
        <ele>219.4</ele>
        <time>2021-05-07T21:44:46Z</time>
      </trkpt>
      <trkpt lat="41.2538110" lon="1.4394330">
        <ele>218.8</ele>
        <time>2021-05-07T21:44:48Z</time>
      </trkpt>
      <trkpt lat="41.2537200" lon="1.4394700">
        <ele>218.6</ele>
        <time>2021-05-07T21:44:50Z</time>
      </trkpt>
      <trkpt lat="41.2536810" lon="1.4394840">
        <ele>218.4</ele>
        <time>2021-05-07T21:44:51Z</time>
      </trkpt>
      <trkpt lat="41.2535990" lon="1.4395080">
        <ele>217.6</ele>
        <time>2021-05-07T21:44:53Z</time>
      </trkpt>
      <trkpt lat="41.2535530" lon="1.4395160">
        <ele>217.4</ele>
        <time>2021-05-07T21:44:54Z</time>
      </trkpt>
      <trkpt lat="41.2534750" lon="1.4395500">
        <ele>217.0</ele>
        <time>2021-05-07T21:44:56Z</time>
      </trkpt>
      <trkpt lat="41.2533950" lon="1.4395870">
        <ele>216.4</ele>
        <time>2021-05-07T21:44:58Z</time>
      </trkpt>
      <trkpt lat="41.2532850" lon="1.4396130">
        <ele>216.4</ele>
        <time>2021-05-07T21:45:01Z</time>
      </trkpt>
      <trkpt lat="41.2530410" lon="1.4396490">
        <ele>216.0</ele>
        <time>2021-05-07T21:45:07Z</time>
      </trkpt>
      <trkpt lat="41.2528240" lon="1.4397510">
        <ele>215.8</ele>
        <time>2021-05-07T21:45:12Z</time>
      </trkpt>
      <trkpt lat="41.2526890" lon="1.4398580">
        <ele>215.6</ele>
        <time>2021-05-07T21:45:16Z</time>
      </trkpt>
      <trkpt lat="41.2526600" lon="1.4398920">
        <ele>215.4</ele>
        <time>2021-05-07T21:45:17Z</time>
      </trkpt>
      <trkpt lat="41.2525240" lon="1.4400630">
        <ele>214.8</ele>
        <time>2021-05-07T21:45:22Z</time>
      </trkpt>
      <trkpt lat="41.2524420" lon="1.4401740">
        <ele>214.6</ele>
        <time>2021-05-07T21:45:25Z</time>
      </trkpt>
      <trkpt lat="41.2524170" lon="1.4402120">
        <ele>214.4</ele>
        <time>2021-05-07T21:45:26Z</time>
      </trkpt>
      <trkpt lat="41.2523840" lon="1.4402530">
        <ele>214.2</ele>
        <time>2021-05-07T21:45:27Z</time>
      </trkpt>
      <trkpt lat="41.2523120" lon="1.4403230">
        <ele>213.2</ele>
        <time>2021-05-07T21:45:29Z</time>
      </trkpt>
      <trkpt lat="41.2522400" lon="1.4404470">
        <ele>211.8</ele>
        <time>2021-05-07T21:45:32Z</time>
      </trkpt>
      <trkpt lat="41.2521000" lon="1.4407130">
        <ele>211.2</ele>
        <time>2021-05-07T21:45:38Z</time>
      </trkpt>
      <trkpt lat="41.2520190" lon="1.4408940">
        <ele>210.8</ele>
        <time>2021-05-07T21:45:43Z</time>
      </trkpt>
      <trkpt lat="41.2520050" lon="1.4409250">
        <ele>210.8</ele>
        <time>2021-05-07T21:45:44Z</time>
      </trkpt>
      <trkpt lat="41.2518880" lon="1.4411610">
        <ele>210.2</ele>
        <time>2021-05-07T21:45:50Z</time>
      </trkpt>
      <trkpt lat="41.2518470" lon="1.4412580">
        <ele>209.8</ele>
        <time>2021-05-07T21:45:52Z</time>
      </trkpt>
      <trkpt lat="41.2517810" lon="1.4414480">
        <ele>208.0</ele>
        <time>2021-05-07T21:45:56Z</time>
      </trkpt>
      <trkpt lat="41.2517330" lon="1.4416150">
        <ele>207.0</ele>
        <time>2021-05-07T21:46:00Z</time>
      </trkpt>
      <trkpt lat="41.2517030" lon="1.4417010">
        <ele>206.8</ele>
        <time>2021-05-07T21:46:02Z</time>
      </trkpt>
      <trkpt lat="41.2516630" lon="1.4418430">
        <ele>205.8</ele>
        <time>2021-05-07T21:46:05Z</time>
      </trkpt>
      <trkpt lat="41.2516540" lon="1.4418980">
        <ele>205.6</ele>
        <time>2021-05-07T21:46:06Z</time>
      </trkpt>
      <trkpt lat="41.2516380" lon="1.4420090">
        <ele>205.6</ele>
        <time>2021-05-07T21:46:08Z</time>
      </trkpt>
      <trkpt lat="41.2515990" lon="1.4422420">
        <ele>204.4</ele>
        <time>2021-05-07T21:46:12Z</time>
      </trkpt>
      <trkpt lat="41.2515920" lon="1.4423050">
        <ele>203.6</ele>
        <time>2021-05-07T21:46:13Z</time>
      </trkpt>
      <trkpt lat="41.2515880" lon="1.4423680">
        <ele>202.8</ele>
        <time>2021-05-07T21:46:14Z</time>
      </trkpt>
      <trkpt lat="41.2515860" lon="1.4424970">
        <ele>201.8</ele>
        <time>2021-05-07T21:46:16Z</time>
      </trkpt>
      <trkpt lat="41.2515810" lon="1.4426290">
        <ele>201.4</ele>
        <time>2021-05-07T21:46:18Z</time>
      </trkpt>
      <trkpt lat="41.2515710" lon="1.4428250">
        <ele>200.8</ele>
        <time>2021-05-07T21:46:21Z</time>
      </trkpt>
      <trkpt lat="41.2515690" lon="1.4428920">
        <ele>200.4</ele>
        <time>2021-05-07T21:46:22Z</time>
      </trkpt>
      <trkpt lat="41.2515620" lon="1.4430290">
        <ele>199.0</ele>
        <time>2021-05-07T21:46:24Z</time>
      </trkpt>
      <trkpt lat="41.2515620" lon="1.4430980">
        <ele>199.0</ele>
        <time>2021-05-07T21:46:25Z</time>
      </trkpt>
      <trkpt lat="41.2515770" lon="1.4433040">
        <ele>198.0</ele>
        <time>2021-05-07T21:46:28Z</time>
      </trkpt>
      <trkpt lat="41.2516050" lon="1.4434560">
        <ele>197.8</ele>
        <time>2021-05-07T21:46:30Z</time>
      </trkpt>
      <trkpt lat="41.2516390" lon="1.4435840">
        <ele>196.8</ele>
        <time>2021-05-07T21:46:32Z</time>
      </trkpt>
      <trkpt lat="41.2516600" lon="1.4436500">
        <ele>196.6</ele>
        <time>2021-05-07T21:46:33Z</time>
      </trkpt>
      <trkpt lat="41.2517030" lon="1.4437840">
        <ele>195.8</ele>
        <time>2021-05-07T21:46:35Z</time>
      </trkpt>
      <trkpt lat="41.2517200" lon="1.4438480">
        <ele>195.4</ele>
        <time>2021-05-07T21:46:36Z</time>
      </trkpt>
      <trkpt lat="41.2517520" lon="1.4439690">
        <ele>194.8</ele>
        <time>2021-05-07T21:46:38Z</time>
      </trkpt>
      <trkpt lat="41.2517840" lon="1.4440960">
        <ele>194.2</ele>
        <time>2021-05-07T21:46:40Z</time>
      </trkpt>
      <trkpt lat="41.2518300" lon="1.4442190">
        <ele>193.0</ele>
        <time>2021-05-07T21:46:42Z</time>
      </trkpt>
      <trkpt lat="41.2518500" lon="1.4442660">
        <ele>192.6</ele>
        <time>2021-05-07T21:46:43Z</time>
      </trkpt>
      <trkpt lat="41.2518920" lon="1.4443980">
        <ele>192.2</ele>
        <time>2021-05-07T21:46:46Z</time>
      </trkpt>
      <trkpt lat="41.2518910" lon="1.4444400">
        <ele>192.0</ele>
        <time>2021-05-07T21:46:47Z</time>
      </trkpt>
      <trkpt lat="41.2518820" lon="1.4444810">
        <ele>191.6</ele>
        <time>2021-05-07T21:46:48Z</time>
      </trkpt>
      <trkpt lat="41.2518500" lon="1.4445250">
        <ele>190.8</ele>
        <time>2021-05-07T21:46:50Z</time>
      </trkpt>
      <trkpt lat="41.2518340" lon="1.4445400">
        <ele>190.4</ele>
        <time>2021-05-07T21:46:52Z</time>
      </trkpt>
      <trkpt lat="41.2518360" lon="1.4445460">
        <ele>190.2</ele>
        <time>2021-05-07T21:46:53Z</time>
      </trkpt>
      <trkpt lat="41.2518160" lon="1.4446750">
        <ele>191.0</ele>
        <time>2021-05-07T21:50:08Z</time>
      </trkpt>
      <trkpt lat="41.2518150" lon="1.4446940">
        <ele>191.2</ele>
        <time>2021-05-07T21:50:09Z</time>
      </trkpt>
      <trkpt lat="41.2518140" lon="1.4447150">
        <ele>191.2</ele>
        <time>2021-05-07T21:50:10Z</time>
      </trkpt>
      <trkpt lat="41.2518170" lon="1.4448350">
        <ele>192.6</ele>
        <time>2021-05-07T21:50:16Z</time>
      </trkpt>
      <trkpt lat="41.2518130" lon="1.4449460">
        <ele>193.8</ele>
        <time>2021-05-07T21:50:22Z</time>
      </trkpt>
      <trkpt lat="41.2518140" lon="1.4449690">
        <ele>194.2</ele>
        <time>2021-05-07T21:50:23Z</time>
      </trkpt>
      <trkpt lat="41.2517980" lon="1.4451130">
        <ele>195.0</ele>
        <time>2021-05-07T21:50:30Z</time>
      </trkpt>
      <trkpt lat="41.2517920" lon="1.4451350">
        <ele>195.4</ele>
        <time>2021-05-07T21:50:31Z</time>
      </trkpt>
      <trkpt lat="41.2517690" lon="1.4452160">
        <ele>196.2</ele>
        <time>2021-05-07T21:50:35Z</time>
      </trkpt>
      <trkpt lat="41.2517350" lon="1.4452780">
        <ele>196.6</ele>
        <time>2021-05-07T21:50:39Z</time>
      </trkpt>
      <trkpt lat="41.2517140" lon="1.4453030">
        <ele>197.2</ele>
        <time>2021-05-07T21:50:41Z</time>
      </trkpt>
      <trkpt lat="41.2516590" lon="1.4453600">
        <ele>198.6</ele>
        <time>2021-05-07T21:50:47Z</time>
      </trkpt>
      <trkpt lat="41.2516220" lon="1.4454540">
        <ele>199.4</ele>
        <time>2021-05-07T21:50:52Z</time>
      </trkpt>
      <trkpt lat="41.2516020" lon="1.4454760">
        <ele>199.6</ele>
        <time>2021-05-07T21:50:54Z</time>
      </trkpt>
      <trkpt lat="41.2515560" lon="1.4455060">
        <ele>200.4</ele>
        <time>2021-05-07T21:50:58Z</time>
      </trkpt>
      <trkpt lat="41.2515250" lon="1.4455370">
        <ele>201.2</ele>
        <time>2021-05-07T21:51:01Z</time>
      </trkpt>
      <trkpt lat="41.2514860" lon="1.4455610">
        <ele>201.6</ele>
        <time>2021-05-07T21:51:04Z</time>
      </trkpt>
      <trkpt lat="41.2514480" lon="1.4455850">
        <ele>202.4</ele>
        <time>2021-05-07T21:51:07Z</time>
      </trkpt>
      <trkpt lat="41.2514220" lon="1.4456010">
        <ele>202.8</ele>
        <time>2021-05-07T21:51:09Z</time>
      </trkpt>
      <trkpt lat="41.2513420" lon="1.4456420">
        <ele>204.0</ele>
        <time>2021-05-07T21:51:15Z</time>
      </trkpt>
      <trkpt lat="41.2513290" lon="1.4456490">
        <ele>204.2</ele>
        <time>2021-05-07T21:51:16Z</time>
      </trkpt>
      <trkpt lat="41.2513020" lon="1.4456630">
        <ele>204.8</ele>
        <time>2021-05-07T21:51:18Z</time>
      </trkpt>
      <trkpt lat="41.2512300" lon="1.4457150">
        <ele>206.0</ele>
        <time>2021-05-07T21:51:24Z</time>
      </trkpt>
      <trkpt lat="41.2512190" lon="1.4457220">
        <ele>206.8</ele>
        <time>2021-05-07T21:51:27Z</time>
      </trkpt>
      <trkpt lat="41.2511700" lon="1.4457890">
        <ele>206.2</ele>
        <time>2021-05-07T21:52:27Z</time>
      </trkpt>
      <trkpt lat="41.2511660" lon="1.4458140">
        <ele>206.0</ele>
        <time>2021-05-07T21:52:28Z</time>
      </trkpt>
      <trkpt lat="41.2511490" lon="1.4459670">
        <ele>205.0</ele>
        <time>2021-05-07T21:52:35Z</time>
      </trkpt>
      <trkpt lat="41.2511490" lon="1.4460720">
        <ele>204.6</ele>
        <time>2021-05-07T21:52:39Z</time>
      </trkpt>
      <trkpt lat="41.2511450" lon="1.4461270">
        <ele>204.4</ele>
        <time>2021-05-07T21:52:41Z</time>
      </trkpt>
      <trkpt lat="41.2511490" lon="1.4462820">
        <ele>203.6</ele>
        <time>2021-05-07T21:52:46Z</time>
      </trkpt>
      <trkpt lat="41.2511530" lon="1.4463210">
        <ele>203.4</ele>
        <time>2021-05-07T21:52:47Z</time>
      </trkpt>
      <trkpt lat="41.2511600" lon="1.4464640">
        <ele>202.2</ele>
        <time>2021-05-07T21:52:50Z</time>
      </trkpt>
      <trkpt lat="41.2511540" lon="1.4465140">
        <ele>201.6</ele>
        <time>2021-05-07T21:52:51Z</time>
      </trkpt>
      <trkpt lat="41.2511490" lon="1.4465620">
        <ele>201.0</ele>
        <time>2021-05-07T21:52:52Z</time>
      </trkpt>
      <trkpt lat="41.2511350" lon="1.4466490">
        <ele>199.8</ele>
        <time>2021-05-07T21:52:54Z</time>
      </trkpt>
      <trkpt lat="41.2511170" lon="1.4467250">
        <ele>199.2</ele>
        <time>2021-05-07T21:52:56Z</time>
      </trkpt>
      <trkpt lat="41.2511020" lon="1.4467790">
        <ele>198.4</ele>
        <time>2021-05-07T21:52:58Z</time>
      </trkpt>
      <trkpt lat="41.2510840" lon="1.4468390">
        <ele>197.4</ele>
        <time>2021-05-07T21:53:00Z</time>
      </trkpt>
      <trkpt lat="41.2510770" lon="1.4468750">
        <ele>196.8</ele>
        <time>2021-05-07T21:53:01Z</time>
      </trkpt>
      <trkpt lat="41.2510690" lon="1.4469090">
        <ele>195.8</ele>
        <time>2021-05-07T21:53:02Z</time>
      </trkpt>
      <trkpt lat="41.2510600" lon="1.4469450">
        <ele>194.6</ele>
        <time>2021-05-07T21:53:03Z</time>
      </trkpt>
      <trkpt lat="41.2510330" lon="1.4470280">
        <ele>193.6</ele>
        <time>2021-05-07T21:53:06Z</time>
      </trkpt>
      <trkpt lat="41.2510270" lon="1.4471130">
        <ele>192.4</ele>
        <time>2021-05-07T21:53:09Z</time>
      </trkpt>
      <trkpt lat="41.2510180" lon="1.4471740">
        <ele>191.2</ele>
        <time>2021-05-07T21:53:11Z</time>
      </trkpt>
      <trkpt lat="41.2509990" lon="1.4472860">
        <ele>190.2</ele>
        <time>2021-05-07T21:53:15Z</time>
      </trkpt>
      <trkpt lat="41.2509960" lon="1.4473620">
        <ele>189.4</ele>
        <time>2021-05-07T21:53:17Z</time>
      </trkpt>
      <trkpt lat="41.2509920" lon="1.4474080">
        <ele>188.8</ele>
        <time>2021-05-07T21:53:18Z</time>
      </trkpt>
      <trkpt lat="41.2509950" lon="1.4475030">
        <ele>187.4</ele>
        <time>2021-05-07T21:53:20Z</time>
      </trkpt>
      <trkpt lat="41.2510250" lon="1.4476620">
        <ele>186.6</ele>
        <time>2021-05-07T21:53:23Z</time>
      </trkpt>
      <trkpt lat="41.2510420" lon="1.4477830">
        <ele>186.2</ele>
        <time>2021-05-07T21:53:25Z</time>
      </trkpt>
      <trkpt lat="41.2510530" lon="1.4479730">
        <ele>185.0</ele>
        <time>2021-05-07T21:53:28Z</time>
      </trkpt>
      <trkpt lat="41.2510640" lon="1.4480410">
        <ele>185.0</ele>
        <time>2021-05-07T21:53:29Z</time>
      </trkpt>
      <trkpt lat="41.2511030" lon="1.4482180">
        <ele>184.0</ele>
        <time>2021-05-07T21:53:32Z</time>
      </trkpt>
      <trkpt lat="41.2511420" lon="1.4483640">
        <ele>183.4</ele>
        <time>2021-05-07T21:53:35Z</time>
      </trkpt>
      <trkpt lat="41.2511930" lon="1.4485160">
        <ele>183.0</ele>
        <time>2021-05-07T21:53:39Z</time>
      </trkpt>
      <trkpt lat="41.2512040" lon="1.4485510">
        <ele>182.8</ele>
        <time>2021-05-07T21:53:40Z</time>
      </trkpt>
      <trkpt lat="41.2512750" lon="1.4487490">
        <ele>182.2</ele>
        <time>2021-05-07T21:53:46Z</time>
      </trkpt>
      <trkpt lat="41.2513120" lon="1.4488560">
        <ele>182.6</ele>
        <time>2021-05-07T21:53:51Z</time>
      </trkpt>
      <trkpt lat="41.2513140" lon="1.4488800">
        <ele>182.8</ele>
        <time>2021-05-07T21:53:52Z</time>
      </trkpt>
      <trkpt lat="41.2513200" lon="1.4489990">
        <ele>184.2</ele>
        <time>2021-05-07T21:53:57Z</time>
      </trkpt>
      <trkpt lat="41.2513290" lon="1.4490450">
        <ele>185.2</ele>
        <time>2021-05-07T21:53:59Z</time>
      </trkpt>
      <trkpt lat="41.2513560" lon="1.4491920">
        <ele>186.2</ele>
        <time>2021-05-07T21:54:05Z</time>
      </trkpt>
      <trkpt lat="41.2513670" lon="1.4493340">
        <ele>186.4</ele>
        <time>2021-05-07T21:54:10Z</time>
      </trkpt>
      <trkpt lat="41.2513710" lon="1.4493600">
        <ele>186.8</ele>
        <time>2021-05-07T21:54:11Z</time>
      </trkpt>
      <trkpt lat="41.2513730" lon="1.4493870">
        <ele>187.0</ele>
        <time>2021-05-07T21:54:12Z</time>
      </trkpt>
      <trkpt lat="41.2513680" lon="1.4494610">
        <ele>187.6</ele>
        <time>2021-05-07T21:54:15Z</time>
      </trkpt>
      <trkpt lat="41.2513660" lon="1.4494810">
        <ele>188.0</ele>
        <time>2021-05-07T21:54:16Z</time>
      </trkpt>
      <trkpt lat="41.2513670" lon="1.4495010">
        <ele>188.2</ele>
        <time>2021-05-07T21:54:17Z</time>
      </trkpt>
      <trkpt lat="41.2513780" lon="1.4495420">
        <ele>188.6</ele>
        <time>2021-05-07T21:54:19Z</time>
      </trkpt>
      <trkpt lat="41.2513860" lon="1.4495900">
        <ele>188.6</ele>
        <time>2021-05-07T21:54:21Z</time>
      </trkpt>
      <trkpt lat="41.2513890" lon="1.4496120">
        <ele>188.6</ele>
        <time>2021-05-07T21:54:22Z</time>
      </trkpt>
      <trkpt lat="41.2514200" lon="1.4497840">
        <ele>189.0</ele>
        <time>2021-05-07T21:54:28Z</time>
      </trkpt>
      <trkpt lat="41.2514660" lon="1.4500640">
        <ele>188.2</ele>
        <time>2021-05-07T21:54:36Z</time>
      </trkpt>
      <trkpt lat="41.2515350" lon="1.4503930">
        <ele>188.8</ele>
        <time>2021-05-07T21:54:45Z</time>
      </trkpt>
      <trkpt lat="41.2515970" lon="1.4506090">
        <ele>188.6</ele>
        <time>2021-05-07T21:54:51Z</time>
      </trkpt>
      <trkpt lat="41.2516850" lon="1.4507140">
        <ele>188.6</ele>
        <time>2021-05-07T21:54:56Z</time>
      </trkpt>
      <trkpt lat="41.2517740" lon="1.4507860">
        <ele>188.6</ele>
        <time>2021-05-07T21:55:02Z</time>
      </trkpt>
      <trkpt lat="41.2518070" lon="1.4508220">
        <ele>189.6</ele>
        <time>2021-05-07T21:55:05Z</time>
      </trkpt>
      <trkpt lat="41.2518500" lon="1.4508640">
        <ele>189.8</ele>
        <time>2021-05-07T21:55:09Z</time>
      </trkpt>
      <trkpt lat="41.2518920" lon="1.4509150">
        <ele>190.0</ele>
        <time>2021-05-07T21:55:13Z</time>
      </trkpt>
      <trkpt lat="41.2519140" lon="1.4509400">
        <ele>190.4</ele>
        <time>2021-05-07T21:55:15Z</time>
      </trkpt>
      <trkpt lat="41.2519260" lon="1.4509520">
        <ele>190.6</ele>
        <time>2021-05-07T21:55:16Z</time>
      </trkpt>
      <trkpt lat="41.2519520" lon="1.4509780">
        <ele>191.0</ele>
        <time>2021-05-07T21:55:18Z</time>
      </trkpt>
      <trkpt lat="41.2519910" lon="1.4510170">
        <ele>191.8</ele>
        <time>2021-05-07T21:55:21Z</time>
      </trkpt>
      <trkpt lat="41.2520120" lon="1.4510370">
        <ele>192.4</ele>
        <time>2021-05-07T21:55:23Z</time>
      </trkpt>
      <trkpt lat="41.2520510" lon="1.4510660">
        <ele>193.0</ele>
        <time>2021-05-07T21:55:26Z</time>
      </trkpt>
      <trkpt lat="41.2520660" lon="1.4510730">
        <ele>193.2</ele>
        <time>2021-05-07T21:55:27Z</time>
      </trkpt>
      <trkpt lat="41.2521130" lon="1.4510910">
        <ele>193.8</ele>
        <time>2021-05-07T21:55:30Z</time>
      </trkpt>
      <trkpt lat="41.2521300" lon="1.4511040">
        <ele>194.0</ele>
        <time>2021-05-07T21:55:31Z</time>
      </trkpt>
      <trkpt lat="41.2522110" lon="1.4511920">
        <ele>194.0</ele>
        <time>2021-05-07T21:55:37Z</time>
      </trkpt>
      <trkpt lat="41.2522850" lon="1.4513890">
        <ele>194.2</ele>
        <time>2021-05-07T21:55:44Z</time>
      </trkpt>
      <trkpt lat="41.2523150" lon="1.4516480">
        <ele>193.2</ele>
        <time>2021-05-07T21:55:50Z</time>
      </trkpt>
      <trkpt lat="41.2523170" lon="1.4517100">
        <ele>192.8</ele>
        <time>2021-05-07T21:55:52Z</time>
      </trkpt>
      <trkpt lat="41.2523060" lon="1.4518240">
        <ele>193.4</ele>
        <time>2021-05-07T21:55:56Z</time>
      </trkpt>
      <trkpt lat="41.2522790" lon="1.4518960">
        <ele>194.2</ele>
        <time>2021-05-07T21:55:59Z</time>
      </trkpt>
      <trkpt lat="41.2522350" lon="1.4519770">
        <ele>194.8</ele>
        <time>2021-05-07T21:56:03Z</time>
      </trkpt>
      <trkpt lat="41.2521950" lon="1.4520430">
        <ele>195.4</ele>
        <time>2021-05-07T21:56:07Z</time>
      </trkpt>
      <trkpt lat="41.2521640" lon="1.4520890">
        <ele>195.8</ele>
        <time>2021-05-07T21:56:10Z</time>
      </trkpt>
      <trkpt lat="41.2520570" lon="1.4522670">
        <ele>195.6</ele>
        <time>2021-05-07T21:56:18Z</time>
      </trkpt>
      <trkpt lat="41.2519310" lon="1.4524890">
        <ele>195.0</ele>
        <time>2021-05-07T21:56:25Z</time>
      </trkpt>
      <trkpt lat="41.2518640" lon="1.4526120">
        <ele>194.2</ele>
        <time>2021-05-07T21:56:28Z</time>
      </trkpt>
      <trkpt lat="41.2518000" lon="1.4527250">
        <ele>193.2</ele>
        <time>2021-05-07T21:56:31Z</time>
      </trkpt>
      <trkpt lat="41.2517840" lon="1.4527660">
        <ele>192.8</ele>
        <time>2021-05-07T21:56:32Z</time>
      </trkpt>
      <trkpt lat="41.2517130" lon="1.4529440">
        <ele>191.6</ele>
        <time>2021-05-07T21:56:37Z</time>
      </trkpt>
      <trkpt lat="41.2516900" lon="1.4530420">
        <ele>190.4</ele>
        <time>2021-05-07T21:56:40Z</time>
      </trkpt>
      <trkpt lat="41.2516710" lon="1.4531170">
        <ele>189.6</ele>
        <time>2021-05-07T21:56:42Z</time>
      </trkpt>
      <trkpt lat="41.2516640" lon="1.4531510">
        <ele>188.8</ele>
        <time>2021-05-07T21:56:43Z</time>
      </trkpt>
      <trkpt lat="41.2516510" lon="1.4532180">
        <ele>187.8</ele>
        <time>2021-05-07T21:56:45Z</time>
      </trkpt>
      <trkpt lat="41.2516370" lon="1.4533150">
        <ele>186.8</ele>
        <time>2021-05-07T21:56:48Z</time>
      </trkpt>
      <trkpt lat="41.2516220" lon="1.4534050">
        <ele>185.6</ele>
        <time>2021-05-07T21:56:50Z</time>
      </trkpt>
      <trkpt lat="41.2516050" lon="1.4534970">
        <ele>184.2</ele>
        <time>2021-05-07T21:56:52Z</time>
      </trkpt>
      <trkpt lat="41.2515920" lon="1.4536040">
        <ele>183.2</ele>
        <time>2021-05-07T21:56:54Z</time>
      </trkpt>
      <trkpt lat="41.2515840" lon="1.4536600">
        <ele>182.8</ele>
        <time>2021-05-07T21:56:55Z</time>
      </trkpt>
      <trkpt lat="41.2515730" lon="1.4537540">
        <ele>181.4</ele>
        <time>2021-05-07T21:56:57Z</time>
      </trkpt>
      <trkpt lat="41.2515490" lon="1.4538510">
        <ele>180.2</ele>
        <time>2021-05-07T21:56:59Z</time>
      </trkpt>
      <trkpt lat="41.2515100" lon="1.4540140">
        <ele>179.2</ele>
        <time>2021-05-07T21:57:02Z</time>
      </trkpt>
      <trkpt lat="41.2514970" lon="1.4540800">
        <ele>178.6</ele>
        <time>2021-05-07T21:57:03Z</time>
      </trkpt>
      <trkpt lat="41.2514630" lon="1.4542310">
        <ele>177.4</ele>
        <time>2021-05-07T21:57:06Z</time>
      </trkpt>
      <trkpt lat="41.2514530" lon="1.4543240">
        <ele>176.4</ele>
        <time>2021-05-07T21:57:08Z</time>
      </trkpt>
      <trkpt lat="41.2514580" lon="1.4544510">
        <ele>176.2</ele>
        <time>2021-05-07T21:57:10Z</time>
      </trkpt>
      <trkpt lat="41.2514720" lon="1.4545120">
        <ele>175.4</ele>
        <time>2021-05-07T21:57:11Z</time>
      </trkpt>
      <trkpt lat="41.2514890" lon="1.4546060">
        <ele>174.2</ele>
        <time>2021-05-07T21:57:13Z</time>
      </trkpt>
      <trkpt lat="41.2515520" lon="1.4547360">
        <ele>173.2</ele>
        <time>2021-05-07T21:57:16Z</time>
      </trkpt>
      <trkpt lat="41.2515850" lon="1.4547630">
        <ele>173.0</ele>
        <time>2021-05-07T21:57:17Z</time>
      </trkpt>
      <trkpt lat="41.2516690" lon="1.4547740">
        <ele>173.0</ele>
        <time>2021-05-07T21:57:19Z</time>
      </trkpt>
      <trkpt lat="41.2517320" lon="1.4547470">
        <ele>173.0</ele>
        <time>2021-05-07T21:57:21Z</time>
      </trkpt>
      <trkpt lat="41.2518130" lon="1.4547470">
        <ele>172.8</ele>
        <time>2021-05-07T21:57:24Z</time>
      </trkpt>
      <trkpt lat="41.2518890" lon="1.4548110">
        <ele>172.6</ele>
        <time>2021-05-07T21:57:27Z</time>
      </trkpt>
      <trkpt lat="41.2519540" lon="1.4548410">
        <ele>172.6</ele>
        <time>2021-05-07T21:57:29Z</time>
      </trkpt>
      <trkpt lat="41.2520240" lon="1.4548830">
        <ele>172.4</ele>
        <time>2021-05-07T21:57:31Z</time>
      </trkpt>
      <trkpt lat="41.2522610" lon="1.4550680">
        <ele>172.8</ele>
        <time>2021-05-07T21:57:37Z</time>
      </trkpt>
      <trkpt lat="41.2524200" lon="1.4552070">
        <ele>172.0</ele>
        <time>2021-05-07T21:57:41Z</time>
      </trkpt>
      <trkpt lat="41.2525900" lon="1.4553590">
        <ele>171.8</ele>
        <time>2021-05-07T21:57:45Z</time>
      </trkpt>
      <trkpt lat="41.2528170" lon="1.4556030">
        <ele>170.6</ele>
        <time>2021-05-07T21:57:51Z</time>
      </trkpt>
      <trkpt lat="41.2529290" lon="1.4557290">
        <ele>170.6</ele>
        <time>2021-05-07T21:57:54Z</time>
      </trkpt>
      <trkpt lat="41.2529940" lon="1.4558040">
        <ele>170.2</ele>
        <time>2021-05-07T21:57:56Z</time>
      </trkpt>
      <trkpt lat="41.2531030" lon="1.4559060">
        <ele>169.6</ele>
        <time>2021-05-07T21:57:59Z</time>
      </trkpt>
      <trkpt lat="41.2531360" lon="1.4559410">
        <ele>169.2</ele>
        <time>2021-05-07T21:58:00Z</time>
      </trkpt>
      <trkpt lat="41.2531910" lon="1.4560240">
        <ele>168.8</ele>
        <time>2021-05-07T21:58:02Z</time>
      </trkpt>
      <trkpt lat="41.2532140" lon="1.4560690">
        <ele>168.6</ele>
        <time>2021-05-07T21:58:03Z</time>
      </trkpt>
      <trkpt lat="41.2532870" lon="1.4563140">
        <ele>168.6</ele>
        <time>2021-05-07T21:58:08Z</time>
      </trkpt>
      <trkpt lat="41.2533230" lon="1.4565970">
        <ele>168.4</ele>
        <time>2021-05-07T21:58:13Z</time>
      </trkpt>
      <trkpt lat="41.2533610" lon="1.4569040">
        <ele>168.0</ele>
        <time>2021-05-07T21:58:19Z</time>
      </trkpt>
      <trkpt lat="41.2534440" lon="1.4571300">
        <ele>168.4</ele>
        <time>2021-05-07T21:58:24Z</time>
      </trkpt>
      <trkpt lat="41.2535680" lon="1.4572440">
        <ele>168.2</ele>
        <time>2021-05-07T21:58:28Z</time>
      </trkpt>
      <trkpt lat="41.2536440" lon="1.4572880">
        <ele>167.6</ele>
        <time>2021-05-07T21:58:30Z</time>
      </trkpt>
      <trkpt lat="41.2537040" lon="1.4573310">
        <ele>168.0</ele>
        <time>2021-05-07T21:58:32Z</time>
      </trkpt>
      <trkpt lat="41.2538390" lon="1.4573550">
        <ele>168.2</ele>
        <time>2021-05-07T21:58:36Z</time>
      </trkpt>
      <trkpt lat="41.2539440" lon="1.4573780">
        <ele>167.4</ele>
        <time>2021-05-07T21:58:39Z</time>
      </trkpt>
      <trkpt lat="41.2539710" lon="1.4574080">
        <ele>167.2</ele>
        <time>2021-05-07T21:58:40Z</time>
      </trkpt>
      <trkpt lat="41.2540680" lon="1.4575640">
        <ele>167.0</ele>
        <time>2021-05-07T21:58:45Z</time>
      </trkpt>
      <trkpt lat="41.2541730" lon="1.4576480">
        <ele>167.0</ele>
        <time>2021-05-07T21:58:49Z</time>
      </trkpt>
      <trkpt lat="41.2543600" lon="1.4577890">
        <ele>166.6</ele>
        <time>2021-05-07T21:58:55Z</time>
      </trkpt>
      <trkpt lat="41.2543980" lon="1.4578140">
        <ele>166.4</ele>
        <time>2021-05-07T21:58:56Z</time>
      </trkpt>
      <trkpt lat="41.2545640" lon="1.4579350">
        <ele>166.6</ele>
        <time>2021-05-07T21:59:01Z</time>
      </trkpt>
      <trkpt lat="41.2547060" lon="1.4580050">
        <ele>166.2</ele>
        <time>2021-05-07T21:59:06Z</time>
      </trkpt>
      <trkpt lat="41.2548370" lon="1.4580920">
        <ele>165.8</ele>
        <time>2021-05-07T21:59:11Z</time>
      </trkpt>
      <trkpt lat="41.2549750" lon="1.4581740">
        <ele>165.4</ele>
        <time>2021-05-07T21:59:15Z</time>
      </trkpt>
      <trkpt lat="41.2550160" lon="1.4581960">
        <ele>165.2</ele>
        <time>2021-05-07T21:59:16Z</time>
      </trkpt>
      <trkpt lat="41.2551730" lon="1.4583030">
        <ele>165.0</ele>
        <time>2021-05-07T21:59:22Z</time>
      </trkpt>
      <trkpt lat="41.2552580" lon="1.4583810">
        <ele>164.8</ele>
        <time>2021-05-07T21:59:27Z</time>
      </trkpt>
      <trkpt lat="41.2552810" lon="1.4584000">
        <ele>165.0</ele>
        <time>2021-05-07T21:59:28Z</time>
      </trkpt>
      <trkpt lat="41.2554140" lon="1.4584880">
        <ele>165.4</ele>
        <time>2021-05-07T21:59:33Z</time>
      </trkpt>
      <trkpt lat="41.2555510" lon="1.4585790">
        <ele>164.8</ele>
        <time>2021-05-07T21:59:38Z</time>
      </trkpt>
      <trkpt lat="41.2557340" lon="1.4586780">
        <ele>164.6</ele>
        <time>2021-05-07T21:59:43Z</time>
      </trkpt>
      <trkpt lat="41.2559220" lon="1.4587800">
        <ele>164.6</ele>
        <time>2021-05-07T21:59:49Z</time>
      </trkpt>
      <trkpt lat="41.2560940" lon="1.4589040">
        <ele>164.8</ele>
        <time>2021-05-07T21:59:56Z</time>
      </trkpt>
      <trkpt lat="41.2562410" lon="1.4589780">
        <ele>165.2</ele>
        <time>2021-05-07T22:00:01Z</time>
      </trkpt>
      <trkpt lat="41.2563890" lon="1.4590150">
        <ele>164.8</ele>
        <time>2021-05-07T22:00:05Z</time>
      </trkpt>
      <trkpt lat="41.2564250" lon="1.4590230">
        <ele>164.8</ele>
        <time>2021-05-07T22:00:06Z</time>
      </trkpt>
      <trkpt lat="41.2566630" lon="1.4590690">
        <ele>164.4</ele>
        <time>2021-05-07T22:00:12Z</time>
      </trkpt>
      <trkpt lat="41.2568600" lon="1.4591200">
        <ele>164.0</ele>
        <time>2021-05-07T22:00:17Z</time>
      </trkpt>
      <trkpt lat="41.2569670" lon="1.4591430">
        <ele>163.6</ele>
        <time>2021-05-07T22:00:20Z</time>
      </trkpt>
      <trkpt lat="41.2570480" lon="1.4591600">
        <ele>163.4</ele>
        <time>2021-05-07T22:00:22Z</time>
      </trkpt>
      <trkpt lat="41.2573050" lon="1.4592190">
        <ele>162.8</ele>
        <time>2021-05-07T22:00:28Z</time>
      </trkpt>
      <trkpt lat="41.2573480" lon="1.4592290">
        <ele>162.6</ele>
        <time>2021-05-07T22:00:29Z</time>
      </trkpt>
      <trkpt lat="41.2573880" lon="1.4592350">
        <ele>162.4</ele>
        <time>2021-05-07T22:00:30Z</time>
      </trkpt>
      <trkpt lat="41.2575070" lon="1.4592410">
        <ele>162.6</ele>
        <time>2021-05-07T22:00:33Z</time>
      </trkpt>
      <trkpt lat="41.2575430" lon="1.4592320">
        <ele>162.8</ele>
        <time>2021-05-07T22:00:34Z</time>
      </trkpt>
      <trkpt lat="41.2576860" lon="1.4591620">
        <ele>162.6</ele>
        <time>2021-05-07T22:00:38Z</time>
      </trkpt>
      <trkpt lat="41.2578680" lon="1.4591390">
        <ele>161.8</ele>
        <time>2021-05-07T22:00:43Z</time>
      </trkpt>
      <trkpt lat="41.2580310" lon="1.4591820">
        <ele>162.0</ele>
        <time>2021-05-07T22:00:47Z</time>
      </trkpt>
      <trkpt lat="41.2580710" lon="1.4591930">
        <ele>162.0</ele>
        <time>2021-05-07T22:00:48Z</time>
      </trkpt>
      <trkpt lat="41.2582530" lon="1.4592640">
        <ele>161.8</ele>
        <time>2021-05-07T22:00:53Z</time>
      </trkpt>
      <trkpt lat="41.2584100" lon="1.4593400">
        <ele>162.0</ele>
        <time>2021-05-07T22:00:58Z</time>
      </trkpt>
      <trkpt lat="41.2585840" lon="1.4593990">
        <ele>161.8</ele>
        <time>2021-05-07T22:01:04Z</time>
      </trkpt>
      <trkpt lat="41.2587120" lon="1.4594330">
        <ele>162.0</ele>
        <time>2021-05-07T22:01:09Z</time>
      </trkpt>
      <trkpt lat="41.2587430" lon="1.4594400">
        <ele>161.4</ele>
        <time>2021-05-07T22:01:10Z</time>
      </trkpt>
      <trkpt lat="41.2588400" lon="1.4595020">
        <ele>161.0</ele>
        <time>2021-05-07T22:01:14Z</time>
      </trkpt>
      <trkpt lat="41.2589040" lon="1.4596340">
        <ele>160.8</ele>
        <time>2021-05-07T22:01:19Z</time>
      </trkpt>
      <trkpt lat="41.2589510" lon="1.4598300">
        <ele>160.8</ele>
        <time>2021-05-07T22:01:25Z</time>
      </trkpt>
      <trkpt lat="41.2589890" lon="1.4599370">
        <ele>160.2</ele>
        <time>2021-05-07T22:01:28Z</time>
      </trkpt>
      <trkpt lat="41.2590190" lon="1.4600010">
        <ele>160.0</ele>
        <time>2021-05-07T22:01:30Z</time>
      </trkpt>
      <trkpt lat="41.2591220" lon="1.4601950">
        <ele>160.4</ele>
        <time>2021-05-07T22:01:37Z</time>
      </trkpt>
      <trkpt lat="41.2592040" lon="1.4603570">
        <ele>160.4</ele>
        <time>2021-05-07T22:01:43Z</time>
      </trkpt>
      <trkpt lat="41.2593080" lon="1.4605440">
        <ele>159.8</ele>
        <time>2021-05-07T22:01:50Z</time>
      </trkpt>
      <trkpt lat="41.2594260" lon="1.4607150">
        <ele>159.2</ele>
        <time>2021-05-07T22:01:55Z</time>
      </trkpt>
      <trkpt lat="41.2595430" lon="1.4608390">
        <ele>159.4</ele>
        <time>2021-05-07T22:02:00Z</time>
      </trkpt>
      <trkpt lat="41.2597070" lon="1.4610090">
        <ele>159.0</ele>
        <time>2021-05-07T22:02:07Z</time>
      </trkpt>
      <trkpt lat="41.2597330" lon="1.4610500">
        <ele>158.6</ele>
        <time>2021-05-07T22:02:08Z</time>
      </trkpt>
      <trkpt lat="41.2598260" lon="1.4612340">
        <ele>158.0</ele>
        <time>2021-05-07T22:02:12Z</time>
      </trkpt>
      <trkpt lat="41.2598870" lon="1.4613620">
        <ele>158.4</ele>
        <time>2021-05-07T22:02:16Z</time>
      </trkpt>
      <trkpt lat="41.2599460" lon="1.4614980">
        <ele>158.2</ele>
        <time>2021-05-07T22:02:22Z</time>
      </trkpt>
      <trkpt lat="41.2599580" lon="1.4615250">
        <ele>158.4</ele>
        <time>2021-05-07T22:02:27Z</time>
      </trkpt>
      <trkpt lat="41.2599820" lon="1.4615590">
        <ele>157.8</ele>
        <time>2021-05-07T22:02:34Z</time>
      </trkpt>
      <trkpt lat="41.2600250" lon="1.4616040">
        <ele>157.8</ele>
        <time>2021-05-07T22:02:38Z</time>
      </trkpt>
      <trkpt lat="41.2600600" lon="1.4616460">
        <ele>158.2</ele>
        <time>2021-05-07T22:02:42Z</time>
      </trkpt>
      <trkpt lat="41.2600750" lon="1.4616630">
        <ele>158.2</ele>
        <time>2021-05-07T22:02:43Z</time>
      </trkpt>
      <trkpt lat="41.2601750" lon="1.4617590">
        <ele>158.2</ele>
        <time>2021-05-07T22:02:48Z</time>
      </trkpt>
      <trkpt lat="41.2602830" lon="1.4618890">
        <ele>157.8</ele>
        <time>2021-05-07T22:02:54Z</time>
      </trkpt>
      <trkpt lat="41.2603940" lon="1.4620450">
        <ele>157.4</ele>
        <time>2021-05-07T22:03:00Z</time>
      </trkpt>
      <trkpt lat="41.2605170" lon="1.4622050">
        <ele>157.4</ele>
        <time>2021-05-07T22:03:06Z</time>
      </trkpt>
      <trkpt lat="41.2606530" lon="1.4623900">
        <ele>157.2</ele>
        <time>2021-05-07T22:03:13Z</time>
      </trkpt>
      <trkpt lat="41.2607550" lon="1.4625330">
        <ele>157.0</ele>
        <time>2021-05-07T22:03:18Z</time>
      </trkpt>
      <trkpt lat="41.2609050" lon="1.4627750">
        <ele>156.8</ele>
        <time>2021-05-07T22:03:25Z</time>
      </trkpt>
      <trkpt lat="41.2609270" lon="1.4628130">
        <ele>156.6</ele>
        <time>2021-05-07T22:03:26Z</time>
      </trkpt>
      <trkpt lat="41.2610180" lon="1.4630100">
        <ele>156.6</ele>
        <time>2021-05-07T22:03:32Z</time>
      </trkpt>
      <trkpt lat="41.2611020" lon="1.4631700">
        <ele>156.2</ele>
        <time>2021-05-07T22:03:37Z</time>
      </trkpt>
      <trkpt lat="41.2611400" lon="1.4632250">
        <ele>156.0</ele>
        <time>2021-05-07T22:03:39Z</time>
      </trkpt>
      <trkpt lat="41.2612390" lon="1.4633470">
        <ele>155.4</ele>
        <time>2021-05-07T22:03:44Z</time>
      </trkpt>
      <trkpt lat="41.2613490" lon="1.4635330">
        <ele>155.2</ele>
        <time>2021-05-07T22:03:50Z</time>
      </trkpt>
      <trkpt lat="41.2614360" lon="1.4636720">
        <ele>155.6</ele>
        <time>2021-05-07T22:03:55Z</time>
      </trkpt>
      <trkpt lat="41.2615220" lon="1.4638720">
        <ele>155.8</ele>
        <time>2021-05-07T22:04:01Z</time>
      </trkpt>
      <trkpt lat="41.2615990" lon="1.4640390">
        <ele>155.0</ele>
        <time>2021-05-07T22:04:06Z</time>
      </trkpt>
      <trkpt lat="41.2616190" lon="1.4640730">
        <ele>154.6</ele>
        <time>2021-05-07T22:04:07Z</time>
      </trkpt>
      <trkpt lat="41.2617310" lon="1.4642030">
        <ele>154.0</ele>
        <time>2021-05-07T22:04:12Z</time>
      </trkpt>
      <trkpt lat="41.2618900" lon="1.4643170">
        <ele>154.2</ele>
        <time>2021-05-07T22:04:18Z</time>
      </trkpt>
      <trkpt lat="41.2619890" lon="1.4643310">
        <ele>153.6</ele>
        <time>2021-05-07T22:04:22Z</time>
      </trkpt>
      <trkpt lat="41.2620120" lon="1.4643330">
        <ele>153.6</ele>
        <time>2021-05-07T22:04:23Z</time>
      </trkpt>
      <trkpt lat="41.2621400" lon="1.4643260">
        <ele>153.4</ele>
        <time>2021-05-07T22:04:28Z</time>
      </trkpt>
      <trkpt lat="41.2622800" lon="1.4643040">
        <ele>153.6</ele>
        <time>2021-05-07T22:04:34Z</time>
      </trkpt>
      <trkpt lat="41.2623530" lon="1.4642490">
        <ele>153.8</ele>
        <time>2021-05-07T22:04:39Z</time>
      </trkpt>
      <trkpt lat="41.2623630" lon="1.4642340">
        <ele>153.8</ele>
        <time>2021-05-07T22:04:40Z</time>
      </trkpt>
      <trkpt lat="41.2623850" lon="1.4642310">
        <ele>153.6</ele>
        <time>2021-05-07T22:04:43Z</time>
      </trkpt>
      <trkpt lat="41.2623850" lon="1.4642310">
        <ele>153.6</ele>
        <time>2021-05-07T22:04:44Z</time>
      </trkpt>
      <trkpt lat="41.2624090" lon="1.4642320">
        <ele>152.8</ele>
        <time>2021-05-07T22:05:44Z</time>
      </trkpt>
      <trkpt lat="41.2624610" lon="1.4642300">
        <ele>152.6</ele>
        <time>2021-05-07T22:05:47Z</time>
      </trkpt>
      <trkpt lat="41.2625960" lon="1.4642310">
        <ele>152.4</ele>
        <time>2021-05-07T22:05:55Z</time>
      </trkpt>
      <trkpt lat="41.2628080" lon="1.4642020">
        <ele>152.2</ele>
        <time>2021-05-07T22:06:04Z</time>
      </trkpt>
      <trkpt lat="41.2628930" lon="1.4641940">
        <ele>151.6</ele>
        <time>2021-05-07T22:06:07Z</time>
      </trkpt>
      <trkpt lat="41.2629810" lon="1.4641790">
        <ele>151.2</ele>
        <time>2021-05-07T22:06:10Z</time>
      </trkpt>
      <trkpt lat="41.2631530" lon="1.4641540">
        <ele>151.4</ele>
        <time>2021-05-07T22:06:16Z</time>
      </trkpt>
      <trkpt lat="41.2633350" lon="1.4641710">
        <ele>150.8</ele>
        <time>2021-05-07T22:06:23Z</time>
      </trkpt>
      <trkpt lat="41.2634950" lon="1.4641950">
        <ele>151.0</ele>
        <time>2021-05-07T22:06:29Z</time>
      </trkpt>
      <trkpt lat="41.2636490" lon="1.4642350">
        <ele>151.0</ele>
        <time>2021-05-07T22:06:35Z</time>
      </trkpt>
      <trkpt lat="41.2638080" lon="1.4642630">
        <ele>150.4</ele>
        <time>2021-05-07T22:06:41Z</time>
      </trkpt>
      <trkpt lat="41.2638370" lon="1.4642720">
        <ele>150.6</ele>
        <time>2021-05-07T22:06:42Z</time>
      </trkpt>
      <trkpt lat="41.2639740" lon="1.4643470">
        <ele>150.8</ele>
        <time>2021-05-07T22:06:48Z</time>
      </trkpt>
      <trkpt lat="41.2640650" lon="1.4644470">
        <ele>150.6</ele>
        <time>2021-05-07T22:06:53Z</time>
      </trkpt>
      <trkpt lat="41.2641380" lon="1.4645890">
        <ele>150.8</ele>
        <time>2021-05-07T22:06:59Z</time>
      </trkpt>
      <trkpt lat="41.2641600" lon="1.4646300">
        <ele>150.8</ele>
        <time>2021-05-07T22:07:01Z</time>
      </trkpt>
      <trkpt lat="41.2641900" lon="1.4646960">
        <ele>150.8</ele>
        <time>2021-05-07T22:07:04Z</time>
      </trkpt>
      <trkpt lat="41.2642370" lon="1.4648170">
        <ele>150.2</ele>
        <time>2021-05-07T22:07:08Z</time>
      </trkpt>
      <trkpt lat="41.2642420" lon="1.4648290">
        <ele>150.2</ele>
        <time>2021-05-07T22:07:09Z</time>
      </trkpt>
      <trkpt lat="41.2642480" lon="1.4648350">
        <ele>150.0</ele>
        <time>2021-05-07T22:07:10Z</time>
      </trkpt>
      <trkpt lat="41.2643540" lon="1.4650570">
        <ele>150.6</ele>
        <time>2021-05-07T22:08:09Z</time>
      </trkpt>
      <trkpt lat="41.2643620" lon="1.4651250">
        <ele>150.6</ele>
        <time>2021-05-07T22:08:11Z</time>
      </trkpt>
      <trkpt lat="41.2643920" lon="1.4652920">
        <ele>149.4</ele>
        <time>2021-05-07T22:08:16Z</time>
      </trkpt>
      <trkpt lat="41.2644020" lon="1.4653270">
        <ele>149.2</ele>
        <time>2021-05-07T22:08:17Z</time>
      </trkpt>
      <trkpt lat="41.2644600" lon="1.4654380">
        <ele>148.2</ele>
        <time>2021-05-07T22:08:20Z</time>
      </trkpt>
      <trkpt lat="41.2644720" lon="1.4654730">
        <ele>148.0</ele>
        <time>2021-05-07T22:08:21Z</time>
      </trkpt>
      <trkpt lat="41.2645040" lon="1.4655330">
        <ele>147.8</ele>
        <time>2021-05-07T22:08:23Z</time>
      </trkpt>
      <trkpt lat="41.2645280" lon="1.4655550">
        <ele>147.8</ele>
        <time>2021-05-07T22:08:24Z</time>
      </trkpt>
      <trkpt lat="41.2646530" lon="1.4656510">
        <ele>148.6</ele>
        <time>2021-05-07T22:08:29Z</time>
      </trkpt>
      <trkpt lat="41.2646800" lon="1.4656750">
        <ele>148.8</ele>
        <time>2021-05-07T22:08:32Z</time>
      </trkpt>
      <trkpt lat="41.2647640" lon="1.4659310">
        <ele>148.0</ele>
        <time>2021-05-07T22:10:28Z</time>
      </trkpt>
      <trkpt lat="41.2647910" lon="1.4660070">
        <ele>148.2</ele>
        <time>2021-05-07T22:10:32Z</time>
      </trkpt>
      <trkpt lat="41.2647920" lon="1.4660310">
        <ele>148.2</ele>
        <time>2021-05-07T22:10:33Z</time>
      </trkpt>
      <trkpt lat="41.2647930" lon="1.4661470">
        <ele>148.2</ele>
        <time>2021-05-07T22:10:38Z</time>
      </trkpt>
      <trkpt lat="41.2647830" lon="1.4662620">
        <ele>148.6</ele>
        <time>2021-05-07T22:10:43Z</time>
      </trkpt>
      <trkpt lat="41.2647520" lon="1.4664530">
        <ele>148.0</ele>
        <time>2021-05-07T22:10:51Z</time>
      </trkpt>
      <trkpt lat="41.2647180" lon="1.4666400">
        <ele>147.6</ele>
        <time>2021-05-07T22:10:57Z</time>
      </trkpt>
      <trkpt lat="41.2646930" lon="1.4668490">
        <ele>147.2</ele>
        <time>2021-05-07T22:11:03Z</time>
      </trkpt>
      <trkpt lat="41.2646180" lon="1.4670100">
        <ele>147.2</ele>
        <time>2021-05-07T22:11:08Z</time>
      </trkpt>
      <trkpt lat="41.2645960" lon="1.4670320">
        <ele>146.8</ele>
        <time>2021-05-07T22:11:09Z</time>
      </trkpt>
      <trkpt lat="41.2644790" lon="1.4671640">
        <ele>146.0</ele>
        <time>2021-05-07T22:11:15Z</time>
      </trkpt>
      <trkpt lat="41.2644170" lon="1.4672870">
        <ele>146.2</ele>
        <time>2021-05-07T22:11:21Z</time>
      </trkpt>
      <trkpt lat="41.2644160" lon="1.4673080">
        <ele>146.2</ele>
        <time>2021-05-07T22:11:22Z</time>
      </trkpt>
      <trkpt lat="41.2643980" lon="1.4674160">
        <ele>145.6</ele>
        <time>2021-05-07T22:11:26Z</time>
      </trkpt>
      <trkpt lat="41.2643890" lon="1.4674430">
        <ele>145.4</ele>
        <time>2021-05-07T22:11:27Z</time>
      </trkpt>
      <trkpt lat="41.2643900" lon="1.4675240">
        <ele>145.4</ele>
        <time>2021-05-07T22:11:30Z</time>
      </trkpt>
      <trkpt lat="41.2644050" lon="1.4675700">
        <ele>145.2</ele>
        <time>2021-05-07T22:11:32Z</time>
      </trkpt>
      <trkpt lat="41.2644410" lon="1.4676780">
        <ele>145.0</ele>
        <time>2021-05-07T22:11:38Z</time>
      </trkpt>
      <trkpt lat="41.2644970" lon="1.4677650">
        <ele>144.6</ele>
        <time>2021-05-07T22:11:42Z</time>
      </trkpt>
      <trkpt lat="41.2645110" lon="1.4677850">
        <ele>144.6</ele>
        <time>2021-05-07T22:11:43Z</time>
      </trkpt>
      <trkpt lat="41.2645240" lon="1.4678050">
        <ele>144.6</ele>
        <time>2021-05-07T22:11:44Z</time>
      </trkpt>
      <trkpt lat="41.2645840" lon="1.4678820">
        <ele>144.8</ele>
        <time>2021-05-07T22:11:48Z</time>
      </trkpt>
      <trkpt lat="41.2646410" lon="1.4679520">
        <ele>145.0</ele>
        <time>2021-05-07T22:11:52Z</time>
      </trkpt>
      <trkpt lat="41.2647410" lon="1.4680900">
        <ele>144.8</ele>
        <time>2021-05-07T22:11:59Z</time>
      </trkpt>
      <trkpt lat="41.2648700" lon="1.4683080">
        <ele>144.6</ele>
        <time>2021-05-07T22:12:07Z</time>
      </trkpt>
      <trkpt lat="41.2649380" lon="1.4684840">
        <ele>145.0</ele>
        <time>2021-05-07T22:12:13Z</time>
      </trkpt>
      <trkpt lat="41.2650200" lon="1.4687000">
        <ele>144.2</ele>
        <time>2021-05-07T22:12:20Z</time>
      </trkpt>
      <trkpt lat="41.2651550" lon="1.4690070">
        <ele>144.2</ele>
        <time>2021-05-07T22:12:30Z</time>
      </trkpt>
      <trkpt lat="41.2652490" lon="1.4692000">
        <ele>143.6</ele>
        <time>2021-05-07T22:12:36Z</time>
      </trkpt>
      <trkpt lat="41.2652800" lon="1.4692570">
        <ele>143.6</ele>
        <time>2021-05-07T22:12:38Z</time>
      </trkpt>
      <trkpt lat="41.2654070" lon="1.4694480">
        <ele>143.6</ele>
        <time>2021-05-07T22:12:44Z</time>
      </trkpt>
      <trkpt lat="41.2655580" lon="1.4696290">
        <ele>143.6</ele>
        <time>2021-05-07T22:12:50Z</time>
      </trkpt>
      <trkpt lat="41.2657210" lon="1.4697180">
        <ele>144.4</ele>
        <time>2021-05-07T22:12:56Z</time>
      </trkpt>
      <trkpt lat="41.2658030" lon="1.4697760">
        <ele>144.4</ele>
        <time>2021-05-07T22:13:01Z</time>
      </trkpt>
      <trkpt lat="41.2658160" lon="1.4697830">
        <ele>144.4</ele>
        <time>2021-05-07T22:13:02Z</time>
      </trkpt>
      <trkpt lat="41.2658350" lon="1.4698060">
        <ele>144.6</ele>
        <time>2021-05-07T22:13:04Z</time>
      </trkpt>
      <trkpt lat="41.2658520" lon="1.4698250">
        <ele>144.4</ele>
        <time>2021-05-07T22:13:06Z</time>
      </trkpt>
      <trkpt lat="41.2659050" lon="1.4699120">
        <ele>145.2</ele>
        <time>2021-05-07T22:13:13Z</time>
      </trkpt>
      <trkpt lat="41.2659500" lon="1.4699850">
        <ele>145.4</ele>
        <time>2021-05-07T22:13:20Z</time>
      </trkpt>
      <trkpt lat="41.2659530" lon="1.4700010">
        <ele>145.4</ele>
        <time>2021-05-07T22:13:21Z</time>
      </trkpt>
      <trkpt lat="41.2659950" lon="1.4701100">
        <ele>146.0</ele>
        <time>2021-05-07T22:13:29Z</time>
      </trkpt>
      <trkpt lat="41.2660450" lon="1.4701780">
        <ele>146.6</ele>
        <time>2021-05-07T22:13:35Z</time>
      </trkpt>
      <trkpt lat="41.2660530" lon="1.4701900">
        <ele>146.6</ele>
        <time>2021-05-07T22:13:36Z</time>
      </trkpt>
      <trkpt lat="41.2661290" lon="1.4702990">
        <ele>147.2</ele>
        <time>2021-05-07T22:13:44Z</time>
      </trkpt>
      <trkpt lat="41.2661700" lon="1.4703520">
        <ele>147.6</ele>
        <time>2021-05-07T22:13:48Z</time>
      </trkpt>
      <trkpt lat="41.2662030" lon="1.4704000">
        <ele>148.4</ele>
        <time>2021-05-07T22:13:52Z</time>
      </trkpt>
      <trkpt lat="41.2662080" lon="1.4704130">
        <ele>148.6</ele>
        <time>2021-05-07T22:13:53Z</time>
      </trkpt>
      <trkpt lat="41.2662550" lon="1.4705340">
        <ele>149.4</ele>
        <time>2021-05-07T22:13:59Z</time>
      </trkpt>
      <trkpt lat="41.2663160" lon="1.4706610">
        <ele>148.6</ele>
        <time>2021-05-07T22:14:06Z</time>
      </trkpt>
      <trkpt lat="41.2663210" lon="1.4706710">
        <ele>148.2</ele>
        <time>2021-05-07T22:14:09Z</time>
      </trkpt>
      <trkpt lat="41.2663530" lon="1.4706790">
        <ele>147.4</ele>
        <time>2021-05-07T22:17:23Z</time>
      </trkpt>
      <trkpt lat="41.2663650" lon="1.4706840">
        <ele>147.4</ele>
        <time>2021-05-07T22:17:24Z</time>
      </trkpt>
      <trkpt lat="41.2664180" lon="1.4707330">
        <ele>147.0</ele>
        <time>2021-05-07T22:17:28Z</time>
      </trkpt>
      <trkpt lat="41.2664350" lon="1.4707840">
        <ele>146.6</ele>
        <time>2021-05-07T22:17:30Z</time>
      </trkpt>
      <trkpt lat="41.2664540" lon="1.4710140">
        <ele>146.4</ele>
        <time>2021-05-07T22:17:37Z</time>
      </trkpt>
      <trkpt lat="41.2664990" lon="1.4713430">
        <ele>146.0</ele>
        <time>2021-05-07T22:17:44Z</time>
      </trkpt>
      <trkpt lat="41.2665120" lon="1.4714430">
        <ele>146.0</ele>
        <time>2021-05-07T22:17:46Z</time>
      </trkpt>
      <trkpt lat="41.2665670" lon="1.4718190">
        <ele>146.0</ele>
        <time>2021-05-07T22:17:53Z</time>
      </trkpt>
      <trkpt lat="41.2666160" lon="1.4721910">
        <ele>145.2</ele>
        <time>2021-05-07T22:18:00Z</time>
      </trkpt>
      <trkpt lat="41.2666830" lon="1.4725850">
        <ele>145.8</ele>
        <time>2021-05-07T22:18:08Z</time>
      </trkpt>
      <trkpt lat="41.2667690" lon="1.4729270">
        <ele>146.2</ele>
        <time>2021-05-07T22:18:16Z</time>
      </trkpt>
      <trkpt lat="41.2668430" lon="1.4731750">
        <ele>146.2</ele>
        <time>2021-05-07T22:18:22Z</time>
      </trkpt>
      <trkpt lat="41.2669260" lon="1.4734220">
        <ele>146.2</ele>
        <time>2021-05-07T22:18:28Z</time>
      </trkpt>
      <trkpt lat="41.2670390" lon="1.4737080">
        <ele>146.8</ele>
        <time>2021-05-07T22:18:35Z</time>
      </trkpt>
      <trkpt lat="41.2671810" lon="1.4740060">
        <ele>146.8</ele>
        <time>2021-05-07T22:18:42Z</time>
      </trkpt>
      <trkpt lat="41.2673010" lon="1.4741970">
        <ele>146.4</ele>
        <time>2021-05-07T22:18:47Z</time>
      </trkpt>
      <trkpt lat="41.2674750" lon="1.4744180">
        <ele>146.8</ele>
        <time>2021-05-07T22:18:52Z</time>
      </trkpt>
      <trkpt lat="41.2675120" lon="1.4744670">
        <ele>146.8</ele>
        <time>2021-05-07T22:18:53Z</time>
      </trkpt>
      <trkpt lat="41.2677300" lon="1.4747670">
        <ele>146.6</ele>
        <time>2021-05-07T22:18:59Z</time>
      </trkpt>
      <trkpt lat="41.2679770" lon="1.4751050">
        <ele>146.8</ele>
        <time>2021-05-07T22:19:06Z</time>
      </trkpt>
      <trkpt lat="41.2681830" lon="1.4754020">
        <ele>146.0</ele>
        <time>2021-05-07T22:19:12Z</time>
      </trkpt>
      <trkpt lat="41.2682530" lon="1.4755100">
        <ele>145.8</ele>
        <time>2021-05-07T22:19:14Z</time>
      </trkpt>
      <trkpt lat="41.2684130" lon="1.4757960">
        <ele>145.0</ele>
        <time>2021-05-07T22:19:19Z</time>
      </trkpt>
      <trkpt lat="41.2684410" lon="1.4758570">
        <ele>144.8</ele>
        <time>2021-05-07T22:19:20Z</time>
      </trkpt>
      <trkpt lat="41.2686010" lon="1.4762690">
        <ele>144.0</ele>
        <time>2021-05-07T22:19:27Z</time>
      </trkpt>
      <trkpt lat="41.2686780" lon="1.4765040">
        <ele>144.8</ele>
        <time>2021-05-07T22:19:33Z</time>
      </trkpt>
      <trkpt lat="41.2687640" lon="1.4767740">
        <ele>145.8</ele>
        <time>2021-05-07T22:19:42Z</time>
      </trkpt>
      <trkpt lat="41.2688280" lon="1.4770490">
        <ele>146.2</ele>
        <time>2021-05-07T22:19:51Z</time>
      </trkpt>
      <trkpt lat="41.2688270" lon="1.4770970">
        <ele>145.8</ele>
        <time>2021-05-07T22:19:56Z</time>
      </trkpt>
      <trkpt lat="41.2688390" lon="1.4771690">
        <ele>146.0</ele>
        <time>2021-05-07T22:20:14Z</time>
      </trkpt>
      <trkpt lat="41.2688560" lon="1.4772270">
        <ele>146.0</ele>
        <time>2021-05-07T22:20:16Z</time>
      </trkpt>
      <trkpt lat="41.2689380" lon="1.4774920">
        <ele>145.6</ele>
        <time>2021-05-07T22:20:25Z</time>
      </trkpt>
      <trkpt lat="41.2689850" lon="1.4777250">
        <ele>144.8</ele>
        <time>2021-05-07T22:20:30Z</time>
      </trkpt>
      <trkpt lat="41.2689960" lon="1.4777850">
        <ele>144.2</ele>
        <time>2021-05-07T22:20:31Z</time>
      </trkpt>
      <trkpt lat="41.2690510" lon="1.4781320">
        <ele>143.4</ele>
        <time>2021-05-07T22:20:36Z</time>
      </trkpt>
      <trkpt lat="41.2690600" lon="1.4782020">
        <ele>143.0</ele>
        <time>2021-05-07T22:20:37Z</time>
      </trkpt>
      <trkpt lat="41.2690970" lon="1.4785340">
        <ele>142.0</ele>
        <time>2021-05-07T22:20:42Z</time>
      </trkpt>
      <trkpt lat="41.2691090" lon="1.4786660">
        <ele>141.6</ele>
        <time>2021-05-07T22:20:44Z</time>
      </trkpt>
      <trkpt lat="41.2691480" lon="1.4792610">
        <ele>140.8</ele>
        <time>2021-05-07T22:20:53Z</time>
      </trkpt>
      <trkpt lat="41.2691490" lon="1.4793280">
        <ele>140.6</ele>
        <time>2021-05-07T22:20:54Z</time>
      </trkpt>
      <trkpt lat="41.2691530" lon="1.4798060">
        <ele>139.6</ele>
        <time>2021-05-07T22:21:02Z</time>
      </trkpt>
      <trkpt lat="41.2691340" lon="1.4803430">
        <ele>138.8</ele>
        <time>2021-05-07T22:21:12Z</time>
      </trkpt>
      <trkpt lat="41.2691050" lon="1.4807090">
        <ele>138.4</ele>
        <time>2021-05-07T22:21:19Z</time>
      </trkpt>
      <trkpt lat="41.2690950" lon="1.4808140">
        <ele>138.2</ele>
        <time>2021-05-07T22:21:21Z</time>
      </trkpt>
      <trkpt lat="41.2690290" lon="1.4813440">
        <ele>138.2</ele>
        <time>2021-05-07T22:21:30Z</time>
      </trkpt>
      <trkpt lat="41.2689620" lon="1.4817230">
        <ele>137.8</ele>
        <time>2021-05-07T22:21:37Z</time>
      </trkpt>
      <trkpt lat="41.2688650" lon="1.4821470">
        <ele>138.8</ele>
        <time>2021-05-07T22:21:47Z</time>
      </trkpt>
      <trkpt lat="41.2687420" lon="1.4825520">
        <ele>137.4</ele>
        <time>2021-05-07T22:21:56Z</time>
      </trkpt>
      <trkpt lat="41.2687070" lon="1.4826520">
        <ele>137.2</ele>
        <time>2021-05-07T22:21:58Z</time>
      </trkpt>
      <trkpt lat="41.2685860" lon="1.4829570">
        <ele>136.2</ele>
        <time>2021-05-07T22:22:04Z</time>
      </trkpt>
      <trkpt lat="41.2685390" lon="1.4830630">
        <ele>135.8</ele>
        <time>2021-05-07T22:22:06Z</time>
      </trkpt>
      <trkpt lat="41.2684860" lon="1.4831700">
        <ele>134.8</ele>
        <time>2021-05-07T22:22:08Z</time>
      </trkpt>
      <trkpt lat="41.2683410" lon="1.4834400">
        <ele>133.8</ele>
        <time>2021-05-07T22:22:13Z</time>
      </trkpt>
      <trkpt lat="41.2682810" lon="1.4835440">
        <ele>133.6</ele>
        <time>2021-05-07T22:22:15Z</time>
      </trkpt>
      <trkpt lat="41.2681290" lon="1.4837800">
        <ele>133.0</ele>
        <time>2021-05-07T22:22:20Z</time>
      </trkpt>
      <trkpt lat="41.2680710" lon="1.4838640">
        <ele>132.8</ele>
        <time>2021-05-07T22:22:22Z</time>
      </trkpt>
      <trkpt lat="41.2680410" lon="1.4839030">
        <ele>132.6</ele>
        <time>2021-05-07T22:22:23Z</time>
      </trkpt>
      <trkpt lat="41.2677760" lon="1.4842460">
        <ele>132.0</ele>
        <time>2021-05-07T22:22:32Z</time>
      </trkpt>
      <trkpt lat="41.2676870" lon="1.4843620">
        <ele>131.6</ele>
        <time>2021-05-07T22:22:35Z</time>
      </trkpt>
      <trkpt lat="41.2675230" lon="1.4845760">
        <ele>131.4</ele>
        <time>2021-05-07T22:22:41Z</time>
      </trkpt>
      <trkpt lat="41.2672730" lon="1.4849020">
        <ele>130.8</ele>
        <time>2021-05-07T22:22:50Z</time>
      </trkpt>
      <trkpt lat="41.2672150" lon="1.4849750">
        <ele>130.6</ele>
        <time>2021-05-07T22:22:52Z</time>
      </trkpt>
      <trkpt lat="41.2670180" lon="1.4852300">
        <ele>130.2</ele>
        <time>2021-05-07T22:22:59Z</time>
      </trkpt>
      <trkpt lat="41.2667300" lon="1.4856070">
        <ele>129.8</ele>
        <time>2021-05-07T22:23:09Z</time>
      </trkpt>
      <trkpt lat="41.2666710" lon="1.4856800">
        <ele>129.6</ele>
        <time>2021-05-07T22:23:11Z</time>
      </trkpt>
      <trkpt lat="41.2664980" lon="1.4859050">
        <ele>129.0</ele>
        <time>2021-05-07T22:23:17Z</time>
      </trkpt>
      <trkpt lat="41.2663520" lon="1.4860960">
        <ele>128.4</ele>
        <time>2021-05-07T22:23:22Z</time>
      </trkpt>
      <trkpt lat="41.2662420" lon="1.4862370">
        <ele>128.2</ele>
        <time>2021-05-07T22:23:26Z</time>
      </trkpt>
      <trkpt lat="41.2660330" lon="1.4865120">
        <ele>127.8</ele>
        <time>2021-05-07T22:23:34Z</time>
      </trkpt>
      <trkpt lat="41.2657900" lon="1.4868250">
        <ele>127.6</ele>
        <time>2021-05-07T22:23:44Z</time>
      </trkpt>
      <trkpt lat="41.2656150" lon="1.4870480">
        <ele>128.0</ele>
        <time>2021-05-07T22:23:51Z</time>
      </trkpt>
      <trkpt lat="41.2653050" lon="1.4874540">
        <ele>129.4</ele>
        <time>2021-05-07T22:24:02Z</time>
      </trkpt>
      <trkpt lat="41.2651120" lon="1.4877070">
        <ele>130.4</ele>
        <time>2021-05-07T22:24:09Z</time>
      </trkpt>
      <trkpt lat="41.2649820" lon="1.4878740">
        <ele>130.8</ele>
        <time>2021-05-07T22:24:14Z</time>
      </trkpt>
      <trkpt lat="41.2648930" lon="1.4879910">
        <ele>131.6</ele>
        <time>2021-05-07T22:24:18Z</time>
      </trkpt>
      <trkpt lat="41.2647860" lon="1.4881320">
        <ele>132.0</ele>
        <time>2021-05-07T22:24:22Z</time>
      </trkpt>
      <trkpt lat="41.2647320" lon="1.4882040">
        <ele>132.6</ele>
        <time>2021-05-07T22:24:24Z</time>
      </trkpt>
      <trkpt lat="41.2645940" lon="1.4883880">
        <ele>133.4</ele>
        <time>2021-05-07T22:24:30Z</time>
      </trkpt>
      <trkpt lat="41.2644060" lon="1.4886670">
        <ele>133.6</ele>
        <time>2021-05-07T22:24:38Z</time>
      </trkpt>
      <trkpt lat="41.2642490" lon="1.4889550">
        <ele>132.4</ele>
        <time>2021-05-07T22:24:44Z</time>
      </trkpt>
      <trkpt lat="41.2640800" lon="1.4892360">
        <ele>131.6</ele>
        <time>2021-05-07T22:24:50Z</time>
      </trkpt>
      <trkpt lat="41.2639960" lon="1.4893400">
        <ele>131.4</ele>
        <time>2021-05-07T22:24:53Z</time>
      </trkpt>
      <trkpt lat="41.2637820" lon="1.4895090">
        <ele>131.0</ele>
        <time>2021-05-07T22:25:00Z</time>
      </trkpt>
      <trkpt lat="41.2636250" lon="1.4897230">
        <ele>130.6</ele>
        <time>2021-05-07T22:25:07Z</time>
      </trkpt>
      <trkpt lat="41.2635880" lon="1.4899250">
        <ele>130.8</ele>
        <time>2021-05-07T22:25:12Z</time>
      </trkpt>
      <trkpt lat="41.2635610" lon="1.4902290">
        <ele>130.6</ele>
        <time>2021-05-07T22:25:19Z</time>
      </trkpt>
      <trkpt lat="41.2635430" lon="1.4904860">
        <ele>130.8</ele>
        <time>2021-05-07T22:25:25Z</time>
      </trkpt>
      <trkpt lat="41.2635390" lon="1.4906070">
        <ele>130.6</ele>
        <time>2021-05-07T22:25:28Z</time>
      </trkpt>
      <trkpt lat="41.2635350" lon="1.4907340">
        <ele>130.8</ele>
        <time>2021-05-07T22:25:31Z</time>
      </trkpt>
      <trkpt lat="41.2635210" lon="1.4910190">
        <ele>130.8</ele>
        <time>2021-05-07T22:25:38Z</time>
      </trkpt>
      <trkpt lat="41.2634440" lon="1.4912420">
        <ele>130.6</ele>
        <time>2021-05-07T22:25:44Z</time>
      </trkpt>
      <trkpt lat="41.2633190" lon="1.4913940">
        <ele>130.4</ele>
        <time>2021-05-07T22:25:49Z</time>
      </trkpt>
      <trkpt lat="41.2632870" lon="1.4913980">
        <ele>130.4</ele>
        <time>2021-05-07T22:25:50Z</time>
      </trkpt>
      <trkpt lat="41.2632080" lon="1.4913950">
        <ele>130.6</ele>
        <time>2021-05-07T22:25:53Z</time>
      </trkpt>
      <trkpt lat="41.2631050" lon="1.4913930">
        <ele>131.6</ele>
        <time>2021-05-07T22:25:58Z</time>
      </trkpt>
      <trkpt lat="41.2630460" lon="1.4913850">
        <ele>132.0</ele>
        <time>2021-05-07T22:26:01Z</time>
      </trkpt>
      <trkpt lat="41.2629920" lon="1.4913750">
        <ele>132.6</ele>
        <time>2021-05-07T22:26:04Z</time>
      </trkpt>
      <trkpt lat="41.2629660" lon="1.4913740">
        <ele>133.0</ele>
        <time>2021-05-07T22:26:06Z</time>
      </trkpt>
      <trkpt lat="41.2629550" lon="1.4913810">
        <ele>133.2</ele>
        <time>2021-05-07T22:26:07Z</time>
      </trkpt>
      <trkpt lat="41.2629120" lon="1.4914380">
        <ele>133.6</ele>
        <time>2021-05-07T22:26:11Z</time>
      </trkpt>
      <trkpt lat="41.2628830" lon="1.4914770">
        <ele>133.6</ele>
        <time>2021-05-07T22:26:13Z</time>
      </trkpt>
      <trkpt lat="41.2627950" lon="1.4915740">
        <ele>133.2</ele>
        <time>2021-05-07T22:26:18Z</time>
      </trkpt>
      <trkpt lat="41.2626820" lon="1.4916830">
        <ele>132.6</ele>
        <time>2021-05-07T22:26:23Z</time>
      </trkpt>
      <trkpt lat="41.2625660" lon="1.4917580">
        <ele>132.8</ele>
        <time>2021-05-07T22:26:29Z</time>
      </trkpt>
      <trkpt lat="41.2624410" lon="1.4918210">
        <ele>133.0</ele>
        <time>2021-05-07T22:26:36Z</time>
      </trkpt>
      <trkpt lat="41.2622500" lon="1.4919260">
        <ele>133.6</ele>
        <time>2021-05-07T22:26:46Z</time>
      </trkpt>
      <trkpt lat="41.2622310" lon="1.4919390">
        <ele>133.8</ele>
        <time>2021-05-07T22:26:47Z</time>
      </trkpt>
      <trkpt lat="41.2620930" lon="1.4920610">
        <ele>134.0</ele>
        <time>2021-05-07T22:26:55Z</time>
      </trkpt>
      <trkpt lat="41.2619460" lon="1.4921810">
        <ele>134.0</ele>
        <time>2021-05-07T22:27:02Z</time>
      </trkpt>
      <trkpt lat="41.2617820" lon="1.4923360">
        <ele>134.0</ele>
        <time>2021-05-07T22:27:11Z</time>
      </trkpt>
      <trkpt lat="41.2616840" lon="1.4924170">
        <ele>133.8</ele>
        <time>2021-05-07T22:27:17Z</time>
      </trkpt>
      <trkpt lat="41.2615830" lon="1.4925120">
        <ele>134.0</ele>
        <time>2021-05-07T22:27:24Z</time>
      </trkpt>
      <trkpt lat="41.2615140" lon="1.4925940">
        <ele>134.0</ele>
        <time>2021-05-07T22:27:30Z</time>
      </trkpt>
      <trkpt lat="41.2614220" lon="1.4926830">
        <ele>134.0</ele>
        <time>2021-05-07T22:27:36Z</time>
      </trkpt>
      <trkpt lat="41.2612760" lon="1.4928260">
        <ele>134.0</ele>
        <time>2021-05-07T22:27:43Z</time>
      </trkpt>
      <trkpt lat="41.2610730" lon="1.4929670">
        <ele>133.8</ele>
        <time>2021-05-07T22:27:51Z</time>
      </trkpt>
      <trkpt lat="41.2608430" lon="1.4931010">
        <ele>134.2</ele>
        <time>2021-05-07T22:27:59Z</time>
      </trkpt>
      <trkpt lat="41.2606180" lon="1.4932280">
        <ele>133.8</ele>
        <time>2021-05-07T22:28:07Z</time>
      </trkpt>
      <trkpt lat="41.2604340" lon="1.4933160">
        <ele>133.6</ele>
        <time>2021-05-07T22:28:14Z</time>
      </trkpt>
      <trkpt lat="41.2601960" lon="1.4934000">
        <ele>133.6</ele>
        <time>2021-05-07T22:28:23Z</time>
      </trkpt>
      <trkpt lat="41.2599600" lon="1.4934900">
        <ele>133.8</ele>
        <time>2021-05-07T22:28:31Z</time>
      </trkpt>
      <trkpt lat="41.2599100" lon="1.4935050">
        <ele>133.6</ele>
        <time>2021-05-07T22:28:33Z</time>
      </trkpt>
      <trkpt lat="41.2597590" lon="1.4935650">
        <ele>133.6</ele>
        <time>2021-05-07T22:28:39Z</time>
      </trkpt>
      <trkpt lat="41.2596210" lon="1.4936770">
        <ele>133.6</ele>
        <time>2021-05-07T22:28:46Z</time>
      </trkpt>
      <trkpt lat="41.2595930" lon="1.4937550">
        <ele>133.2</ele>
        <time>2021-05-07T22:28:53Z</time>
      </trkpt>
      <trkpt lat="41.2595860" lon="1.4937620">
        <ele>133.0</ele>
        <time>2021-05-07T22:28:56Z</time>
      </trkpt>
      <trkpt lat="41.2595650" lon="1.4937630">
        <ele>133.0</ele>
        <time>2021-05-07T22:29:14Z</time>
      </trkpt>
      <trkpt lat="41.2595570" lon="1.4937570">
        <ele>132.8</ele>
        <time>2021-05-07T22:29:15Z</time>
      </trkpt>
      <trkpt lat="41.2595530" lon="1.4937580">
        <ele>132.8</ele>
        <time>2021-05-07T22:29:17Z</time>
      </trkpt>
      <trkpt lat="41.2595300" lon="1.4936120">
        <ele>133.6</ele>
        <time>2021-05-07T22:32:34Z</time>
      </trkpt>
      <trkpt lat="41.2595060" lon="1.4936090">
        <ele>133.4</ele>
        <time>2021-05-07T22:32:35Z</time>
      </trkpt>
      <trkpt lat="41.2593650" lon="1.4935910">
        <ele>132.6</ele>
        <time>2021-05-07T22:32:39Z</time>
      </trkpt>
      <trkpt lat="41.2593230" lon="1.4935900">
        <ele>132.4</ele>
        <time>2021-05-07T22:32:40Z</time>
      </trkpt>
      <trkpt lat="41.2591570" lon="1.4936200">
        <ele>132.0</ele>
        <time>2021-05-07T22:32:45Z</time>
      </trkpt>
      <trkpt lat="41.2590290" lon="1.4937050">
        <ele>132.6</ele>
        <time>2021-05-07T22:32:51Z</time>
      </trkpt>
      <trkpt lat="41.2589070" lon="1.4937840">
        <ele>133.0</ele>
        <time>2021-05-07T22:32:57Z</time>
      </trkpt>
      <trkpt lat="41.2588000" lon="1.4938500">
        <ele>134.2</ele>
        <time>2021-05-07T22:33:03Z</time>
      </trkpt>
      <trkpt lat="41.2587660" lon="1.4938740">
        <ele>134.4</ele>
        <time>2021-05-07T22:33:05Z</time>
      </trkpt>
      <trkpt lat="41.2586970" lon="1.4939230">
        <ele>135.2</ele>
        <time>2021-05-07T22:33:09Z</time>
      </trkpt>
      <trkpt lat="41.2586070" lon="1.4939920">
        <ele>135.4</ele>
        <time>2021-05-07T22:33:14Z</time>
      </trkpt>
      <trkpt lat="41.2584950" lon="1.4941350">
        <ele>135.2</ele>
        <time>2021-05-07T22:33:21Z</time>
      </trkpt>
      <trkpt lat="41.2583900" lon="1.4943140">
        <ele>135.6</ele>
        <time>2021-05-07T22:33:28Z</time>
      </trkpt>
      <trkpt lat="41.2582660" lon="1.4945110">
        <ele>135.8</ele>
        <time>2021-05-07T22:33:36Z</time>
      </trkpt>
      <trkpt lat="41.2581520" lon="1.4946660">
        <ele>135.4</ele>
        <time>2021-05-07T22:33:42Z</time>
      </trkpt>
      <trkpt lat="41.2580010" lon="1.4948790">
        <ele>134.6</ele>
        <time>2021-05-07T22:33:49Z</time>
      </trkpt>
      <trkpt lat="41.2578810" lon="1.4950410">
        <ele>134.2</ele>
        <time>2021-05-07T22:33:54Z</time>
      </trkpt>
      <trkpt lat="41.2578060" lon="1.4951520">
        <ele>133.6</ele>
        <time>2021-05-07T22:33:57Z</time>
      </trkpt>
      <trkpt lat="41.2577260" lon="1.4952780">
        <ele>133.2</ele>
        <time>2021-05-07T22:34:00Z</time>
      </trkpt>
      <trkpt lat="41.2575890" lon="1.4954680">
        <ele>132.2</ele>
        <time>2021-05-07T22:34:04Z</time>
      </trkpt>
      <trkpt lat="41.2575220" lon="1.4955580">
        <ele>131.6</ele>
        <time>2021-05-07T22:34:06Z</time>
      </trkpt>
      <trkpt lat="41.2573690" lon="1.4957640">
        <ele>131.0</ele>
        <time>2021-05-07T22:34:11Z</time>
      </trkpt>
      <trkpt lat="41.2573190" lon="1.4958300">
        <ele>130.6</ele>
        <time>2021-05-07T22:34:13Z</time>
      </trkpt>
      <trkpt lat="41.2572230" lon="1.4959430">
        <ele>130.2</ele>
        <time>2021-05-07T22:34:17Z</time>
      </trkpt>
      <trkpt lat="41.2570730" lon="1.4961510">
        <ele>130.0</ele>
        <time>2021-05-07T22:34:23Z</time>
      </trkpt>
      <trkpt lat="41.2568720" lon="1.4962660">
        <ele>130.0</ele>
        <time>2021-05-07T22:34:29Z</time>
      </trkpt>
      <trkpt lat="41.2566070" lon="1.4963300">
        <ele>129.8</ele>
        <time>2021-05-07T22:34:37Z</time>
      </trkpt>
      <trkpt lat="41.2564480" lon="1.4963640">
        <ele>129.6</ele>
        <time>2021-05-07T22:34:42Z</time>
      </trkpt>
      <trkpt lat="41.2563840" lon="1.4963810">
        <ele>129.2</ele>
        <time>2021-05-07T22:34:44Z</time>
      </trkpt>
      <trkpt lat="41.2562000" lon="1.4964740">
        <ele>128.8</ele>
        <time>2021-05-07T22:34:50Z</time>
      </trkpt>
      <trkpt lat="41.2561480" lon="1.4966590">
        <ele>128.6</ele>
        <time>2021-05-07T22:34:54Z</time>
      </trkpt>
      <trkpt lat="41.2560600" lon="1.4970340">
        <ele>127.8</ele>
        <time>2021-05-07T22:35:02Z</time>
      </trkpt>
      <trkpt lat="41.2560360" lon="1.4970610">
        <ele>127.6</ele>
        <time>2021-05-07T22:35:03Z</time>
      </trkpt>
      <trkpt lat="41.2559410" lon="1.4971430">
        <ele>127.2</ele>
        <time>2021-05-07T22:35:06Z</time>
      </trkpt>
      <trkpt lat="41.2557720" lon="1.4973460">
        <ele>126.8</ele>
        <time>2021-05-07T22:35:12Z</time>
      </trkpt>
      <trkpt lat="41.2557110" lon="1.4974840">
        <ele>126.6</ele>
        <time>2021-05-07T22:35:15Z</time>
      </trkpt>
      <trkpt lat="41.2556490" lon="1.4976180">
        <ele>125.8</ele>
        <time>2021-05-07T22:35:18Z</time>
      </trkpt>
      <trkpt lat="41.2555760" lon="1.4977420">
        <ele>125.6</ele>
        <time>2021-05-07T22:35:21Z</time>
      </trkpt>
      <trkpt lat="41.2555060" lon="1.4978960">
        <ele>124.8</ele>
        <time>2021-05-07T22:35:24Z</time>
      </trkpt>
      <trkpt lat="41.2554640" lon="1.4980140">
        <ele>124.2</ele>
        <time>2021-05-07T22:35:26Z</time>
      </trkpt>
      <trkpt lat="41.2553730" lon="1.4982720">
        <ele>123.2</ele>
        <time>2021-05-07T22:35:30Z</time>
      </trkpt>
      <trkpt lat="41.2553500" lon="1.4983350">
        <ele>123.0</ele>
        <time>2021-05-07T22:35:31Z</time>
      </trkpt>
      <trkpt lat="41.2552870" lon="1.4985100">
        <ele>122.4</ele>
        <time>2021-05-07T22:35:34Z</time>
      </trkpt>
      <trkpt lat="41.2552600" lon="1.4985590">
        <ele>122.0</ele>
        <time>2021-05-07T22:35:35Z</time>
      </trkpt>
      <trkpt lat="41.2552270" lon="1.4985990">
        <ele>121.8</ele>
        <time>2021-05-07T22:35:36Z</time>
      </trkpt>
      <trkpt lat="41.2551270" lon="1.4986870">
        <ele>121.4</ele>
        <time>2021-05-07T22:35:39Z</time>
      </trkpt>
      <trkpt lat="41.2550690" lon="1.4987330">
        <ele>121.0</ele>
        <time>2021-05-07T22:35:41Z</time>
      </trkpt>
      <trkpt lat="41.2548710" lon="1.4989050">
        <ele>120.8</ele>
        <time>2021-05-07T22:35:49Z</time>
      </trkpt>
      <trkpt lat="41.2548490" lon="1.4989240">
        <ele>120.8</ele>
        <time>2021-05-07T22:35:50Z</time>
      </trkpt>
      <trkpt lat="41.2548270" lon="1.4989440">
        <ele>120.8</ele>
        <time>2021-05-07T22:35:51Z</time>
      </trkpt>
      <trkpt lat="41.2546890" lon="1.4990580">
        <ele>120.8</ele>
        <time>2021-05-07T22:35:57Z</time>
      </trkpt>
      <trkpt lat="41.2544840" lon="1.4992190">
        <ele>120.8</ele>
        <time>2021-05-07T22:36:06Z</time>
      </trkpt>
      <trkpt lat="41.2543720" lon="1.4992830">
        <ele>121.0</ele>
        <time>2021-05-07T22:36:11Z</time>
      </trkpt>
      <trkpt lat="41.2542770" lon="1.4993400">
        <ele>121.6</ele>
        <time>2021-05-07T22:36:17Z</time>
      </trkpt>
      <trkpt lat="41.2542470" lon="1.4993990">
        <ele>122.0</ele>
        <time>2021-05-07T22:36:20Z</time>
      </trkpt>
      <trkpt lat="41.2542410" lon="1.4994460">
        <ele>122.2</ele>
        <time>2021-05-07T22:36:22Z</time>
      </trkpt>
      <trkpt lat="41.2541870" lon="1.4996180">
        <ele>121.4</ele>
        <time>2021-05-07T22:36:28Z</time>
      </trkpt>
      <trkpt lat="41.2541710" lon="1.4997250">
        <ele>120.8</ele>
        <time>2021-05-07T22:36:31Z</time>
      </trkpt>
      <trkpt lat="41.2541740" lon="1.4998070">
        <ele>120.4</ele>
        <time>2021-05-07T22:36:33Z</time>
      </trkpt>
      <trkpt lat="41.2541890" lon="1.4999260">
        <ele>119.8</ele>
        <time>2021-05-07T22:36:36Z</time>
      </trkpt>
      <trkpt lat="41.2541810" lon="1.5000110">
        <ele>119.4</ele>
        <time>2021-05-07T22:36:38Z</time>
      </trkpt>
      <trkpt lat="41.2540870" lon="1.5001430">
        <ele>118.8</ele>
        <time>2021-05-07T22:36:42Z</time>
      </trkpt>
      <trkpt lat="41.2540590" lon="1.5001680">
        <ele>118.8</ele>
        <time>2021-05-07T22:36:43Z</time>
      </trkpt>
      <trkpt lat="41.2539070" lon="1.5002820">
        <ele>117.8</ele>
        <time>2021-05-07T22:36:48Z</time>
      </trkpt>
      <trkpt lat="41.2538490" lon="1.5003410">
        <ele>117.8</ele>
        <time>2021-05-07T22:36:50Z</time>
      </trkpt>
      <trkpt lat="41.2536930" lon="1.5004730">
        <ele>116.8</ele>
        <time>2021-05-07T22:36:55Z</time>
      </trkpt>
      <trkpt lat="41.2535550" lon="1.5005880">
        <ele>115.8</ele>
        <time>2021-05-07T22:37:00Z</time>
      </trkpt>
      <trkpt lat="41.2535190" lon="1.5006230">
        <ele>115.4</ele>
        <time>2021-05-07T22:37:02Z</time>
      </trkpt>
      <trkpt lat="41.2534730" lon="1.5006780">
        <ele>114.4</ele>
        <time>2021-05-07T22:37:06Z</time>
      </trkpt>
      <trkpt lat="41.2534530" lon="1.5006840">
        <ele>114.4</ele>
        <time>2021-05-07T22:37:07Z</time>
      </trkpt>
      <trkpt lat="41.2533540" lon="1.5007500">
        <ele>114.4</ele>
        <time>2021-05-07T22:37:12Z</time>
      </trkpt>
      <trkpt lat="41.2532400" lon="1.5009040">
        <ele>113.4</ele>
        <time>2021-05-07T22:37:16Z</time>
      </trkpt>
      <trkpt lat="41.2532120" lon="1.5009500">
        <ele>113.4</ele>
        <time>2021-05-07T22:37:17Z</time>
      </trkpt>
      <trkpt lat="41.2531060" lon="1.5011880">
        <ele>112.4</ele>
        <time>2021-05-07T22:37:22Z</time>
      </trkpt>
      <trkpt lat="41.2530840" lon="1.5012340">
        <ele>112.2</ele>
        <time>2021-05-07T22:37:23Z</time>
      </trkpt>
      <trkpt lat="41.2530440" lon="1.5013280">
        <ele>112.0</ele>
        <time>2021-05-07T22:37:25Z</time>
      </trkpt>
      <trkpt lat="41.2529720" lon="1.5015200">
        <ele>112.0</ele>
        <time>2021-05-07T22:37:29Z</time>
      </trkpt>
      <trkpt lat="41.2528740" lon="1.5018240">
        <ele>111.8</ele>
        <time>2021-05-07T22:37:35Z</time>
      </trkpt>
      <trkpt lat="41.2527640" lon="1.5021320">
        <ele>111.4</ele>
        <time>2021-05-07T22:37:42Z</time>
      </trkpt>
      <trkpt lat="41.2527490" lon="1.5021740">
        <ele>111.4</ele>
        <time>2021-05-07T22:37:43Z</time>
      </trkpt>
      <trkpt lat="41.2527210" lon="1.5023070">
        <ele>111.4</ele>
        <time>2021-05-07T22:37:46Z</time>
      </trkpt>
      <trkpt lat="41.2526700" lon="1.5025580">
        <ele>110.6</ele>
        <time>2021-05-07T22:37:52Z</time>
      </trkpt>
      <trkpt lat="41.2526550" lon="1.5026400">
        <ele>110.4</ele>
        <time>2021-05-07T22:37:54Z</time>
      </trkpt>
      <trkpt lat="41.2526270" lon="1.5028450">
        <ele>109.0</ele>
        <time>2021-05-07T22:37:59Z</time>
      </trkpt>
      <trkpt lat="41.2526150" lon="1.5029270">
        <ele>108.4</ele>
        <time>2021-05-07T22:38:01Z</time>
      </trkpt>
      <trkpt lat="41.2526100" lon="1.5029640">
        <ele>108.0</ele>
        <time>2021-05-07T22:38:02Z</time>
      </trkpt>
      <trkpt lat="41.2526110" lon="1.5031410">
        <ele>106.8</ele>
        <time>2021-05-07T22:38:06Z</time>
      </trkpt>
      <trkpt lat="41.2526180" lon="1.5033800">
        <ele>106.2</ele>
        <time>2021-05-07T22:38:11Z</time>
      </trkpt>
      <trkpt lat="41.2525830" lon="1.5036230">
        <ele>105.8</ele>
        <time>2021-05-07T22:38:16Z</time>
      </trkpt>
      <trkpt lat="41.2525760" lon="1.5036780">
        <ele>105.6</ele>
        <time>2021-05-07T22:38:17Z</time>
      </trkpt>
      <trkpt lat="41.2525370" lon="1.5039920">
        <ele>104.6</ele>
        <time>2021-05-07T22:38:23Z</time>
      </trkpt>
      <trkpt lat="41.2525310" lon="1.5040350">
        <ele>104.2</ele>
        <time>2021-05-07T22:38:24Z</time>
      </trkpt>
      <trkpt lat="41.2525060" lon="1.5042350">
        <ele>103.4</ele>
        <time>2021-05-07T22:38:29Z</time>
      </trkpt>
      <trkpt lat="41.2525000" lon="1.5043190">
        <ele>103.0</ele>
        <time>2021-05-07T22:38:31Z</time>
      </trkpt>
      <trkpt lat="41.2524750" lon="1.5045490">
        <ele>102.2</ele>
        <time>2021-05-07T22:38:36Z</time>
      </trkpt>
      <trkpt lat="41.2524660" lon="1.5046530">
        <ele>101.8</ele>
        <time>2021-05-07T22:38:38Z</time>
      </trkpt>
      <trkpt lat="41.2524210" lon="1.5049660">
        <ele>101.0</ele>
        <time>2021-05-07T22:38:44Z</time>
      </trkpt>
      <trkpt lat="41.2524020" lon="1.5050780">
        <ele>100.6</ele>
        <time>2021-05-07T22:38:46Z</time>
      </trkpt>
      <trkpt lat="41.2523860" lon="1.5051950">
        <ele>100.6</ele>
        <time>2021-05-07T22:38:48Z</time>
      </trkpt>
      <trkpt lat="41.2523700" lon="1.5053160">
        <ele>100.2</ele>
        <time>2021-05-07T22:38:50Z</time>
      </trkpt>
      <trkpt lat="41.2523410" lon="1.5055070">
        <ele>99.6</ele>
        <time>2021-05-07T22:38:53Z</time>
      </trkpt>
      <trkpt lat="41.2522880" lon="1.5058710">
        <ele>98.2</ele>
        <time>2021-05-07T22:38:59Z</time>
      </trkpt>
      <trkpt lat="41.2522790" lon="1.5059310">
        <ele>98.2</ele>
        <time>2021-05-07T22:39:00Z</time>
      </trkpt>
      <trkpt lat="41.2522420" lon="1.5062040">
        <ele>97.2</ele>
        <time>2021-05-07T22:39:05Z</time>
      </trkpt>
      <trkpt lat="41.2522380" lon="1.5062480">
        <ele>97.0</ele>
        <time>2021-05-07T22:39:06Z</time>
      </trkpt>
      <trkpt lat="41.2522280" lon="1.5064490">
        <ele>96.6</ele>
        <time>2021-05-07T22:39:12Z</time>
      </trkpt>
      <trkpt lat="41.2522160" lon="1.5065630">
        <ele>96.2</ele>
        <time>2021-05-07T22:39:15Z</time>
      </trkpt>
      <trkpt lat="41.2521930" lon="1.5067210">
        <ele>95.8</ele>
        <time>2021-05-07T22:39:19Z</time>
      </trkpt>
      <trkpt lat="41.2521600" lon="1.5069060">
        <ele>95.4</ele>
        <time>2021-05-07T22:39:25Z</time>
      </trkpt>
      <trkpt lat="41.2521550" lon="1.5069220">
        <ele>95.2</ele>
        <time>2021-05-07T22:39:26Z</time>
      </trkpt>
      <trkpt lat="41.2521510" lon="1.5069270">
        <ele>95.2</ele>
        <time>2021-05-07T22:39:27Z</time>
      </trkpt>
      <trkpt lat="41.2521500" lon="1.5069270">
        <ele>94.8</ele>
        <time>2021-05-07T22:39:28Z</time>
      </trkpt>
      <trkpt lat="41.2521630" lon="1.5068470">
        <ele>94.8</ele>
        <time>2021-05-07T22:39:57Z</time>
      </trkpt>
      <trkpt lat="41.2521620" lon="1.5068310">
        <ele>95.0</ele>
        <time>2021-05-07T22:40:00Z</time>
      </trkpt>
      <trkpt lat="41.2521340" lon="1.5068460">
        <ele>94.8</ele>
        <time>2021-05-07T22:41:05Z</time>
      </trkpt>
      <trkpt lat="41.2520280" lon="1.5069340">
        <ele>94.0</ele>
        <time>2021-05-07T22:41:10Z</time>
      </trkpt>
      <trkpt lat="41.2520070" lon="1.5069590">
        <ele>93.6</ele>
        <time>2021-05-07T22:41:11Z</time>
      </trkpt>
      <trkpt lat="41.2518880" lon="1.5070820">
        <ele>93.2</ele>
        <time>2021-05-07T22:41:17Z</time>
      </trkpt>
      <trkpt lat="41.2518320" lon="1.5071360">
        <ele>93.0</ele>
        <time>2021-05-07T22:41:20Z</time>
      </trkpt>
      <trkpt lat="41.2517680" lon="1.5071820">
        <ele>92.0</ele>
        <time>2021-05-07T22:41:23Z</time>
      </trkpt>
      <trkpt lat="41.2517480" lon="1.5071960">
        <ele>91.8</ele>
        <time>2021-05-07T22:41:24Z</time>
      </trkpt>
      <trkpt lat="41.2516320" lon="1.5072830">
        <ele>91.4</ele>
        <time>2021-05-07T22:41:30Z</time>
      </trkpt>
      <trkpt lat="41.2514720" lon="1.5073800">
        <ele>91.4</ele>
        <time>2021-05-07T22:41:37Z</time>
      </trkpt>
      <trkpt lat="41.2513770" lon="1.5074210">
        <ele>91.6</ele>
        <time>2021-05-07T22:41:42Z</time>
      </trkpt>
      <trkpt lat="41.2512540" lon="1.5074720">
        <ele>90.8</ele>
        <time>2021-05-07T22:41:48Z</time>
      </trkpt>
      <trkpt lat="41.2512370" lon="1.5074810">
        <ele>90.6</ele>
        <time>2021-05-07T22:41:49Z</time>
      </trkpt>
      <trkpt lat="41.2510940" lon="1.5075470">
        <ele>90.2</ele>
        <time>2021-05-07T22:41:55Z</time>
      </trkpt>
      <trkpt lat="41.2509110" lon="1.5076400">
        <ele>90.2</ele>
        <time>2021-05-07T22:42:02Z</time>
      </trkpt>
      <trkpt lat="41.2508450" lon="1.5076680">
        <ele>90.2</ele>
        <time>2021-05-07T22:42:05Z</time>
      </trkpt>
      <trkpt lat="41.2507460" lon="1.5077080">
        <ele>90.2</ele>
        <time>2021-05-07T22:42:09Z</time>
      </trkpt>
      <trkpt lat="41.2505400" lon="1.5078080">
        <ele>90.0</ele>
        <time>2021-05-07T22:42:17Z</time>
      </trkpt>
      <trkpt lat="41.2504640" lon="1.5078460">
        <ele>89.6</ele>
        <time>2021-05-07T22:42:20Z</time>
      </trkpt>
      <trkpt lat="41.2503840" lon="1.5079090">
        <ele>89.2</ele>
        <time>2021-05-07T22:42:24Z</time>
      </trkpt>
      <trkpt lat="41.2502700" lon="1.5080280">
        <ele>89.2</ele>
        <time>2021-05-07T22:42:30Z</time>
      </trkpt>
      <trkpt lat="41.2501550" lon="1.5081470">
        <ele>89.6</ele>
        <time>2021-05-07T22:42:37Z</time>
      </trkpt>
      <trkpt lat="41.2500510" lon="1.5082570">
        <ele>89.4</ele>
        <time>2021-05-07T22:42:43Z</time>
      </trkpt>
      <trkpt lat="41.2499480" lon="1.5083740">
        <ele>88.6</ele>
        <time>2021-05-07T22:42:49Z</time>
      </trkpt>
      <trkpt lat="41.2499310" lon="1.5083980">
        <ele>88.6</ele>
        <time>2021-05-07T22:42:50Z</time>
      </trkpt>
      <trkpt lat="41.2498420" lon="1.5085070">
        <ele>88.6</ele>
        <time>2021-05-07T22:42:55Z</time>
      </trkpt>
      <trkpt lat="41.2497390" lon="1.5086500">
        <ele>88.2</ele>
        <time>2021-05-07T22:43:01Z</time>
      </trkpt>
      <trkpt lat="41.2496220" lon="1.5088140">
        <ele>88.6</ele>
        <time>2021-05-07T22:43:08Z</time>
      </trkpt>
      <trkpt lat="41.2495490" lon="1.5089270">
        <ele>88.0</ele>
        <time>2021-05-07T22:43:13Z</time>
      </trkpt>
      <trkpt lat="41.2494500" lon="1.5090750">
        <ele>88.0</ele>
        <time>2021-05-07T22:43:19Z</time>
      </trkpt>
      <trkpt lat="41.2493010" lon="1.5093210">
        <ele>87.8</ele>
        <time>2021-05-07T22:43:28Z</time>
      </trkpt>
      <trkpt lat="41.2491240" lon="1.5095870">
        <ele>88.6</ele>
        <time>2021-05-07T22:43:35Z</time>
      </trkpt>
      <trkpt lat="41.2489690" lon="1.5098230">
        <ele>89.0</ele>
        <time>2021-05-07T22:43:41Z</time>
      </trkpt>
      <trkpt lat="41.2488870" lon="1.5099560">
        <ele>88.0</ele>
        <time>2021-05-07T22:43:46Z</time>
      </trkpt>
      <trkpt lat="41.2488010" lon="1.5100970">
        <ele>88.2</ele>
        <time>2021-05-07T22:43:51Z</time>
      </trkpt>
      <trkpt lat="41.2486910" lon="1.5102680">
        <ele>87.8</ele>
        <time>2021-05-07T22:43:58Z</time>
      </trkpt>
      <trkpt lat="41.2486410" lon="1.5103330">
        <ele>87.8</ele>
        <time>2021-05-07T22:44:03Z</time>
      </trkpt>
      <trkpt lat="41.2486160" lon="1.5104720">
        <ele>87.6</ele>
        <time>2021-05-07T22:44:09Z</time>
      </trkpt>
      <trkpt lat="41.2486630" lon="1.5106320">
        <ele>87.4</ele>
        <time>2021-05-07T22:44:15Z</time>
      </trkpt>
      <trkpt lat="41.2487090" lon="1.5108900">
        <ele>87.2</ele>
        <time>2021-05-07T22:44:22Z</time>
      </trkpt>
      <trkpt lat="41.2487830" lon="1.5111700">
        <ele>86.8</ele>
        <time>2021-05-07T22:44:28Z</time>
      </trkpt>
      <trkpt lat="41.2489060" lon="1.5115370">
        <ele>86.4</ele>
        <time>2021-05-07T22:44:35Z</time>
      </trkpt>
      <trkpt lat="41.2489500" lon="1.5116390">
        <ele>86.4</ele>
        <time>2021-05-07T22:44:37Z</time>
      </trkpt>
      <trkpt lat="41.2490950" lon="1.5119010">
        <ele>85.4</ele>
        <time>2021-05-07T22:44:43Z</time>
      </trkpt>
      <trkpt lat="41.2491520" lon="1.5119680">
        <ele>85.2</ele>
        <time>2021-05-07T22:44:45Z</time>
      </trkpt>
      <trkpt lat="41.2492900" lon="1.5121120">
        <ele>84.4</ele>
        <time>2021-05-07T22:44:50Z</time>
      </trkpt>
      <trkpt lat="41.2493910" lon="1.5122240">
        <ele>84.0</ele>
        <time>2021-05-07T22:44:54Z</time>
      </trkpt>
      <trkpt lat="41.2496250" lon="1.5125120">
        <ele>83.4</ele>
        <time>2021-05-07T22:45:03Z</time>
      </trkpt>
      <trkpt lat="41.2496780" lon="1.5125840">
        <ele>83.0</ele>
        <time>2021-05-07T22:45:05Z</time>
      </trkpt>
      <trkpt lat="41.2498420" lon="1.5128780">
        <ele>82.8</ele>
        <time>2021-05-07T22:45:12Z</time>
      </trkpt>
      <trkpt lat="41.2498560" lon="1.5129290">
        <ele>82.8</ele>
        <time>2021-05-07T22:45:13Z</time>
      </trkpt>
      <trkpt lat="41.2499280" lon="1.5131140">
        <ele>82.4</ele>
        <time>2021-05-07T22:45:17Z</time>
      </trkpt>
      <trkpt lat="41.2499580" lon="1.5131480">
        <ele>82.2</ele>
        <time>2021-05-07T22:45:18Z</time>
      </trkpt>
      <trkpt lat="41.2500670" lon="1.5131840">
        <ele>82.0</ele>
        <time>2021-05-07T22:45:21Z</time>
      </trkpt>
      <trkpt lat="41.2501040" lon="1.5131790">
        <ele>82.0</ele>
        <time>2021-05-07T22:45:22Z</time>
      </trkpt>
      <trkpt lat="41.2502400" lon="1.5132250">
        <ele>81.8</ele>
        <time>2021-05-07T22:45:26Z</time>
      </trkpt>
      <trkpt lat="41.2502670" lon="1.5132650">
        <ele>81.8</ele>
        <time>2021-05-07T22:45:27Z</time>
      </trkpt>
      <trkpt lat="41.2502860" lon="1.5133720">
        <ele>81.6</ele>
        <time>2021-05-07T22:45:29Z</time>
      </trkpt>
      <trkpt lat="41.2502720" lon="1.5134790">
        <ele>81.2</ele>
        <time>2021-05-07T22:45:31Z</time>
      </trkpt>
      <trkpt lat="41.2502670" lon="1.5135280">
        <ele>81.0</ele>
        <time>2021-05-07T22:45:32Z</time>
      </trkpt>
      <trkpt lat="41.2502630" lon="1.5136200">
        <ele>81.2</ele>
        <time>2021-05-07T22:45:34Z</time>
      </trkpt>
      <trkpt lat="41.2502770" lon="1.5139190">
        <ele>81.0</ele>
        <time>2021-05-07T22:45:41Z</time>
      </trkpt>
      <trkpt lat="41.2502990" lon="1.5141700">
        <ele>80.6</ele>
        <time>2021-05-07T22:45:47Z</time>
      </trkpt>
      <trkpt lat="41.2503220" lon="1.5145270">
        <ele>80.6</ele>
        <time>2021-05-07T22:45:55Z</time>
      </trkpt>
      <trkpt lat="41.2503350" lon="1.5147650">
        <ele>81.0</ele>
        <time>2021-05-07T22:46:02Z</time>
      </trkpt>
      <trkpt lat="41.2504210" lon="1.5149340">
        <ele>80.6</ele>
        <time>2021-05-07T22:46:08Z</time>
      </trkpt>
      <trkpt lat="41.2505460" lon="1.5149980">
        <ele>80.6</ele>
        <time>2021-05-07T22:46:13Z</time>
      </trkpt>
      <trkpt lat="41.2507070" lon="1.5150480">
        <ele>81.0</ele>
        <time>2021-05-07T22:46:19Z</time>
      </trkpt>
      <trkpt lat="41.2508510" lon="1.5150990">
        <ele>81.0</ele>
        <time>2021-05-07T22:46:24Z</time>
      </trkpt>
      <trkpt lat="41.2510030" lon="1.5152080">
        <ele>81.2</ele>
        <time>2021-05-07T22:46:30Z</time>
      </trkpt>
      <trkpt lat="41.2511470" lon="1.5153270">
        <ele>82.0</ele>
        <time>2021-05-07T22:46:36Z</time>
      </trkpt>
      <trkpt lat="41.2511730" lon="1.5153430">
        <ele>82.2</ele>
        <time>2021-05-07T22:46:37Z</time>
      </trkpt>
      <trkpt lat="41.2512820" lon="1.5153840">
        <ele>82.2</ele>
        <time>2021-05-07T22:46:41Z</time>
      </trkpt>
      <trkpt lat="41.2513640" lon="1.5154480">
        <ele>82.2</ele>
        <time>2021-05-07T22:46:46Z</time>
      </trkpt>
      <trkpt lat="41.2513630" lon="1.5154490">
        <ele>82.2</ele>
        <time>2021-05-07T22:46:47Z</time>
      </trkpt>
      <trkpt lat="41.2513940" lon="1.5154340">
        <ele>82.4</ele>
        <time>2021-05-07T22:46:50Z</time>
      </trkpt>
      <trkpt lat="41.2514160" lon="1.5154270">
        <ele>82.6</ele>
        <time>2021-05-07T22:46:52Z</time>
      </trkpt>
      <trkpt lat="41.2514160" lon="1.5154270">
        <ele>82.6</ele>
        <time>2021-05-07T22:46:53Z</time>
      </trkpt>
      <trkpt lat="41.2515400" lon="1.5153510">
        <ele>83.0</ele>
        <time>2021-05-07T22:48:11Z</time>
      </trkpt>
      <trkpt lat="41.2515610" lon="1.5153390">
        <ele>83.2</ele>
        <time>2021-05-07T22:48:13Z</time>
      </trkpt>
      <trkpt lat="41.2515660" lon="1.5153440">
        <ele>83.0</ele>
        <time>2021-05-07T22:48:16Z</time>
      </trkpt>
      <trkpt lat="41.2516310" lon="1.5153300">
        <ele>83.2</ele>
        <time>2021-05-07T22:48:22Z</time>
      </trkpt>
      <trkpt lat="41.2516540" lon="1.5153210">
        <ele>83.2</ele>
        <time>2021-05-07T22:48:23Z</time>
      </trkpt>
      <trkpt lat="41.2517990" lon="1.5152820">
        <ele>83.0</ele>
        <time>2021-05-07T22:48:30Z</time>
      </trkpt>
      <trkpt lat="41.2519240" lon="1.5152630">
        <ele>83.4</ele>
        <time>2021-05-07T22:48:35Z</time>
      </trkpt>
      <trkpt lat="41.2519490" lon="1.5152610">
        <ele>83.6</ele>
        <time>2021-05-07T22:48:36Z</time>
      </trkpt>
      <trkpt lat="41.2521390" lon="1.5152470">
        <ele>83.4</ele>
        <time>2021-05-07T22:48:43Z</time>
      </trkpt>
      <trkpt lat="41.2523830" lon="1.5152560">
        <ele>83.0</ele>
        <time>2021-05-07T22:48:52Z</time>
      </trkpt>
      <trkpt lat="41.2525270" lon="1.5153960">
        <ele>82.8</ele>
        <time>2021-05-07T22:48:58Z</time>
      </trkpt>
      <trkpt lat="41.2526110" lon="1.5155160">
        <ele>82.6</ele>
        <time>2021-05-07T22:49:02Z</time>
      </trkpt>
      <trkpt lat="41.2526780" lon="1.5156150">
        <ele>82.4</ele>
        <time>2021-05-07T22:49:05Z</time>
      </trkpt>
      <trkpt lat="41.2528780" lon="1.5158590">
        <ele>82.4</ele>
        <time>2021-05-07T22:49:13Z</time>
      </trkpt>
      <trkpt lat="41.2529900" lon="1.5160380">
        <ele>82.2</ele>
        <time>2021-05-07T22:49:19Z</time>
      </trkpt>
      <trkpt lat="41.2530070" lon="1.5161000">
        <ele>81.6</ele>
        <time>2021-05-07T22:49:21Z</time>
      </trkpt>
      <trkpt lat="41.2530050" lon="1.5162320">
        <ele>81.4</ele>
        <time>2021-05-07T22:49:25Z</time>
      </trkpt>
      <trkpt lat="41.2529530" lon="1.5164210">
        <ele>80.6</ele>
        <time>2021-05-07T22:49:29Z</time>
      </trkpt>
      <trkpt lat="41.2529190" lon="1.5165630">
        <ele>79.4</ele>
        <time>2021-05-07T22:49:32Z</time>
      </trkpt>
      <trkpt lat="41.2528930" lon="1.5167180">
        <ele>79.2</ele>
        <time>2021-05-07T22:49:35Z</time>
      </trkpt>
      <trkpt lat="41.2528830" lon="1.5170720">
        <ele>78.6</ele>
        <time>2021-05-07T22:49:42Z</time>
      </trkpt>
      <trkpt lat="41.2528830" lon="1.5172070">
        <ele>78.2</ele>
        <time>2021-05-07T22:49:45Z</time>
      </trkpt>
      <trkpt lat="41.2528820" lon="1.5174370">
        <ele>77.6</ele>
        <time>2021-05-07T22:49:50Z</time>
      </trkpt>
      <trkpt lat="41.2528870" lon="1.5176510">
        <ele>77.4</ele>
        <time>2021-05-07T22:49:55Z</time>
      </trkpt>
      <trkpt lat="41.2528860" lon="1.5178110">
        <ele>77.6</ele>
        <time>2021-05-07T22:50:00Z</time>
      </trkpt>
      <trkpt lat="41.2528930" lon="1.5180040">
        <ele>77.6</ele>
        <time>2021-05-07T22:50:05Z</time>
      </trkpt>
      <trkpt lat="41.2528820" lon="1.5182450">
        <ele>77.4</ele>
        <time>2021-05-07T22:50:11Z</time>
      </trkpt>
      <trkpt lat="41.2528690" lon="1.5184430">
        <ele>77.2</ele>
        <time>2021-05-07T22:50:16Z</time>
      </trkpt>
      <trkpt lat="41.2528570" lon="1.5185660">
        <ele>76.6</ele>
        <time>2021-05-07T22:50:19Z</time>
      </trkpt>
      <trkpt lat="41.2528540" lon="1.5187580">
        <ele>76.6</ele>
        <time>2021-05-07T22:50:24Z</time>
      </trkpt>
      <trkpt lat="41.2528390" lon="1.5190200">
        <ele>76.6</ele>
        <time>2021-05-07T22:50:31Z</time>
      </trkpt>
      <trkpt lat="41.2528680" lon="1.5192400">
        <ele>77.2</ele>
        <time>2021-05-07T22:50:37Z</time>
      </trkpt>
      <trkpt lat="41.2529560" lon="1.5194430">
        <ele>77.2</ele>
        <time>2021-05-07T22:50:43Z</time>
      </trkpt>
      <trkpt lat="41.2530360" lon="1.5196400">
        <ele>76.8</ele>
        <time>2021-05-07T22:50:49Z</time>
      </trkpt>
      <trkpt lat="41.2530570" lon="1.5197120">
        <ele>76.8</ele>
        <time>2021-05-07T22:50:51Z</time>
      </trkpt>
      <trkpt lat="41.2530870" lon="1.5198540">
        <ele>76.6</ele>
        <time>2021-05-07T22:50:55Z</time>
      </trkpt>
      <trkpt lat="41.2530700" lon="1.5201020">
        <ele>76.4</ele>
        <time>2021-05-07T22:51:01Z</time>
      </trkpt>
      <trkpt lat="41.2530680" lon="1.5201440">
        <ele>76.2</ele>
        <time>2021-05-07T22:51:02Z</time>
      </trkpt>
      <trkpt lat="41.2530650" lon="1.5204200">
        <ele>76.0</ele>
        <time>2021-05-07T22:51:10Z</time>
      </trkpt>
      <trkpt lat="41.2530580" lon="1.5207030">
        <ele>76.0</ele>
        <time>2021-05-07T22:51:17Z</time>
      </trkpt>
      <trkpt lat="41.2530250" lon="1.5209630">
        <ele>75.4</ele>
        <time>2021-05-07T22:51:23Z</time>
      </trkpt>
      <trkpt lat="41.2529540" lon="1.5211930">
        <ele>75.2</ele>
        <time>2021-05-07T22:51:28Z</time>
      </trkpt>
      <trkpt lat="41.2529240" lon="1.5212740">
        <ele>75.0</ele>
        <time>2021-05-07T22:51:30Z</time>
      </trkpt>
      <trkpt lat="41.2528230" lon="1.5215080">
        <ele>75.0</ele>
        <time>2021-05-07T22:51:37Z</time>
      </trkpt>
      <trkpt lat="41.2527670" lon="1.5216510">
        <ele>74.2</ele>
        <time>2021-05-07T22:51:44Z</time>
      </trkpt>
      <trkpt lat="41.2527120" lon="1.5217740">
        <ele>74.2</ele>
        <time>2021-05-07T22:51:52Z</time>
      </trkpt>
      <trkpt lat="41.2527090" lon="1.5217790">
        <ele>74.2</ele>
        <time>2021-05-07T22:51:54Z</time>
      </trkpt>
      <trkpt lat="41.2526780" lon="1.5218380">
        <ele>74.0</ele>
        <time>2021-05-07T22:52:45Z</time>
      </trkpt>
      <trkpt lat="41.2526650" lon="1.5218630">
        <ele>74.0</ele>
        <time>2021-05-07T22:52:46Z</time>
      </trkpt>
      <trkpt lat="41.2525750" lon="1.5220230">
        <ele>74.2</ele>
        <time>2021-05-07T22:52:52Z</time>
      </trkpt>
      <trkpt lat="41.2524730" lon="1.5221410">
        <ele>74.2</ele>
        <time>2021-05-07T22:52:57Z</time>
      </trkpt>
      <trkpt lat="41.2523720" lon="1.5223170">
        <ele>74.8</ele>
        <time>2021-05-07T22:53:03Z</time>
      </trkpt>
      <trkpt lat="41.2522530" lon="1.5225040">
        <ele>74.0</ele>
        <time>2021-05-07T22:53:10Z</time>
      </trkpt>
      <trkpt lat="41.2521990" lon="1.5226820">
        <ele>73.6</ele>
        <time>2021-05-07T22:53:16Z</time>
      </trkpt>
      <trkpt lat="41.2521710" lon="1.5228900">
        <ele>73.4</ele>
        <time>2021-05-07T22:53:21Z</time>
      </trkpt>
      <trkpt lat="41.2521770" lon="1.5231350">
        <ele>73.2</ele>
        <time>2021-05-07T22:53:26Z</time>
      </trkpt>
      <trkpt lat="41.2521840" lon="1.5231880">
        <ele>72.8</ele>
        <time>2021-05-07T22:53:27Z</time>
      </trkpt>
      <trkpt lat="41.2521920" lon="1.5232410">
        <ele>72.0</ele>
        <time>2021-05-07T22:53:28Z</time>
      </trkpt>
      <trkpt lat="41.2522130" lon="1.5233360">
        <ele>70.6</ele>
        <time>2021-05-07T22:53:30Z</time>
      </trkpt>
      <trkpt lat="41.2522300" lon="1.5234280">
        <ele>69.6</ele>
        <time>2021-05-07T22:53:32Z</time>
      </trkpt>
      <trkpt lat="41.2521970" lon="1.5235900">
        <ele>68.6</ele>
        <time>2021-05-07T22:53:36Z</time>
      </trkpt>
      <trkpt lat="41.2521570" lon="1.5236960">
        <ele>68.4</ele>
        <time>2021-05-07T22:53:39Z</time>
      </trkpt>
      <trkpt lat="41.2521270" lon="1.5237980">
        <ele>68.4</ele>
        <time>2021-05-07T22:53:42Z</time>
      </trkpt>
      <trkpt lat="41.2521270" lon="1.5239500">
        <ele>67.8</ele>
        <time>2021-05-07T22:53:47Z</time>
      </trkpt>
      <trkpt lat="41.2521790" lon="1.5240830">
        <ele>68.0</ele>
        <time>2021-05-07T22:53:52Z</time>
      </trkpt>
      <trkpt lat="41.2522350" lon="1.5241730">
        <ele>68.8</ele>
        <time>2021-05-07T22:53:56Z</time>
      </trkpt>
      <trkpt lat="41.2522440" lon="1.5241990">
        <ele>69.0</ele>
        <time>2021-05-07T22:53:57Z</time>
      </trkpt>
      <trkpt lat="41.2522570" lon="1.5242810">
        <ele>69.4</ele>
        <time>2021-05-07T22:54:00Z</time>
      </trkpt>
      <trkpt lat="41.2522580" lon="1.5243340">
        <ele>69.6</ele>
        <time>2021-05-07T22:54:02Z</time>
      </trkpt>
      <trkpt lat="41.2522260" lon="1.5244650">
        <ele>70.2</ele>
        <time>2021-05-07T22:54:07Z</time>
      </trkpt>
      <trkpt lat="41.2521860" lon="1.5245890">
        <ele>70.6</ele>
        <time>2021-05-07T22:54:13Z</time>
      </trkpt>
      <trkpt lat="41.2521700" lon="1.5246470">
        <ele>70.8</ele>
        <time>2021-05-07T22:54:15Z</time>
      </trkpt>
      <trkpt lat="41.2521340" lon="1.5247650">
        <ele>70.4</ele>
        <time>2021-05-07T22:54:19Z</time>
      </trkpt>
      <trkpt lat="41.2520810" lon="1.5249120">
        <ele>69.6</ele>
        <time>2021-05-07T22:54:25Z</time>
      </trkpt>
      <trkpt lat="41.2520210" lon="1.5250090">
        <ele>68.6</ele>
        <time>2021-05-07T22:54:30Z</time>
      </trkpt>
      <trkpt lat="41.2519860" lon="1.5250280">
        <ele>68.2</ele>
        <time>2021-05-07T22:54:32Z</time>
      </trkpt>
      <trkpt lat="41.2519300" lon="1.5250470">
        <ele>68.0</ele>
        <time>2021-05-07T22:54:35Z</time>
      </trkpt>
      <trkpt lat="41.2519020" lon="1.5250730">
        <ele>68.0</ele>
        <time>2021-05-07T22:54:37Z</time>
      </trkpt>
      <trkpt lat="41.2518160" lon="1.5251670">
        <ele>67.8</ele>
        <time>2021-05-07T22:54:43Z</time>
      </trkpt>
      <trkpt lat="41.2517700" lon="1.5252310">
        <ele>68.0</ele>
        <time>2021-05-07T22:54:48Z</time>
      </trkpt>
      <trkpt lat="41.2516850" lon="1.5252970">
        <ele>68.4</ele>
        <time>2021-05-07T22:54:54Z</time>
      </trkpt>
      <trkpt lat="41.2515860" lon="1.5253810">
        <ele>67.8</ele>
        <time>2021-05-07T22:55:00Z</time>
      </trkpt>
      <trkpt lat="41.2515630" lon="1.5253990">
        <ele>67.8</ele>
        <time>2021-05-07T22:55:01Z</time>
      </trkpt>
      <trkpt lat="41.2514610" lon="1.5254810">
        <ele>66.6</ele>
        <time>2021-05-07T22:55:05Z</time>
      </trkpt>
      <trkpt lat="41.2513250" lon="1.5256270">
        <ele>67.0</ele>
        <time>2021-05-07T22:55:11Z</time>
      </trkpt>
      <trkpt lat="41.2512140" lon="1.5257870">
        <ele>67.4</ele>
        <time>2021-05-07T22:55:17Z</time>
      </trkpt>
      <trkpt lat="41.2511310" lon="1.5259130">
        <ele>66.6</ele>
        <time>2021-05-07T22:55:22Z</time>
      </trkpt>
      <trkpt lat="41.2510180" lon="1.5260810">
        <ele>66.6</ele>
        <time>2021-05-07T22:55:29Z</time>
      </trkpt>
      <trkpt lat="41.2509300" lon="1.5262050">
        <ele>66.8</ele>
        <time>2021-05-07T22:55:35Z</time>
      </trkpt>
      <trkpt lat="41.2508670" lon="1.5263020">
        <ele>66.8</ele>
        <time>2021-05-07T22:55:41Z</time>
      </trkpt>
      <trkpt lat="41.2508630" lon="1.5263110">
        <ele>67.0</ele>
        <time>2021-05-07T22:55:44Z</time>
      </trkpt>
      <trkpt lat="41.2508650" lon="1.5263370">
        <ele>67.0</ele>
        <time>2021-05-07T22:55:57Z</time>
      </trkpt>
      <trkpt lat="41.2508700" lon="1.5263550">
        <ele>67.0</ele>
        <time>2021-05-07T22:55:58Z</time>
      </trkpt>
      <trkpt lat="41.2508880" lon="1.5264260">
        <ele>67.2</ele>
        <time>2021-05-07T22:56:01Z</time>
      </trkpt>
      <trkpt lat="41.2508900" lon="1.5264470">
        <ele>67.4</ele>
        <time>2021-05-07T22:56:02Z</time>
      </trkpt>
      <trkpt lat="41.2508920" lon="1.5264900">
        <ele>67.8</ele>
        <time>2021-05-07T22:56:04Z</time>
      </trkpt>
      <trkpt lat="41.2508930" lon="1.5265340">
        <ele>68.0</ele>
        <time>2021-05-07T22:56:06Z</time>
      </trkpt>
      <trkpt lat="41.2508950" lon="1.5265450">
        <ele>68.0</ele>
        <time>2021-05-07T22:56:08Z</time>
      </trkpt>
      <trkpt lat="41.2508710" lon="1.5269370">
        <ele>70.0</ele>
        <time>2021-05-07T22:57:13Z</time>
      </trkpt>
      <trkpt lat="41.2508600" lon="1.5269910">
        <ele>70.6</ele>
        <time>2021-05-07T22:57:16Z</time>
      </trkpt>
      <trkpt lat="41.2508540" lon="1.5270200">
        <ele>70.6</ele>
        <time>2021-05-07T22:57:18Z</time>
      </trkpt>
      <trkpt lat="41.2508420" lon="1.5271160">
        <ele>70.6</ele>
        <time>2021-05-07T22:57:22Z</time>
      </trkpt>
      <trkpt lat="41.2508210" lon="1.5272710">
        <ele>71.2</ele>
        <time>2021-05-07T22:57:28Z</time>
      </trkpt>
      <trkpt lat="41.2508160" lon="1.5273000">
        <ele>71.4</ele>
        <time>2021-05-07T22:57:29Z</time>
      </trkpt>
      <trkpt lat="41.2508040" lon="1.5273550">
        <ele>72.2</ele>
        <time>2021-05-07T22:57:31Z</time>
      </trkpt>
      <trkpt lat="41.2507820" lon="1.5274670">
        <ele>72.6</ele>
        <time>2021-05-07T22:57:35Z</time>
      </trkpt>
      <trkpt lat="41.2507410" lon="1.5276550">
        <ele>72.0</ele>
        <time>2021-05-07T22:57:42Z</time>
      </trkpt>
      <trkpt lat="41.2507250" lon="1.5278390">
        <ele>72.0</ele>
        <time>2021-05-07T22:57:50Z</time>
      </trkpt>
      <trkpt lat="41.2507490" lon="1.5279390">
        <ele>71.8</ele>
        <time>2021-05-07T22:57:56Z</time>
      </trkpt>
      <trkpt lat="41.2507750" lon="1.5280780">
        <ele>72.4</ele>
        <time>2021-05-07T22:58:02Z</time>
      </trkpt>
      <trkpt lat="41.2508050" lon="1.5282480">
        <ele>72.6</ele>
        <time>2021-05-07T22:58:08Z</time>
      </trkpt>
      <trkpt lat="41.2508120" lon="1.5283050">
        <ele>72.6</ele>
        <time>2021-05-07T22:58:12Z</time>
      </trkpt>
      <trkpt lat="41.2508000" lon="1.5282080">
        <ele>72.4</ele>
        <time>2021-05-07T22:58:55Z</time>
      </trkpt>
      <trkpt lat="41.2507720" lon="1.5280410">
        <ele>72.6</ele>
        <time>2021-05-07T22:59:02Z</time>
      </trkpt>
      <trkpt lat="41.2507550" lon="1.5278680">
        <ele>72.2</ele>
        <time>2021-05-07T22:59:09Z</time>
      </trkpt>
      <trkpt lat="41.2507620" lon="1.5278560">
        <ele>72.2</ele>
        <time>2021-05-07T22:59:10Z</time>
      </trkpt>
      <trkpt lat="41.2507680" lon="1.5278500">
        <ele>71.8</ele>
        <time>2021-05-07T22:59:12Z</time>
      </trkpt>
      <trkpt lat="41.2508450" lon="1.5278330">
        <ele>72.2</ele>
        <time>2021-05-07T23:02:21Z</time>
      </trkpt>
      <trkpt lat="41.2508590" lon="1.5278290">
        <ele>72.4</ele>
        <time>2021-05-07T23:02:22Z</time>
      </trkpt>
      <trkpt lat="41.2509190" lon="1.5278050">
        <ele>72.2</ele>
        <time>2021-05-07T23:02:25Z</time>
      </trkpt>
      <trkpt lat="41.2509660" lon="1.5277900">
        <ele>72.6</ele>
        <time>2021-05-07T23:02:27Z</time>
      </trkpt>
      <trkpt lat="41.2511230" lon="1.5277330">
        <ele>72.6</ele>
        <time>2021-05-07T23:02:35Z</time>
      </trkpt>
      <trkpt lat="41.2512320" lon="1.5276980">
        <ele>72.8</ele>
        <time>2021-05-07T23:02:41Z</time>
      </trkpt>
      <trkpt lat="41.2513320" lon="1.5276680">
        <ele>72.6</ele>
        <time>2021-05-07T23:02:47Z</time>
      </trkpt>
      <trkpt lat="41.2514500" lon="1.5276330">
        <ele>73.0</ele>
        <time>2021-05-07T23:02:53Z</time>
      </trkpt>
      <trkpt lat="41.2515680" lon="1.5275890">
        <ele>73.4</ele>
        <time>2021-05-07T23:03:00Z</time>
      </trkpt>
      <trkpt lat="41.2517070" lon="1.5275390">
        <ele>73.4</ele>
        <time>2021-05-07T23:03:07Z</time>
      </trkpt>
      <trkpt lat="41.2518490" lon="1.5274910">
        <ele>73.6</ele>
        <time>2021-05-07T23:03:14Z</time>
      </trkpt>
      <trkpt lat="41.2518980" lon="1.5274760">
        <ele>73.8</ele>
        <time>2021-05-07T23:03:17Z</time>
      </trkpt>
      <trkpt lat="41.2519670" lon="1.5274540">
        <ele>74.2</ele>
        <time>2021-05-07T23:03:21Z</time>
      </trkpt>
      <trkpt lat="41.2521310" lon="1.5274010">
        <ele>74.8</ele>
        <time>2021-05-07T23:03:29Z</time>
      </trkpt>
      <trkpt lat="41.2522600" lon="1.5273600">
        <ele>75.0</ele>
        <time>2021-05-07T23:03:35Z</time>
      </trkpt>
      <trkpt lat="41.2523720" lon="1.5273180">
        <ele>75.4</ele>
        <time>2021-05-07T23:03:41Z</time>
      </trkpt>
      <trkpt lat="41.2525430" lon="1.5272570">
        <ele>75.2</ele>
        <time>2021-05-07T23:03:49Z</time>
      </trkpt>
      <trkpt lat="41.2527310" lon="1.5271630">
        <ele>75.8</ele>
        <time>2021-05-07T23:03:57Z</time>
      </trkpt>
      <trkpt lat="41.2528560" lon="1.5270900">
        <ele>76.2</ele>
        <time>2021-05-07T23:04:03Z</time>
      </trkpt>
      <trkpt lat="41.2529980" lon="1.5270070">
        <ele>76.6</ele>
        <time>2021-05-07T23:04:10Z</time>
      </trkpt>
      <trkpt lat="41.2531130" lon="1.5269530">
        <ele>76.8</ele>
        <time>2021-05-07T23:04:15Z</time>
      </trkpt>
      <trkpt lat="41.2531370" lon="1.5269430">
        <ele>77.0</ele>
        <time>2021-05-07T23:04:16Z</time>
      </trkpt>
      <trkpt lat="41.2532650" lon="1.5268920">
        <ele>77.2</ele>
        <time>2021-05-07T23:04:21Z</time>
      </trkpt>
      <trkpt lat="41.2534200" lon="1.5268290">
        <ele>77.2</ele>
        <time>2021-05-07T23:04:27Z</time>
      </trkpt>
      <trkpt lat="41.2535820" lon="1.5268080">
        <ele>77.2</ele>
        <time>2021-05-07T23:04:33Z</time>
      </trkpt>
      <trkpt lat="41.2537420" lon="1.5268090">
        <ele>77.4</ele>
        <time>2021-05-07T23:04:39Z</time>
      </trkpt>
      <trkpt lat="41.2539740" lon="1.5268170">
        <ele>77.4</ele>
        <time>2021-05-07T23:04:47Z</time>
      </trkpt>
      <trkpt lat="41.2542520" lon="1.5267960">
        <ele>77.2</ele>
        <time>2021-05-07T23:04:56Z</time>
      </trkpt>
      <trkpt lat="41.2544460" lon="1.5268040">
        <ele>77.4</ele>
        <time>2021-05-07T23:05:03Z</time>
      </trkpt>
      <trkpt lat="41.2545840" lon="1.5268030">
        <ele>77.0</ele>
        <time>2021-05-07T23:05:09Z</time>
      </trkpt>
      <trkpt lat="41.2546020" lon="1.5268050">
        <ele>77.6</ele>
        <time>2021-05-07T23:05:10Z</time>
      </trkpt>
      <trkpt lat="41.2546610" lon="1.5268350">
        <ele>78.0</ele>
        <time>2021-05-07T23:05:13Z</time>
      </trkpt>
      <trkpt lat="41.2547510" lon="1.5269070">
        <ele>77.8</ele>
        <time>2021-05-07T23:05:18Z</time>
      </trkpt>
      <trkpt lat="41.2548740" lon="1.5270120">
        <ele>77.8</ele>
        <time>2021-05-07T23:05:24Z</time>
      </trkpt>
      <trkpt lat="41.2550030" lon="1.5271030">
        <ele>78.0</ele>
        <time>2021-05-07T23:05:30Z</time>
      </trkpt>
      <trkpt lat="41.2550650" lon="1.5271430">
        <ele>78.2</ele>
        <time>2021-05-07T23:05:33Z</time>
      </trkpt>
      <trkpt lat="41.2551530" lon="1.5272040">
        <ele>78.4</ele>
        <time>2021-05-07T23:05:38Z</time>
      </trkpt>
      <trkpt lat="41.2552270" lon="1.5272580">
        <ele>79.2</ele>
        <time>2021-05-07T23:05:44Z</time>
      </trkpt>
      <trkpt lat="41.2552400" lon="1.5272640">
        <ele>79.4</ele>
        <time>2021-05-07T23:05:45Z</time>
      </trkpt>
      <trkpt lat="41.2553220" lon="1.5273080">
        <ele>80.0</ele>
        <time>2021-05-07T23:05:50Z</time>
      </trkpt>
      <trkpt lat="41.2554360" lon="1.5273570">
        <ele>80.4</ele>
        <time>2021-05-07T23:05:56Z</time>
      </trkpt>
      <trkpt lat="41.2554850" lon="1.5273800">
        <ele>80.6</ele>
        <time>2021-05-07T23:05:58Z</time>
      </trkpt>
      <trkpt lat="41.2556270" lon="1.5274590">
        <ele>81.0</ele>
        <time>2021-05-07T23:06:05Z</time>
      </trkpt>
      <trkpt lat="41.2557580" lon="1.5275660">
        <ele>81.2</ele>
        <time>2021-05-07T23:06:12Z</time>
      </trkpt>
      <trkpt lat="41.2557930" lon="1.5275870">
        <ele>81.8</ele>
        <time>2021-05-07T23:06:14Z</time>
      </trkpt>
      <trkpt lat="41.2558650" lon="1.5276530">
        <ele>82.2</ele>
        <time>2021-05-07T23:06:18Z</time>
      </trkpt>
      <trkpt lat="41.2559790" lon="1.5277780">
        <ele>82.2</ele>
        <time>2021-05-07T23:06:24Z</time>
      </trkpt>
      <trkpt lat="41.2560750" lon="1.5278390">
        <ele>82.4</ele>
        <time>2021-05-07T23:06:29Z</time>
      </trkpt>
      <trkpt lat="41.2561360" lon="1.5278600">
        <ele>82.8</ele>
        <time>2021-05-07T23:06:32Z</time>
      </trkpt>
      <trkpt lat="41.2561880" lon="1.5278670">
        <ele>83.0</ele>
        <time>2021-05-07T23:06:35Z</time>
      </trkpt>
      <trkpt lat="41.2562820" lon="1.5278480">
        <ele>83.4</ele>
        <time>2021-05-07T23:06:40Z</time>
      </trkpt>
      <trkpt lat="41.2563780" lon="1.5278310">
        <ele>83.6</ele>
        <time>2021-05-07T23:06:45Z</time>
      </trkpt>
      <trkpt lat="41.2564780" lon="1.5278430">
        <ele>84.0</ele>
        <time>2021-05-07T23:06:50Z</time>
      </trkpt>
      <trkpt lat="41.2564980" lon="1.5278500">
        <ele>84.0</ele>
        <time>2021-05-07T23:06:51Z</time>
      </trkpt>
      <trkpt lat="41.2565850" lon="1.5278660">
        <ele>84.4</ele>
        <time>2021-05-07T23:06:57Z</time>
      </trkpt>
      <trkpt lat="41.2565860" lon="1.5278640">
        <ele>84.4</ele>
        <time>2021-05-07T23:06:58Z</time>
      </trkpt>
      <trkpt lat="41.2566250" lon="1.5278390">
        <ele>84.4</ele>
        <time>2021-05-07T23:07:02Z</time>
      </trkpt>
      <trkpt lat="41.2566530" lon="1.5278090">
        <ele>84.4</ele>
        <time>2021-05-07T23:07:04Z</time>
      </trkpt>
      <trkpt lat="41.2567700" lon="1.5277790">
        <ele>83.6</ele>
        <time>2021-05-07T23:07:09Z</time>
      </trkpt>
      <trkpt lat="41.2568310" lon="1.5277980">
        <ele>83.0</ele>
        <time>2021-05-07T23:07:12Z</time>
      </trkpt>
      <trkpt lat="41.2568770" lon="1.5278120">
        <ele>82.6</ele>
        <time>2021-05-07T23:07:14Z</time>
      </trkpt>
      <trkpt lat="41.2569710" lon="1.5278200">
        <ele>81.4</ele>
        <time>2021-05-07T23:07:18Z</time>
      </trkpt>
      <trkpt lat="41.2569950" lon="1.5278240">
        <ele>80.6</ele>
        <time>2021-05-07T23:07:19Z</time>
      </trkpt>
      <trkpt lat="41.2570190" lon="1.5278290">
        <ele>80.4</ele>
        <time>2021-05-07T23:07:20Z</time>
      </trkpt>
      <trkpt lat="41.2571340" lon="1.5278350">
        <ele>79.0</ele>
        <time>2021-05-07T23:07:24Z</time>
      </trkpt>
      <trkpt lat="41.2571900" lon="1.5278090">
        <ele>78.4</ele>
        <time>2021-05-07T23:07:27Z</time>
      </trkpt>
      <trkpt lat="41.2572190" lon="1.5277800">
        <ele>78.0</ele>
        <time>2021-05-07T23:07:29Z</time>
      </trkpt>
      <trkpt lat="41.2572340" lon="1.5277670">
        <ele>77.8</ele>
        <time>2021-05-07T23:07:30Z</time>
      </trkpt>
      <trkpt lat="41.2572600" lon="1.5277370">
        <ele>77.6</ele>
        <time>2021-05-07T23:07:32Z</time>
      </trkpt>
      <trkpt lat="41.2572910" lon="1.5277260">
        <ele>77.6</ele>
        <time>2021-05-07T23:07:34Z</time>
      </trkpt>
      <trkpt lat="41.2573920" lon="1.5277270">
        <ele>78.2</ele>
        <time>2021-05-07T23:07:40Z</time>
      </trkpt>
      <trkpt lat="41.2574970" lon="1.5277520">
        <ele>78.8</ele>
        <time>2021-05-07T23:07:45Z</time>
      </trkpt>
      <trkpt lat="41.2575710" lon="1.5278140">
        <ele>79.0</ele>
        <time>2021-05-07T23:07:50Z</time>
      </trkpt>
      <trkpt lat="41.2576170" lon="1.5278280">
        <ele>79.6</ele>
        <time>2021-05-07T23:07:53Z</time>
      </trkpt>
      <trkpt lat="41.2576460" lon="1.5278350">
        <ele>80.0</ele>
        <time>2021-05-07T23:07:55Z</time>
      </trkpt>
      <trkpt lat="41.2577160" lon="1.5278580">
        <ele>80.2</ele>
        <time>2021-05-07T23:07:59Z</time>
      </trkpt>
      <trkpt lat="41.2577490" lon="1.5278660">
        <ele>80.6</ele>
        <time>2021-05-07T23:08:01Z</time>
      </trkpt>
      <trkpt lat="41.2578540" lon="1.5279000">
        <ele>81.4</ele>
        <time>2021-05-07T23:08:06Z</time>
      </trkpt>
      <trkpt lat="41.2578730" lon="1.5279060">
        <ele>81.6</ele>
        <time>2021-05-07T23:08:07Z</time>
      </trkpt>
      <trkpt lat="41.2580240" lon="1.5279410">
        <ele>82.6</ele>
        <time>2021-05-07T23:08:15Z</time>
      </trkpt>
      <trkpt lat="41.2580440" lon="1.5279510">
        <ele>82.8</ele>
        <time>2021-05-07T23:08:16Z</time>
      </trkpt>
      <trkpt lat="41.2581990" lon="1.5280320">
        <ele>83.4</ele>
        <time>2021-05-07T23:08:24Z</time>
      </trkpt>
      <trkpt lat="41.2583140" lon="1.5280600">
        <ele>83.6</ele>
        <time>2021-05-07T23:08:30Z</time>
      </trkpt>
      <trkpt lat="41.2584000" lon="1.5281000">
        <ele>83.4</ele>
        <time>2021-05-07T23:08:36Z</time>
      </trkpt>
      <trkpt lat="41.2585140" lon="1.5281490">
        <ele>83.0</ele>
        <time>2021-05-07T23:08:43Z</time>
      </trkpt>
      <trkpt lat="41.2585800" lon="1.5281660">
        <ele>84.0</ele>
        <time>2021-05-07T23:08:47Z</time>
      </trkpt>
      <trkpt lat="41.2586140" lon="1.5281740">
        <ele>84.4</ele>
        <time>2021-05-07T23:08:49Z</time>
      </trkpt>
      <trkpt lat="41.2586340" lon="1.5281740">
        <ele>84.6</ele>
        <time>2021-05-07T23:08:50Z</time>
      </trkpt>
      <trkpt lat="41.2587910" lon="1.5281700">
        <ele>85.0</ele>
        <time>2021-05-07T23:08:58Z</time>
      </trkpt>
      <trkpt lat="41.2588880" lon="1.5280610">
        <ele>85.0</ele>
        <time>2021-05-07T23:09:04Z</time>
      </trkpt>
      <trkpt lat="41.2589190" lon="1.5278800">
        <ele>85.4</ele>
        <time>2021-05-07T23:09:10Z</time>
      </trkpt>
      <trkpt lat="41.2589340" lon="1.5276590">
        <ele>85.8</ele>
        <time>2021-05-07T23:09:17Z</time>
      </trkpt>
      <trkpt lat="41.2589430" lon="1.5276360">
        <ele>85.8</ele>
        <time>2021-05-07T23:09:18Z</time>
      </trkpt>
      <trkpt lat="41.2589730" lon="1.5275970">
        <ele>85.6</ele>
        <time>2021-05-07T23:09:21Z</time>
      </trkpt>
      <trkpt lat="41.2589840" lon="1.5275950">
        <ele>85.8</ele>
        <time>2021-05-07T23:09:22Z</time>
      </trkpt>
      <trkpt lat="41.2589980" lon="1.5275900">
        <ele>85.8</ele>
        <time>2021-05-07T23:09:25Z</time>
      </trkpt>
      <trkpt lat="41.2590160" lon="1.5277340">
        <ele>85.0</ele>
        <time>2021-05-07T23:11:48Z</time>
      </trkpt>
      <trkpt lat="41.2590160" lon="1.5277550">
        <ele>84.8</ele>
        <time>2021-05-07T23:11:49Z</time>
      </trkpt>
      <trkpt lat="41.2590090" lon="1.5278400">
        <ele>84.2</ele>
        <time>2021-05-07T23:11:53Z</time>
      </trkpt>
      <trkpt lat="41.2590030" lon="1.5279560">
        <ele>83.6</ele>
        <time>2021-05-07T23:11:57Z</time>
      </trkpt>
      <trkpt lat="41.2589970" lon="1.5280950">
        <ele>83.0</ele>
        <time>2021-05-07T23:12:00Z</time>
      </trkpt>
      <trkpt lat="41.2589940" lon="1.5282800">
        <ele>82.2</ele>
        <time>2021-05-07T23:12:04Z</time>
      </trkpt>
      <trkpt lat="41.2589980" lon="1.5283650">
        <ele>81.8</ele>
        <time>2021-05-07T23:12:06Z</time>
      </trkpt>
      <trkpt lat="41.2590190" lon="1.5284990">
        <ele>81.4</ele>
        <time>2021-05-07T23:12:10Z</time>
      </trkpt>
      <trkpt lat="41.2590280" lon="1.5286320">
        <ele>81.4</ele>
        <time>2021-05-07T23:12:15Z</time>
      </trkpt>
      <trkpt lat="41.2590240" lon="1.5288130">
        <ele>82.0</ele>
        <time>2021-05-07T23:12:21Z</time>
      </trkpt>
      <trkpt lat="41.2590150" lon="1.5289980">
        <ele>82.8</ele>
        <time>2021-05-07T23:12:27Z</time>
      </trkpt>
      <trkpt lat="41.2590160" lon="1.5291160">
        <ele>83.4</ele>
        <time>2021-05-07T23:12:31Z</time>
      </trkpt>
      <trkpt lat="41.2590130" lon="1.5292050">
        <ele>84.0</ele>
        <time>2021-05-07T23:12:34Z</time>
      </trkpt>
      <trkpt lat="41.2590110" lon="1.5292930">
        <ele>84.6</ele>
        <time>2021-05-07T23:12:37Z</time>
      </trkpt>
      <trkpt lat="41.2590130" lon="1.5293500">
        <ele>85.2</ele>
        <time>2021-05-07T23:12:39Z</time>
      </trkpt>
      <trkpt lat="41.2590030" lon="1.5294890">
        <ele>86.4</ele>
        <time>2021-05-07T23:12:44Z</time>
      </trkpt>
      <trkpt lat="41.2590020" lon="1.5295180">
        <ele>86.6</ele>
        <time>2021-05-07T23:12:45Z</time>
      </trkpt>
      <trkpt lat="41.2590000" lon="1.5296540">
        <ele>87.4</ele>
        <time>2021-05-07T23:12:50Z</time>
      </trkpt>
      <trkpt lat="41.2590010" lon="1.5298020">
        <ele>88.0</ele>
        <time>2021-05-07T23:12:55Z</time>
      </trkpt>
      <trkpt lat="41.2589930" lon="1.5300260">
        <ele>88.4</ele>
        <time>2021-05-07T23:13:02Z</time>
      </trkpt>
      <trkpt lat="41.2589910" lon="1.5300900">
        <ele>88.4</ele>
        <time>2021-05-07T23:13:04Z</time>
      </trkpt>
      <trkpt lat="41.2589840" lon="1.5302220">
        <ele>88.6</ele>
        <time>2021-05-07T23:13:08Z</time>
      </trkpt>
      <trkpt lat="41.2589820" lon="1.5304240">
        <ele>88.2</ele>
        <time>2021-05-07T23:13:15Z</time>
      </trkpt>
      <trkpt lat="41.2589870" lon="1.5305480">
        <ele>88.2</ele>
        <time>2021-05-07T23:13:20Z</time>
      </trkpt>
      <trkpt lat="41.2589800" lon="1.5305750">
        <ele>88.2</ele>
        <time>2021-05-07T23:13:21Z</time>
      </trkpt>
      <trkpt lat="41.2589700" lon="1.5306610">
        <ele>88.2</ele>
        <time>2021-05-07T23:13:24Z</time>
      </trkpt>
      <trkpt lat="41.2589670" lon="1.5307190">
        <ele>88.2</ele>
        <time>2021-05-07T23:13:26Z</time>
      </trkpt>
      <trkpt lat="41.2589580" lon="1.5309130">
        <ele>88.2</ele>
        <time>2021-05-07T23:13:32Z</time>
      </trkpt>
      <trkpt lat="41.2589570" lon="1.5311630">
        <ele>88.6</ele>
        <time>2021-05-07T23:13:39Z</time>
      </trkpt>
      <trkpt lat="41.2589400" lon="1.5313930">
        <ele>88.4</ele>
        <time>2021-05-07T23:13:46Z</time>
      </trkpt>
      <trkpt lat="41.2589290" lon="1.5317130">
        <ele>88.6</ele>
        <time>2021-05-07T23:13:55Z</time>
      </trkpt>
      <trkpt lat="41.2589280" lon="1.5320000">
        <ele>88.8</ele>
        <time>2021-05-07T23:14:01Z</time>
      </trkpt>
      <trkpt lat="41.2589200" lon="1.5323470">
        <ele>88.6</ele>
        <time>2021-05-07T23:14:10Z</time>
      </trkpt>
      <trkpt lat="41.2589110" lon="1.5327260">
        <ele>88.8</ele>
        <time>2021-05-07T23:14:20Z</time>
      </trkpt>
      <trkpt lat="41.2589170" lon="1.5330090">
        <ele>88.8</ele>
        <time>2021-05-07T23:14:28Z</time>
      </trkpt>
      <trkpt lat="41.2589190" lon="1.5332680">
        <ele>89.0</ele>
        <time>2021-05-07T23:14:36Z</time>
      </trkpt>
      <trkpt lat="41.2589340" lon="1.5335950">
        <ele>89.0</ele>
        <time>2021-05-07T23:14:46Z</time>
      </trkpt>
      <trkpt lat="41.2589530" lon="1.5338840">
        <ele>89.4</ele>
        <time>2021-05-07T23:14:55Z</time>
      </trkpt>
      <trkpt lat="41.2589560" lon="1.5339160">
        <ele>89.4</ele>
        <time>2021-05-07T23:14:56Z</time>
      </trkpt>
      <trkpt lat="41.2589780" lon="1.5341800">
        <ele>89.8</ele>
        <time>2021-05-07T23:15:04Z</time>
      </trkpt>
      <trkpt lat="41.2590120" lon="1.5345030">
        <ele>90.2</ele>
        <time>2021-05-07T23:15:14Z</time>
      </trkpt>
      <trkpt lat="41.2590690" lon="1.5348640">
        <ele>90.0</ele>
        <time>2021-05-07T23:15:25Z</time>
      </trkpt>
      <trkpt lat="41.2591180" lon="1.5351190">
        <ele>90.0</ele>
        <time>2021-05-07T23:15:33Z</time>
      </trkpt>
      <trkpt lat="41.2591980" lon="1.5354340">
        <ele>89.6</ele>
        <time>2021-05-07T23:15:43Z</time>
      </trkpt>
      <trkpt lat="41.2592740" lon="1.5356830">
        <ele>89.4</ele>
        <time>2021-05-07T23:15:51Z</time>
      </trkpt>
      <trkpt lat="41.2593500" lon="1.5359270">
        <ele>89.8</ele>
        <time>2021-05-07T23:15:59Z</time>
      </trkpt>
      <trkpt lat="41.2594390" lon="1.5362030">
        <ele>90.2</ele>
        <time>2021-05-07T23:16:09Z</time>
      </trkpt>
      <trkpt lat="41.2595150" lon="1.5363920">
        <ele>90.4</ele>
        <time>2021-05-07T23:16:17Z</time>
      </trkpt>
      <trkpt lat="41.2596360" lon="1.5366670">
        <ele>90.2</ele>
        <time>2021-05-07T23:16:27Z</time>
      </trkpt>
      <trkpt lat="41.2597390" lon="1.5368920">
        <ele>89.8</ele>
        <time>2021-05-07T23:16:34Z</time>
      </trkpt>
      <trkpt lat="41.2598310" lon="1.5370830">
        <ele>88.8</ele>
        <time>2021-05-07T23:16:41Z</time>
      </trkpt>
      <trkpt lat="41.2598650" lon="1.5371520">
        <ele>88.8</ele>
        <time>2021-05-07T23:16:44Z</time>
      </trkpt>
      <trkpt lat="41.2599270" lon="1.5372670">
        <ele>88.8</ele>
        <time>2021-05-07T23:16:48Z</time>
      </trkpt>
      <trkpt lat="41.2600100" lon="1.5373980">
        <ele>88.4</ele>
        <time>2021-05-07T23:16:52Z</time>
      </trkpt>
      <trkpt lat="41.2601380" lon="1.5376050">
        <ele>88.0</ele>
        <time>2021-05-07T23:16:58Z</time>
      </trkpt>
      <trkpt lat="41.2603160" lon="1.5378990">
        <ele>87.6</ele>
        <time>2021-05-07T23:17:06Z</time>
      </trkpt>
      <trkpt lat="41.2604730" lon="1.5381080">
        <ele>87.4</ele>
        <time>2021-05-07T23:17:13Z</time>
      </trkpt>
      <trkpt lat="41.2606660" lon="1.5383250">
        <ele>87.8</ele>
        <time>2021-05-07T23:17:22Z</time>
      </trkpt>
      <trkpt lat="41.2608450" lon="1.5385040">
        <ele>88.4</ele>
        <time>2021-05-07T23:17:30Z</time>
      </trkpt>
      <trkpt lat="41.2610770" lon="1.5387150">
        <ele>89.0</ele>
        <time>2021-05-07T23:17:40Z</time>
      </trkpt>
      <trkpt lat="41.2612050" lon="1.5388040">
        <ele>89.4</ele>
        <time>2021-05-07T23:17:45Z</time>
      </trkpt>
      <trkpt lat="41.2613220" lon="1.5388850">
        <ele>89.8</ele>
        <time>2021-05-07T23:17:50Z</time>
      </trkpt>
      <trkpt lat="41.2614780" lon="1.5389840">
        <ele>90.4</ele>
        <time>2021-05-07T23:17:57Z</time>
      </trkpt>
      <trkpt lat="41.2615630" lon="1.5390380">
        <ele>90.8</ele>
        <time>2021-05-07T23:18:01Z</time>
      </trkpt>
      <trkpt lat="41.2617730" lon="1.5391410">
        <ele>91.4</ele>
        <time>2021-05-07T23:18:10Z</time>
      </trkpt>
      <trkpt lat="41.2620160" lon="1.5392550">
        <ele>91.4</ele>
        <time>2021-05-07T23:18:20Z</time>
      </trkpt>
      <trkpt lat="41.2620420" lon="1.5392640">
        <ele>91.6</ele>
        <time>2021-05-07T23:18:21Z</time>
      </trkpt>
      <trkpt lat="41.2622960" lon="1.5393590">
        <ele>92.0</ele>
        <time>2021-05-07T23:18:31Z</time>
      </trkpt>
      <trkpt lat="41.2624760" lon="1.5394320">
        <ele>92.2</ele>
        <time>2021-05-07T23:18:38Z</time>
      </trkpt>
      <trkpt lat="41.2626400" lon="1.5394920">
        <ele>92.2</ele>
        <time>2021-05-07T23:18:45Z</time>
      </trkpt>
      <trkpt lat="41.2629250" lon="1.5395580">
        <ele>92.2</ele>
        <time>2021-05-07T23:18:56Z</time>
      </trkpt>
      <trkpt lat="41.2630340" lon="1.5395810">
        <ele>92.4</ele>
        <time>2021-05-07T23:19:00Z</time>
      </trkpt>
      <trkpt lat="41.2631970" lon="1.5396070">
        <ele>92.8</ele>
        <time>2021-05-07T23:19:06Z</time>
      </trkpt>
      <trkpt lat="41.2634340" lon="1.5396330">
        <ele>93.4</ele>
        <time>2021-05-07T23:19:14Z</time>
      </trkpt>
      <trkpt lat="41.2634680" lon="1.5396330">
        <ele>93.6</ele>
        <time>2021-05-07T23:19:15Z</time>
      </trkpt>
      <trkpt lat="41.2637630" lon="1.5396420">
        <ele>93.6</ele>
        <time>2021-05-07T23:19:24Z</time>
      </trkpt>
      <trkpt lat="41.2640270" lon="1.5396330">
        <ele>94.4</ele>
        <time>2021-05-07T23:19:33Z</time>
      </trkpt>
      <trkpt lat="41.2641150" lon="1.5396210">
        <ele>94.6</ele>
        <time>2021-05-07T23:19:36Z</time>
      </trkpt>
      <trkpt lat="41.2642980" lon="1.5395950">
        <ele>95.2</ele>
        <time>2021-05-07T23:19:43Z</time>
      </trkpt>
      <trkpt lat="41.2644250" lon="1.5395670">
        <ele>95.6</ele>
        <time>2021-05-07T23:19:48Z</time>
      </trkpt>
      <trkpt lat="41.2645290" lon="1.5395340">
        <ele>96.0</ele>
        <time>2021-05-07T23:19:52Z</time>
      </trkpt>
      <trkpt lat="41.2646570" lon="1.5394950">
        <ele>96.6</ele>
        <time>2021-05-07T23:19:57Z</time>
      </trkpt>
      <trkpt lat="41.2647650" lon="1.5394610">
        <ele>97.0</ele>
        <time>2021-05-07T23:20:01Z</time>
      </trkpt>
      <trkpt lat="41.2648710" lon="1.5394220">
        <ele>97.6</ele>
        <time>2021-05-07T23:20:05Z</time>
      </trkpt>
      <trkpt lat="41.2649990" lon="1.5393700">
        <ele>98.6</ele>
        <time>2021-05-07T23:20:10Z</time>
      </trkpt>
      <trkpt lat="41.2650520" lon="1.5393520">
        <ele>98.6</ele>
        <time>2021-05-07T23:20:12Z</time>
      </trkpt>
      <trkpt lat="41.2652370" lon="1.5392690">
        <ele>99.6</ele>
        <time>2021-05-07T23:20:19Z</time>
      </trkpt>
      <trkpt lat="41.2652880" lon="1.5392420">
        <ele>99.8</ele>
        <time>2021-05-07T23:20:21Z</time>
      </trkpt>
      <trkpt lat="41.2655240" lon="1.5391120">
        <ele>101.0</ele>
        <time>2021-05-07T23:20:30Z</time>
      </trkpt>
      <trkpt lat="41.2655510" lon="1.5390950">
        <ele>101.2</ele>
        <time>2021-05-07T23:20:31Z</time>
      </trkpt>
      <trkpt lat="41.2657600" lon="1.5389640">
        <ele>102.0</ele>
        <time>2021-05-07T23:20:39Z</time>
      </trkpt>
      <trkpt lat="41.2658100" lon="1.5389280">
        <ele>102.2</ele>
        <time>2021-05-07T23:20:41Z</time>
      </trkpt>
      <trkpt lat="41.2659820" lon="1.5388070">
        <ele>103.2</ele>
        <time>2021-05-07T23:20:48Z</time>
      </trkpt>
      <trkpt lat="41.2660280" lon="1.5387700">
        <ele>103.4</ele>
        <time>2021-05-07T23:20:50Z</time>
      </trkpt>
      <trkpt lat="41.2662220" lon="1.5386060">
        <ele>104.2</ele>
        <time>2021-05-07T23:20:59Z</time>
      </trkpt>
      <trkpt lat="41.2662420" lon="1.5385890">
        <ele>104.2</ele>
        <time>2021-05-07T23:21:00Z</time>
      </trkpt>
      <trkpt lat="41.2663830" lon="1.5384620">
        <ele>105.4</ele>
        <time>2021-05-07T23:21:07Z</time>
      </trkpt>
      <trkpt lat="41.2664620" lon="1.5383860">
        <ele>106.0</ele>
        <time>2021-05-07T23:21:11Z</time>
      </trkpt>
      <trkpt lat="41.2665640" lon="1.5382920">
        <ele>106.6</ele>
        <time>2021-05-07T23:21:16Z</time>
      </trkpt>
      <trkpt lat="41.2666260" lon="1.5382300">
        <ele>106.8</ele>
        <time>2021-05-07T23:21:19Z</time>
      </trkpt>
      <trkpt lat="41.2667070" lon="1.5381450">
        <ele>107.6</ele>
        <time>2021-05-07T23:21:23Z</time>
      </trkpt>
      <trkpt lat="41.2668130" lon="1.5380220">
        <ele>108.6</ele>
        <time>2021-05-07T23:21:29Z</time>
      </trkpt>
      <trkpt lat="41.2668280" lon="1.5380030">
        <ele>108.6</ele>
        <time>2021-05-07T23:21:30Z</time>
      </trkpt>
      <trkpt lat="41.2669160" lon="1.5379100">
        <ele>109.4</ele>
        <time>2021-05-07T23:21:36Z</time>
      </trkpt>
      <trkpt lat="41.2669750" lon="1.5378380">
        <ele>109.8</ele>
        <time>2021-05-07T23:21:41Z</time>
      </trkpt>
      <trkpt lat="41.2669860" lon="1.5378190">
        <ele>109.8</ele>
        <time>2021-05-07T23:21:42Z</time>
      </trkpt>
      <trkpt lat="41.2670960" lon="1.5376470">
        <ele>110.2</ele>
        <time>2021-05-07T23:21:49Z</time>
      </trkpt>
      <trkpt lat="41.2672640" lon="1.5374020">
        <ele>110.8</ele>
        <time>2021-05-07T23:21:58Z</time>
      </trkpt>
      <trkpt lat="41.2674630" lon="1.5370620">
        <ele>111.8</ele>
        <time>2021-05-07T23:22:09Z</time>
      </trkpt>
      <trkpt lat="41.2676570" lon="1.5366810">
        <ele>111.8</ele>
        <time>2021-05-07T23:22:20Z</time>
      </trkpt>
      <trkpt lat="41.2677890" lon="1.5363780">
        <ele>112.4</ele>
        <time>2021-05-07T23:22:28Z</time>
      </trkpt>
      <trkpt lat="41.2679270" lon="1.5359920">
        <ele>112.6</ele>
        <time>2021-05-07T23:22:38Z</time>
      </trkpt>
      <trkpt lat="41.2680590" lon="1.5355780">
        <ele>112.4</ele>
        <time>2021-05-07T23:22:48Z</time>
      </trkpt>
      <trkpt lat="41.2681560" lon="1.5352070">
        <ele>111.4</ele>
        <time>2021-05-07T23:22:55Z</time>
      </trkpt>
      <trkpt lat="41.2682340" lon="1.5348870">
        <ele>110.8</ele>
        <time>2021-05-07T23:23:00Z</time>
      </trkpt>
      <trkpt lat="41.2682480" lon="1.5348200">
        <ele>110.6</ele>
        <time>2021-05-07T23:23:01Z</time>
      </trkpt>
      <trkpt lat="41.2682590" lon="1.5347520">
        <ele>110.4</ele>
        <time>2021-05-07T23:23:02Z</time>
      </trkpt>
      <trkpt lat="41.2682840" lon="1.5345520">
        <ele>109.6</ele>
        <time>2021-05-07T23:23:05Z</time>
      </trkpt>
      <trkpt lat="41.2683000" lon="1.5343690">
        <ele>109.6</ele>
        <time>2021-05-07T23:23:08Z</time>
      </trkpt>
      <trkpt lat="41.2683510" lon="1.5339750">
        <ele>109.6</ele>
        <time>2021-05-07T23:23:15Z</time>
      </trkpt>
      <trkpt lat="41.2683990" lon="1.5336900">
        <ele>109.4</ele>
        <time>2021-05-07T23:23:21Z</time>
      </trkpt>
      <trkpt lat="41.2685170" lon="1.5334380">
        <ele>109.2</ele>
        <time>2021-05-07T23:23:27Z</time>
      </trkpt>
      <trkpt lat="41.2686460" lon="1.5333070">
        <ele>109.0</ele>
        <time>2021-05-07T23:23:32Z</time>
      </trkpt>
      <trkpt lat="41.2687520" lon="1.5331410">
        <ele>109.6</ele>
        <time>2021-05-07T23:23:38Z</time>
      </trkpt>
      <trkpt lat="41.2688540" lon="1.5329420">
        <ele>109.8</ele>
        <time>2021-05-07T23:23:44Z</time>
      </trkpt>
      <trkpt lat="41.2689930" lon="1.5329040">
        <ele>109.6</ele>
        <time>2021-05-07T23:23:49Z</time>
      </trkpt>
      <trkpt lat="41.2691230" lon="1.5328830">
        <ele>110.0</ele>
        <time>2021-05-07T23:23:54Z</time>
      </trkpt>
      <trkpt lat="41.2692210" lon="1.5327570">
        <ele>110.4</ele>
        <time>2021-05-07T23:23:59Z</time>
      </trkpt>
      <trkpt lat="41.2693390" lon="1.5325710">
        <ele>110.4</ele>
        <time>2021-05-07T23:24:05Z</time>
      </trkpt>
      <trkpt lat="41.2694040" lon="1.5324690">
        <ele>110.8</ele>
        <time>2021-05-07T23:24:08Z</time>
      </trkpt>
      <trkpt lat="41.2694820" lon="1.5323350">
        <ele>111.2</ele>
        <time>2021-05-07T23:24:12Z</time>
      </trkpt>
      <trkpt lat="41.2695850" lon="1.5321180">
        <ele>111.2</ele>
        <time>2021-05-07T23:24:18Z</time>
      </trkpt>
      <trkpt lat="41.2696710" lon="1.5319160">
        <ele>111.4</ele>
        <time>2021-05-07T23:24:25Z</time>
      </trkpt>
      <trkpt lat="41.2697690" lon="1.5316840">
        <ele>111.6</ele>
        <time>2021-05-07T23:24:32Z</time>
      </trkpt>
      <trkpt lat="41.2697810" lon="1.5316500">
        <ele>111.8</ele>
        <time>2021-05-07T23:24:33Z</time>
      </trkpt>
      <trkpt lat="41.2698240" lon="1.5314430">
        <ele>112.0</ele>
        <time>2021-05-07T23:24:39Z</time>
      </trkpt>
      <trkpt lat="41.2698360" lon="1.5312850">
        <ele>112.0</ele>
        <time>2021-05-07T23:24:44Z</time>
      </trkpt>
      <trkpt lat="41.2698140" lon="1.5310860">
        <ele>112.6</ele>
        <time>2021-05-07T23:24:50Z</time>
      </trkpt>
      <trkpt lat="41.2698080" lon="1.5310550">
        <ele>113.0</ele>
        <time>2021-05-07T23:24:51Z</time>
      </trkpt>
      <trkpt lat="41.2697810" lon="1.5309730">
        <ele>113.6</ele>
        <time>2021-05-07T23:24:54Z</time>
      </trkpt>
      <trkpt lat="41.2697810" lon="1.5309450">
        <ele>113.8</ele>
        <time>2021-05-07T23:24:55Z</time>
      </trkpt>
      <trkpt lat="41.2697970" lon="1.5307820">
        <ele>114.8</ele>
        <time>2021-05-07T23:25:01Z</time>
      </trkpt>
      <trkpt lat="41.2698070" lon="1.5307600">
        <ele>115.0</ele>
        <time>2021-05-07T23:25:02Z</time>
      </trkpt>
      <trkpt lat="41.2698170" lon="1.5307430">
        <ele>115.0</ele>
        <time>2021-05-07T23:25:03Z</time>
      </trkpt>
      <trkpt lat="41.2698300" lon="1.5307180">
        <ele>115.6</ele>
        <time>2021-05-07T23:25:05Z</time>
      </trkpt>
      <trkpt lat="41.2698340" lon="1.5307020">
        <ele>115.8</ele>
        <time>2021-05-07T23:25:06Z</time>
      </trkpt>
      <trkpt lat="41.2698660" lon="1.5306860">
        <ele>116.2</ele>
        <time>2021-05-07T23:25:10Z</time>
      </trkpt>
      <trkpt lat="41.2698710" lon="1.5306970">
        <ele>116.2</ele>
        <time>2021-05-07T23:25:11Z</time>
      </trkpt>
      <trkpt lat="41.2698670" lon="1.5307050">
        <ele>116.4</ele>
        <time>2021-05-07T23:25:15Z</time>
      </trkpt>
      <trkpt lat="41.2698930" lon="1.5306610">
        <ele>116.2</ele>
        <time>2021-05-07T23:25:22Z</time>
      </trkpt>
      <trkpt lat="41.2699290" lon="1.5306160">
        <ele>116.4</ele>
        <time>2021-05-07T23:25:25Z</time>
      </trkpt>
      <trkpt lat="41.2699820" lon="1.5305440">
        <ele>117.0</ele>
        <time>2021-05-07T23:25:29Z</time>
      </trkpt>
      <trkpt lat="41.2700130" lon="1.5305110">
        <ele>117.4</ele>
        <time>2021-05-07T23:25:31Z</time>
      </trkpt>
      <trkpt lat="41.2700600" lon="1.5304640">
        <ele>118.2</ele>
        <time>2021-05-07T23:25:34Z</time>
      </trkpt>
      <trkpt lat="41.2701320" lon="1.5304170">
        <ele>119.2</ele>
        <time>2021-05-07T23:25:38Z</time>
      </trkpt>
      <trkpt lat="41.2701480" lon="1.5304110">
        <ele>119.4</ele>
        <time>2021-05-07T23:25:39Z</time>
      </trkpt>
      <trkpt lat="41.2702030" lon="1.5303990">
        <ele>120.2</ele>
        <time>2021-05-07T23:25:43Z</time>
      </trkpt>
      <trkpt lat="41.2702310" lon="1.5304120">
        <ele>120.6</ele>
        <time>2021-05-07T23:25:45Z</time>
      </trkpt>
      <trkpt lat="41.2702730" lon="1.5304480">
        <ele>121.0</ele>
        <time>2021-05-07T23:25:50Z</time>
      </trkpt>
      <trkpt lat="41.2702730" lon="1.5304480">
        <ele>121.0</ele>
        <time>2021-05-07T23:25:51Z</time>
      </trkpt>
      <trkpt lat="41.2703180" lon="1.5304770">
        <ele>121.0</ele>
        <time>2021-05-07T23:26:08Z</time>
      </trkpt>
      <trkpt lat="41.2703560" lon="1.5304990">
        <ele>120.8</ele>
        <time>2021-05-07T23:26:10Z</time>
      </trkpt>
      <trkpt lat="41.2704730" lon="1.5305820">
        <ele>121.2</ele>
        <time>2021-05-07T23:26:16Z</time>
      </trkpt>
      <trkpt lat="41.2704920" lon="1.5305940">
        <ele>121.4</ele>
        <time>2021-05-07T23:26:17Z</time>
      </trkpt>
      <trkpt lat="41.2705640" lon="1.5306500">
        <ele>121.6</ele>
        <time>2021-05-07T23:26:21Z</time>
      </trkpt>
      <trkpt lat="41.2706760" lon="1.5307280">
        <ele>122.0</ele>
        <time>2021-05-07T23:26:27Z</time>
      </trkpt>
      <trkpt lat="41.2708180" lon="1.5308380">
        <ele>122.0</ele>
        <time>2021-05-07T23:26:36Z</time>
      </trkpt>
      <trkpt lat="41.2708760" lon="1.5308930">
        <ele>121.4</ele>
        <time>2021-05-07T23:26:41Z</time>
      </trkpt>
      <trkpt lat="41.2708760" lon="1.5309380">
        <ele>121.4</ele>
        <time>2021-05-07T23:26:43Z</time>
      </trkpt>
      <trkpt lat="41.2708410" lon="1.5310700">
        <ele>120.8</ele>
        <time>2021-05-07T23:26:47Z</time>
      </trkpt>
      <trkpt lat="41.2708280" lon="1.5311060">
        <ele>120.8</ele>
        <time>2021-05-07T23:26:48Z</time>
      </trkpt>
      <trkpt lat="41.2707940" lon="1.5311720">
        <ele>119.8</ele>
        <time>2021-05-07T23:26:50Z</time>
      </trkpt>
      <trkpt lat="41.2707380" lon="1.5312770">
        <ele>118.8</ele>
        <time>2021-05-07T23:26:53Z</time>
      </trkpt>
      <trkpt lat="41.2707190" lon="1.5313130">
        <ele>118.6</ele>
        <time>2021-05-07T23:26:54Z</time>
      </trkpt>
      <trkpt lat="41.2706390" lon="1.5314650">
        <ele>117.4</ele>
        <time>2021-05-07T23:26:58Z</time>
      </trkpt>
      <trkpt lat="41.2705800" lon="1.5315850">
        <ele>116.2</ele>
        <time>2021-05-07T23:27:01Z</time>
      </trkpt>
      <trkpt lat="41.2705410" lon="1.5316720">
        <ele>115.6</ele>
        <time>2021-05-07T23:27:03Z</time>
      </trkpt>
      <trkpt lat="41.2704740" lon="1.5318160">
        <ele>115.0</ele>
        <time>2021-05-07T23:27:06Z</time>
      </trkpt>
      <trkpt lat="41.2703930" lon="1.5320220">
        <ele>114.0</ele>
        <time>2021-05-07T23:27:10Z</time>
      </trkpt>
      <trkpt lat="41.2703780" lon="1.5320740">
        <ele>114.0</ele>
        <time>2021-05-07T23:27:11Z</time>
      </trkpt>
      <trkpt lat="41.2703160" lon="1.5322870">
        <ele>113.0</ele>
        <time>2021-05-07T23:27:16Z</time>
      </trkpt>
      <trkpt lat="41.2702580" lon="1.5325290">
        <ele>113.2</ele>
        <time>2021-05-07T23:27:22Z</time>
      </trkpt>
      <trkpt lat="41.2701940" lon="1.5327640">
        <ele>113.2</ele>
        <time>2021-05-07T23:27:28Z</time>
      </trkpt>
      <trkpt lat="41.2701370" lon="1.5330180">
        <ele>113.4</ele>
        <time>2021-05-07T23:27:34Z</time>
      </trkpt>
      <trkpt lat="41.2700900" lon="1.5332770">
        <ele>112.8</ele>
        <time>2021-05-07T23:27:40Z</time>
      </trkpt>
      <trkpt lat="41.2700750" lon="1.5333580">
        <ele>112.8</ele>
        <time>2021-05-07T23:27:42Z</time>
      </trkpt>
      <trkpt lat="41.2700410" lon="1.5335920">
        <ele>113.2</ele>
        <time>2021-05-07T23:27:48Z</time>
      </trkpt>
      <trkpt lat="41.2699690" lon="1.5338790">
        <ele>112.8</ele>
        <time>2021-05-07T23:27:55Z</time>
      </trkpt>
      <trkpt lat="41.2698690" lon="1.5341620">
        <ele>112.6</ele>
        <time>2021-05-07T23:28:01Z</time>
      </trkpt>
      <trkpt lat="41.2697490" lon="1.5345800">
        <ele>112.0</ele>
        <time>2021-05-07T23:28:09Z</time>
      </trkpt>
      <trkpt lat="41.2696680" lon="1.5348900">
        <ele>111.8</ele>
        <time>2021-05-07T23:28:15Z</time>
      </trkpt>
      <trkpt lat="41.2696400" lon="1.5349850">
        <ele>111.6</ele>
        <time>2021-05-07T23:28:17Z</time>
      </trkpt>
      <trkpt lat="41.2695680" lon="1.5352370">
        <ele>111.8</ele>
        <time>2021-05-07T23:28:23Z</time>
      </trkpt>
      <trkpt lat="41.2695130" lon="1.5354300">
        <ele>112.0</ele>
        <time>2021-05-07T23:28:29Z</time>
      </trkpt>
      <trkpt lat="41.2694750" lon="1.5355720">
        <ele>112.8</ele>
        <time>2021-05-07T23:28:33Z</time>
      </trkpt>
      <trkpt lat="41.2694380" lon="1.5356620">
        <ele>113.0</ele>
        <time>2021-05-07T23:28:36Z</time>
      </trkpt>
      <trkpt lat="41.2693970" lon="1.5357720">
        <ele>114.0</ele>
        <time>2021-05-07T23:28:40Z</time>
      </trkpt>
      <trkpt lat="41.2693810" lon="1.5358200">
        <ele>114.2</ele>
        <time>2021-05-07T23:28:42Z</time>
      </trkpt>
      <trkpt lat="41.2693250" lon="1.5360210">
        <ele>114.6</ele>
        <time>2021-05-07T23:28:48Z</time>
      </trkpt>
      <trkpt lat="41.2692960" lon="1.5361250">
        <ele>115.0</ele>
        <time>2021-05-07T23:28:51Z</time>
      </trkpt>
      <trkpt lat="41.2692730" lon="1.5362300">
        <ele>115.4</ele>
        <time>2021-05-07T23:28:54Z</time>
      </trkpt>
      <trkpt lat="41.2692190" lon="1.5364780">
        <ele>116.0</ele>
        <time>2021-05-07T23:29:01Z</time>
      </trkpt>
      <trkpt lat="41.2692200" lon="1.5366230">
        <ele>115.6</ele>
        <time>2021-05-07T23:29:05Z</time>
      </trkpt>
      <trkpt lat="41.2692370" lon="1.5366520">
        <ele>115.6</ele>
        <time>2021-05-07T23:29:06Z</time>
      </trkpt>
      <trkpt lat="41.2693240" lon="1.5366920">
        <ele>115.6</ele>
        <time>2021-05-07T23:29:10Z</time>
      </trkpt>
      <trkpt lat="41.2693680" lon="1.5367110">
        <ele>115.8</ele>
        <time>2021-05-07T23:29:12Z</time>
      </trkpt>
      <trkpt lat="41.2693840" lon="1.5367730">
        <ele>116.0</ele>
        <time>2021-05-07T23:29:14Z</time>
      </trkpt>
      <trkpt lat="41.2693750" lon="1.5368260">
        <ele>116.0</ele>
        <time>2021-05-07T23:29:16Z</time>
      </trkpt>
      <trkpt lat="41.2693530" lon="1.5369260">
        <ele>116.0</ele>
        <time>2021-05-07T23:29:19Z</time>
      </trkpt>
      <trkpt lat="41.2692960" lon="1.5372390">
        <ele>115.6</ele>
        <time>2021-05-07T23:29:27Z</time>
      </trkpt>
      <trkpt lat="41.2692730" lon="1.5375330">
        <ele>115.8</ele>
        <time>2021-05-07T23:29:34Z</time>
      </trkpt>
      <trkpt lat="41.2692660" lon="1.5377610">
        <ele>115.2</ele>
        <time>2021-05-07T23:29:39Z</time>
      </trkpt>
      <trkpt lat="41.2693470" lon="1.5378780">
        <ele>115.6</ele>
        <time>2021-05-07T23:29:43Z</time>
      </trkpt>
      <trkpt lat="41.2694700" lon="1.5378800">
        <ele>115.4</ele>
        <time>2021-05-07T23:29:47Z</time>
      </trkpt>
      <trkpt lat="41.2696880" lon="1.5378750">
        <ele>116.2</ele>
        <time>2021-05-07T23:29:55Z</time>
      </trkpt>
      <trkpt lat="41.2698590" lon="1.5378780">
        <ele>117.2</ele>
        <time>2021-05-07T23:30:02Z</time>
      </trkpt>
      <trkpt lat="41.2698830" lon="1.5378850">
        <ele>117.2</ele>
        <time>2021-05-07T23:30:03Z</time>
      </trkpt>
      <trkpt lat="41.2700480" lon="1.5379450">
        <ele>118.0</ele>
        <time>2021-05-07T23:30:10Z</time>
      </trkpt>
      <trkpt lat="41.2701500" lon="1.5379600">
        <ele>118.0</ele>
        <time>2021-05-07T23:30:15Z</time>
      </trkpt>
      <trkpt lat="41.2702230" lon="1.5379120">
        <ele>118.0</ele>
        <time>2021-05-07T23:30:20Z</time>
      </trkpt>
      <trkpt lat="41.2703350" lon="1.5378490">
        <ele>118.2</ele>
        <time>2021-05-07T23:30:26Z</time>
      </trkpt>
      <trkpt lat="41.2704870" lon="1.5378100">
        <ele>118.6</ele>
        <time>2021-05-07T23:30:33Z</time>
      </trkpt>
      <trkpt lat="41.2706170" lon="1.5377980">
        <ele>118.8</ele>
        <time>2021-05-07T23:30:39Z</time>
      </trkpt>
      <trkpt lat="41.2707390" lon="1.5377800">
        <ele>119.0</ele>
        <time>2021-05-07T23:30:44Z</time>
      </trkpt>
      <trkpt lat="41.2707610" lon="1.5377760">
        <ele>119.2</ele>
        <time>2021-05-07T23:30:45Z</time>
      </trkpt>
      <trkpt lat="41.2709070" lon="1.5377550">
        <ele>119.4</ele>
        <time>2021-05-07T23:30:51Z</time>
      </trkpt>
      <trkpt lat="41.2710490" lon="1.5376640">
        <ele>119.6</ele>
        <time>2021-05-07T23:30:57Z</time>
      </trkpt>
      <trkpt lat="41.2711410" lon="1.5376030">
        <ele>119.8</ele>
        <time>2021-05-07T23:31:01Z</time>
      </trkpt>
      <trkpt lat="41.2711550" lon="1.5375990">
        <ele>119.8</ele>
        <time>2021-05-07T23:31:02Z</time>
      </trkpt>
      <trkpt lat="41.2712170" lon="1.5375550">
        <ele>120.0</ele>
        <time>2021-05-07T23:31:07Z</time>
      </trkpt>
      <trkpt lat="41.2713270" lon="1.5375310">
        <ele>120.0</ele>
        <time>2021-05-07T23:31:12Z</time>
      </trkpt>
      <trkpt lat="41.2713700" lon="1.5375290">
        <ele>120.2</ele>
        <time>2021-05-07T23:31:14Z</time>
      </trkpt>
      <trkpt lat="41.2715270" lon="1.5375070">
        <ele>120.8</ele>
        <time>2021-05-07T23:31:21Z</time>
      </trkpt>
      <trkpt lat="41.2717340" lon="1.5374920">
        <ele>121.2</ele>
        <time>2021-05-07T23:31:30Z</time>
      </trkpt>
      <trkpt lat="41.2717870" lon="1.5374890">
        <ele>121.4</ele>
        <time>2021-05-07T23:31:32Z</time>
      </trkpt>
      <trkpt lat="41.2720050" lon="1.5374940">
        <ele>122.0</ele>
        <time>2021-05-07T23:31:40Z</time>
      </trkpt>
      <trkpt lat="41.2721450" lon="1.5375220">
        <ele>122.2</ele>
        <time>2021-05-07T23:31:45Z</time>
      </trkpt>
      <trkpt lat="41.2722340" lon="1.5375310">
        <ele>122.2</ele>
        <time>2021-05-07T23:31:48Z</time>
      </trkpt>
      <trkpt lat="41.2724240" lon="1.5375410">
        <ele>122.8</ele>
        <time>2021-05-07T23:31:55Z</time>
      </trkpt>
      <trkpt lat="41.2726510" lon="1.5375330">
        <ele>123.0</ele>
        <time>2021-05-07T23:32:04Z</time>
      </trkpt>
      <trkpt lat="41.2727940" lon="1.5375390">
        <ele>123.2</ele>
        <time>2021-05-07T23:32:12Z</time>
      </trkpt>
      <trkpt lat="41.2728370" lon="1.5375410">
        <ele>122.8</ele>
        <time>2021-05-07T23:32:17Z</time>
      </trkpt>
      <trkpt lat="41.2729110" lon="1.5375440">
        <ele>123.2</ele>
        <time>2021-05-07T23:32:22Z</time>
      </trkpt>
      <trkpt lat="41.2730560" lon="1.5375380">
        <ele>123.6</ele>
        <time>2021-05-07T23:32:28Z</time>
      </trkpt>
      <trkpt lat="41.2732480" lon="1.5375330">
        <ele>124.4</ele>
        <time>2021-05-07T23:32:36Z</time>
      </trkpt>
      <trkpt lat="41.2734650" lon="1.5375080">
        <ele>125.4</ele>
        <time>2021-05-07T23:32:45Z</time>
      </trkpt>
      <trkpt lat="41.2737110" lon="1.5374530">
        <ele>126.0</ele>
        <time>2021-05-07T23:32:54Z</time>
      </trkpt>
      <trkpt lat="41.2740410" lon="1.5373810">
        <ele>126.2</ele>
        <time>2021-05-07T23:33:06Z</time>
      </trkpt>
      <trkpt lat="41.2740960" lon="1.5373650">
        <ele>126.4</ele>
        <time>2021-05-07T23:33:08Z</time>
      </trkpt>
      <trkpt lat="41.2743070" lon="1.5373080">
        <ele>127.0</ele>
        <time>2021-05-07T23:33:16Z</time>
      </trkpt>
      <trkpt lat="41.2744340" lon="1.5372680">
        <ele>127.4</ele>
        <time>2021-05-07T23:33:21Z</time>
      </trkpt>
      <trkpt lat="41.2745860" lon="1.5372210">
        <ele>128.2</ele>
        <time>2021-05-07T23:33:27Z</time>
      </trkpt>
      <trkpt lat="41.2747350" lon="1.5371710">
        <ele>128.6</ele>
        <time>2021-05-07T23:33:33Z</time>
      </trkpt>
      <trkpt lat="41.2748040" lon="1.5371510">
        <ele>129.0</ele>
        <time>2021-05-07T23:33:36Z</time>
      </trkpt>
      <trkpt lat="41.2750370" lon="1.5371090">
        <ele>129.4</ele>
        <time>2021-05-07T23:33:45Z</time>
      </trkpt>
      <trkpt lat="41.2750640" lon="1.5371020">
        <ele>129.6</ele>
        <time>2021-05-07T23:33:46Z</time>
      </trkpt>
      <trkpt lat="41.2752300" lon="1.5371260">
        <ele>130.0</ele>
        <time>2021-05-07T23:33:53Z</time>
      </trkpt>
      <trkpt lat="41.2752460" lon="1.5372700">
        <ele>130.0</ele>
        <time>2021-05-07T23:33:57Z</time>
      </trkpt>
      <trkpt lat="41.2752380" lon="1.5376420">
        <ele>129.6</ele>
        <time>2021-05-07T23:34:06Z</time>
      </trkpt>
      <trkpt lat="41.2752170" lon="1.5380150">
        <ele>129.4</ele>
        <time>2021-05-07T23:34:15Z</time>
      </trkpt>
      <trkpt lat="41.2751720" lon="1.5383910">
        <ele>129.2</ele>
        <time>2021-05-07T23:34:24Z</time>
      </trkpt>
      <trkpt lat="41.2751040" lon="1.5387620">
        <ele>129.2</ele>
        <time>2021-05-07T23:34:33Z</time>
      </trkpt>
      <trkpt lat="41.2750590" lon="1.5391400">
        <ele>129.6</ele>
        <time>2021-05-07T23:34:43Z</time>
      </trkpt>
      <trkpt lat="41.2749550" lon="1.5395250">
        <ele>129.6</ele>
        <time>2021-05-07T23:34:53Z</time>
      </trkpt>
      <trkpt lat="41.2748710" lon="1.5399540">
        <ele>129.0</ele>
        <time>2021-05-07T23:35:03Z</time>
      </trkpt>
      <trkpt lat="41.2748370" lon="1.5402800">
        <ele>128.4</ele>
        <time>2021-05-07T23:35:10Z</time>
      </trkpt>
      <trkpt lat="41.2748310" lon="1.5403350">
        <ele>128.2</ele>
        <time>2021-05-07T23:35:11Z</time>
      </trkpt>
      <trkpt lat="41.2748200" lon="1.5406310">
        <ele>127.6</ele>
        <time>2021-05-07T23:35:16Z</time>
      </trkpt>
      <trkpt lat="41.2748120" lon="1.5406930">
        <ele>127.4</ele>
        <time>2021-05-07T23:35:17Z</time>
      </trkpt>
      <trkpt lat="41.2748040" lon="1.5407560">
        <ele>127.2</ele>
        <time>2021-05-07T23:35:18Z</time>
      </trkpt>
      <trkpt lat="41.2747720" lon="1.5410200">
        <ele>126.2</ele>
        <time>2021-05-07T23:35:22Z</time>
      </trkpt>
      <trkpt lat="41.2747450" lon="1.5412880">
        <ele>125.2</ele>
        <time>2021-05-07T23:35:26Z</time>
      </trkpt>
      <trkpt lat="41.2747250" lon="1.5414820">
        <ele>124.6</ele>
        <time>2021-05-07T23:35:29Z</time>
      </trkpt>
      <trkpt lat="41.2747060" lon="1.5416710">
        <ele>124.0</ele>
        <time>2021-05-07T23:35:32Z</time>
      </trkpt>
      <trkpt lat="41.2746530" lon="1.5421070">
        <ele>123.0</ele>
        <time>2021-05-07T23:35:39Z</time>
      </trkpt>
      <trkpt lat="41.2746460" lon="1.5421680">
        <ele>122.8</ele>
        <time>2021-05-07T23:35:40Z</time>
      </trkpt>
      <trkpt lat="41.2745900" lon="1.5426510">
        <ele>122.0</ele>
        <time>2021-05-07T23:35:48Z</time>
      </trkpt>
      <trkpt lat="41.2745860" lon="1.5427130">
        <ele>121.8</ele>
        <time>2021-05-07T23:35:49Z</time>
      </trkpt>
      <trkpt lat="41.2745490" lon="1.5430210">
        <ele>121.8</ele>
        <time>2021-05-07T23:35:54Z</time>
      </trkpt>
      <trkpt lat="41.2744970" lon="1.5434680">
        <ele>121.0</ele>
        <time>2021-05-07T23:36:02Z</time>
      </trkpt>
      <trkpt lat="41.2744830" lon="1.5436340">
        <ele>120.8</ele>
        <time>2021-05-07T23:36:05Z</time>
      </trkpt>
      <trkpt lat="41.2744630" lon="1.5437960">
        <ele>120.6</ele>
        <time>2021-05-07T23:36:08Z</time>
      </trkpt>
      <trkpt lat="41.2744360" lon="1.5439460">
        <ele>120.2</ele>
        <time>2021-05-07T23:36:11Z</time>
      </trkpt>
      <trkpt lat="41.2744110" lon="1.5440660">
        <ele>119.8</ele>
        <time>2021-05-07T23:36:15Z</time>
      </trkpt>
      <trkpt lat="41.2744050" lon="1.5441020">
        <ele>119.6</ele>
        <time>2021-05-07T23:36:19Z</time>
      </trkpt>
      <trkpt lat="41.2744060" lon="1.5441560">
        <ele>119.6</ele>
        <time>2021-05-07T23:36:30Z</time>
      </trkpt>
      <trkpt lat="41.2743930" lon="1.5442440">
        <ele>119.6</ele>
        <time>2021-05-07T23:36:35Z</time>
      </trkpt>
      <trkpt lat="41.2744020" lon="1.5442810">
        <ele>119.4</ele>
        <time>2021-05-07T23:36:37Z</time>
      </trkpt>
      <trkpt lat="41.2744160" lon="1.5443180">
        <ele>119.4</ele>
        <time>2021-05-07T23:36:39Z</time>
      </trkpt>
      <trkpt lat="41.2744620" lon="1.5444410">
        <ele>119.6</ele>
        <time>2021-05-07T23:36:44Z</time>
      </trkpt>
      <trkpt lat="41.2745460" lon="1.5446590">
        <ele>119.4</ele>
        <time>2021-05-07T23:36:51Z</time>
      </trkpt>
      <trkpt lat="41.2746350" lon="1.5449160">
        <ele>119.6</ele>
        <time>2021-05-07T23:36:59Z</time>
      </trkpt>
      <trkpt lat="41.2747130" lon="1.5451430">
        <ele>119.6</ele>
        <time>2021-05-07T23:37:05Z</time>
      </trkpt>
      <trkpt lat="41.2747880" lon="1.5453810">
        <ele>119.6</ele>
        <time>2021-05-07T23:37:11Z</time>
      </trkpt>
      <trkpt lat="41.2748810" lon="1.5456270">
        <ele>120.2</ele>
        <time>2021-05-07T23:37:18Z</time>
      </trkpt>
      <trkpt lat="41.2749750" lon="1.5458720">
        <ele>120.4</ele>
        <time>2021-05-07T23:37:25Z</time>
      </trkpt>
      <trkpt lat="41.2750550" lon="1.5460890">
        <ele>120.8</ele>
        <time>2021-05-07T23:37:31Z</time>
      </trkpt>
      <trkpt lat="41.2750910" lon="1.5461590">
        <ele>120.8</ele>
        <time>2021-05-07T23:37:33Z</time>
      </trkpt>
      <trkpt lat="41.2751580" lon="1.5463050">
        <ele>121.0</ele>
        <time>2021-05-07T23:37:37Z</time>
      </trkpt>
      <trkpt lat="41.2752480" lon="1.5466130">
        <ele>121.0</ele>
        <time>2021-05-07T23:37:45Z</time>
      </trkpt>
      <trkpt lat="41.2752890" lon="1.5469250">
        <ele>120.4</ele>
        <time>2021-05-07T23:37:53Z</time>
      </trkpt>
      <trkpt lat="41.2753070" lon="1.5472670">
        <ele>120.0</ele>
        <time>2021-05-07T23:38:01Z</time>
      </trkpt>
      <trkpt lat="41.2753220" lon="1.5474430">
        <ele>119.8</ele>
        <time>2021-05-07T23:38:05Z</time>
      </trkpt>
      <trkpt lat="41.2753280" lon="1.5475760">
        <ele>119.4</ele>
        <time>2021-05-07T23:38:08Z</time>
      </trkpt>
      <trkpt lat="41.2753280" lon="1.5478580">
        <ele>119.8</ele>
        <time>2021-05-07T23:38:15Z</time>
      </trkpt>
      <trkpt lat="41.2753360" lon="1.5480740">
        <ele>120.0</ele>
        <time>2021-05-07T23:38:21Z</time>
      </trkpt>
      <trkpt lat="41.2753230" lon="1.5482650">
        <ele>120.4</ele>
        <time>2021-05-07T23:38:27Z</time>
      </trkpt>
      <trkpt lat="41.2751880" lon="1.5484690">
        <ele>131.2</ele>
        <time>2021-05-08T08:34:23Z</time>
      </trkpt>
      <trkpt lat="41.2751890" lon="1.5484680">
        <ele>131.4</ele>
        <time>2021-05-08T08:34:24Z</time>
      </trkpt>
      <trkpt lat="41.2752510" lon="1.5484730">
        <ele>131.2</ele>
        <time>2021-05-08T08:35:00Z</time>
      </trkpt>
      <trkpt lat="41.2752850" lon="1.5484490">
        <ele>131.2</ele>
        <time>2021-05-08T08:35:03Z</time>
      </trkpt>
      <trkpt lat="41.2753220" lon="1.5484470">
        <ele>131.2</ele>
        <time>2021-05-08T08:35:06Z</time>
      </trkpt>
      <trkpt lat="41.2753510" lon="1.5484710">
        <ele>131.4</ele>
        <time>2021-05-08T08:35:08Z</time>
      </trkpt>
      <trkpt lat="41.2754440" lon="1.5485030">
        <ele>131.4</ele>
        <time>2021-05-08T08:35:14Z</time>
      </trkpt>
      <trkpt lat="41.2755050" lon="1.5485090">
        <ele>131.4</ele>
        <time>2021-05-08T08:35:18Z</time>
      </trkpt>
      <trkpt lat="41.2756190" lon="1.5485100">
        <ele>131.8</ele>
        <time>2021-05-08T08:35:24Z</time>
      </trkpt>
      <trkpt lat="41.2756780" lon="1.5485060">
        <ele>132.0</ele>
        <time>2021-05-08T08:35:27Z</time>
      </trkpt>
      <trkpt lat="41.2757740" lon="1.5485000">
        <ele>132.2</ele>
        <time>2021-05-08T08:35:32Z</time>
      </trkpt>
      <trkpt lat="41.2758620" lon="1.5484850">
        <ele>132.6</ele>
        <time>2021-05-08T08:35:36Z</time>
      </trkpt>
      <trkpt lat="41.2759410" lon="1.5484770">
        <ele>132.6</ele>
        <time>2021-05-08T08:35:40Z</time>
      </trkpt>
      <trkpt lat="41.2760410" lon="1.5484670">
        <ele>132.6</ele>
        <time>2021-05-08T08:35:45Z</time>
      </trkpt>
      <trkpt lat="41.2761920" lon="1.5484390">
        <ele>133.2</ele>
        <time>2021-05-08T08:35:52Z</time>
      </trkpt>
      <trkpt lat="41.2763190" lon="1.5484270">
        <ele>133.6</ele>
        <time>2021-05-08T08:35:58Z</time>
      </trkpt>
      <trkpt lat="41.2763570" lon="1.5484290">
        <ele>133.6</ele>
        <time>2021-05-08T08:36:00Z</time>
      </trkpt>
      <trkpt lat="41.2764330" lon="1.5484370">
        <ele>133.8</ele>
        <time>2021-05-08T08:36:04Z</time>
      </trkpt>
      <trkpt lat="41.2764470" lon="1.5484580">
        <ele>133.8</ele>
        <time>2021-05-08T08:36:05Z</time>
      </trkpt>
      <trkpt lat="41.2764700" lon="1.5486160">
        <ele>133.8</ele>
        <time>2021-05-08T08:36:10Z</time>
      </trkpt>
      <trkpt lat="41.2764880" lon="1.5488720">
        <ele>133.8</ele>
        <time>2021-05-08T08:36:18Z</time>
      </trkpt>
      <trkpt lat="41.2764980" lon="1.5491140">
        <ele>133.6</ele>
        <time>2021-05-08T08:36:25Z</time>
      </trkpt>
      <trkpt lat="41.2765120" lon="1.5494530">
        <ele>133.4</ele>
        <time>2021-05-08T08:36:33Z</time>
      </trkpt>
      <trkpt lat="41.2765260" lon="1.5497130">
        <ele>133.4</ele>
        <time>2021-05-08T08:36:39Z</time>
      </trkpt>
      <trkpt lat="41.2765280" lon="1.5499640">
        <ele>132.8</ele>
        <time>2021-05-08T08:36:45Z</time>
      </trkpt>
      <trkpt lat="41.2765310" lon="1.5502510">
        <ele>132.8</ele>
        <time>2021-05-08T08:36:52Z</time>
      </trkpt>
      <trkpt lat="41.2765330" lon="1.5504710">
        <ele>133.0</ele>
        <time>2021-05-08T08:36:58Z</time>
      </trkpt>
      <trkpt lat="41.2765750" lon="1.5507000">
        <ele>133.0</ele>
        <time>2021-05-08T08:37:04Z</time>
      </trkpt>
      <trkpt lat="41.2766830" lon="1.5509790">
        <ele>132.8</ele>
        <time>2021-05-08T08:37:11Z</time>
      </trkpt>
      <trkpt lat="41.2767180" lon="1.5510640">
        <ele>132.6</ele>
        <time>2021-05-08T08:37:13Z</time>
      </trkpt>
      <trkpt lat="41.2768190" lon="1.5513190">
        <ele>132.6</ele>
        <time>2021-05-08T08:37:19Z</time>
      </trkpt>
      <trkpt lat="41.2769260" lon="1.5516050">
        <ele>132.6</ele>
        <time>2021-05-08T08:37:26Z</time>
      </trkpt>
      <trkpt lat="41.2770680" lon="1.5518320">
        <ele>132.4</ele>
        <time>2021-05-08T08:37:33Z</time>
      </trkpt>
      <trkpt lat="41.2772480" lon="1.5518830">
        <ele>132.0</ele>
        <time>2021-05-08T08:37:39Z</time>
      </trkpt>
      <trkpt lat="41.2774580" lon="1.5519330">
        <ele>132.4</ele>
        <time>2021-05-08T08:37:46Z</time>
      </trkpt>
      <trkpt lat="41.2776790" lon="1.5519840">
        <ele>132.8</ele>
        <time>2021-05-08T08:37:53Z</time>
      </trkpt>
      <trkpt lat="41.2778410" lon="1.5520320">
        <ele>133.0</ele>
        <time>2021-05-08T08:37:58Z</time>
      </trkpt>
      <trkpt lat="41.2778730" lon="1.5520410">
        <ele>133.0</ele>
        <time>2021-05-08T08:37:59Z</time>
      </trkpt>
      <trkpt lat="41.2780260" lon="1.5520810">
        <ele>133.4</ele>
        <time>2021-05-08T08:38:04Z</time>
      </trkpt>
      <trkpt lat="41.2782250" lon="1.5521270">
        <ele>133.8</ele>
        <time>2021-05-08T08:38:11Z</time>
      </trkpt>
      <trkpt lat="41.2783390" lon="1.5521460">
        <ele>134.2</ele>
        <time>2021-05-08T08:38:16Z</time>
      </trkpt>
      <trkpt lat="41.2784580" lon="1.5522450">
        <ele>134.2</ele>
        <time>2021-05-08T08:38:20Z</time>
      </trkpt>
      <trkpt lat="41.2784750" lon="1.5522840">
        <ele>134.2</ele>
        <time>2021-05-08T08:38:21Z</time>
      </trkpt>
      <trkpt lat="41.2784890" lon="1.5524110">
        <ele>134.2</ele>
        <time>2021-05-08T08:38:24Z</time>
      </trkpt>
      <trkpt lat="41.2784860" lon="1.5524540">
        <ele>134.2</ele>
        <time>2021-05-08T08:38:25Z</time>
      </trkpt>
      <trkpt lat="41.2784380" lon="1.5527330">
        <ele>133.8</ele>
        <time>2021-05-08T08:38:32Z</time>
      </trkpt>
      <trkpt lat="41.2784020" lon="1.5528720">
        <ele>133.8</ele>
        <time>2021-05-08T08:38:38Z</time>
      </trkpt>
      <trkpt lat="41.2783850" lon="1.5529070">
        <ele>133.6</ele>
        <time>2021-05-08T08:38:42Z</time>
      </trkpt>
      <trkpt lat="41.2783580" lon="1.5529020">
        <ele>133.6</ele>
        <time>2021-05-08T08:38:53Z</time>
      </trkpt>
      <trkpt lat="41.2783530" lon="1.5528930">
        <ele>133.6</ele>
        <time>2021-05-08T08:38:54Z</time>
      </trkpt>
      <trkpt lat="41.2783400" lon="1.5528910">
        <ele>133.4</ele>
        <time>2021-05-08T08:38:57Z</time>
      </trkpt>
      <trkpt lat="41.2783410" lon="1.5528870">
        <ele>133.4</ele>
        <time>2021-05-08T08:38:58Z</time>
      </trkpt>
      <trkpt lat="41.2783410" lon="1.5528810">
        <ele>133.4</ele>
        <time>2021-05-08T08:39:00Z</time>
      </trkpt>
      <trkpt lat="41.2784050" lon="1.5528810">
        <ele>134.0</ele>
        <time>2021-05-08T08:43:36Z</time>
      </trkpt>
      <trkpt lat="41.2784220" lon="1.5528870">
        <ele>134.0</ele>
        <time>2021-05-08T08:43:37Z</time>
      </trkpt>
      <trkpt lat="41.2785400" lon="1.5529290">
        <ele>134.4</ele>
        <time>2021-05-08T08:43:44Z</time>
      </trkpt>
      <trkpt lat="41.2786520" lon="1.5529640">
        <ele>134.4</ele>
        <time>2021-05-08T08:43:50Z</time>
      </trkpt>
      <trkpt lat="41.2787270" lon="1.5529720">
        <ele>134.4</ele>
        <time>2021-05-08T08:43:54Z</time>
      </trkpt>
      <trkpt lat="41.2787590" lon="1.5529760">
        <ele>134.4</ele>
        <time>2021-05-08T08:43:56Z</time>
      </trkpt>
      <trkpt lat="41.2787830" lon="1.5529790">
        <ele>134.4</ele>
        <time>2021-05-08T08:43:58Z</time>
      </trkpt>
      <trkpt lat="41.2788290" lon="1.5529830">
        <ele>134.6</ele>
        <time>2021-05-08T08:44:01Z</time>
      </trkpt>
      <trkpt lat="41.2788630" lon="1.5529670">
        <ele>134.8</ele>
        <time>2021-05-08T08:44:03Z</time>
      </trkpt>
      <trkpt lat="41.2789230" lon="1.5529610">
        <ele>134.8</ele>
        <time>2021-05-08T08:44:06Z</time>
      </trkpt>
      <trkpt lat="41.2789680" lon="1.5529730">
        <ele>134.8</ele>
        <time>2021-05-08T08:44:08Z</time>
      </trkpt>
      <trkpt lat="41.2791590" lon="1.5530250">
        <ele>135.0</ele>
        <time>2021-05-08T08:44:16Z</time>
      </trkpt>
      <trkpt lat="41.2793250" lon="1.5530440">
        <ele>135.2</ele>
        <time>2021-05-08T08:44:23Z</time>
      </trkpt>
      <trkpt lat="41.2794750" lon="1.5530550">
        <ele>135.6</ele>
        <time>2021-05-08T08:44:29Z</time>
      </trkpt>
      <trkpt lat="41.2795230" lon="1.5530580">
        <ele>135.8</ele>
        <time>2021-05-08T08:44:31Z</time>
      </trkpt>
      <trkpt lat="41.2797130" lon="1.5530360">
        <ele>136.6</ele>
        <time>2021-05-08T08:44:39Z</time>
      </trkpt>
      <trkpt lat="41.2797540" lon="1.5530110">
        <ele>136.6</ele>
        <time>2021-05-08T08:44:41Z</time>
      </trkpt>
      <trkpt lat="41.2798240" lon="1.5529340">
        <ele>136.8</ele>
        <time>2021-05-08T08:44:45Z</time>
      </trkpt>
      <trkpt lat="41.2799220" lon="1.5528580">
        <ele>137.8</ele>
        <time>2021-05-08T08:44:50Z</time>
      </trkpt>
      <trkpt lat="41.2799630" lon="1.5528320">
        <ele>139.0</ele>
        <time>2021-05-08T08:44:53Z</time>
      </trkpt>
      <trkpt lat="41.2799710" lon="1.5528320">
        <ele>139.4</ele>
        <time>2021-05-08T08:44:55Z</time>
      </trkpt>
      <trkpt lat="41.2800000" lon="1.5529080">
        <ele>140.0</ele>
        <time>2021-05-08T08:45:43Z</time>
      </trkpt>
      <trkpt lat="41.2799910" lon="1.5529640">
        <ele>140.2</ele>
        <time>2021-05-08T08:45:45Z</time>
      </trkpt>
      <trkpt lat="41.2799500" lon="1.5531030">
        <ele>140.2</ele>
        <time>2021-05-08T08:45:51Z</time>
      </trkpt>
      <trkpt lat="41.2799420" lon="1.5531120">
        <ele>140.0</ele>
        <time>2021-05-08T08:45:54Z</time>
      </trkpt>
      <trkpt lat="41.2799260" lon="1.5531440">
        <ele>140.0</ele>
        <time>2021-05-08T08:46:01Z</time>
      </trkpt>
      <trkpt lat="41.2799150" lon="1.5531620">
        <ele>140.0</ele>
        <time>2021-05-08T08:46:02Z</time>
      </trkpt>
      <trkpt lat="41.2798550" lon="1.5533450">
        <ele>139.8</ele>
        <time>2021-05-08T08:46:07Z</time>
      </trkpt>
      <trkpt lat="41.2798780" lon="1.5534760">
        <ele>139.6</ele>
        <time>2021-05-08T08:46:10Z</time>
      </trkpt>
      <trkpt lat="41.2799000" lon="1.5535130">
        <ele>139.6</ele>
        <time>2021-05-08T08:46:11Z</time>
      </trkpt>
      <trkpt lat="41.2799940" lon="1.5537700">
        <ele>139.8</ele>
        <time>2021-05-08T08:46:17Z</time>
      </trkpt>
      <trkpt lat="41.2800200" lon="1.5539970">
        <ele>139.8</ele>
        <time>2021-05-08T08:46:21Z</time>
      </trkpt>
      <trkpt lat="41.2800410" lon="1.5542280">
        <ele>139.4</ele>
        <time>2021-05-08T08:46:25Z</time>
      </trkpt>
      <trkpt lat="41.2800580" lon="1.5544670">
        <ele>139.2</ele>
        <time>2021-05-08T08:46:29Z</time>
      </trkpt>
      <trkpt lat="41.2800750" lon="1.5546530">
        <ele>139.0</ele>
        <time>2021-05-08T08:46:32Z</time>
      </trkpt>
      <trkpt lat="41.2801100" lon="1.5550080">
        <ele>138.8</ele>
        <time>2021-05-08T08:46:38Z</time>
      </trkpt>
      <trkpt lat="41.2801560" lon="1.5554790">
        <ele>138.8</ele>
        <time>2021-05-08T08:46:46Z</time>
      </trkpt>
      <trkpt lat="41.2801990" lon="1.5559750">
        <ele>138.8</ele>
        <time>2021-05-08T08:46:55Z</time>
      </trkpt>
      <trkpt lat="41.2802440" lon="1.5564760">
        <ele>138.8</ele>
        <time>2021-05-08T08:47:03Z</time>
      </trkpt>
      <trkpt lat="41.2802830" lon="1.5569880">
        <ele>138.6</ele>
        <time>2021-05-08T08:47:11Z</time>
      </trkpt>
      <trkpt lat="41.2802960" lon="1.5571930">
        <ele>138.2</ele>
        <time>2021-05-08T08:47:14Z</time>
      </trkpt>
      <trkpt lat="41.2803170" lon="1.5575460">
        <ele>138.0</ele>
        <time>2021-05-08T08:47:19Z</time>
      </trkpt>
      <trkpt lat="41.2803150" lon="1.5579830">
        <ele>137.2</ele>
        <time>2021-05-08T08:47:25Z</time>
      </trkpt>
      <trkpt lat="41.2803110" lon="1.5580530">
        <ele>137.0</ele>
        <time>2021-05-08T08:47:26Z</time>
      </trkpt>
      <trkpt lat="41.2802660" lon="1.5585100">
        <ele>136.6</ele>
        <time>2021-05-08T08:47:33Z</time>
      </trkpt>
      <trkpt lat="41.2802560" lon="1.5585690">
        <ele>136.6</ele>
        <time>2021-05-08T08:47:34Z</time>
      </trkpt>
      <trkpt lat="41.2802030" lon="1.5588140">
        <ele>136.4</ele>
        <time>2021-05-08T08:47:38Z</time>
      </trkpt>
      <trkpt lat="41.2800670" lon="1.5593010">
        <ele>136.2</ele>
        <time>2021-05-08T08:47:46Z</time>
      </trkpt>
      <trkpt lat="41.2800230" lon="1.5594210">
        <ele>135.8</ele>
        <time>2021-05-08T08:47:48Z</time>
      </trkpt>
      <trkpt lat="41.2797980" lon="1.5599410">
        <ele>135.4</ele>
        <time>2021-05-08T08:47:57Z</time>
      </trkpt>
      <trkpt lat="41.2796280" lon="1.5602990">
        <ele>134.8</ele>
        <time>2021-05-08T08:48:03Z</time>
      </trkpt>
      <trkpt lat="41.2795580" lon="1.5604400">
        <ele>134.4</ele>
        <time>2021-05-08T08:48:05Z</time>
      </trkpt>
      <trkpt lat="41.2793480" lon="1.5609250">
        <ele>134.0</ele>
        <time>2021-05-08T08:48:12Z</time>
      </trkpt>
      <trkpt lat="41.2792750" lon="1.5611570">
        <ele>134.2</ele>
        <time>2021-05-08T08:48:16Z</time>
      </trkpt>
      <trkpt lat="41.2792500" lon="1.5612680">
        <ele>134.6</ele>
        <time>2021-05-08T08:48:18Z</time>
      </trkpt>
      <trkpt lat="41.2791950" lon="1.5616870">
        <ele>135.4</ele>
        <time>2021-05-08T08:48:26Z</time>
      </trkpt>
      <trkpt lat="41.2791760" lon="1.5618940">
        <ele>135.8</ele>
        <time>2021-05-08T08:48:30Z</time>
      </trkpt>
      <trkpt lat="41.2791550" lon="1.5621300">
        <ele>136.4</ele>
        <time>2021-05-08T08:48:35Z</time>
      </trkpt>
      <trkpt lat="41.2790820" lon="1.5624470">
        <ele>137.0</ele>
        <time>2021-05-08T08:48:43Z</time>
      </trkpt>
      <trkpt lat="41.2789360" lon="1.5628160">
        <ele>137.8</ele>
        <time>2021-05-08T08:48:53Z</time>
      </trkpt>
      <trkpt lat="41.2789000" lon="1.5628790">
        <ele>138.0</ele>
        <time>2021-05-08T08:48:55Z</time>
      </trkpt>
      <trkpt lat="41.2787560" lon="1.5630810">
        <ele>138.4</ele>
        <time>2021-05-08T08:49:02Z</time>
      </trkpt>
      <trkpt lat="41.2785810" lon="1.5632670">
        <ele>139.2</ele>
        <time>2021-05-08T08:49:09Z</time>
      </trkpt>
      <trkpt lat="41.2784660" lon="1.5633850">
        <ele>139.6</ele>
        <time>2021-05-08T08:49:13Z</time>
      </trkpt>
      <trkpt lat="41.2781560" lon="1.5636960">
        <ele>139.0</ele>
        <time>2021-05-08T08:49:23Z</time>
      </trkpt>
      <trkpt lat="41.2779630" lon="1.5639360">
        <ele>138.0</ele>
        <time>2021-05-08T08:49:29Z</time>
      </trkpt>
      <trkpt lat="41.2779370" lon="1.5639900">
        <ele>138.0</ele>
        <time>2021-05-08T08:49:30Z</time>
      </trkpt>
      <trkpt lat="41.2778630" lon="1.5642540">
        <ele>137.0</ele>
        <time>2021-05-08T08:49:34Z</time>
      </trkpt>
      <trkpt lat="41.2778530" lon="1.5643270">
        <ele>136.6</ele>
        <time>2021-05-08T08:49:35Z</time>
      </trkpt>
      <trkpt lat="41.2778440" lon="1.5644800">
        <ele>135.8</ele>
        <time>2021-05-08T08:49:37Z</time>
      </trkpt>
      <trkpt lat="41.2778450" lon="1.5646450">
        <ele>135.0</ele>
        <time>2021-05-08T08:49:39Z</time>
      </trkpt>
      <trkpt lat="41.2778490" lon="1.5647300">
        <ele>134.4</ele>
        <time>2021-05-08T08:49:40Z</time>
      </trkpt>
      <trkpt lat="41.2778590" lon="1.5649810">
        <ele>133.2</ele>
        <time>2021-05-08T08:49:43Z</time>
      </trkpt>
      <trkpt lat="41.2778670" lon="1.5652050">
        <ele>132.6</ele>
        <time>2021-05-08T08:49:46Z</time>
      </trkpt>
      <trkpt lat="41.2778800" lon="1.5654160">
        <ele>132.2</ele>
        <time>2021-05-08T08:49:49Z</time>
      </trkpt>
      <trkpt lat="41.2778970" lon="1.5657590">
        <ele>132.0</ele>
        <time>2021-05-08T08:49:54Z</time>
      </trkpt>
      <trkpt lat="41.2779500" lon="1.5662670">
        <ele>132.0</ele>
        <time>2021-05-08T08:50:02Z</time>
      </trkpt>
      <trkpt lat="41.2780260" lon="1.5666570">
        <ele>131.8</ele>
        <time>2021-05-08T08:50:09Z</time>
      </trkpt>
      <trkpt lat="41.2780500" lon="1.5667700">
        <ele>131.8</ele>
        <time>2021-05-08T08:50:11Z</time>
      </trkpt>
      <trkpt lat="41.2780730" lon="1.5669360">
        <ele>131.8</ele>
        <time>2021-05-08T08:50:14Z</time>
      </trkpt>
      <trkpt lat="41.2780750" lon="1.5670550">
        <ele>131.8</ele>
        <time>2021-05-08T08:50:16Z</time>
      </trkpt>
      <trkpt lat="41.2780500" lon="1.5672360">
        <ele>131.8</ele>
        <time>2021-05-08T08:50:19Z</time>
      </trkpt>
      <trkpt lat="41.2779870" lon="1.5674070">
        <ele>131.6</ele>
        <time>2021-05-08T08:50:22Z</time>
      </trkpt>
      <trkpt lat="41.2779090" lon="1.5675740">
        <ele>131.4</ele>
        <time>2021-05-08T08:50:25Z</time>
      </trkpt>
      <trkpt lat="41.2778820" lon="1.5676280">
        <ele>131.2</ele>
        <time>2021-05-08T08:50:26Z</time>
      </trkpt>
      <trkpt lat="41.2777070" lon="1.5679180">
        <ele>130.6</ele>
        <time>2021-05-08T08:50:32Z</time>
      </trkpt>
      <trkpt lat="41.2776100" lon="1.5681080">
        <ele>130.6</ele>
        <time>2021-05-08T08:50:36Z</time>
      </trkpt>
      <trkpt lat="41.2775580" lon="1.5682360">
        <ele>130.8</ele>
        <time>2021-05-08T08:50:39Z</time>
      </trkpt>
      <trkpt lat="41.2774440" lon="1.5684640">
        <ele>131.2</ele>
        <time>2021-05-08T08:50:45Z</time>
      </trkpt>
      <trkpt lat="41.2773100" lon="1.5687890">
        <ele>132.4</ele>
        <time>2021-05-08T08:50:52Z</time>
      </trkpt>
      <trkpt lat="41.2772840" lon="1.5688800">
        <ele>132.6</ele>
        <time>2021-05-08T08:50:54Z</time>
      </trkpt>
      <trkpt lat="41.2772360" lon="1.5691540">
        <ele>133.6</ele>
        <time>2021-05-08T08:51:00Z</time>
      </trkpt>
      <trkpt lat="41.2772300" lon="1.5692430">
        <ele>133.8</ele>
        <time>2021-05-08T08:51:02Z</time>
      </trkpt>
      <trkpt lat="41.2772100" lon="1.5696470">
        <ele>134.2</ele>
        <time>2021-05-08T08:51:10Z</time>
      </trkpt>
      <trkpt lat="41.2771950" lon="1.5701080">
        <ele>134.4</ele>
        <time>2021-05-08T08:51:19Z</time>
      </trkpt>
      <trkpt lat="41.2771710" lon="1.5706090">
        <ele>134.6</ele>
        <time>2021-05-08T08:51:29Z</time>
      </trkpt>
      <trkpt lat="41.2771660" lon="1.5706580">
        <ele>134.8</ele>
        <time>2021-05-08T08:51:30Z</time>
      </trkpt>
      <trkpt lat="41.2770770" lon="1.5710620">
        <ele>135.0</ele>
        <time>2021-05-08T08:51:38Z</time>
      </trkpt>
      <trkpt lat="41.2769430" lon="1.5713660">
        <ele>134.8</ele>
        <time>2021-05-08T08:51:44Z</time>
      </trkpt>
      <trkpt lat="41.2769120" lon="1.5714150">
        <ele>134.6</ele>
        <time>2021-05-08T08:51:45Z</time>
      </trkpt>
      <trkpt lat="41.2765620" lon="1.5718970">
        <ele>134.2</ele>
        <time>2021-05-08T08:51:56Z</time>
      </trkpt>
      <trkpt lat="41.2763810" lon="1.5721900">
        <ele>133.6</ele>
        <time>2021-05-08T08:52:02Z</time>
      </trkpt>
      <trkpt lat="41.2763310" lon="1.5722910">
        <ele>133.6</ele>
        <time>2021-05-08T08:52:04Z</time>
      </trkpt>
      <trkpt lat="41.2761580" lon="1.5727250">
        <ele>133.0</ele>
        <time>2021-05-08T08:52:12Z</time>
      </trkpt>
      <trkpt lat="41.2759930" lon="1.5731910">
        <ele>132.6</ele>
        <time>2021-05-08T08:52:20Z</time>
      </trkpt>
      <trkpt lat="41.2758010" lon="1.5736870">
        <ele>131.8</ele>
        <time>2021-05-08T08:52:29Z</time>
      </trkpt>
      <trkpt lat="41.2757760" lon="1.5737400">
        <ele>131.6</ele>
        <time>2021-05-08T08:52:30Z</time>
      </trkpt>
      <trkpt lat="41.2755990" lon="1.5740410">
        <ele>131.6</ele>
        <time>2021-05-08T08:52:36Z</time>
      </trkpt>
      <trkpt lat="41.2755670" lon="1.5740910">
        <ele>131.6</ele>
        <time>2021-05-08T08:52:37Z</time>
      </trkpt>
      <trkpt lat="41.2753250" lon="1.5744630">
        <ele>131.0</ele>
        <time>2021-05-08T08:52:45Z</time>
      </trkpt>
      <trkpt lat="41.2750000" lon="1.5748760">
        <ele>131.0</ele>
        <time>2021-05-08T08:52:55Z</time>
      </trkpt>
      <trkpt lat="41.2747180" lon="1.5751140">
        <ele>131.4</ele>
        <time>2021-05-08T08:53:03Z</time>
      </trkpt>
      <trkpt lat="41.2744630" lon="1.5753240">
        <ele>131.8</ele>
        <time>2021-05-08T08:53:11Z</time>
      </trkpt>
      <trkpt lat="41.2742550" lon="1.5755560">
        <ele>132.4</ele>
        <time>2021-05-08T08:53:18Z</time>
      </trkpt>
      <trkpt lat="41.2741850" lon="1.5756660">
        <ele>132.6</ele>
        <time>2021-05-08T08:53:21Z</time>
      </trkpt>
      <trkpt lat="41.2740890" lon="1.5758460">
        <ele>132.8</ele>
        <time>2021-05-08T08:53:26Z</time>
      </trkpt>
      <trkpt lat="41.2739470" lon="1.5762100">
        <ele>133.4</ele>
        <time>2021-05-08T08:53:35Z</time>
      </trkpt>
      <trkpt lat="41.2739370" lon="1.5762510">
        <ele>133.6</ele>
        <time>2021-05-08T08:53:36Z</time>
      </trkpt>
      <trkpt lat="41.2738930" lon="1.5764470">
        <ele>134.6</ele>
        <time>2021-05-08T08:53:41Z</time>
      </trkpt>
      <trkpt lat="41.2738770" lon="1.5765280">
        <ele>134.8</ele>
        <time>2021-05-08T08:53:43Z</time>
      </trkpt>
      <trkpt lat="41.2738310" lon="1.5767800">
        <ele>135.8</ele>
        <time>2021-05-08T08:53:49Z</time>
      </trkpt>
      <trkpt lat="41.2737820" lon="1.5771160">
        <ele>136.6</ele>
        <time>2021-05-08T08:53:57Z</time>
      </trkpt>
      <trkpt lat="41.2737760" lon="1.5771610">
        <ele>136.8</ele>
        <time>2021-05-08T08:53:58Z</time>
      </trkpt>
      <trkpt lat="41.2737200" lon="1.5774120">
        <ele>137.6</ele>
        <time>2021-05-08T08:54:04Z</time>
      </trkpt>
      <trkpt lat="41.2737110" lon="1.5774550">
        <ele>137.8</ele>
        <time>2021-05-08T08:54:05Z</time>
      </trkpt>
      <trkpt lat="41.2736530" lon="1.5776920">
        <ele>138.4</ele>
        <time>2021-05-08T08:54:11Z</time>
      </trkpt>
      <trkpt lat="41.2736080" lon="1.5778420">
        <ele>138.8</ele>
        <time>2021-05-08T08:54:15Z</time>
      </trkpt>
      <trkpt lat="41.2735440" lon="1.5780420">
        <ele>139.4</ele>
        <time>2021-05-08T08:54:20Z</time>
      </trkpt>
      <trkpt lat="41.2734760" lon="1.5782490">
        <ele>140.2</ele>
        <time>2021-05-08T08:54:25Z</time>
      </trkpt>
      <trkpt lat="41.2734220" lon="1.5784100">
        <ele>140.4</ele>
        <time>2021-05-08T08:54:29Z</time>
      </trkpt>
      <trkpt lat="41.2733540" lon="1.5786170">
        <ele>141.2</ele>
        <time>2021-05-08T08:54:34Z</time>
      </trkpt>
      <trkpt lat="41.2732850" lon="1.5788190">
        <ele>141.8</ele>
        <time>2021-05-08T08:54:39Z</time>
      </trkpt>
      <trkpt lat="41.2732310" lon="1.5789760">
        <ele>142.2</ele>
        <time>2021-05-08T08:54:43Z</time>
      </trkpt>
      <trkpt lat="41.2731670" lon="1.5791710">
        <ele>143.2</ele>
        <time>2021-05-08T08:54:48Z</time>
      </trkpt>
      <trkpt lat="41.2730760" lon="1.5794350">
        <ele>144.4</ele>
        <time>2021-05-08T08:54:55Z</time>
      </trkpt>
      <trkpt lat="41.2730480" lon="1.5795060">
        <ele>144.8</ele>
        <time>2021-05-08T08:54:57Z</time>
      </trkpt>
      <trkpt lat="41.2730110" lon="1.5796090">
        <ele>145.4</ele>
        <time>2021-05-08T08:55:00Z</time>
      </trkpt>
      <trkpt lat="41.2729400" lon="1.5798250">
        <ele>146.4</ele>
        <time>2021-05-08T08:55:06Z</time>
      </trkpt>
      <trkpt lat="41.2729260" lon="1.5798670">
        <ele>146.6</ele>
        <time>2021-05-08T08:55:07Z</time>
      </trkpt>
      <trkpt lat="41.2728280" lon="1.5801850">
        <ele>147.4</ele>
        <time>2021-05-08T08:55:14Z</time>
      </trkpt>
      <trkpt lat="41.2728000" lon="1.5802840">
        <ele>147.6</ele>
        <time>2021-05-08T08:55:16Z</time>
      </trkpt>
      <trkpt lat="41.2727460" lon="1.5805510">
        <ele>147.6</ele>
        <time>2021-05-08T08:55:21Z</time>
      </trkpt>
      <trkpt lat="41.2726980" lon="1.5810130">
        <ele>146.8</ele>
        <time>2021-05-08T08:55:28Z</time>
      </trkpt>
      <trkpt lat="41.2726830" lon="1.5812210">
        <ele>146.4</ele>
        <time>2021-05-08T08:55:31Z</time>
      </trkpt>
      <trkpt lat="41.2726660" lon="1.5815690">
        <ele>145.2</ele>
        <time>2021-05-08T08:55:36Z</time>
      </trkpt>
      <trkpt lat="41.2726620" lon="1.5816400">
        <ele>145.0</ele>
        <time>2021-05-08T08:55:37Z</time>
      </trkpt>
      <trkpt lat="41.2726520" lon="1.5818620">
        <ele>144.2</ele>
        <time>2021-05-08T08:55:40Z</time>
      </trkpt>
      <trkpt lat="41.2726640" lon="1.5821860">
        <ele>143.2</ele>
        <time>2021-05-08T08:55:44Z</time>
      </trkpt>
      <trkpt lat="41.2726690" lon="1.5822760">
        <ele>143.0</ele>
        <time>2021-05-08T08:55:45Z</time>
      </trkpt>
      <trkpt lat="41.2726920" lon="1.5825540">
        <ele>141.8</ele>
        <time>2021-05-08T08:55:48Z</time>
      </trkpt>
      <trkpt lat="41.2727160" lon="1.5827470">
        <ele>141.0</ele>
        <time>2021-05-08T08:55:50Z</time>
      </trkpt>
      <trkpt lat="41.2727250" lon="1.5828460">
        <ele>140.8</ele>
        <time>2021-05-08T08:55:51Z</time>
      </trkpt>
      <trkpt lat="41.2727120" lon="1.5833380">
        <ele>139.6</ele>
        <time>2021-05-08T08:55:56Z</time>
      </trkpt>
      <trkpt lat="41.2726950" lon="1.5834300">
        <ele>139.4</ele>
        <time>2021-05-08T08:55:57Z</time>
      </trkpt>
      <trkpt lat="41.2726100" lon="1.5836810">
        <ele>138.8</ele>
        <time>2021-05-08T08:56:00Z</time>
      </trkpt>
      <trkpt lat="41.2725730" lon="1.5837550">
        <ele>138.6</ele>
        <time>2021-05-08T08:56:01Z</time>
      </trkpt>
      <trkpt lat="41.2725330" lon="1.5838250">
        <ele>138.4</ele>
        <time>2021-05-08T08:56:02Z</time>
      </trkpt>
      <trkpt lat="41.2724040" lon="1.5840070">
        <ele>138.0</ele>
        <time>2021-05-08T08:56:05Z</time>
      </trkpt>
      <trkpt lat="41.2720940" lon="1.5843110">
        <ele>137.8</ele>
        <time>2021-05-08T08:56:12Z</time>
      </trkpt>
      <trkpt lat="41.2717830" lon="1.5846070">
        <ele>138.0</ele>
        <time>2021-05-08T08:56:19Z</time>
      </trkpt>
      <trkpt lat="41.2716990" lon="1.5846870">
        <ele>137.6</ele>
        <time>2021-05-08T08:56:21Z</time>
      </trkpt>
      <trkpt lat="41.2715130" lon="1.5849060">
        <ele>137.0</ele>
        <time>2021-05-08T08:56:26Z</time>
      </trkpt>
      <trkpt lat="41.2713630" lon="1.5851600">
        <ele>137.0</ele>
        <time>2021-05-08T08:56:31Z</time>
      </trkpt>
      <trkpt lat="41.2713130" lon="1.5852690">
        <ele>136.8</ele>
        <time>2021-05-08T08:56:33Z</time>
      </trkpt>
      <trkpt lat="41.2712140" lon="1.5855520">
        <ele>136.6</ele>
        <time>2021-05-08T08:56:38Z</time>
      </trkpt>
      <trkpt lat="41.2711540" lon="1.5857240">
        <ele>136.4</ele>
        <time>2021-05-08T08:56:41Z</time>
      </trkpt>
      <trkpt lat="41.2709040" lon="1.5863180">
        <ele>135.6</ele>
        <time>2021-05-08T08:56:52Z</time>
      </trkpt>
      <trkpt lat="41.2707810" lon="1.5865220">
        <ele>135.6</ele>
        <time>2021-05-08T08:56:56Z</time>
      </trkpt>
      <trkpt lat="41.2705870" lon="1.5868080">
        <ele>135.2</ele>
        <time>2021-05-08T08:57:02Z</time>
      </trkpt>
      <trkpt lat="41.2704230" lon="1.5870300">
        <ele>134.4</ele>
        <time>2021-05-08T08:57:07Z</time>
      </trkpt>
      <trkpt lat="41.2702700" lon="1.5872620">
        <ele>134.0</ele>
        <time>2021-05-08T08:57:12Z</time>
      </trkpt>
      <trkpt lat="41.2700610" lon="1.5876710">
        <ele>133.4</ele>
        <time>2021-05-08T08:57:20Z</time>
      </trkpt>
      <trkpt lat="41.2700380" lon="1.5877260">
        <ele>133.2</ele>
        <time>2021-05-08T08:57:21Z</time>
      </trkpt>
      <trkpt lat="41.2698360" lon="1.5882250">
        <ele>133.2</ele>
        <time>2021-05-08T08:57:30Z</time>
      </trkpt>
      <trkpt lat="41.2696480" lon="1.5886930">
        <ele>132.4</ele>
        <time>2021-05-08T08:57:39Z</time>
      </trkpt>
      <trkpt lat="41.2695830" lon="1.5888490">
        <ele>131.8</ele>
        <time>2021-05-08T08:57:42Z</time>
      </trkpt>
      <trkpt lat="41.2695180" lon="1.5890000">
        <ele>131.2</ele>
        <time>2021-05-08T08:57:45Z</time>
      </trkpt>
      <trkpt lat="41.2693910" lon="1.5892740">
        <ele>131.2</ele>
        <time>2021-05-08T08:57:51Z</time>
      </trkpt>
      <trkpt lat="41.2692560" lon="1.5895620">
        <ele>130.2</ele>
        <time>2021-05-08T08:57:57Z</time>
      </trkpt>
      <trkpt lat="41.2692310" lon="1.5896170">
        <ele>130.2</ele>
        <time>2021-05-08T08:57:58Z</time>
      </trkpt>
      <trkpt lat="41.2690230" lon="1.5900920">
        <ele>129.6</ele>
        <time>2021-05-08T08:58:07Z</time>
      </trkpt>
      <trkpt lat="41.2688110" lon="1.5905700">
        <ele>129.2</ele>
        <time>2021-05-08T08:58:16Z</time>
      </trkpt>
      <trkpt lat="41.2686320" lon="1.5909580">
        <ele>129.4</ele>
        <time>2021-05-08T08:58:24Z</time>
      </trkpt>
      <trkpt lat="41.2684900" lon="1.5912360">
        <ele>130.8</ele>
        <time>2021-05-08T08:58:32Z</time>
      </trkpt>
      <trkpt lat="41.2684610" lon="1.5912910">
        <ele>131.2</ele>
        <time>2021-05-08T08:58:34Z</time>
      </trkpt>
      <trkpt lat="41.2684140" lon="1.5914240">
        <ele>132.4</ele>
        <time>2021-05-08T08:58:38Z</time>
      </trkpt>
      <trkpt lat="41.2684110" lon="1.5914620">
        <ele>132.6</ele>
        <time>2021-05-08T08:58:39Z</time>
      </trkpt>
      <trkpt lat="41.2684540" lon="1.5916150">
        <ele>133.2</ele>
        <time>2021-05-08T08:58:44Z</time>
      </trkpt>
      <trkpt lat="41.2685890" lon="1.5918020">
        <ele>133.0</ele>
        <time>2021-05-08T08:58:51Z</time>
      </trkpt>
      <trkpt lat="41.2687770" lon="1.5920320">
        <ele>131.6</ele>
        <time>2021-05-08T08:58:57Z</time>
      </trkpt>
      <trkpt lat="41.2688690" lon="1.5921230">
        <ele>131.4</ele>
        <time>2021-05-08T08:58:59Z</time>
      </trkpt>
      <trkpt lat="41.2690170" lon="1.5922640">
        <ele>130.2</ele>
        <time>2021-05-08T08:59:02Z</time>
      </trkpt>
      <trkpt lat="41.2691080" lon="1.5923490">
        <ele>129.8</ele>
        <time>2021-05-08T08:59:04Z</time>
      </trkpt>
      <trkpt lat="41.2691840" lon="1.5924270">
        <ele>129.2</ele>
        <time>2021-05-08T08:59:06Z</time>
      </trkpt>
      <trkpt lat="41.2693320" lon="1.5925850">
        <ele>129.2</ele>
        <time>2021-05-08T08:59:10Z</time>
      </trkpt>
      <trkpt lat="41.2695910" lon="1.5928780">
        <ele>129.4</ele>
        <time>2021-05-08T08:59:18Z</time>
      </trkpt>
      <trkpt lat="41.2698150" lon="1.5931280">
        <ele>129.8</ele>
        <time>2021-05-08T08:59:26Z</time>
      </trkpt>
      <trkpt lat="41.2699660" lon="1.5933060">
        <ele>129.8</ele>
        <time>2021-05-08T08:59:32Z</time>
      </trkpt>
      <trkpt lat="41.2701080" lon="1.5934980">
        <ele>130.2</ele>
        <time>2021-05-08T08:59:39Z</time>
      </trkpt>
      <trkpt lat="41.2701260" lon="1.5935260">
        <ele>130.6</ele>
        <time>2021-05-08T08:59:40Z</time>
      </trkpt>
      <trkpt lat="41.2702790" lon="1.5937800">
        <ele>130.6</ele>
        <time>2021-05-08T08:59:48Z</time>
      </trkpt>
      <trkpt lat="41.2703850" lon="1.5939850">
        <ele>130.8</ele>
        <time>2021-05-08T08:59:54Z</time>
      </trkpt>
      <trkpt lat="41.2705180" lon="1.5941990">
        <ele>131.0</ele>
        <time>2021-05-08T09:00:01Z</time>
      </trkpt>
      <trkpt lat="41.2705810" lon="1.5942930">
        <ele>131.4</ele>
        <time>2021-05-08T09:00:04Z</time>
      </trkpt>
      <trkpt lat="41.2706610" lon="1.5944090">
        <ele>131.4</ele>
        <time>2021-05-08T09:00:08Z</time>
      </trkpt>
      <trkpt lat="41.2709590" lon="1.5947840">
        <ele>132.4</ele>
        <time>2021-05-08T09:00:21Z</time>
      </trkpt>
      <trkpt lat="41.2710960" lon="1.5949160">
        <ele>132.6</ele>
        <time>2021-05-08T09:00:26Z</time>
      </trkpt>
      <trkpt lat="41.2711700" lon="1.5950050">
        <ele>132.8</ele>
        <time>2021-05-08T09:00:29Z</time>
      </trkpt>
      <trkpt lat="41.2713660" lon="1.5952500">
        <ele>132.8</ele>
        <time>2021-05-08T09:00:37Z</time>
      </trkpt>
      <trkpt lat="41.2715520" lon="1.5955770">
        <ele>133.6</ele>
        <time>2021-05-08T09:00:46Z</time>
      </trkpt>
      <trkpt lat="41.2715840" lon="1.5956530">
        <ele>133.6</ele>
        <time>2021-05-08T09:00:48Z</time>
      </trkpt>
      <trkpt lat="41.2716600" lon="1.5959300">
        <ele>133.6</ele>
        <time>2021-05-08T09:00:55Z</time>
      </trkpt>
      <trkpt lat="41.2717520" lon="1.5962050">
        <ele>133.8</ele>
        <time>2021-05-08T09:01:02Z</time>
      </trkpt>
      <trkpt lat="41.2719080" lon="1.5964450">
        <ele>134.2</ele>
        <time>2021-05-08T09:01:10Z</time>
      </trkpt>
      <trkpt lat="41.2720920" lon="1.5966990">
        <ele>134.6</ele>
        <time>2021-05-08T09:01:19Z</time>
      </trkpt>
      <trkpt lat="41.2721110" lon="1.5967280">
        <ele>134.6</ele>
        <time>2021-05-08T09:01:20Z</time>
      </trkpt>
      <trkpt lat="41.2722910" lon="1.5969660">
        <ele>135.6</ele>
        <time>2021-05-08T09:01:29Z</time>
      </trkpt>
      <trkpt lat="41.2723310" lon="1.5970150">
        <ele>135.8</ele>
        <time>2021-05-08T09:01:31Z</time>
      </trkpt>
      <trkpt lat="41.2725080" lon="1.5972230">
        <ele>136.6</ele>
        <time>2021-05-08T09:01:40Z</time>
      </trkpt>
      <trkpt lat="41.2726350" lon="1.5973470">
        <ele>136.8</ele>
        <time>2021-05-08T09:01:46Z</time>
      </trkpt>
      <trkpt lat="41.2727030" lon="1.5973890">
        <ele>137.0</ele>
        <time>2021-05-08T09:01:49Z</time>
      </trkpt>
      <trkpt lat="41.2727630" lon="1.5973710">
        <ele>137.2</ele>
        <time>2021-05-08T09:01:52Z</time>
      </trkpt>
      <trkpt lat="41.2727770" lon="1.5973480">
        <ele>137.2</ele>
        <time>2021-05-08T09:01:53Z</time>
      </trkpt>
      <trkpt lat="41.2728790" lon="1.5971140">
        <ele>137.0</ele>
        <time>2021-05-08T09:02:00Z</time>
      </trkpt>
      <trkpt lat="41.2730090" lon="1.5968350">
        <ele>136.4</ele>
        <time>2021-05-08T09:02:07Z</time>
      </trkpt>
      <trkpt lat="41.2731260" lon="1.5965630">
        <ele>136.0</ele>
        <time>2021-05-08T09:02:14Z</time>
      </trkpt>
      <trkpt lat="41.2731820" lon="1.5963190">
        <ele>136.4</ele>
        <time>2021-05-08T09:02:20Z</time>
      </trkpt>
      <trkpt lat="41.2731940" lon="1.5959990">
        <ele>137.0</ele>
        <time>2021-05-08T09:02:28Z</time>
      </trkpt>
      <trkpt lat="41.2732760" lon="1.5958650">
        <ele>137.0</ele>
        <time>2021-05-08T09:02:33Z</time>
      </trkpt>
      <trkpt lat="41.2733930" lon="1.5958630">
        <ele>136.6</ele>
        <time>2021-05-08T09:02:39Z</time>
      </trkpt>
      <trkpt lat="41.2734580" lon="1.5959370">
        <ele>136.8</ele>
        <time>2021-05-08T09:02:45Z</time>
      </trkpt>
      <trkpt lat="41.2735390" lon="1.5960270">
        <ele>137.0</ele>
        <time>2021-05-08T09:02:50Z</time>
      </trkpt>
      <trkpt lat="41.2737310" lon="1.5961780">
        <ele>137.0</ele>
        <time>2021-05-08T09:02:57Z</time>
      </trkpt>
      <trkpt lat="41.2737470" lon="1.5963180">
        <ele>137.0</ele>
        <time>2021-05-08T09:03:00Z</time>
      </trkpt>
      <trkpt lat="41.2736660" lon="1.5964440">
        <ele>137.0</ele>
        <time>2021-05-08T09:03:04Z</time>
      </trkpt>
      <trkpt lat="41.2734680" lon="1.5965370">
        <ele>137.0</ele>
        <time>2021-05-08T09:03:11Z</time>
      </trkpt>
      <trkpt lat="41.2733240" lon="1.5966970">
        <ele>137.0</ele>
        <time>2021-05-08T09:03:17Z</time>
      </trkpt>
      <trkpt lat="41.2731840" lon="1.5969670">
        <ele>137.6</ele>
        <time>2021-05-08T09:03:25Z</time>
      </trkpt>
      <trkpt lat="41.2730700" lon="1.5971680">
        <ele>137.6</ele>
        <time>2021-05-08T09:03:32Z</time>
      </trkpt>
      <trkpt lat="41.2730480" lon="1.5972540">
        <ele>137.4</ele>
        <time>2021-05-08T09:03:38Z</time>
      </trkpt>
      <trkpt lat="41.2730770" lon="1.5971870">
        <ele>137.4</ele>
        <time>2021-05-08T09:03:41Z</time>
      </trkpt>
      <trkpt lat="41.2731680" lon="1.5969920">
        <ele>137.4</ele>
        <time>2021-05-08T09:03:47Z</time>
      </trkpt>
      <trkpt lat="41.2732000" lon="1.5969370">
        <ele>137.4</ele>
        <time>2021-05-08T09:03:49Z</time>
      </trkpt>
      <trkpt lat="41.2732380" lon="1.5969300">
        <ele>137.4</ele>
        <time>2021-05-08T09:03:51Z</time>
      </trkpt>
      <trkpt lat="41.2732810" lon="1.5969710">
        <ele>137.4</ele>
        <time>2021-05-08T09:03:54Z</time>
      </trkpt>
      <trkpt lat="41.2733340" lon="1.5970340">
        <ele>137.4</ele>
        <time>2021-05-08T09:03:57Z</time>
      </trkpt>
      <trkpt lat="41.2735120" lon="1.5971840">
        <ele>138.0</ele>
        <time>2021-05-08T09:04:05Z</time>
      </trkpt>
      <trkpt lat="41.2735610" lon="1.5972240">
        <ele>138.0</ele>
        <time>2021-05-08T09:04:07Z</time>
      </trkpt>
      <trkpt lat="41.2736840" lon="1.5973240">
        <ele>138.0</ele>
        <time>2021-05-08T09:04:12Z</time>
      </trkpt>
      <trkpt lat="41.2738320" lon="1.5974390">
        <ele>138.2</ele>
        <time>2021-05-08T09:04:18Z</time>
      </trkpt>
      <trkpt lat="41.2739540" lon="1.5976440">
        <ele>136.2</ele>
        <time>2021-05-08T09:04:25Z</time>
      </trkpt>
      <trkpt lat="41.2740130" lon="1.5979160">
        <ele>138.6</ele>
        <time>2021-05-08T09:04:32Z</time>
      </trkpt>
      <trkpt lat="41.2740530" lon="1.5981760">
        <ele>138.2</ele>
        <time>2021-05-08T09:04:38Z</time>
      </trkpt>
      <trkpt lat="41.2740710" lon="1.5983030">
        <ele>139.0</ele>
        <time>2021-05-08T09:04:41Z</time>
      </trkpt>
      <trkpt lat="41.2740980" lon="1.5984990">
        <ele>139.0</ele>
        <time>2021-05-08T09:04:46Z</time>
      </trkpt>
      <trkpt lat="41.2740920" lon="1.5986680">
        <ele>139.0</ele>
        <time>2021-05-08T09:04:51Z</time>
      </trkpt>
      <trkpt lat="41.2739940" lon="1.5988130">
        <ele>139.0</ele>
        <time>2021-05-08T09:04:56Z</time>
      </trkpt>
      <trkpt lat="41.2738610" lon="1.5989960">
        <ele>139.0</ele>
        <time>2021-05-08T09:05:02Z</time>
      </trkpt>
      <trkpt lat="41.2738450" lon="1.5990720">
        <ele>138.8</ele>
        <time>2021-05-08T09:05:05Z</time>
      </trkpt>
      <trkpt lat="41.2738580" lon="1.5991140">
        <ele>139.0</ele>
        <time>2021-05-08T09:05:09Z</time>
      </trkpt>
      <trkpt lat="41.2738720" lon="1.5991320">
        <ele>139.0</ele>
        <time>2021-05-08T09:05:10Z</time>
      </trkpt>
      <trkpt lat="41.2739670" lon="1.5992830">
        <ele>139.2</ele>
        <time>2021-05-08T09:05:15Z</time>
      </trkpt>
      <trkpt lat="41.2739870" lon="1.5993160">
        <ele>139.0</ele>
        <time>2021-05-08T09:05:16Z</time>
      </trkpt>
      <trkpt lat="41.2740850" lon="1.5994590">
        <ele>139.4</ele>
        <time>2021-05-08T09:05:20Z</time>
      </trkpt>
      <trkpt lat="41.2742000" lon="1.5996230">
        <ele>139.2</ele>
        <time>2021-05-08T09:05:25Z</time>
      </trkpt>
      <trkpt lat="41.2743260" lon="1.5997630">
        <ele>139.4</ele>
        <time>2021-05-08T09:05:30Z</time>
      </trkpt>
      <trkpt lat="41.2744550" lon="1.5999230">
        <ele>139.2</ele>
        <time>2021-05-08T09:05:36Z</time>
      </trkpt>
      <trkpt lat="41.2745730" lon="1.6001660">
        <ele>138.8</ele>
        <time>2021-05-08T09:05:43Z</time>
      </trkpt>
      <trkpt lat="41.2747380" lon="1.6004930">
        <ele>139.8</ele>
        <time>2021-05-08T09:05:53Z</time>
      </trkpt>
      <trkpt lat="41.2748760" lon="1.6007570">
        <ele>140.4</ele>
        <time>2021-05-08T09:06:02Z</time>
      </trkpt>
      <trkpt lat="41.2749090" lon="1.6008120">
        <ele>141.0</ele>
        <time>2021-05-08T09:06:04Z</time>
      </trkpt>
      <trkpt lat="41.2749540" lon="1.6008950">
        <ele>141.4</ele>
        <time>2021-05-08T09:06:07Z</time>
      </trkpt>
      <trkpt lat="41.2750310" lon="1.6010320">
        <ele>141.4</ele>
        <time>2021-05-08T09:06:12Z</time>
      </trkpt>
      <trkpt lat="41.2751750" lon="1.6012820">
        <ele>141.8</ele>
        <time>2021-05-08T09:06:21Z</time>
      </trkpt>
      <trkpt lat="41.2752730" lon="1.6015190">
        <ele>141.8</ele>
        <time>2021-05-08T09:06:28Z</time>
      </trkpt>
      <trkpt lat="41.2754010" lon="1.6017960">
        <ele>141.6</ele>
        <time>2021-05-08T09:06:36Z</time>
      </trkpt>
      <trkpt lat="41.2755150" lon="1.6018820">
        <ele>141.6</ele>
        <time>2021-05-08T09:06:41Z</time>
      </trkpt>
      <trkpt lat="41.2756410" lon="1.6020180">
        <ele>142.2</ele>
        <time>2021-05-08T09:06:48Z</time>
      </trkpt>
      <trkpt lat="41.2757360" lon="1.6021230">
        <ele>142.2</ele>
        <time>2021-05-08T09:06:55Z</time>
      </trkpt>
      <trkpt lat="41.2758120" lon="1.6022070">
        <ele>142.8</ele>
        <time>2021-05-08T09:07:00Z</time>
      </trkpt>
      <trkpt lat="41.2758310" lon="1.6022260">
        <ele>143.0</ele>
        <time>2021-05-08T09:07:01Z</time>
      </trkpt>
      <trkpt lat="41.2759700" lon="1.6023670">
        <ele>143.8</ele>
        <time>2021-05-08T09:07:08Z</time>
      </trkpt>
      <trkpt lat="41.2759900" lon="1.6023850">
        <ele>144.2</ele>
        <time>2021-05-08T09:07:09Z</time>
      </trkpt>
      <trkpt lat="41.2761670" lon="1.6024870">
        <ele>144.2</ele>
        <time>2021-05-08T09:07:17Z</time>
      </trkpt>
      <trkpt lat="41.2762120" lon="1.6025000">
        <ele>145.0</ele>
        <time>2021-05-08T09:07:19Z</time>
      </trkpt>
      <trkpt lat="41.2763480" lon="1.6024970">
        <ele>146.0</ele>
        <time>2021-05-08T09:07:25Z</time>
      </trkpt>
      <trkpt lat="41.2764770" lon="1.6024600">
        <ele>147.0</ele>
        <time>2021-05-08T09:07:31Z</time>
      </trkpt>
      <trkpt lat="41.2765210" lon="1.6024650">
        <ele>147.6</ele>
        <time>2021-05-08T09:07:33Z</time>
      </trkpt>
      <trkpt lat="41.2766130" lon="1.6025560">
        <ele>147.8</ele>
        <time>2021-05-08T09:07:38Z</time>
      </trkpt>
      <trkpt lat="41.2766240" lon="1.6025840">
        <ele>148.2</ele>
        <time>2021-05-08T09:07:39Z</time>
      </trkpt>
      <trkpt lat="41.2766230" lon="1.6027350">
        <ele>148.6</ele>
        <time>2021-05-08T09:07:44Z</time>
      </trkpt>
      <trkpt lat="41.2765990" lon="1.6028690">
        <ele>148.6</ele>
        <time>2021-05-08T09:07:49Z</time>
      </trkpt>
      <trkpt lat="41.2767110" lon="1.6030250">
        <ele>148.8</ele>
        <time>2021-05-08T09:07:54Z</time>
      </trkpt>
      <trkpt lat="41.2769640" lon="1.6033390">
        <ele>148.4</ele>
        <time>2021-05-08T09:08:03Z</time>
      </trkpt>
      <trkpt lat="41.2772160" lon="1.6036300">
        <ele>147.8</ele>
        <time>2021-05-08T09:08:10Z</time>
      </trkpt>
      <trkpt lat="41.2772980" lon="1.6037280">
        <ele>147.2</ele>
        <time>2021-05-08T09:08:12Z</time>
      </trkpt>
      <trkpt lat="41.2774810" lon="1.6039500">
        <ele>145.6</ele>
        <time>2021-05-08T09:08:16Z</time>
      </trkpt>
      <trkpt lat="41.2775280" lon="1.6040040">
        <ele>145.2</ele>
        <time>2021-05-08T09:08:17Z</time>
      </trkpt>
      <trkpt lat="41.2776650" lon="1.6041460">
        <ele>144.6</ele>
        <time>2021-05-08T09:08:20Z</time>
      </trkpt>
      <trkpt lat="41.2777680" lon="1.6041990">
        <ele>144.2</ele>
        <time>2021-05-08T09:08:22Z</time>
      </trkpt>
      <trkpt lat="41.2779380" lon="1.6042140">
        <ele>143.4</ele>
        <time>2021-05-08T09:08:25Z</time>
      </trkpt>
      <trkpt lat="41.2780520" lon="1.6042170">
        <ele>143.2</ele>
        <time>2021-05-08T09:08:27Z</time>
      </trkpt>
      <trkpt lat="41.2781060" lon="1.6042240">
        <ele>143.2</ele>
        <time>2021-05-08T09:08:28Z</time>
      </trkpt>
      <trkpt lat="41.2782500" lon="1.6043000">
        <ele>143.2</ele>
        <time>2021-05-08T09:08:31Z</time>
      </trkpt>
      <trkpt lat="41.2782880" lon="1.6043350">
        <ele>143.2</ele>
        <time>2021-05-08T09:08:32Z</time>
      </trkpt>
      <trkpt lat="41.2784540" lon="1.6045070">
        <ele>143.6</ele>
        <time>2021-05-08T09:08:37Z</time>
      </trkpt>
      <trkpt lat="41.2784780" lon="1.6045540">
        <ele>143.4</ele>
        <time>2021-05-08T09:08:38Z</time>
      </trkpt>
      <trkpt lat="41.2785260" lon="1.6046570">
        <ele>143.0</ele>
        <time>2021-05-08T09:08:40Z</time>
      </trkpt>
      <trkpt lat="41.2786240" lon="1.6047900">
        <ele>142.6</ele>
        <time>2021-05-08T09:08:43Z</time>
      </trkpt>
      <trkpt lat="41.2786600" lon="1.6048330">
        <ele>142.4</ele>
        <time>2021-05-08T09:08:44Z</time>
      </trkpt>
      <trkpt lat="41.2788330" lon="1.6050210">
        <ele>142.2</ele>
        <time>2021-05-08T09:08:49Z</time>
      </trkpt>
      <trkpt lat="41.2788430" lon="1.6051860">
        <ele>141.6</ele>
        <time>2021-05-08T09:08:52Z</time>
      </trkpt>
      <trkpt lat="41.2788270" lon="1.6052430">
        <ele>141.4</ele>
        <time>2021-05-08T09:08:53Z</time>
      </trkpt>
      <trkpt lat="41.2787970" lon="1.6054810">
        <ele>140.6</ele>
        <time>2021-05-08T09:08:57Z</time>
      </trkpt>
      <trkpt lat="41.2788670" lon="1.6056600">
        <ele>140.2</ele>
        <time>2021-05-08T09:09:00Z</time>
      </trkpt>
      <trkpt lat="41.2789060" lon="1.6057100">
        <ele>139.6</ele>
        <time>2021-05-08T09:09:01Z</time>
      </trkpt>
      <trkpt lat="41.2791420" lon="1.6060000">
        <ele>139.2</ele>
        <time>2021-05-08T09:09:07Z</time>
      </trkpt>
      <trkpt lat="41.2791780" lon="1.6060490">
        <ele>138.8</ele>
        <time>2021-05-08T09:09:08Z</time>
      </trkpt>
      <trkpt lat="41.2794200" lon="1.6063240">
        <ele>137.6</ele>
        <time>2021-05-08T09:09:14Z</time>
      </trkpt>
      <trkpt lat="41.2795440" lon="1.6064510">
        <ele>136.6</ele>
        <time>2021-05-08T09:09:17Z</time>
      </trkpt>
      <trkpt lat="41.2796960" lon="1.6066250">
        <ele>136.6</ele>
        <time>2021-05-08T09:09:21Z</time>
      </trkpt>
      <trkpt lat="41.2799630" lon="1.6069440">
        <ele>135.4</ele>
        <time>2021-05-08T09:09:28Z</time>
      </trkpt>
      <trkpt lat="41.2800010" lon="1.6069900">
        <ele>135.4</ele>
        <time>2021-05-08T09:09:29Z</time>
      </trkpt>
      <trkpt lat="41.2803330" lon="1.6074010">
        <ele>135.8</ele>
        <time>2021-05-08T09:09:38Z</time>
      </trkpt>
      <trkpt lat="41.2805850" lon="1.6077200">
        <ele>135.0</ele>
        <time>2021-05-08T09:09:45Z</time>
      </trkpt>
      <trkpt lat="41.2807210" lon="1.6078970">
        <ele>134.4</ele>
        <time>2021-05-08T09:09:50Z</time>
      </trkpt>
      <trkpt lat="41.2807650" lon="1.6079550">
        <ele>134.2</ele>
        <time>2021-05-08T09:09:52Z</time>
      </trkpt>
      <trkpt lat="41.2808920" lon="1.6081070">
        <ele>135.8</ele>
        <time>2021-05-08T09:09:58Z</time>
      </trkpt>
      <trkpt lat="41.2810660" lon="1.6082720">
        <ele>134.8</ele>
        <time>2021-05-08T09:10:04Z</time>
      </trkpt>
      <trkpt lat="41.2811260" lon="1.6083310">
        <ele>135.0</ele>
        <time>2021-05-08T09:10:06Z</time>
      </trkpt>
      <trkpt lat="41.2813070" lon="1.6085440">
        <ele>135.8</ele>
        <time>2021-05-08T09:10:13Z</time>
      </trkpt>
      <trkpt lat="41.2813330" lon="1.6085710">
        <ele>136.2</ele>
        <time>2021-05-08T09:10:14Z</time>
      </trkpt>
      <trkpt lat="41.2814520" lon="1.6087380">
        <ele>137.0</ele>
        <time>2021-05-08T09:10:20Z</time>
      </trkpt>
      <trkpt lat="41.2814650" lon="1.6087570">
        <ele>137.4</ele>
        <time>2021-05-08T09:10:22Z</time>
      </trkpt>
      <trkpt lat="41.2814640" lon="1.6087570">
        <ele>137.2</ele>
        <time>2021-05-08T09:10:23Z</time>
      </trkpt>
      <trkpt lat="41.2815020" lon="1.6088180">
        <ele>137.0</ele>
        <time>2021-05-08T09:10:54Z</time>
      </trkpt>
      <trkpt lat="41.2815720" lon="1.6089640">
        <ele>137.2</ele>
        <time>2021-05-08T09:10:59Z</time>
      </trkpt>
      <trkpt lat="41.2816620" lon="1.6091180">
        <ele>138.4</ele>
        <time>2021-05-08T09:11:04Z</time>
      </trkpt>
      <trkpt lat="41.2816970" lon="1.6091690">
        <ele>138.4</ele>
        <time>2021-05-08T09:11:06Z</time>
      </trkpt>
      <trkpt lat="41.2817400" lon="1.6092320">
        <ele>139.4</ele>
        <time>2021-05-08T09:11:09Z</time>
      </trkpt>
      <trkpt lat="41.2817920" lon="1.6093230">
        <ele>140.2</ele>
        <time>2021-05-08T09:11:13Z</time>
      </trkpt>
      <trkpt lat="41.2818630" lon="1.6094250">
        <ele>140.4</ele>
        <time>2021-05-08T09:11:19Z</time>
      </trkpt>
      <trkpt lat="41.2818790" lon="1.6094560">
        <ele>140.6</ele>
        <time>2021-05-08T09:11:22Z</time>
      </trkpt>
      <trkpt lat="41.2818870" lon="1.6094680">
        <ele>140.6</ele>
        <time>2021-05-08T09:11:23Z</time>
      </trkpt>
      <trkpt lat="41.2819020" lon="1.6094790">
        <ele>140.6</ele>
        <time>2021-05-08T09:11:24Z</time>
      </trkpt>
      <trkpt lat="41.2819770" lon="1.6095650">
        <ele>141.0</ele>
        <time>2021-05-08T09:11:29Z</time>
      </trkpt>
      <trkpt lat="41.2820160" lon="1.6096150">
        <ele>141.6</ele>
        <time>2021-05-08T09:11:32Z</time>
      </trkpt>
      <trkpt lat="41.2820300" lon="1.6096360">
        <ele>141.6</ele>
        <time>2021-05-08T09:11:33Z</time>
      </trkpt>
      <trkpt lat="41.2820650" lon="1.6096780">
        <ele>141.8</ele>
        <time>2021-05-08T09:11:35Z</time>
      </trkpt>
      <trkpt lat="41.2822390" lon="1.6098880">
        <ele>141.0</ele>
        <time>2021-05-08T09:11:43Z</time>
      </trkpt>
      <trkpt lat="41.2823600" lon="1.6100320">
        <ele>140.4</ele>
        <time>2021-05-08T09:11:47Z</time>
      </trkpt>
      <trkpt lat="41.2824630" lon="1.6101520">
        <ele>140.2</ele>
        <time>2021-05-08T09:11:50Z</time>
      </trkpt>
      <trkpt lat="41.2826880" lon="1.6104100">
        <ele>139.2</ele>
        <time>2021-05-08T09:11:56Z</time>
      </trkpt>
      <trkpt lat="41.2828030" lon="1.6105440">
        <ele>138.4</ele>
        <time>2021-05-08T09:11:59Z</time>
      </trkpt>
      <trkpt lat="41.2830330" lon="1.6107900">
        <ele>138.2</ele>
        <time>2021-05-08T09:12:05Z</time>
      </trkpt>
      <trkpt lat="41.2831480" lon="1.6109090">
        <ele>137.8</ele>
        <time>2021-05-08T09:12:08Z</time>
      </trkpt>
      <trkpt lat="41.2832930" lon="1.6110680">
        <ele>137.0</ele>
        <time>2021-05-08T09:12:12Z</time>
      </trkpt>
      <trkpt lat="41.2834700" lon="1.6112770">
        <ele>136.2</ele>
        <time>2021-05-08T09:12:17Z</time>
      </trkpt>
      <trkpt lat="41.2835390" lon="1.6113600">
        <ele>135.8</ele>
        <time>2021-05-08T09:12:19Z</time>
      </trkpt>
      <trkpt lat="41.2837760" lon="1.6116210">
        <ele>136.0</ele>
        <time>2021-05-08T09:12:26Z</time>
      </trkpt>
      <trkpt lat="41.2840360" lon="1.6119050">
        <ele>135.8</ele>
        <time>2021-05-08T09:12:34Z</time>
      </trkpt>
      <trkpt lat="41.2842370" lon="1.6121220">
        <ele>136.0</ele>
        <time>2021-05-08T09:12:41Z</time>
      </trkpt>
      <trkpt lat="41.2843620" lon="1.6122180">
        <ele>136.8</ele>
        <time>2021-05-08T09:12:46Z</time>
      </trkpt>
      <trkpt lat="41.2844770" lon="1.6122040">
        <ele>136.2</ele>
        <time>2021-05-08T09:12:50Z</time>
      </trkpt>
      <trkpt lat="41.2845680" lon="1.6121430">
        <ele>135.8</ele>
        <time>2021-05-08T09:12:54Z</time>
      </trkpt>
      <trkpt lat="41.2845880" lon="1.6121370">
        <ele>135.6</ele>
        <time>2021-05-08T09:12:55Z</time>
      </trkpt>
      <trkpt lat="41.2846340" lon="1.6121180">
        <ele>134.8</ele>
        <time>2021-05-08T09:12:58Z</time>
      </trkpt>
      <trkpt lat="41.2846450" lon="1.6121100">
        <ele>134.6</ele>
        <time>2021-05-08T09:13:00Z</time>
      </trkpt>
      <trkpt lat="41.2846490" lon="1.6121090">
        <ele>134.6</ele>
        <time>2021-05-08T09:13:01Z</time>
      </trkpt>
      <trkpt lat="41.2846990" lon="1.6120870">
        <ele>134.6</ele>
        <time>2021-05-08T09:15:19Z</time>
      </trkpt>
      <trkpt lat="41.2847460" lon="1.6120540">
        <ele>134.6</ele>
        <time>2021-05-08T09:15:21Z</time>
      </trkpt>
      <trkpt lat="41.2848020" lon="1.6119700">
        <ele>133.6</ele>
        <time>2021-05-08T09:15:24Z</time>
      </trkpt>
      <trkpt lat="41.2848140" lon="1.6119440">
        <ele>133.2</ele>
        <time>2021-05-08T09:15:25Z</time>
      </trkpt>
      <trkpt lat="41.2848800" lon="1.6118610">
        <ele>132.8</ele>
        <time>2021-05-08T09:15:30Z</time>
      </trkpt>
      <trkpt lat="41.2848980" lon="1.6118400">
        <ele>132.4</ele>
        <time>2021-05-08T09:15:31Z</time>
      </trkpt>
      <trkpt lat="41.2849750" lon="1.6117590">
        <ele>131.4</ele>
        <time>2021-05-08T09:15:34Z</time>
      </trkpt>
      <trkpt lat="41.2850060" lon="1.6117400">
        <ele>131.4</ele>
        <time>2021-05-08T09:15:35Z</time>
      </trkpt>
      <trkpt lat="41.2850640" lon="1.6116960">
        <ele>130.8</ele>
        <time>2021-05-08T09:15:37Z</time>
      </trkpt>
      <trkpt lat="41.2851170" lon="1.6116400">
        <ele>130.2</ele>
        <time>2021-05-08T09:15:39Z</time>
      </trkpt>
      <trkpt lat="41.2851670" lon="1.6115800">
        <ele>129.2</ele>
        <time>2021-05-08T09:15:41Z</time>
      </trkpt>
      <trkpt lat="41.2851850" lon="1.6115550">
        <ele>129.0</ele>
        <time>2021-05-08T09:15:42Z</time>
      </trkpt>
      <trkpt lat="41.2851980" lon="1.6115400">
        <ele>128.6</ele>
        <time>2021-05-08T09:15:43Z</time>
      </trkpt>
      <trkpt lat="41.2852600" lon="1.6114910">
        <ele>127.8</ele>
        <time>2021-05-08T09:15:46Z</time>
      </trkpt>
      <trkpt lat="41.2852720" lon="1.6114820">
        <ele>127.6</ele>
        <time>2021-05-08T09:15:47Z</time>
      </trkpt>
      <trkpt lat="41.2852810" lon="1.6114850">
        <ele>127.4</ele>
        <time>2021-05-08T09:15:48Z</time>
      </trkpt>
      <trkpt lat="41.2852900" lon="1.6115330">
        <ele>127.4</ele>
        <time>2021-05-08T09:15:51Z</time>
      </trkpt>
      <trkpt lat="41.2852880" lon="1.6115540">
        <ele>127.2</ele>
        <time>2021-05-08T09:15:52Z</time>
      </trkpt>
      <trkpt lat="41.2852830" lon="1.6116020">
        <ele>126.8</ele>
        <time>2021-05-08T09:15:54Z</time>
      </trkpt>
      <trkpt lat="41.2852740" lon="1.6117120">
        <ele>125.8</ele>
        <time>2021-05-08T09:15:58Z</time>
      </trkpt>
      <trkpt lat="41.2852770" lon="1.6117580">
        <ele>125.8</ele>
        <time>2021-05-08T09:16:00Z</time>
      </trkpt>
      <trkpt lat="41.2853090" lon="1.6118350">
        <ele>126.2</ele>
        <time>2021-05-08T09:16:03Z</time>
      </trkpt>
      <trkpt lat="41.2853620" lon="1.6119480">
        <ele>126.4</ele>
        <time>2021-05-08T09:16:08Z</time>
      </trkpt>
      <trkpt lat="41.2853410" lon="1.6120370">
        <ele>126.4</ele>
        <time>2021-05-08T09:16:13Z</time>
      </trkpt>
      <trkpt lat="41.2853610" lon="1.6120990">
        <ele>126.8</ele>
        <time>2021-05-08T09:16:16Z</time>
      </trkpt>
      <trkpt lat="41.2853720" lon="1.6121110">
        <ele>127.0</ele>
        <time>2021-05-08T09:16:17Z</time>
      </trkpt>
      <trkpt lat="41.2853940" lon="1.6121290">
        <ele>127.4</ele>
        <time>2021-05-08T09:16:19Z</time>
      </trkpt>
      <trkpt lat="41.2854130" lon="1.6121380">
        <ele>127.8</ele>
        <time>2021-05-08T09:16:22Z</time>
      </trkpt>
      <trkpt lat="41.2854140" lon="1.6121380">
        <ele>128.0</ele>
        <time>2021-05-08T09:16:24Z</time>
      </trkpt>
      <trkpt lat="41.2854430" lon="1.6122260">
        <ele>128.2</ele>
        <time>2021-05-08T09:17:59Z</time>
      </trkpt>
      <trkpt lat="41.2854640" lon="1.6122430">
        <ele>128.4</ele>
        <time>2021-05-08T09:18:01Z</time>
      </trkpt>
      <trkpt lat="41.2854970" lon="1.6122920">
        <ele>129.8</ele>
        <time>2021-05-08T09:18:05Z</time>
      </trkpt>
      <trkpt lat="41.2855090" lon="1.6123030">
        <ele>130.0</ele>
        <time>2021-05-08T09:18:06Z</time>
      </trkpt>
      <trkpt lat="41.2855190" lon="1.6123160">
        <ele>130.4</ele>
        <time>2021-05-08T09:18:07Z</time>
      </trkpt>
      <trkpt lat="41.2855280" lon="1.6123300">
        <ele>130.8</ele>
        <time>2021-05-08T09:18:08Z</time>
      </trkpt>
      <trkpt lat="41.2855670" lon="1.6123780">
        <ele>132.0</ele>
        <time>2021-05-08T09:18:12Z</time>
      </trkpt>
      <trkpt lat="41.2856140" lon="1.6124210">
        <ele>133.6</ele>
        <time>2021-05-08T09:18:16Z</time>
      </trkpt>
      <trkpt lat="41.2856360" lon="1.6124470">
        <ele>134.6</ele>
        <time>2021-05-08T09:18:18Z</time>
      </trkpt>
      <trkpt lat="41.2856440" lon="1.6124800">
        <ele>135.0</ele>
        <time>2021-05-08T09:18:20Z</time>
      </trkpt>
      <trkpt lat="41.2856670" lon="1.6125230">
        <ele>135.6</ele>
        <time>2021-05-08T09:18:23Z</time>
      </trkpt>
      <trkpt lat="41.2856760" lon="1.6125340">
        <ele>135.8</ele>
        <time>2021-05-08T09:18:24Z</time>
      </trkpt>
      <trkpt lat="41.2856880" lon="1.6125400">
        <ele>136.2</ele>
        <time>2021-05-08T09:18:25Z</time>
      </trkpt>
      <trkpt lat="41.2857420" lon="1.6125600">
        <ele>136.8</ele>
        <time>2021-05-08T09:18:29Z</time>
      </trkpt>
      <trkpt lat="41.2857750" lon="1.6125710">
        <ele>137.2</ele>
        <time>2021-05-08T09:18:31Z</time>
      </trkpt>
      <trkpt lat="41.2857880" lon="1.6125760">
        <ele>137.6</ele>
        <time>2021-05-08T09:18:32Z</time>
      </trkpt>
      <trkpt lat="41.2858270" lon="1.6126020">
        <ele>138.2</ele>
        <time>2021-05-08T09:18:35Z</time>
      </trkpt>
      <trkpt lat="41.2858380" lon="1.6126080">
        <ele>138.4</ele>
        <time>2021-05-08T09:18:36Z</time>
      </trkpt>
      <trkpt lat="41.2858490" lon="1.6126120">
        <ele>138.6</ele>
        <time>2021-05-08T09:18:37Z</time>
      </trkpt>
      <trkpt lat="41.2859080" lon="1.6125820">
        <ele>139.0</ele>
        <time>2021-05-08T09:18:42Z</time>
      </trkpt>
      <trkpt lat="41.2859200" lon="1.6125560">
        <ele>139.4</ele>
        <time>2021-05-08T09:18:44Z</time>
      </trkpt>
      <trkpt lat="41.2859110" lon="1.6125220">
        <ele>139.2</ele>
        <time>2021-05-08T09:18:48Z</time>
      </trkpt>
      <trkpt lat="41.2858990" lon="1.6125140">
        <ele>139.2</ele>
        <time>2021-05-08T09:18:50Z</time>
      </trkpt>
      <trkpt lat="41.2858750" lon="1.6124950">
        <ele>138.8</ele>
        <time>2021-05-08T09:18:53Z</time>
      </trkpt>
      <trkpt lat="41.2858650" lon="1.6125060">
        <ele>138.6</ele>
        <time>2021-05-08T09:18:57Z</time>
      </trkpt>
      <trkpt lat="41.2860030" lon="1.6124930">
        <ele>139.8</ele>
        <time>2021-05-08T09:19:18Z</time>
      </trkpt>
      <trkpt lat="41.2860410" lon="1.6124610">
        <ele>139.8</ele>
        <time>2021-05-08T09:19:21Z</time>
      </trkpt>
      <trkpt lat="41.2860730" lon="1.6124390">
        <ele>140.0</ele>
        <time>2021-05-08T09:19:23Z</time>
      </trkpt>
      <trkpt lat="41.2861400" lon="1.6123980">
        <ele>140.4</ele>
        <time>2021-05-08T09:19:27Z</time>
      </trkpt>
      <trkpt lat="41.2861690" lon="1.6123820">
        <ele>140.6</ele>
        <time>2021-05-08T09:19:29Z</time>
      </trkpt>
      <trkpt lat="41.2862150" lon="1.6123660">
        <ele>140.6</ele>
        <time>2021-05-08T09:19:32Z</time>
      </trkpt>
      <trkpt lat="41.2862790" lon="1.6123220">
        <ele>141.0</ele>
        <time>2021-05-08T09:19:36Z</time>
      </trkpt>
      <trkpt lat="41.2862940" lon="1.6123130">
        <ele>141.0</ele>
        <time>2021-05-08T09:19:37Z</time>
      </trkpt>
      <trkpt lat="41.2863800" lon="1.6122450">
        <ele>141.0</ele>
        <time>2021-05-08T09:19:43Z</time>
      </trkpt>
      <trkpt lat="41.2864990" lon="1.6121240">
        <ele>141.4</ele>
        <time>2021-05-08T09:19:50Z</time>
      </trkpt>
      <trkpt lat="41.2865160" lon="1.6121040">
        <ele>141.6</ele>
        <time>2021-05-08T09:19:51Z</time>
      </trkpt>
      <trkpt lat="41.2865850" lon="1.6120020">
        <ele>141.8</ele>
        <time>2021-05-08T09:19:56Z</time>
      </trkpt>
      <trkpt lat="41.2866330" lon="1.6118720">
        <ele>142.0</ele>
        <time>2021-05-08T09:20:02Z</time>
      </trkpt>
      <trkpt lat="41.2866420" lon="1.6118510">
        <ele>142.0</ele>
        <time>2021-05-08T09:20:03Z</time>
      </trkpt>
      <trkpt lat="41.2866670" lon="1.6117810">
        <ele>142.4</ele>
        <time>2021-05-08T09:20:06Z</time>
      </trkpt>
      <trkpt lat="41.2866880" lon="1.6117290">
        <ele>142.4</ele>
        <time>2021-05-08T09:20:08Z</time>
      </trkpt>
      <trkpt lat="41.2867500" lon="1.6115870">
        <ele>142.4</ele>
        <time>2021-05-08T09:20:13Z</time>
      </trkpt>
      <trkpt lat="41.2868160" lon="1.6114980">
        <ele>142.6</ele>
        <time>2021-05-08T09:20:16Z</time>
      </trkpt>
      <trkpt lat="41.2868900" lon="1.6113770">
        <ele>142.8</ele>
        <time>2021-05-08T09:20:20Z</time>
      </trkpt>
      <trkpt lat="41.2869890" lon="1.6111870">
        <ele>143.0</ele>
        <time>2021-05-08T09:20:26Z</time>
      </trkpt>
      <trkpt lat="41.2870780" lon="1.6110060">
        <ele>143.2</ele>
        <time>2021-05-08T09:20:32Z</time>
      </trkpt>
      <trkpt lat="41.2872440" lon="1.6109080">
        <ele>143.6</ele>
        <time>2021-05-08T09:20:38Z</time>
      </trkpt>
      <trkpt lat="41.2874460" lon="1.6109130">
        <ele>143.2</ele>
        <time>2021-05-08T09:20:45Z</time>
      </trkpt>
      <trkpt lat="41.2876040" lon="1.6110250">
        <ele>144.0</ele>
        <time>2021-05-08T09:20:51Z</time>
      </trkpt>
      <trkpt lat="41.2876540" lon="1.6110670">
        <ele>143.8</ele>
        <time>2021-05-08T09:20:53Z</time>
      </trkpt>
      <trkpt lat="41.2878700" lon="1.6112740">
        <ele>143.4</ele>
        <time>2021-05-08T09:21:01Z</time>
      </trkpt>
      <trkpt lat="41.2880020" lon="1.6114140">
        <ele>143.0</ele>
        <time>2021-05-08T09:21:05Z</time>
      </trkpt>
      <trkpt lat="41.2881990" lon="1.6116190">
        <ele>142.2</ele>
        <time>2021-05-08T09:21:11Z</time>
      </trkpt>
      <trkpt lat="41.2883210" lon="1.6117640">
        <ele>141.6</ele>
        <time>2021-05-08T09:21:15Z</time>
      </trkpt>
      <trkpt lat="41.2883980" lon="1.6118650">
        <ele>141.4</ele>
        <time>2021-05-08T09:21:18Z</time>
      </trkpt>
      <trkpt lat="41.2885970" lon="1.6121020">
        <ele>142.4</ele>
        <time>2021-05-08T09:21:25Z</time>
      </trkpt>
      <trkpt lat="41.2888300" lon="1.6123520">
        <ele>142.0</ele>
        <time>2021-05-08T09:21:33Z</time>
      </trkpt>
      <trkpt lat="41.2890340" lon="1.6125490">
        <ele>143.0</ele>
        <time>2021-05-08T09:21:40Z</time>
      </trkpt>
      <trkpt lat="41.2892860" lon="1.6127620">
        <ele>142.8</ele>
        <time>2021-05-08T09:21:48Z</time>
      </trkpt>
      <trkpt lat="41.2894530" lon="1.6129610">
        <ele>142.4</ele>
        <time>2021-05-08T09:21:54Z</time>
      </trkpt>
      <trkpt lat="41.2894870" lon="1.6131640">
        <ele>142.0</ele>
        <time>2021-05-08T09:21:58Z</time>
      </trkpt>
      <trkpt lat="41.2894840" lon="1.6132210">
        <ele>141.8</ele>
        <time>2021-05-08T09:21:59Z</time>
      </trkpt>
      <trkpt lat="41.2894840" lon="1.6134940">
        <ele>142.2</ele>
        <time>2021-05-08T09:22:04Z</time>
      </trkpt>
      <trkpt lat="41.2894940" lon="1.6135470">
        <ele>142.2</ele>
        <time>2021-05-08T09:22:05Z</time>
      </trkpt>
      <trkpt lat="41.2895760" lon="1.6137010">
        <ele>142.0</ele>
        <time>2021-05-08T09:22:09Z</time>
      </trkpt>
      <trkpt lat="41.2896400" lon="1.6137570">
        <ele>142.0</ele>
        <time>2021-05-08T09:22:11Z</time>
      </trkpt>
      <trkpt lat="41.2898050" lon="1.6138760">
        <ele>141.8</ele>
        <time>2021-05-08T09:22:16Z</time>
      </trkpt>
      <trkpt lat="41.2900490" lon="1.6140490">
        <ele>141.8</ele>
        <time>2021-05-08T09:22:24Z</time>
      </trkpt>
      <trkpt lat="41.2903180" lon="1.6142650">
        <ele>142.4</ele>
        <time>2021-05-08T09:22:33Z</time>
      </trkpt>
      <trkpt lat="41.2904060" lon="1.6143030">
        <ele>142.2</ele>
        <time>2021-05-08T09:22:36Z</time>
      </trkpt>
      <trkpt lat="41.2904340" lon="1.6142890">
        <ele>142.2</ele>
        <time>2021-05-08T09:22:37Z</time>
      </trkpt>
      <trkpt lat="41.2905860" lon="1.6141390">
        <ele>141.8</ele>
        <time>2021-05-08T09:22:43Z</time>
      </trkpt>
      <trkpt lat="41.2907120" lon="1.6140430">
        <ele>142.2</ele>
        <time>2021-05-08T09:22:48Z</time>
      </trkpt>
      <trkpt lat="41.2908920" lon="1.6139720">
        <ele>142.2</ele>
        <time>2021-05-08T09:22:54Z</time>
      </trkpt>
      <trkpt lat="41.2910510" lon="1.6138740">
        <ele>142.0</ele>
        <time>2021-05-08T09:23:00Z</time>
      </trkpt>
      <trkpt lat="41.2911750" lon="1.6137720">
        <ele>142.2</ele>
        <time>2021-05-08T09:23:05Z</time>
      </trkpt>
      <trkpt lat="41.2912170" lon="1.6137610">
        <ele>142.2</ele>
        <time>2021-05-08T09:23:07Z</time>
      </trkpt>
      <trkpt lat="41.2912780" lon="1.6137740">
        <ele>142.4</ele>
        <time>2021-05-08T09:23:09Z</time>
      </trkpt>
      <trkpt lat="41.2913320" lon="1.6138150">
        <ele>142.2</ele>
        <time>2021-05-08T09:23:11Z</time>
      </trkpt>
      <trkpt lat="41.2914030" lon="1.6138980">
        <ele>141.8</ele>
        <time>2021-05-08T09:23:14Z</time>
      </trkpt>
      <trkpt lat="41.2914270" lon="1.6139550">
        <ele>141.8</ele>
        <time>2021-05-08T09:23:16Z</time>
      </trkpt>
      <trkpt lat="41.2914170" lon="1.6140100">
        <ele>141.8</ele>
        <time>2021-05-08T09:23:18Z</time>
      </trkpt>
      <trkpt lat="41.2913300" lon="1.6141550">
        <ele>141.2</ele>
        <time>2021-05-08T09:23:25Z</time>
      </trkpt>
      <trkpt lat="41.2911900" lon="1.6143760">
        <ele>141.0</ele>
        <time>2021-05-08T09:23:32Z</time>
      </trkpt>
      <trkpt lat="41.2911640" lon="1.6145080">
        <ele>141.0</ele>
        <time>2021-05-08T09:23:35Z</time>
      </trkpt>
      <trkpt lat="41.2911740" lon="1.6145540">
        <ele>141.0</ele>
        <time>2021-05-08T09:23:36Z</time>
      </trkpt>
      <trkpt lat="41.2912180" lon="1.6147020">
        <ele>140.8</ele>
        <time>2021-05-08T09:23:39Z</time>
      </trkpt>
      <trkpt lat="41.2912660" lon="1.6148610">
        <ele>140.6</ele>
        <time>2021-05-08T09:23:42Z</time>
      </trkpt>
      <trkpt lat="41.2912790" lon="1.6149170">
        <ele>140.4</ele>
        <time>2021-05-08T09:23:43Z</time>
      </trkpt>
      <trkpt lat="41.2913620" lon="1.6151990">
        <ele>139.8</ele>
        <time>2021-05-08T09:23:48Z</time>
      </trkpt>
      <trkpt lat="41.2913750" lon="1.6152570">
        <ele>139.8</ele>
        <time>2021-05-08T09:23:49Z</time>
      </trkpt>
      <trkpt lat="41.2913920" lon="1.6153760">
        <ele>139.8</ele>
        <time>2021-05-08T09:23:51Z</time>
      </trkpt>
      <trkpt lat="41.2913820" lon="1.6154920">
        <ele>139.8</ele>
        <time>2021-05-08T09:23:53Z</time>
      </trkpt>
      <trkpt lat="41.2913370" lon="1.6156470">
        <ele>139.4</ele>
        <time>2021-05-08T09:23:56Z</time>
      </trkpt>
      <trkpt lat="41.2913000" lon="1.6157680">
        <ele>139.2</ele>
        <time>2021-05-08T09:23:58Z</time>
      </trkpt>
      <trkpt lat="41.2911740" lon="1.6160710">
        <ele>139.2</ele>
        <time>2021-05-08T09:24:04Z</time>
      </trkpt>
      <trkpt lat="41.2910480" lon="1.6163630">
        <ele>139.2</ele>
        <time>2021-05-08T09:24:10Z</time>
      </trkpt>
      <trkpt lat="41.2909040" lon="1.6166680">
        <ele>139.4</ele>
        <time>2021-05-08T09:24:17Z</time>
      </trkpt>
      <trkpt lat="41.2907770" lon="1.6169330">
        <ele>138.8</ele>
        <time>2021-05-08T09:24:23Z</time>
      </trkpt>
      <trkpt lat="41.2906720" lon="1.6171620">
        <ele>138.8</ele>
        <time>2021-05-08T09:24:28Z</time>
      </trkpt>
      <trkpt lat="41.2906510" lon="1.6172110">
        <ele>138.6</ele>
        <time>2021-05-08T09:24:29Z</time>
      </trkpt>
      <trkpt lat="41.2906310" lon="1.6172630">
        <ele>138.4</ele>
        <time>2021-05-08T09:24:30Z</time>
      </trkpt>
      <trkpt lat="41.2905510" lon="1.6174540">
        <ele>138.8</ele>
        <time>2021-05-08T09:24:34Z</time>
      </trkpt>
      <trkpt lat="41.2904030" lon="1.6177800">
        <ele>138.6</ele>
        <time>2021-05-08T09:24:41Z</time>
      </trkpt>
      <trkpt lat="41.2902680" lon="1.6180710">
        <ele>138.2</ele>
        <time>2021-05-08T09:24:47Z</time>
      </trkpt>
      <trkpt lat="41.2901330" lon="1.6183850">
        <ele>137.8</ele>
        <time>2021-05-08T09:24:54Z</time>
      </trkpt>
      <trkpt lat="41.2900510" lon="1.6186760">
        <ele>138.0</ele>
        <time>2021-05-08T09:25:01Z</time>
      </trkpt>
      <trkpt lat="41.2901020" lon="1.6188700">
        <ele>137.8</ele>
        <time>2021-05-08T09:25:05Z</time>
      </trkpt>
      <trkpt lat="41.2901160" lon="1.6189270">
        <ele>137.4</ele>
        <time>2021-05-08T09:25:06Z</time>
      </trkpt>
      <trkpt lat="41.2901680" lon="1.6191850">
        <ele>137.2</ele>
        <time>2021-05-08T09:25:11Z</time>
      </trkpt>
      <trkpt lat="41.2902350" lon="1.6192950">
        <ele>136.6</ele>
        <time>2021-05-08T09:25:14Z</time>
      </trkpt>
      <trkpt lat="41.2902810" lon="1.6193560">
        <ele>136.6</ele>
        <time>2021-05-08T09:25:16Z</time>
      </trkpt>
      <trkpt lat="41.2904320" lon="1.6195470">
        <ele>137.0</ele>
        <time>2021-05-08T09:25:23Z</time>
      </trkpt>
      <trkpt lat="41.2905950" lon="1.6197630">
        <ele>136.8</ele>
        <time>2021-05-08T09:25:31Z</time>
      </trkpt>
      <trkpt lat="41.2907020" lon="1.6198920">
        <ele>137.6</ele>
        <time>2021-05-08T09:25:36Z</time>
      </trkpt>
      <trkpt lat="41.2908170" lon="1.6200330">
        <ele>137.2</ele>
        <time>2021-05-08T09:25:41Z</time>
      </trkpt>
      <trkpt lat="41.2908740" lon="1.6201290">
        <ele>137.8</ele>
        <time>2021-05-08T09:25:45Z</time>
      </trkpt>
      <trkpt lat="41.2909010" lon="1.6201710">
        <ele>138.4</ele>
        <time>2021-05-08T09:25:47Z</time>
      </trkpt>
      <trkpt lat="41.2909420" lon="1.6202330">
        <ele>138.8</ele>
        <time>2021-05-08T09:25:50Z</time>
      </trkpt>
      <trkpt lat="41.2909960" lon="1.6203240">
        <ele>139.6</ele>
        <time>2021-05-08T09:25:54Z</time>
      </trkpt>
      <trkpt lat="41.2910520" lon="1.6204030">
        <ele>140.0</ele>
        <time>2021-05-08T09:25:58Z</time>
      </trkpt>
      <trkpt lat="41.2910930" lon="1.6204570">
        <ele>140.6</ele>
        <time>2021-05-08T09:26:01Z</time>
      </trkpt>
      <trkpt lat="41.2911250" lon="1.6205180">
        <ele>141.0</ele>
        <time>2021-05-08T09:26:04Z</time>
      </trkpt>
      <trkpt lat="41.2911650" lon="1.6205890">
        <ele>141.6</ele>
        <time>2021-05-08T09:26:08Z</time>
      </trkpt>
      <trkpt lat="41.2912090" lon="1.6206560">
        <ele>142.0</ele>
        <time>2021-05-08T09:26:12Z</time>
      </trkpt>
      <trkpt lat="41.2912420" lon="1.6207090">
        <ele>142.2</ele>
        <time>2021-05-08T09:26:15Z</time>
      </trkpt>
      <trkpt lat="41.2913340" lon="1.6208480">
        <ele>143.0</ele>
        <time>2021-05-08T09:26:23Z</time>
      </trkpt>
      <trkpt lat="41.2913470" lon="1.6208660">
        <ele>143.2</ele>
        <time>2021-05-08T09:26:24Z</time>
      </trkpt>
      <trkpt lat="41.2914340" lon="1.6209610">
        <ele>143.4</ele>
        <time>2021-05-08T09:26:30Z</time>
      </trkpt>
      <trkpt lat="41.2915330" lon="1.6211020">
        <ele>144.0</ele>
        <time>2021-05-08T09:26:37Z</time>
      </trkpt>
      <trkpt lat="41.2915450" lon="1.6211220">
        <ele>144.2</ele>
        <time>2021-05-08T09:26:38Z</time>
      </trkpt>
      <trkpt lat="41.2916180" lon="1.6212260">
        <ele>144.6</ele>
        <time>2021-05-08T09:26:43Z</time>
      </trkpt>
      <trkpt lat="41.2917310" lon="1.6213730">
        <ele>144.4</ele>
        <time>2021-05-08T09:26:50Z</time>
      </trkpt>
      <trkpt lat="41.2918490" lon="1.6215360">
        <ele>144.4</ele>
        <time>2021-05-08T09:26:58Z</time>
      </trkpt>
      <trkpt lat="41.2919510" lon="1.6216710">
        <ele>145.2</ele>
        <time>2021-05-08T09:27:05Z</time>
      </trkpt>
      <trkpt lat="41.2919640" lon="1.6216900">
        <ele>145.2</ele>
        <time>2021-05-08T09:27:06Z</time>
      </trkpt>
      <trkpt lat="41.2920150" lon="1.6217600">
        <ele>145.2</ele>
        <time>2021-05-08T09:27:12Z</time>
      </trkpt>
      <trkpt lat="41.2920560" lon="1.6218190">
        <ele>145.4</ele>
        <time>2021-05-08T09:27:55Z</time>
      </trkpt>
      <trkpt lat="41.2920840" lon="1.6218540">
        <ele>145.4</ele>
        <time>2021-05-08T09:27:58Z</time>
      </trkpt>
      <trkpt lat="41.2921400" lon="1.6219370">
        <ele>145.0</ele>
        <time>2021-05-08T09:28:04Z</time>
      </trkpt>
      <trkpt lat="41.2922220" lon="1.6220450">
        <ele>145.0</ele>
        <time>2021-05-08T09:28:10Z</time>
      </trkpt>
      <trkpt lat="41.2922740" lon="1.6221180">
        <ele>145.6</ele>
        <time>2021-05-08T09:28:15Z</time>
      </trkpt>
      <trkpt lat="41.2922870" lon="1.6221300">
        <ele>145.6</ele>
        <time>2021-05-08T09:28:16Z</time>
      </trkpt>
      <trkpt lat="41.2923720" lon="1.6222510">
        <ele>146.0</ele>
        <time>2021-05-08T09:28:22Z</time>
      </trkpt>
      <trkpt lat="41.2925010" lon="1.6224320">
        <ele>145.0</ele>
        <time>2021-05-08T09:28:29Z</time>
      </trkpt>
      <trkpt lat="41.2926680" lon="1.6226880">
        <ele>144.0</ele>
        <time>2021-05-08T09:28:36Z</time>
      </trkpt>
      <trkpt lat="41.2926950" lon="1.6227310">
        <ele>143.6</ele>
        <time>2021-05-08T09:28:37Z</time>
      </trkpt>
      <trkpt lat="41.2927520" lon="1.6228220">
        <ele>143.0</ele>
        <time>2021-05-08T09:28:39Z</time>
      </trkpt>
      <trkpt lat="41.2928740" lon="1.6230260">
        <ele>142.8</ele>
        <time>2021-05-08T09:28:43Z</time>
      </trkpt>
      <trkpt lat="41.2930950" lon="1.6233800">
        <ele>142.0</ele>
        <time>2021-05-08T09:28:50Z</time>
      </trkpt>
      <trkpt lat="41.2932770" lon="1.6236610">
        <ele>141.2</ele>
        <time>2021-05-08T09:28:57Z</time>
      </trkpt>
      <trkpt lat="41.2933010" lon="1.6236950">
        <ele>141.0</ele>
        <time>2021-05-08T09:28:58Z</time>
      </trkpt>
      <trkpt lat="41.2934030" lon="1.6238420">
        <ele>140.8</ele>
        <time>2021-05-08T09:29:03Z</time>
      </trkpt>
      <trkpt lat="41.2935110" lon="1.6240030">
        <ele>141.4</ele>
        <time>2021-05-08T09:29:09Z</time>
      </trkpt>
      <trkpt lat="41.2936750" lon="1.6242410">
        <ele>141.8</ele>
        <time>2021-05-08T09:29:18Z</time>
      </trkpt>
      <trkpt lat="41.2938160" lon="1.6244410">
        <ele>141.8</ele>
        <time>2021-05-08T09:29:26Z</time>
      </trkpt>
      <trkpt lat="41.2939610" lon="1.6246400">
        <ele>141.6</ele>
        <time>2021-05-08T09:29:34Z</time>
      </trkpt>
      <trkpt lat="41.2941070" lon="1.6248360">
        <ele>141.8</ele>
        <time>2021-05-08T09:29:42Z</time>
      </trkpt>
      <trkpt lat="41.2942340" lon="1.6250190">
        <ele>141.8</ele>
        <time>2021-05-08T09:29:49Z</time>
      </trkpt>
      <trkpt lat="41.2943110" lon="1.6251170">
        <ele>142.2</ele>
        <time>2021-05-08T09:29:53Z</time>
      </trkpt>
      <trkpt lat="41.2943680" lon="1.6251920">
        <ele>142.2</ele>
        <time>2021-05-08T09:29:56Z</time>
      </trkpt>
      <trkpt lat="41.2944860" lon="1.6253690">
        <ele>142.4</ele>
        <time>2021-05-08T09:30:03Z</time>
      </trkpt>
      <trkpt lat="41.2945030" lon="1.6253940">
        <ele>142.6</ele>
        <time>2021-05-08T09:30:04Z</time>
      </trkpt>
      <trkpt lat="41.2946450" lon="1.6255920">
        <ele>142.4</ele>
        <time>2021-05-08T09:30:12Z</time>
      </trkpt>
      <trkpt lat="41.2948030" lon="1.6258280">
        <ele>142.4</ele>
        <time>2021-05-08T09:30:21Z</time>
      </trkpt>
      <trkpt lat="41.2949360" lon="1.6260120">
        <ele>142.0</ele>
        <time>2021-05-08T09:30:29Z</time>
      </trkpt>
      <trkpt lat="41.2950560" lon="1.6261920">
        <ele>142.4</ele>
        <time>2021-05-08T09:30:36Z</time>
      </trkpt>
      <trkpt lat="41.2951980" lon="1.6264000">
        <ele>143.0</ele>
        <time>2021-05-08T09:30:44Z</time>
      </trkpt>
      <trkpt lat="41.2953430" lon="1.6266010">
        <ele>143.2</ele>
        <time>2021-05-08T09:30:51Z</time>
      </trkpt>
      <trkpt lat="41.2954380" lon="1.6267470">
        <ele>143.4</ele>
        <time>2021-05-08T09:30:56Z</time>
      </trkpt>
      <trkpt lat="41.2955770" lon="1.6269720">
        <ele>143.0</ele>
        <time>2021-05-08T09:31:04Z</time>
      </trkpt>
      <trkpt lat="41.2957130" lon="1.6271410">
        <ele>144.4</ele>
        <time>2021-05-08T09:31:11Z</time>
      </trkpt>
      <trkpt lat="41.2957540" lon="1.6271830">
        <ele>144.4</ele>
        <time>2021-05-08T09:31:13Z</time>
      </trkpt>
      <trkpt lat="41.2958690" lon="1.6273230">
        <ele>145.4</ele>
        <time>2021-05-08T09:31:20Z</time>
      </trkpt>
      <trkpt lat="41.2958840" lon="1.6273430">
        <ele>145.4</ele>
        <time>2021-05-08T09:31:21Z</time>
      </trkpt>
      <trkpt lat="41.2959990" lon="1.6275080">
        <ele>146.8</ele>
        <time>2021-05-08T09:31:29Z</time>
      </trkpt>
      <trkpt lat="41.2960470" lon="1.6275710">
        <ele>147.6</ele>
        <time>2021-05-08T09:31:32Z</time>
      </trkpt>
      <trkpt lat="41.2960810" lon="1.6276120">
        <ele>147.8</ele>
        <time>2021-05-08T09:31:34Z</time>
      </trkpt>
      <trkpt lat="41.2962310" lon="1.6278080">
        <ele>148.8</ele>
        <time>2021-05-08T09:31:43Z</time>
      </trkpt>
      <trkpt lat="41.2963780" lon="1.6280120">
        <ele>147.6</ele>
        <time>2021-05-08T09:31:51Z</time>
      </trkpt>
      <trkpt lat="41.2964140" lon="1.6280810">
        <ele>146.6</ele>
        <time>2021-05-08T09:31:55Z</time>
      </trkpt>
      <trkpt lat="41.2964170" lon="1.6280810">
        <ele>146.4</ele>
        <time>2021-05-08T09:31:56Z</time>
      </trkpt>
      <trkpt lat="41.2964170" lon="1.6280810">
        <ele>146.2</ele>
        <time>2021-05-08T09:31:57Z</time>
      </trkpt>
      <trkpt lat="41.2964410" lon="1.6281140">
        <ele>145.4</ele>
        <time>2021-05-08T09:32:20Z</time>
      </trkpt>
      <trkpt lat="41.2964590" lon="1.6281550">
        <ele>145.2</ele>
        <time>2021-05-08T09:32:22Z</time>
      </trkpt>
      <trkpt lat="41.2965290" lon="1.6283110">
        <ele>144.2</ele>
        <time>2021-05-08T09:32:28Z</time>
      </trkpt>
      <trkpt lat="41.2965470" lon="1.6283500">
        <ele>143.6</ele>
        <time>2021-05-08T09:32:29Z</time>
      </trkpt>
      <trkpt lat="41.2965880" lon="1.6284310">
        <ele>143.2</ele>
        <time>2021-05-08T09:32:31Z</time>
      </trkpt>
      <trkpt lat="41.2967440" lon="1.6286970">
        <ele>142.0</ele>
        <time>2021-05-08T09:32:37Z</time>
      </trkpt>
      <trkpt lat="41.2968010" lon="1.6288000">
        <ele>140.8</ele>
        <time>2021-05-08T09:32:39Z</time>
      </trkpt>
      <trkpt lat="41.2968900" lon="1.6289480">
        <ele>139.6</ele>
        <time>2021-05-08T09:32:42Z</time>
      </trkpt>
      <trkpt lat="41.2969260" lon="1.6289930">
        <ele>139.2</ele>
        <time>2021-05-08T09:32:43Z</time>
      </trkpt>
      <trkpt lat="41.2970100" lon="1.6291010">
        <ele>138.6</ele>
        <time>2021-05-08T09:32:45Z</time>
      </trkpt>
      <trkpt lat="41.2970720" lon="1.6292070">
        <ele>138.4</ele>
        <time>2021-05-08T09:32:47Z</time>
      </trkpt>
      <trkpt lat="41.2971400" lon="1.6293620">
        <ele>137.8</ele>
        <time>2021-05-08T09:32:51Z</time>
      </trkpt>
      <trkpt lat="41.2971610" lon="1.6293920">
        <ele>137.2</ele>
        <time>2021-05-08T09:32:52Z</time>
      </trkpt>
      <trkpt lat="41.2972170" lon="1.6294770">
        <ele>136.6</ele>
        <time>2021-05-08T09:32:55Z</time>
      </trkpt>
      <trkpt lat="41.2973200" lon="1.6296330">
        <ele>137.0</ele>
        <time>2021-05-08T09:33:00Z</time>
      </trkpt>
      <trkpt lat="41.2974820" lon="1.6298130">
        <ele>136.4</ele>
        <time>2021-05-08T09:33:07Z</time>
      </trkpt>
      <trkpt lat="41.2976090" lon="1.6299980">
        <ele>137.2</ele>
        <time>2021-05-08T09:33:14Z</time>
      </trkpt>
      <trkpt lat="41.2976250" lon="1.6300180">
        <ele>137.4</ele>
        <time>2021-05-08T09:33:15Z</time>
      </trkpt>
      <trkpt lat="41.2976610" lon="1.6300140">
        <ele>137.2</ele>
        <time>2021-05-08T09:33:17Z</time>
      </trkpt>
      <trkpt lat="41.2976770" lon="1.6299720">
        <ele>137.4</ele>
        <time>2021-05-08T09:33:19Z</time>
      </trkpt>
      <trkpt lat="41.2976800" lon="1.6299330">
        <ele>137.6</ele>
        <time>2021-05-08T09:33:21Z</time>
      </trkpt>
      <trkpt lat="41.2976700" lon="1.6299160">
        <ele>137.6</ele>
        <time>2021-05-08T09:33:22Z</time>
      </trkpt>
      <trkpt lat="41.2975830" lon="1.6298740">
        <ele>137.2</ele>
        <time>2021-05-08T09:33:27Z</time>
      </trkpt>
      <trkpt lat="41.2975650" lon="1.6298590">
        <ele>137.2</ele>
        <time>2021-05-08T09:33:28Z</time>
      </trkpt>
      <trkpt lat="41.2974180" lon="1.6296900">
        <ele>137.2</ele>
        <time>2021-05-08T09:33:36Z</time>
      </trkpt>
      <trkpt lat="41.2973080" lon="1.6295310">
        <ele>136.8</ele>
        <time>2021-05-08T09:33:43Z</time>
      </trkpt>
      <trkpt lat="41.2971860" lon="1.6294000">
        <ele>137.0</ele>
        <time>2021-05-08T09:33:50Z</time>
      </trkpt>
      <trkpt lat="41.2971040" lon="1.6292710">
        <ele>137.0</ele>
        <time>2021-05-08T09:33:56Z</time>
      </trkpt>
      <trkpt lat="41.2971010" lon="1.6292550">
        <ele>137.0</ele>
        <time>2021-05-08T09:33:59Z</time>
      </trkpt>
      <trkpt lat="41.2971490" lon="1.6293760">
        <ele>136.2</ele>
        <time>2021-05-08T09:38:56Z</time>
      </trkpt>
      <trkpt lat="41.2971600" lon="1.6293940">
        <ele>136.2</ele>
        <time>2021-05-08T09:38:57Z</time>
      </trkpt>
      <trkpt lat="41.2971940" lon="1.6294310">
        <ele>136.0</ele>
        <time>2021-05-08T09:39:00Z</time>
      </trkpt>
      <trkpt lat="41.2972030" lon="1.6294550">
        <ele>135.8</ele>
        <time>2021-05-08T09:39:02Z</time>
      </trkpt>
      <trkpt lat="41.2972120" lon="1.6294770">
        <ele>135.6</ele>
        <time>2021-05-08T09:39:05Z</time>
      </trkpt>
      <trkpt lat="41.2973080" lon="1.6295600">
        <ele>136.2</ele>
        <time>2021-05-08T09:44:04Z</time>
      </trkpt>
      <trkpt lat="41.2973160" lon="1.6295740">
        <ele>136.2</ele>
        <time>2021-05-08T09:44:05Z</time>
      </trkpt>
      <trkpt lat="41.2973810" lon="1.6296540">
        <ele>136.4</ele>
        <time>2021-05-08T09:44:11Z</time>
      </trkpt>
      <trkpt lat="41.2974380" lon="1.6297640">
        <ele>136.4</ele>
        <time>2021-05-08T09:44:16Z</time>
      </trkpt>
      <trkpt lat="41.2974480" lon="1.6297810">
        <ele>136.6</ele>
        <time>2021-05-08T09:44:17Z</time>
      </trkpt>
      <trkpt lat="41.2975260" lon="1.6298950">
        <ele>136.8</ele>
        <time>2021-05-08T09:44:23Z</time>
      </trkpt>
      <trkpt lat="41.2976070" lon="1.6299840">
        <ele>136.8</ele>
        <time>2021-05-08T09:44:29Z</time>
      </trkpt>
      <trkpt lat="41.2976510" lon="1.6300240">
        <ele>137.0</ele>
        <time>2021-05-08T09:44:32Z</time>
      </trkpt>
      <trkpt lat="41.2976680" lon="1.6300380">
        <ele>137.0</ele>
        <time>2021-05-08T09:44:33Z</time>
      </trkpt>
      <trkpt lat="41.2977260" lon="1.6301080">
        <ele>137.2</ele>
        <time>2021-05-08T09:44:37Z</time>
      </trkpt>
      <trkpt lat="41.2978450" lon="1.6302470">
        <ele>137.8</ele>
        <time>2021-05-08T09:44:45Z</time>
      </trkpt>
      <trkpt lat="41.2979240" lon="1.6303450">
        <ele>138.0</ele>
        <time>2021-05-08T09:44:51Z</time>
      </trkpt>
      <trkpt lat="41.2979510" lon="1.6303820">
        <ele>138.2</ele>
        <time>2021-05-08T09:44:53Z</time>
      </trkpt>
      <trkpt lat="41.2980280" lon="1.6304810">
        <ele>138.2</ele>
        <time>2021-05-08T09:44:59Z</time>
      </trkpt>
      <trkpt lat="41.2981050" lon="1.6305820">
        <ele>138.6</ele>
        <time>2021-05-08T09:45:05Z</time>
      </trkpt>
      <trkpt lat="41.2982080" lon="1.6307170">
        <ele>139.0</ele>
        <time>2021-05-08T09:45:12Z</time>
      </trkpt>
      <trkpt lat="41.2982530" lon="1.6307720">
        <ele>139.0</ele>
        <time>2021-05-08T09:45:15Z</time>
      </trkpt>
      <trkpt lat="41.2983260" lon="1.6308640">
        <ele>139.6</ele>
        <time>2021-05-08T09:45:20Z</time>
      </trkpt>
      <trkpt lat="41.2984450" lon="1.6310080">
        <ele>140.2</ele>
        <time>2021-05-08T09:45:28Z</time>
      </trkpt>
      <trkpt lat="41.2984590" lon="1.6310260">
        <ele>140.4</ele>
        <time>2021-05-08T09:45:29Z</time>
      </trkpt>
      <trkpt lat="41.2985520" lon="1.6311460">
        <ele>141.2</ele>
        <time>2021-05-08T09:45:36Z</time>
      </trkpt>
      <trkpt lat="41.2985640" lon="1.6311580">
        <ele>141.2</ele>
        <time>2021-05-08T09:45:37Z</time>
      </trkpt>
      <trkpt lat="41.2986000" lon="1.6311850">
        <ele>141.4</ele>
        <time>2021-05-08T09:45:40Z</time>
      </trkpt>
      <trkpt lat="41.2986170" lon="1.6312160">
        <ele>141.6</ele>
        <time>2021-05-08T09:45:42Z</time>
      </trkpt>
      <trkpt lat="41.2986600" lon="1.6312850">
        <ele>141.8</ele>
        <time>2021-05-08T09:45:48Z</time>
      </trkpt>
      <trkpt lat="41.2986890" lon="1.6313170">
        <ele>142.2</ele>
        <time>2021-05-08T09:45:51Z</time>
      </trkpt>
      <trkpt lat="41.2987140" lon="1.6313610">
        <ele>142.2</ele>
        <time>2021-05-08T09:45:54Z</time>
      </trkpt>
      <trkpt lat="41.2987250" lon="1.6313760">
        <ele>142.4</ele>
        <time>2021-05-08T09:45:55Z</time>
      </trkpt>
      <trkpt lat="41.2987850" lon="1.6314590">
        <ele>142.8</ele>
        <time>2021-05-08T09:46:00Z</time>
      </trkpt>
      <trkpt lat="41.2988660" lon="1.6315760">
        <ele>143.4</ele>
        <time>2021-05-08T09:46:07Z</time>
      </trkpt>
      <trkpt lat="41.2988760" lon="1.6315960">
        <ele>143.6</ele>
        <time>2021-05-08T09:46:08Z</time>
      </trkpt>
      <trkpt lat="41.2989570" lon="1.6317500">
        <ele>144.4</ele>
        <time>2021-05-08T09:46:16Z</time>
      </trkpt>
      <trkpt lat="41.2989780" lon="1.6317820">
        <ele>144.6</ele>
        <time>2021-05-08T09:46:18Z</time>
      </trkpt>
      <trkpt lat="41.2990550" lon="1.6318880">
        <ele>145.0</ele>
        <time>2021-05-08T09:46:25Z</time>
      </trkpt>
      <trkpt lat="41.2991520" lon="1.6319990">
        <ele>145.6</ele>
        <time>2021-05-08T09:46:33Z</time>
      </trkpt>
      <trkpt lat="41.2991650" lon="1.6320140">
        <ele>145.6</ele>
        <time>2021-05-08T09:46:34Z</time>
      </trkpt>
      <trkpt lat="41.2993150" lon="1.6321820">
        <ele>146.4</ele>
        <time>2021-05-08T09:46:44Z</time>
      </trkpt>
      <trkpt lat="41.2993310" lon="1.6321990">
        <ele>146.6</ele>
        <time>2021-05-08T09:46:45Z</time>
      </trkpt>
      <trkpt lat="41.2994810" lon="1.6323930">
        <ele>147.2</ele>
        <time>2021-05-08T09:46:55Z</time>
      </trkpt>
      <trkpt lat="41.2995160" lon="1.6324520">
        <ele>147.4</ele>
        <time>2021-05-08T09:46:58Z</time>
      </trkpt>
      <trkpt lat="41.2995550" lon="1.6325230">
        <ele>147.6</ele>
        <time>2021-05-08T09:47:02Z</time>
      </trkpt>
      <trkpt lat="41.2995910" lon="1.6325880">
        <ele>147.8</ele>
        <time>2021-05-08T09:47:06Z</time>
      </trkpt>
      <trkpt lat="41.2997740" lon="1.6328260">
        <ele>149.2</ele>
        <time>2021-05-08T09:47:21Z</time>
      </trkpt>
      <trkpt lat="41.2997610" lon="1.6330040">
        <ele>150.0</ele>
        <time>2021-05-08T09:47:27Z</time>
      </trkpt>
      <trkpt lat="41.2998050" lon="1.6331170">
        <ele>150.0</ele>
        <time>2021-05-08T09:47:32Z</time>
      </trkpt>
      <trkpt lat="41.2998290" lon="1.6331660">
        <ele>150.0</ele>
        <time>2021-05-08T09:47:34Z</time>
      </trkpt>
      <trkpt lat="41.2998640" lon="1.6332120">
        <ele>150.0</ele>
        <time>2021-05-08T09:47:36Z</time>
      </trkpt>
      <trkpt lat="41.2999010" lon="1.6332520">
        <ele>150.2</ele>
        <time>2021-05-08T09:47:38Z</time>
      </trkpt>
      <trkpt lat="41.2999700" lon="1.6333460">
        <ele>150.4</ele>
        <time>2021-05-08T09:47:42Z</time>
      </trkpt>
      <trkpt lat="41.3000250" lon="1.6334970">
        <ele>150.4</ele>
        <time>2021-05-08T09:47:48Z</time>
      </trkpt>
      <trkpt lat="41.3001400" lon="1.6337180">
        <ele>150.0</ele>
        <time>2021-05-08T09:47:56Z</time>
      </trkpt>
      <trkpt lat="41.3003060" lon="1.6340230">
        <ele>149.4</ele>
        <time>2021-05-08T09:48:05Z</time>
      </trkpt>
      <trkpt lat="41.3003450" lon="1.6340970">
        <ele>149.2</ele>
        <time>2021-05-08T09:48:07Z</time>
      </trkpt>
      <trkpt lat="41.3005070" lon="1.6343750">
        <ele>148.4</ele>
        <time>2021-05-08T09:48:14Z</time>
      </trkpt>
      <trkpt lat="41.3005640" lon="1.6344550">
        <ele>148.0</ele>
        <time>2021-05-08T09:48:16Z</time>
      </trkpt>
      <trkpt lat="41.3006680" lon="1.6346250">
        <ele>147.6</ele>
        <time>2021-05-08T09:48:20Z</time>
      </trkpt>
      <trkpt lat="41.3008080" lon="1.6348730">
        <ele>147.0</ele>
        <time>2021-05-08T09:48:25Z</time>
      </trkpt>
      <trkpt lat="41.3008680" lon="1.6349770">
        <ele>146.4</ele>
        <time>2021-05-08T09:48:27Z</time>
      </trkpt>
      <trkpt lat="41.3010270" lon="1.6352550">
        <ele>145.8</ele>
        <time>2021-05-08T09:48:32Z</time>
      </trkpt>
      <trkpt lat="41.3011730" lon="1.6355040">
        <ele>145.6</ele>
        <time>2021-05-08T09:48:36Z</time>
      </trkpt>
      <trkpt lat="41.3014070" lon="1.6359210">
        <ele>145.2</ele>
        <time>2021-05-08T09:48:42Z</time>
      </trkpt>
      <trkpt lat="41.3014920" lon="1.6360680">
        <ele>144.6</ele>
        <time>2021-05-08T09:48:44Z</time>
      </trkpt>
      <trkpt lat="41.3016640" lon="1.6363640">
        <ele>143.6</ele>
        <time>2021-05-08T09:48:48Z</time>
      </trkpt>
      <trkpt lat="41.3017920" lon="1.6365810">
        <ele>142.6</ele>
        <time>2021-05-08T09:48:51Z</time>
      </trkpt>
      <trkpt lat="41.3018750" lon="1.6367200">
        <ele>142.2</ele>
        <time>2021-05-08T09:48:53Z</time>
      </trkpt>
      <trkpt lat="41.3020720" lon="1.6370530">
        <ele>141.0</ele>
        <time>2021-05-08T09:48:58Z</time>
      </trkpt>
      <trkpt lat="41.3022620" lon="1.6373980">
        <ele>140.4</ele>
        <time>2021-05-08T09:49:04Z</time>
      </trkpt>
      <trkpt lat="41.3023500" lon="1.6375510">
        <ele>140.0</ele>
        <time>2021-05-08T09:49:07Z</time>
      </trkpt>
      <trkpt lat="41.3024450" lon="1.6377170">
        <ele>139.4</ele>
        <time>2021-05-08T09:49:11Z</time>
      </trkpt>
      <trkpt lat="41.3025600" lon="1.6379290">
        <ele>138.8</ele>
        <time>2021-05-08T09:49:18Z</time>
      </trkpt>
      <trkpt lat="41.3026510" lon="1.6380730">
        <ele>138.6</ele>
        <time>2021-05-08T09:49:25Z</time>
      </trkpt>
      <trkpt lat="41.3026480" lon="1.6380810">
        <ele>138.4</ele>
        <time>2021-05-08T09:49:27Z</time>
      </trkpt>
      <trkpt lat="41.3026830" lon="1.6381560">
        <ele>138.4</ele>
        <time>2021-05-08T09:49:58Z</time>
      </trkpt>
      <trkpt lat="41.3026990" lon="1.6381820">
        <ele>138.4</ele>
        <time>2021-05-08T09:49:59Z</time>
      </trkpt>
      <trkpt lat="41.3028150" lon="1.6383740">
        <ele>138.6</ele>
        <time>2021-05-08T09:50:06Z</time>
      </trkpt>
      <trkpt lat="41.3029190" lon="1.6385380">
        <ele>138.6</ele>
        <time>2021-05-08T09:50:12Z</time>
      </trkpt>
      <trkpt lat="41.3030260" lon="1.6387250">
        <ele>138.8</ele>
        <time>2021-05-08T09:50:18Z</time>
      </trkpt>
      <trkpt lat="41.3031670" lon="1.6389650">
        <ele>138.8</ele>
        <time>2021-05-08T09:50:25Z</time>
      </trkpt>
      <trkpt lat="41.3033670" lon="1.6393150">
        <ele>138.6</ele>
        <time>2021-05-08T09:50:33Z</time>
      </trkpt>
      <trkpt lat="41.3035420" lon="1.6395980">
        <ele>138.8</ele>
        <time>2021-05-08T09:50:39Z</time>
      </trkpt>
      <trkpt lat="41.3035720" lon="1.6396500">
        <ele>138.8</ele>
        <time>2021-05-08T09:50:40Z</time>
      </trkpt>
      <trkpt lat="41.3037690" lon="1.6400010">
        <ele>139.2</ele>
        <time>2021-05-08T09:50:47Z</time>
      </trkpt>
      <trkpt lat="41.3038040" lon="1.6400550">
        <ele>139.4</ele>
        <time>2021-05-08T09:50:48Z</time>
      </trkpt>
      <trkpt lat="41.3040400" lon="1.6404320">
        <ele>139.6</ele>
        <time>2021-05-08T09:50:55Z</time>
      </trkpt>
      <trkpt lat="41.3040890" lon="1.6405140">
        <ele>140.0</ele>
        <time>2021-05-08T09:50:57Z</time>
      </trkpt>
      <trkpt lat="41.3041810" lon="1.6406820">
        <ele>140.4</ele>
        <time>2021-05-08T09:51:01Z</time>
      </trkpt>
      <trkpt lat="41.3043470" lon="1.6409800">
        <ele>140.8</ele>
        <time>2021-05-08T09:51:09Z</time>
      </trkpt>
      <trkpt lat="41.3043660" lon="1.6410120">
        <ele>141.0</ele>
        <time>2021-05-08T09:51:10Z</time>
      </trkpt>
      <trkpt lat="41.3045140" lon="1.6412690">
        <ele>141.2</ele>
        <time>2021-05-08T09:51:18Z</time>
      </trkpt>
      <trkpt lat="41.3046350" lon="1.6414760">
        <ele>142.2</ele>
        <time>2021-05-08T09:51:25Z</time>
      </trkpt>
      <trkpt lat="41.3046680" lon="1.6415310">
        <ele>142.4</ele>
        <time>2021-05-08T09:51:27Z</time>
      </trkpt>
      <trkpt lat="41.3047880" lon="1.6417540">
        <ele>143.0</ele>
        <time>2021-05-08T09:51:35Z</time>
      </trkpt>
      <trkpt lat="41.3048040" lon="1.6417800">
        <ele>143.2</ele>
        <time>2021-05-08T09:51:36Z</time>
      </trkpt>
      <trkpt lat="41.3048990" lon="1.6419470">
        <ele>143.4</ele>
        <time>2021-05-08T09:51:42Z</time>
      </trkpt>
      <trkpt lat="41.3050440" lon="1.6421930">
        <ele>144.2</ele>
        <time>2021-05-08T09:51:51Z</time>
      </trkpt>
      <trkpt lat="41.3050600" lon="1.6422220">
        <ele>144.4</ele>
        <time>2021-05-08T09:51:52Z</time>
      </trkpt>
      <trkpt lat="41.3052310" lon="1.6425140">
        <ele>145.4</ele>
        <time>2021-05-08T09:52:02Z</time>
      </trkpt>
      <trkpt lat="41.3052490" lon="1.6425430">
        <ele>145.4</ele>
        <time>2021-05-08T09:52:03Z</time>
      </trkpt>
      <trkpt lat="41.3054060" lon="1.6428130">
        <ele>146.2</ele>
        <time>2021-05-08T09:52:12Z</time>
      </trkpt>
      <trkpt lat="41.3054720" lon="1.6429360">
        <ele>146.4</ele>
        <time>2021-05-08T09:52:16Z</time>
      </trkpt>
      <trkpt lat="41.3055190" lon="1.6431040">
        <ele>146.8</ele>
        <time>2021-05-08T09:52:21Z</time>
      </trkpt>
      <trkpt lat="41.3055470" lon="1.6432000">
        <ele>147.6</ele>
        <time>2021-05-08T09:52:24Z</time>
      </trkpt>
      <trkpt lat="41.3056110" lon="1.6433140">
        <ele>147.8</ele>
        <time>2021-05-08T09:52:28Z</time>
      </trkpt>
      <trkpt lat="41.3057570" lon="1.6435590">
        <ele>148.4</ele>
        <time>2021-05-08T09:52:36Z</time>
      </trkpt>
      <trkpt lat="41.3058340" lon="1.6436680">
        <ele>148.6</ele>
        <time>2021-05-08T09:52:40Z</time>
      </trkpt>
      <trkpt lat="41.3059140" lon="1.6437620">
        <ele>149.0</ele>
        <time>2021-05-08T09:52:44Z</time>
      </trkpt>
      <trkpt lat="41.3060920" lon="1.6439310">
        <ele>148.4</ele>
        <time>2021-05-08T09:52:52Z</time>
      </trkpt>
      <trkpt lat="41.3062880" lon="1.6441110">
        <ele>147.4</ele>
        <time>2021-05-08T09:52:59Z</time>
      </trkpt>
      <trkpt lat="41.3063180" lon="1.6441400">
        <ele>147.4</ele>
        <time>2021-05-08T09:53:00Z</time>
      </trkpt>
      <trkpt lat="41.3065610" lon="1.6443710">
        <ele>148.0</ele>
        <time>2021-05-08T09:53:08Z</time>
      </trkpt>
      <trkpt lat="41.3068170" lon="1.6446060">
        <ele>148.2</ele>
        <time>2021-05-08T09:53:17Z</time>
      </trkpt>
      <trkpt lat="41.3069540" lon="1.6447230">
        <ele>148.6</ele>
        <time>2021-05-08T09:53:22Z</time>
      </trkpt>
      <trkpt lat="41.3069800" lon="1.6447480">
        <ele>148.6</ele>
        <time>2021-05-08T09:53:23Z</time>
      </trkpt>
      <trkpt lat="41.3071260" lon="1.6448900">
        <ele>149.2</ele>
        <time>2021-05-08T09:53:29Z</time>
      </trkpt>
      <trkpt lat="41.3072310" lon="1.6450060">
        <ele>149.8</ele>
        <time>2021-05-08T09:53:35Z</time>
      </trkpt>
      <trkpt lat="41.3073520" lon="1.6451390">
        <ele>150.4</ele>
        <time>2021-05-08T09:53:41Z</time>
      </trkpt>
      <trkpt lat="41.3074580" lon="1.6452470">
        <ele>150.4</ele>
        <time>2021-05-08T09:53:46Z</time>
      </trkpt>
      <trkpt lat="41.3074800" lon="1.6453150">
        <ele>150.6</ele>
        <time>2021-05-08T09:53:49Z</time>
      </trkpt>
      <trkpt lat="41.3074690" lon="1.6453350">
        <ele>150.6</ele>
        <time>2021-05-08T09:53:50Z</time>
      </trkpt>
      <trkpt lat="41.3073640" lon="1.6454830">
        <ele>150.6</ele>
        <time>2021-05-08T09:53:55Z</time>
      </trkpt>
      <trkpt lat="41.3071900" lon="1.6457250">
        <ele>148.8</ele>
        <time>2021-05-08T09:54:01Z</time>
      </trkpt>
      <trkpt lat="41.3071540" lon="1.6457760">
        <ele>148.6</ele>
        <time>2021-05-08T09:54:02Z</time>
      </trkpt>
      <trkpt lat="41.3070420" lon="1.6459410">
        <ele>147.2</ele>
        <time>2021-05-08T09:54:05Z</time>
      </trkpt>
      <trkpt lat="41.3069600" lon="1.6460610">
        <ele>145.8</ele>
        <time>2021-05-08T09:54:07Z</time>
      </trkpt>
      <trkpt lat="41.3068720" lon="1.6462090">
        <ele>144.8</ele>
        <time>2021-05-08T09:54:09Z</time>
      </trkpt>
      <trkpt lat="41.3067800" lon="1.6463660">
        <ele>143.8</ele>
        <time>2021-05-08T09:54:11Z</time>
      </trkpt>
      <trkpt lat="41.3067340" lon="1.6464450">
        <ele>142.6</ele>
        <time>2021-05-08T09:54:12Z</time>
      </trkpt>
      <trkpt lat="41.3066170" lon="1.6466490">
        <ele>141.6</ele>
        <time>2021-05-08T09:54:15Z</time>
      </trkpt>
      <trkpt lat="41.3065750" lon="1.6467040">
        <ele>141.6</ele>
        <time>2021-05-08T09:54:16Z</time>
      </trkpt>
      <trkpt lat="41.3063630" lon="1.6469940">
        <ele>141.0</ele>
        <time>2021-05-08T09:54:22Z</time>
      </trkpt>
      <trkpt lat="41.3061520" lon="1.6472830">
        <ele>140.8</ele>
        <time>2021-05-08T09:54:29Z</time>
      </trkpt>
      <trkpt lat="41.3061240" lon="1.6473280">
        <ele>140.6</ele>
        <time>2021-05-08T09:54:30Z</time>
      </trkpt>
      <trkpt lat="41.3060710" lon="1.6474740">
        <ele>140.0</ele>
        <time>2021-05-08T09:54:33Z</time>
      </trkpt>
      <trkpt lat="41.3060760" lon="1.6475350">
        <ele>140.0</ele>
        <time>2021-05-08T09:54:34Z</time>
      </trkpt>
      <trkpt lat="41.3061110" lon="1.6476390">
        <ele>139.6</ele>
        <time>2021-05-08T09:54:36Z</time>
      </trkpt>
      <trkpt lat="41.3061450" lon="1.6477400">
        <ele>139.2</ele>
        <time>2021-05-08T09:54:38Z</time>
      </trkpt>
      <trkpt lat="41.3061890" lon="1.6478510">
        <ele>139.0</ele>
        <time>2021-05-08T09:54:40Z</time>
      </trkpt>
      <trkpt lat="41.3062100" lon="1.6479140">
        <ele>138.6</ele>
        <time>2021-05-08T09:54:41Z</time>
      </trkpt>
      <trkpt lat="41.3062350" lon="1.6480510">
        <ele>138.4</ele>
        <time>2021-05-08T09:54:43Z</time>
      </trkpt>
      <trkpt lat="41.3062490" lon="1.6483360">
        <ele>137.2</ele>
        <time>2021-05-08T09:54:47Z</time>
      </trkpt>
      <trkpt lat="41.3062670" lon="1.6486880">
        <ele>136.4</ele>
        <time>2021-05-08T09:54:52Z</time>
      </trkpt>
      <trkpt lat="41.3062980" lon="1.6489560">
        <ele>136.4</ele>
        <time>2021-05-08T09:54:57Z</time>
      </trkpt>
      <trkpt lat="41.3063570" lon="1.6492940">
        <ele>137.2</ele>
        <time>2021-05-08T09:55:05Z</time>
      </trkpt>
      <trkpt lat="41.3064010" lon="1.6495810">
        <ele>138.0</ele>
        <time>2021-05-08T09:55:13Z</time>
      </trkpt>
      <trkpt lat="41.3064150" lon="1.6496830">
        <ele>138.6</ele>
        <time>2021-05-08T09:55:16Z</time>
      </trkpt>
      <trkpt lat="41.3064450" lon="1.6498850">
        <ele>138.8</ele>
        <time>2021-05-08T09:55:22Z</time>
      </trkpt>
      <trkpt lat="41.3064780" lon="1.6501220">
        <ele>138.4</ele>
        <time>2021-05-08T09:55:29Z</time>
      </trkpt>
      <trkpt lat="41.3065390" lon="1.6504210">
        <ele>139.2</ele>
        <time>2021-05-08T09:55:38Z</time>
      </trkpt>
      <trkpt lat="41.3065800" lon="1.6506700">
        <ele>139.6</ele>
        <time>2021-05-08T09:55:46Z</time>
      </trkpt>
      <trkpt lat="41.3065850" lon="1.6506970">
        <ele>139.4</ele>
        <time>2021-05-08T09:55:47Z</time>
      </trkpt>
      <trkpt lat="41.3066170" lon="1.6508980">
        <ele>139.4</ele>
        <time>2021-05-08T09:55:54Z</time>
      </trkpt>
      <trkpt lat="41.3066410" lon="1.6510680">
        <ele>140.4</ele>
        <time>2021-05-08T09:56:01Z</time>
      </trkpt>
      <trkpt lat="41.3066660" lon="1.6511940">
        <ele>139.8</ele>
        <time>2021-05-08T09:56:07Z</time>
      </trkpt>
      <trkpt lat="41.3066970" lon="1.6513550">
        <ele>140.0</ele>
        <time>2021-05-08T09:56:14Z</time>
      </trkpt>
      <trkpt lat="41.3067290" lon="1.6515110">
        <ele>140.2</ele>
        <time>2021-05-08T09:56:22Z</time>
      </trkpt>
      <trkpt lat="41.3067460" lon="1.6516340">
        <ele>140.4</ele>
        <time>2021-05-08T09:56:29Z</time>
      </trkpt>
      <trkpt lat="41.3067540" lon="1.6517110">
        <ele>140.6</ele>
        <time>2021-05-08T09:56:34Z</time>
      </trkpt>
      <trkpt lat="41.3067540" lon="1.6517110">
        <ele>140.6</ele>
        <time>2021-05-08T09:56:35Z</time>
      </trkpt>
      <trkpt lat="41.3067530" lon="1.6517610">
        <ele>140.6</ele>
        <time>2021-05-08T09:57:21Z</time>
      </trkpt>
      <trkpt lat="41.3067530" lon="1.6518250">
        <ele>141.0</ele>
        <time>2021-05-08T09:57:24Z</time>
      </trkpt>
      <trkpt lat="41.3067190" lon="1.6519470">
        <ele>141.0</ele>
        <time>2021-05-08T09:57:30Z</time>
      </trkpt>
      <trkpt lat="41.3067130" lon="1.6519700">
        <ele>141.0</ele>
        <time>2021-05-08T09:57:31Z</time>
      </trkpt>
      <trkpt lat="41.3066860" lon="1.6520850">
        <ele>141.6</ele>
        <time>2021-05-08T09:57:35Z</time>
      </trkpt>
      <trkpt lat="41.3066810" lon="1.6521120">
        <ele>141.6</ele>
        <time>2021-05-08T09:57:36Z</time>
      </trkpt>
      <trkpt lat="41.3066560" lon="1.6522150">
        <ele>142.0</ele>
        <time>2021-05-08T09:57:40Z</time>
      </trkpt>
      <trkpt lat="41.3066190" lon="1.6523660">
        <ele>142.2</ele>
        <time>2021-05-08T09:57:48Z</time>
      </trkpt>
      <trkpt lat="41.3066030" lon="1.6524370">
        <ele>142.4</ele>
        <time>2021-05-08T09:57:55Z</time>
      </trkpt>
      <trkpt lat="41.3066030" lon="1.6524930">
        <ele>142.2</ele>
        <time>2021-05-08T09:58:01Z</time>
      </trkpt>
      <trkpt lat="41.3065960" lon="1.6525150">
        <ele>142.4</ele>
        <time>2021-05-08T09:58:02Z</time>
      </trkpt>
      <trkpt lat="41.3065420" lon="1.6527350">
        <ele>141.2</ele>
        <time>2021-05-08T09:58:08Z</time>
      </trkpt>
      <trkpt lat="41.3065350" lon="1.6527820">
        <ele>140.6</ele>
        <time>2021-05-08T09:58:09Z</time>
      </trkpt>
      <trkpt lat="41.3065060" lon="1.6529200">
        <ele>139.4</ele>
        <time>2021-05-08T09:58:12Z</time>
      </trkpt>
      <trkpt lat="41.3064890" lon="1.6529540">
        <ele>139.2</ele>
        <time>2021-05-08T09:58:13Z</time>
      </trkpt>
      <trkpt lat="41.3064420" lon="1.6530050">
        <ele>138.6</ele>
        <time>2021-05-08T09:58:15Z</time>
      </trkpt>
      <trkpt lat="41.3063930" lon="1.6530320">
        <ele>138.4</ele>
        <time>2021-05-08T09:58:17Z</time>
      </trkpt>
      <trkpt lat="41.3063700" lon="1.6530460">
        <ele>138.2</ele>
        <time>2021-05-08T09:58:18Z</time>
      </trkpt>
      <trkpt lat="41.3062740" lon="1.6531070">
        <ele>137.6</ele>
        <time>2021-05-08T09:58:23Z</time>
      </trkpt>
      <trkpt lat="41.3062530" lon="1.6531380">
        <ele>137.6</ele>
        <time>2021-05-08T09:58:26Z</time>
      </trkpt>
      <trkpt lat="41.3062550" lon="1.6531350">
        <ele>137.6</ele>
        <time>2021-05-08T09:58:28Z</time>
      </trkpt>
      <trkpt lat="41.3063640" lon="1.6530760">
        <ele>137.8</ele>
        <time>2021-05-08T10:00:42Z</time>
      </trkpt>
      <trkpt lat="41.3063870" lon="1.6530870">
        <ele>138.2</ele>
        <time>2021-05-08T10:00:44Z</time>
      </trkpt>
      <trkpt lat="41.3063910" lon="1.6530940">
        <ele>138.2</ele>
        <time>2021-05-08T10:00:45Z</time>
      </trkpt>
      <trkpt lat="41.3063910" lon="1.6531030">
        <ele>138.2</ele>
        <time>2021-05-08T10:00:48Z</time>
      </trkpt>
      <trkpt lat="41.3064110" lon="1.6531080">
        <ele>138.0</ele>
        <time>2021-05-08T10:01:47Z</time>
      </trkpt>
      <trkpt lat="41.3064160" lon="1.6531410">
        <ele>138.0</ele>
        <time>2021-05-08T10:01:48Z</time>
      </trkpt>
      <trkpt lat="41.3064600" lon="1.6533030">
        <ele>138.6</ele>
        <time>2021-05-08T10:01:52Z</time>
      </trkpt>
      <trkpt lat="41.3065120" lon="1.6534240">
        <ele>138.6</ele>
        <time>2021-05-08T10:01:56Z</time>
      </trkpt>
      <trkpt lat="41.3065310" lon="1.6535440">
        <ele>138.6</ele>
        <time>2021-05-08T10:01:59Z</time>
      </trkpt>
      <trkpt lat="41.3065380" lon="1.6536590">
        <ele>138.8</ele>
        <time>2021-05-08T10:02:02Z</time>
      </trkpt>
      <trkpt lat="41.3065600" lon="1.6538370">
        <ele>138.0</ele>
        <time>2021-05-08T10:02:07Z</time>
      </trkpt>
      <trkpt lat="41.3065800" lon="1.6539800">
        <ele>138.2</ele>
        <time>2021-05-08T10:02:11Z</time>
      </trkpt>
      <trkpt lat="41.3065760" lon="1.6541880">
        <ele>138.4</ele>
        <time>2021-05-08T10:02:18Z</time>
      </trkpt>
      <trkpt lat="41.3065580" lon="1.6543130">
        <ele>138.4</ele>
        <time>2021-05-08T10:02:23Z</time>
      </trkpt>
      <trkpt lat="41.3065600" lon="1.6544020">
        <ele>138.0</ele>
        <time>2021-05-08T10:02:26Z</time>
      </trkpt>
      <trkpt lat="41.3065670" lon="1.6544490">
        <ele>137.8</ele>
        <time>2021-05-08T10:02:27Z</time>
      </trkpt>
      <trkpt lat="41.3065410" lon="1.6546540">
        <ele>138.2</ele>
        <time>2021-05-08T10:02:32Z</time>
      </trkpt>
      <trkpt lat="41.3065310" lon="1.6546940">
        <ele>138.2</ele>
        <time>2021-05-08T10:02:33Z</time>
      </trkpt>
      <trkpt lat="41.3065250" lon="1.6548450">
        <ele>138.8</ele>
        <time>2021-05-08T10:02:36Z</time>
      </trkpt>
      <trkpt lat="41.3065060" lon="1.6550630">
        <ele>139.0</ele>
        <time>2021-05-08T10:02:41Z</time>
      </trkpt>
      <trkpt lat="41.3065000" lon="1.6552950">
        <ele>138.6</ele>
        <time>2021-05-08T10:02:46Z</time>
      </trkpt>
      <trkpt lat="41.3065020" lon="1.6555110">
        <ele>139.0</ele>
        <time>2021-05-08T10:02:51Z</time>
      </trkpt>
      <trkpt lat="41.3064740" lon="1.6557730">
        <ele>139.2</ele>
        <time>2021-05-08T10:02:57Z</time>
      </trkpt>
      <trkpt lat="41.3064750" lon="1.6558970">
        <ele>139.4</ele>
        <time>2021-05-08T10:03:00Z</time>
      </trkpt>
      <trkpt lat="41.3064780" lon="1.6559790">
        <ele>139.8</ele>
        <time>2021-05-08T10:03:02Z</time>
      </trkpt>
      <trkpt lat="41.3064550" lon="1.6561210">
        <ele>140.2</ele>
        <time>2021-05-08T10:03:06Z</time>
      </trkpt>
      <trkpt lat="41.3064130" lon="1.6563170">
        <ele>140.4</ele>
        <time>2021-05-08T10:03:12Z</time>
      </trkpt>
      <trkpt lat="41.3063890" lon="1.6564820">
        <ele>139.8</ele>
        <time>2021-05-08T10:03:17Z</time>
      </trkpt>
      <trkpt lat="41.3063890" lon="1.6566360">
        <ele>139.6</ele>
        <time>2021-05-08T10:03:21Z</time>
      </trkpt>
      <trkpt lat="41.3064310" lon="1.6567800">
        <ele>139.8</ele>
        <time>2021-05-08T10:03:26Z</time>
      </trkpt>
      <trkpt lat="41.3064710" lon="1.6569190">
        <ele>140.2</ele>
        <time>2021-05-08T10:03:31Z</time>
      </trkpt>
      <trkpt lat="41.3065420" lon="1.6570720">
        <ele>140.4</ele>
        <time>2021-05-08T10:03:36Z</time>
      </trkpt>
      <trkpt lat="41.3066290" lon="1.6571470">
        <ele>140.8</ele>
        <time>2021-05-08T10:03:41Z</time>
      </trkpt>
      <trkpt lat="41.3067170" lon="1.6571930">
        <ele>141.6</ele>
        <time>2021-05-08T10:03:45Z</time>
      </trkpt>
      <trkpt lat="41.3067540" lon="1.6572200">
        <ele>141.8</ele>
        <time>2021-05-08T10:03:47Z</time>
      </trkpt>
      <trkpt lat="41.3068550" lon="1.6573420">
        <ele>142.0</ele>
        <time>2021-05-08T10:03:53Z</time>
      </trkpt>
      <trkpt lat="41.3070050" lon="1.6574950">
        <ele>142.0</ele>
        <time>2021-05-08T10:04:01Z</time>
      </trkpt>
      <trkpt lat="41.3071230" lon="1.6575890">
        <ele>142.0</ele>
        <time>2021-05-08T10:04:07Z</time>
      </trkpt>
      <trkpt lat="41.3072480" lon="1.6576720">
        <ele>142.2</ele>
        <time>2021-05-08T10:04:12Z</time>
      </trkpt>
      <trkpt lat="41.3074150" lon="1.6577350">
        <ele>142.4</ele>
        <time>2021-05-08T10:04:18Z</time>
      </trkpt>
      <trkpt lat="41.3074300" lon="1.6577240">
        <ele>142.6</ele>
        <time>2021-05-08T10:04:19Z</time>
      </trkpt>
      <trkpt lat="41.3074380" lon="1.6577140">
        <ele>142.8</ele>
        <time>2021-05-08T10:04:20Z</time>
      </trkpt>
      <trkpt lat="41.3074480" lon="1.6577110">
        <ele>142.8</ele>
        <time>2021-05-08T10:04:21Z</time>
      </trkpt>
      <trkpt lat="41.3074550" lon="1.6577140">
        <ele>142.8</ele>
        <time>2021-05-08T10:04:22Z</time>
      </trkpt>
      <trkpt lat="41.3074890" lon="1.6578220">
        <ele>142.8</ele>
        <time>2021-05-08T10:04:27Z</time>
      </trkpt>
      <trkpt lat="41.3075570" lon="1.6579790">
        <ele>142.4</ele>
        <time>2021-05-08T10:04:32Z</time>
      </trkpt>
      <trkpt lat="41.3075710" lon="1.6580390">
        <ele>142.0</ele>
        <time>2021-05-08T10:04:34Z</time>
      </trkpt>
      <trkpt lat="41.3075750" lon="1.6580660">
        <ele>141.6</ele>
        <time>2021-05-08T10:04:35Z</time>
      </trkpt>
      <trkpt lat="41.3075780" lon="1.6580890">
        <ele>141.4</ele>
        <time>2021-05-08T10:04:36Z</time>
      </trkpt>
      <trkpt lat="41.3075760" lon="1.6581120">
        <ele>141.2</ele>
        <time>2021-05-08T10:04:37Z</time>
      </trkpt>
      <trkpt lat="41.3075630" lon="1.6581850">
        <ele>141.0</ele>
        <time>2021-05-08T10:04:41Z</time>
      </trkpt>
      <trkpt lat="41.3075690" lon="1.6582130">
        <ele>140.8</ele>
        <time>2021-05-08T10:04:43Z</time>
      </trkpt>
      <trkpt lat="41.3075700" lon="1.6582390">
        <ele>140.8</ele>
        <time>2021-05-08T10:04:45Z</time>
      </trkpt>
      <trkpt lat="41.3075670" lon="1.6582580">
        <ele>140.8</ele>
        <time>2021-05-08T10:04:48Z</time>
      </trkpt>
      <trkpt lat="41.3075590" lon="1.6582380">
        <ele>140.6</ele>
        <time>2021-05-08T10:07:52Z</time>
      </trkpt>
      <trkpt lat="41.3075690" lon="1.6582140">
        <ele>140.6</ele>
        <time>2021-05-08T10:07:53Z</time>
      </trkpt>
      <trkpt lat="41.3075790" lon="1.6581140">
        <ele>140.6</ele>
        <time>2021-05-08T10:07:58Z</time>
      </trkpt>
      <trkpt lat="41.3075620" lon="1.6579980">
        <ele>141.4</ele>
        <time>2021-05-08T10:08:04Z</time>
      </trkpt>
      <trkpt lat="41.3075600" lon="1.6579790">
        <ele>141.6</ele>
        <time>2021-05-08T10:08:05Z</time>
      </trkpt>
      <trkpt lat="41.3075290" lon="1.6579160">
        <ele>141.8</ele>
        <time>2021-05-08T10:08:09Z</time>
      </trkpt>
      <trkpt lat="41.3074970" lon="1.6578570">
        <ele>142.0</ele>
        <time>2021-05-08T10:08:13Z</time>
      </trkpt>
      <trkpt lat="41.3074890" lon="1.6578380">
        <ele>142.2</ele>
        <time>2021-05-08T10:08:14Z</time>
      </trkpt>
      <trkpt lat="41.3074820" lon="1.6578180">
        <ele>142.2</ele>
        <time>2021-05-08T10:08:15Z</time>
      </trkpt>
      <trkpt lat="41.3074620" lon="1.6577270">
        <ele>142.4</ele>
        <time>2021-05-08T10:08:19Z</time>
      </trkpt>
      <trkpt lat="41.3074630" lon="1.6577020">
        <ele>142.8</ele>
        <time>2021-05-08T10:08:20Z</time>
      </trkpt>
      <trkpt lat="41.3074660" lon="1.6576790">
        <ele>142.8</ele>
        <time>2021-05-08T10:08:21Z</time>
      </trkpt>
      <trkpt lat="41.3075070" lon="1.6575420">
        <ele>143.8</ele>
        <time>2021-05-08T10:08:28Z</time>
      </trkpt>
      <trkpt lat="41.3075150" lon="1.6575280">
        <ele>144.0</ele>
        <time>2021-05-08T10:08:29Z</time>
      </trkpt>
      <trkpt lat="41.3075930" lon="1.6573870">
        <ele>145.0</ele>
        <time>2021-05-08T10:08:38Z</time>
      </trkpt>
      <trkpt lat="41.3076050" lon="1.6573720">
        <ele>145.0</ele>
        <time>2021-05-08T10:08:39Z</time>
      </trkpt>
      <trkpt lat="41.3076870" lon="1.6572910">
        <ele>146.0</ele>
        <time>2021-05-08T10:08:45Z</time>
      </trkpt>
      <trkpt lat="41.3077030" lon="1.6572830">
        <ele>146.0</ele>
        <time>2021-05-08T10:08:46Z</time>
      </trkpt>
      <trkpt lat="41.3077950" lon="1.6572910">
        <ele>146.4</ele>
        <time>2021-05-08T10:08:52Z</time>
      </trkpt>
      <trkpt lat="41.3078470" lon="1.6573340">
        <ele>147.0</ele>
        <time>2021-05-08T10:08:56Z</time>
      </trkpt>
      <trkpt lat="41.3078930" lon="1.6573640">
        <ele>147.4</ele>
        <time>2021-05-08T10:08:59Z</time>
      </trkpt>
      <trkpt lat="41.3079800" lon="1.6574230">
        <ele>147.6</ele>
        <time>2021-05-08T10:09:05Z</time>
      </trkpt>
      <trkpt lat="41.3080520" lon="1.6574300">
        <ele>148.0</ele>
        <time>2021-05-08T10:09:09Z</time>
      </trkpt>
      <trkpt lat="41.3080940" lon="1.6574160">
        <ele>147.8</ele>
        <time>2021-05-08T10:09:11Z</time>
      </trkpt>
      <trkpt lat="41.3082660" lon="1.6573740">
        <ele>148.2</ele>
        <time>2021-05-08T10:09:19Z</time>
      </trkpt>
      <trkpt lat="41.3083710" lon="1.6573290">
        <ele>148.2</ele>
        <time>2021-05-08T10:09:25Z</time>
      </trkpt>
      <trkpt lat="41.3084980" lon="1.6572930">
        <ele>148.8</ele>
        <time>2021-05-08T10:09:32Z</time>
      </trkpt>
      <trkpt lat="41.3086840" lon="1.6572360">
        <ele>148.8</ele>
        <time>2021-05-08T10:09:40Z</time>
      </trkpt>
      <trkpt lat="41.3087300" lon="1.6572240">
        <ele>149.0</ele>
        <time>2021-05-08T10:09:42Z</time>
      </trkpt>
      <trkpt lat="41.3088750" lon="1.6571800">
        <ele>148.8</ele>
        <time>2021-05-08T10:09:48Z</time>
      </trkpt>
      <trkpt lat="41.3090520" lon="1.6570820">
        <ele>149.0</ele>
        <time>2021-05-08T10:09:55Z</time>
      </trkpt>
      <trkpt lat="41.3092000" lon="1.6568900">
        <ele>149.0</ele>
        <time>2021-05-08T10:10:02Z</time>
      </trkpt>
      <trkpt lat="41.3093790" lon="1.6565450">
        <ele>148.8</ele>
        <time>2021-05-08T10:10:12Z</time>
      </trkpt>
      <trkpt lat="41.3095410" lon="1.6561690">
        <ele>149.2</ele>
        <time>2021-05-08T10:10:23Z</time>
      </trkpt>
      <trkpt lat="41.3096780" lon="1.6559010">
        <ele>149.4</ele>
        <time>2021-05-08T10:10:32Z</time>
      </trkpt>
      <trkpt lat="41.3098130" lon="1.6558090">
        <ele>149.6</ele>
        <time>2021-05-08T10:10:38Z</time>
      </trkpt>
      <trkpt lat="41.3098620" lon="1.6557870">
        <ele>150.0</ele>
        <time>2021-05-08T10:10:40Z</time>
      </trkpt>
      <trkpt lat="41.3099920" lon="1.6557150">
        <ele>150.6</ele>
        <time>2021-05-08T10:10:45Z</time>
      </trkpt>
      <trkpt lat="41.3101140" lon="1.6556530">
        <ele>150.8</ele>
        <time>2021-05-08T10:10:50Z</time>
      </trkpt>
      <trkpt lat="41.3102350" lon="1.6556220">
        <ele>151.0</ele>
        <time>2021-05-08T10:10:54Z</time>
      </trkpt>
      <trkpt lat="41.3103650" lon="1.6556080">
        <ele>151.2</ele>
        <time>2021-05-08T10:10:58Z</time>
      </trkpt>
      <trkpt lat="41.3106050" lon="1.6555900">
        <ele>151.4</ele>
        <time>2021-05-08T10:11:05Z</time>
      </trkpt>
      <trkpt lat="41.3108570" lon="1.6556260">
        <ele>151.4</ele>
        <time>2021-05-08T10:11:12Z</time>
      </trkpt>
      <trkpt lat="41.3111970" lon="1.6557160">
        <ele>151.8</ele>
        <time>2021-05-08T10:11:22Z</time>
      </trkpt>
      <trkpt lat="41.3112300" lon="1.6557240">
        <ele>151.8</ele>
        <time>2021-05-08T10:11:23Z</time>
      </trkpt>
      <trkpt lat="41.3113690" lon="1.6558000">
        <ele>152.0</ele>
        <time>2021-05-08T10:11:28Z</time>
      </trkpt>
      <trkpt lat="41.3115210" lon="1.6559470">
        <ele>152.4</ele>
        <time>2021-05-08T10:11:34Z</time>
      </trkpt>
      <trkpt lat="41.3116640" lon="1.6561050">
        <ele>152.4</ele>
        <time>2021-05-08T10:11:40Z</time>
      </trkpt>
      <trkpt lat="41.3118200" lon="1.6561440">
        <ele>152.4</ele>
        <time>2021-05-08T10:11:45Z</time>
      </trkpt>
      <trkpt lat="41.3119220" lon="1.6561560">
        <ele>152.6</ele>
        <time>2021-05-08T10:11:48Z</time>
      </trkpt>
      <trkpt lat="41.3120530" lon="1.6561810">
        <ele>152.8</ele>
        <time>2021-05-08T10:11:52Z</time>
      </trkpt>
      <trkpt lat="41.3121790" lon="1.6563000">
        <ele>153.0</ele>
        <time>2021-05-08T10:11:57Z</time>
      </trkpt>
      <trkpt lat="41.3123110" lon="1.6565230">
        <ele>153.2</ele>
        <time>2021-05-08T10:12:04Z</time>
      </trkpt>
      <trkpt lat="41.3124600" lon="1.6567910">
        <ele>153.4</ele>
        <time>2021-05-08T10:12:12Z</time>
      </trkpt>
      <trkpt lat="41.3124920" lon="1.6568540">
        <ele>153.4</ele>
        <time>2021-05-08T10:12:14Z</time>
      </trkpt>
      <trkpt lat="41.3125450" lon="1.6569490">
        <ele>153.6</ele>
        <time>2021-05-08T10:12:17Z</time>
      </trkpt>
      <trkpt lat="41.3126200" lon="1.6570690">
        <ele>154.2</ele>
        <time>2021-05-08T10:12:21Z</time>
      </trkpt>
      <trkpt lat="41.3127000" lon="1.6571990">
        <ele>154.8</ele>
        <time>2021-05-08T10:12:26Z</time>
      </trkpt>
      <trkpt lat="41.3127390" lon="1.6572630">
        <ele>155.4</ele>
        <time>2021-05-08T10:12:29Z</time>
      </trkpt>
      <trkpt lat="41.3127700" lon="1.6573300">
        <ele>156.0</ele>
        <time>2021-05-08T10:12:32Z</time>
      </trkpt>
      <trkpt lat="41.3128170" lon="1.6574440">
        <ele>156.6</ele>
        <time>2021-05-08T10:12:37Z</time>
      </trkpt>
      <trkpt lat="41.3128350" lon="1.6574910">
        <ele>157.0</ele>
        <time>2021-05-08T10:12:39Z</time>
      </trkpt>
      <trkpt lat="41.3128810" lon="1.6576540">
        <ele>158.0</ele>
        <time>2021-05-08T10:12:46Z</time>
      </trkpt>
      <trkpt lat="41.3129150" lon="1.6577680">
        <ele>159.0</ele>
        <time>2021-05-08T10:12:51Z</time>
      </trkpt>
      <trkpt lat="41.3129330" lon="1.6578570">
        <ele>159.6</ele>
        <time>2021-05-08T10:12:55Z</time>
      </trkpt>
      <trkpt lat="41.3129470" lon="1.6579490">
        <ele>160.2</ele>
        <time>2021-05-08T10:12:59Z</time>
      </trkpt>
      <trkpt lat="41.3129750" lon="1.6580630">
        <ele>161.2</ele>
        <time>2021-05-08T10:13:04Z</time>
      </trkpt>
      <trkpt lat="41.3129830" lon="1.6580830">
        <ele>161.4</ele>
        <time>2021-05-08T10:13:05Z</time>
      </trkpt>
      <trkpt lat="41.3130550" lon="1.6582090">
        <ele>162.2</ele>
        <time>2021-05-08T10:13:12Z</time>
      </trkpt>
      <trkpt lat="41.3130810" lon="1.6582370">
        <ele>162.6</ele>
        <time>2021-05-08T10:13:14Z</time>
      </trkpt>
      <trkpt lat="41.3131310" lon="1.6583160">
        <ele>162.8</ele>
        <time>2021-05-08T10:13:20Z</time>
      </trkpt>
      <trkpt lat="41.3131350" lon="1.6583310">
        <ele>163.0</ele>
        <time>2021-05-08T10:13:23Z</time>
      </trkpt>
      <trkpt lat="41.3131430" lon="1.6583960">
        <ele>162.6</ele>
        <time>2021-05-08T10:13:40Z</time>
      </trkpt>
      <trkpt lat="41.3131300" lon="1.6585860">
        <ele>162.0</ele>
        <time>2021-05-08T10:13:46Z</time>
      </trkpt>
      <trkpt lat="41.3131300" lon="1.6586700">
        <ele>161.4</ele>
        <time>2021-05-08T10:13:48Z</time>
      </trkpt>
      <trkpt lat="41.3131290" lon="1.6589420">
        <ele>160.4</ele>
        <time>2021-05-08T10:13:53Z</time>
      </trkpt>
      <trkpt lat="41.3131290" lon="1.6590090">
        <ele>160.0</ele>
        <time>2021-05-08T10:13:54Z</time>
      </trkpt>
      <trkpt lat="41.3131280" lon="1.6592370">
        <ele>158.6</ele>
        <time>2021-05-08T10:13:57Z</time>
      </trkpt>
      <trkpt lat="41.3131280" lon="1.6594080">
        <ele>158.0</ele>
        <time>2021-05-08T10:13:59Z</time>
      </trkpt>
      <trkpt lat="41.3131300" lon="1.6594990">
        <ele>157.4</ele>
        <time>2021-05-08T10:14:00Z</time>
      </trkpt>
      <trkpt lat="41.3131350" lon="1.6596860">
        <ele>156.2</ele>
        <time>2021-05-08T10:14:02Z</time>
      </trkpt>
      <trkpt lat="41.3131570" lon="1.6599660">
        <ele>155.2</ele>
        <time>2021-05-08T10:14:05Z</time>
      </trkpt>
      <trkpt lat="41.3131840" lon="1.6603410">
        <ele>154.2</ele>
        <time>2021-05-08T10:14:09Z</time>
      </trkpt>
      <trkpt lat="41.3131920" lon="1.6605180">
        <ele>153.6</ele>
        <time>2021-05-08T10:14:11Z</time>
      </trkpt>
      <trkpt lat="41.3132100" lon="1.6606850">
        <ele>153.0</ele>
        <time>2021-05-08T10:14:13Z</time>
      </trkpt>
      <trkpt lat="41.3132260" lon="1.6608460">
        <ele>153.2</ele>
        <time>2021-05-08T10:14:15Z</time>
      </trkpt>
      <trkpt lat="41.3132490" lon="1.6611490">
        <ele>152.2</ele>
        <time>2021-05-08T10:14:19Z</time>
      </trkpt>
      <trkpt lat="41.3132690" lon="1.6613510">
        <ele>152.2</ele>
        <time>2021-05-08T10:14:22Z</time>
      </trkpt>
      <trkpt lat="41.3132940" lon="1.6615010">
        <ele>152.2</ele>
        <time>2021-05-08T10:14:24Z</time>
      </trkpt>
      <trkpt lat="41.3133090" lon="1.6617360">
        <ele>151.8</ele>
        <time>2021-05-08T10:14:27Z</time>
      </trkpt>
      <trkpt lat="41.3133070" lon="1.6618150">
        <ele>151.6</ele>
        <time>2021-05-08T10:14:28Z</time>
      </trkpt>
      <trkpt lat="41.3133420" lon="1.6622430">
        <ele>150.8</ele>
        <time>2021-05-08T10:14:33Z</time>
      </trkpt>
      <trkpt lat="41.3133590" lon="1.6623330">
        <ele>150.6</ele>
        <time>2021-05-08T10:14:34Z</time>
      </trkpt>
      <trkpt lat="41.3133690" lon="1.6624330">
        <ele>150.4</ele>
        <time>2021-05-08T10:14:35Z</time>
      </trkpt>
      <trkpt lat="41.3133970" lon="1.6625900">
        <ele>150.0</ele>
        <time>2021-05-08T10:14:37Z</time>
      </trkpt>
      <trkpt lat="41.3134550" lon="1.6628210">
        <ele>151.0</ele>
        <time>2021-05-08T10:14:41Z</time>
      </trkpt>
      <trkpt lat="41.3134790" lon="1.6629060">
        <ele>152.0</ele>
        <time>2021-05-08T10:14:43Z</time>
      </trkpt>
      <trkpt lat="41.3135170" lon="1.6630180">
        <ele>153.0</ele>
        <time>2021-05-08T10:14:46Z</time>
      </trkpt>
      <trkpt lat="41.3135260" lon="1.6630510">
        <ele>153.2</ele>
        <time>2021-05-08T10:14:47Z</time>
      </trkpt>
      <trkpt lat="41.3135740" lon="1.6632180">
        <ele>154.0</ele>
        <time>2021-05-08T10:14:52Z</time>
      </trkpt>
      <trkpt lat="41.3135830" lon="1.6632490">
        <ele>154.2</ele>
        <time>2021-05-08T10:14:53Z</time>
      </trkpt>
      <trkpt lat="41.3136290" lon="1.6634140">
        <ele>154.6</ele>
        <time>2021-05-08T10:14:58Z</time>
      </trkpt>
      <trkpt lat="41.3137190" lon="1.6636720">
        <ele>154.6</ele>
        <time>2021-05-08T10:15:05Z</time>
      </trkpt>
      <trkpt lat="41.3137740" lon="1.6638620">
        <ele>154.8</ele>
        <time>2021-05-08T10:15:10Z</time>
      </trkpt>
      <trkpt lat="41.3138530" lon="1.6640780">
        <ele>155.4</ele>
        <time>2021-05-08T10:15:16Z</time>
      </trkpt>
      <trkpt lat="41.3138620" lon="1.6641130">
        <ele>155.4</ele>
        <time>2021-05-08T10:15:17Z</time>
      </trkpt>
      <trkpt lat="41.3139300" lon="1.6643720">
        <ele>155.6</ele>
        <time>2021-05-08T10:15:24Z</time>
      </trkpt>
      <trkpt lat="41.3139940" lon="1.6645930">
        <ele>155.6</ele>
        <time>2021-05-08T10:15:31Z</time>
      </trkpt>
      <trkpt lat="41.3139910" lon="1.6646710">
        <ele>155.8</ele>
        <time>2021-05-08T10:15:34Z</time>
      </trkpt>
      <trkpt lat="41.3139620" lon="1.6647060">
        <ele>156.0</ele>
        <time>2021-05-08T10:15:36Z</time>
      </trkpt>
      <trkpt lat="41.3139190" lon="1.6647590">
        <ele>156.0</ele>
        <time>2021-05-08T10:15:39Z</time>
      </trkpt>
      <trkpt lat="41.3138640" lon="1.6648090">
        <ele>155.8</ele>
        <time>2021-05-08T10:15:42Z</time>
      </trkpt>
      <trkpt lat="41.3137090" lon="1.6649300">
        <ele>155.6</ele>
        <time>2021-05-08T10:15:49Z</time>
      </trkpt>
      <trkpt lat="41.3136010" lon="1.6650140">
        <ele>156.0</ele>
        <time>2021-05-08T10:15:55Z</time>
      </trkpt>
      <trkpt lat="41.3134870" lon="1.6651930">
        <ele>156.2</ele>
        <time>2021-05-08T10:16:02Z</time>
      </trkpt>
      <trkpt lat="41.3134200" lon="1.6653450">
        <ele>156.4</ele>
        <time>2021-05-08T10:16:09Z</time>
      </trkpt>
      <trkpt lat="41.3133810" lon="1.6654830">
        <ele>156.6</ele>
        <time>2021-05-08T10:16:15Z</time>
      </trkpt>
      <trkpt lat="41.3133630" lon="1.6655450">
        <ele>156.8</ele>
        <time>2021-05-08T10:16:17Z</time>
      </trkpt>
      <trkpt lat="41.3133390" lon="1.6656030">
        <ele>157.2</ele>
        <time>2021-05-08T10:16:19Z</time>
      </trkpt>
      <trkpt lat="41.3133080" lon="1.6656910">
        <ele>157.6</ele>
        <time>2021-05-08T10:16:22Z</time>
      </trkpt>
      <trkpt lat="41.3132960" lon="1.6657190">
        <ele>157.8</ele>
        <time>2021-05-08T10:16:23Z</time>
      </trkpt>
      <trkpt lat="41.3132400" lon="1.6658490">
        <ele>158.6</ele>
        <time>2021-05-08T10:16:28Z</time>
      </trkpt>
      <trkpt lat="41.3132310" lon="1.6658740">
        <ele>158.8</ele>
        <time>2021-05-08T10:16:29Z</time>
      </trkpt>
      <trkpt lat="41.3131880" lon="1.6659700">
        <ele>159.8</ele>
        <time>2021-05-08T10:16:34Z</time>
      </trkpt>
      <trkpt lat="41.3131780" lon="1.6659950">
        <ele>160.2</ele>
        <time>2021-05-08T10:16:35Z</time>
      </trkpt>
      <trkpt lat="41.3131420" lon="1.6661320">
        <ele>161.0</ele>
        <time>2021-05-08T10:16:40Z</time>
      </trkpt>
      <trkpt lat="41.3131430" lon="1.6661570">
        <ele>161.2</ele>
        <time>2021-05-08T10:16:41Z</time>
      </trkpt>
      <trkpt lat="41.3131600" lon="1.6662690">
        <ele>162.4</ele>
        <time>2021-05-08T10:16:46Z</time>
      </trkpt>
      <trkpt lat="41.3132200" lon="1.6663720">
        <ele>163.6</ele>
        <time>2021-05-08T10:16:52Z</time>
      </trkpt>
      <trkpt lat="41.3132310" lon="1.6663840">
        <ele>163.8</ele>
        <time>2021-05-08T10:16:53Z</time>
      </trkpt>
      <trkpt lat="41.3132380" lon="1.6664030">
        <ele>164.0</ele>
        <time>2021-05-08T10:16:54Z</time>
      </trkpt>
      <trkpt lat="41.3132640" lon="1.6664500">
        <ele>164.6</ele>
        <time>2021-05-08T10:16:57Z</time>
      </trkpt>
      <trkpt lat="41.3132730" lon="1.6664650">
        <ele>164.8</ele>
        <time>2021-05-08T10:16:58Z</time>
      </trkpt>
      <trkpt lat="41.3133060" lon="1.6665150">
        <ele>165.8</ele>
        <time>2021-05-08T10:17:01Z</time>
      </trkpt>
      <trkpt lat="41.3133550" lon="1.6665650">
        <ele>166.8</ele>
        <time>2021-05-08T10:17:05Z</time>
      </trkpt>
      <trkpt lat="41.3133870" lon="1.6665890">
        <ele>167.2</ele>
        <time>2021-05-08T10:17:07Z</time>
      </trkpt>
      <trkpt lat="41.3134580" lon="1.6666430">
        <ele>167.0</ele>
        <time>2021-05-08T10:17:10Z</time>
      </trkpt>
      <trkpt lat="41.3135780" lon="1.6667890">
        <ele>166.8</ele>
        <time>2021-05-08T10:17:15Z</time>
      </trkpt>
      <trkpt lat="41.3137220" lon="1.6669730">
        <ele>166.0</ele>
        <time>2021-05-08T10:17:21Z</time>
      </trkpt>
      <trkpt lat="41.3138240" lon="1.6670990">
        <ele>164.6</ele>
        <time>2021-05-08T10:17:24Z</time>
      </trkpt>
      <trkpt lat="41.3139250" lon="1.6672240">
        <ele>163.4</ele>
        <time>2021-05-08T10:17:27Z</time>
      </trkpt>
      <trkpt lat="41.3139860" lon="1.6674450">
        <ele>162.2</ele>
        <time>2021-05-08T10:17:31Z</time>
      </trkpt>
      <trkpt lat="41.3139210" lon="1.6676340">
        <ele>161.8</ele>
        <time>2021-05-08T10:17:35Z</time>
      </trkpt>
      <trkpt lat="41.3138150" lon="1.6678070">
        <ele>162.4</ele>
        <time>2021-05-08T10:17:40Z</time>
      </trkpt>
      <trkpt lat="41.3136840" lon="1.6680140">
        <ele>162.8</ele>
        <time>2021-05-08T10:17:47Z</time>
      </trkpt>
      <trkpt lat="41.3136490" lon="1.6681410">
        <ele>163.4</ele>
        <time>2021-05-08T10:17:52Z</time>
      </trkpt>
      <trkpt lat="41.3136500" lon="1.6681720">
        <ele>163.8</ele>
        <time>2021-05-08T10:17:53Z</time>
      </trkpt>
      <trkpt lat="41.3136600" lon="1.6682360">
        <ele>164.4</ele>
        <time>2021-05-08T10:17:55Z</time>
      </trkpt>
      <trkpt lat="41.3136950" lon="1.6683030">
        <ele>165.0</ele>
        <time>2021-05-08T10:17:58Z</time>
      </trkpt>
      <trkpt lat="41.3137660" lon="1.6683730">
        <ele>165.4</ele>
        <time>2021-05-08T10:18:02Z</time>
      </trkpt>
      <trkpt lat="41.3138200" lon="1.6684420">
        <ele>165.8</ele>
        <time>2021-05-08T10:18:05Z</time>
      </trkpt>
      <trkpt lat="41.3139120" lon="1.6685550">
        <ele>166.4</ele>
        <time>2021-05-08T10:18:11Z</time>
      </trkpt>
      <trkpt lat="41.3139440" lon="1.6685830">
        <ele>167.2</ele>
        <time>2021-05-08T10:18:13Z</time>
      </trkpt>
      <trkpt lat="41.3139760" lon="1.6686070">
        <ele>167.4</ele>
        <time>2021-05-08T10:18:15Z</time>
      </trkpt>
      <trkpt lat="41.3140480" lon="1.6686550">
        <ele>168.8</ele>
        <time>2021-05-08T10:18:20Z</time>
      </trkpt>
      <trkpt lat="41.3141220" lon="1.6687330">
        <ele>170.0</ele>
        <time>2021-05-08T10:18:26Z</time>
      </trkpt>
      <trkpt lat="41.3141340" lon="1.6687460">
        <ele>170.2</ele>
        <time>2021-05-08T10:18:27Z</time>
      </trkpt>
      <trkpt lat="41.3141870" lon="1.6688500">
        <ele>171.0</ele>
        <time>2021-05-08T10:18:33Z</time>
      </trkpt>
      <trkpt lat="41.3141940" lon="1.6688670">
        <ele>171.2</ele>
        <time>2021-05-08T10:18:34Z</time>
      </trkpt>
      <trkpt lat="41.3142500" lon="1.6690260">
        <ele>172.0</ele>
        <time>2021-05-08T10:18:42Z</time>
      </trkpt>
      <trkpt lat="41.3142550" lon="1.6690460">
        <ele>172.0</ele>
        <time>2021-05-08T10:18:43Z</time>
      </trkpt>
      <trkpt lat="41.3142850" lon="1.6691440">
        <ele>172.4</ele>
        <time>2021-05-08T10:18:49Z</time>
      </trkpt>
      <trkpt lat="41.3143050" lon="1.6692130">
        <ele>173.2</ele>
        <time>2021-05-08T10:18:53Z</time>
      </trkpt>
      <trkpt lat="41.3143370" lon="1.6693080">
        <ele>173.8</ele>
        <time>2021-05-08T10:18:58Z</time>
      </trkpt>
      <trkpt lat="41.3143840" lon="1.6694150">
        <ele>174.6</ele>
        <time>2021-05-08T10:19:04Z</time>
      </trkpt>
      <trkpt lat="41.3143930" lon="1.6694310">
        <ele>174.8</ele>
        <time>2021-05-08T10:19:05Z</time>
      </trkpt>
      <trkpt lat="41.3144330" lon="1.6695250">
        <ele>175.6</ele>
        <time>2021-05-08T10:19:10Z</time>
      </trkpt>
      <trkpt lat="41.3144640" lon="1.6695840">
        <ele>176.4</ele>
        <time>2021-05-08T10:19:14Z</time>
      </trkpt>
      <trkpt lat="41.3144700" lon="1.6696010">
        <ele>176.8</ele>
        <time>2021-05-08T10:19:15Z</time>
      </trkpt>
      <trkpt lat="41.3145090" lon="1.6696740">
        <ele>177.8</ele>
        <time>2021-05-08T10:19:20Z</time>
      </trkpt>
      <trkpt lat="41.3145270" lon="1.6697010">
        <ele>178.4</ele>
        <time>2021-05-08T10:19:22Z</time>
      </trkpt>
      <trkpt lat="41.3145550" lon="1.6697310">
        <ele>178.8</ele>
        <time>2021-05-08T10:19:25Z</time>
      </trkpt>
      <trkpt lat="41.3145610" lon="1.6697470">
        <ele>179.0</ele>
        <time>2021-05-08T10:19:26Z</time>
      </trkpt>
      <trkpt lat="41.3145670" lon="1.6697610">
        <ele>179.2</ele>
        <time>2021-05-08T10:19:27Z</time>
      </trkpt>
      <trkpt lat="41.3145890" lon="1.6698160">
        <ele>180.0</ele>
        <time>2021-05-08T10:19:31Z</time>
      </trkpt>
      <trkpt lat="41.3145950" lon="1.6698280">
        <ele>180.2</ele>
        <time>2021-05-08T10:19:32Z</time>
      </trkpt>
      <trkpt lat="41.3146050" lon="1.6698570">
        <ele>180.8</ele>
        <time>2021-05-08T10:19:34Z</time>
      </trkpt>
      <trkpt lat="41.3146080" lon="1.6698730">
        <ele>181.0</ele>
        <time>2021-05-08T10:19:35Z</time>
      </trkpt>
      <trkpt lat="41.3146150" lon="1.6699070">
        <ele>181.4</ele>
        <time>2021-05-08T10:19:37Z</time>
      </trkpt>
      <trkpt lat="41.3146290" lon="1.6699880">
        <ele>182.4</ele>
        <time>2021-05-08T10:19:42Z</time>
      </trkpt>
      <trkpt lat="41.3146320" lon="1.6700210">
        <ele>182.8</ele>
        <time>2021-05-08T10:19:44Z</time>
      </trkpt>
      <trkpt lat="41.3146500" lon="1.6701370">
        <ele>183.2</ele>
        <time>2021-05-08T10:19:50Z</time>
      </trkpt>
      <trkpt lat="41.3146550" lon="1.6701540">
        <ele>183.6</ele>
        <time>2021-05-08T10:19:51Z</time>
      </trkpt>
      <trkpt lat="41.3146900" lon="1.6702210">
        <ele>184.0</ele>
        <time>2021-05-08T10:19:56Z</time>
      </trkpt>
      <trkpt lat="41.3147220" lon="1.6702500">
        <ele>184.2</ele>
        <time>2021-05-08T10:19:59Z</time>
      </trkpt>
      <trkpt lat="41.3147420" lon="1.6702530">
        <ele>184.6</ele>
        <time>2021-05-08T10:20:01Z</time>
      </trkpt>
      <trkpt lat="41.3148150" lon="1.6702040">
        <ele>185.4</ele>
        <time>2021-05-08T10:20:08Z</time>
      </trkpt>
      <trkpt lat="41.3148500" lon="1.6701550">
        <ele>185.6</ele>
        <time>2021-05-08T10:20:12Z</time>
      </trkpt>
      <trkpt lat="41.3148860" lon="1.6700890">
        <ele>186.2</ele>
        <time>2021-05-08T10:20:16Z</time>
      </trkpt>
      <trkpt lat="41.3149860" lon="1.6699740">
        <ele>186.4</ele>
        <time>2021-05-08T10:20:24Z</time>
      </trkpt>
      <trkpt lat="41.3150560" lon="1.6699130">
        <ele>186.6</ele>
        <time>2021-05-08T10:20:28Z</time>
      </trkpt>
      <trkpt lat="41.3151020" lon="1.6698730">
        <ele>186.4</ele>
        <time>2021-05-08T10:20:30Z</time>
      </trkpt>
      <trkpt lat="41.3151930" lon="1.6697680">
        <ele>185.6</ele>
        <time>2021-05-08T10:20:34Z</time>
      </trkpt>
      <trkpt lat="41.3152560" lon="1.6696970">
        <ele>185.2</ele>
        <time>2021-05-08T10:20:36Z</time>
      </trkpt>
      <trkpt lat="41.3153240" lon="1.6696270">
        <ele>184.6</ele>
        <time>2021-05-08T10:20:38Z</time>
      </trkpt>
      <trkpt lat="41.3153640" lon="1.6696030">
        <ele>184.4</ele>
        <time>2021-05-08T10:20:39Z</time>
      </trkpt>
      <trkpt lat="41.3154110" lon="1.6695920">
        <ele>183.6</ele>
        <time>2021-05-08T10:20:40Z</time>
      </trkpt>
      <trkpt lat="41.3154610" lon="1.6695920">
        <ele>182.8</ele>
        <time>2021-05-08T10:20:41Z</time>
      </trkpt>
      <trkpt lat="41.3155140" lon="1.6695980">
        <ele>182.6</ele>
        <time>2021-05-08T10:20:42Z</time>
      </trkpt>
      <trkpt lat="41.3155710" lon="1.6696190">
        <ele>182.0</ele>
        <time>2021-05-08T10:20:43Z</time>
      </trkpt>
      <trkpt lat="41.3156250" lon="1.6696550">
        <ele>181.6</ele>
        <time>2021-05-08T10:20:44Z</time>
      </trkpt>
      <trkpt lat="41.3157820" lon="1.6697720">
        <ele>180.4</ele>
        <time>2021-05-08T10:20:47Z</time>
      </trkpt>
      <trkpt lat="41.3158820" lon="1.6698550">
        <ele>179.8</ele>
        <time>2021-05-08T10:20:49Z</time>
      </trkpt>
      <trkpt lat="41.3159360" lon="1.6698950">
        <ele>179.6</ele>
        <time>2021-05-08T10:20:50Z</time>
      </trkpt>
      <trkpt lat="41.3159970" lon="1.6699270">
        <ele>179.0</ele>
        <time>2021-05-08T10:20:51Z</time>
      </trkpt>
      <trkpt lat="41.3161350" lon="1.6699850">
        <ele>177.4</ele>
        <time>2021-05-08T10:20:53Z</time>
      </trkpt>
      <trkpt lat="41.3163480" lon="1.6700620">
        <ele>176.2</ele>
        <time>2021-05-08T10:20:56Z</time>
      </trkpt>
      <trkpt lat="41.3164680" lon="1.6701280">
        <ele>174.6</ele>
        <time>2021-05-08T10:20:58Z</time>
      </trkpt>
      <trkpt lat="41.3165370" lon="1.6702060">
        <ele>173.4</ele>
        <time>2021-05-08T10:21:00Z</time>
      </trkpt>
      <trkpt lat="41.3165630" lon="1.6702330">
        <ele>173.0</ele>
        <time>2021-05-08T10:21:01Z</time>
      </trkpt>
      <trkpt lat="41.3165910" lon="1.6702560">
        <ele>172.2</ele>
        <time>2021-05-08T10:21:02Z</time>
      </trkpt>
      <trkpt lat="41.3166600" lon="1.6702910">
        <ele>170.4</ele>
        <time>2021-05-08T10:21:04Z</time>
      </trkpt>
      <trkpt lat="41.3167310" lon="1.6703330">
        <ele>169.8</ele>
        <time>2021-05-08T10:21:06Z</time>
      </trkpt>
      <trkpt lat="41.3167670" lon="1.6703640">
        <ele>169.4</ele>
        <time>2021-05-08T10:21:07Z</time>
      </trkpt>
      <trkpt lat="41.3168730" lon="1.6704870">
        <ele>168.6</ele>
        <time>2021-05-08T10:21:10Z</time>
      </trkpt>
      <trkpt lat="41.3169230" lon="1.6705040">
        <ele>168.0</ele>
        <time>2021-05-08T10:21:11Z</time>
      </trkpt>
      <trkpt lat="41.3170200" lon="1.6704990">
        <ele>167.4</ele>
        <time>2021-05-08T10:21:13Z</time>
      </trkpt>
      <trkpt lat="41.3170690" lon="1.6705020">
        <ele>167.2</ele>
        <time>2021-05-08T10:21:14Z</time>
      </trkpt>
      <trkpt lat="41.3171080" lon="1.6705200">
        <ele>167.0</ele>
        <time>2021-05-08T10:21:15Z</time>
      </trkpt>
      <trkpt lat="41.3171410" lon="1.6705420">
        <ele>166.8</ele>
        <time>2021-05-08T10:21:16Z</time>
      </trkpt>
      <trkpt lat="41.3173020" lon="1.6705800">
        <ele>166.2</ele>
        <time>2021-05-08T10:21:20Z</time>
      </trkpt>
      <trkpt lat="41.3174730" lon="1.6705500">
        <ele>166.6</ele>
        <time>2021-05-08T10:21:25Z</time>
      </trkpt>
      <trkpt lat="41.3175360" lon="1.6705680">
        <ele>166.8</ele>
        <time>2021-05-08T10:21:28Z</time>
      </trkpt>
      <trkpt lat="41.3175940" lon="1.6705970">
        <ele>167.4</ele>
        <time>2021-05-08T10:21:31Z</time>
      </trkpt>
      <trkpt lat="41.3176710" lon="1.6706510">
        <ele>168.2</ele>
        <time>2021-05-08T10:21:36Z</time>
      </trkpt>
      <trkpt lat="41.3176810" lon="1.6706660">
        <ele>168.2</ele>
        <time>2021-05-08T10:21:37Z</time>
      </trkpt>
      <trkpt lat="41.3177330" lon="1.6707570">
        <ele>168.8</ele>
        <time>2021-05-08T10:21:43Z</time>
      </trkpt>
      <trkpt lat="41.3177430" lon="1.6707690">
        <ele>169.2</ele>
        <time>2021-05-08T10:21:44Z</time>
      </trkpt>
      <trkpt lat="41.3178190" lon="1.6708770">
        <ele>170.2</ele>
        <time>2021-05-08T10:21:52Z</time>
      </trkpt>
      <trkpt lat="41.3178290" lon="1.6708900">
        <ele>170.2</ele>
        <time>2021-05-08T10:21:53Z</time>
      </trkpt>
      <trkpt lat="41.3179010" lon="1.6709580">
        <ele>170.6</ele>
        <time>2021-05-08T10:21:59Z</time>
      </trkpt>
      <trkpt lat="41.3179940" lon="1.6710400">
        <ele>171.2</ele>
        <time>2021-05-08T10:22:07Z</time>
      </trkpt>
      <trkpt lat="41.3180210" lon="1.6710550">
        <ele>171.6</ele>
        <time>2021-05-08T10:22:09Z</time>
      </trkpt>
      <trkpt lat="41.3181290" lon="1.6711140">
        <ele>172.0</ele>
        <time>2021-05-08T10:22:17Z</time>
      </trkpt>
      <trkpt lat="41.3182610" lon="1.6711940">
        <ele>171.6</ele>
        <time>2021-05-08T10:22:25Z</time>
      </trkpt>
      <trkpt lat="41.3183860" lon="1.6712920">
        <ele>171.2</ele>
        <time>2021-05-08T10:22:32Z</time>
      </trkpt>
      <trkpt lat="41.3185590" lon="1.6714110">
        <ele>170.4</ele>
        <time>2021-05-08T10:22:40Z</time>
      </trkpt>
      <trkpt lat="41.3186170" lon="1.6714520">
        <ele>170.0</ele>
        <time>2021-05-08T10:22:42Z</time>
      </trkpt>
      <trkpt lat="41.3187550" lon="1.6715090">
        <ele>169.6</ele>
        <time>2021-05-08T10:22:46Z</time>
      </trkpt>
      <trkpt lat="41.3189370" lon="1.6714670">
        <ele>169.6</ele>
        <time>2021-05-08T10:22:51Z</time>
      </trkpt>
      <trkpt lat="41.3191160" lon="1.6714970">
        <ele>169.8</ele>
        <time>2021-05-08T10:22:56Z</time>
      </trkpt>
      <trkpt lat="41.3193280" lon="1.6715060">
        <ele>169.6</ele>
        <time>2021-05-08T10:23:03Z</time>
      </trkpt>
      <trkpt lat="41.3194720" lon="1.6715180">
        <ele>171.0</ele>
        <time>2021-05-08T10:23:09Z</time>
      </trkpt>
      <trkpt lat="41.3194950" lon="1.6715240">
        <ele>171.2</ele>
        <time>2021-05-08T10:23:10Z</time>
      </trkpt>
      <trkpt lat="41.3196540" lon="1.6715400">
        <ele>171.0</ele>
        <time>2021-05-08T10:23:15Z</time>
      </trkpt>
      <trkpt lat="41.3198170" lon="1.6715940">
        <ele>171.4</ele>
        <time>2021-05-08T10:23:20Z</time>
      </trkpt>
      <trkpt lat="41.3198580" lon="1.6716950">
        <ele>171.4</ele>
        <time>2021-05-08T10:23:25Z</time>
      </trkpt>
      <trkpt lat="41.3198920" lon="1.6717840">
        <ele>172.4</ele>
        <time>2021-05-08T10:23:29Z</time>
      </trkpt>
      <trkpt lat="41.3199100" lon="1.6718240">
        <ele>172.8</ele>
        <time>2021-05-08T10:23:31Z</time>
      </trkpt>
      <trkpt lat="41.3199500" lon="1.6719250">
        <ele>173.4</ele>
        <time>2021-05-08T10:23:36Z</time>
      </trkpt>
      <trkpt lat="41.3199950" lon="1.6720260">
        <ele>173.8</ele>
        <time>2021-05-08T10:23:41Z</time>
      </trkpt>
      <trkpt lat="41.3200380" lon="1.6721280">
        <ele>174.4</ele>
        <time>2021-05-08T10:23:46Z</time>
      </trkpt>
      <trkpt lat="41.3200530" lon="1.6721680">
        <ele>174.6</ele>
        <time>2021-05-08T10:23:48Z</time>
      </trkpt>
      <trkpt lat="41.3200990" lon="1.6722580">
        <ele>175.6</ele>
        <time>2021-05-08T10:23:53Z</time>
      </trkpt>
      <trkpt lat="41.3201070" lon="1.6722760">
        <ele>175.8</ele>
        <time>2021-05-08T10:23:54Z</time>
      </trkpt>
      <trkpt lat="41.3201550" lon="1.6723840">
        <ele>176.6</ele>
        <time>2021-05-08T10:24:00Z</time>
      </trkpt>
      <trkpt lat="41.3201800" lon="1.6724410">
        <ele>177.0</ele>
        <time>2021-05-08T10:24:03Z</time>
      </trkpt>
      <trkpt lat="41.3201960" lon="1.6724790">
        <ele>177.6</ele>
        <time>2021-05-08T10:24:05Z</time>
      </trkpt>
      <trkpt lat="41.3202520" lon="1.6726090">
        <ele>177.8</ele>
        <time>2021-05-08T10:24:11Z</time>
      </trkpt>
      <trkpt lat="41.3203560" lon="1.6728420">
        <ele>177.8</ele>
        <time>2021-05-08T10:24:19Z</time>
      </trkpt>
      <trkpt lat="41.3204680" lon="1.6731460">
        <ele>177.8</ele>
        <time>2021-05-08T10:24:28Z</time>
      </trkpt>
      <trkpt lat="41.3205590" lon="1.6733980">
        <ele>176.8</ele>
        <time>2021-05-08T10:24:34Z</time>
      </trkpt>
      <trkpt lat="41.3205740" lon="1.6734430">
        <ele>176.6</ele>
        <time>2021-05-08T10:24:35Z</time>
      </trkpt>
      <trkpt lat="41.3206320" lon="1.6736140">
        <ele>175.2</ele>
        <time>2021-05-08T10:24:39Z</time>
      </trkpt>
      <trkpt lat="41.3206710" lon="1.6737410">
        <ele>174.6</ele>
        <time>2021-05-08T10:24:42Z</time>
      </trkpt>
      <trkpt lat="41.3207030" lon="1.6738250">
        <ele>174.2</ele>
        <time>2021-05-08T10:24:44Z</time>
      </trkpt>
      <trkpt lat="41.3207290" lon="1.6738530">
        <ele>174.2</ele>
        <time>2021-05-08T10:24:45Z</time>
      </trkpt>
      <trkpt lat="41.3207580" lon="1.6738660">
        <ele>174.2</ele>
        <time>2021-05-08T10:24:46Z</time>
      </trkpt>
      <trkpt lat="41.3208320" lon="1.6738040">
        <ele>174.0</ele>
        <time>2021-05-08T10:24:49Z</time>
      </trkpt>
      <trkpt lat="41.3208830" lon="1.6737330">
        <ele>174.0</ele>
        <time>2021-05-08T10:24:51Z</time>
      </trkpt>
      <trkpt lat="41.3209570" lon="1.6736380">
        <ele>173.8</ele>
        <time>2021-05-08T10:24:54Z</time>
      </trkpt>
      <trkpt lat="41.3210220" lon="1.6735370">
        <ele>173.6</ele>
        <time>2021-05-08T10:24:57Z</time>
      </trkpt>
      <trkpt lat="41.3211030" lon="1.6734360">
        <ele>173.6</ele>
        <time>2021-05-08T10:25:01Z</time>
      </trkpt>
      <trkpt lat="41.3212100" lon="1.6734650">
        <ele>174.8</ele>
        <time>2021-05-08T10:25:07Z</time>
      </trkpt>
      <trkpt lat="41.3212610" lon="1.6735020">
        <ele>175.2</ele>
        <time>2021-05-08T10:25:10Z</time>
      </trkpt>
      <trkpt lat="41.3212930" lon="1.6735380">
        <ele>175.8</ele>
        <time>2021-05-08T10:25:12Z</time>
      </trkpt>
      <trkpt lat="41.3213620" lon="1.6736950">
        <ele>175.8</ele>
        <time>2021-05-08T10:25:19Z</time>
      </trkpt>
      <trkpt lat="41.3213700" lon="1.6738080">
        <ele>176.4</ele>
        <time>2021-05-08T10:25:24Z</time>
      </trkpt>
      <trkpt lat="41.3213730" lon="1.6738320">
        <ele>176.6</ele>
        <time>2021-05-08T10:25:25Z</time>
      </trkpt>
      <trkpt lat="41.3213960" lon="1.6740460">
        <ele>177.2</ele>
        <time>2021-05-08T10:25:34Z</time>
      </trkpt>
      <trkpt lat="41.3214060" lon="1.6740920">
        <ele>177.4</ele>
        <time>2021-05-08T10:25:36Z</time>
      </trkpt>
      <trkpt lat="41.3214180" lon="1.6741620">
        <ele>177.6</ele>
        <time>2021-05-08T10:25:39Z</time>
      </trkpt>
      <trkpt lat="41.3214370" lon="1.6742480">
        <ele>177.8</ele>
        <time>2021-05-08T10:25:43Z</time>
      </trkpt>
      <trkpt lat="41.3215070" lon="1.6744570">
        <ele>177.4</ele>
        <time>2021-05-08T10:25:51Z</time>
      </trkpt>
      <trkpt lat="41.3215720" lon="1.6746180">
        <ele>177.8</ele>
        <time>2021-05-08T10:25:57Z</time>
      </trkpt>
      <trkpt lat="41.3216580" lon="1.6748520">
        <ele>178.2</ele>
        <time>2021-05-08T10:26:05Z</time>
      </trkpt>
      <trkpt lat="41.3217470" lon="1.6750630">
        <ele>178.6</ele>
        <time>2021-05-08T10:26:13Z</time>
      </trkpt>
      <trkpt lat="41.3217590" lon="1.6750890">
        <ele>179.0</ele>
        <time>2021-05-08T10:26:14Z</time>
      </trkpt>
      <trkpt lat="41.3218470" lon="1.6752880">
        <ele>179.6</ele>
        <time>2021-05-08T10:26:22Z</time>
      </trkpt>
      <trkpt lat="41.3218580" lon="1.6753130">
        <ele>179.8</ele>
        <time>2021-05-08T10:26:23Z</time>
      </trkpt>
      <trkpt lat="41.3219190" lon="1.6754350">
        <ele>179.8</ele>
        <time>2021-05-08T10:26:28Z</time>
      </trkpt>
      <trkpt lat="41.3220320" lon="1.6756840">
        <ele>178.6</ele>
        <time>2021-05-08T10:26:38Z</time>
      </trkpt>
      <trkpt lat="41.3221450" lon="1.6759040">
        <ele>180.0</ele>
        <time>2021-05-08T10:26:47Z</time>
      </trkpt>
      <trkpt lat="41.3222080" lon="1.6760520">
        <ele>180.2</ele>
        <time>2021-05-08T10:26:53Z</time>
      </trkpt>
      <trkpt lat="41.3222910" lon="1.6762400">
        <ele>180.2</ele>
        <time>2021-05-08T10:27:00Z</time>
      </trkpt>
      <trkpt lat="41.3224040" lon="1.6764670">
        <ele>180.4</ele>
        <time>2021-05-08T10:27:08Z</time>
      </trkpt>
      <trkpt lat="41.3224370" lon="1.6765260">
        <ele>180.8</ele>
        <time>2021-05-08T10:27:10Z</time>
      </trkpt>
      <trkpt lat="41.3225190" lon="1.6766840">
        <ele>180.6</ele>
        <time>2021-05-08T10:27:15Z</time>
      </trkpt>
      <trkpt lat="41.3226050" lon="1.6769180">
        <ele>180.8</ele>
        <time>2021-05-08T10:27:22Z</time>
      </trkpt>
      <trkpt lat="41.3227320" lon="1.6771490">
        <ele>181.0</ele>
        <time>2021-05-08T10:27:30Z</time>
      </trkpt>
      <trkpt lat="41.3228890" lon="1.6772400">
        <ele>180.0</ele>
        <time>2021-05-08T10:27:37Z</time>
      </trkpt>
      <trkpt lat="41.3229170" lon="1.6772440">
        <ele>179.6</ele>
        <time>2021-05-08T10:27:38Z</time>
      </trkpt>
      <trkpt lat="41.3231200" lon="1.6772450">
        <ele>179.0</ele>
        <time>2021-05-08T10:27:44Z</time>
      </trkpt>
      <trkpt lat="41.3231540" lon="1.6772470">
        <ele>178.2</ele>
        <time>2021-05-08T10:27:45Z</time>
      </trkpt>
      <trkpt lat="41.3232170" lon="1.6772690">
        <ele>177.2</ele>
        <time>2021-05-08T10:27:47Z</time>
      </trkpt>
      <trkpt lat="41.3232720" lon="1.6773090">
        <ele>176.8</ele>
        <time>2021-05-08T10:27:49Z</time>
      </trkpt>
      <trkpt lat="41.3233530" lon="1.6774450">
        <ele>176.0</ele>
        <time>2021-05-08T10:27:53Z</time>
      </trkpt>
      <trkpt lat="41.3233730" lon="1.6774830">
        <ele>175.8</ele>
        <time>2021-05-08T10:27:54Z</time>
      </trkpt>
      <trkpt lat="41.3233850" lon="1.6775170">
        <ele>175.8</ele>
        <time>2021-05-08T10:27:55Z</time>
      </trkpt>
      <trkpt lat="41.3233900" lon="1.6776180">
        <ele>176.4</ele>
        <time>2021-05-08T10:27:58Z</time>
      </trkpt>
      <trkpt lat="41.3233850" lon="1.6776760">
        <ele>177.2</ele>
        <time>2021-05-08T10:28:00Z</time>
      </trkpt>
      <trkpt lat="41.3233650" lon="1.6777660">
        <ele>177.4</ele>
        <time>2021-05-08T10:28:04Z</time>
      </trkpt>
      <trkpt lat="41.3233410" lon="1.6778360">
        <ele>178.4</ele>
        <time>2021-05-08T10:28:08Z</time>
      </trkpt>
      <trkpt lat="41.3233320" lon="1.6778570">
        <ele>178.6</ele>
        <time>2021-05-08T10:28:09Z</time>
      </trkpt>
      <trkpt lat="41.3233070" lon="1.6779740">
        <ele>179.2</ele>
        <time>2021-05-08T10:28:15Z</time>
      </trkpt>
      <trkpt lat="41.3232930" lon="1.6780840">
        <ele>179.4</ele>
        <time>2021-05-08T10:28:20Z</time>
      </trkpt>
      <trkpt lat="41.3232970" lon="1.6781310">
        <ele>179.8</ele>
        <time>2021-05-08T10:28:22Z</time>
      </trkpt>
      <trkpt lat="41.3233060" lon="1.6782350">
        <ele>180.6</ele>
        <time>2021-05-08T10:28:26Z</time>
      </trkpt>
      <trkpt lat="41.3233250" lon="1.6783210">
        <ele>180.8</ele>
        <time>2021-05-08T10:28:29Z</time>
      </trkpt>
      <trkpt lat="41.3234090" lon="1.6785470">
        <ele>180.6</ele>
        <time>2021-05-08T10:28:37Z</time>
      </trkpt>
      <trkpt lat="41.3234960" lon="1.6787210">
        <ele>180.6</ele>
        <time>2021-05-08T10:28:43Z</time>
      </trkpt>
      <trkpt lat="41.3236510" lon="1.6790310">
        <ele>180.6</ele>
        <time>2021-05-08T10:28:53Z</time>
      </trkpt>
      <trkpt lat="41.3237220" lon="1.6791710">
        <ele>181.0</ele>
        <time>2021-05-08T10:28:58Z</time>
      </trkpt>
      <trkpt lat="41.3238250" lon="1.6793350">
        <ele>180.0</ele>
        <time>2021-05-08T10:29:05Z</time>
      </trkpt>
      <trkpt lat="41.3239450" lon="1.6795480">
        <ele>181.0</ele>
        <time>2021-05-08T10:29:14Z</time>
      </trkpt>
      <trkpt lat="41.3240040" lon="1.6796600">
        <ele>181.6</ele>
        <time>2021-05-08T10:29:19Z</time>
      </trkpt>
      <trkpt lat="41.3240460" lon="1.6797430">
        <ele>182.4</ele>
        <time>2021-05-08T10:29:23Z</time>
      </trkpt>
      <trkpt lat="41.3241080" lon="1.6798640">
        <ele>182.2</ele>
        <time>2021-05-08T10:29:29Z</time>
      </trkpt>
      <trkpt lat="41.3241360" lon="1.6799100">
        <ele>182.6</ele>
        <time>2021-05-08T10:29:31Z</time>
      </trkpt>
      <trkpt lat="41.3241930" lon="1.6800260">
        <ele>183.4</ele>
        <time>2021-05-08T10:29:36Z</time>
      </trkpt>
      <trkpt lat="41.3242310" lon="1.6801070">
        <ele>183.6</ele>
        <time>2021-05-08T10:29:39Z</time>
      </trkpt>
      <trkpt lat="41.3242970" lon="1.6802330">
        <ele>183.4</ele>
        <time>2021-05-08T10:29:44Z</time>
      </trkpt>
      <trkpt lat="41.3243200" lon="1.6802810">
        <ele>182.6</ele>
        <time>2021-05-08T10:29:46Z</time>
      </trkpt>
      <trkpt lat="41.3244070" lon="1.6804480">
        <ele>182.2</ele>
        <time>2021-05-08T10:29:53Z</time>
      </trkpt>
      <trkpt lat="41.3245030" lon="1.6806340">
        <ele>182.2</ele>
        <time>2021-05-08T10:30:00Z</time>
      </trkpt>
      <trkpt lat="41.3246030" lon="1.6808250">
        <ele>182.2</ele>
        <time>2021-05-08T10:30:07Z</time>
      </trkpt>
      <trkpt lat="41.3246740" lon="1.6809640">
        <ele>182.0</ele>
        <time>2021-05-08T10:30:12Z</time>
      </trkpt>
      <trkpt lat="41.3247120" lon="1.6810380">
        <ele>182.0</ele>
        <time>2021-05-08T10:30:15Z</time>
      </trkpt>
      <trkpt lat="41.3248260" lon="1.6812310">
        <ele>182.6</ele>
        <time>2021-05-08T10:30:23Z</time>
      </trkpt>
      <trkpt lat="41.3249490" lon="1.6814280">
        <ele>183.2</ele>
        <time>2021-05-08T10:30:32Z</time>
      </trkpt>
      <trkpt lat="41.3250340" lon="1.6815400">
        <ele>183.4</ele>
        <time>2021-05-08T10:30:39Z</time>
      </trkpt>
      <trkpt lat="41.3250540" lon="1.6815730">
        <ele>183.6</ele>
        <time>2021-05-08T10:30:41Z</time>
      </trkpt>
      <trkpt lat="41.3251170" lon="1.6816930">
        <ele>183.8</ele>
        <time>2021-05-08T10:30:48Z</time>
      </trkpt>
      <trkpt lat="41.3252130" lon="1.6818460">
        <ele>184.4</ele>
        <time>2021-05-08T10:30:54Z</time>
      </trkpt>
      <trkpt lat="41.3252450" lon="1.6819050">
        <ele>184.4</ele>
        <time>2021-05-08T10:30:56Z</time>
      </trkpt>
      <trkpt lat="41.3253150" lon="1.6820220">
        <ele>184.6</ele>
        <time>2021-05-08T10:31:01Z</time>
      </trkpt>
      <trkpt lat="41.3254550" lon="1.6822270">
        <ele>185.4</ele>
        <time>2021-05-08T10:31:10Z</time>
      </trkpt>
      <trkpt lat="41.3254880" lon="1.6822730">
        <ele>185.6</ele>
        <time>2021-05-08T10:31:12Z</time>
      </trkpt>
      <trkpt lat="41.3255890" lon="1.6824470">
        <ele>186.6</ele>
        <time>2021-05-08T10:31:19Z</time>
      </trkpt>
      <trkpt lat="41.3256810" lon="1.6825930">
        <ele>186.6</ele>
        <time>2021-05-08T10:31:25Z</time>
      </trkpt>
      <trkpt lat="41.3257440" lon="1.6826980">
        <ele>187.0</ele>
        <time>2021-05-08T10:31:29Z</time>
      </trkpt>
      <trkpt lat="41.3258750" lon="1.6829140">
        <ele>187.0</ele>
        <time>2021-05-08T10:31:37Z</time>
      </trkpt>
      <trkpt lat="41.3260040" lon="1.6831270">
        <ele>187.0</ele>
        <time>2021-05-08T10:31:45Z</time>
      </trkpt>
      <trkpt lat="41.3260210" lon="1.6831460">
        <ele>187.6</ele>
        <time>2021-05-08T10:31:46Z</time>
      </trkpt>
      <trkpt lat="41.3261260" lon="1.6831900">
        <ele>187.8</ele>
        <time>2021-05-08T10:31:51Z</time>
      </trkpt>
      <trkpt lat="41.3263740" lon="1.6831990">
        <ele>188.4</ele>
        <time>2021-05-08T10:32:00Z</time>
      </trkpt>
      <trkpt lat="41.3264350" lon="1.6831920">
        <ele>188.8</ele>
        <time>2021-05-08T10:32:02Z</time>
      </trkpt>
      <trkpt lat="41.3266530" lon="1.6831760">
        <ele>188.6</ele>
        <time>2021-05-08T10:32:09Z</time>
      </trkpt>
      <trkpt lat="41.3268490" lon="1.6831450">
        <ele>189.0</ele>
        <time>2021-05-08T10:32:17Z</time>
      </trkpt>
      <trkpt lat="41.3270560" lon="1.6831180">
        <ele>189.6</ele>
        <time>2021-05-08T10:32:25Z</time>
      </trkpt>
      <trkpt lat="41.3271630" lon="1.6831300">
        <ele>189.8</ele>
        <time>2021-05-08T10:32:29Z</time>
      </trkpt>
      <trkpt lat="41.3272090" lon="1.6831760">
        <ele>190.2</ele>
        <time>2021-05-08T10:32:31Z</time>
      </trkpt>
      <trkpt lat="41.3272340" lon="1.6832470">
        <ele>190.4</ele>
        <time>2021-05-08T10:32:33Z</time>
      </trkpt>
      <trkpt lat="41.3272480" lon="1.6833210">
        <ele>190.4</ele>
        <time>2021-05-08T10:32:35Z</time>
      </trkpt>
      <trkpt lat="41.3272680" lon="1.6835120">
        <ele>190.8</ele>
        <time>2021-05-08T10:32:40Z</time>
      </trkpt>
      <trkpt lat="41.3272740" lon="1.6835860">
        <ele>190.8</ele>
        <time>2021-05-08T10:32:42Z</time>
      </trkpt>
      <trkpt lat="41.3272900" lon="1.6838270">
        <ele>191.0</ele>
        <time>2021-05-08T10:32:49Z</time>
      </trkpt>
      <trkpt lat="41.3272930" lon="1.6839600">
        <ele>191.8</ele>
        <time>2021-05-08T10:32:53Z</time>
      </trkpt>
      <trkpt lat="41.3273060" lon="1.6840870">
        <ele>192.4</ele>
        <time>2021-05-08T10:32:57Z</time>
      </trkpt>
      <trkpt lat="41.3273130" lon="1.6842260">
        <ele>193.0</ele>
        <time>2021-05-08T10:33:02Z</time>
      </trkpt>
      <trkpt lat="41.3273180" lon="1.6842840">
        <ele>193.2</ele>
        <time>2021-05-08T10:33:04Z</time>
      </trkpt>
      <trkpt lat="41.3273210" lon="1.6844570">
        <ele>193.8</ele>
        <time>2021-05-08T10:33:11Z</time>
      </trkpt>
      <trkpt lat="41.3273400" lon="1.6846200">
        <ele>194.0</ele>
        <time>2021-05-08T10:33:17Z</time>
      </trkpt>
      <trkpt lat="41.3273400" lon="1.6846480">
        <ele>194.2</ele>
        <time>2021-05-08T10:33:18Z</time>
      </trkpt>
      <trkpt lat="41.3273470" lon="1.6848020">
        <ele>194.6</ele>
        <time>2021-05-08T10:33:24Z</time>
      </trkpt>
      <trkpt lat="41.3273550" lon="1.6848940">
        <ele>195.0</ele>
        <time>2021-05-08T10:33:27Z</time>
      </trkpt>
      <trkpt lat="41.3273780" lon="1.6850420">
        <ele>195.4</ele>
        <time>2021-05-08T10:33:32Z</time>
      </trkpt>
      <trkpt lat="41.3274090" lon="1.6852870">
        <ele>195.6</ele>
        <time>2021-05-08T10:33:41Z</time>
      </trkpt>
      <trkpt lat="41.3274590" lon="1.6855300">
        <ele>195.0</ele>
        <time>2021-05-08T10:33:46Z</time>
      </trkpt>
      <trkpt lat="41.3275090" lon="1.6858300">
        <ele>193.8</ele>
        <time>2021-05-08T10:33:50Z</time>
      </trkpt>
      <trkpt lat="41.3275160" lon="1.6859050">
        <ele>193.4</ele>
        <time>2021-05-08T10:33:51Z</time>
      </trkpt>
      <trkpt lat="41.3275620" lon="1.6862920">
        <ele>193.0</ele>
        <time>2021-05-08T10:33:57Z</time>
      </trkpt>
      <trkpt lat="41.3276050" lon="1.6864770">
        <ele>193.8</ele>
        <time>2021-05-08T10:34:02Z</time>
      </trkpt>
      <trkpt lat="41.3276450" lon="1.6866390">
        <ele>194.8</ele>
        <time>2021-05-08T10:34:06Z</time>
      </trkpt>
      <trkpt lat="41.3276660" lon="1.6867850">
        <ele>195.4</ele>
        <time>2021-05-08T10:34:10Z</time>
      </trkpt>
      <trkpt lat="41.3276680" lon="1.6868940">
        <ele>196.2</ele>
        <time>2021-05-08T10:34:13Z</time>
      </trkpt>
      <trkpt lat="41.3276740" lon="1.6870200">
        <ele>197.6</ele>
        <time>2021-05-08T10:34:17Z</time>
      </trkpt>
      <trkpt lat="41.3276740" lon="1.6870510">
        <ele>198.0</ele>
        <time>2021-05-08T10:34:18Z</time>
      </trkpt>
      <trkpt lat="41.3276710" lon="1.6871090">
        <ele>198.6</ele>
        <time>2021-05-08T10:34:20Z</time>
      </trkpt>
      <trkpt lat="41.3276930" lon="1.6872500">
        <ele>199.4</ele>
        <time>2021-05-08T10:34:25Z</time>
      </trkpt>
      <trkpt lat="41.3277100" lon="1.6873000">
        <ele>199.8</ele>
        <time>2021-05-08T10:34:27Z</time>
      </trkpt>
      <trkpt lat="41.3277720" lon="1.6875190">
        <ele>200.4</ele>
        <time>2021-05-08T10:34:35Z</time>
      </trkpt>
      <trkpt lat="41.3277990" lon="1.6876090">
        <ele>200.8</ele>
        <time>2021-05-08T10:34:38Z</time>
      </trkpt>
      <trkpt lat="41.3278350" lon="1.6877470">
        <ele>200.6</ele>
        <time>2021-05-08T10:34:43Z</time>
      </trkpt>
      <trkpt lat="41.3278650" lon="1.6878530">
        <ele>201.0</ele>
        <time>2021-05-08T10:34:48Z</time>
      </trkpt>
      <trkpt lat="41.3278720" lon="1.6878780">
        <ele>201.0</ele>
        <time>2021-05-08T10:34:49Z</time>
      </trkpt>
      <trkpt lat="41.3279380" lon="1.6880660">
        <ele>201.0</ele>
        <time>2021-05-08T10:34:55Z</time>
      </trkpt>
      <trkpt lat="41.3280030" lon="1.6882960">
        <ele>201.6</ele>
        <time>2021-05-08T10:35:02Z</time>
      </trkpt>
      <trkpt lat="41.3280450" lon="1.6884420">
        <ele>201.6</ele>
        <time>2021-05-08T10:35:06Z</time>
      </trkpt>
      <trkpt lat="41.3280910" lon="1.6886020">
        <ele>202.0</ele>
        <time>2021-05-08T10:35:10Z</time>
      </trkpt>
      <trkpt lat="41.3281660" lon="1.6888790">
        <ele>202.4</ele>
        <time>2021-05-08T10:35:16Z</time>
      </trkpt>
      <trkpt lat="41.3282390" lon="1.6891360">
        <ele>202.6</ele>
        <time>2021-05-08T10:35:22Z</time>
      </trkpt>
      <trkpt lat="41.3282500" lon="1.6891720">
        <ele>202.6</ele>
        <time>2021-05-08T10:35:23Z</time>
      </trkpt>
      <trkpt lat="41.3283050" lon="1.6893390">
        <ele>203.2</ele>
        <time>2021-05-08T10:35:28Z</time>
      </trkpt>
      <trkpt lat="41.3283690" lon="1.6895550">
        <ele>203.4</ele>
        <time>2021-05-08T10:35:34Z</time>
      </trkpt>
      <trkpt lat="41.3284370" lon="1.6897780">
        <ele>203.6</ele>
        <time>2021-05-08T10:35:40Z</time>
      </trkpt>
      <trkpt lat="41.3285070" lon="1.6899830">
        <ele>203.2</ele>
        <time>2021-05-08T10:35:46Z</time>
      </trkpt>
      <trkpt lat="41.3285570" lon="1.6901370">
        <ele>203.6</ele>
        <time>2021-05-08T10:35:52Z</time>
      </trkpt>
      <trkpt lat="41.3285870" lon="1.6902440">
        <ele>203.4</ele>
        <time>2021-05-08T10:35:58Z</time>
      </trkpt>
      <trkpt lat="41.3286040" lon="1.6903350">
        <ele>203.4</ele>
        <time>2021-05-08T10:36:02Z</time>
      </trkpt>
      <trkpt lat="41.3286200" lon="1.6903700">
        <ele>203.4</ele>
        <time>2021-05-08T10:36:03Z</time>
      </trkpt>
      <trkpt lat="41.3287250" lon="1.6904560">
        <ele>203.2</ele>
        <time>2021-05-08T10:36:07Z</time>
      </trkpt>
      <trkpt lat="41.3288520" lon="1.6904260">
        <ele>202.8</ele>
        <time>2021-05-08T10:36:11Z</time>
      </trkpt>
      <trkpt lat="41.3291250" lon="1.6902920">
        <ele>202.0</ele>
        <time>2021-05-08T10:36:19Z</time>
      </trkpt>
      <trkpt lat="41.3292990" lon="1.6902090">
        <ele>201.4</ele>
        <time>2021-05-08T10:36:24Z</time>
      </trkpt>
      <trkpt lat="41.3293570" lon="1.6901970">
        <ele>200.6</ele>
        <time>2021-05-08T10:36:26Z</time>
      </trkpt>
      <trkpt lat="41.3293810" lon="1.6902160">
        <ele>200.4</ele>
        <time>2021-05-08T10:36:27Z</time>
      </trkpt>
      <trkpt lat="41.3294030" lon="1.6902930">
        <ele>199.8</ele>
        <time>2021-05-08T10:36:29Z</time>
      </trkpt>
      <trkpt lat="41.3294080" lon="1.6904010">
        <ele>199.4</ele>
        <time>2021-05-08T10:36:31Z</time>
      </trkpt>
      <trkpt lat="41.3294130" lon="1.6904640">
        <ele>199.2</ele>
        <time>2021-05-08T10:36:32Z</time>
      </trkpt>
      <trkpt lat="41.3294250" lon="1.6906000">
        <ele>199.2</ele>
        <time>2021-05-08T10:36:34Z</time>
      </trkpt>
      <trkpt lat="41.3294800" lon="1.6909610">
        <ele>198.2</ele>
        <time>2021-05-08T10:36:39Z</time>
      </trkpt>
      <trkpt lat="41.3295070" lon="1.6910990">
        <ele>197.4</ele>
        <time>2021-05-08T10:36:41Z</time>
      </trkpt>
      <trkpt lat="41.3295260" lon="1.6912320">
        <ele>197.2</ele>
        <time>2021-05-08T10:36:43Z</time>
      </trkpt>
      <trkpt lat="41.3295560" lon="1.6914120">
        <ele>197.8</ele>
        <time>2021-05-08T10:36:46Z</time>
      </trkpt>
      <trkpt lat="41.3296540" lon="1.6919110">
        <ele>197.2</ele>
        <time>2021-05-08T10:36:54Z</time>
      </trkpt>
      <trkpt lat="41.3296660" lon="1.6919730">
        <ele>197.0</ele>
        <time>2021-05-08T10:36:55Z</time>
      </trkpt>
      <trkpt lat="41.3297530" lon="1.6924680">
        <ele>196.2</ele>
        <time>2021-05-08T10:37:03Z</time>
      </trkpt>
      <trkpt lat="41.3297930" lon="1.6927070">
        <ele>196.2</ele>
        <time>2021-05-08T10:37:07Z</time>
      </trkpt>
      <trkpt lat="41.3298220" lon="1.6928660">
        <ele>196.2</ele>
        <time>2021-05-08T10:37:10Z</time>
      </trkpt>
      <trkpt lat="41.3298790" lon="1.6932530">
        <ele>196.2</ele>
        <time>2021-05-08T10:37:18Z</time>
      </trkpt>
      <trkpt lat="41.3298860" lon="1.6933410">
        <ele>195.8</ele>
        <time>2021-05-08T10:37:20Z</time>
      </trkpt>
      <trkpt lat="41.3299310" lon="1.6934900">
        <ele>195.2</ele>
        <time>2021-05-08T10:37:24Z</time>
      </trkpt>
      <trkpt lat="41.3299560" lon="1.6935070">
        <ele>194.4</ele>
        <time>2021-05-08T10:37:25Z</time>
      </trkpt>
      <trkpt lat="41.3300390" lon="1.6935230">
        <ele>193.8</ele>
        <time>2021-05-08T10:37:27Z</time>
      </trkpt>
      <trkpt lat="41.3302300" lon="1.6935420">
        <ele>194.4</ele>
        <time>2021-05-08T10:37:31Z</time>
      </trkpt>
      <trkpt lat="41.3302830" lon="1.6935610">
        <ele>194.4</ele>
        <time>2021-05-08T10:37:32Z</time>
      </trkpt>
      <trkpt lat="41.3304370" lon="1.6936390">
        <ele>192.6</ele>
        <time>2021-05-08T10:37:35Z</time>
      </trkpt>
      <trkpt lat="41.3306010" lon="1.6937050">
        <ele>191.8</ele>
        <time>2021-05-08T10:37:38Z</time>
      </trkpt>
      <trkpt lat="41.3309350" lon="1.6938090">
        <ele>191.2</ele>
        <time>2021-05-08T10:37:44Z</time>
      </trkpt>
      <trkpt lat="41.3310470" lon="1.6938260">
        <ele>190.8</ele>
        <time>2021-05-08T10:37:46Z</time>
      </trkpt>
      <trkpt lat="41.3311020" lon="1.6938480">
        <ele>190.4</ele>
        <time>2021-05-08T10:37:47Z</time>
      </trkpt>
      <trkpt lat="41.3313100" lon="1.6939470">
        <ele>190.0</ele>
        <time>2021-05-08T10:37:51Z</time>
      </trkpt>
      <trkpt lat="41.3315050" lon="1.6940160">
        <ele>189.4</ele>
        <time>2021-05-08T10:37:55Z</time>
      </trkpt>
      <trkpt lat="41.3315980" lon="1.6940430">
        <ele>189.2</ele>
        <time>2021-05-08T10:37:57Z</time>
      </trkpt>
      <trkpt lat="41.3317880" lon="1.6941010">
        <ele>189.2</ele>
        <time>2021-05-08T10:38:02Z</time>
      </trkpt>
      <trkpt lat="41.3319140" lon="1.6941190">
        <ele>189.0</ele>
        <time>2021-05-08T10:38:06Z</time>
      </trkpt>
      <trkpt lat="41.3321650" lon="1.6942090">
        <ele>189.6</ele>
        <time>2021-05-08T10:38:15Z</time>
      </trkpt>
      <trkpt lat="41.3321900" lon="1.6942190">
        <ele>189.6</ele>
        <time>2021-05-08T10:38:16Z</time>
      </trkpt>
      <trkpt lat="41.3323490" lon="1.6942920">
        <ele>190.2</ele>
        <time>2021-05-08T10:38:23Z</time>
      </trkpt>
      <trkpt lat="41.3324080" lon="1.6943130">
        <ele>190.6</ele>
        <time>2021-05-08T10:38:26Z</time>
      </trkpt>
      <trkpt lat="41.3325190" lon="1.6943600">
        <ele>191.0</ele>
        <time>2021-05-08T10:38:32Z</time>
      </trkpt>
      <trkpt lat="41.3325990" lon="1.6944180">
        <ele>191.6</ele>
        <time>2021-05-08T10:38:37Z</time>
      </trkpt>
      <trkpt lat="41.3326530" lon="1.6944800">
        <ele>192.2</ele>
        <time>2021-05-08T10:38:41Z</time>
      </trkpt>
      <trkpt lat="41.3327090" lon="1.6945420">
        <ele>192.6</ele>
        <time>2021-05-08T10:38:45Z</time>
      </trkpt>
      <trkpt lat="41.3327700" lon="1.6945930">
        <ele>193.0</ele>
        <time>2021-05-08T10:38:49Z</time>
      </trkpt>
      <trkpt lat="41.3328410" lon="1.6946430">
        <ele>193.6</ele>
        <time>2021-05-08T10:38:54Z</time>
      </trkpt>
      <trkpt lat="41.3328890" lon="1.6946770">
        <ele>193.8</ele>
        <time>2021-05-08T10:38:58Z</time>
      </trkpt>
      <trkpt lat="41.3329650" lon="1.6947430">
        <ele>194.8</ele>
        <time>2021-05-08T10:39:03Z</time>
      </trkpt>
      <trkpt lat="41.3329920" lon="1.6947740">
        <ele>195.2</ele>
        <time>2021-05-08T10:39:05Z</time>
      </trkpt>
      <trkpt lat="41.3330750" lon="1.6948750">
        <ele>196.0</ele>
        <time>2021-05-08T10:39:12Z</time>
      </trkpt>
      <trkpt lat="41.3330870" lon="1.6948880">
        <ele>196.2</ele>
        <time>2021-05-08T10:39:13Z</time>
      </trkpt>
      <trkpt lat="41.3331560" lon="1.6949720">
        <ele>196.6</ele>
        <time>2021-05-08T10:39:19Z</time>
      </trkpt>
      <trkpt lat="41.3332320" lon="1.6950700">
        <ele>197.0</ele>
        <time>2021-05-08T10:39:25Z</time>
      </trkpt>
      <trkpt lat="41.3332440" lon="1.6950890">
        <ele>197.2</ele>
        <time>2021-05-08T10:39:26Z</time>
      </trkpt>
      <trkpt lat="41.3332880" lon="1.6951600">
        <ele>198.2</ele>
        <time>2021-05-08T10:39:30Z</time>
      </trkpt>
      <trkpt lat="41.3333310" lon="1.6952220">
        <ele>198.6</ele>
        <time>2021-05-08T10:39:34Z</time>
      </trkpt>
      <trkpt lat="41.3333700" lon="1.6952860">
        <ele>199.4</ele>
        <time>2021-05-08T10:39:38Z</time>
      </trkpt>
      <trkpt lat="41.3334050" lon="1.6953430">
        <ele>200.0</ele>
        <time>2021-05-08T10:39:42Z</time>
      </trkpt>
      <trkpt lat="41.3334480" lon="1.6953900">
        <ele>200.6</ele>
        <time>2021-05-08T10:39:46Z</time>
      </trkpt>
      <trkpt lat="41.3334800" lon="1.6954160">
        <ele>201.0</ele>
        <time>2021-05-08T10:39:49Z</time>
      </trkpt>
      <trkpt lat="41.3335870" lon="1.6954800">
        <ele>201.4</ele>
        <time>2021-05-08T10:39:56Z</time>
      </trkpt>
      <trkpt lat="41.3336470" lon="1.6955240">
        <ele>201.6</ele>
        <time>2021-05-08T10:40:00Z</time>
      </trkpt>
      <trkpt lat="41.3337140" lon="1.6955740">
        <ele>201.8</ele>
        <time>2021-05-08T10:40:04Z</time>
      </trkpt>
      <trkpt lat="41.3338450" lon="1.6957000">
        <ele>201.8</ele>
        <time>2021-05-08T10:40:12Z</time>
      </trkpt>
      <trkpt lat="41.3339140" lon="1.6958560">
        <ele>201.6</ele>
        <time>2021-05-08T10:40:18Z</time>
      </trkpt>
      <trkpt lat="41.3339330" lon="1.6960560">
        <ele>201.8</ele>
        <time>2021-05-08T10:40:23Z</time>
      </trkpt>
      <trkpt lat="41.3339430" lon="1.6964230">
        <ele>201.6</ele>
        <time>2021-05-08T10:40:32Z</time>
      </trkpt>
      <trkpt lat="41.3339480" lon="1.6968590">
        <ele>201.2</ele>
        <time>2021-05-08T10:40:42Z</time>
      </trkpt>
      <trkpt lat="41.3339290" lon="1.6971730">
        <ele>201.0</ele>
        <time>2021-05-08T10:40:50Z</time>
      </trkpt>
      <trkpt lat="41.3338350" lon="1.6973830">
        <ele>201.6</ele>
        <time>2021-05-08T10:40:57Z</time>
      </trkpt>
      <trkpt lat="41.3337080" lon="1.6975370">
        <ele>202.4</ele>
        <time>2021-05-08T10:41:05Z</time>
      </trkpt>
      <trkpt lat="41.3336690" lon="1.6975810">
        <ele>202.6</ele>
        <time>2021-05-08T10:41:09Z</time>
      </trkpt>
      <trkpt lat="41.3336690" lon="1.6975820">
        <ele>202.8</ele>
        <time>2021-05-08T10:41:10Z</time>
      </trkpt>
      <trkpt lat="41.3336810" lon="1.6976480">
        <ele>203.2</ele>
        <time>2021-05-08T10:41:28Z</time>
      </trkpt>
      <trkpt lat="41.3336920" lon="1.6977030">
        <ele>203.6</ele>
        <time>2021-05-08T10:41:31Z</time>
      </trkpt>
      <trkpt lat="41.3336950" lon="1.6977080">
        <ele>203.8</ele>
        <time>2021-05-08T10:41:32Z</time>
      </trkpt>
      <trkpt lat="41.3337110" lon="1.6977230">
        <ele>203.8</ele>
        <time>2021-05-08T10:41:37Z</time>
      </trkpt>
      <trkpt lat="41.3337120" lon="1.6977240">
        <ele>203.6</ele>
        <time>2021-05-08T10:41:38Z</time>
      </trkpt>
      <trkpt lat="41.3337610" lon="1.6976990">
        <ele>203.4</ele>
        <time>2021-05-08T10:43:29Z</time>
      </trkpt>
      <trkpt lat="41.3338140" lon="1.6976880">
        <ele>203.4</ele>
        <time>2021-05-08T10:43:32Z</time>
      </trkpt>
      <trkpt lat="41.3339670" lon="1.6976420">
        <ele>203.4</ele>
        <time>2021-05-08T10:43:40Z</time>
      </trkpt>
      <trkpt lat="41.3340270" lon="1.6976250">
        <ele>203.2</ele>
        <time>2021-05-08T10:43:43Z</time>
      </trkpt>
      <trkpt lat="41.3341470" lon="1.6975880">
        <ele>203.6</ele>
        <time>2021-05-08T10:43:49Z</time>
      </trkpt>
      <trkpt lat="41.3343410" lon="1.6975280">
        <ele>203.6</ele>
        <time>2021-05-08T10:43:59Z</time>
      </trkpt>
      <trkpt lat="41.3344420" lon="1.6974990">
        <ele>204.2</ele>
        <time>2021-05-08T10:44:07Z</time>
      </trkpt>
      <trkpt lat="41.3344680" lon="1.6974920">
        <ele>204.2</ele>
        <time>2021-05-08T10:44:09Z</time>
      </trkpt>
      <trkpt lat="41.3345060" lon="1.6974800">
        <ele>204.2</ele>
        <time>2021-05-08T10:44:11Z</time>
      </trkpt>
      <trkpt lat="41.3345250" lon="1.6974770">
        <ele>204.2</ele>
        <time>2021-05-08T10:44:15Z</time>
      </trkpt>
      <trkpt lat="41.3345840" lon="1.6974650">
        <ele>203.8</ele>
        <time>2021-05-08T10:44:29Z</time>
      </trkpt>
      <trkpt lat="41.3346160" lon="1.6974580">
        <ele>203.8</ele>
        <time>2021-05-08T10:44:31Z</time>
      </trkpt>
      <trkpt lat="41.3347180" lon="1.6974240">
        <ele>203.8</ele>
        <time>2021-05-08T10:44:36Z</time>
      </trkpt>
      <trkpt lat="41.3348440" lon="1.6974240">
        <ele>203.8</ele>
        <time>2021-05-08T10:44:41Z</time>
      </trkpt>
      <trkpt lat="41.3349090" lon="1.6974680">
        <ele>204.0</ele>
        <time>2021-05-08T10:44:44Z</time>
      </trkpt>
      <trkpt lat="41.3349190" lon="1.6974930">
        <ele>203.8</ele>
        <time>2021-05-08T10:44:45Z</time>
      </trkpt>
      <trkpt lat="41.3349390" lon="1.6975440">
        <ele>203.6</ele>
        <time>2021-05-08T10:44:47Z</time>
      </trkpt>
      <trkpt lat="41.3349740" lon="1.6975790">
        <ele>203.6</ele>
        <time>2021-05-08T10:44:49Z</time>
      </trkpt>
      <trkpt lat="41.3350020" lon="1.6976230">
        <ele>203.8</ele>
        <time>2021-05-08T10:44:51Z</time>
      </trkpt>
      <trkpt lat="41.3350290" lon="1.6976870">
        <ele>204.6</ele>
        <time>2021-05-08T10:44:54Z</time>
      </trkpt>
      <trkpt lat="41.3350630" lon="1.6977630">
        <ele>204.6</ele>
        <time>2021-05-08T10:44:59Z</time>
      </trkpt>
      <trkpt lat="41.3350750" lon="1.6977690">
        <ele>204.6</ele>
        <time>2021-05-08T10:45:00Z</time>
      </trkpt>
      <trkpt lat="41.3351460" lon="1.6977940">
        <ele>204.4</ele>
        <time>2021-05-08T10:45:08Z</time>
      </trkpt>
      <trkpt lat="41.3352280" lon="1.6977990">
        <ele>204.2</ele>
        <time>2021-05-08T10:45:13Z</time>
      </trkpt>
      <trkpt lat="41.3352390" lon="1.6978170">
        <ele>204.2</ele>
        <time>2021-05-08T10:45:14Z</time>
      </trkpt>
      <trkpt lat="41.3352450" lon="1.6980160">
        <ele>204.2</ele>
        <time>2021-05-08T10:45:20Z</time>
      </trkpt>
      <trkpt lat="41.3352430" lon="1.6982160">
        <ele>203.4</ele>
        <time>2021-05-08T10:45:25Z</time>
      </trkpt>
      <trkpt lat="41.3352440" lon="1.6983830">
        <ele>202.8</ele>
        <time>2021-05-08T10:45:29Z</time>
      </trkpt>
      <trkpt lat="41.3352480" lon="1.6984400">
        <ele>202.2</ele>
        <time>2021-05-08T10:45:31Z</time>
      </trkpt>
      <trkpt lat="41.3352510" lon="1.6985100">
        <ele>201.8</ele>
        <time>2021-05-08T10:45:33Z</time>
      </trkpt>
      <trkpt lat="41.3352470" lon="1.6986360">
        <ele>201.0</ele>
        <time>2021-05-08T10:45:36Z</time>
      </trkpt>
      <trkpt lat="41.3352420" lon="1.6987290">
        <ele>200.6</ele>
        <time>2021-05-08T10:45:38Z</time>
      </trkpt>
      <trkpt lat="41.3352280" lon="1.6989960">
        <ele>200.0</ele>
        <time>2021-05-08T10:45:44Z</time>
      </trkpt>
      <trkpt lat="41.3352370" lon="1.6992870">
        <ele>199.4</ele>
        <time>2021-05-08T10:45:51Z</time>
      </trkpt>
      <trkpt lat="41.3352530" lon="1.6994720">
        <ele>198.8</ele>
        <time>2021-05-08T10:45:55Z</time>
      </trkpt>
      <trkpt lat="41.3352560" lon="1.6995210">
        <ele>199.0</ele>
        <time>2021-05-08T10:45:56Z</time>
      </trkpt>
      <trkpt lat="41.3352580" lon="1.6999180">
        <ele>199.4</ele>
        <time>2021-05-08T10:46:04Z</time>
      </trkpt>
      <trkpt lat="41.3352590" lon="1.7001510">
        <ele>199.2</ele>
        <time>2021-05-08T10:46:09Z</time>
      </trkpt>
      <trkpt lat="41.3352500" lon="1.7003980">
        <ele>199.0</ele>
        <time>2021-05-08T10:46:15Z</time>
      </trkpt>
      <trkpt lat="41.3352100" lon="1.7005880">
        <ele>198.8</ele>
        <time>2021-05-08T10:46:21Z</time>
      </trkpt>
      <trkpt lat="41.3352060" lon="1.7008060">
        <ele>198.6</ele>
        <time>2021-05-08T10:46:27Z</time>
      </trkpt>
      <trkpt lat="41.3352160" lon="1.7010080">
        <ele>198.4</ele>
        <time>2021-05-08T10:46:32Z</time>
      </trkpt>
      <trkpt lat="41.3352050" lon="1.7012320">
        <ele>198.6</ele>
        <time>2021-05-08T10:46:37Z</time>
      </trkpt>
      <trkpt lat="41.3352070" lon="1.7013500">
        <ele>198.8</ele>
        <time>2021-05-08T10:46:40Z</time>
      </trkpt>
      <trkpt lat="41.3352080" lon="1.7014920">
        <ele>198.4</ele>
        <time>2021-05-08T10:46:44Z</time>
      </trkpt>
      <trkpt lat="41.3351930" lon="1.7015780">
        <ele>198.2</ele>
        <time>2021-05-08T10:46:47Z</time>
      </trkpt>
      <trkpt lat="41.3351900" lon="1.7016050">
        <ele>198.2</ele>
        <time>2021-05-08T10:46:48Z</time>
      </trkpt>
      <trkpt lat="41.3351860" lon="1.7016580">
        <ele>198.2</ele>
        <time>2021-05-08T10:46:49Z</time>
      </trkpt>
      <trkpt lat="41.3351840" lon="1.7016810">
        <ele>198.2</ele>
        <time>2021-05-08T10:46:52Z</time>
      </trkpt>
      <trkpt lat="41.3351810" lon="1.7017030">
        <ele>198.2</ele>
        <time>2021-05-08T10:46:53Z</time>
      </trkpt>
      <trkpt lat="41.3351790" lon="1.7017250">
        <ele>198.2</ele>
        <time>2021-05-08T10:46:56Z</time>
      </trkpt>
      <trkpt lat="41.3351770" lon="1.7017470">
        <ele>198.2</ele>
        <time>2021-05-08T10:46:57Z</time>
      </trkpt>
      <trkpt lat="41.3351750" lon="1.7017700">
        <ele>198.2</ele>
        <time>2021-05-08T10:47:01Z</time>
      </trkpt>
      <trkpt lat="41.3351730" lon="1.7017920">
        <ele>197.8</ele>
        <time>2021-05-08T10:47:06Z</time>
      </trkpt>
      <trkpt lat="41.3351700" lon="1.7018140">
        <ele>198.2</ele>
        <time>2021-05-08T10:47:11Z</time>
      </trkpt>
      <trkpt lat="41.3351680" lon="1.7018360">
        <ele>198.2</ele>
        <time>2021-05-08T10:47:12Z</time>
      </trkpt>
      <trkpt lat="41.3351660" lon="1.7018590">
        <ele>207.8</ele>
        <time>2021-05-08T12:02:47Z</time>
      </trkpt>
      <trkpt lat="41.3351640" lon="1.7018810">
        <ele>207.8</ele>
        <time>2021-05-08T12:02:48Z</time>
      </trkpt>
      <trkpt lat="41.3351620" lon="1.7019030">
        <ele>207.6</ele>
        <time>2021-05-08T12:03:17Z</time>
      </trkpt>
      <trkpt lat="41.3351590" lon="1.7019250">
        <ele>207.6</ele>
        <time>2021-05-08T12:03:18Z</time>
      </trkpt>
      <trkpt lat="41.3351570" lon="1.7019480">
        <ele>208.0</ele>
        <time>2021-05-08T12:03:27Z</time>
      </trkpt>
      <trkpt lat="41.3351550" lon="1.7019700">
        <ele>207.8</ele>
        <time>2021-05-08T12:03:28Z</time>
      </trkpt>
      <trkpt lat="41.3351110" lon="1.7021240">
        <ele>207.0</ele>
        <time>2021-05-08T12:03:32Z</time>
      </trkpt>
      <trkpt lat="41.3350920" lon="1.7022300">
        <ele>206.8</ele>
        <time>2021-05-08T12:03:34Z</time>
      </trkpt>
      <trkpt lat="41.3351000" lon="1.7024010">
        <ele>206.4</ele>
        <time>2021-05-08T12:03:38Z</time>
      </trkpt>
      <trkpt lat="41.3351230" lon="1.7027080">
        <ele>206.6</ele>
        <time>2021-05-08T12:03:45Z</time>
      </trkpt>
      <trkpt lat="41.3351770" lon="1.7029670">
        <ele>206.2</ele>
        <time>2021-05-08T12:03:51Z</time>
      </trkpt>
      <trkpt lat="41.3352590" lon="1.7031720">
        <ele>205.8</ele>
        <time>2021-05-08T12:03:57Z</time>
      </trkpt>
      <trkpt lat="41.3353440" lon="1.7033610">
        <ele>206.0</ele>
        <time>2021-05-08T12:04:03Z</time>
      </trkpt>
      <trkpt lat="41.3353940" lon="1.7034870">
        <ele>205.8</ele>
        <time>2021-05-08T12:04:07Z</time>
      </trkpt>
      <trkpt lat="41.3354050" lon="1.7035220">
        <ele>205.8</ele>
        <time>2021-05-08T12:04:08Z</time>
      </trkpt>
      <trkpt lat="41.3354490" lon="1.7036670">
        <ele>205.4</ele>
        <time>2021-05-08T12:04:13Z</time>
      </trkpt>
      <trkpt lat="41.3354840" lon="1.7037450">
        <ele>205.0</ele>
        <time>2021-05-08T12:04:16Z</time>
      </trkpt>
      <trkpt lat="41.3355110" lon="1.7038220">
        <ele>204.8</ele>
        <time>2021-05-08T12:04:19Z</time>
      </trkpt>
      <trkpt lat="41.3355590" lon="1.7039880">
        <ele>205.2</ele>
        <time>2021-05-08T12:04:24Z</time>
      </trkpt>
      <trkpt lat="41.3356320" lon="1.7041280">
        <ele>205.4</ele>
        <time>2021-05-08T12:04:29Z</time>
      </trkpt>
      <trkpt lat="41.3357750" lon="1.7043250">
        <ele>205.2</ele>
        <time>2021-05-08T12:04:37Z</time>
      </trkpt>
      <trkpt lat="41.3358830" lon="1.7044700">
        <ele>205.6</ele>
        <time>2021-05-08T12:04:43Z</time>
      </trkpt>
      <trkpt lat="41.3360230" lon="1.7046430">
        <ele>205.2</ele>
        <time>2021-05-08T12:04:50Z</time>
      </trkpt>
      <trkpt lat="41.3361700" lon="1.7048080">
        <ele>205.0</ele>
        <time>2021-05-08T12:04:57Z</time>
      </trkpt>
      <trkpt lat="41.3363160" lon="1.7049330">
        <ele>205.0</ele>
        <time>2021-05-08T12:05:04Z</time>
      </trkpt>
      <trkpt lat="41.3364700" lon="1.7050820">
        <ele>205.0</ele>
        <time>2021-05-08T12:05:11Z</time>
      </trkpt>
      <trkpt lat="41.3366090" lon="1.7052090">
        <ele>205.2</ele>
        <time>2021-05-08T12:05:17Z</time>
      </trkpt>
      <trkpt lat="41.3367470" lon="1.7052600">
        <ele>205.2</ele>
        <time>2021-05-08T12:05:23Z</time>
      </trkpt>
      <trkpt lat="41.3368940" lon="1.7051900">
        <ele>206.0</ele>
        <time>2021-05-08T12:05:30Z</time>
      </trkpt>
      <trkpt lat="41.3370370" lon="1.7051610">
        <ele>206.4</ele>
        <time>2021-05-08T12:05:36Z</time>
      </trkpt>
      <trkpt lat="41.3371470" lon="1.7051900">
        <ele>206.8</ele>
        <time>2021-05-08T12:05:41Z</time>
      </trkpt>
      <trkpt lat="41.3372970" lon="1.7052580">
        <ele>206.8</ele>
        <time>2021-05-08T12:05:47Z</time>
      </trkpt>
      <trkpt lat="41.3374340" lon="1.7052490">
        <ele>206.6</ele>
        <time>2021-05-08T12:05:52Z</time>
      </trkpt>
      <trkpt lat="41.3375650" lon="1.7051430">
        <ele>206.8</ele>
        <time>2021-05-08T12:05:58Z</time>
      </trkpt>
      <trkpt lat="41.3376410" lon="1.7050970">
        <ele>207.0</ele>
        <time>2021-05-08T12:06:03Z</time>
      </trkpt>
      <trkpt lat="41.3376520" lon="1.7051010">
        <ele>207.0</ele>
        <time>2021-05-08T12:06:04Z</time>
      </trkpt>
      <trkpt lat="41.3376820" lon="1.7051130">
        <ele>207.0</ele>
        <time>2021-05-08T12:06:07Z</time>
      </trkpt>
      <trkpt lat="41.3376940" lon="1.7051420">
        <ele>207.0</ele>
        <time>2021-05-08T12:06:09Z</time>
      </trkpt>
      <trkpt lat="41.3376980" lon="1.7051630">
        <ele>207.0</ele>
        <time>2021-05-08T12:06:10Z</time>
      </trkpt>
      <trkpt lat="41.3377580" lon="1.7052140">
        <ele>207.0</ele>
        <time>2021-05-08T12:06:14Z</time>
      </trkpt>
      <trkpt lat="41.3378030" lon="1.7052110">
        <ele>207.0</ele>
        <time>2021-05-08T12:06:16Z</time>
      </trkpt>
      <trkpt lat="41.3379110" lon="1.7052120">
        <ele>207.6</ele>
        <time>2021-05-08T12:06:21Z</time>
      </trkpt>
      <trkpt lat="41.3380090" lon="1.7052190">
        <ele>208.4</ele>
        <time>2021-05-08T12:06:26Z</time>
      </trkpt>
      <trkpt lat="41.3380300" lon="1.7052180">
        <ele>208.6</ele>
        <time>2021-05-08T12:06:27Z</time>
      </trkpt>
      <trkpt lat="41.3381510" lon="1.7052120">
        <ele>209.4</ele>
        <time>2021-05-08T12:06:34Z</time>
      </trkpt>
      <trkpt lat="41.3382520" lon="1.7052220">
        <ele>209.8</ele>
        <time>2021-05-08T12:06:41Z</time>
      </trkpt>
      <trkpt lat="41.3382800" lon="1.7052470">
        <ele>210.0</ele>
        <time>2021-05-08T12:06:43Z</time>
      </trkpt>
      <trkpt lat="41.3383760" lon="1.7053200">
        <ele>210.0</ele>
        <time>2021-05-08T12:06:48Z</time>
      </trkpt>
      <trkpt lat="41.3385290" lon="1.7054540">
        <ele>210.2</ele>
        <time>2021-05-08T12:06:56Z</time>
      </trkpt>
      <trkpt lat="41.3386010" lon="1.7055300">
        <ele>210.2</ele>
        <time>2021-05-08T12:07:01Z</time>
      </trkpt>
      <trkpt lat="41.3386790" lon="1.7056010">
        <ele>209.6</ele>
        <time>2021-05-08T12:07:07Z</time>
      </trkpt>
      <trkpt lat="41.3387850" lon="1.7056770">
        <ele>210.2</ele>
        <time>2021-05-08T12:07:13Z</time>
      </trkpt>
      <trkpt lat="41.3388700" lon="1.7057610">
        <ele>210.4</ele>
        <time>2021-05-08T12:07:18Z</time>
      </trkpt>
      <trkpt lat="41.3389660" lon="1.7058750">
        <ele>211.2</ele>
        <time>2021-05-08T12:07:25Z</time>
      </trkpt>
      <trkpt lat="41.3390450" lon="1.7059670">
        <ele>211.8</ele>
        <time>2021-05-08T12:07:30Z</time>
      </trkpt>
      <trkpt lat="41.3390610" lon="1.7059860">
        <ele>211.8</ele>
        <time>2021-05-08T12:07:31Z</time>
      </trkpt>
      <trkpt lat="41.3391410" lon="1.7061080">
        <ele>212.2</ele>
        <time>2021-05-08T12:07:36Z</time>
      </trkpt>
      <trkpt lat="41.3392810" lon="1.7061590">
        <ele>212.4</ele>
        <time>2021-05-08T12:07:42Z</time>
      </trkpt>
      <trkpt lat="41.3393990" lon="1.7062380">
        <ele>212.2</ele>
        <time>2021-05-08T12:07:47Z</time>
      </trkpt>
      <trkpt lat="41.3395980" lon="1.7063810">
        <ele>212.8</ele>
        <time>2021-05-08T12:07:55Z</time>
      </trkpt>
      <trkpt lat="41.3397280" lon="1.7064850">
        <ele>212.4</ele>
        <time>2021-05-08T12:08:00Z</time>
      </trkpt>
      <trkpt lat="41.3398450" lon="1.7065960">
        <ele>212.0</ele>
        <time>2021-05-08T12:08:05Z</time>
      </trkpt>
      <trkpt lat="41.3399520" lon="1.7067080">
        <ele>212.6</ele>
        <time>2021-05-08T12:08:11Z</time>
      </trkpt>
      <trkpt lat="41.3400730" lon="1.7068280">
        <ele>213.4</ele>
        <time>2021-05-08T12:08:18Z</time>
      </trkpt>
      <trkpt lat="41.3400870" lon="1.7068450">
        <ele>213.4</ele>
        <time>2021-05-08T12:08:19Z</time>
      </trkpt>
      <trkpt lat="41.3401700" lon="1.7069230">
        <ele>213.6</ele>
        <time>2021-05-08T12:08:24Z</time>
      </trkpt>
      <trkpt lat="41.3403150" lon="1.7070320">
        <ele>214.0</ele>
        <time>2021-05-08T12:08:31Z</time>
      </trkpt>
      <trkpt lat="41.3403700" lon="1.7070700">
        <ele>214.4</ele>
        <time>2021-05-08T12:08:34Z</time>
      </trkpt>
      <trkpt lat="41.3404280" lon="1.7071050">
        <ele>214.4</ele>
        <time>2021-05-08T12:08:37Z</time>
      </trkpt>
      <trkpt lat="41.3404950" lon="1.7071120">
        <ele>214.6</ele>
        <time>2021-05-08T12:08:40Z</time>
      </trkpt>
      <trkpt lat="41.3405640" lon="1.7070870">
        <ele>215.0</ele>
        <time>2021-05-08T12:08:43Z</time>
      </trkpt>
      <trkpt lat="41.3406210" lon="1.7070450">
        <ele>215.4</ele>
        <time>2021-05-08T12:08:46Z</time>
      </trkpt>
      <trkpt lat="41.3406630" lon="1.7069840">
        <ele>215.6</ele>
        <time>2021-05-08T12:08:49Z</time>
      </trkpt>
      <trkpt lat="41.3406740" lon="1.7069640">
        <ele>215.6</ele>
        <time>2021-05-08T12:08:50Z</time>
      </trkpt>
      <trkpt lat="41.3407200" lon="1.7068670">
        <ele>215.8</ele>
        <time>2021-05-08T12:08:54Z</time>
      </trkpt>
      <trkpt lat="41.3407410" lon="1.7068280">
        <ele>216.0</ele>
        <time>2021-05-08T12:08:56Z</time>
      </trkpt>
      <trkpt lat="41.3407950" lon="1.7067210">
        <ele>216.2</ele>
        <time>2021-05-08T12:09:01Z</time>
      </trkpt>
      <trkpt lat="41.3408620" lon="1.7065650">
        <ele>216.8</ele>
        <time>2021-05-08T12:09:08Z</time>
      </trkpt>
      <trkpt lat="41.3409330" lon="1.7063990">
        <ele>217.0</ele>
        <time>2021-05-08T12:09:15Z</time>
      </trkpt>
      <trkpt lat="41.3409740" lon="1.7062940">
        <ele>217.0</ele>
        <time>2021-05-08T12:09:19Z</time>
      </trkpt>
      <trkpt lat="41.3410040" lon="1.7062150">
        <ele>217.0</ele>
        <time>2021-05-08T12:09:22Z</time>
      </trkpt>
      <trkpt lat="41.3410710" lon="1.7060760">
        <ele>217.2</ele>
        <time>2021-05-08T12:09:28Z</time>
      </trkpt>
      <trkpt lat="41.3411370" lon="1.7059600">
        <ele>217.6</ele>
        <time>2021-05-08T12:09:34Z</time>
      </trkpt>
      <trkpt lat="41.3411790" lon="1.7058390">
        <ele>218.0</ele>
        <time>2021-05-08T12:09:40Z</time>
      </trkpt>
      <trkpt lat="41.3412570" lon="1.7056720">
        <ele>218.2</ele>
        <time>2021-05-08T12:09:47Z</time>
      </trkpt>
      <trkpt lat="41.3412820" lon="1.7056290">
        <ele>218.4</ele>
        <time>2021-05-08T12:09:51Z</time>
      </trkpt>
      <trkpt lat="41.3413060" lon="1.7056270">
        <ele>218.6</ele>
        <time>2021-05-08T12:09:53Z</time>
      </trkpt>
      <trkpt lat="41.3413370" lon="1.7056450">
        <ele>218.4</ele>
        <time>2021-05-08T12:09:55Z</time>
      </trkpt>
      <trkpt lat="41.3413740" lon="1.7056630">
        <ele>218.4</ele>
        <time>2021-05-08T12:09:59Z</time>
      </trkpt>
      <trkpt lat="41.3414020" lon="1.7055840">
        <ele>218.4</ele>
        <time>2021-05-08T12:10:06Z</time>
      </trkpt>
      <trkpt lat="41.3414300" lon="1.7055230">
        <ele>218.4</ele>
        <time>2021-05-08T12:10:09Z</time>
      </trkpt>
      <trkpt lat="41.3414720" lon="1.7054120">
        <ele>218.4</ele>
        <time>2021-05-08T12:10:14Z</time>
      </trkpt>
      <trkpt lat="41.3415250" lon="1.7052990">
        <ele>218.8</ele>
        <time>2021-05-08T12:10:19Z</time>
      </trkpt>
      <trkpt lat="41.3415830" lon="1.7051690">
        <ele>219.0</ele>
        <time>2021-05-08T12:10:25Z</time>
      </trkpt>
      <trkpt lat="41.3416400" lon="1.7050620">
        <ele>219.0</ele>
        <time>2021-05-08T12:10:30Z</time>
      </trkpt>
      <trkpt lat="41.3417220" lon="1.7050200">
        <ele>219.4</ele>
        <time>2021-05-08T12:10:35Z</time>
      </trkpt>
      <trkpt lat="41.3418180" lon="1.7050810">
        <ele>219.4</ele>
        <time>2021-05-08T12:10:41Z</time>
      </trkpt>
      <trkpt lat="41.3419480" lon="1.7052040">
        <ele>219.2</ele>
        <time>2021-05-08T12:10:47Z</time>
      </trkpt>
      <trkpt lat="41.3420990" lon="1.7053470">
        <ele>219.2</ele>
        <time>2021-05-08T12:10:52Z</time>
      </trkpt>
      <trkpt lat="41.3422200" lon="1.7054410">
        <ele>219.0</ele>
        <time>2021-05-08T12:10:56Z</time>
      </trkpt>
      <trkpt lat="41.3423470" lon="1.7055340">
        <ele>219.2</ele>
        <time>2021-05-08T12:11:00Z</time>
      </trkpt>
      <trkpt lat="41.3425140" lon="1.7056780">
        <ele>219.2</ele>
        <time>2021-05-08T12:11:05Z</time>
      </trkpt>
      <trkpt lat="41.3426940" lon="1.7058260">
        <ele>219.2</ele>
        <time>2021-05-08T12:11:11Z</time>
      </trkpt>
      <trkpt lat="41.3429300" lon="1.7060250">
        <ele>219.8</ele>
        <time>2021-05-08T12:11:19Z</time>
      </trkpt>
      <trkpt lat="41.3431760" lon="1.7062330">
        <ele>219.2</ele>
        <time>2021-05-08T12:11:28Z</time>
      </trkpt>
      <trkpt lat="41.3433960" lon="1.7064170">
        <ele>219.6</ele>
        <time>2021-05-08T12:11:37Z</time>
      </trkpt>
      <trkpt lat="41.3435890" lon="1.7065920">
        <ele>219.6</ele>
        <time>2021-05-08T12:11:46Z</time>
      </trkpt>
      <trkpt lat="41.3437520" lon="1.7067010">
        <ele>220.4</ele>
        <time>2021-05-08T12:11:53Z</time>
      </trkpt>
      <trkpt lat="41.3438710" lon="1.7067690">
        <ele>220.2</ele>
        <time>2021-05-08T12:11:58Z</time>
      </trkpt>
      <trkpt lat="41.3439390" lon="1.7068090">
        <ele>220.0</ele>
        <time>2021-05-08T12:12:01Z</time>
      </trkpt>
      <trkpt lat="41.3441220" lon="1.7069440">
        <ele>219.8</ele>
        <time>2021-05-08T12:12:08Z</time>
      </trkpt>
      <trkpt lat="41.3443370" lon="1.7071460">
        <ele>220.4</ele>
        <time>2021-05-08T12:12:16Z</time>
      </trkpt>
      <trkpt lat="41.3445000" lon="1.7073010">
        <ele>220.0</ele>
        <time>2021-05-08T12:12:21Z</time>
      </trkpt>
      <trkpt lat="41.3447140" lon="1.7074990">
        <ele>220.4</ele>
        <time>2021-05-08T12:12:28Z</time>
      </trkpt>
      <trkpt lat="41.3449190" lon="1.7076760">
        <ele>220.6</ele>
        <time>2021-05-08T12:12:35Z</time>
      </trkpt>
      <trkpt lat="41.3450800" lon="1.7078090">
        <ele>220.8</ele>
        <time>2021-05-08T12:12:41Z</time>
      </trkpt>
      <trkpt lat="41.3451980" lon="1.7079230">
        <ele>220.6</ele>
        <time>2021-05-08T12:12:46Z</time>
      </trkpt>
      <trkpt lat="41.3453430" lon="1.7080460">
        <ele>220.4</ele>
        <time>2021-05-08T12:12:52Z</time>
      </trkpt>
      <trkpt lat="41.3454860" lon="1.7081690">
        <ele>220.8</ele>
        <time>2021-05-08T12:12:57Z</time>
      </trkpt>
      <trkpt lat="41.3456470" lon="1.7082890">
        <ele>220.8</ele>
        <time>2021-05-08T12:13:02Z</time>
      </trkpt>
      <trkpt lat="41.3459500" lon="1.7085270">
        <ele>220.2</ele>
        <time>2021-05-08T12:13:10Z</time>
      </trkpt>
      <trkpt lat="41.3461760" lon="1.7087480">
        <ele>220.2</ele>
        <time>2021-05-08T12:13:17Z</time>
      </trkpt>
      <trkpt lat="41.3462860" lon="1.7088690">
        <ele>220.0</ele>
        <time>2021-05-08T12:13:21Z</time>
      </trkpt>
      <trkpt lat="41.3463170" lon="1.7088990">
        <ele>220.0</ele>
        <time>2021-05-08T12:13:22Z</time>
      </trkpt>
      <trkpt lat="41.3465080" lon="1.7090570">
        <ele>219.4</ele>
        <time>2021-05-08T12:13:27Z</time>
      </trkpt>
      <trkpt lat="41.3466800" lon="1.7092070">
        <ele>218.8</ele>
        <time>2021-05-08T12:13:32Z</time>
      </trkpt>
      <trkpt lat="41.3467730" lon="1.7092880">
        <ele>219.0</ele>
        <time>2021-05-08T12:13:35Z</time>
      </trkpt>
      <trkpt lat="41.3468580" lon="1.7094370">
        <ele>219.4</ele>
        <time>2021-05-08T12:13:40Z</time>
      </trkpt>
      <trkpt lat="41.3468320" lon="1.7096260">
        <ele>218.6</ele>
        <time>2021-05-08T12:13:44Z</time>
      </trkpt>
      <trkpt lat="41.3468200" lon="1.7096770">
        <ele>218.0</ele>
        <time>2021-05-08T12:13:45Z</time>
      </trkpt>
      <trkpt lat="41.3467650" lon="1.7099160">
        <ele>217.4</ele>
        <time>2021-05-08T12:13:50Z</time>
      </trkpt>
      <trkpt lat="41.3467670" lon="1.7100060">
        <ele>217.2</ele>
        <time>2021-05-08T12:13:52Z</time>
      </trkpt>
      <trkpt lat="41.3467700" lon="1.7100550">
        <ele>217.0</ele>
        <time>2021-05-08T12:13:53Z</time>
      </trkpt>
      <trkpt lat="41.3467640" lon="1.7101040">
        <ele>217.2</ele>
        <time>2021-05-08T12:13:54Z</time>
      </trkpt>
      <trkpt lat="41.3467580" lon="1.7102580">
        <ele>217.2</ele>
        <time>2021-05-08T12:13:57Z</time>
      </trkpt>
      <trkpt lat="41.3468030" lon="1.7104570">
        <ele>216.8</ele>
        <time>2021-05-08T12:14:01Z</time>
      </trkpt>
      <trkpt lat="41.3468170" lon="1.7105020">
        <ele>216.8</ele>
        <time>2021-05-08T12:14:02Z</time>
      </trkpt>
      <trkpt lat="41.3468770" lon="1.7106360">
        <ele>217.0</ele>
        <time>2021-05-08T12:14:06Z</time>
      </trkpt>
      <trkpt lat="41.3469690" lon="1.7108230">
        <ele>216.8</ele>
        <time>2021-05-08T12:14:12Z</time>
      </trkpt>
      <trkpt lat="41.3470340" lon="1.7109100">
        <ele>216.8</ele>
        <time>2021-05-08T12:14:15Z</time>
      </trkpt>
      <trkpt lat="41.3470680" lon="1.7109170">
        <ele>216.8</ele>
        <time>2021-05-08T12:14:16Z</time>
      </trkpt>
      <trkpt lat="41.3471040" lon="1.7109100">
        <ele>216.8</ele>
        <time>2021-05-08T12:14:17Z</time>
      </trkpt>
      <trkpt lat="41.3471750" lon="1.7109090">
        <ele>216.4</ele>
        <time>2021-05-08T12:14:19Z</time>
      </trkpt>
      <trkpt lat="41.3473880" lon="1.7109170">
        <ele>217.4</ele>
        <time>2021-05-08T12:14:26Z</time>
      </trkpt>
      <trkpt lat="41.3475680" lon="1.7109170">
        <ele>218.6</ele>
        <time>2021-05-08T12:14:33Z</time>
      </trkpt>
      <trkpt lat="41.3475920" lon="1.7109270">
        <ele>218.6</ele>
        <time>2021-05-08T12:14:34Z</time>
      </trkpt>
      <trkpt lat="41.3476660" lon="1.7109540">
        <ele>219.2</ele>
        <time>2021-05-08T12:14:37Z</time>
      </trkpt>
      <trkpt lat="41.3477020" lon="1.7110160">
        <ele>219.4</ele>
        <time>2021-05-08T12:14:39Z</time>
      </trkpt>
      <trkpt lat="41.3477860" lon="1.7111250">
        <ele>219.8</ele>
        <time>2021-05-08T12:14:43Z</time>
      </trkpt>
      <trkpt lat="41.3478320" lon="1.7111680">
        <ele>219.8</ele>
        <time>2021-05-08T12:14:45Z</time>
      </trkpt>
      <trkpt lat="41.3479340" lon="1.7113250">
        <ele>219.8</ele>
        <time>2021-05-08T12:14:51Z</time>
      </trkpt>
      <trkpt lat="41.3479700" lon="1.7114790">
        <ele>219.8</ele>
        <time>2021-05-08T12:14:57Z</time>
      </trkpt>
      <trkpt lat="41.3479750" lon="1.7114960">
        <ele>219.6</ele>
        <time>2021-05-08T12:15:00Z</time>
      </trkpt>
      <trkpt lat="41.3480140" lon="1.7114340">
        <ele>220.0</ele>
        <time>2021-05-08T12:16:05Z</time>
      </trkpt>
      <trkpt lat="41.3480540" lon="1.7113500">
        <ele>219.8</ele>
        <time>2021-05-08T12:16:09Z</time>
      </trkpt>
      <trkpt lat="41.3480560" lon="1.7113460">
        <ele>219.8</ele>
        <time>2021-05-08T12:16:10Z</time>
      </trkpt>
      <trkpt lat="41.3480600" lon="1.7113420">
        <ele>220.0</ele>
        <time>2021-05-08T12:16:12Z</time>
      </trkpt>
      <trkpt lat="41.3481360" lon="1.7113020">
        <ele>220.0</ele>
        <time>2021-05-08T12:16:20Z</time>
      </trkpt>
      <trkpt lat="41.3481540" lon="1.7112990">
        <ele>220.0</ele>
        <time>2021-05-08T12:16:21Z</time>
      </trkpt>
      <trkpt lat="41.3482040" lon="1.7112690">
        <ele>219.8</ele>
        <time>2021-05-08T12:16:24Z</time>
      </trkpt>
      <trkpt lat="41.3482110" lon="1.7112530">
        <ele>220.0</ele>
        <time>2021-05-08T12:16:25Z</time>
      </trkpt>
      <trkpt lat="41.3482420" lon="1.7111310">
        <ele>220.6</ele>
        <time>2021-05-08T12:16:30Z</time>
      </trkpt>
      <trkpt lat="41.3482520" lon="1.7111080">
        <ele>220.4</ele>
        <time>2021-05-08T12:16:31Z</time>
      </trkpt>
      <trkpt lat="41.3482830" lon="1.7110530">
        <ele>220.4</ele>
        <time>2021-05-08T12:16:34Z</time>
      </trkpt>
      <trkpt lat="41.3483400" lon="1.7110180">
        <ele>220.6</ele>
        <time>2021-05-08T12:16:38Z</time>
      </trkpt>
      <trkpt lat="41.3483550" lon="1.7110290">
        <ele>220.6</ele>
        <time>2021-05-08T12:16:39Z</time>
      </trkpt>
      <trkpt lat="41.3484170" lon="1.7110810">
        <ele>220.6</ele>
        <time>2021-05-08T12:16:43Z</time>
      </trkpt>
      <trkpt lat="41.3485660" lon="1.7112330">
        <ele>221.0</ele>
        <time>2021-05-08T12:16:49Z</time>
      </trkpt>
      <trkpt lat="41.3486730" lon="1.7113700">
        <ele>221.0</ele>
        <time>2021-05-08T12:16:54Z</time>
      </trkpt>
      <trkpt lat="41.3488100" lon="1.7114790">
        <ele>221.0</ele>
        <time>2021-05-08T12:16:58Z</time>
      </trkpt>
      <trkpt lat="41.3489950" lon="1.7116320">
        <ele>221.0</ele>
        <time>2021-05-08T12:17:04Z</time>
      </trkpt>
      <trkpt lat="41.3492270" lon="1.7118080">
        <ele>220.8</ele>
        <time>2021-05-08T12:17:11Z</time>
      </trkpt>
      <trkpt lat="41.3493940" lon="1.7119590">
        <ele>220.6</ele>
        <time>2021-05-08T12:17:17Z</time>
      </trkpt>
      <trkpt lat="41.3495300" lon="1.7120930">
        <ele>221.0</ele>
        <time>2021-05-08T12:17:23Z</time>
      </trkpt>
      <trkpt lat="41.3495640" lon="1.7122130">
        <ele>221.2</ele>
        <time>2021-05-08T12:17:27Z</time>
      </trkpt>
      <trkpt lat="41.3495840" lon="1.7123410">
        <ele>221.0</ele>
        <time>2021-05-08T12:17:32Z</time>
      </trkpt>
      <trkpt lat="41.3496330" lon="1.7123940">
        <ele>221.2</ele>
        <time>2021-05-08T12:17:36Z</time>
      </trkpt>
      <trkpt lat="41.3497320" lon="1.7123960">
        <ele>221.4</ele>
        <time>2021-05-08T12:17:40Z</time>
      </trkpt>
      <trkpt lat="41.3497620" lon="1.7124000">
        <ele>221.4</ele>
        <time>2021-05-08T12:17:41Z</time>
      </trkpt>
      <trkpt lat="41.3499180" lon="1.7123950">
        <ele>220.8</ele>
        <time>2021-05-08T12:17:46Z</time>
      </trkpt>
      <trkpt lat="41.3500910" lon="1.7125350">
        <ele>221.4</ele>
        <time>2021-05-08T12:17:52Z</time>
      </trkpt>
      <trkpt lat="41.3502620" lon="1.7126880">
        <ele>221.6</ele>
        <time>2021-05-08T12:17:59Z</time>
      </trkpt>
      <trkpt lat="41.3504920" lon="1.7128810">
        <ele>222.0</ele>
        <time>2021-05-08T12:18:09Z</time>
      </trkpt>
      <trkpt lat="41.3505760" lon="1.7129620">
        <ele>222.4</ele>
        <time>2021-05-08T12:18:14Z</time>
      </trkpt>
      <trkpt lat="41.3505890" lon="1.7129720">
        <ele>222.4</ele>
        <time>2021-05-08T12:18:15Z</time>
      </trkpt>
      <trkpt lat="41.3506180" lon="1.7130080">
        <ele>222.6</ele>
        <time>2021-05-08T12:18:18Z</time>
      </trkpt>
      <trkpt lat="41.3506320" lon="1.7130620">
        <ele>222.8</ele>
        <time>2021-05-08T12:18:21Z</time>
      </trkpt>
      <trkpt lat="41.3507490" lon="1.7131180">
        <ele>222.6</ele>
        <time>2021-05-08T12:18:26Z</time>
      </trkpt>
      <trkpt lat="41.3509600" lon="1.7131930">
        <ele>221.4</ele>
        <time>2021-05-08T12:18:32Z</time>
      </trkpt>
      <trkpt lat="41.3510980" lon="1.7133130">
        <ele>220.4</ele>
        <time>2021-05-08T12:18:36Z</time>
      </trkpt>
      <trkpt lat="41.3511840" lon="1.7133750">
        <ele>220.0</ele>
        <time>2021-05-08T12:18:38Z</time>
      </trkpt>
      <trkpt lat="41.3512900" lon="1.7134750">
        <ele>219.4</ele>
        <time>2021-05-08T12:18:41Z</time>
      </trkpt>
      <trkpt lat="41.3513440" lon="1.7136540">
        <ele>219.6</ele>
        <time>2021-05-08T12:18:45Z</time>
      </trkpt>
      <trkpt lat="41.3513560" lon="1.7137380">
        <ele>220.0</ele>
        <time>2021-05-08T12:18:47Z</time>
      </trkpt>
      <trkpt lat="41.3513700" lon="1.7138910">
        <ele>219.8</ele>
        <time>2021-05-08T12:18:51Z</time>
      </trkpt>
      <trkpt lat="41.3513780" lon="1.7140500">
        <ele>220.6</ele>
        <time>2021-05-08T12:18:56Z</time>
      </trkpt>
      <trkpt lat="41.3513800" lon="1.7141090">
        <ele>220.6</ele>
        <time>2021-05-08T12:18:58Z</time>
      </trkpt>
      <trkpt lat="41.3514050" lon="1.7143670">
        <ele>221.8</ele>
        <time>2021-05-08T12:19:07Z</time>
      </trkpt>
      <trkpt lat="41.3514200" lon="1.7145050">
        <ele>222.8</ele>
        <time>2021-05-08T12:19:12Z</time>
      </trkpt>
      <trkpt lat="41.3514440" lon="1.7146330">
        <ele>223.0</ele>
        <time>2021-05-08T12:19:17Z</time>
      </trkpt>
      <trkpt lat="41.3514930" lon="1.7148730">
        <ele>223.6</ele>
        <time>2021-05-08T12:19:27Z</time>
      </trkpt>
      <trkpt lat="41.3515480" lon="1.7150230">
        <ele>223.8</ele>
        <time>2021-05-08T12:19:35Z</time>
      </trkpt>
      <trkpt lat="41.3516040" lon="1.7151370">
        <ele>224.0</ele>
        <time>2021-05-08T12:19:42Z</time>
      </trkpt>
      <trkpt lat="41.3516210" lon="1.7151700">
        <ele>224.2</ele>
        <time>2021-05-08T12:19:44Z</time>
      </trkpt>
      <trkpt lat="41.3516830" lon="1.7152650">
        <ele>225.2</ele>
        <time>2021-05-08T12:19:51Z</time>
      </trkpt>
      <trkpt lat="41.3516910" lon="1.7152770">
        <ele>225.4</ele>
        <time>2021-05-08T12:19:52Z</time>
      </trkpt>
      <trkpt lat="41.3517260" lon="1.7153470">
        <ele>226.0</ele>
        <time>2021-05-08T12:19:57Z</time>
      </trkpt>
      <trkpt lat="41.3517310" lon="1.7153800">
        <ele>226.4</ele>
        <time>2021-05-08T12:19:59Z</time>
      </trkpt>
      <trkpt lat="41.3517390" lon="1.7154130">
        <ele>226.8</ele>
        <time>2021-05-08T12:20:01Z</time>
      </trkpt>
      <trkpt lat="41.3517540" lon="1.7154460">
        <ele>226.8</ele>
        <time>2021-05-08T12:20:03Z</time>
      </trkpt>
      <trkpt lat="41.3517900" lon="1.7155000">
        <ele>227.8</ele>
        <time>2021-05-08T12:20:07Z</time>
      </trkpt>
      <trkpt lat="41.3517980" lon="1.7155280">
        <ele>228.2</ele>
        <time>2021-05-08T12:20:09Z</time>
      </trkpt>
      <trkpt lat="41.3518440" lon="1.7156380">
        <ele>228.4</ele>
        <time>2021-05-08T12:20:16Z</time>
      </trkpt>
      <trkpt lat="41.3518960" lon="1.7157430">
        <ele>228.8</ele>
        <time>2021-05-08T12:20:23Z</time>
      </trkpt>
      <trkpt lat="41.3519720" lon="1.7158330">
        <ele>229.2</ele>
        <time>2021-05-08T12:20:30Z</time>
      </trkpt>
      <trkpt lat="41.3519940" lon="1.7158560">
        <ele>229.4</ele>
        <time>2021-05-08T12:20:32Z</time>
      </trkpt>
      <trkpt lat="41.3520690" lon="1.7159340">
        <ele>230.4</ele>
        <time>2021-05-08T12:20:40Z</time>
      </trkpt>
      <trkpt lat="41.3520920" lon="1.7159490">
        <ele>230.2</ele>
        <time>2021-05-08T12:20:42Z</time>
      </trkpt>
      <trkpt lat="41.3521290" lon="1.7159780">
        <ele>230.6</ele>
        <time>2021-05-08T12:20:45Z</time>
      </trkpt>
      <trkpt lat="41.3521550" lon="1.7159960">
        <ele>231.0</ele>
        <time>2021-05-08T12:20:47Z</time>
      </trkpt>
      <trkpt lat="41.3522590" lon="1.7160710">
        <ele>231.6</ele>
        <time>2021-05-08T12:20:54Z</time>
      </trkpt>
      <trkpt lat="41.3523500" lon="1.7161360">
        <ele>232.2</ele>
        <time>2021-05-08T12:21:00Z</time>
      </trkpt>
      <trkpt lat="41.3524380" lon="1.7162030">
        <ele>232.8</ele>
        <time>2021-05-08T12:21:06Z</time>
      </trkpt>
      <trkpt lat="41.3524640" lon="1.7162290">
        <ele>233.0</ele>
        <time>2021-05-08T12:21:08Z</time>
      </trkpt>
      <trkpt lat="41.3525920" lon="1.7163610">
        <ele>233.4</ele>
        <time>2021-05-08T12:21:15Z</time>
      </trkpt>
      <trkpt lat="41.3527670" lon="1.7165260">
        <ele>233.4</ele>
        <time>2021-05-08T12:21:23Z</time>
      </trkpt>
      <trkpt lat="41.3529740" lon="1.7167620">
        <ele>233.2</ele>
        <time>2021-05-08T12:21:33Z</time>
      </trkpt>
      <trkpt lat="41.3530690" lon="1.7170180">
        <ele>232.4</ele>
        <time>2021-05-08T12:21:41Z</time>
      </trkpt>
      <trkpt lat="41.3531350" lon="1.7172720">
        <ele>232.6</ele>
        <time>2021-05-08T12:21:48Z</time>
      </trkpt>
      <trkpt lat="41.3532100" lon="1.7175360">
        <ele>232.4</ele>
        <time>2021-05-08T12:21:55Z</time>
      </trkpt>
      <trkpt lat="41.3532340" lon="1.7176150">
        <ele>232.6</ele>
        <time>2021-05-08T12:21:57Z</time>
      </trkpt>
      <trkpt lat="41.3532780" lon="1.7179450">
        <ele>232.6</ele>
        <time>2021-05-08T12:22:05Z</time>
      </trkpt>
      <trkpt lat="41.3532990" lon="1.7182690">
        <ele>232.8</ele>
        <time>2021-05-08T12:22:13Z</time>
      </trkpt>
      <trkpt lat="41.3533350" lon="1.7185620">
        <ele>232.6</ele>
        <time>2021-05-08T12:22:20Z</time>
      </trkpt>
      <trkpt lat="41.3533750" lon="1.7187720">
        <ele>231.6</ele>
        <time>2021-05-08T12:22:25Z</time>
      </trkpt>
      <trkpt lat="41.3533980" lon="1.7188570">
        <ele>231.6</ele>
        <time>2021-05-08T12:22:27Z</time>
      </trkpt>
      <trkpt lat="41.3535230" lon="1.7191570">
        <ele>232.2</ele>
        <time>2021-05-08T12:22:34Z</time>
      </trkpt>
      <trkpt lat="41.3535430" lon="1.7191990">
        <ele>232.2</ele>
        <time>2021-05-08T12:22:35Z</time>
      </trkpt>
      <trkpt lat="41.3537310" lon="1.7195940">
        <ele>231.2</ele>
        <time>2021-05-08T12:22:44Z</time>
      </trkpt>
      <trkpt lat="41.3538850" lon="1.7199270">
        <ele>231.6</ele>
        <time>2021-05-08T12:22:52Z</time>
      </trkpt>
      <trkpt lat="41.3540460" lon="1.7202750">
        <ele>231.6</ele>
        <time>2021-05-08T12:23:00Z</time>
      </trkpt>
      <trkpt lat="41.3541920" lon="1.7206750">
        <ele>231.8</ele>
        <time>2021-05-08T12:23:09Z</time>
      </trkpt>
      <trkpt lat="41.3542440" lon="1.7209030">
        <ele>231.2</ele>
        <time>2021-05-08T12:23:14Z</time>
      </trkpt>
      <trkpt lat="41.3542800" lon="1.7210310">
        <ele>231.0</ele>
        <time>2021-05-08T12:23:17Z</time>
      </trkpt>
      <trkpt lat="41.3543810" lon="1.7212080">
        <ele>231.6</ele>
        <time>2021-05-08T12:23:23Z</time>
      </trkpt>
      <trkpt lat="41.3545160" lon="1.7212170">
        <ele>231.8</ele>
        <time>2021-05-08T12:23:28Z</time>
      </trkpt>
      <trkpt lat="41.3547710" lon="1.7211920">
        <ele>231.4</ele>
        <time>2021-05-08T12:23:35Z</time>
      </trkpt>
      <trkpt lat="41.3550400" lon="1.7211470">
        <ele>230.4</ele>
        <time>2021-05-08T12:23:41Z</time>
      </trkpt>
      <trkpt lat="41.3551390" lon="1.7211230">
        <ele>230.2</ele>
        <time>2021-05-08T12:23:43Z</time>
      </trkpt>
      <trkpt lat="41.3553720" lon="1.7210770">
        <ele>230.6</ele>
        <time>2021-05-08T12:23:47Z</time>
      </trkpt>
      <trkpt lat="41.3554350" lon="1.7210590">
        <ele>230.8</ele>
        <time>2021-05-08T12:23:48Z</time>
      </trkpt>
      <trkpt lat="41.3554990" lon="1.7210370">
        <ele>230.6</ele>
        <time>2021-05-08T12:23:49Z</time>
      </trkpt>
      <trkpt lat="41.3556890" lon="1.7209750">
        <ele>229.2</ele>
        <time>2021-05-08T12:23:52Z</time>
      </trkpt>
      <trkpt lat="41.3559310" lon="1.7209250">
        <ele>229.0</ele>
        <time>2021-05-08T12:23:57Z</time>
      </trkpt>
      <trkpt lat="41.3562310" lon="1.7209060">
        <ele>230.2</ele>
        <time>2021-05-08T12:24:05Z</time>
      </trkpt>
      <trkpt lat="41.3564470" lon="1.7208850">
        <ele>230.6</ele>
        <time>2021-05-08T12:24:12Z</time>
      </trkpt>
      <trkpt lat="41.3566770" lon="1.7208750">
        <ele>231.6</ele>
        <time>2021-05-08T12:24:20Z</time>
      </trkpt>
      <trkpt lat="41.3567060" lon="1.7208730">
        <ele>231.6</ele>
        <time>2021-05-08T12:24:21Z</time>
      </trkpt>
      <trkpt lat="41.3569570" lon="1.7208640">
        <ele>232.4</ele>
        <time>2021-05-08T12:24:30Z</time>
      </trkpt>
      <trkpt lat="41.3571390" lon="1.7208560">
        <ele>232.8</ele>
        <time>2021-05-08T12:24:37Z</time>
      </trkpt>
      <trkpt lat="41.3571620" lon="1.7208520">
        <ele>232.8</ele>
        <time>2021-05-08T12:24:38Z</time>
      </trkpt>
      <trkpt lat="41.3572440" lon="1.7208350">
        <ele>232.8</ele>
        <time>2021-05-08T12:24:44Z</time>
      </trkpt>
      <trkpt lat="41.3572440" lon="1.7208340">
        <ele>232.8</ele>
        <time>2021-05-08T12:24:45Z</time>
      </trkpt>
      <trkpt lat="41.3572720" lon="1.7209120">
        <ele>233.2</ele>
        <time>2021-05-08T12:25:05Z</time>
      </trkpt>
      <trkpt lat="41.3572770" lon="1.7209550">
        <ele>233.4</ele>
        <time>2021-05-08T12:25:07Z</time>
      </trkpt>
      <trkpt lat="41.3572820" lon="1.7209990">
        <ele>233.6</ele>
        <time>2021-05-08T12:25:09Z</time>
      </trkpt>
      <trkpt lat="41.3572930" lon="1.7211120">
        <ele>234.0</ele>
        <time>2021-05-08T12:25:14Z</time>
      </trkpt>
      <trkpt lat="41.3572940" lon="1.7212010">
        <ele>234.0</ele>
        <time>2021-05-08T12:25:17Z</time>
      </trkpt>
      <trkpt lat="41.3572930" lon="1.7212790">
        <ele>234.0</ele>
        <time>2021-05-08T12:25:20Z</time>
      </trkpt>
      <trkpt lat="41.3572930" lon="1.7215020">
        <ele>233.6</ele>
        <time>2021-05-08T12:25:25Z</time>
      </trkpt>
      <trkpt lat="41.3572960" lon="1.7216900">
        <ele>233.2</ele>
        <time>2021-05-08T12:25:28Z</time>
      </trkpt>
      <trkpt lat="41.3573020" lon="1.7217500">
        <ele>233.2</ele>
        <time>2021-05-08T12:25:29Z</time>
      </trkpt>
      <trkpt lat="41.3573180" lon="1.7218010">
        <ele>233.0</ele>
        <time>2021-05-08T12:25:30Z</time>
      </trkpt>
      <trkpt lat="41.3574230" lon="1.7218920">
        <ele>232.6</ele>
        <time>2021-05-08T12:25:34Z</time>
      </trkpt>
      <trkpt lat="41.3575160" lon="1.7219020">
        <ele>232.2</ele>
        <time>2021-05-08T12:25:37Z</time>
      </trkpt>
      <trkpt lat="41.3575470" lon="1.7218910">
        <ele>231.6</ele>
        <time>2021-05-08T12:25:38Z</time>
      </trkpt>
      <trkpt lat="41.3577100" lon="1.7218700">
        <ele>232.2</ele>
        <time>2021-05-08T12:25:44Z</time>
      </trkpt>
      <trkpt lat="41.3578680" lon="1.7218760">
        <ele>232.8</ele>
        <time>2021-05-08T12:25:51Z</time>
      </trkpt>
      <trkpt lat="41.3580430" lon="1.7219210">
        <ele>233.0</ele>
        <time>2021-05-08T12:25:59Z</time>
      </trkpt>
      <trkpt lat="41.3582830" lon="1.7219770">
        <ele>233.2</ele>
        <time>2021-05-08T12:26:09Z</time>
      </trkpt>
      <trkpt lat="41.3583320" lon="1.7219870">
        <ele>233.4</ele>
        <time>2021-05-08T12:26:11Z</time>
      </trkpt>
      <trkpt lat="41.3584430" lon="1.7220320">
        <ele>234.0</ele>
        <time>2021-05-08T12:26:16Z</time>
      </trkpt>
      <trkpt lat="41.3586020" lon="1.7221610">
        <ele>234.4</ele>
        <time>2021-05-08T12:26:23Z</time>
      </trkpt>
      <trkpt lat="41.3586620" lon="1.7222390">
        <ele>234.8</ele>
        <time>2021-05-08T12:26:26Z</time>
      </trkpt>
      <trkpt lat="41.3587440" lon="1.7223710">
        <ele>235.0</ele>
        <time>2021-05-08T12:26:31Z</time>
      </trkpt>
      <trkpt lat="41.3589100" lon="1.7226680">
        <ele>235.4</ele>
        <time>2021-05-08T12:26:42Z</time>
      </trkpt>
      <trkpt lat="41.3590250" lon="1.7228260">
        <ele>234.4</ele>
        <time>2021-05-08T12:26:49Z</time>
      </trkpt>
      <trkpt lat="41.3590540" lon="1.7228330">
        <ele>234.4</ele>
        <time>2021-05-08T12:26:51Z</time>
      </trkpt>
      <trkpt lat="41.3590720" lon="1.7228290">
        <ele>233.8</ele>
        <time>2021-05-08T12:26:54Z</time>
      </trkpt>
      <trkpt lat="41.3590710" lon="1.7228290">
        <ele>233.8</ele>
        <time>2021-05-08T12:26:55Z</time>
      </trkpt>
      <trkpt lat="41.3591200" lon="1.7229500">
        <ele>234.2</ele>
        <time>2021-05-08T12:28:00Z</time>
      </trkpt>
      <trkpt lat="41.3591380" lon="1.7229920">
        <ele>234.2</ele>
        <time>2021-05-08T12:28:02Z</time>
      </trkpt>
      <trkpt lat="41.3591560" lon="1.7230340">
        <ele>234.0</ele>
        <time>2021-05-08T12:28:04Z</time>
      </trkpt>
      <trkpt lat="41.3591980" lon="1.7231320">
        <ele>234.4</ele>
        <time>2021-05-08T12:28:08Z</time>
      </trkpt>
      <trkpt lat="41.3593000" lon="1.7233650">
        <ele>234.2</ele>
        <time>2021-05-08T12:28:16Z</time>
      </trkpt>
      <trkpt lat="41.3593940" lon="1.7236020">
        <ele>234.2</ele>
        <time>2021-05-08T12:28:23Z</time>
      </trkpt>
      <trkpt lat="41.3595000" lon="1.7238600">
        <ele>234.6</ele>
        <time>2021-05-08T12:28:30Z</time>
      </trkpt>
      <trkpt lat="41.3596050" lon="1.7241010">
        <ele>234.8</ele>
        <time>2021-05-08T12:28:37Z</time>
      </trkpt>
      <trkpt lat="41.3597550" lon="1.7244520">
        <ele>234.6</ele>
        <time>2021-05-08T12:28:46Z</time>
      </trkpt>
      <trkpt lat="41.3598670" lon="1.7245940">
        <ele>234.4</ele>
        <time>2021-05-08T12:28:51Z</time>
      </trkpt>
      <trkpt lat="41.3600190" lon="1.7245460">
        <ele>234.0</ele>
        <time>2021-05-08T12:28:56Z</time>
      </trkpt>
      <trkpt lat="41.3601570" lon="1.7244870">
        <ele>233.6</ele>
        <time>2021-05-08T12:29:00Z</time>
      </trkpt>
      <trkpt lat="41.3602350" lon="1.7244660">
        <ele>233.4</ele>
        <time>2021-05-08T12:29:02Z</time>
      </trkpt>
      <trkpt lat="41.3602750" lon="1.7244580">
        <ele>233.4</ele>
        <time>2021-05-08T12:29:03Z</time>
      </trkpt>
      <trkpt lat="41.3604360" lon="1.7244440">
        <ele>233.2</ele>
        <time>2021-05-08T12:29:08Z</time>
      </trkpt>
      <trkpt lat="41.3606190" lon="1.7244900">
        <ele>233.0</ele>
        <time>2021-05-08T12:29:15Z</time>
      </trkpt>
      <trkpt lat="41.3606350" lon="1.7245200">
        <ele>233.0</ele>
        <time>2021-05-08T12:29:16Z</time>
      </trkpt>
      <trkpt lat="41.3606860" lon="1.7246620">
        <ele>233.0</ele>
        <time>2021-05-08T12:29:20Z</time>
      </trkpt>
      <trkpt lat="41.3608150" lon="1.7248950">
        <ele>233.2</ele>
        <time>2021-05-08T12:29:27Z</time>
      </trkpt>
      <trkpt lat="41.3609820" lon="1.7250060">
        <ele>233.2</ele>
        <time>2021-05-08T12:29:33Z</time>
      </trkpt>
      <trkpt lat="41.3610320" lon="1.7250320">
        <ele>233.0</ele>
        <time>2021-05-08T12:29:35Z</time>
      </trkpt>
      <trkpt lat="41.3610890" lon="1.7250760">
        <ele>233.0</ele>
        <time>2021-05-08T12:29:38Z</time>
      </trkpt>
      <trkpt lat="41.3611020" lon="1.7250980">
        <ele>233.2</ele>
        <time>2021-05-08T12:29:39Z</time>
      </trkpt>
      <trkpt lat="41.3611970" lon="1.7252140">
        <ele>233.4</ele>
        <time>2021-05-08T12:29:45Z</time>
      </trkpt>
      <trkpt lat="41.3613140" lon="1.7252490">
        <ele>233.8</ele>
        <time>2021-05-08T12:29:51Z</time>
      </trkpt>
      <trkpt lat="41.3614630" lon="1.7252380">
        <ele>233.8</ele>
        <time>2021-05-08T12:29:57Z</time>
      </trkpt>
      <trkpt lat="41.3615890" lon="1.7251520">
        <ele>234.2</ele>
        <time>2021-05-08T12:30:02Z</time>
      </trkpt>
      <trkpt lat="41.3617660" lon="1.7250200">
        <ele>234.6</ele>
        <time>2021-05-08T12:30:09Z</time>
      </trkpt>
      <trkpt lat="41.3619580" lon="1.7248760">
        <ele>234.6</ele>
        <time>2021-05-08T12:30:17Z</time>
      </trkpt>
      <trkpt lat="41.3621020" lon="1.7247580">
        <ele>234.8</ele>
        <time>2021-05-08T12:30:23Z</time>
      </trkpt>
      <trkpt lat="41.3623310" lon="1.7245730">
        <ele>235.2</ele>
        <time>2021-05-08T12:30:32Z</time>
      </trkpt>
      <trkpt lat="41.3625060" lon="1.7244670">
        <ele>235.6</ele>
        <time>2021-05-08T12:30:39Z</time>
      </trkpt>
      <trkpt lat="41.3625300" lon="1.7244570">
        <ele>235.8</ele>
        <time>2021-05-08T12:30:40Z</time>
      </trkpt>
      <trkpt lat="41.3625540" lon="1.7244560">
        <ele>235.8</ele>
        <time>2021-05-08T12:30:41Z</time>
      </trkpt>
      <trkpt lat="41.3626180" lon="1.7245050">
        <ele>236.2</ele>
        <time>2021-05-08T12:30:44Z</time>
      </trkpt>
      <trkpt lat="41.3626940" lon="1.7246080">
        <ele>236.6</ele>
        <time>2021-05-08T12:30:49Z</time>
      </trkpt>
      <trkpt lat="41.3627330" lon="1.7246790">
        <ele>237.0</ele>
        <time>2021-05-08T12:30:52Z</time>
      </trkpt>
      <trkpt lat="41.3628660" lon="1.7249230">
        <ele>237.6</ele>
        <time>2021-05-08T12:31:02Z</time>
      </trkpt>
      <trkpt lat="41.3629210" lon="1.7250160">
        <ele>237.6</ele>
        <time>2021-05-08T12:31:06Z</time>
      </trkpt>
      <trkpt lat="41.3629760" lon="1.7251070">
        <ele>237.4</ele>
        <time>2021-05-08T12:31:10Z</time>
      </trkpt>
      <trkpt lat="41.3630720" lon="1.7252420">
        <ele>237.8</ele>
        <time>2021-05-08T12:31:17Z</time>
      </trkpt>
      <trkpt lat="41.3631830" lon="1.7252580">
        <ele>238.4</ele>
        <time>2021-05-08T12:31:23Z</time>
      </trkpt>
      <trkpt lat="41.3633380" lon="1.7252590">
        <ele>238.8</ele>
        <time>2021-05-08T12:31:31Z</time>
      </trkpt>
      <trkpt lat="41.3634930" lon="1.7252570">
        <ele>239.0</ele>
        <time>2021-05-08T12:31:38Z</time>
      </trkpt>
      <trkpt lat="41.3637010" lon="1.7252570">
        <ele>239.8</ele>
        <time>2021-05-08T12:31:47Z</time>
      </trkpt>
      <trkpt lat="41.3638240" lon="1.7252580">
        <ele>239.8</ele>
        <time>2021-05-08T12:31:53Z</time>
      </trkpt>
      <trkpt lat="41.3638440" lon="1.7252570">
        <ele>240.2</ele>
        <time>2021-05-08T12:31:54Z</time>
      </trkpt>
      <trkpt lat="41.3640050" lon="1.7252670">
        <ele>240.6</ele>
        <time>2021-05-08T12:32:01Z</time>
      </trkpt>
      <trkpt lat="41.3642650" lon="1.7252860">
        <ele>241.2</ele>
        <time>2021-05-08T12:32:12Z</time>
      </trkpt>
      <trkpt lat="41.3642890" lon="1.7252880">
        <ele>241.4</ele>
        <time>2021-05-08T12:32:13Z</time>
      </trkpt>
      <trkpt lat="41.3644740" lon="1.7253190">
        <ele>241.8</ele>
        <time>2021-05-08T12:32:21Z</time>
      </trkpt>
      <trkpt lat="41.3646640" lon="1.7253570">
        <ele>242.4</ele>
        <time>2021-05-08T12:32:29Z</time>
      </trkpt>
      <trkpt lat="41.3646880" lon="1.7253710">
        <ele>242.6</ele>
        <time>2021-05-08T12:32:30Z</time>
      </trkpt>
      <trkpt lat="41.3647800" lon="1.7254070">
        <ele>243.6</ele>
        <time>2021-05-08T12:32:34Z</time>
      </trkpt>
      <trkpt lat="41.3648950" lon="1.7253800">
        <ele>243.4</ele>
        <time>2021-05-08T12:32:39Z</time>
      </trkpt>
      <trkpt lat="41.3649150" lon="1.7253780">
        <ele>243.8</ele>
        <time>2021-05-08T12:32:40Z</time>
      </trkpt>
      <trkpt lat="41.3650020" lon="1.7253850">
        <ele>244.8</ele>
        <time>2021-05-08T12:32:45Z</time>
      </trkpt>
      <trkpt lat="41.3650380" lon="1.7253890">
        <ele>244.8</ele>
        <time>2021-05-08T12:32:47Z</time>
      </trkpt>
      <trkpt lat="41.3651810" lon="1.7254070">
        <ele>245.0</ele>
        <time>2021-05-08T12:32:55Z</time>
      </trkpt>
      <trkpt lat="41.3652960" lon="1.7254300">
        <ele>245.8</ele>
        <time>2021-05-08T12:33:01Z</time>
      </trkpt>
      <trkpt lat="41.3653510" lon="1.7254380">
        <ele>246.0</ele>
        <time>2021-05-08T12:33:04Z</time>
      </trkpt>
      <trkpt lat="41.3654450" lon="1.7254600">
        <ele>246.4</ele>
        <time>2021-05-08T12:33:09Z</time>
      </trkpt>
      <trkpt lat="41.3655760" lon="1.7254890">
        <ele>246.4</ele>
        <time>2021-05-08T12:33:16Z</time>
      </trkpt>
      <trkpt lat="41.3657010" lon="1.7255210">
        <ele>247.0</ele>
        <time>2021-05-08T12:33:22Z</time>
      </trkpt>
      <trkpt lat="41.3658760" lon="1.7255720">
        <ele>246.2</ele>
        <time>2021-05-08T12:33:29Z</time>
      </trkpt>
      <trkpt lat="41.3660240" lon="1.7256100">
        <ele>246.6</ele>
        <time>2021-05-08T12:33:35Z</time>
      </trkpt>
      <trkpt lat="41.3662070" lon="1.7256840">
        <ele>246.6</ele>
        <time>2021-05-08T12:33:42Z</time>
      </trkpt>
      <trkpt lat="41.3664090" lon="1.7257790">
        <ele>246.6</ele>
        <time>2021-05-08T12:33:49Z</time>
      </trkpt>
      <trkpt lat="41.3665510" lon="1.7258340">
        <ele>247.0</ele>
        <time>2021-05-08T12:33:54Z</time>
      </trkpt>
      <trkpt lat="41.3667290" lon="1.7259000">
        <ele>247.2</ele>
        <time>2021-05-08T12:34:00Z</time>
      </trkpt>
      <trkpt lat="41.3669320" lon="1.7259530">
        <ele>246.6</ele>
        <time>2021-05-08T12:34:06Z</time>
      </trkpt>
      <trkpt lat="41.3671460" lon="1.7260420">
        <ele>246.8</ele>
        <time>2021-05-08T12:34:12Z</time>
      </trkpt>
      <trkpt lat="41.3673050" lon="1.7261000">
        <ele>245.4</ele>
        <time>2021-05-08T12:34:16Z</time>
      </trkpt>
      <trkpt lat="41.3674750" lon="1.7261470">
        <ele>245.2</ele>
        <time>2021-05-08T12:34:20Z</time>
      </trkpt>
      <trkpt lat="41.3677930" lon="1.7262910">
        <ele>245.2</ele>
        <time>2021-05-08T12:34:27Z</time>
      </trkpt>
      <trkpt lat="41.3679290" lon="1.7263820">
        <ele>244.4</ele>
        <time>2021-05-08T12:34:30Z</time>
      </trkpt>
      <trkpt lat="41.3680160" lon="1.7264340">
        <ele>243.2</ele>
        <time>2021-05-08T12:34:32Z</time>
      </trkpt>
      <trkpt lat="41.3680960" lon="1.7264810">
        <ele>243.0</ele>
        <time>2021-05-08T12:34:34Z</time>
      </trkpt>
      <trkpt lat="41.3682620" lon="1.7265730">
        <ele>244.0</ele>
        <time>2021-05-08T12:34:39Z</time>
      </trkpt>
      <trkpt lat="41.3684510" lon="1.7266870">
        <ele>243.6</ele>
        <time>2021-05-08T12:34:45Z</time>
      </trkpt>
      <trkpt lat="41.3685930" lon="1.7267690">
        <ele>244.4</ele>
        <time>2021-05-08T12:34:50Z</time>
      </trkpt>
      <trkpt lat="41.3686420" lon="1.7268000">
        <ele>244.4</ele>
        <time>2021-05-08T12:34:52Z</time>
      </trkpt>
      <trkpt lat="41.3688020" lon="1.7269100">
        <ele>244.2</ele>
        <time>2021-05-08T12:34:59Z</time>
      </trkpt>
      <trkpt lat="41.3689950" lon="1.7270590">
        <ele>244.4</ele>
        <time>2021-05-08T12:35:07Z</time>
      </trkpt>
      <trkpt lat="41.3691800" lon="1.7272020">
        <ele>244.6</ele>
        <time>2021-05-08T12:35:14Z</time>
      </trkpt>
      <trkpt lat="41.3694090" lon="1.7273880">
        <ele>245.2</ele>
        <time>2021-05-08T12:35:23Z</time>
      </trkpt>
      <trkpt lat="41.3696250" lon="1.7275820">
        <ele>245.6</ele>
        <time>2021-05-08T12:35:33Z</time>
      </trkpt>
      <trkpt lat="41.3696650" lon="1.7276200">
        <ele>245.8</ele>
        <time>2021-05-08T12:35:35Z</time>
      </trkpt>
      <trkpt lat="41.3697840" lon="1.7277310">
        <ele>246.6</ele>
        <time>2021-05-08T12:35:41Z</time>
      </trkpt>
      <trkpt lat="41.3699390" lon="1.7278880">
        <ele>246.6</ele>
        <time>2021-05-08T12:35:49Z</time>
      </trkpt>
      <trkpt lat="41.3700630" lon="1.7279880">
        <ele>247.0</ele>
        <time>2021-05-08T12:35:56Z</time>
      </trkpt>
      <trkpt lat="41.3701270" lon="1.7280810">
        <ele>247.4</ele>
        <time>2021-05-08T12:36:04Z</time>
      </trkpt>
      <trkpt lat="41.3701910" lon="1.7281640">
        <ele>247.2</ele>
        <time>2021-05-08T12:36:09Z</time>
      </trkpt>
      <trkpt lat="41.3703350" lon="1.7283280">
        <ele>248.0</ele>
        <time>2021-05-08T12:36:18Z</time>
      </trkpt>
      <trkpt lat="41.3704920" lon="1.7285040">
        <ele>248.2</ele>
        <time>2021-05-08T12:36:27Z</time>
      </trkpt>
      <trkpt lat="41.3705090" lon="1.7285220">
        <ele>248.4</ele>
        <time>2021-05-08T12:36:28Z</time>
      </trkpt>
      <trkpt lat="41.3705540" lon="1.7285810">
        <ele>248.6</ele>
        <time>2021-05-08T12:36:31Z</time>
      </trkpt>
      <trkpt lat="41.3706220" lon="1.7286600">
        <ele>249.0</ele>
        <time>2021-05-08T12:36:35Z</time>
      </trkpt>
      <trkpt lat="41.3706730" lon="1.7287230">
        <ele>249.4</ele>
        <time>2021-05-08T12:36:38Z</time>
      </trkpt>
      <trkpt lat="41.3707820" lon="1.7288550">
        <ele>249.8</ele>
        <time>2021-05-08T12:36:44Z</time>
      </trkpt>
      <trkpt lat="41.3708700" lon="1.7289650">
        <ele>250.6</ele>
        <time>2021-05-08T12:36:49Z</time>
      </trkpt>
      <trkpt lat="41.3709190" lon="1.7290330">
        <ele>251.0</ele>
        <time>2021-05-08T12:36:52Z</time>
      </trkpt>
      <trkpt lat="41.3710770" lon="1.7292400">
        <ele>251.4</ele>
        <time>2021-05-08T12:37:01Z</time>
      </trkpt>
      <trkpt lat="41.3711750" lon="1.7293480">
        <ele>251.6</ele>
        <time>2021-05-08T12:37:06Z</time>
      </trkpt>
      <trkpt lat="41.3712540" lon="1.7294290">
        <ele>252.2</ele>
        <time>2021-05-08T12:37:10Z</time>
      </trkpt>
      <trkpt lat="41.3713840" lon="1.7295770">
        <ele>253.0</ele>
        <time>2021-05-08T12:37:17Z</time>
      </trkpt>
      <trkpt lat="41.3714360" lon="1.7296370">
        <ele>253.0</ele>
        <time>2021-05-08T12:37:20Z</time>
      </trkpt>
      <trkpt lat="41.3715420" lon="1.7297810">
        <ele>254.0</ele>
        <time>2021-05-08T12:37:27Z</time>
      </trkpt>
      <trkpt lat="41.3715720" lon="1.7298200">
        <ele>254.6</ele>
        <time>2021-05-08T12:37:29Z</time>
      </trkpt>
      <trkpt lat="41.3716200" lon="1.7298840">
        <ele>255.2</ele>
        <time>2021-05-08T12:37:32Z</time>
      </trkpt>
      <trkpt lat="41.3716990" lon="1.7300030">
        <ele>255.4</ele>
        <time>2021-05-08T12:37:37Z</time>
      </trkpt>
      <trkpt lat="41.3717760" lon="1.7301330">
        <ele>255.4</ele>
        <time>2021-05-08T12:37:42Z</time>
      </trkpt>
      <trkpt lat="41.3718970" lon="1.7303090">
        <ele>255.4</ele>
        <time>2021-05-08T12:37:48Z</time>
      </trkpt>
      <trkpt lat="41.3720520" lon="1.7305610">
        <ele>254.4</ele>
        <time>2021-05-08T12:37:55Z</time>
      </trkpt>
      <trkpt lat="41.3720760" lon="1.7305990">
        <ele>254.4</ele>
        <time>2021-05-08T12:37:56Z</time>
      </trkpt>
      <trkpt lat="41.3724000" lon="1.7310950">
        <ele>253.2</ele>
        <time>2021-05-08T12:38:09Z</time>
      </trkpt>
      <trkpt lat="41.3725910" lon="1.7313780">
        <ele>252.8</ele>
        <time>2021-05-08T12:38:17Z</time>
      </trkpt>
      <trkpt lat="41.3727240" lon="1.7315800">
        <ele>253.2</ele>
        <time>2021-05-08T12:38:23Z</time>
      </trkpt>
      <trkpt lat="41.3728680" lon="1.7317970">
        <ele>253.6</ele>
        <time>2021-05-08T12:38:30Z</time>
      </trkpt>
      <trkpt lat="41.3730470" lon="1.7320560">
        <ele>253.8</ele>
        <time>2021-05-08T12:38:38Z</time>
      </trkpt>
      <trkpt lat="41.3732300" lon="1.7323000">
        <ele>254.2</ele>
        <time>2021-05-08T12:38:47Z</time>
      </trkpt>
      <trkpt lat="41.3732910" lon="1.7323810">
        <ele>254.8</ele>
        <time>2021-05-08T12:38:50Z</time>
      </trkpt>
      <trkpt lat="41.3734100" lon="1.7325310">
        <ele>255.2</ele>
        <time>2021-05-08T12:38:56Z</time>
      </trkpt>
      <trkpt lat="41.3735660" lon="1.7327160">
        <ele>255.6</ele>
        <time>2021-05-08T12:39:04Z</time>
      </trkpt>
      <trkpt lat="41.3735870" lon="1.7327360">
        <ele>255.8</ele>
        <time>2021-05-08T12:39:05Z</time>
      </trkpt>
      <trkpt lat="41.3737270" lon="1.7328870">
        <ele>256.2</ele>
        <time>2021-05-08T12:39:12Z</time>
      </trkpt>
      <trkpt lat="41.3738750" lon="1.7330600">
        <ele>256.4</ele>
        <time>2021-05-08T12:39:19Z</time>
      </trkpt>
      <trkpt lat="41.3739290" lon="1.7331240">
        <ele>256.8</ele>
        <time>2021-05-08T12:39:22Z</time>
      </trkpt>
      <trkpt lat="41.3739970" lon="1.7332080">
        <ele>257.4</ele>
        <time>2021-05-08T12:39:26Z</time>
      </trkpt>
      <trkpt lat="41.3741230" lon="1.7333410">
        <ele>257.8</ele>
        <time>2021-05-08T12:39:32Z</time>
      </trkpt>
      <trkpt lat="41.3741680" lon="1.7333870">
        <ele>258.2</ele>
        <time>2021-05-08T12:39:34Z</time>
      </trkpt>
      <trkpt lat="41.3742640" lon="1.7334790">
        <ele>258.2</ele>
        <time>2021-05-08T12:39:38Z</time>
      </trkpt>
      <trkpt lat="41.3744160" lon="1.7336270">
        <ele>258.0</ele>
        <time>2021-05-08T12:39:44Z</time>
      </trkpt>
      <trkpt lat="41.3746700" lon="1.7338510">
        <ele>258.6</ele>
        <time>2021-05-08T12:39:52Z</time>
      </trkpt>
      <trkpt lat="41.3748130" lon="1.7339910">
        <ele>258.8</ele>
        <time>2021-05-08T12:39:58Z</time>
      </trkpt>
      <trkpt lat="41.3749440" lon="1.7341020">
        <ele>259.0</ele>
        <time>2021-05-08T12:40:04Z</time>
      </trkpt>
      <trkpt lat="41.3750050" lon="1.7341540">
        <ele>259.4</ele>
        <time>2021-05-08T12:40:07Z</time>
      </trkpt>
      <trkpt lat="41.3750410" lon="1.7341990">
        <ele>259.8</ele>
        <time>2021-05-08T12:40:10Z</time>
      </trkpt>
      <trkpt lat="41.3750860" lon="1.7342740">
        <ele>260.0</ele>
        <time>2021-05-08T12:40:15Z</time>
      </trkpt>
      <trkpt lat="41.3751290" lon="1.7342990">
        <ele>259.6</ele>
        <time>2021-05-08T12:40:19Z</time>
      </trkpt>
      <trkpt lat="41.3751470" lon="1.7343050">
        <ele>259.4</ele>
        <time>2021-05-08T12:40:20Z</time>
      </trkpt>
      <trkpt lat="41.3752090" lon="1.7343220">
        <ele>258.2</ele>
        <time>2021-05-08T12:40:23Z</time>
      </trkpt>
      <trkpt lat="41.3752250" lon="1.7343290">
        <ele>257.8</ele>
        <time>2021-05-08T12:40:24Z</time>
      </trkpt>
      <trkpt lat="41.3752270" lon="1.7343330">
        <ele>257.0</ele>
        <time>2021-05-08T12:40:26Z</time>
      </trkpt>
      <trkpt lat="41.3752640" lon="1.7343820">
        <ele>256.4</ele>
        <time>2021-05-08T12:42:17Z</time>
      </trkpt>
      <trkpt lat="41.3752800" lon="1.7344000">
        <ele>256.4</ele>
        <time>2021-05-08T12:42:18Z</time>
      </trkpt>
      <trkpt lat="41.3754310" lon="1.7345560">
        <ele>256.0</ele>
        <time>2021-05-08T12:42:24Z</time>
      </trkpt>
      <trkpt lat="41.3755420" lon="1.7346630">
        <ele>255.2</ele>
        <time>2021-05-08T12:42:27Z</time>
      </trkpt>
      <trkpt lat="41.3756720" lon="1.7347830">
        <ele>254.6</ele>
        <time>2021-05-08T12:42:30Z</time>
      </trkpt>
      <trkpt lat="41.3758100" lon="1.7349080">
        <ele>254.0</ele>
        <time>2021-05-08T12:42:33Z</time>
      </trkpt>
      <trkpt lat="41.3760090" lon="1.7350610">
        <ele>252.8</ele>
        <time>2021-05-08T12:42:37Z</time>
      </trkpt>
      <trkpt lat="41.3760600" lon="1.7351000">
        <ele>252.8</ele>
        <time>2021-05-08T12:42:38Z</time>
      </trkpt>
      <trkpt lat="41.3763280" lon="1.7352750">
        <ele>252.2</ele>
        <time>2021-05-08T12:42:44Z</time>
      </trkpt>
      <trkpt lat="41.3764000" lon="1.7353140">
        <ele>251.6</ele>
        <time>2021-05-08T12:42:46Z</time>
      </trkpt>
      <trkpt lat="41.3766350" lon="1.7354470">
        <ele>251.2</ele>
        <time>2021-05-08T12:42:53Z</time>
      </trkpt>
      <trkpt lat="41.3768030" lon="1.7355550">
        <ele>250.8</ele>
        <time>2021-05-08T12:42:58Z</time>
      </trkpt>
      <trkpt lat="41.3770840" lon="1.7356800">
        <ele>251.8</ele>
        <time>2021-05-08T12:43:06Z</time>
      </trkpt>
      <trkpt lat="41.3772510" lon="1.7357420">
        <ele>251.8</ele>
        <time>2021-05-08T12:43:10Z</time>
      </trkpt>
      <trkpt lat="41.3773000" lon="1.7357570">
        <ele>251.8</ele>
        <time>2021-05-08T12:43:11Z</time>
      </trkpt>
      <trkpt lat="41.3774260" lon="1.7358090">
        <ele>250.8</ele>
        <time>2021-05-08T12:43:14Z</time>
      </trkpt>
      <trkpt lat="41.3775040" lon="1.7358410">
        <ele>250.2</ele>
        <time>2021-05-08T12:43:16Z</time>
      </trkpt>
      <trkpt lat="41.3776760" lon="1.7359230">
        <ele>249.8</ele>
        <time>2021-05-08T12:43:21Z</time>
      </trkpt>
      <trkpt lat="41.3777140" lon="1.7359440">
        <ele>249.4</ele>
        <time>2021-05-08T12:43:22Z</time>
      </trkpt>
      <trkpt lat="41.3778950" lon="1.7360200">
        <ele>248.6</ele>
        <time>2021-05-08T12:43:26Z</time>
      </trkpt>
      <trkpt lat="41.3779780" lon="1.7360540">
        <ele>248.6</ele>
        <time>2021-05-08T12:43:28Z</time>
      </trkpt>
      <trkpt lat="41.3781060" lon="1.7361070">
        <ele>248.6</ele>
        <time>2021-05-08T12:43:31Z</time>
      </trkpt>
      <trkpt lat="41.3782140" lon="1.7361560">
        <ele>248.2</ele>
        <time>2021-05-08T12:43:34Z</time>
      </trkpt>
      <trkpt lat="41.3783560" lon="1.7362250">
        <ele>247.4</ele>
        <time>2021-05-08T12:43:38Z</time>
      </trkpt>
      <trkpt lat="41.3784360" lon="1.7362710">
        <ele>247.4</ele>
        <time>2021-05-08T12:43:40Z</time>
      </trkpt>
      <trkpt lat="41.3785830" lon="1.7363370">
        <ele>246.2</ele>
        <time>2021-05-08T12:43:43Z</time>
      </trkpt>
      <trkpt lat="41.3786860" lon="1.7363800">
        <ele>245.2</ele>
        <time>2021-05-08T12:43:45Z</time>
      </trkpt>
      <trkpt lat="41.3787380" lon="1.7364020">
        <ele>244.2</ele>
        <time>2021-05-08T12:43:46Z</time>
      </trkpt>
      <trkpt lat="41.3788440" lon="1.7364510">
        <ele>244.2</ele>
        <time>2021-05-08T12:43:48Z</time>
      </trkpt>
      <trkpt lat="41.3791710" lon="1.7365930">
        <ele>243.8</ele>
        <time>2021-05-08T12:43:54Z</time>
      </trkpt>
      <trkpt lat="41.3792260" lon="1.7366110">
        <ele>243.6</ele>
        <time>2021-05-08T12:43:55Z</time>
      </trkpt>
      <trkpt lat="41.3793840" lon="1.7366860">
        <ele>243.0</ele>
        <time>2021-05-08T12:43:58Z</time>
      </trkpt>
      <trkpt lat="41.3794850" lon="1.7367450">
        <ele>242.0</ele>
        <time>2021-05-08T12:44:00Z</time>
      </trkpt>
      <trkpt lat="41.3795370" lon="1.7367700">
        <ele>241.6</ele>
        <time>2021-05-08T12:44:01Z</time>
      </trkpt>
      <trkpt lat="41.3796960" lon="1.7368450">
        <ele>240.2</ele>
        <time>2021-05-08T12:44:04Z</time>
      </trkpt>
      <trkpt lat="41.3799040" lon="1.7369390">
        <ele>239.6</ele>
        <time>2021-05-08T12:44:08Z</time>
      </trkpt>
      <trkpt lat="41.3803610" lon="1.7371290">
        <ele>240.0</ele>
        <time>2021-05-08T12:44:17Z</time>
      </trkpt>
      <trkpt lat="41.3806550" lon="1.7373020">
        <ele>239.6</ele>
        <time>2021-05-08T12:44:24Z</time>
      </trkpt>
      <trkpt lat="41.3806950" lon="1.7373310">
        <ele>239.6</ele>
        <time>2021-05-08T12:44:25Z</time>
      </trkpt>
      <trkpt lat="41.3807350" lon="1.7373630">
        <ele>239.4</ele>
        <time>2021-05-08T12:44:26Z</time>
      </trkpt>
      <trkpt lat="41.3807780" lon="1.7373930">
        <ele>239.4</ele>
        <time>2021-05-08T12:44:27Z</time>
      </trkpt>
      <trkpt lat="41.3808660" lon="1.7374650">
        <ele>239.6</ele>
        <time>2021-05-08T12:44:29Z</time>
      </trkpt>
      <trkpt lat="41.3810610" lon="1.7376270">
        <ele>238.6</ele>
        <time>2021-05-08T12:44:34Z</time>
      </trkpt>
      <trkpt lat="41.3810920" lon="1.7376490">
        <ele>238.0</ele>
        <time>2021-05-08T12:44:35Z</time>
      </trkpt>
      <trkpt lat="41.3811980" lon="1.7377220">
        <ele>236.6</ele>
        <time>2021-05-08T12:44:38Z</time>
      </trkpt>
      <trkpt lat="41.3812750" lon="1.7377760">
        <ele>235.2</ele>
        <time>2021-05-08T12:44:40Z</time>
      </trkpt>
      <trkpt lat="41.3813150" lon="1.7378060">
        <ele>234.8</ele>
        <time>2021-05-08T12:44:41Z</time>
      </trkpt>
      <trkpt lat="41.3814900" lon="1.7379290">
        <ele>234.2</ele>
        <time>2021-05-08T12:44:45Z</time>
      </trkpt>
      <trkpt lat="41.3815410" lon="1.7379650">
        <ele>233.8</ele>
        <time>2021-05-08T12:44:46Z</time>
      </trkpt>
      <trkpt lat="41.3816470" lon="1.7380430">
        <ele>232.8</ele>
        <time>2021-05-08T12:44:48Z</time>
      </trkpt>
      <trkpt lat="41.3818090" lon="1.7381740">
        <ele>231.8</ele>
        <time>2021-05-08T12:44:51Z</time>
      </trkpt>
      <trkpt lat="41.3819190" lon="1.7382590">
        <ele>231.6</ele>
        <time>2021-05-08T12:44:53Z</time>
      </trkpt>
      <trkpt lat="41.3821470" lon="1.7384580">
        <ele>231.2</ele>
        <time>2021-05-08T12:44:58Z</time>
      </trkpt>
      <trkpt lat="41.3821870" lon="1.7384940">
        <ele>230.6</ele>
        <time>2021-05-08T12:44:59Z</time>
      </trkpt>
      <trkpt lat="41.3823970" lon="1.7387030">
        <ele>229.6</ele>
        <time>2021-05-08T12:45:04Z</time>
      </trkpt>
      <trkpt lat="41.3824380" lon="1.7387580">
        <ele>229.0</ele>
        <time>2021-05-08T12:45:05Z</time>
      </trkpt>
      <trkpt lat="41.3824780" lon="1.7388170">
        <ele>228.8</ele>
        <time>2021-05-08T12:45:06Z</time>
      </trkpt>
      <trkpt lat="41.3825240" lon="1.7388690">
        <ele>228.4</ele>
        <time>2021-05-08T12:45:07Z</time>
      </trkpt>
      <trkpt lat="41.3825980" lon="1.7389520">
        <ele>228.4</ele>
        <time>2021-05-08T12:45:09Z</time>
      </trkpt>
      <trkpt lat="41.3826240" lon="1.7389820">
        <ele>228.6</ele>
        <time>2021-05-08T12:45:10Z</time>
      </trkpt>
      <trkpt lat="41.3827240" lon="1.7391230">
        <ele>229.0</ele>
        <time>2021-05-08T12:45:16Z</time>
      </trkpt>
      <trkpt lat="41.3827640" lon="1.7391810">
        <ele>229.8</ele>
        <time>2021-05-08T12:45:19Z</time>
      </trkpt>
      <trkpt lat="41.3828060" lon="1.7392350">
        <ele>229.8</ele>
        <time>2021-05-08T12:45:22Z</time>
      </trkpt>
      <trkpt lat="41.3829260" lon="1.7393930">
        <ele>231.0</ele>
        <time>2021-05-08T12:45:30Z</time>
      </trkpt>
      <trkpt lat="41.3830440" lon="1.7395280">
        <ele>231.0</ele>
        <time>2021-05-08T12:45:37Z</time>
      </trkpt>
      <trkpt lat="41.3831880" lon="1.7396940">
        <ele>230.4</ele>
        <time>2021-05-08T12:45:44Z</time>
      </trkpt>
      <trkpt lat="41.3834160" lon="1.7399750">
        <ele>230.4</ele>
        <time>2021-05-08T12:45:54Z</time>
      </trkpt>
      <trkpt lat="41.3834640" lon="1.7400430">
        <ele>230.2</ele>
        <time>2021-05-08T12:45:56Z</time>
      </trkpt>
      <trkpt lat="41.3835420" lon="1.7401490">
        <ele>229.2</ele>
        <time>2021-05-08T12:45:59Z</time>
      </trkpt>
      <trkpt lat="41.3836570" lon="1.7402910">
        <ele>228.8</ele>
        <time>2021-05-08T12:46:03Z</time>
      </trkpt>
      <trkpt lat="41.3838880" lon="1.7405800">
        <ele>228.4</ele>
        <time>2021-05-08T12:46:10Z</time>
      </trkpt>
      <trkpt lat="41.3840020" lon="1.7407350">
        <ele>227.6</ele>
        <time>2021-05-08T12:46:13Z</time>
      </trkpt>
      <trkpt lat="41.3841140" lon="1.7408970">
        <ele>226.2</ele>
        <time>2021-05-08T12:46:16Z</time>
      </trkpt>
      <trkpt lat="41.3841810" lon="1.7410070">
        <ele>225.6</ele>
        <time>2021-05-08T12:46:18Z</time>
      </trkpt>
      <trkpt lat="41.3842470" lon="1.7411160">
        <ele>225.0</ele>
        <time>2021-05-08T12:46:20Z</time>
      </trkpt>
      <trkpt lat="41.3845830" lon="1.7417020">
        <ele>224.6</ele>
        <time>2021-05-08T12:46:31Z</time>
      </trkpt>
      <trkpt lat="41.3847810" lon="1.7420640">
        <ele>223.8</ele>
        <time>2021-05-08T12:46:38Z</time>
      </trkpt>
      <trkpt lat="41.3849990" lon="1.7425240">
        <ele>223.4</ele>
        <time>2021-05-08T12:46:47Z</time>
      </trkpt>
      <trkpt lat="41.3850230" lon="1.7425760">
        <ele>223.6</ele>
        <time>2021-05-08T12:46:48Z</time>
      </trkpt>
      <trkpt lat="41.3850700" lon="1.7426760">
        <ele>222.8</ele>
        <time>2021-05-08T12:46:50Z</time>
      </trkpt>
      <trkpt lat="41.3851330" lon="1.7428230">
        <ele>222.4</ele>
        <time>2021-05-08T12:46:53Z</time>
      </trkpt>
      <trkpt lat="41.3852890" lon="1.7431940">
        <ele>221.8</ele>
        <time>2021-05-08T12:47:00Z</time>
      </trkpt>
      <trkpt lat="41.3853070" lon="1.7432520">
        <ele>221.6</ele>
        <time>2021-05-08T12:47:01Z</time>
      </trkpt>
      <trkpt lat="41.3853270" lon="1.7433070">
        <ele>221.2</ele>
        <time>2021-05-08T12:47:02Z</time>
      </trkpt>
      <trkpt lat="41.3854370" lon="1.7435780">
        <ele>221.0</ele>
        <time>2021-05-08T12:47:07Z</time>
      </trkpt>
      <trkpt lat="41.3855510" lon="1.7438010">
        <ele>221.0</ele>
        <time>2021-05-08T12:47:12Z</time>
      </trkpt>
      <trkpt lat="41.3856200" lon="1.7439270">
        <ele>221.4</ele>
        <time>2021-05-08T12:47:16Z</time>
      </trkpt>
      <trkpt lat="41.3856600" lon="1.7440150">
        <ele>221.6</ele>
        <time>2021-05-08T12:47:19Z</time>
      </trkpt>
      <trkpt lat="41.3857720" lon="1.7442890">
        <ele>222.6</ele>
        <time>2021-05-08T12:47:29Z</time>
      </trkpt>
      <trkpt lat="41.3857940" lon="1.7443420">
        <ele>223.0</ele>
        <time>2021-05-08T12:47:31Z</time>
      </trkpt>
      <trkpt lat="41.3858600" lon="1.7445210">
        <ele>224.4</ele>
        <time>2021-05-08T12:47:38Z</time>
      </trkpt>
      <trkpt lat="41.3858690" lon="1.7445450">
        <ele>224.6</ele>
        <time>2021-05-08T12:47:39Z</time>
      </trkpt>
      <trkpt lat="41.3859500" lon="1.7447600">
        <ele>225.0</ele>
        <time>2021-05-08T12:47:47Z</time>
      </trkpt>
      <trkpt lat="41.3860480" lon="1.7450420">
        <ele>224.6</ele>
        <time>2021-05-08T12:47:56Z</time>
      </trkpt>
      <trkpt lat="41.3860670" lon="1.7451620">
        <ele>224.4</ele>
        <time>2021-05-08T12:48:01Z</time>
      </trkpt>
      <trkpt lat="41.3860680" lon="1.7451640">
        <ele>224.2</ele>
        <time>2021-05-08T12:48:02Z</time>
      </trkpt>
      <trkpt lat="41.3861000" lon="1.7452000">
        <ele>225.6</ele>
        <time>2021-05-08T12:53:48Z</time>
      </trkpt>
      <trkpt lat="41.3861110" lon="1.7452540">
        <ele>225.6</ele>
        <time>2021-05-08T12:53:50Z</time>
      </trkpt>
      <trkpt lat="41.3861570" lon="1.7454760">
        <ele>225.2</ele>
        <time>2021-05-08T12:53:56Z</time>
      </trkpt>
      <trkpt lat="41.3861830" lon="1.7456210">
        <ele>224.8</ele>
        <time>2021-05-08T12:53:59Z</time>
      </trkpt>
      <trkpt lat="41.3862100" lon="1.7457200">
        <ele>224.6</ele>
        <time>2021-05-08T12:54:01Z</time>
      </trkpt>
      <trkpt lat="41.3862250" lon="1.7457690">
        <ele>224.4</ele>
        <time>2021-05-08T12:54:02Z</time>
      </trkpt>
      <trkpt lat="41.3862610" lon="1.7459290">
        <ele>223.6</ele>
        <time>2021-05-08T12:54:05Z</time>
      </trkpt>
      <trkpt lat="41.3862690" lon="1.7459910">
        <ele>223.4</ele>
        <time>2021-05-08T12:54:06Z</time>
      </trkpt>
      <trkpt lat="41.3862780" lon="1.7460550">
        <ele>223.2</ele>
        <time>2021-05-08T12:54:07Z</time>
      </trkpt>
      <trkpt lat="41.3862990" lon="1.7461970">
        <ele>223.0</ele>
        <time>2021-05-08T12:54:09Z</time>
      </trkpt>
      <trkpt lat="41.3863120" lon="1.7462730">
        <ele>222.2</ele>
        <time>2021-05-08T12:54:10Z</time>
      </trkpt>
      <trkpt lat="41.3863400" lon="1.7464160">
        <ele>221.8</ele>
        <time>2021-05-08T12:54:12Z</time>
      </trkpt>
      <trkpt lat="41.3863670" lon="1.7465530">
        <ele>220.8</ele>
        <time>2021-05-08T12:54:14Z</time>
      </trkpt>
      <trkpt lat="41.3864150" lon="1.7467560">
        <ele>219.2</ele>
        <time>2021-05-08T12:54:17Z</time>
      </trkpt>
      <trkpt lat="41.3864310" lon="1.7468220">
        <ele>218.6</ele>
        <time>2021-05-08T12:54:18Z</time>
      </trkpt>
      <trkpt lat="41.3864450" lon="1.7468900">
        <ele>218.2</ele>
        <time>2021-05-08T12:54:19Z</time>
      </trkpt>
      <trkpt lat="41.3865180" lon="1.7472960">
        <ele>218.2</ele>
        <time>2021-05-08T12:54:25Z</time>
      </trkpt>
      <trkpt lat="41.3865390" lon="1.7474130">
        <ele>217.2</ele>
        <time>2021-05-08T12:54:27Z</time>
      </trkpt>
      <trkpt lat="41.3866130" lon="1.7477640">
        <ele>216.2</ele>
        <time>2021-05-08T12:54:33Z</time>
      </trkpt>
      <trkpt lat="41.3866230" lon="1.7478110">
        <ele>215.6</ele>
        <time>2021-05-08T12:54:34Z</time>
      </trkpt>
      <trkpt lat="41.3866420" lon="1.7479040">
        <ele>215.6</ele>
        <time>2021-05-08T12:54:37Z</time>
      </trkpt>
      <trkpt lat="41.3866540" lon="1.7480240">
        <ele>215.0</ele>
        <time>2021-05-08T12:54:43Z</time>
      </trkpt>
      <trkpt lat="41.3866510" lon="1.7480230">
        <ele>214.8</ele>
        <time>2021-05-08T12:54:44Z</time>
      </trkpt>
      <trkpt lat="41.3866850" lon="1.7483350">
        <ele>214.8</ele>
        <time>2021-05-08T12:57:09Z</time>
      </trkpt>
      <trkpt lat="41.3867090" lon="1.7483630">
        <ele>214.8</ele>
        <time>2021-05-08T12:57:11Z</time>
      </trkpt>
      <trkpt lat="41.3867240" lon="1.7484200">
        <ele>214.6</ele>
        <time>2021-05-08T12:57:14Z</time>
      </trkpt>
      <trkpt lat="41.3867320" lon="1.7484930">
        <ele>214.4</ele>
        <time>2021-05-08T12:57:18Z</time>
      </trkpt>
      <trkpt lat="41.3867290" lon="1.7485100">
        <ele>214.2</ele>
        <time>2021-05-08T12:57:21Z</time>
      </trkpt>
      <trkpt lat="41.3867350" lon="1.7485490">
        <ele>214.0</ele>
        <time>2021-05-08T12:57:34Z</time>
      </trkpt>
      <trkpt lat="41.3867360" lon="1.7485710">
        <ele>214.0</ele>
        <time>2021-05-08T12:57:35Z</time>
      </trkpt>
      <trkpt lat="41.3867460" lon="1.7487070">
        <ele>214.0</ele>
        <time>2021-05-08T12:57:40Z</time>
      </trkpt>
      <trkpt lat="41.3867500" lon="1.7487830">
        <ele>213.8</ele>
        <time>2021-05-08T12:57:42Z</time>
      </trkpt>
      <trkpt lat="41.3867680" lon="1.7490370">
        <ele>213.4</ele>
        <time>2021-05-08T12:57:49Z</time>
      </trkpt>
      <trkpt lat="41.3867850" lon="1.7491930">
        <ele>213.0</ele>
        <time>2021-05-08T12:57:53Z</time>
      </trkpt>
      <trkpt lat="41.3867930" lon="1.7492780">
        <ele>212.6</ele>
        <time>2021-05-08T12:57:55Z</time>
      </trkpt>
      <trkpt lat="41.3867810" lon="1.7495330">
        <ele>212.8</ele>
        <time>2021-05-08T12:58:01Z</time>
      </trkpt>
      <trkpt lat="41.3868030" lon="1.7498060">
        <ele>212.2</ele>
        <time>2021-05-08T12:58:07Z</time>
      </trkpt>
      <trkpt lat="41.3868050" lon="1.7498540">
        <ele>212.0</ele>
        <time>2021-05-08T12:58:08Z</time>
      </trkpt>
      <trkpt lat="41.3868230" lon="1.7503210">
        <ele>212.4</ele>
        <time>2021-05-08T12:58:18Z</time>
      </trkpt>
      <trkpt lat="41.3868350" lon="1.7506800">
        <ele>212.0</ele>
        <time>2021-05-08T12:58:26Z</time>
      </trkpt>
      <trkpt lat="41.3868560" lon="1.7511320">
        <ele>211.4</ele>
        <time>2021-05-08T12:58:36Z</time>
      </trkpt>
      <trkpt lat="41.3868790" lon="1.7515220">
        <ele>211.4</ele>
        <time>2021-05-08T12:58:44Z</time>
      </trkpt>
      <trkpt lat="41.3868870" lon="1.7517240">
        <ele>211.2</ele>
        <time>2021-05-08T12:58:48Z</time>
      </trkpt>
      <trkpt lat="41.3869110" lon="1.7519670">
        <ele>210.4</ele>
        <time>2021-05-08T12:58:53Z</time>
      </trkpt>
      <trkpt lat="41.3869450" lon="1.7523870">
        <ele>211.0</ele>
        <time>2021-05-08T12:59:02Z</time>
      </trkpt>
      <trkpt lat="41.3869850" lon="1.7527670">
        <ele>211.4</ele>
        <time>2021-05-08T12:59:11Z</time>
      </trkpt>
      <trkpt lat="41.3870520" lon="1.7531810">
        <ele>211.4</ele>
        <time>2021-05-08T12:59:21Z</time>
      </trkpt>
      <trkpt lat="41.3871070" lon="1.7535410">
        <ele>211.6</ele>
        <time>2021-05-08T12:59:29Z</time>
      </trkpt>
      <trkpt lat="41.3872060" lon="1.7541280">
        <ele>211.4</ele>
        <time>2021-05-08T12:59:41Z</time>
      </trkpt>
      <trkpt lat="41.3872830" lon="1.7544970">
        <ele>210.2</ele>
        <time>2021-05-08T12:59:48Z</time>
      </trkpt>
      <trkpt lat="41.3873160" lon="1.7546680">
        <ele>209.4</ele>
        <time>2021-05-08T12:59:51Z</time>
      </trkpt>
      <trkpt lat="41.3873430" lon="1.7547840">
        <ele>209.2</ele>
        <time>2021-05-08T12:59:53Z</time>
      </trkpt>
      <trkpt lat="41.3874260" lon="1.7550410">
        <ele>208.4</ele>
        <time>2021-05-08T12:59:58Z</time>
      </trkpt>
      <trkpt lat="41.3874690" lon="1.7551160">
        <ele>208.0</ele>
        <time>2021-05-08T13:00:00Z</time>
      </trkpt>
      <trkpt lat="41.3875380" lon="1.7552260">
        <ele>207.2</ele>
        <time>2021-05-08T13:00:03Z</time>
      </trkpt>
      <trkpt lat="41.3875870" lon="1.7553330">
        <ele>206.6</ele>
        <time>2021-05-08T13:00:05Z</time>
      </trkpt>
      <trkpt lat="41.3876420" lon="1.7554320">
        <ele>205.4</ele>
        <time>2021-05-08T13:00:07Z</time>
      </trkpt>
      <trkpt lat="41.3877060" lon="1.7555400">
        <ele>203.6</ele>
        <time>2021-05-08T13:00:09Z</time>
      </trkpt>
      <trkpt lat="41.3877620" lon="1.7556460">
        <ele>201.8</ele>
        <time>2021-05-08T13:00:11Z</time>
      </trkpt>
      <trkpt lat="41.3878200" lon="1.7557200">
        <ele>200.6</ele>
        <time>2021-05-08T13:00:13Z</time>
      </trkpt>
      <trkpt lat="41.3878490" lon="1.7557620">
        <ele>199.8</ele>
        <time>2021-05-08T13:00:14Z</time>
      </trkpt>
      <trkpt lat="41.3878730" lon="1.7557990">
        <ele>199.0</ele>
        <time>2021-05-08T13:00:15Z</time>
      </trkpt>
      <trkpt lat="41.3879290" lon="1.7558540">
        <ele>197.6</ele>
        <time>2021-05-08T13:00:17Z</time>
      </trkpt>
      <trkpt lat="41.3879680" lon="1.7558810">
        <ele>196.4</ele>
        <time>2021-05-08T13:00:18Z</time>
      </trkpt>
      <trkpt lat="41.3880100" lon="1.7559090">
        <ele>195.2</ele>
        <time>2021-05-08T13:00:19Z</time>
      </trkpt>
      <trkpt lat="41.3880480" lon="1.7559430">
        <ele>194.6</ele>
        <time>2021-05-08T13:00:20Z</time>
      </trkpt>
      <trkpt lat="41.3880760" lon="1.7559890">
        <ele>193.8</ele>
        <time>2021-05-08T13:00:21Z</time>
      </trkpt>
      <trkpt lat="41.3880720" lon="1.7561310">
        <ele>192.8</ele>
        <time>2021-05-08T13:00:24Z</time>
      </trkpt>
      <trkpt lat="41.3880590" lon="1.7561680">
        <ele>192.6</ele>
        <time>2021-05-08T13:00:25Z</time>
      </trkpt>
      <trkpt lat="41.3880470" lon="1.7562060">
        <ele>192.4</ele>
        <time>2021-05-08T13:00:26Z</time>
      </trkpt>
      <trkpt lat="41.3880250" lon="1.7563140">
        <ele>192.4</ele>
        <time>2021-05-08T13:00:29Z</time>
      </trkpt>
      <trkpt lat="41.3880510" lon="1.7564830">
        <ele>193.2</ele>
        <time>2021-05-08T13:00:35Z</time>
      </trkpt>
      <trkpt lat="41.3881830" lon="1.7565890">
        <ele>193.0</ele>
        <time>2021-05-08T13:00:41Z</time>
      </trkpt>
      <trkpt lat="41.3882090" lon="1.7565980">
        <ele>192.6</ele>
        <time>2021-05-08T13:00:42Z</time>
      </trkpt>
      <trkpt lat="41.3882610" lon="1.7566060">
        <ele>191.8</ele>
        <time>2021-05-08T13:00:45Z</time>
      </trkpt>
      <trkpt lat="41.3882660" lon="1.7566120">
        <ele>191.8</ele>
        <time>2021-05-08T13:00:46Z</time>
      </trkpt>
      <trkpt lat="41.3882660" lon="1.7566120">
        <ele>191.6</ele>
        <time>2021-05-08T13:00:47Z</time>
      </trkpt>
      <trkpt lat="41.3882970" lon="1.7567440">
        <ele>190.4</ele>
        <time>2021-05-08T13:09:22Z</time>
      </trkpt>
      <trkpt lat="41.3883030" lon="1.7567610">
        <ele>190.4</ele>
        <time>2021-05-08T13:09:23Z</time>
      </trkpt>
      <trkpt lat="41.3883630" lon="1.7568900">
        <ele>190.6</ele>
        <time>2021-05-08T13:09:31Z</time>
      </trkpt>
      <trkpt lat="41.3884050" lon="1.7570100">
        <ele>191.2</ele>
        <time>2021-05-08T13:09:38Z</time>
      </trkpt>
      <trkpt lat="41.3884750" lon="1.7572030">
        <ele>191.2</ele>
        <time>2021-05-08T13:09:47Z</time>
      </trkpt>
      <trkpt lat="41.3885260" lon="1.7573480">
        <ele>191.6</ele>
        <time>2021-05-08T13:09:54Z</time>
      </trkpt>
      <trkpt lat="41.3886010" lon="1.7575550">
        <ele>191.8</ele>
        <time>2021-05-08T13:10:04Z</time>
      </trkpt>
      <trkpt lat="41.3886700" lon="1.7577600">
        <ele>192.4</ele>
        <time>2021-05-08T13:10:14Z</time>
      </trkpt>
      <trkpt lat="41.3886830" lon="1.7578000">
        <ele>192.8</ele>
        <time>2021-05-08T13:10:16Z</time>
      </trkpt>
      <trkpt lat="41.3887270" lon="1.7579360">
        <ele>193.6</ele>
        <time>2021-05-08T13:10:23Z</time>
      </trkpt>
      <trkpt lat="41.3887730" lon="1.7580280">
        <ele>193.8</ele>
        <time>2021-05-08T13:10:28Z</time>
      </trkpt>
      <trkpt lat="41.3887980" lon="1.7580940">
        <ele>194.2</ele>
        <time>2021-05-08T13:10:31Z</time>
      </trkpt>
      <trkpt lat="41.3888130" lon="1.7581540">
        <ele>195.0</ele>
        <time>2021-05-08T13:10:34Z</time>
      </trkpt>
      <trkpt lat="41.3888250" lon="1.7582130">
        <ele>195.2</ele>
        <time>2021-05-08T13:10:37Z</time>
      </trkpt>
      <trkpt lat="41.3888570" lon="1.7583140">
        <ele>196.2</ele>
        <time>2021-05-08T13:10:43Z</time>
      </trkpt>
      <trkpt lat="41.3888660" lon="1.7583540">
        <ele>196.8</ele>
        <time>2021-05-08T13:10:45Z</time>
      </trkpt>
      <trkpt lat="41.3888790" lon="1.7584120">
        <ele>197.4</ele>
        <time>2021-05-08T13:10:48Z</time>
      </trkpt>
      <trkpt lat="41.3888910" lon="1.7584620">
        <ele>198.6</ele>
        <time>2021-05-08T13:10:51Z</time>
      </trkpt>
      <trkpt lat="41.3888990" lon="1.7584930">
        <ele>199.2</ele>
        <time>2021-05-08T13:10:53Z</time>
      </trkpt>
      <trkpt lat="41.3889090" lon="1.7585250">
        <ele>199.6</ele>
        <time>2021-05-08T13:10:55Z</time>
      </trkpt>
      <trkpt lat="41.3889520" lon="1.7586530">
        <ele>200.2</ele>
        <time>2021-05-08T13:11:03Z</time>
      </trkpt>
      <trkpt lat="41.3889650" lon="1.7586810">
        <ele>200.8</ele>
        <time>2021-05-08T13:11:05Z</time>
      </trkpt>
      <trkpt lat="41.3890010" lon="1.7587650">
        <ele>201.4</ele>
        <time>2021-05-08T13:11:11Z</time>
      </trkpt>
      <trkpt lat="41.3890160" lon="1.7588080">
        <ele>201.8</ele>
        <time>2021-05-08T13:11:14Z</time>
      </trkpt>
      <trkpt lat="41.3890540" lon="1.7588970">
        <ele>202.4</ele>
        <time>2021-05-08T13:11:20Z</time>
      </trkpt>
      <trkpt lat="41.3890970" lon="1.7590090">
        <ele>202.8</ele>
        <time>2021-05-08T13:11:27Z</time>
      </trkpt>
      <trkpt lat="41.3891210" lon="1.7590580">
        <ele>203.8</ele>
        <time>2021-05-08T13:11:30Z</time>
      </trkpt>
      <trkpt lat="41.3891300" lon="1.7590740">
        <ele>204.0</ele>
        <time>2021-05-08T13:11:31Z</time>
      </trkpt>
      <trkpt lat="41.3892080" lon="1.7592000">
        <ele>204.4</ele>
        <time>2021-05-08T13:11:40Z</time>
      </trkpt>
      <trkpt lat="41.3892420" lon="1.7592310">
        <ele>205.0</ele>
        <time>2021-05-08T13:11:43Z</time>
      </trkpt>
      <trkpt lat="41.3892970" lon="1.7592890">
        <ele>205.4</ele>
        <time>2021-05-08T13:11:48Z</time>
      </trkpt>
      <trkpt lat="41.3893320" lon="1.7593270">
        <ele>206.2</ele>
        <time>2021-05-08T13:11:51Z</time>
      </trkpt>
      <trkpt lat="41.3893900" lon="1.7593950">
        <ele>207.4</ele>
        <time>2021-05-08T13:11:56Z</time>
      </trkpt>
      <trkpt lat="41.3893980" lon="1.7594080">
        <ele>207.4</ele>
        <time>2021-05-08T13:11:57Z</time>
      </trkpt>
      <trkpt lat="41.3894440" lon="1.7594630">
        <ele>209.2</ele>
        <time>2021-05-08T13:12:02Z</time>
      </trkpt>
      <trkpt lat="41.3894720" lon="1.7595040">
        <ele>210.2</ele>
        <time>2021-05-08T13:12:05Z</time>
      </trkpt>
      <trkpt lat="41.3894940" lon="1.7595360">
        <ele>210.4</ele>
        <time>2021-05-08T13:12:08Z</time>
      </trkpt>
      <trkpt lat="41.3895000" lon="1.7595730">
        <ele>210.4</ele>
        <time>2021-05-08T13:12:11Z</time>
      </trkpt>
      <trkpt lat="41.3895080" lon="1.7595880">
        <ele>210.4</ele>
        <time>2021-05-08T13:12:12Z</time>
      </trkpt>
      <trkpt lat="41.3895570" lon="1.7596550">
        <ele>210.2</ele>
        <time>2021-05-08T13:12:16Z</time>
      </trkpt>
      <trkpt lat="41.3896370" lon="1.7597760">
        <ele>211.0</ele>
        <time>2021-05-08T13:12:23Z</time>
      </trkpt>
      <trkpt lat="41.3896840" lon="1.7598460">
        <ele>211.4</ele>
        <time>2021-05-08T13:12:27Z</time>
      </trkpt>
      <trkpt lat="41.3897120" lon="1.7598890">
        <ele>211.6</ele>
        <time>2021-05-08T13:12:29Z</time>
      </trkpt>
      <trkpt lat="41.3897880" lon="1.7600040">
        <ele>211.0</ele>
        <time>2021-05-08T13:12:36Z</time>
      </trkpt>
      <trkpt lat="41.3897900" lon="1.7600100">
        <ele>211.0</ele>
        <time>2021-05-08T13:12:38Z</time>
      </trkpt>
      <trkpt lat="41.3898170" lon="1.7600430">
        <ele>211.8</ele>
        <time>2021-05-08T13:13:36Z</time>
      </trkpt>
      <trkpt lat="41.3898410" lon="1.7600700">
        <ele>212.0</ele>
        <time>2021-05-08T13:13:38Z</time>
      </trkpt>
      <trkpt lat="41.3899090" lon="1.7601930">
        <ele>211.4</ele>
        <time>2021-05-08T13:13:44Z</time>
      </trkpt>
      <trkpt lat="41.3899980" lon="1.7603290">
        <ele>211.0</ele>
        <time>2021-05-08T13:13:50Z</time>
      </trkpt>
      <trkpt lat="41.3901020" lon="1.7604690">
        <ele>210.4</ele>
        <time>2021-05-08T13:13:56Z</time>
      </trkpt>
      <trkpt lat="41.3901380" lon="1.7605180">
        <ele>210.2</ele>
        <time>2021-05-08T13:13:58Z</time>
      </trkpt>
      <trkpt lat="41.3902500" lon="1.7606500">
        <ele>210.2</ele>
        <time>2021-05-08T13:14:04Z</time>
      </trkpt>
      <trkpt lat="41.3903260" lon="1.7607520">
        <ele>210.2</ele>
        <time>2021-05-08T13:14:08Z</time>
      </trkpt>
      <trkpt lat="41.3904850" lon="1.7609330">
        <ele>210.4</ele>
        <time>2021-05-08T13:14:16Z</time>
      </trkpt>
      <trkpt lat="41.3906220" lon="1.7610570">
        <ele>210.6</ele>
        <time>2021-05-08T13:14:22Z</time>
      </trkpt>
      <trkpt lat="41.3907300" lon="1.7611590">
        <ele>211.0</ele>
        <time>2021-05-08T13:14:27Z</time>
      </trkpt>
      <trkpt lat="41.3907930" lon="1.7612150">
        <ele>211.2</ele>
        <time>2021-05-08T13:14:30Z</time>
      </trkpt>
      <trkpt lat="41.3908120" lon="1.7612330">
        <ele>211.4</ele>
        <time>2021-05-08T13:14:31Z</time>
      </trkpt>
      <trkpt lat="41.3909300" lon="1.7613400">
        <ele>212.4</ele>
        <time>2021-05-08T13:14:37Z</time>
      </trkpt>
      <trkpt lat="41.3910660" lon="1.7614720">
        <ele>212.2</ele>
        <time>2021-05-08T13:14:43Z</time>
      </trkpt>
      <trkpt lat="41.3912330" lon="1.7617000">
        <ele>211.8</ele>
        <time>2021-05-08T13:14:49Z</time>
      </trkpt>
      <trkpt lat="41.3913730" lon="1.7619510">
        <ele>210.0</ele>
        <time>2021-05-08T13:14:53Z</time>
      </trkpt>
      <trkpt lat="41.3914110" lon="1.7620240">
        <ele>209.2</ele>
        <time>2021-05-08T13:14:54Z</time>
      </trkpt>
      <trkpt lat="41.3914510" lon="1.7620970">
        <ele>208.8</ele>
        <time>2021-05-08T13:14:55Z</time>
      </trkpt>
      <trkpt lat="41.3915610" lon="1.7622840">
        <ele>207.0</ele>
        <time>2021-05-08T13:14:58Z</time>
      </trkpt>
      <trkpt lat="41.3916040" lon="1.7623380">
        <ele>206.4</ele>
        <time>2021-05-08T13:14:59Z</time>
      </trkpt>
      <trkpt lat="41.3916520" lon="1.7623930">
        <ele>206.0</ele>
        <time>2021-05-08T13:15:00Z</time>
      </trkpt>
      <trkpt lat="41.3918090" lon="1.7625700">
        <ele>204.4</ele>
        <time>2021-05-08T13:15:03Z</time>
      </trkpt>
      <trkpt lat="41.3918650" lon="1.7626290">
        <ele>203.8</ele>
        <time>2021-05-08T13:15:04Z</time>
      </trkpt>
      <trkpt lat="41.3919870" lon="1.7627380">
        <ele>203.0</ele>
        <time>2021-05-08T13:15:06Z</time>
      </trkpt>
      <trkpt lat="41.3920440" lon="1.7627970">
        <ele>202.4</ele>
        <time>2021-05-08T13:15:07Z</time>
      </trkpt>
      <trkpt lat="41.3921440" lon="1.7629220">
        <ele>202.0</ele>
        <time>2021-05-08T13:15:09Z</time>
      </trkpt>
      <trkpt lat="41.3921860" lon="1.7629880">
        <ele>201.8</ele>
        <time>2021-05-08T13:15:10Z</time>
      </trkpt>
      <trkpt lat="41.3922230" lon="1.7630540">
        <ele>201.4</ele>
        <time>2021-05-08T13:15:11Z</time>
      </trkpt>
      <trkpt lat="41.3922910" lon="1.7631670">
        <ele>201.2</ele>
        <time>2021-05-08T13:15:13Z</time>
      </trkpt>
      <trkpt lat="41.3923680" lon="1.7633050">
        <ele>202.0</ele>
        <time>2021-05-08T13:15:17Z</time>
      </trkpt>
      <trkpt lat="41.3924400" lon="1.7634210">
        <ele>203.0</ele>
        <time>2021-05-08T13:15:23Z</time>
      </trkpt>
      <trkpt lat="41.3924500" lon="1.7634380">
        <ele>203.0</ele>
        <time>2021-05-08T13:15:24Z</time>
      </trkpt>
      <trkpt lat="41.3925420" lon="1.7635500">
        <ele>204.0</ele>
        <time>2021-05-08T13:15:31Z</time>
      </trkpt>
      <trkpt lat="41.3926320" lon="1.7636410">
        <ele>205.2</ele>
        <time>2021-05-08T13:15:37Z</time>
      </trkpt>
      <trkpt lat="41.3926620" lon="1.7636690">
        <ele>205.8</ele>
        <time>2021-05-08T13:15:39Z</time>
      </trkpt>
      <trkpt lat="41.3927080" lon="1.7637110">
        <ele>206.4</ele>
        <time>2021-05-08T13:15:42Z</time>
      </trkpt>
      <trkpt lat="41.3927890" lon="1.7637910">
        <ele>207.6</ele>
        <time>2021-05-08T13:15:47Z</time>
      </trkpt>
      <trkpt lat="41.3929030" lon="1.7639480">
        <ele>208.4</ele>
        <time>2021-05-08T13:15:55Z</time>
      </trkpt>
      <trkpt lat="41.3929190" lon="1.7639710">
        <ele>208.8</ele>
        <time>2021-05-08T13:15:56Z</time>
      </trkpt>
      <trkpt lat="41.3929920" lon="1.7640790">
        <ele>209.0</ele>
        <time>2021-05-08T13:16:01Z</time>
      </trkpt>
      <trkpt lat="41.3930220" lon="1.7641320">
        <ele>209.0</ele>
        <time>2021-05-08T13:16:03Z</time>
      </trkpt>
      <trkpt lat="41.3931640" lon="1.7643960">
        <ele>208.4</ele>
        <time>2021-05-08T13:16:12Z</time>
      </trkpt>
      <trkpt lat="41.3933330" lon="1.7647020">
        <ele>207.8</ele>
        <time>2021-05-08T13:16:22Z</time>
      </trkpt>
      <trkpt lat="41.3933500" lon="1.7647350">
        <ele>207.6</ele>
        <time>2021-05-08T13:16:23Z</time>
      </trkpt>
      <trkpt lat="41.3934710" lon="1.7649310">
        <ele>206.4</ele>
        <time>2021-05-08T13:16:29Z</time>
      </trkpt>
      <trkpt lat="41.3935340" lon="1.7650380">
        <ele>205.6</ele>
        <time>2021-05-08T13:16:32Z</time>
      </trkpt>
      <trkpt lat="41.3935950" lon="1.7651450">
        <ele>204.4</ele>
        <time>2021-05-08T13:16:35Z</time>
      </trkpt>
      <trkpt lat="41.3936940" lon="1.7653160">
        <ele>203.2</ele>
        <time>2021-05-08T13:16:40Z</time>
      </trkpt>
      <trkpt lat="41.3937140" lon="1.7653500">
        <ele>203.0</ele>
        <time>2021-05-08T13:16:41Z</time>
      </trkpt>
      <trkpt lat="41.3937580" lon="1.7654200">
        <ele>202.2</ele>
        <time>2021-05-08T13:16:43Z</time>
      </trkpt>
      <trkpt lat="41.3938290" lon="1.7655400">
        <ele>201.0</ele>
        <time>2021-05-08T13:16:46Z</time>
      </trkpt>
      <trkpt lat="41.3938540" lon="1.7655840">
        <ele>200.4</ele>
        <time>2021-05-08T13:16:47Z</time>
      </trkpt>
      <trkpt lat="41.3938800" lon="1.7656300">
        <ele>199.8</ele>
        <time>2021-05-08T13:16:48Z</time>
      </trkpt>
      <trkpt lat="41.3939620" lon="1.7657810">
        <ele>198.6</ele>
        <time>2021-05-08T13:16:51Z</time>
      </trkpt>
      <trkpt lat="41.3940500" lon="1.7659510">
        <ele>198.0</ele>
        <time>2021-05-08T13:16:54Z</time>
      </trkpt>
      <trkpt lat="41.3941380" lon="1.7661270">
        <ele>197.6</ele>
        <time>2021-05-08T13:16:57Z</time>
      </trkpt>
      <trkpt lat="41.3942580" lon="1.7663620">
        <ele>197.4</ele>
        <time>2021-05-08T13:17:01Z</time>
      </trkpt>
      <trkpt lat="41.3944190" lon="1.7667640">
        <ele>196.8</ele>
        <time>2021-05-08T13:17:08Z</time>
      </trkpt>
      <trkpt lat="41.3944620" lon="1.7669350">
        <ele>198.0</ele>
        <time>2021-05-08T13:17:13Z</time>
      </trkpt>
      <trkpt lat="41.3944690" lon="1.7669600">
        <ele>198.6</ele>
        <time>2021-05-08T13:17:14Z</time>
      </trkpt>
      <trkpt lat="41.3945210" lon="1.7670940">
        <ele>199.2</ele>
        <time>2021-05-08T13:17:20Z</time>
      </trkpt>
      <trkpt lat="41.3945560" lon="1.7671800">
        <ele>199.0</ele>
        <time>2021-05-08T13:17:23Z</time>
      </trkpt>
      <trkpt lat="41.3946130" lon="1.7673330">
        <ele>198.4</ele>
        <time>2021-05-08T13:17:27Z</time>
      </trkpt>
      <trkpt lat="41.3946850" lon="1.7675160">
        <ele>197.4</ele>
        <time>2021-05-08T13:17:31Z</time>
      </trkpt>
      <trkpt lat="41.3947470" lon="1.7676670">
        <ele>197.0</ele>
        <time>2021-05-08T13:17:34Z</time>
      </trkpt>
      <trkpt lat="41.3948800" lon="1.7680500">
        <ele>197.2</ele>
        <time>2021-05-08T13:17:42Z</time>
      </trkpt>
      <trkpt lat="41.3949980" lon="1.7684130">
        <ele>197.6</ele>
        <time>2021-05-08T13:17:50Z</time>
      </trkpt>
      <trkpt lat="41.3951320" lon="1.7687940">
        <ele>197.4</ele>
        <time>2021-05-08T13:17:59Z</time>
      </trkpt>
      <trkpt lat="41.3952840" lon="1.7689780">
        <ele>197.6</ele>
        <time>2021-05-08T13:18:06Z</time>
      </trkpt>
      <trkpt lat="41.3954110" lon="1.7689560">
        <ele>197.2</ele>
        <time>2021-05-08T13:18:10Z</time>
      </trkpt>
      <trkpt lat="41.3955200" lon="1.7688100">
        <ele>196.2</ele>
        <time>2021-05-08T13:18:15Z</time>
      </trkpt>
      <trkpt lat="41.3955400" lon="1.7687860">
        <ele>195.8</ele>
        <time>2021-05-08T13:18:16Z</time>
      </trkpt>
      <trkpt lat="41.3955590" lon="1.7687750">
        <ele>195.8</ele>
        <time>2021-05-08T13:18:17Z</time>
      </trkpt>
      <trkpt lat="41.3955890" lon="1.7687960">
        <ele>195.2</ele>
        <time>2021-05-08T13:18:19Z</time>
      </trkpt>
      <trkpt lat="41.3955730" lon="1.7688420">
        <ele>194.0</ele>
        <time>2021-05-08T13:18:21Z</time>
      </trkpt>
      <trkpt lat="41.3955580" lon="1.7688650">
        <ele>193.8</ele>
        <time>2021-05-08T13:18:22Z</time>
      </trkpt>
      <trkpt lat="41.3955300" lon="1.7689180">
        <ele>193.6</ele>
        <time>2021-05-08T13:18:24Z</time>
      </trkpt>
      <trkpt lat="41.3954510" lon="1.7690570">
        <ele>193.0</ele>
        <time>2021-05-08T13:18:29Z</time>
      </trkpt>
      <trkpt lat="41.3954360" lon="1.7690880">
        <ele>192.8</ele>
        <time>2021-05-08T13:18:30Z</time>
      </trkpt>
      <trkpt lat="41.3953580" lon="1.7692700">
        <ele>192.0</ele>
        <time>2021-05-08T13:18:37Z</time>
      </trkpt>
      <trkpt lat="41.3953650" lon="1.7693180">
        <ele>192.2</ele>
        <time>2021-05-08T13:18:39Z</time>
      </trkpt>
      <trkpt lat="41.3954070" lon="1.7693400">
        <ele>192.2</ele>
        <time>2021-05-08T13:18:41Z</time>
      </trkpt>
      <trkpt lat="41.3954940" lon="1.7692430">
        <ele>192.0</ele>
        <time>2021-05-08T13:18:45Z</time>
      </trkpt>
      <trkpt lat="41.3955140" lon="1.7692090">
        <ele>191.8</ele>
        <time>2021-05-08T13:18:46Z</time>
      </trkpt>
      <trkpt lat="41.3956590" lon="1.7690030">
        <ele>190.6</ele>
        <time>2021-05-08T13:18:51Z</time>
      </trkpt>
      <trkpt lat="41.3957780" lon="1.7688330">
        <ele>189.2</ele>
        <time>2021-05-08T13:18:54Z</time>
      </trkpt>
      <trkpt lat="41.3958720" lon="1.7687000">
        <ele>188.4</ele>
        <time>2021-05-08T13:18:56Z</time>
      </trkpt>
      <trkpt lat="41.3959240" lon="1.7686370">
        <ele>188.2</ele>
        <time>2021-05-08T13:18:57Z</time>
      </trkpt>
      <trkpt lat="41.3960660" lon="1.7684410">
        <ele>187.0</ele>
        <time>2021-05-08T13:19:00Z</time>
      </trkpt>
      <trkpt lat="41.3961120" lon="1.7683790">
        <ele>186.8</ele>
        <time>2021-05-08T13:19:01Z</time>
      </trkpt>
      <trkpt lat="41.3963440" lon="1.7681170">
        <ele>186.6</ele>
        <time>2021-05-08T13:19:06Z</time>
      </trkpt>
      <trkpt lat="41.3963960" lon="1.7680760">
        <ele>186.4</ele>
        <time>2021-05-08T13:19:07Z</time>
      </trkpt>
      <trkpt lat="41.3964930" lon="1.7679770">
        <ele>185.8</ele>
        <time>2021-05-08T13:19:09Z</time>
      </trkpt>
      <trkpt lat="41.3966420" lon="1.7678310">
        <ele>185.4</ele>
        <time>2021-05-08T13:19:12Z</time>
      </trkpt>
      <trkpt lat="41.3967390" lon="1.7677490">
        <ele>185.2</ele>
        <time>2021-05-08T13:19:14Z</time>
      </trkpt>
      <trkpt lat="41.3968330" lon="1.7676730">
        <ele>185.0</ele>
        <time>2021-05-08T13:19:16Z</time>
      </trkpt>
      <trkpt lat="41.3970740" lon="1.7675410">
        <ele>184.6</ele>
        <time>2021-05-08T13:19:21Z</time>
      </trkpt>
      <trkpt lat="41.3973980" lon="1.7674140">
        <ele>183.6</ele>
        <time>2021-05-08T13:19:27Z</time>
      </trkpt>
      <trkpt lat="41.3975840" lon="1.7673630">
        <ele>182.0</ele>
        <time>2021-05-08T13:19:30Z</time>
      </trkpt>
      <trkpt lat="41.3977780" lon="1.7673360">
        <ele>180.8</ele>
        <time>2021-05-08T13:19:33Z</time>
      </trkpt>
      <trkpt lat="41.3978450" lon="1.7673330">
        <ele>180.2</ele>
        <time>2021-05-08T13:19:34Z</time>
      </trkpt>
      <trkpt lat="41.3979780" lon="1.7673400">
        <ele>179.4</ele>
        <time>2021-05-08T13:19:36Z</time>
      </trkpt>
      <trkpt lat="41.3981050" lon="1.7673720">
        <ele>178.8</ele>
        <time>2021-05-08T13:19:38Z</time>
      </trkpt>
      <trkpt lat="41.3981670" lon="1.7673970">
        <ele>178.4</ele>
        <time>2021-05-08T13:19:39Z</time>
      </trkpt>
      <trkpt lat="41.3984050" lon="1.7674830">
        <ele>177.0</ele>
        <time>2021-05-08T13:19:43Z</time>
      </trkpt>
      <trkpt lat="41.3984700" lon="1.7674890">
        <ele>176.8</ele>
        <time>2021-05-08T13:19:44Z</time>
      </trkpt>
      <trkpt lat="41.3985990" lon="1.7674870">
        <ele>176.6</ele>
        <time>2021-05-08T13:19:46Z</time>
      </trkpt>
      <trkpt lat="41.3987340" lon="1.7674690">
        <ele>175.8</ele>
        <time>2021-05-08T13:19:48Z</time>
      </trkpt>
      <trkpt lat="41.3988040" lon="1.7674620">
        <ele>175.2</ele>
        <time>2021-05-08T13:19:49Z</time>
      </trkpt>
      <trkpt lat="41.3989530" lon="1.7674460">
        <ele>174.2</ele>
        <time>2021-05-08T13:19:51Z</time>
      </trkpt>
      <trkpt lat="41.3991030" lon="1.7674190">
        <ele>172.6</ele>
        <time>2021-05-08T13:19:53Z</time>
      </trkpt>
      <trkpt lat="41.3991810" lon="1.7674030">
        <ele>171.6</ele>
        <time>2021-05-08T13:19:54Z</time>
      </trkpt>
      <trkpt lat="41.3992570" lon="1.7673840">
        <ele>171.0</ele>
        <time>2021-05-08T13:19:55Z</time>
      </trkpt>
      <trkpt lat="41.3996190" lon="1.7673050">
        <ele>170.2</ele>
        <time>2021-05-08T13:20:00Z</time>
      </trkpt>
      <trkpt lat="41.3996880" lon="1.7672940">
        <ele>170.2</ele>
        <time>2021-05-08T13:20:01Z</time>
      </trkpt>
      <trkpt lat="41.4001470" lon="1.7672310">
        <ele>170.4</ele>
        <time>2021-05-08T13:20:08Z</time>
      </trkpt>
      <trkpt lat="41.4005330" lon="1.7671980">
        <ele>170.2</ele>
        <time>2021-05-08T13:20:15Z</time>
      </trkpt>
      <trkpt lat="41.4006630" lon="1.7672100">
        <ele>170.4</ele>
        <time>2021-05-08T13:20:18Z</time>
      </trkpt>
      <trkpt lat="41.4007780" lon="1.7672550">
        <ele>170.6</ele>
        <time>2021-05-08T13:20:21Z</time>
      </trkpt>
      <trkpt lat="41.4008710" lon="1.7673130">
        <ele>171.4</ele>
        <time>2021-05-08T13:20:24Z</time>
      </trkpt>
      <trkpt lat="41.4009710" lon="1.7674060">
        <ele>172.4</ele>
        <time>2021-05-08T13:20:28Z</time>
      </trkpt>
      <trkpt lat="41.4010930" lon="1.7675490">
        <ele>173.4</ele>
        <time>2021-05-08T13:20:34Z</time>
      </trkpt>
      <trkpt lat="41.4011480" lon="1.7676160">
        <ele>174.2</ele>
        <time>2021-05-08T13:20:37Z</time>
      </trkpt>
      <trkpt lat="41.4011960" lon="1.7676770">
        <ele>174.6</ele>
        <time>2021-05-08T13:20:40Z</time>
      </trkpt>
      <trkpt lat="41.4012410" lon="1.7677740">
        <ele>175.6</ele>
        <time>2021-05-08T13:20:45Z</time>
      </trkpt>
      <trkpt lat="41.4012450" lon="1.7677860">
        <ele>175.8</ele>
        <time>2021-05-08T13:20:46Z</time>
      </trkpt>
      <trkpt lat="41.4012540" lon="1.7678340">
        <ele>176.0</ele>
        <time>2021-05-08T13:20:52Z</time>
      </trkpt>
      <trkpt lat="41.4012500" lon="1.7678880">
        <ele>175.8</ele>
        <time>2021-05-08T13:23:01Z</time>
      </trkpt>
      <trkpt lat="41.4012620" lon="1.7680350">
        <ele>175.2</ele>
        <time>2021-05-08T13:23:07Z</time>
      </trkpt>
      <trkpt lat="41.4012790" lon="1.7682310">
        <ele>174.2</ele>
        <time>2021-05-08T13:23:11Z</time>
      </trkpt>
      <trkpt lat="41.4012830" lon="1.7682960">
        <ele>173.8</ele>
        <time>2021-05-08T13:23:12Z</time>
      </trkpt>
      <trkpt lat="41.4012890" lon="1.7684350">
        <ele>173.0</ele>
        <time>2021-05-08T13:23:14Z</time>
      </trkpt>
      <trkpt lat="41.4012930" lon="1.7688440">
        <ele>172.4</ele>
        <time>2021-05-08T13:23:20Z</time>
      </trkpt>
      <trkpt lat="41.4012930" lon="1.7689770">
        <ele>172.0</ele>
        <time>2021-05-08T13:23:22Z</time>
      </trkpt>
      <trkpt lat="41.4012860" lon="1.7693790">
        <ele>171.4</ele>
        <time>2021-05-08T13:23:28Z</time>
      </trkpt>
      <trkpt lat="41.4012770" lon="1.7696330">
        <ele>171.0</ele>
        <time>2021-05-08T13:23:32Z</time>
      </trkpt>
      <trkpt lat="41.4012880" lon="1.7698670">
        <ele>170.6</ele>
        <time>2021-05-08T13:23:36Z</time>
      </trkpt>
      <trkpt lat="41.4012860" lon="1.7699790">
        <ele>170.6</ele>
        <time>2021-05-08T13:23:38Z</time>
      </trkpt>
      <trkpt lat="41.4012640" lon="1.7701320">
        <ele>170.2</ele>
        <time>2021-05-08T13:23:41Z</time>
      </trkpt>
      <trkpt lat="41.4012570" lon="1.7701830">
        <ele>170.0</ele>
        <time>2021-05-08T13:23:42Z</time>
      </trkpt>
      <trkpt lat="41.4012360" lon="1.7702890">
        <ele>169.8</ele>
        <time>2021-05-08T13:23:44Z</time>
      </trkpt>
      <trkpt lat="41.4012160" lon="1.7704500">
        <ele>169.2</ele>
        <time>2021-05-08T13:23:47Z</time>
      </trkpt>
      <trkpt lat="41.4012250" lon="1.7705690">
        <ele>169.0</ele>
        <time>2021-05-08T13:23:49Z</time>
      </trkpt>
      <trkpt lat="41.4012550" lon="1.7706950">
        <ele>168.8</ele>
        <time>2021-05-08T13:23:51Z</time>
      </trkpt>
      <trkpt lat="41.4013130" lon="1.7708760">
        <ele>168.6</ele>
        <time>2021-05-08T13:23:54Z</time>
      </trkpt>
      <trkpt lat="41.4013740" lon="1.7709710">
        <ele>168.2</ele>
        <time>2021-05-08T13:23:56Z</time>
      </trkpt>
      <trkpt lat="41.4015110" lon="1.7710520">
        <ele>168.2</ele>
        <time>2021-05-08T13:24:00Z</time>
      </trkpt>
      <trkpt lat="41.4015460" lon="1.7710540">
        <ele>168.2</ele>
        <time>2021-05-08T13:24:01Z</time>
      </trkpt>
      <trkpt lat="41.4016300" lon="1.7710520">
        <ele>167.8</ele>
        <time>2021-05-08T13:24:03Z</time>
      </trkpt>
      <trkpt lat="41.4017070" lon="1.7710580">
        <ele>167.4</ele>
        <time>2021-05-08T13:24:05Z</time>
      </trkpt>
      <trkpt lat="41.4018370" lon="1.7711160">
        <ele>166.8</ele>
        <time>2021-05-08T13:24:09Z</time>
      </trkpt>
      <trkpt lat="41.4018660" lon="1.7711260">
        <ele>166.6</ele>
        <time>2021-05-08T13:24:10Z</time>
      </trkpt>
      <trkpt lat="41.4020430" lon="1.7711400">
        <ele>167.0</ele>
        <time>2021-05-08T13:24:16Z</time>
      </trkpt>
      <trkpt lat="41.4021470" lon="1.7711220">
        <ele>167.8</ele>
        <time>2021-05-08T13:24:20Z</time>
      </trkpt>
      <trkpt lat="41.4021920" lon="1.7711140">
        <ele>168.0</ele>
        <time>2021-05-08T13:24:22Z</time>
      </trkpt>
      <trkpt lat="41.4023150" lon="1.7710690">
        <ele>169.0</ele>
        <time>2021-05-08T13:24:28Z</time>
      </trkpt>
      <trkpt lat="41.4023990" lon="1.7710440">
        <ele>170.0</ele>
        <time>2021-05-08T13:24:33Z</time>
      </trkpt>
      <trkpt lat="41.4024710" lon="1.7710210">
        <ele>171.2</ele>
        <time>2021-05-08T13:24:38Z</time>
      </trkpt>
      <trkpt lat="41.4024900" lon="1.7710170">
        <ele>171.4</ele>
        <time>2021-05-08T13:24:39Z</time>
      </trkpt>
      <trkpt lat="41.4026030" lon="1.7709870">
        <ele>172.0</ele>
        <time>2021-05-08T13:24:45Z</time>
      </trkpt>
      <trkpt lat="41.4026590" lon="1.7709830">
        <ele>172.4</ele>
        <time>2021-05-08T13:24:48Z</time>
      </trkpt>
      <trkpt lat="41.4027160" lon="1.7709720">
        <ele>172.8</ele>
        <time>2021-05-08T13:24:51Z</time>
      </trkpt>
      <trkpt lat="41.4028080" lon="1.7709730">
        <ele>173.4</ele>
        <time>2021-05-08T13:24:56Z</time>
      </trkpt>
      <trkpt lat="41.4029510" lon="1.7709720">
        <ele>174.0</ele>
        <time>2021-05-08T13:25:02Z</time>
      </trkpt>
      <trkpt lat="41.4031040" lon="1.7709500">
        <ele>174.4</ele>
        <time>2021-05-08T13:25:08Z</time>
      </trkpt>
      <trkpt lat="41.4031280" lon="1.7709480">
        <ele>174.6</ele>
        <time>2021-05-08T13:25:09Z</time>
      </trkpt>
      <trkpt lat="41.4032920" lon="1.7709070">
        <ele>175.4</ele>
        <time>2021-05-08T13:25:16Z</time>
      </trkpt>
      <trkpt lat="41.4034430" lon="1.7708720">
        <ele>176.0</ele>
        <time>2021-05-08T13:25:23Z</time>
      </trkpt>
      <trkpt lat="41.4035240" lon="1.7708480">
        <ele>176.4</ele>
        <time>2021-05-08T13:25:27Z</time>
      </trkpt>
      <trkpt lat="41.4036000" lon="1.7708270">
        <ele>177.2</ele>
        <time>2021-05-08T13:25:31Z</time>
      </trkpt>
      <trkpt lat="41.4036370" lon="1.7708110">
        <ele>177.4</ele>
        <time>2021-05-08T13:25:33Z</time>
      </trkpt>
      <trkpt lat="41.4037580" lon="1.7707690">
        <ele>178.2</ele>
        <time>2021-05-08T13:25:39Z</time>
      </trkpt>
      <trkpt lat="41.4037990" lon="1.7707570">
        <ele>178.6</ele>
        <time>2021-05-08T13:25:41Z</time>
      </trkpt>
      <trkpt lat="41.4039000" lon="1.7707290">
        <ele>179.6</ele>
        <time>2021-05-08T13:25:46Z</time>
      </trkpt>
      <trkpt lat="41.4039200" lon="1.7707210">
        <ele>179.6</ele>
        <time>2021-05-08T13:25:47Z</time>
      </trkpt>
      <trkpt lat="41.4040740" lon="1.7706630">
        <ele>180.8</ele>
        <time>2021-05-08T13:25:55Z</time>
      </trkpt>
      <trkpt lat="41.4042010" lon="1.7705930">
        <ele>182.0</ele>
        <time>2021-05-08T13:26:02Z</time>
      </trkpt>
      <trkpt lat="41.4042520" lon="1.7705490">
        <ele>182.2</ele>
        <time>2021-05-08T13:26:05Z</time>
      </trkpt>
      <trkpt lat="41.4043820" lon="1.7704030">
        <ele>182.6</ele>
        <time>2021-05-08T13:26:13Z</time>
      </trkpt>
      <trkpt lat="41.4045280" lon="1.7702360">
        <ele>182.8</ele>
        <time>2021-05-08T13:26:21Z</time>
      </trkpt>
      <trkpt lat="41.4046570" lon="1.7700960">
        <ele>182.4</ele>
        <time>2021-05-08T13:26:28Z</time>
      </trkpt>
      <trkpt lat="41.4048020" lon="1.7700300">
        <ele>182.0</ele>
        <time>2021-05-08T13:26:33Z</time>
      </trkpt>
      <trkpt lat="41.4049110" lon="1.7700920">
        <ele>181.4</ele>
        <time>2021-05-08T13:26:36Z</time>
      </trkpt>
      <trkpt lat="41.4049460" lon="1.7701320">
        <ele>181.2</ele>
        <time>2021-05-08T13:26:37Z</time>
      </trkpt>
      <trkpt lat="41.4050090" lon="1.7702370">
        <ele>181.0</ele>
        <time>2021-05-08T13:26:39Z</time>
      </trkpt>
      <trkpt lat="41.4050470" lon="1.7703640">
        <ele>180.6</ele>
        <time>2021-05-08T13:26:41Z</time>
      </trkpt>
      <trkpt lat="41.4050620" lon="1.7704320">
        <ele>180.4</ele>
        <time>2021-05-08T13:26:42Z</time>
      </trkpt>
      <trkpt lat="41.4050800" lon="1.7704980">
        <ele>180.2</ele>
        <time>2021-05-08T13:26:43Z</time>
      </trkpt>
      <trkpt lat="41.4051420" lon="1.7706150">
        <ele>179.8</ele>
        <time>2021-05-08T13:26:45Z</time>
      </trkpt>
      <trkpt lat="41.4051840" lon="1.7706630">
        <ele>179.4</ele>
        <time>2021-05-08T13:26:46Z</time>
      </trkpt>
      <trkpt lat="41.4053250" lon="1.7707530">
        <ele>178.8</ele>
        <time>2021-05-08T13:26:49Z</time>
      </trkpt>
      <trkpt lat="41.4053770" lon="1.7707680">
        <ele>178.6</ele>
        <time>2021-05-08T13:26:50Z</time>
      </trkpt>
      <trkpt lat="41.4054860" lon="1.7707750">
        <ele>178.0</ele>
        <time>2021-05-08T13:26:52Z</time>
      </trkpt>
      <trkpt lat="41.4055430" lon="1.7707720">
        <ele>177.6</ele>
        <time>2021-05-08T13:26:53Z</time>
      </trkpt>
      <trkpt lat="41.4056570" lon="1.7707610">
        <ele>177.2</ele>
        <time>2021-05-08T13:26:55Z</time>
      </trkpt>
      <trkpt lat="41.4060140" lon="1.7707260">
        <ele>176.4</ele>
        <time>2021-05-08T13:27:01Z</time>
      </trkpt>
      <trkpt lat="41.4061280" lon="1.7707240">
        <ele>176.4</ele>
        <time>2021-05-08T13:27:03Z</time>
      </trkpt>
      <trkpt lat="41.4061830" lon="1.7707270">
        <ele>176.2</ele>
        <time>2021-05-08T13:27:04Z</time>
      </trkpt>
      <trkpt lat="41.4063670" lon="1.7707610">
        <ele>176.0</ele>
        <time>2021-05-08T13:27:08Z</time>
      </trkpt>
      <trkpt lat="41.4067910" lon="1.7708700">
        <ele>176.2</ele>
        <time>2021-05-08T13:27:18Z</time>
      </trkpt>
      <trkpt lat="41.4068340" lon="1.7708870">
        <ele>176.2</ele>
        <time>2021-05-08T13:27:19Z</time>
      </trkpt>
      <trkpt lat="41.4070040" lon="1.7710140">
        <ele>176.2</ele>
        <time>2021-05-08T13:27:23Z</time>
      </trkpt>
      <trkpt lat="41.4073290" lon="1.7713500">
        <ele>176.0</ele>
        <time>2021-05-08T13:27:31Z</time>
      </trkpt>
      <trkpt lat="41.4075110" lon="1.7714640">
        <ele>175.4</ele>
        <time>2021-05-08T13:27:35Z</time>
      </trkpt>
      <trkpt lat="41.4076120" lon="1.7714980">
        <ele>175.4</ele>
        <time>2021-05-08T13:27:37Z</time>
      </trkpt>
      <trkpt lat="41.4077730" lon="1.7715540">
        <ele>175.2</ele>
        <time>2021-05-08T13:27:40Z</time>
      </trkpt>
      <trkpt lat="41.4078230" lon="1.7716070">
        <ele>175.0</ele>
        <time>2021-05-08T13:27:41Z</time>
      </trkpt>
      <trkpt lat="41.4079100" lon="1.7718060">
        <ele>174.4</ele>
        <time>2021-05-08T13:27:44Z</time>
      </trkpt>
      <trkpt lat="41.4080410" lon="1.7721010">
        <ele>174.8</ele>
        <time>2021-05-08T13:27:50Z</time>
      </trkpt>
      <trkpt lat="41.4081980" lon="1.7724200">
        <ele>175.4</ele>
        <time>2021-05-08T13:27:58Z</time>
      </trkpt>
      <trkpt lat="41.4082550" lon="1.7725390">
        <ele>175.8</ele>
        <time>2021-05-08T13:28:01Z</time>
      </trkpt>
      <trkpt lat="41.4084410" lon="1.7727580">
        <ele>176.0</ele>
        <time>2021-05-08T13:28:08Z</time>
      </trkpt>
      <trkpt lat="41.4086590" lon="1.7729000">
        <ele>176.0</ele>
        <time>2021-05-08T13:28:15Z</time>
      </trkpt>
      <trkpt lat="41.4089000" lon="1.7730440">
        <ele>176.2</ele>
        <time>2021-05-08T13:28:23Z</time>
      </trkpt>
      <trkpt lat="41.4090340" lon="1.7731400">
        <ele>176.4</ele>
        <time>2021-05-08T13:28:28Z</time>
      </trkpt>
      <trkpt lat="41.4091060" lon="1.7732010">
        <ele>176.8</ele>
        <time>2021-05-08T13:28:31Z</time>
      </trkpt>
      <trkpt lat="41.4092870" lon="1.7733810">
        <ele>176.8</ele>
        <time>2021-05-08T13:28:39Z</time>
      </trkpt>
      <trkpt lat="41.4093400" lon="1.7734710">
        <ele>176.8</ele>
        <time>2021-05-08T13:28:44Z</time>
      </trkpt>
      <trkpt lat="41.4093750" lon="1.7735500">
        <ele>176.6</ele>
        <time>2021-05-08T13:28:50Z</time>
      </trkpt>
      <trkpt lat="41.4094250" lon="1.7736450">
        <ele>176.0</ele>
        <time>2021-05-08T13:28:55Z</time>
      </trkpt>
      <trkpt lat="41.4095540" lon="1.7739020">
        <ele>175.4</ele>
        <time>2021-05-08T13:29:03Z</time>
      </trkpt>
      <trkpt lat="41.4097100" lon="1.7742500">
        <ele>175.2</ele>
        <time>2021-05-08T13:29:12Z</time>
      </trkpt>
      <trkpt lat="41.4097600" lon="1.7743790">
        <ele>174.6</ele>
        <time>2021-05-08T13:29:15Z</time>
      </trkpt>
      <trkpt lat="41.4098070" lon="1.7745230">
        <ele>174.0</ele>
        <time>2021-05-08T13:29:18Z</time>
      </trkpt>
      <trkpt lat="41.4098330" lon="1.7746200">
        <ele>173.2</ele>
        <time>2021-05-08T13:29:20Z</time>
      </trkpt>
      <trkpt lat="41.4098800" lon="1.7747630">
        <ele>172.2</ele>
        <time>2021-05-08T13:29:23Z</time>
      </trkpt>
      <trkpt lat="41.4099170" lon="1.7748510">
        <ele>171.6</ele>
        <time>2021-05-08T13:29:25Z</time>
      </trkpt>
      <trkpt lat="41.4100150" lon="1.7750190">
        <ele>171.2</ele>
        <time>2021-05-08T13:29:30Z</time>
      </trkpt>
      <trkpt lat="41.4100460" lon="1.7750320">
        <ele>171.0</ele>
        <time>2021-05-08T13:29:31Z</time>
      </trkpt>
      <trkpt lat="41.4101880" lon="1.7750840">
        <ele>171.2</ele>
        <time>2021-05-08T13:29:36Z</time>
      </trkpt>
      <trkpt lat="41.4103490" lon="1.7751560">
        <ele>171.6</ele>
        <time>2021-05-08T13:29:42Z</time>
      </trkpt>
      <trkpt lat="41.4105130" lon="1.7752100">
        <ele>171.8</ele>
        <time>2021-05-08T13:29:48Z</time>
      </trkpt>
      <trkpt lat="41.4106840" lon="1.7752330">
        <ele>171.0</ele>
        <time>2021-05-08T13:29:54Z</time>
      </trkpt>
      <trkpt lat="41.4108540" lon="1.7752560">
        <ele>170.0</ele>
        <time>2021-05-08T13:29:59Z</time>
      </trkpt>
      <trkpt lat="41.4110120" lon="1.7752990">
        <ele>169.4</ele>
        <time>2021-05-08T13:30:03Z</time>
      </trkpt>
      <trkpt lat="41.4110500" lon="1.7753420">
        <ele>169.2</ele>
        <time>2021-05-08T13:30:04Z</time>
      </trkpt>
      <trkpt lat="41.4111270" lon="1.7754370">
        <ele>168.6</ele>
        <time>2021-05-08T13:30:06Z</time>
      </trkpt>
      <trkpt lat="41.4112080" lon="1.7755050">
        <ele>167.8</ele>
        <time>2021-05-08T13:30:08Z</time>
      </trkpt>
      <trkpt lat="41.4112530" lon="1.7755320">
        <ele>167.4</ele>
        <time>2021-05-08T13:30:09Z</time>
      </trkpt>
      <trkpt lat="41.4114990" lon="1.7756480">
        <ele>166.6</ele>
        <time>2021-05-08T13:30:15Z</time>
      </trkpt>
      <trkpt lat="41.4117120" lon="1.7756670">
        <ele>167.2</ele>
        <time>2021-05-08T13:30:21Z</time>
      </trkpt>
      <trkpt lat="41.4119030" lon="1.7756730">
        <ele>168.8</ele>
        <time>2021-05-08T13:30:28Z</time>
      </trkpt>
      <trkpt lat="41.4120260" lon="1.7756650">
        <ele>169.8</ele>
        <time>2021-05-08T13:30:35Z</time>
      </trkpt>
      <trkpt lat="41.4120420" lon="1.7756680">
        <ele>169.8</ele>
        <time>2021-05-08T13:30:36Z</time>
      </trkpt>
      <trkpt lat="41.4121710" lon="1.7757070">
        <ele>169.8</ele>
        <time>2021-05-08T13:30:42Z</time>
      </trkpt>
      <trkpt lat="41.4123300" lon="1.7757260">
        <ele>168.8</ele>
        <time>2021-05-08T13:30:47Z</time>
      </trkpt>
      <trkpt lat="41.4124280" lon="1.7757440">
        <ele>168.0</ele>
        <time>2021-05-08T13:30:50Z</time>
      </trkpt>
      <trkpt lat="41.4124610" lon="1.7757500">
        <ele>167.8</ele>
        <time>2021-05-08T13:30:51Z</time>
      </trkpt>
      <trkpt lat="41.4126370" lon="1.7757820">
        <ele>166.8</ele>
        <time>2021-05-08T13:30:56Z</time>
      </trkpt>
      <trkpt lat="41.4127950" lon="1.7758020">
        <ele>166.2</ele>
        <time>2021-05-08T13:31:00Z</time>
      </trkpt>
      <trkpt lat="41.4128390" lon="1.7758020">
        <ele>165.6</ele>
        <time>2021-05-08T13:31:01Z</time>
      </trkpt>
      <trkpt lat="41.4129370" lon="1.7757980">
        <ele>164.4</ele>
        <time>2021-05-08T13:31:03Z</time>
      </trkpt>
      <trkpt lat="41.4130860" lon="1.7758010">
        <ele>163.0</ele>
        <time>2021-05-08T13:31:06Z</time>
      </trkpt>
      <trkpt lat="41.4132710" lon="1.7758030">
        <ele>161.6</ele>
        <time>2021-05-08T13:31:10Z</time>
      </trkpt>
      <trkpt lat="41.4134360" lon="1.7758220">
        <ele>160.2</ele>
        <time>2021-05-08T13:31:14Z</time>
      </trkpt>
      <trkpt lat="41.4136200" lon="1.7758890">
        <ele>158.6</ele>
        <time>2021-05-08T13:31:18Z</time>
      </trkpt>
      <trkpt lat="41.4137230" lon="1.7759230">
        <ele>157.6</ele>
        <time>2021-05-08T13:31:20Z</time>
      </trkpt>
      <trkpt lat="41.4137760" lon="1.7759410">
        <ele>157.2</ele>
        <time>2021-05-08T13:31:21Z</time>
      </trkpt>
      <trkpt lat="41.4139730" lon="1.7760230">
        <ele>156.2</ele>
        <time>2021-05-08T13:31:25Z</time>
      </trkpt>
      <trkpt lat="41.4141030" lon="1.7761010">
        <ele>155.0</ele>
        <time>2021-05-08T13:31:28Z</time>
      </trkpt>
      <trkpt lat="41.4141870" lon="1.7761720">
        <ele>153.8</ele>
        <time>2021-05-08T13:31:30Z</time>
      </trkpt>
      <trkpt lat="41.4142990" lon="1.7762880">
        <ele>152.2</ele>
        <time>2021-05-08T13:31:33Z</time>
      </trkpt>
      <trkpt lat="41.4143360" lon="1.7763190">
        <ele>151.6</ele>
        <time>2021-05-08T13:31:34Z</time>
      </trkpt>
      <trkpt lat="41.4143760" lon="1.7763380">
        <ele>151.0</ele>
        <time>2021-05-08T13:31:35Z</time>
      </trkpt>
      <trkpt lat="41.4144700" lon="1.7763250">
        <ele>150.4</ele>
        <time>2021-05-08T13:31:37Z</time>
      </trkpt>
      <trkpt lat="41.4145180" lon="1.7762980">
        <ele>150.0</ele>
        <time>2021-05-08T13:31:38Z</time>
      </trkpt>
      <trkpt lat="41.4145650" lon="1.7762700">
        <ele>149.6</ele>
        <time>2021-05-08T13:31:39Z</time>
      </trkpt>
      <trkpt lat="41.4148340" lon="1.7760770">
        <ele>148.6</ele>
        <time>2021-05-08T13:31:45Z</time>
      </trkpt>
      <trkpt lat="41.4151080" lon="1.7758500">
        <ele>149.0</ele>
        <time>2021-05-08T13:31:52Z</time>
      </trkpt>
      <trkpt lat="41.4154300" lon="1.7755630">
        <ele>149.0</ele>
        <time>2021-05-08T13:32:01Z</time>
      </trkpt>
      <trkpt lat="41.4155950" lon="1.7754290">
        <ele>148.8</ele>
        <time>2021-05-08T13:32:07Z</time>
      </trkpt>
      <trkpt lat="41.4156200" lon="1.7754340">
        <ele>148.6</ele>
        <time>2021-05-08T13:32:08Z</time>
      </trkpt>
      <trkpt lat="41.4156420" lon="1.7754550">
        <ele>148.6</ele>
        <time>2021-05-08T13:32:09Z</time>
      </trkpt>
      <trkpt lat="41.4156540" lon="1.7754880">
        <ele>148.4</ele>
        <time>2021-05-08T13:32:10Z</time>
      </trkpt>
      <trkpt lat="41.4156900" lon="1.7756620">
        <ele>147.4</ele>
        <time>2021-05-08T13:32:14Z</time>
      </trkpt>
      <trkpt lat="41.4157490" lon="1.7757520">
        <ele>148.2</ele>
        <time>2021-05-08T13:32:18Z</time>
      </trkpt>
      <trkpt lat="41.4157690" lon="1.7757700">
        <ele>148.6</ele>
        <time>2021-05-08T13:32:19Z</time>
      </trkpt>
      <trkpt lat="41.4158630" lon="1.7758470">
        <ele>149.6</ele>
        <time>2021-05-08T13:32:24Z</time>
      </trkpt>
      <trkpt lat="41.4158820" lon="1.7758630">
        <ele>149.8</ele>
        <time>2021-05-08T13:32:25Z</time>
      </trkpt>
      <trkpt lat="41.4161010" lon="1.7760160">
        <ele>149.6</ele>
        <time>2021-05-08T13:32:34Z</time>
      </trkpt>
      <trkpt lat="41.4163910" lon="1.7762380">
        <ele>149.4</ele>
        <time>2021-05-08T13:32:44Z</time>
      </trkpt>
      <trkpt lat="41.4165560" lon="1.7764920">
        <ele>149.4</ele>
        <time>2021-05-08T13:32:51Z</time>
      </trkpt>
      <trkpt lat="41.4167150" lon="1.7768330">
        <ele>148.6</ele>
        <time>2021-05-08T13:32:58Z</time>
      </trkpt>
      <trkpt lat="41.4167750" lon="1.7771480">
        <ele>148.0</ele>
        <time>2021-05-08T13:33:03Z</time>
      </trkpt>
      <trkpt lat="41.4167780" lon="1.7772060">
        <ele>147.8</ele>
        <time>2021-05-08T13:33:04Z</time>
      </trkpt>
      <trkpt lat="41.4167570" lon="1.7774550">
        <ele>147.2</ele>
        <time>2021-05-08T13:33:09Z</time>
      </trkpt>
      <trkpt lat="41.4167510" lon="1.7775930">
        <ele>146.6</ele>
        <time>2021-05-08T13:33:12Z</time>
      </trkpt>
      <trkpt lat="41.4167720" lon="1.7776860">
        <ele>146.0</ele>
        <time>2021-05-08T13:33:14Z</time>
      </trkpt>
      <trkpt lat="41.4168560" lon="1.7777920">
        <ele>145.8</ele>
        <time>2021-05-08T13:33:18Z</time>
      </trkpt>
      <trkpt lat="41.4169740" lon="1.7779210">
        <ele>146.4</ele>
        <time>2021-05-08T13:33:24Z</time>
      </trkpt>
      <trkpt lat="41.4170260" lon="1.7780490">
        <ele>147.0</ele>
        <time>2021-05-08T13:33:30Z</time>
      </trkpt>
      <trkpt lat="41.4170230" lon="1.7781110">
        <ele>147.8</ele>
        <time>2021-05-08T13:33:33Z</time>
      </trkpt>
      <trkpt lat="41.4170210" lon="1.7781680">
        <ele>148.4</ele>
        <time>2021-05-08T13:33:36Z</time>
      </trkpt>
      <trkpt lat="41.4170080" lon="1.7782540">
        <ele>148.8</ele>
        <time>2021-05-08T13:33:40Z</time>
      </trkpt>
      <trkpt lat="41.4169980" lon="1.7783350">
        <ele>149.8</ele>
        <time>2021-05-08T13:33:44Z</time>
      </trkpt>
      <trkpt lat="41.4169670" lon="1.7784940">
        <ele>151.0</ele>
        <time>2021-05-08T13:33:52Z</time>
      </trkpt>
      <trkpt lat="41.4169420" lon="1.7786730">
        <ele>151.8</ele>
        <time>2021-05-08T13:34:00Z</time>
      </trkpt>
      <trkpt lat="41.4169370" lon="1.7786950">
        <ele>152.0</ele>
        <time>2021-05-08T13:34:01Z</time>
      </trkpt>
      <trkpt lat="41.4169120" lon="1.7788010">
        <ele>153.2</ele>
        <time>2021-05-08T13:34:06Z</time>
      </trkpt>
      <trkpt lat="41.4169110" lon="1.7788450">
        <ele>153.6</ele>
        <time>2021-05-08T13:34:08Z</time>
      </trkpt>
      <trkpt lat="41.4169100" lon="1.7789550">
        <ele>154.4</ele>
        <time>2021-05-08T13:34:13Z</time>
      </trkpt>
      <trkpt lat="41.4169090" lon="1.7789970">
        <ele>154.6</ele>
        <time>2021-05-08T13:34:15Z</time>
      </trkpt>
      <trkpt lat="41.4169030" lon="1.7791040">
        <ele>155.4</ele>
        <time>2021-05-08T13:34:20Z</time>
      </trkpt>
      <trkpt lat="41.4169100" lon="1.7791960">
        <ele>155.6</ele>
        <time>2021-05-08T13:34:24Z</time>
      </trkpt>
      <trkpt lat="41.4169150" lon="1.7793020">
        <ele>156.4</ele>
        <time>2021-05-08T13:34:29Z</time>
      </trkpt>
      <trkpt lat="41.4169260" lon="1.7793400">
        <ele>157.6</ele>
        <time>2021-05-08T13:34:31Z</time>
      </trkpt>
      <trkpt lat="41.4169360" lon="1.7793760">
        <ele>158.0</ele>
        <time>2021-05-08T13:34:33Z</time>
      </trkpt>
      <trkpt lat="41.4169440" lon="1.7794080">
        <ele>158.8</ele>
        <time>2021-05-08T13:34:35Z</time>
      </trkpt>
      <trkpt lat="41.4169740" lon="1.7794940">
        <ele>159.8</ele>
        <time>2021-05-08T13:34:40Z</time>
      </trkpt>
      <trkpt lat="41.4169810" lon="1.7795120">
        <ele>159.8</ele>
        <time>2021-05-08T13:34:41Z</time>
      </trkpt>
      <trkpt lat="41.4169930" lon="1.7795510">
        <ele>161.0</ele>
        <time>2021-05-08T13:34:43Z</time>
      </trkpt>
      <trkpt lat="41.4170560" lon="1.7796090">
        <ele>161.6</ele>
        <time>2021-05-08T13:34:48Z</time>
      </trkpt>
      <trkpt lat="41.4171090" lon="1.7796050">
        <ele>162.0</ele>
        <time>2021-05-08T13:34:51Z</time>
      </trkpt>
      <trkpt lat="41.4171600" lon="1.7795790">
        <ele>161.8</ele>
        <time>2021-05-08T13:34:54Z</time>
      </trkpt>
      <trkpt lat="41.4172800" lon="1.7794760">
        <ele>161.8</ele>
        <time>2021-05-08T13:35:02Z</time>
      </trkpt>
      <trkpt lat="41.4173720" lon="1.7793870">
        <ele>162.6</ele>
        <time>2021-05-08T13:35:09Z</time>
      </trkpt>
      <trkpt lat="41.4174500" lon="1.7793060">
        <ele>163.0</ele>
        <time>2021-05-08T13:35:15Z</time>
      </trkpt>
      <trkpt lat="41.4174740" lon="1.7792760">
        <ele>163.4</ele>
        <time>2021-05-08T13:35:17Z</time>
      </trkpt>
      <trkpt lat="41.4175880" lon="1.7791410">
        <ele>164.2</ele>
        <time>2021-05-08T13:35:26Z</time>
      </trkpt>
      <trkpt lat="41.4176020" lon="1.7791280">
        <ele>164.4</ele>
        <time>2021-05-08T13:35:27Z</time>
      </trkpt>
      <trkpt lat="41.4177640" lon="1.7790510">
        <ele>165.0</ele>
        <time>2021-05-08T13:35:36Z</time>
      </trkpt>
      <trkpt lat="41.4179470" lon="1.7790020">
        <ele>165.0</ele>
        <time>2021-05-08T13:35:45Z</time>
      </trkpt>
      <trkpt lat="41.4181380" lon="1.7789590">
        <ele>165.4</ele>
        <time>2021-05-08T13:35:55Z</time>
      </trkpt>
      <trkpt lat="41.4181570" lon="1.7789560">
        <ele>165.6</ele>
        <time>2021-05-08T13:35:56Z</time>
      </trkpt>
      <trkpt lat="41.4183190" lon="1.7789180">
        <ele>165.8</ele>
        <time>2021-05-08T13:36:05Z</time>
      </trkpt>
      <trkpt lat="41.4183670" lon="1.7789020">
        <ele>166.8</ele>
        <time>2021-05-08T13:36:08Z</time>
      </trkpt>
      <trkpt lat="41.4184280" lon="1.7788700">
        <ele>167.2</ele>
        <time>2021-05-08T13:36:12Z</time>
      </trkpt>
      <trkpt lat="41.4185230" lon="1.7788210">
        <ele>167.8</ele>
        <time>2021-05-08T13:36:18Z</time>
      </trkpt>
      <trkpt lat="41.4185540" lon="1.7788060">
        <ele>168.4</ele>
        <time>2021-05-08T13:36:20Z</time>
      </trkpt>
      <trkpt lat="41.4186640" lon="1.7787540">
        <ele>169.0</ele>
        <time>2021-05-08T13:36:27Z</time>
      </trkpt>
      <trkpt lat="41.4186790" lon="1.7787440">
        <ele>169.2</ele>
        <time>2021-05-08T13:36:28Z</time>
      </trkpt>
      <trkpt lat="41.4187620" lon="1.7786930">
        <ele>170.2</ele>
        <time>2021-05-08T13:36:34Z</time>
      </trkpt>
      <trkpt lat="41.4187770" lon="1.7786840">
        <ele>170.4</ele>
        <time>2021-05-08T13:36:35Z</time>
      </trkpt>
      <trkpt lat="41.4188840" lon="1.7786310">
        <ele>171.0</ele>
        <time>2021-05-08T13:36:42Z</time>
      </trkpt>
      <trkpt lat="41.4188990" lon="1.7786220">
        <ele>171.2</ele>
        <time>2021-05-08T13:36:43Z</time>
      </trkpt>
      <trkpt lat="41.4189770" lon="1.7785850">
        <ele>172.4</ele>
        <time>2021-05-08T13:36:48Z</time>
      </trkpt>
      <trkpt lat="41.4190300" lon="1.7785420">
        <ele>173.6</ele>
        <time>2021-05-08T13:36:52Z</time>
      </trkpt>
      <trkpt lat="41.4190590" lon="1.7785210">
        <ele>173.8</ele>
        <time>2021-05-08T13:36:54Z</time>
      </trkpt>
      <trkpt lat="41.4190970" lon="1.7784930">
        <ele>174.0</ele>
        <time>2021-05-08T13:36:57Z</time>
      </trkpt>
      <trkpt lat="41.4191370" lon="1.7784560">
        <ele>174.6</ele>
        <time>2021-05-08T13:37:00Z</time>
      </trkpt>
      <trkpt lat="41.4191510" lon="1.7784430">
        <ele>174.8</ele>
        <time>2021-05-08T13:37:01Z</time>
      </trkpt>
      <trkpt lat="41.4192270" lon="1.7783650">
        <ele>175.6</ele>
        <time>2021-05-08T13:37:07Z</time>
      </trkpt>
      <trkpt lat="41.4192400" lon="1.7783500">
        <ele>175.8</ele>
        <time>2021-05-08T13:37:08Z</time>
      </trkpt>
      <trkpt lat="41.4193360" lon="1.7782560">
        <ele>177.0</ele>
        <time>2021-05-08T13:37:15Z</time>
      </trkpt>
      <trkpt lat="41.4194360" lon="1.7781570">
        <ele>177.8</ele>
        <time>2021-05-08T13:37:22Z</time>
      </trkpt>
      <trkpt lat="41.4194650" lon="1.7781320">
        <ele>178.0</ele>
        <time>2021-05-08T13:37:24Z</time>
      </trkpt>
      <trkpt lat="41.4194800" lon="1.7781180">
        <ele>178.0</ele>
        <time>2021-05-08T13:37:25Z</time>
      </trkpt>
      <trkpt lat="41.4195490" lon="1.7780580">
        <ele>178.6</ele>
        <time>2021-05-08T13:37:30Z</time>
      </trkpt>
      <trkpt lat="41.4195630" lon="1.7780560">
        <ele>178.8</ele>
        <time>2021-05-08T13:37:31Z</time>
      </trkpt>
      <trkpt lat="41.4195780" lon="1.7780560">
        <ele>179.0</ele>
        <time>2021-05-08T13:37:32Z</time>
      </trkpt>
      <trkpt lat="41.4196160" lon="1.7780830">
        <ele>179.6</ele>
        <time>2021-05-08T13:37:35Z</time>
      </trkpt>
      <trkpt lat="41.4196650" lon="1.7782270">
        <ele>180.0</ele>
        <time>2021-05-08T13:37:41Z</time>
      </trkpt>
      <trkpt lat="41.4196730" lon="1.7782550">
        <ele>180.0</ele>
        <time>2021-05-08T13:37:42Z</time>
      </trkpt>
      <trkpt lat="41.4197380" lon="1.7784820">
        <ele>180.4</ele>
        <time>2021-05-08T13:37:50Z</time>
      </trkpt>
      <trkpt lat="41.4198340" lon="1.7787240">
        <ele>180.8</ele>
        <time>2021-05-08T13:37:58Z</time>
      </trkpt>
      <trkpt lat="41.4199660" lon="1.7790110">
        <ele>180.2</ele>
        <time>2021-05-08T13:38:06Z</time>
      </trkpt>
      <trkpt lat="41.4201250" lon="1.7792970">
        <ele>180.4</ele>
        <time>2021-05-08T13:38:14Z</time>
      </trkpt>
      <trkpt lat="41.4203290" lon="1.7795840">
        <ele>181.0</ele>
        <time>2021-05-08T13:38:23Z</time>
      </trkpt>
      <trkpt lat="41.4205440" lon="1.7798380">
        <ele>181.0</ele>
        <time>2021-05-08T13:38:31Z</time>
      </trkpt>
      <trkpt lat="41.4208080" lon="1.7800880">
        <ele>180.6</ele>
        <time>2021-05-08T13:38:39Z</time>
      </trkpt>
      <trkpt lat="41.4211100" lon="1.7803120">
        <ele>180.0</ele>
        <time>2021-05-08T13:38:47Z</time>
      </trkpt>
      <trkpt lat="41.4212390" lon="1.7804620">
        <ele>179.4</ele>
        <time>2021-05-08T13:38:52Z</time>
      </trkpt>
      <trkpt lat="41.4213470" lon="1.7805550">
        <ele>179.2</ele>
        <time>2021-05-08T13:38:56Z</time>
      </trkpt>
      <trkpt lat="41.4214570" lon="1.7806380">
        <ele>178.6</ele>
        <time>2021-05-08T13:38:59Z</time>
      </trkpt>
      <trkpt lat="41.4216140" lon="1.7807630">
        <ele>178.0</ele>
        <time>2021-05-08T13:39:03Z</time>
      </trkpt>
      <trkpt lat="41.4216530" lon="1.7807960">
        <ele>177.6</ele>
        <time>2021-05-08T13:39:04Z</time>
      </trkpt>
      <trkpt lat="41.4218010" lon="1.7809050">
        <ele>177.0</ele>
        <time>2021-05-08T13:39:08Z</time>
      </trkpt>
      <trkpt lat="41.4219080" lon="1.7809720">
        <ele>176.6</ele>
        <time>2021-05-08T13:39:11Z</time>
      </trkpt>
      <trkpt lat="41.4220070" lon="1.7810540">
        <ele>175.8</ele>
        <time>2021-05-08T13:39:14Z</time>
      </trkpt>
      <trkpt lat="41.4220720" lon="1.7810930">
        <ele>175.6</ele>
        <time>2021-05-08T13:39:16Z</time>
      </trkpt>
      <trkpt lat="41.4222090" lon="1.7811810">
        <ele>175.0</ele>
        <time>2021-05-08T13:39:21Z</time>
      </trkpt>
      <trkpt lat="41.4222470" lon="1.7812220">
        <ele>174.8</ele>
        <time>2021-05-08T13:39:24Z</time>
      </trkpt>
      <trkpt lat="41.4222830" lon="1.7812320">
        <ele>174.8</ele>
        <time>2021-05-08T13:39:26Z</time>
      </trkpt>
      <trkpt lat="41.4224320" lon="1.7812330">
        <ele>174.6</ele>
        <time>2021-05-08T13:39:31Z</time>
      </trkpt>
      <trkpt lat="41.4226160" lon="1.7812550">
        <ele>174.4</ele>
        <time>2021-05-08T13:39:36Z</time>
      </trkpt>
      <trkpt lat="41.4228530" lon="1.7813270">
        <ele>174.0</ele>
        <time>2021-05-08T13:39:43Z</time>
      </trkpt>
      <trkpt lat="41.4229570" lon="1.7813500">
        <ele>173.8</ele>
        <time>2021-05-08T13:39:46Z</time>
      </trkpt>
      <trkpt lat="41.4230670" lon="1.7813920">
        <ele>173.4</ele>
        <time>2021-05-08T13:39:49Z</time>
      </trkpt>
      <trkpt lat="41.4232210" lon="1.7814840">
        <ele>173.6</ele>
        <time>2021-05-08T13:39:54Z</time>
      </trkpt>
      <trkpt lat="41.4233790" lon="1.7816700">
        <ele>174.0</ele>
        <time>2021-05-08T13:40:01Z</time>
      </trkpt>
      <trkpt lat="41.4234960" lon="1.7818380">
        <ele>174.8</ele>
        <time>2021-05-08T13:40:07Z</time>
      </trkpt>
      <trkpt lat="41.4235330" lon="1.7818930">
        <ele>175.0</ele>
        <time>2021-05-08T13:40:09Z</time>
      </trkpt>
      <trkpt lat="41.4236170" lon="1.7820260">
        <ele>176.0</ele>
        <time>2021-05-08T13:40:14Z</time>
      </trkpt>
      <trkpt lat="41.4236450" lon="1.7820840">
        <ele>176.2</ele>
        <time>2021-05-08T13:40:16Z</time>
      </trkpt>
      <trkpt lat="41.4237400" lon="1.7822300">
        <ele>177.0</ele>
        <time>2021-05-08T13:40:22Z</time>
      </trkpt>
      <trkpt lat="41.4237710" lon="1.7822730">
        <ele>177.4</ele>
        <time>2021-05-08T13:40:24Z</time>
      </trkpt>
      <trkpt lat="41.4238130" lon="1.7823380">
        <ele>178.2</ele>
        <time>2021-05-08T13:40:27Z</time>
      </trkpt>
      <trkpt lat="41.4238820" lon="1.7824520">
        <ele>179.0</ele>
        <time>2021-05-08T13:40:32Z</time>
      </trkpt>
      <trkpt lat="41.4238950" lon="1.7824820">
        <ele>179.2</ele>
        <time>2021-05-08T13:40:33Z</time>
      </trkpt>
      <trkpt lat="41.4239640" lon="1.7825840">
        <ele>180.2</ele>
        <time>2021-05-08T13:40:37Z</time>
      </trkpt>
      <trkpt lat="41.4239790" lon="1.7826100">
        <ele>180.4</ele>
        <time>2021-05-08T13:40:38Z</time>
      </trkpt>
      <trkpt lat="41.4240340" lon="1.7827480">
        <ele>181.6</ele>
        <time>2021-05-08T13:40:43Z</time>
      </trkpt>
      <trkpt lat="41.4240450" lon="1.7827720">
        <ele>181.6</ele>
        <time>2021-05-08T13:40:44Z</time>
      </trkpt>
      <trkpt lat="41.4240990" lon="1.7829670">
        <ele>182.6</ele>
        <time>2021-05-08T13:40:51Z</time>
      </trkpt>
      <trkpt lat="41.4241060" lon="1.7829950">
        <ele>182.6</ele>
        <time>2021-05-08T13:40:52Z</time>
      </trkpt>
      <trkpt lat="41.4241170" lon="1.7831570">
        <ele>183.4</ele>
        <time>2021-05-08T13:40:58Z</time>
      </trkpt>
      <trkpt lat="41.4241180" lon="1.7831800">
        <ele>183.6</ele>
        <time>2021-05-08T13:40:59Z</time>
      </trkpt>
      <trkpt lat="41.4241140" lon="1.7832850">
        <ele>184.2</ele>
        <time>2021-05-08T13:41:04Z</time>
      </trkpt>
      <trkpt lat="41.4241150" lon="1.7833180">
        <ele>184.8</ele>
        <time>2021-05-08T13:41:07Z</time>
      </trkpt>
      <trkpt lat="41.4241040" lon="1.7833900">
        <ele>185.2</ele>
        <time>2021-05-08T13:41:10Z</time>
      </trkpt>
      <trkpt lat="41.4240920" lon="1.7835860">
        <ele>185.4</ele>
        <time>2021-05-08T13:41:16Z</time>
      </trkpt>
      <trkpt lat="41.4240820" lon="1.7838210">
        <ele>185.6</ele>
        <time>2021-05-08T13:41:23Z</time>
      </trkpt>
      <trkpt lat="41.4240550" lon="1.7840970">
        <ele>185.2</ele>
        <time>2021-05-08T13:41:30Z</time>
      </trkpt>
      <trkpt lat="41.4240180" lon="1.7843710">
        <ele>185.4</ele>
        <time>2021-05-08T13:41:37Z</time>
      </trkpt>
      <trkpt lat="41.4239860" lon="1.7846070">
        <ele>184.8</ele>
        <time>2021-05-08T13:41:43Z</time>
      </trkpt>
      <trkpt lat="41.4239720" lon="1.7849220">
        <ele>184.2</ele>
        <time>2021-05-08T13:41:50Z</time>
      </trkpt>
      <trkpt lat="41.4239880" lon="1.7850670">
        <ele>183.8</ele>
        <time>2021-05-08T13:41:53Z</time>
      </trkpt>
      <trkpt lat="41.4239950" lon="1.7851470">
        <ele>183.4</ele>
        <time>2021-05-08T13:41:55Z</time>
      </trkpt>
      <trkpt lat="41.4240010" lon="1.7852760">
        <ele>183.4</ele>
        <time>2021-05-08T13:42:00Z</time>
      </trkpt>
      <trkpt lat="41.4240500" lon="1.7854550">
        <ele>182.6</ele>
        <time>2021-05-08T13:42:06Z</time>
      </trkpt>
      <trkpt lat="41.4241050" lon="1.7856470">
        <ele>182.2</ele>
        <time>2021-05-08T13:42:11Z</time>
      </trkpt>
      <trkpt lat="41.4241530" lon="1.7857670">
        <ele>181.6</ele>
        <time>2021-05-08T13:42:14Z</time>
      </trkpt>
      <trkpt lat="41.4241910" lon="1.7858760">
        <ele>180.8</ele>
        <time>2021-05-08T13:42:17Z</time>
      </trkpt>
      <trkpt lat="41.4242140" lon="1.7859520">
        <ele>180.6</ele>
        <time>2021-05-08T13:42:19Z</time>
      </trkpt>
      <trkpt lat="41.4242630" lon="1.7861850">
        <ele>179.6</ele>
        <time>2021-05-08T13:42:25Z</time>
      </trkpt>
      <trkpt lat="41.4242610" lon="1.7862220">
        <ele>179.4</ele>
        <time>2021-05-08T13:42:26Z</time>
      </trkpt>
      <trkpt lat="41.4242930" lon="1.7863560">
        <ele>179.0</ele>
        <time>2021-05-08T13:42:30Z</time>
      </trkpt>
      <trkpt lat="41.4243400" lon="1.7865710">
        <ele>178.2</ele>
        <time>2021-05-08T13:42:35Z</time>
      </trkpt>
      <trkpt lat="41.4244020" lon="1.7867110">
        <ele>177.2</ele>
        <time>2021-05-08T13:42:39Z</time>
      </trkpt>
      <trkpt lat="41.4244280" lon="1.7867880">
        <ele>176.8</ele>
        <time>2021-05-08T13:42:41Z</time>
      </trkpt>
      <trkpt lat="41.4244550" lon="1.7869440">
        <ele>176.4</ele>
        <time>2021-05-08T13:42:45Z</time>
      </trkpt>
      <trkpt lat="41.4244750" lon="1.7869800">
        <ele>176.4</ele>
        <time>2021-05-08T13:42:46Z</time>
      </trkpt>
      <trkpt lat="41.4245190" lon="1.7871930">
        <ele>175.8</ele>
        <time>2021-05-08T13:42:51Z</time>
      </trkpt>
      <trkpt lat="41.4245070" lon="1.7874260">
        <ele>175.4</ele>
        <time>2021-05-08T13:42:56Z</time>
      </trkpt>
      <trkpt lat="41.4245040" lon="1.7875640">
        <ele>175.2</ele>
        <time>2021-05-08T13:42:59Z</time>
      </trkpt>
      <trkpt lat="41.4245010" lon="1.7877290">
        <ele>174.8</ele>
        <time>2021-05-08T13:43:02Z</time>
      </trkpt>
      <trkpt lat="41.4245010" lon="1.7878620">
        <ele>174.2</ele>
        <time>2021-05-08T13:43:06Z</time>
      </trkpt>
      <trkpt lat="41.4245140" lon="1.7878920">
        <ele>174.2</ele>
        <time>2021-05-08T13:43:07Z</time>
      </trkpt>
      <trkpt lat="41.4245790" lon="1.7880520">
        <ele>174.4</ele>
        <time>2021-05-08T13:43:13Z</time>
      </trkpt>
      <trkpt lat="41.4246790" lon="1.7882400">
        <ele>173.6</ele>
        <time>2021-05-08T13:43:19Z</time>
      </trkpt>
      <trkpt lat="41.4246940" lon="1.7882780">
        <ele>173.4</ele>
        <time>2021-05-08T13:43:20Z</time>
      </trkpt>
      <trkpt lat="41.4247900" lon="1.7884640">
        <ele>172.4</ele>
        <time>2021-05-08T13:43:25Z</time>
      </trkpt>
      <trkpt lat="41.4248150" lon="1.7884960">
        <ele>172.4</ele>
        <time>2021-05-08T13:43:26Z</time>
      </trkpt>
      <trkpt lat="41.4248980" lon="1.7885900">
        <ele>171.6</ele>
        <time>2021-05-08T13:43:29Z</time>
      </trkpt>
      <trkpt lat="41.4249140" lon="1.7886350">
        <ele>171.2</ele>
        <time>2021-05-08T13:43:30Z</time>
      </trkpt>
      <trkpt lat="41.4249570" lon="1.7888590">
        <ele>170.0</ele>
        <time>2021-05-08T13:43:34Z</time>
      </trkpt>
      <trkpt lat="41.4250230" lon="1.7890650">
        <ele>168.8</ele>
        <time>2021-05-08T13:43:38Z</time>
      </trkpt>
      <trkpt lat="41.4250730" lon="1.7892090">
        <ele>167.8</ele>
        <time>2021-05-08T13:43:41Z</time>
      </trkpt>
      <trkpt lat="41.4251210" lon="1.7893070">
        <ele>167.0</ele>
        <time>2021-05-08T13:43:43Z</time>
      </trkpt>
      <trkpt lat="41.4251500" lon="1.7893510">
        <ele>166.6</ele>
        <time>2021-05-08T13:43:44Z</time>
      </trkpt>
      <trkpt lat="41.4252450" lon="1.7894550">
        <ele>165.2</ele>
        <time>2021-05-08T13:43:47Z</time>
      </trkpt>
      <trkpt lat="41.4253540" lon="1.7895410">
        <ele>164.0</ele>
        <time>2021-05-08T13:43:50Z</time>
      </trkpt>
      <trkpt lat="41.4254220" lon="1.7895830">
        <ele>163.0</ele>
        <time>2021-05-08T13:43:52Z</time>
      </trkpt>
      <trkpt lat="41.4254430" lon="1.7895920">
        <ele>162.6</ele>
        <time>2021-05-08T13:43:53Z</time>
      </trkpt>
      <trkpt lat="41.4255060" lon="1.7896080">
        <ele>161.6</ele>
        <time>2021-05-08T13:43:56Z</time>
      </trkpt>
      <trkpt lat="41.4255180" lon="1.7896360">
        <ele>161.6</ele>
        <time>2021-05-08T13:43:57Z</time>
      </trkpt>
      <trkpt lat="41.4255260" lon="1.7897420">
        <ele>161.4</ele>
        <time>2021-05-08T13:44:00Z</time>
      </trkpt>
      <trkpt lat="41.4254960" lon="1.7898890">
        <ele>160.8</ele>
        <time>2021-05-08T13:44:04Z</time>
      </trkpt>
      <trkpt lat="41.4254870" lon="1.7899320">
        <ele>160.8</ele>
        <time>2021-05-08T13:44:05Z</time>
      </trkpt>
      <trkpt lat="41.4254690" lon="1.7901580">
        <ele>160.6</ele>
        <time>2021-05-08T13:44:10Z</time>
      </trkpt>
      <trkpt lat="41.4254570" lon="1.7903030">
        <ele>161.0</ele>
        <time>2021-05-08T13:44:15Z</time>
      </trkpt>
      <trkpt lat="41.4254590" lon="1.7903370">
        <ele>161.2</ele>
        <time>2021-05-08T13:44:19Z</time>
      </trkpt>
      <trkpt lat="41.4254660" lon="1.7903520">
        <ele>161.2</ele>
        <time>2021-05-08T13:44:20Z</time>
      </trkpt>
      <trkpt lat="41.4255470" lon="1.7904180">
        <ele>161.4</ele>
        <time>2021-05-08T13:44:24Z</time>
      </trkpt>
      <trkpt lat="41.4257910" lon="1.7903820">
        <ele>161.0</ele>
        <time>2021-05-08T13:44:31Z</time>
      </trkpt>
      <trkpt lat="41.4260030" lon="1.7903960">
        <ele>160.8</ele>
        <time>2021-05-08T13:44:37Z</time>
      </trkpt>
      <trkpt lat="41.4262820" lon="1.7904940">
        <ele>160.6</ele>
        <time>2021-05-08T13:44:46Z</time>
      </trkpt>
      <trkpt lat="41.4264400" lon="1.7905710">
        <ele>161.0</ele>
        <time>2021-05-08T13:44:51Z</time>
      </trkpt>
      <trkpt lat="41.4265200" lon="1.7907270">
        <ele>161.0</ele>
        <time>2021-05-08T13:44:55Z</time>
      </trkpt>
      <trkpt lat="41.4265100" lon="1.7908160">
        <ele>161.0</ele>
        <time>2021-05-08T13:44:57Z</time>
      </trkpt>
      <trkpt lat="41.4264900" lon="1.7908940">
        <ele>161.2</ele>
        <time>2021-05-08T13:44:59Z</time>
      </trkpt>
      <trkpt lat="41.4264440" lon="1.7910760">
        <ele>161.8</ele>
        <time>2021-05-08T13:45:04Z</time>
      </trkpt>
      <trkpt lat="41.4263680" lon="1.7913650">
        <ele>162.4</ele>
        <time>2021-05-08T13:45:12Z</time>
      </trkpt>
      <trkpt lat="41.4263510" lon="1.7914390">
        <ele>162.6</ele>
        <time>2021-05-08T13:45:14Z</time>
      </trkpt>
      <trkpt lat="41.4263060" lon="1.7916070">
        <ele>163.2</ele>
        <time>2021-05-08T13:45:19Z</time>
      </trkpt>
      <trkpt lat="41.4262500" lon="1.7917310">
        <ele>164.0</ele>
        <time>2021-05-08T13:45:23Z</time>
      </trkpt>
      <trkpt lat="41.4261900" lon="1.7918250">
        <ele>164.8</ele>
        <time>2021-05-08T13:45:27Z</time>
      </trkpt>
      <trkpt lat="41.4261670" lon="1.7918640">
        <ele>165.0</ele>
        <time>2021-05-08T13:45:29Z</time>
      </trkpt>
      <trkpt lat="41.4261330" lon="1.7919300">
        <ele>165.4</ele>
        <time>2021-05-08T13:45:32Z</time>
      </trkpt>
      <trkpt lat="41.4260970" lon="1.7921120">
        <ele>165.8</ele>
        <time>2021-05-08T13:45:39Z</time>
      </trkpt>
      <trkpt lat="41.4260960" lon="1.7922010">
        <ele>166.0</ele>
        <time>2021-05-08T13:45:42Z</time>
      </trkpt>
      <trkpt lat="41.4260890" lon="1.7923340">
        <ele>167.0</ele>
        <time>2021-05-08T13:45:46Z</time>
      </trkpt>
      <trkpt lat="41.4260780" lon="1.7923920">
        <ele>167.0</ele>
        <time>2021-05-08T13:45:48Z</time>
      </trkpt>
      <trkpt lat="41.4260520" lon="1.7925340">
        <ele>168.0</ele>
        <time>2021-05-08T13:45:54Z</time>
      </trkpt>
      <trkpt lat="41.4260590" lon="1.7925450">
        <ele>168.0</ele>
        <time>2021-05-08T13:45:55Z</time>
      </trkpt>
      <trkpt lat="41.4260700" lon="1.7925590">
        <ele>168.2</ele>
        <time>2021-05-08T13:45:56Z</time>
      </trkpt>
      <trkpt lat="41.4260950" lon="1.7925980">
        <ele>168.2</ele>
        <time>2021-05-08T13:45:58Z</time>
      </trkpt>
      <trkpt lat="41.4262020" lon="1.7928090">
        <ele>168.4</ele>
        <time>2021-05-08T13:46:07Z</time>
      </trkpt>
      <trkpt lat="41.4262410" lon="1.7928920">
        <ele>169.0</ele>
        <time>2021-05-08T13:46:11Z</time>
      </trkpt>
      <trkpt lat="41.4262740" lon="1.7929570">
        <ele>169.2</ele>
        <time>2021-05-08T13:46:14Z</time>
      </trkpt>
      <trkpt lat="41.4263450" lon="1.7931310">
        <ele>169.6</ele>
        <time>2021-05-08T13:46:21Z</time>
      </trkpt>
      <trkpt lat="41.4263420" lon="1.7931590">
        <ele>169.6</ele>
        <time>2021-05-08T13:46:22Z</time>
      </trkpt>
      <trkpt lat="41.4263190" lon="1.7933390">
        <ele>170.0</ele>
        <time>2021-05-08T13:46:28Z</time>
      </trkpt>
      <trkpt lat="41.4263190" lon="1.7933620">
        <ele>170.0</ele>
        <time>2021-05-08T13:46:29Z</time>
      </trkpt>
      <trkpt lat="41.4263580" lon="1.7934070">
        <ele>170.0</ele>
        <time>2021-05-08T13:46:32Z</time>
      </trkpt>
      <trkpt lat="41.4264210" lon="1.7934660">
        <ele>170.6</ele>
        <time>2021-05-08T13:46:38Z</time>
      </trkpt>
      <trkpt lat="41.4264220" lon="1.7934680">
        <ele>170.6</ele>
        <time>2021-05-08T13:46:39Z</time>
      </trkpt>
      <trkpt lat="41.4264760" lon="1.7935210">
        <ele>170.4</ele>
        <time>2021-05-08T13:49:50Z</time>
      </trkpt>
      <trkpt lat="41.4264880" lon="1.7935700">
        <ele>170.4</ele>
        <time>2021-05-08T13:49:52Z</time>
      </trkpt>
      <trkpt lat="41.4265050" lon="1.7936630">
        <ele>171.0</ele>
        <time>2021-05-08T13:49:55Z</time>
      </trkpt>
      <trkpt lat="41.4265220" lon="1.7937720">
        <ele>171.4</ele>
        <time>2021-05-08T13:49:58Z</time>
      </trkpt>
      <trkpt lat="41.4265800" lon="1.7941470">
        <ele>171.8</ele>
        <time>2021-05-08T13:50:08Z</time>
      </trkpt>
      <trkpt lat="41.4266090" lon="1.7943390">
        <ele>172.0</ele>
        <time>2021-05-08T13:50:13Z</time>
      </trkpt>
      <trkpt lat="41.4266430" lon="1.7945570">
        <ele>172.8</ele>
        <time>2021-05-08T13:50:19Z</time>
      </trkpt>
      <trkpt lat="41.4266830" lon="1.7948280">
        <ele>173.2</ele>
        <time>2021-05-08T13:50:26Z</time>
      </trkpt>
      <trkpt lat="41.4267310" lon="1.7951970">
        <ele>174.4</ele>
        <time>2021-05-08T13:50:34Z</time>
      </trkpt>
      <trkpt lat="41.4267360" lon="1.7952420">
        <ele>174.4</ele>
        <time>2021-05-08T13:50:35Z</time>
      </trkpt>
      <trkpt lat="41.4267730" lon="1.7954810">
        <ele>175.4</ele>
        <time>2021-05-08T13:50:41Z</time>
      </trkpt>
      <trkpt lat="41.4267830" lon="1.7955530">
        <ele>176.0</ele>
        <time>2021-05-08T13:50:43Z</time>
      </trkpt>
      <trkpt lat="41.4268020" lon="1.7957330">
        <ele>176.4</ele>
        <time>2021-05-08T13:50:49Z</time>
      </trkpt>
      <trkpt lat="41.4268330" lon="1.7959220">
        <ele>177.4</ele>
        <time>2021-05-08T13:50:56Z</time>
      </trkpt>
      <trkpt lat="41.4268360" lon="1.7959490">
        <ele>177.6</ele>
        <time>2021-05-08T13:50:57Z</time>
      </trkpt>
      <trkpt lat="41.4268300" lon="1.7960370">
        <ele>177.8</ele>
        <time>2021-05-08T13:51:01Z</time>
      </trkpt>
      <trkpt lat="41.4268450" lon="1.7961040">
        <ele>178.0</ele>
        <time>2021-05-08T13:51:06Z</time>
      </trkpt>
      <trkpt lat="41.4268520" lon="1.7961210">
        <ele>178.2</ele>
        <time>2021-05-08T13:51:07Z</time>
      </trkpt>
      <trkpt lat="41.4268960" lon="1.7962910">
        <ele>178.4</ele>
        <time>2021-05-08T13:51:12Z</time>
      </trkpt>
      <trkpt lat="41.4269200" lon="1.7964410">
        <ele>178.6</ele>
        <time>2021-05-08T13:51:15Z</time>
      </trkpt>
      <trkpt lat="41.4269460" lon="1.7967140">
        <ele>178.6</ele>
        <time>2021-05-08T13:51:20Z</time>
      </trkpt>
      <trkpt lat="41.4269300" lon="1.7971730">
        <ele>178.2</ele>
        <time>2021-05-08T13:51:28Z</time>
      </trkpt>
      <trkpt lat="41.4269180" lon="1.7972400">
        <ele>178.2</ele>
        <time>2021-05-08T13:51:29Z</time>
      </trkpt>
      <trkpt lat="41.4268280" lon="1.7974190">
        <ele>177.4</ele>
        <time>2021-05-08T13:51:32Z</time>
      </trkpt>
      <trkpt lat="41.4267670" lon="1.7976900">
        <ele>177.0</ele>
        <time>2021-05-08T13:51:36Z</time>
      </trkpt>
      <trkpt lat="41.4267500" lon="1.7978410">
        <ele>176.2</ele>
        <time>2021-05-08T13:51:38Z</time>
      </trkpt>
      <trkpt lat="41.4266930" lon="1.7980800">
        <ele>175.4</ele>
        <time>2021-05-08T13:51:41Z</time>
      </trkpt>
      <trkpt lat="41.4266710" lon="1.7981630">
        <ele>175.2</ele>
        <time>2021-05-08T13:51:42Z</time>
      </trkpt>
      <trkpt lat="41.4265470" lon="1.7984790">
        <ele>174.0</ele>
        <time>2021-05-08T13:51:46Z</time>
      </trkpt>
      <trkpt lat="41.4265110" lon="1.7985550">
        <ele>173.6</ele>
        <time>2021-05-08T13:51:47Z</time>
      </trkpt>
      <trkpt lat="41.4264000" lon="1.7987690">
        <ele>173.0</ele>
        <time>2021-05-08T13:51:50Z</time>
      </trkpt>
      <trkpt lat="41.4262510" lon="1.7990230">
        <ele>172.2</ele>
        <time>2021-05-08T13:51:54Z</time>
      </trkpt>
      <trkpt lat="41.4260420" lon="1.7993560">
        <ele>171.8</ele>
        <time>2021-05-08T13:52:00Z</time>
      </trkpt>
      <trkpt lat="41.4260150" lon="1.7994130">
        <ele>171.6</ele>
        <time>2021-05-08T13:52:01Z</time>
      </trkpt>
      <trkpt lat="41.4259470" lon="1.7996580">
        <ele>171.4</ele>
        <time>2021-05-08T13:52:05Z</time>
      </trkpt>
      <trkpt lat="41.4259380" lon="1.7997260">
        <ele>171.2</ele>
        <time>2021-05-08T13:52:06Z</time>
      </trkpt>
      <trkpt lat="41.4259430" lon="1.8000130">
        <ele>171.0</ele>
        <time>2021-05-08T13:52:10Z</time>
      </trkpt>
      <trkpt lat="41.4259500" lon="1.8000850">
        <ele>171.0</ele>
        <time>2021-05-08T13:52:11Z</time>
      </trkpt>
      <trkpt lat="41.4259640" lon="1.8002320">
        <ele>171.0</ele>
        <time>2021-05-08T13:52:13Z</time>
      </trkpt>
      <trkpt lat="41.4260080" lon="1.8005420">
        <ele>170.8</ele>
        <time>2021-05-08T13:52:17Z</time>
      </trkpt>
      <trkpt lat="41.4261270" lon="1.8011140">
        <ele>169.8</ele>
        <time>2021-05-08T13:52:25Z</time>
      </trkpt>
      <trkpt lat="41.4261470" lon="1.8011890">
        <ele>169.6</ele>
        <time>2021-05-08T13:52:26Z</time>
      </trkpt>
      <trkpt lat="41.4261870" lon="1.8013450">
        <ele>168.8</ele>
        <time>2021-05-08T13:52:28Z</time>
      </trkpt>
      <trkpt lat="41.4262420" lon="1.8015740">
        <ele>167.8</ele>
        <time>2021-05-08T13:52:31Z</time>
      </trkpt>
      <trkpt lat="41.4262540" lon="1.8017270">
        <ele>166.8</ele>
        <time>2021-05-08T13:52:33Z</time>
      </trkpt>
      <trkpt lat="41.4262480" lon="1.8018040">
        <ele>166.4</ele>
        <time>2021-05-08T13:52:34Z</time>
      </trkpt>
      <trkpt lat="41.4262140" lon="1.8019530">
        <ele>166.0</ele>
        <time>2021-05-08T13:52:36Z</time>
      </trkpt>
      <trkpt lat="41.4262010" lon="1.8020260">
        <ele>165.6</ele>
        <time>2021-05-08T13:52:37Z</time>
      </trkpt>
      <trkpt lat="41.4262030" lon="1.8021000">
        <ele>165.2</ele>
        <time>2021-05-08T13:52:38Z</time>
      </trkpt>
      <trkpt lat="41.4262440" lon="1.8022290">
        <ele>164.6</ele>
        <time>2021-05-08T13:52:40Z</time>
      </trkpt>
      <trkpt lat="41.4263110" lon="1.8023310">
        <ele>163.6</ele>
        <time>2021-05-08T13:52:42Z</time>
      </trkpt>
      <trkpt lat="41.4263730" lon="1.8024350">
        <ele>163.0</ele>
        <time>2021-05-08T13:52:44Z</time>
      </trkpt>
      <trkpt lat="41.4263960" lon="1.8024980">
        <ele>162.6</ele>
        <time>2021-05-08T13:52:45Z</time>
      </trkpt>
      <trkpt lat="41.4264140" lon="1.8025670">
        <ele>162.4</ele>
        <time>2021-05-08T13:52:46Z</time>
      </trkpt>
      <trkpt lat="41.4265140" lon="1.8029790">
        <ele>161.0</ele>
        <time>2021-05-08T13:52:51Z</time>
      </trkpt>
      <trkpt lat="41.4266360" lon="1.8034680">
        <ele>160.0</ele>
        <time>2021-05-08T13:52:56Z</time>
      </trkpt>
      <trkpt lat="41.4267050" lon="1.8037610">
        <ele>159.0</ele>
        <time>2021-05-08T13:52:59Z</time>
      </trkpt>
      <trkpt lat="41.4267490" lon="1.8039500">
        <ele>157.8</ele>
        <time>2021-05-08T13:53:01Z</time>
      </trkpt>
      <trkpt lat="41.4268130" lon="1.8042360">
        <ele>156.4</ele>
        <time>2021-05-08T13:53:04Z</time>
      </trkpt>
      <trkpt lat="41.4268680" lon="1.8045210">
        <ele>155.4</ele>
        <time>2021-05-08T13:53:07Z</time>
      </trkpt>
      <trkpt lat="41.4268880" lon="1.8046150">
        <ele>155.4</ele>
        <time>2021-05-08T13:53:08Z</time>
      </trkpt>
      <trkpt lat="41.4269620" lon="1.8049930">
        <ele>154.4</ele>
        <time>2021-05-08T13:53:12Z</time>
      </trkpt>
      <trkpt lat="41.4270040" lon="1.8051830">
        <ele>153.6</ele>
        <time>2021-05-08T13:53:14Z</time>
      </trkpt>
      <trkpt lat="41.4270490" lon="1.8053790">
        <ele>153.0</ele>
        <time>2021-05-08T13:53:16Z</time>
      </trkpt>
      <trkpt lat="41.4271380" lon="1.8057820">
        <ele>151.8</ele>
        <time>2021-05-08T13:53:20Z</time>
      </trkpt>
      <trkpt lat="41.4271800" lon="1.8059800">
        <ele>151.6</ele>
        <time>2021-05-08T13:53:22Z</time>
      </trkpt>
      <trkpt lat="41.4272220" lon="1.8061770">
        <ele>150.8</ele>
        <time>2021-05-08T13:53:24Z</time>
      </trkpt>
      <trkpt lat="41.4273300" lon="1.8066560">
        <ele>149.8</ele>
        <time>2021-05-08T13:53:29Z</time>
      </trkpt>
      <trkpt lat="41.4273720" lon="1.8068320">
        <ele>149.6</ele>
        <time>2021-05-08T13:53:31Z</time>
      </trkpt>
      <trkpt lat="41.4274980" lon="1.8073180">
        <ele>148.6</ele>
        <time>2021-05-08T13:53:37Z</time>
      </trkpt>
      <trkpt lat="41.4275660" lon="1.8075540">
        <ele>148.2</ele>
        <time>2021-05-08T13:53:40Z</time>
      </trkpt>
      <trkpt lat="41.4276400" lon="1.8077980">
        <ele>147.6</ele>
        <time>2021-05-08T13:53:43Z</time>
      </trkpt>
      <trkpt lat="41.4277320" lon="1.8080590">
        <ele>147.0</ele>
        <time>2021-05-08T13:53:46Z</time>
      </trkpt>
      <trkpt lat="41.4277930" lon="1.8082300">
        <ele>146.6</ele>
        <time>2021-05-08T13:53:48Z</time>
      </trkpt>
      <trkpt lat="41.4278760" lon="1.8085590">
        <ele>145.8</ele>
        <time>2021-05-08T13:53:52Z</time>
      </trkpt>
      <trkpt lat="41.4279030" lon="1.8087170">
        <ele>145.4</ele>
        <time>2021-05-08T13:53:54Z</time>
      </trkpt>
      <trkpt lat="41.4279080" lon="1.8087930">
        <ele>145.2</ele>
        <time>2021-05-08T13:53:55Z</time>
      </trkpt>
      <trkpt lat="41.4278970" lon="1.8089350">
        <ele>144.6</ele>
        <time>2021-05-08T13:53:57Z</time>
      </trkpt>
      <trkpt lat="41.4278510" lon="1.8090680">
        <ele>144.2</ele>
        <time>2021-05-08T13:53:59Z</time>
      </trkpt>
      <trkpt lat="41.4278290" lon="1.8092040">
        <ele>144.0</ele>
        <time>2021-05-08T13:54:01Z</time>
      </trkpt>
      <trkpt lat="41.4278920" lon="1.8093800">
        <ele>143.4</ele>
        <time>2021-05-08T13:54:04Z</time>
      </trkpt>
      <trkpt lat="41.4279260" lon="1.8094310">
        <ele>143.4</ele>
        <time>2021-05-08T13:54:05Z</time>
      </trkpt>
      <trkpt lat="41.4279930" lon="1.8095400">
        <ele>143.0</ele>
        <time>2021-05-08T13:54:07Z</time>
      </trkpt>
      <trkpt lat="41.4280240" lon="1.8096030">
        <ele>142.8</ele>
        <time>2021-05-08T13:54:08Z</time>
      </trkpt>
      <trkpt lat="41.4280790" lon="1.8097530">
        <ele>142.4</ele>
        <time>2021-05-08T13:54:10Z</time>
      </trkpt>
      <trkpt lat="41.4281020" lon="1.8098370">
        <ele>142.2</ele>
        <time>2021-05-08T13:54:11Z</time>
      </trkpt>
      <trkpt lat="41.4281210" lon="1.8099270">
        <ele>141.6</ele>
        <time>2021-05-08T13:54:12Z</time>
      </trkpt>
      <trkpt lat="41.4281500" lon="1.8101230">
        <ele>140.6</ele>
        <time>2021-05-08T13:54:14Z</time>
      </trkpt>
      <trkpt lat="41.4281750" lon="1.8103350">
        <ele>139.6</ele>
        <time>2021-05-08T13:54:16Z</time>
      </trkpt>
      <trkpt lat="41.4282000" lon="1.8106550">
        <ele>138.4</ele>
        <time>2021-05-08T13:54:19Z</time>
      </trkpt>
      <trkpt lat="41.4282140" lon="1.8108670">
        <ele>137.4</ele>
        <time>2021-05-08T13:54:21Z</time>
      </trkpt>
      <trkpt lat="41.4282190" lon="1.8109730">
        <ele>137.0</ele>
        <time>2021-05-08T13:54:22Z</time>
      </trkpt>
      <trkpt lat="41.4282310" lon="1.8112850">
        <ele>136.0</ele>
        <time>2021-05-08T13:54:25Z</time>
      </trkpt>
      <trkpt lat="41.4282430" lon="1.8116840">
        <ele>134.4</ele>
        <time>2021-05-08T13:54:29Z</time>
      </trkpt>
      <trkpt lat="41.4282540" lon="1.8121360">
        <ele>132.8</ele>
        <time>2021-05-08T13:54:34Z</time>
      </trkpt>
      <trkpt lat="41.4282510" lon="1.8123240">
        <ele>132.0</ele>
        <time>2021-05-08T13:54:36Z</time>
      </trkpt>
      <trkpt lat="41.4282420" lon="1.8125130">
        <ele>131.6</ele>
        <time>2021-05-08T13:54:38Z</time>
      </trkpt>
      <trkpt lat="41.4282190" lon="1.8128160">
        <ele>130.2</ele>
        <time>2021-05-08T13:54:41Z</time>
      </trkpt>
      <trkpt lat="41.4282010" lon="1.8130280">
        <ele>129.0</ele>
        <time>2021-05-08T13:54:43Z</time>
      </trkpt>
      <trkpt lat="41.4281860" lon="1.8132510">
        <ele>128.0</ele>
        <time>2021-05-08T13:54:45Z</time>
      </trkpt>
      <trkpt lat="41.4281680" lon="1.8134780">
        <ele>126.8</ele>
        <time>2021-05-08T13:54:47Z</time>
      </trkpt>
      <trkpt lat="41.4281370" lon="1.8138200">
        <ele>125.4</ele>
        <time>2021-05-08T13:54:50Z</time>
      </trkpt>
      <trkpt lat="41.4281280" lon="1.8139320">
        <ele>125.2</ele>
        <time>2021-05-08T13:54:51Z</time>
      </trkpt>
      <trkpt lat="41.4280950" lon="1.8142300">
        <ele>124.4</ele>
        <time>2021-05-08T13:54:54Z</time>
      </trkpt>
      <trkpt lat="41.4280750" lon="1.8144000">
        <ele>125.0</ele>
        <time>2021-05-08T13:54:56Z</time>
      </trkpt>
      <trkpt lat="41.4280550" lon="1.8145510">
        <ele>125.6</ele>
        <time>2021-05-08T13:54:58Z</time>
      </trkpt>
      <trkpt lat="41.4280200" lon="1.8148150">
        <ele>126.2</ele>
        <time>2021-05-08T13:55:02Z</time>
      </trkpt>
      <trkpt lat="41.4280060" lon="1.8149370">
        <ele>126.6</ele>
        <time>2021-05-08T13:55:04Z</time>
      </trkpt>
      <trkpt lat="41.4279160" lon="1.8155280">
        <ele>127.4</ele>
        <time>2021-05-08T13:55:14Z</time>
      </trkpt>
      <trkpt lat="41.4278380" lon="1.8160060">
        <ele>127.8</ele>
        <time>2021-05-08T13:55:23Z</time>
      </trkpt>
      <trkpt lat="41.4278230" lon="1.8160520">
        <ele>127.8</ele>
        <time>2021-05-08T13:55:24Z</time>
      </trkpt>
      <trkpt lat="41.4277560" lon="1.8161780">
        <ele>127.6</ele>
        <time>2021-05-08T13:55:27Z</time>
      </trkpt>
      <trkpt lat="41.4277380" lon="1.8162260">
        <ele>127.4</ele>
        <time>2021-05-08T13:55:28Z</time>
      </trkpt>
      <trkpt lat="41.4277490" lon="1.8163780">
        <ele>127.0</ele>
        <time>2021-05-08T13:55:31Z</time>
      </trkpt>
      <trkpt lat="41.4278520" lon="1.8164200">
        <ele>127.0</ele>
        <time>2021-05-08T13:55:34Z</time>
      </trkpt>
      <trkpt lat="41.4279930" lon="1.8164340">
        <ele>127.2</ele>
        <time>2021-05-08T13:55:38Z</time>
      </trkpt>
      <trkpt lat="41.4280960" lon="1.8164690">
        <ele>127.2</ele>
        <time>2021-05-08T13:55:41Z</time>
      </trkpt>
      <trkpt lat="41.4283600" lon="1.8166760">
        <ele>127.8</ele>
        <time>2021-05-08T13:55:50Z</time>
      </trkpt>
      <trkpt lat="41.4284100" lon="1.8167320">
        <ele>127.8</ele>
        <time>2021-05-08T13:55:52Z</time>
      </trkpt>
      <trkpt lat="41.4285960" lon="1.8169630">
        <ele>128.4</ele>
        <time>2021-05-08T13:56:00Z</time>
      </trkpt>
      <trkpt lat="41.4287330" lon="1.8171400">
        <ele>128.8</ele>
        <time>2021-05-08T13:56:06Z</time>
      </trkpt>
      <trkpt lat="41.4287530" lon="1.8171690">
        <ele>129.0</ele>
        <time>2021-05-08T13:56:07Z</time>
      </trkpt>
      <trkpt lat="41.4289080" lon="1.8173770">
        <ele>129.4</ele>
        <time>2021-05-08T13:56:14Z</time>
      </trkpt>
      <trkpt lat="41.4290460" lon="1.8175690">
        <ele>129.8</ele>
        <time>2021-05-08T13:56:21Z</time>
      </trkpt>
      <trkpt lat="41.4290690" lon="1.8176010">
        <ele>130.0</ele>
        <time>2021-05-08T13:56:22Z</time>
      </trkpt>
      <trkpt lat="41.4292340" lon="1.8178760">
        <ele>130.4</ele>
        <time>2021-05-08T13:56:30Z</time>
      </trkpt>
      <trkpt lat="41.4293540" lon="1.8181620">
        <ele>130.6</ele>
        <time>2021-05-08T13:56:38Z</time>
      </trkpt>
      <trkpt lat="41.4294510" lon="1.8183660">
        <ele>131.2</ele>
        <time>2021-05-08T13:56:44Z</time>
      </trkpt>
      <trkpt lat="41.4294890" lon="1.8184240">
        <ele>131.4</ele>
        <time>2021-05-08T13:56:46Z</time>
      </trkpt>
      <trkpt lat="41.4295750" lon="1.8186500">
        <ele>132.2</ele>
        <time>2021-05-08T13:56:53Z</time>
      </trkpt>
      <trkpt lat="41.4295810" lon="1.8186830">
        <ele>132.2</ele>
        <time>2021-05-08T13:56:54Z</time>
      </trkpt>
      <trkpt lat="41.4296110" lon="1.8188820">
        <ele>133.4</ele>
        <time>2021-05-08T13:57:00Z</time>
      </trkpt>
      <trkpt lat="41.4296300" lon="1.8190500">
        <ele>134.0</ele>
        <time>2021-05-08T13:57:05Z</time>
      </trkpt>
      <trkpt lat="41.4296710" lon="1.8192430">
        <ele>134.4</ele>
        <time>2021-05-08T13:57:11Z</time>
      </trkpt>
      <trkpt lat="41.4297080" lon="1.8193190">
        <ele>135.2</ele>
        <time>2021-05-08T13:57:14Z</time>
      </trkpt>
      <trkpt lat="41.4298450" lon="1.8195010">
        <ele>135.4</ele>
        <time>2021-05-08T13:57:23Z</time>
      </trkpt>
      <trkpt lat="41.4298580" lon="1.8195200">
        <ele>135.6</ele>
        <time>2021-05-08T13:57:24Z</time>
      </trkpt>
      <trkpt lat="41.4299430" lon="1.8196630">
        <ele>136.6</ele>
        <time>2021-05-08T13:57:31Z</time>
      </trkpt>
      <trkpt lat="41.4299540" lon="1.8196820">
        <ele>136.8</ele>
        <time>2021-05-08T13:57:32Z</time>
      </trkpt>
      <trkpt lat="41.4300380" lon="1.8198020">
        <ele>137.6</ele>
        <time>2021-05-08T13:57:39Z</time>
      </trkpt>
      <trkpt lat="41.4300470" lon="1.8198190">
        <ele>137.8</ele>
        <time>2021-05-08T13:57:40Z</time>
      </trkpt>
      <trkpt lat="41.4300790" lon="1.8198550">
        <ele>137.8</ele>
        <time>2021-05-08T13:57:43Z</time>
      </trkpt>
      <trkpt lat="41.4300930" lon="1.8198890">
        <ele>137.8</ele>
        <time>2021-05-08T13:57:45Z</time>
      </trkpt>
      <trkpt lat="41.4301280" lon="1.8199430">
        <ele>138.8</ele>
        <time>2021-05-08T13:57:48Z</time>
      </trkpt>
      <trkpt lat="41.4301690" lon="1.8200000">
        <ele>139.0</ele>
        <time>2021-05-08T13:57:51Z</time>
      </trkpt>
      <trkpt lat="41.4302300" lon="1.8200940">
        <ele>139.8</ele>
        <time>2021-05-08T13:57:56Z</time>
      </trkpt>
      <trkpt lat="41.4302800" lon="1.8201800">
        <ele>140.8</ele>
        <time>2021-05-08T13:58:01Z</time>
      </trkpt>
      <trkpt lat="41.4303020" lon="1.8202100">
        <ele>141.0</ele>
        <time>2021-05-08T13:58:03Z</time>
      </trkpt>
      <trkpt lat="41.4303990" lon="1.8203360">
        <ele>141.8</ele>
        <time>2021-05-08T13:58:11Z</time>
      </trkpt>
      <trkpt lat="41.4304200" lon="1.8203700">
        <ele>142.2</ele>
        <time>2021-05-08T13:58:13Z</time>
      </trkpt>
      <trkpt lat="41.4304660" lon="1.8204810">
        <ele>143.0</ele>
        <time>2021-05-08T13:58:19Z</time>
      </trkpt>
      <trkpt lat="41.4304750" lon="1.8204990">
        <ele>143.4</ele>
        <time>2021-05-08T13:58:20Z</time>
      </trkpt>
      <trkpt lat="41.4305240" lon="1.8206580">
        <ele>144.6</ele>
        <time>2021-05-08T13:58:27Z</time>
      </trkpt>
      <trkpt lat="41.4305290" lon="1.8206810">
        <ele>144.8</ele>
        <time>2021-05-08T13:58:28Z</time>
      </trkpt>
      <trkpt lat="41.4305410" lon="1.8207680">
        <ele>145.6</ele>
        <time>2021-05-08T13:58:32Z</time>
      </trkpt>
      <trkpt lat="41.4305360" lon="1.8208820">
        <ele>146.2</ele>
        <time>2021-05-08T13:58:37Z</time>
      </trkpt>
      <trkpt lat="41.4305210" lon="1.8209690">
        <ele>146.8</ele>
        <time>2021-05-08T13:58:41Z</time>
      </trkpt>
      <trkpt lat="41.4305170" lon="1.8210540">
        <ele>147.8</ele>
        <time>2021-05-08T13:58:45Z</time>
      </trkpt>
      <trkpt lat="41.4305190" lon="1.8210770">
        <ele>148.0</ele>
        <time>2021-05-08T13:58:46Z</time>
      </trkpt>
      <trkpt lat="41.4305300" lon="1.8212830">
        <ele>148.6</ele>
        <time>2021-05-08T13:58:55Z</time>
      </trkpt>
      <trkpt lat="41.4305340" lon="1.8213880">
        <ele>149.2</ele>
        <time>2021-05-08T13:58:59Z</time>
      </trkpt>
      <trkpt lat="41.4305340" lon="1.8214670">
        <ele>149.6</ele>
        <time>2021-05-08T13:59:02Z</time>
      </trkpt>
      <trkpt lat="41.4305450" lon="1.8215810">
        <ele>150.2</ele>
        <time>2021-05-08T13:59:06Z</time>
      </trkpt>
      <trkpt lat="41.4305520" lon="1.8216630">
        <ele>150.2</ele>
        <time>2021-05-08T13:59:09Z</time>
      </trkpt>
      <trkpt lat="41.4305900" lon="1.8218160">
        <ele>150.4</ele>
        <time>2021-05-08T13:59:15Z</time>
      </trkpt>
      <trkpt lat="41.4306100" lon="1.8219960">
        <ele>151.2</ele>
        <time>2021-05-08T13:59:20Z</time>
      </trkpt>
      <trkpt lat="41.4306080" lon="1.8220310">
        <ele>151.2</ele>
        <time>2021-05-08T13:59:21Z</time>
      </trkpt>
      <trkpt lat="41.4305890" lon="1.8222280">
        <ele>151.8</ele>
        <time>2021-05-08T13:59:27Z</time>
      </trkpt>
      <trkpt lat="41.4305560" lon="1.8224370">
        <ele>152.0</ele>
        <time>2021-05-08T13:59:33Z</time>
      </trkpt>
      <trkpt lat="41.4305430" lon="1.8225070">
        <ele>152.4</ele>
        <time>2021-05-08T13:59:35Z</time>
      </trkpt>
      <trkpt lat="41.4305270" lon="1.8226510">
        <ele>153.6</ele>
        <time>2021-05-08T13:59:39Z</time>
      </trkpt>
      <trkpt lat="41.4304860" lon="1.8228070">
        <ele>154.8</ele>
        <time>2021-05-08T13:59:44Z</time>
      </trkpt>
      <trkpt lat="41.4304710" lon="1.8228390">
        <ele>155.0</ele>
        <time>2021-05-08T13:59:45Z</time>
      </trkpt>
      <trkpt lat="41.4303850" lon="1.8229290">
        <ele>156.2</ele>
        <time>2021-05-08T13:59:49Z</time>
      </trkpt>
      <trkpt lat="41.4303370" lon="1.8230520">
        <ele>157.0</ele>
        <time>2021-05-08T13:59:53Z</time>
      </trkpt>
      <trkpt lat="41.4303250" lon="1.8230850">
        <ele>157.2</ele>
        <time>2021-05-08T13:59:54Z</time>
      </trkpt>
      <trkpt lat="41.4303180" lon="1.8232820">
        <ele>158.2</ele>
        <time>2021-05-08T14:00:00Z</time>
      </trkpt>
      <trkpt lat="41.4303340" lon="1.8233490">
        <ele>158.4</ele>
        <time>2021-05-08T14:00:02Z</time>
      </trkpt>
      <trkpt lat="41.4304000" lon="1.8234560">
        <ele>159.4</ele>
        <time>2021-05-08T14:00:06Z</time>
      </trkpt>
      <trkpt lat="41.4305660" lon="1.8235760">
        <ele>159.0</ele>
        <time>2021-05-08T14:00:13Z</time>
      </trkpt>
      <trkpt lat="41.4306920" lon="1.8236490">
        <ele>158.6</ele>
        <time>2021-05-08T14:00:18Z</time>
      </trkpt>
      <trkpt lat="41.4307670" lon="1.8237080">
        <ele>158.8</ele>
        <time>2021-05-08T14:00:22Z</time>
      </trkpt>
      <trkpt lat="41.4308860" lon="1.8238250">
        <ele>158.2</ele>
        <time>2021-05-08T14:00:29Z</time>
      </trkpt>
      <trkpt lat="41.4309260" lon="1.8240240">
        <ele>158.6</ele>
        <time>2021-05-08T14:00:34Z</time>
      </trkpt>
      <trkpt lat="41.4309930" lon="1.8243170">
        <ele>158.2</ele>
        <time>2021-05-08T14:00:41Z</time>
      </trkpt>
      <trkpt lat="41.4310240" lon="1.8244020">
        <ele>157.6</ele>
        <time>2021-05-08T14:00:43Z</time>
      </trkpt>
      <trkpt lat="41.4311310" lon="1.8246470">
        <ele>156.6</ele>
        <time>2021-05-08T14:00:49Z</time>
      </trkpt>
      <trkpt lat="41.4312750" lon="1.8247760">
        <ele>156.6</ele>
        <time>2021-05-08T14:00:54Z</time>
      </trkpt>
      <trkpt lat="41.4315180" lon="1.8248370">
        <ele>156.4</ele>
        <time>2021-05-08T14:01:01Z</time>
      </trkpt>
      <trkpt lat="41.4317070" lon="1.8247810">
        <ele>155.6</ele>
        <time>2021-05-08T14:01:05Z</time>
      </trkpt>
      <trkpt lat="41.4317500" lon="1.8247470">
        <ele>155.2</ele>
        <time>2021-05-08T14:01:06Z</time>
      </trkpt>
      <trkpt lat="41.4318640" lon="1.8245820">
        <ele>154.0</ele>
        <time>2021-05-08T14:01:09Z</time>
      </trkpt>
      <trkpt lat="41.4319020" lon="1.8245250">
        <ele>153.4</ele>
        <time>2021-05-08T14:01:10Z</time>
      </trkpt>
      <trkpt lat="41.4319390" lon="1.8244710">
        <ele>152.6</ele>
        <time>2021-05-08T14:01:11Z</time>
      </trkpt>
      <trkpt lat="41.4319740" lon="1.8244220">
        <ele>152.2</ele>
        <time>2021-05-08T14:01:12Z</time>
      </trkpt>
      <trkpt lat="41.4320550" lon="1.8243690">
        <ele>151.6</ele>
        <time>2021-05-08T14:01:14Z</time>
      </trkpt>
      <trkpt lat="41.4320920" lon="1.8243660">
        <ele>151.4</ele>
        <time>2021-05-08T14:01:15Z</time>
      </trkpt>
      <trkpt lat="41.4321400" lon="1.8244240">
        <ele>151.4</ele>
        <time>2021-05-08T14:01:17Z</time>
      </trkpt>
      <trkpt lat="41.4321630" lon="1.8246250">
        <ele>151.4</ele>
        <time>2021-05-08T14:01:21Z</time>
      </trkpt>
      <trkpt lat="41.4321670" lon="1.8247500">
        <ele>151.2</ele>
        <time>2021-05-08T14:01:23Z</time>
      </trkpt>
      <trkpt lat="41.4321680" lon="1.8248950">
        <ele>150.4</ele>
        <time>2021-05-08T14:01:25Z</time>
      </trkpt>
      <trkpt lat="41.4321550" lon="1.8251430">
        <ele>148.8</ele>
        <time>2021-05-08T14:01:28Z</time>
      </trkpt>
      <trkpt lat="41.4321360" lon="1.8253120">
        <ele>147.4</ele>
        <time>2021-05-08T14:01:30Z</time>
      </trkpt>
      <trkpt lat="41.4321270" lon="1.8253940">
        <ele>147.2</ele>
        <time>2021-05-08T14:01:31Z</time>
      </trkpt>
      <trkpt lat="41.4320990" lon="1.8256390">
        <ele>146.4</ele>
        <time>2021-05-08T14:01:34Z</time>
      </trkpt>
      <trkpt lat="41.4320640" lon="1.8259290">
        <ele>145.6</ele>
        <time>2021-05-08T14:01:38Z</time>
      </trkpt>
      <trkpt lat="41.4320410" lon="1.8260660">
        <ele>145.4</ele>
        <time>2021-05-08T14:01:40Z</time>
      </trkpt>
      <trkpt lat="41.4319970" lon="1.8263370">
        <ele>144.4</ele>
        <time>2021-05-08T14:01:44Z</time>
      </trkpt>
      <trkpt lat="41.4319890" lon="1.8264020">
        <ele>144.6</ele>
        <time>2021-05-08T14:01:45Z</time>
      </trkpt>
      <trkpt lat="41.4319810" lon="1.8264690">
        <ele>144.0</ele>
        <time>2021-05-08T14:01:46Z</time>
      </trkpt>
      <trkpt lat="41.4319520" lon="1.8266650">
        <ele>143.8</ele>
        <time>2021-05-08T14:01:49Z</time>
      </trkpt>
      <trkpt lat="41.4319170" lon="1.8268480">
        <ele>143.6</ele>
        <time>2021-05-08T14:01:52Z</time>
      </trkpt>
      <trkpt lat="41.4319130" lon="1.8270340">
        <ele>143.0</ele>
        <time>2021-05-08T14:01:55Z</time>
      </trkpt>
      <trkpt lat="41.4319170" lon="1.8270960">
        <ele>143.0</ele>
        <time>2021-05-08T14:01:56Z</time>
      </trkpt>
      <trkpt lat="41.4319200" lon="1.8271610">
        <ele>142.6</ele>
        <time>2021-05-08T14:01:57Z</time>
      </trkpt>
      <trkpt lat="41.4319420" lon="1.8273500">
        <ele>142.2</ele>
        <time>2021-05-08T14:02:00Z</time>
      </trkpt>
      <trkpt lat="41.4319730" lon="1.8274810">
        <ele>141.8</ele>
        <time>2021-05-08T14:02:02Z</time>
      </trkpt>
      <trkpt lat="41.4320590" lon="1.8277590">
        <ele>141.0</ele>
        <time>2021-05-08T14:02:06Z</time>
      </trkpt>
      <trkpt lat="41.4321710" lon="1.8280400">
        <ele>140.4</ele>
        <time>2021-05-08T14:02:10Z</time>
      </trkpt>
      <trkpt lat="41.4322630" lon="1.8282390">
        <ele>139.2</ele>
        <time>2021-05-08T14:02:13Z</time>
      </trkpt>
      <trkpt lat="41.4324830" lon="1.8287300">
        <ele>138.4</ele>
        <time>2021-05-08T14:02:21Z</time>
      </trkpt>
      <trkpt lat="41.4326590" lon="1.8291440">
        <ele>138.0</ele>
        <time>2021-05-08T14:02:28Z</time>
      </trkpt>
      <trkpt lat="41.4327500" lon="1.8293160">
        <ele>136.8</ele>
        <time>2021-05-08T14:02:31Z</time>
      </trkpt>
      <trkpt lat="41.4328920" lon="1.8295290">
        <ele>136.2</ele>
        <time>2021-05-08T14:02:35Z</time>
      </trkpt>
      <trkpt lat="41.4329300" lon="1.8295810">
        <ele>135.2</ele>
        <time>2021-05-08T14:02:36Z</time>
      </trkpt>
      <trkpt lat="41.4332030" lon="1.8299610">
        <ele>134.2</ele>
        <time>2021-05-08T14:02:43Z</time>
      </trkpt>
      <trkpt lat="41.4334650" lon="1.8303980">
        <ele>133.8</ele>
        <time>2021-05-08T14:02:51Z</time>
      </trkpt>
      <trkpt lat="41.4335730" lon="1.8307330">
        <ele>133.8</ele>
        <time>2021-05-08T14:02:57Z</time>
      </trkpt>
      <trkpt lat="41.4336260" lon="1.8310030">
        <ele>133.0</ele>
        <time>2021-05-08T14:03:02Z</time>
      </trkpt>
      <trkpt lat="41.4336540" lon="1.8311660">
        <ele>132.4</ele>
        <time>2021-05-08T14:03:05Z</time>
      </trkpt>
      <trkpt lat="41.4336710" lon="1.8312800">
        <ele>131.8</ele>
        <time>2021-05-08T14:03:07Z</time>
      </trkpt>
      <trkpt lat="41.4337170" lon="1.8314270">
        <ele>131.6</ele>
        <time>2021-05-08T14:03:10Z</time>
      </trkpt>
      <trkpt lat="41.4338040" lon="1.8316600">
        <ele>132.6</ele>
        <time>2021-05-08T14:03:17Z</time>
      </trkpt>
      <trkpt lat="41.4338240" lon="1.8317110">
        <ele>133.0</ele>
        <time>2021-05-08T14:03:19Z</time>
      </trkpt>
      <trkpt lat="41.4338470" lon="1.8317830">
        <ele>134.4</ele>
        <time>2021-05-08T14:03:22Z</time>
      </trkpt>
      <trkpt lat="41.4338710" lon="1.8318400">
        <ele>135.0</ele>
        <time>2021-05-08T14:03:25Z</time>
      </trkpt>
      <trkpt lat="41.4338780" lon="1.8318590">
        <ele>135.2</ele>
        <time>2021-05-08T14:03:26Z</time>
      </trkpt>
      <trkpt lat="41.4338860" lon="1.8318780">
        <ele>135.4</ele>
        <time>2021-05-08T14:03:27Z</time>
      </trkpt>
      <trkpt lat="41.4339450" lon="1.8319500">
        <ele>136.0</ele>
        <time>2021-05-08T14:03:33Z</time>
      </trkpt>
      <trkpt lat="41.4340310" lon="1.8319240">
        <ele>136.2</ele>
        <time>2021-05-08T14:03:39Z</time>
      </trkpt>
      <trkpt lat="41.4340540" lon="1.8318960">
        <ele>136.6</ele>
        <time>2021-05-08T14:03:41Z</time>
      </trkpt>
      <trkpt lat="41.4341150" lon="1.8318360">
        <ele>137.2</ele>
        <time>2021-05-08T14:03:46Z</time>
      </trkpt>
      <trkpt lat="41.4342110" lon="1.8318210">
        <ele>136.8</ele>
        <time>2021-05-08T14:03:51Z</time>
      </trkpt>
      <trkpt lat="41.4344000" lon="1.8318360">
        <ele>136.6</ele>
        <time>2021-05-08T14:04:00Z</time>
      </trkpt>
      <trkpt lat="41.4345020" lon="1.8318040">
        <ele>136.0</ele>
        <time>2021-05-08T14:04:06Z</time>
      </trkpt>
      <trkpt lat="41.4346150" lon="1.8317510">
        <ele>135.4</ele>
        <time>2021-05-08T14:04:11Z</time>
      </trkpt>
      <trkpt lat="41.4346390" lon="1.8317450">
        <ele>135.2</ele>
        <time>2021-05-08T14:04:12Z</time>
      </trkpt>
      <trkpt lat="41.4346810" lon="1.8317430">
        <ele>134.8</ele>
        <time>2021-05-08T14:04:14Z</time>
      </trkpt>
      <trkpt lat="41.4346990" lon="1.8317540">
        <ele>134.4</ele>
        <time>2021-05-08T14:04:15Z</time>
      </trkpt>
      <trkpt lat="41.4347100" lon="1.8317750">
        <ele>134.2</ele>
        <time>2021-05-08T14:04:16Z</time>
      </trkpt>
      <trkpt lat="41.4346760" lon="1.8318560">
        <ele>133.6</ele>
        <time>2021-05-08T14:04:20Z</time>
      </trkpt>
      <trkpt lat="41.4346280" lon="1.8318840">
        <ele>133.4</ele>
        <time>2021-05-08T14:04:22Z</time>
      </trkpt>
      <trkpt lat="41.4345720" lon="1.8319220">
        <ele>133.0</ele>
        <time>2021-05-08T14:04:24Z</time>
      </trkpt>
      <trkpt lat="41.4345470" lon="1.8319440">
        <ele>132.8</ele>
        <time>2021-05-08T14:04:25Z</time>
      </trkpt>
      <trkpt lat="41.4344890" lon="1.8320460">
        <ele>132.4</ele>
        <time>2021-05-08T14:04:29Z</time>
      </trkpt>
      <trkpt lat="41.4344980" lon="1.8321970">
        <ele>131.6</ele>
        <time>2021-05-08T14:04:33Z</time>
      </trkpt>
      <trkpt lat="41.4345020" lon="1.8322300">
        <ele>131.2</ele>
        <time>2021-05-08T14:04:34Z</time>
      </trkpt>
      <trkpt lat="41.4345030" lon="1.8323450">
        <ele>130.8</ele>
        <time>2021-05-08T14:04:38Z</time>
      </trkpt>
      <trkpt lat="41.4345030" lon="1.8324370">
        <ele>129.8</ele>
        <time>2021-05-08T14:04:42Z</time>
      </trkpt>
      <trkpt lat="41.4345000" lon="1.8324570">
        <ele>129.6</ele>
        <time>2021-05-08T14:04:43Z</time>
      </trkpt>
      <trkpt lat="41.4344910" lon="1.8325160">
        <ele>129.0</ele>
        <time>2021-05-08T14:04:46Z</time>
      </trkpt>
      <trkpt lat="41.4345000" lon="1.8325630">
        <ele>128.8</ele>
        <time>2021-05-08T14:04:48Z</time>
      </trkpt>
      <trkpt lat="41.4345130" lon="1.8325820">
        <ele>128.6</ele>
        <time>2021-05-08T14:04:49Z</time>
      </trkpt>
      <trkpt lat="41.4345880" lon="1.8325630">
        <ele>128.2</ele>
        <time>2021-05-08T14:04:52Z</time>
      </trkpt>
      <trkpt lat="41.4346080" lon="1.8325260">
        <ele>127.8</ele>
        <time>2021-05-08T14:04:53Z</time>
      </trkpt>
      <trkpt lat="41.4346430" lon="1.8323780">
        <ele>126.2</ele>
        <time>2021-05-08T14:04:56Z</time>
      </trkpt>
      <trkpt lat="41.4346780" lon="1.8322940">
        <ele>124.8</ele>
        <time>2021-05-08T14:04:58Z</time>
      </trkpt>
      <trkpt lat="41.4347300" lon="1.8322420">
        <ele>124.6</ele>
        <time>2021-05-08T14:05:00Z</time>
      </trkpt>
      <trkpt lat="41.4348670" lon="1.8322550">
        <ele>124.2</ele>
        <time>2021-05-08T14:05:04Z</time>
      </trkpt>
      <trkpt lat="41.4349740" lon="1.8322780">
        <ele>123.8</ele>
        <time>2021-05-08T14:05:07Z</time>
      </trkpt>
      <trkpt lat="41.4350470" lon="1.8323060">
        <ele>122.8</ele>
        <time>2021-05-08T14:05:09Z</time>
      </trkpt>
      <trkpt lat="41.4350820" lon="1.8323210">
        <ele>122.6</ele>
        <time>2021-05-08T14:05:10Z</time>
      </trkpt>
      <trkpt lat="41.4351990" lon="1.8324270">
        <ele>121.4</ele>
        <time>2021-05-08T14:05:14Z</time>
      </trkpt>
      <trkpt lat="41.4352250" lon="1.8324510">
        <ele>120.4</ele>
        <time>2021-05-08T14:05:15Z</time>
      </trkpt>
      <trkpt lat="41.4352680" lon="1.8325060">
        <ele>119.2</ele>
        <time>2021-05-08T14:05:17Z</time>
      </trkpt>
      <trkpt lat="41.4353060" lon="1.8325730">
        <ele>118.0</ele>
        <time>2021-05-08T14:05:19Z</time>
      </trkpt>
      <trkpt lat="41.4353180" lon="1.8326440">
        <ele>116.8</ele>
        <time>2021-05-08T14:05:21Z</time>
      </trkpt>
      <trkpt lat="41.4352990" lon="1.8327040">
        <ele>115.6</ele>
        <time>2021-05-08T14:05:23Z</time>
      </trkpt>
      <trkpt lat="41.4352490" lon="1.8328170">
        <ele>114.6</ele>
        <time>2021-05-08T14:05:26Z</time>
      </trkpt>
      <trkpt lat="41.4352470" lon="1.8328590">
        <ele>114.0</ele>
        <time>2021-05-08T14:05:27Z</time>
      </trkpt>
      <trkpt lat="41.4352500" lon="1.8329490">
        <ele>113.0</ele>
        <time>2021-05-08T14:05:29Z</time>
      </trkpt>
      <trkpt lat="41.4352720" lon="1.8330390">
        <ele>112.2</ele>
        <time>2021-05-08T14:05:31Z</time>
      </trkpt>
      <trkpt lat="41.4352940" lon="1.8331700">
        <ele>112.4</ele>
        <time>2021-05-08T14:05:36Z</time>
      </trkpt>
      <trkpt lat="41.4353240" lon="1.8332940">
        <ele>113.6</ele>
        <time>2021-05-08T14:05:42Z</time>
      </trkpt>
      <trkpt lat="41.4353450" lon="1.8333800">
        <ele>113.4</ele>
        <time>2021-05-08T14:05:46Z</time>
      </trkpt>
      <trkpt lat="41.4353640" lon="1.8334330">
        <ele>113.4</ele>
        <time>2021-05-08T14:05:48Z</time>
      </trkpt>
      <trkpt lat="41.4354340" lon="1.8336120">
        <ele>113.8</ele>
        <time>2021-05-08T14:05:56Z</time>
      </trkpt>
      <trkpt lat="41.4354560" lon="1.8336720">
        <ele>114.2</ele>
        <time>2021-05-08T14:05:59Z</time>
      </trkpt>
      <trkpt lat="41.4354850" lon="1.8337520">
        <ele>114.6</ele>
        <time>2021-05-08T14:06:03Z</time>
      </trkpt>
      <trkpt lat="41.4355260" lon="1.8339020">
        <ele>115.2</ele>
        <time>2021-05-08T14:06:10Z</time>
      </trkpt>
      <trkpt lat="41.4355240" lon="1.8339210">
        <ele>115.2</ele>
        <time>2021-05-08T14:06:11Z</time>
      </trkpt>
      <trkpt lat="41.4355280" lon="1.8340160">
        <ele>115.8</ele>
        <time>2021-05-08T14:06:15Z</time>
      </trkpt>
      <trkpt lat="41.4355310" lon="1.8341600">
        <ele>115.6</ele>
        <time>2021-05-08T14:06:21Z</time>
      </trkpt>
      <trkpt lat="41.4355520" lon="1.8343660">
        <ele>115.0</ele>
        <time>2021-05-08T14:06:27Z</time>
      </trkpt>
      <trkpt lat="41.4355930" lon="1.8346010">
        <ele>115.0</ele>
        <time>2021-05-08T14:06:34Z</time>
      </trkpt>
      <trkpt lat="41.4356830" lon="1.8348880">
        <ele>116.4</ele>
        <time>2021-05-08T14:06:43Z</time>
      </trkpt>
      <trkpt lat="41.4357060" lon="1.8349490">
        <ele>116.4</ele>
        <time>2021-05-08T14:06:45Z</time>
      </trkpt>
      <trkpt lat="41.4358060" lon="1.8351420">
        <ele>116.4</ele>
        <time>2021-05-08T14:06:52Z</time>
      </trkpt>
      <trkpt lat="41.4358620" lon="1.8352460">
        <ele>117.6</ele>
        <time>2021-05-08T14:06:56Z</time>
      </trkpt>
      <trkpt lat="41.4359000" lon="1.8353380">
        <ele>117.8</ele>
        <time>2021-05-08T14:06:59Z</time>
      </trkpt>
      <trkpt lat="41.4359860" lon="1.8355620">
        <ele>117.6</ele>
        <time>2021-05-08T14:07:07Z</time>
      </trkpt>
      <trkpt lat="41.4360380" lon="1.8357080">
        <ele>118.8</ele>
        <time>2021-05-08T14:07:12Z</time>
      </trkpt>
      <trkpt lat="41.4360730" lon="1.8357860">
        <ele>119.6</ele>
        <time>2021-05-08T14:07:15Z</time>
      </trkpt>
      <trkpt lat="41.4361540" lon="1.8358670">
        <ele>119.8</ele>
        <time>2021-05-08T14:07:21Z</time>
      </trkpt>
      <trkpt lat="41.4361590" lon="1.8358700">
        <ele>120.0</ele>
        <time>2021-05-08T14:07:22Z</time>
      </trkpt>
      <trkpt lat="41.4361580" lon="1.8358710">
        <ele>120.2</ele>
        <time>2021-05-08T14:07:23Z</time>
      </trkpt>
      <trkpt lat="41.4362200" lon="1.8358520">
        <ele>120.8</ele>
        <time>2021-05-08T14:12:25Z</time>
      </trkpt>
      <trkpt lat="41.4362290" lon="1.8358370">
        <ele>120.8</ele>
        <time>2021-05-08T14:12:26Z</time>
      </trkpt>
      <trkpt lat="41.4362630" lon="1.8357940">
        <ele>121.2</ele>
        <time>2021-05-08T14:12:29Z</time>
      </trkpt>
      <trkpt lat="41.4363260" lon="1.8357340">
        <ele>122.2</ele>
        <time>2021-05-08T14:12:34Z</time>
      </trkpt>
      <trkpt lat="41.4363630" lon="1.8357030">
        <ele>123.4</ele>
        <time>2021-05-08T14:12:37Z</time>
      </trkpt>
      <trkpt lat="41.4364010" lon="1.8356710">
        <ele>123.8</ele>
        <time>2021-05-08T14:12:40Z</time>
      </trkpt>
      <trkpt lat="41.4364250" lon="1.8356500">
        <ele>124.6</ele>
        <time>2021-05-08T14:12:42Z</time>
      </trkpt>
      <trkpt lat="41.4364790" lon="1.8356040">
        <ele>125.6</ele>
        <time>2021-05-08T14:12:47Z</time>
      </trkpt>
      <trkpt lat="41.4364920" lon="1.8355940">
        <ele>125.6</ele>
        <time>2021-05-08T14:12:48Z</time>
      </trkpt>
      <trkpt lat="41.4365790" lon="1.8355270">
        <ele>126.2</ele>
        <time>2021-05-08T14:12:55Z</time>
      </trkpt>
      <trkpt lat="41.4366030" lon="1.8355110">
        <ele>126.4</ele>
        <time>2021-05-08T14:12:57Z</time>
      </trkpt>
      <trkpt lat="41.4366650" lon="1.8354800">
        <ele>127.8</ele>
        <time>2021-05-08T14:13:02Z</time>
      </trkpt>
      <trkpt lat="41.4366900" lon="1.8354640">
        <ele>127.8</ele>
        <time>2021-05-08T14:13:04Z</time>
      </trkpt>
      <trkpt lat="41.4368180" lon="1.8353680">
        <ele>128.4</ele>
        <time>2021-05-08T14:13:14Z</time>
      </trkpt>
      <trkpt lat="41.4368560" lon="1.8353350">
        <ele>128.6</ele>
        <time>2021-05-08T14:13:17Z</time>
      </trkpt>
      <trkpt lat="41.4369350" lon="1.8352860">
        <ele>129.4</ele>
        <time>2021-05-08T14:13:23Z</time>
      </trkpt>
      <trkpt lat="41.4369530" lon="1.8352600">
        <ele>129.8</ele>
        <time>2021-05-08T14:13:25Z</time>
      </trkpt>
      <trkpt lat="41.4370200" lon="1.8352060">
        <ele>129.6</ele>
        <time>2021-05-08T14:13:30Z</time>
      </trkpt>
      <trkpt lat="41.4371270" lon="1.8351220">
        <ele>130.6</ele>
        <time>2021-05-08T14:13:38Z</time>
      </trkpt>
      <trkpt lat="41.4371690" lon="1.8350920">
        <ele>130.8</ele>
        <time>2021-05-08T14:13:41Z</time>
      </trkpt>
      <trkpt lat="41.4372640" lon="1.8350110">
        <ele>131.2</ele>
        <time>2021-05-08T14:13:48Z</time>
      </trkpt>
      <trkpt lat="41.4373480" lon="1.8349390">
        <ele>131.8</ele>
        <time>2021-05-08T14:13:54Z</time>
      </trkpt>
      <trkpt lat="41.4374050" lon="1.8348870">
        <ele>132.2</ele>
        <time>2021-05-08T14:13:58Z</time>
      </trkpt>
      <trkpt lat="41.4374490" lon="1.8348500">
        <ele>132.8</ele>
        <time>2021-05-08T14:14:01Z</time>
      </trkpt>
      <trkpt lat="41.4375440" lon="1.8347640">
        <ele>133.4</ele>
        <time>2021-05-08T14:14:08Z</time>
      </trkpt>
      <trkpt lat="41.4376330" lon="1.8346890">
        <ele>133.8</ele>
        <time>2021-05-08T14:14:14Z</time>
      </trkpt>
      <trkpt lat="41.4376640" lon="1.8346690">
        <ele>133.8</ele>
        <time>2021-05-08T14:14:16Z</time>
      </trkpt>
      <trkpt lat="41.4377690" lon="1.8345730">
        <ele>134.8</ele>
        <time>2021-05-08T14:14:23Z</time>
      </trkpt>
      <trkpt lat="41.4377840" lon="1.8345610">
        <ele>135.0</ele>
        <time>2021-05-08T14:14:24Z</time>
      </trkpt>
      <trkpt lat="41.4378920" lon="1.8344500">
        <ele>135.6</ele>
        <time>2021-05-08T14:14:33Z</time>
      </trkpt>
      <trkpt lat="41.4379300" lon="1.8344010">
        <ele>136.0</ele>
        <time>2021-05-08T14:14:36Z</time>
      </trkpt>
      <trkpt lat="41.4379950" lon="1.8343320">
        <ele>136.8</ele>
        <time>2021-05-08T14:14:41Z</time>
      </trkpt>
      <trkpt lat="41.4380140" lon="1.8343130">
        <ele>137.0</ele>
        <time>2021-05-08T14:14:43Z</time>
      </trkpt>
      <trkpt lat="41.4380630" lon="1.8342800">
        <ele>137.6</ele>
        <time>2021-05-08T14:14:47Z</time>
      </trkpt>
      <trkpt lat="41.4381370" lon="1.8342000">
        <ele>138.4</ele>
        <time>2021-05-08T14:14:53Z</time>
      </trkpt>
      <trkpt lat="41.4381700" lon="1.8341660">
        <ele>138.8</ele>
        <time>2021-05-08T14:14:56Z</time>
      </trkpt>
      <trkpt lat="41.4382130" lon="1.8341200">
        <ele>139.4</ele>
        <time>2021-05-08T14:15:00Z</time>
      </trkpt>
      <trkpt lat="41.4382780" lon="1.8340490">
        <ele>139.8</ele>
        <time>2021-05-08T14:15:06Z</time>
      </trkpt>
      <trkpt lat="41.4383250" lon="1.8340090">
        <ele>140.4</ele>
        <time>2021-05-08T14:15:10Z</time>
      </trkpt>
      <trkpt lat="41.4383820" lon="1.8339540">
        <ele>141.0</ele>
        <time>2021-05-08T14:15:15Z</time>
      </trkpt>
      <trkpt lat="41.4384230" lon="1.8339070">
        <ele>141.6</ele>
        <time>2021-05-08T14:15:19Z</time>
      </trkpt>
      <trkpt lat="41.4384610" lon="1.8338560">
        <ele>142.8</ele>
        <time>2021-05-08T14:15:23Z</time>
      </trkpt>
      <trkpt lat="41.4384720" lon="1.8338430">
        <ele>143.0</ele>
        <time>2021-05-08T14:15:24Z</time>
      </trkpt>
      <trkpt lat="41.4385350" lon="1.8337660">
        <ele>144.0</ele>
        <time>2021-05-08T14:15:30Z</time>
      </trkpt>
      <trkpt lat="41.4385570" lon="1.8337450">
        <ele>144.4</ele>
        <time>2021-05-08T14:15:32Z</time>
      </trkpt>
      <trkpt lat="41.4385790" lon="1.8337280">
        <ele>145.0</ele>
        <time>2021-05-08T14:15:34Z</time>
      </trkpt>
      <trkpt lat="41.4386030" lon="1.8337200">
        <ele>146.2</ele>
        <time>2021-05-08T14:15:36Z</time>
      </trkpt>
      <trkpt lat="41.4386380" lon="1.8336960">
        <ele>146.8</ele>
        <time>2021-05-08T14:15:39Z</time>
      </trkpt>
      <trkpt lat="41.4387120" lon="1.8336230">
        <ele>147.0</ele>
        <time>2021-05-08T14:15:46Z</time>
      </trkpt>
      <trkpt lat="41.4387600" lon="1.8335840">
        <ele>147.4</ele>
        <time>2021-05-08T14:15:50Z</time>
      </trkpt>
      <trkpt lat="41.4387920" lon="1.8335470">
        <ele>148.6</ele>
        <time>2021-05-08T14:15:53Z</time>
      </trkpt>
      <trkpt lat="41.4388140" lon="1.8335000">
        <ele>149.6</ele>
        <time>2021-05-08T14:15:56Z</time>
      </trkpt>
      <trkpt lat="41.4388280" lon="1.8334750">
        <ele>150.0</ele>
        <time>2021-05-08T14:15:58Z</time>
      </trkpt>
      <trkpt lat="41.4388330" lon="1.8334220">
        <ele>150.6</ele>
        <time>2021-05-08T14:16:01Z</time>
      </trkpt>
      <trkpt lat="41.4388350" lon="1.8334040">
        <ele>150.8</ele>
        <time>2021-05-08T14:16:02Z</time>
      </trkpt>
      <trkpt lat="41.4388370" lon="1.8333220">
        <ele>151.6</ele>
        <time>2021-05-08T14:16:07Z</time>
      </trkpt>
      <trkpt lat="41.4388410" lon="1.8333060">
        <ele>151.8</ele>
        <time>2021-05-08T14:16:08Z</time>
      </trkpt>
      <trkpt lat="41.4388470" lon="1.8332620">
        <ele>152.2</ele>
        <time>2021-05-08T14:16:11Z</time>
      </trkpt>
      <trkpt lat="41.4388410" lon="1.8332290">
        <ele>152.6</ele>
        <time>2021-05-08T14:16:13Z</time>
      </trkpt>
      <trkpt lat="41.4388360" lon="1.8331690">
        <ele>152.8</ele>
        <time>2021-05-08T14:16:16Z</time>
      </trkpt>
      <trkpt lat="41.4388430" lon="1.8331380">
        <ele>153.2</ele>
        <time>2021-05-08T14:16:18Z</time>
      </trkpt>
      <trkpt lat="41.4388460" lon="1.8331060">
        <ele>153.8</ele>
        <time>2021-05-08T14:16:20Z</time>
      </trkpt>
      <trkpt lat="41.4388530" lon="1.8330710">
        <ele>154.2</ele>
        <time>2021-05-08T14:16:22Z</time>
      </trkpt>
      <trkpt lat="41.4388560" lon="1.8330520">
        <ele>154.2</ele>
        <time>2021-05-08T14:16:23Z</time>
      </trkpt>
      <trkpt lat="41.4388760" lon="1.8329620">
        <ele>154.4</ele>
        <time>2021-05-08T14:16:29Z</time>
      </trkpt>
      <trkpt lat="41.4388800" lon="1.8329420">
        <ele>154.8</ele>
        <time>2021-05-08T14:16:30Z</time>
      </trkpt>
      <trkpt lat="41.4389030" lon="1.8328750">
        <ele>155.8</ele>
        <time>2021-05-08T14:16:34Z</time>
      </trkpt>
      <trkpt lat="41.4389050" lon="1.8328540">
        <ele>156.0</ele>
        <time>2021-05-08T14:16:35Z</time>
      </trkpt>
      <trkpt lat="41.4389110" lon="1.8327500">
        <ele>157.0</ele>
        <time>2021-05-08T14:16:40Z</time>
      </trkpt>
      <trkpt lat="41.4389180" lon="1.8327100">
        <ele>157.8</ele>
        <time>2021-05-08T14:16:42Z</time>
      </trkpt>
      <trkpt lat="41.4389250" lon="1.8326730">
        <ele>158.2</ele>
        <time>2021-05-08T14:16:44Z</time>
      </trkpt>
      <trkpt lat="41.4389280" lon="1.8326550">
        <ele>158.4</ele>
        <time>2021-05-08T14:16:45Z</time>
      </trkpt>
      <trkpt lat="41.4389290" lon="1.8325760">
        <ele>159.4</ele>
        <time>2021-05-08T14:16:49Z</time>
      </trkpt>
      <trkpt lat="41.4389330" lon="1.8325600">
        <ele>159.6</ele>
        <time>2021-05-08T14:16:50Z</time>
      </trkpt>
      <trkpt lat="41.4389420" lon="1.8325200">
        <ele>160.4</ele>
        <time>2021-05-08T14:16:53Z</time>
      </trkpt>
      <trkpt lat="41.4389440" lon="1.8325010">
        <ele>160.8</ele>
        <time>2021-05-08T14:16:55Z</time>
      </trkpt>
      <trkpt lat="41.4389430" lon="1.8325000">
        <ele>161.0</ele>
        <time>2021-05-08T14:16:56Z</time>
      </trkpt>
      <trkpt lat="41.4389890" lon="1.8323640">
        <ele>161.2</ele>
        <time>2021-05-08T14:18:17Z</time>
      </trkpt>
      <trkpt lat="41.4390070" lon="1.8323190">
        <ele>161.6</ele>
        <time>2021-05-08T14:18:19Z</time>
      </trkpt>
      <trkpt lat="41.4390810" lon="1.8321720">
        <ele>162.4</ele>
        <time>2021-05-08T14:18:25Z</time>
      </trkpt>
      <trkpt lat="41.4391090" lon="1.8321280">
        <ele>162.8</ele>
        <time>2021-05-08T14:18:27Z</time>
      </trkpt>
      <trkpt lat="41.4392160" lon="1.8319950">
        <ele>163.6</ele>
        <time>2021-05-08T14:18:34Z</time>
      </trkpt>
      <trkpt lat="41.4392270" lon="1.8319760">
        <ele>164.0</ele>
        <time>2021-05-08T14:18:35Z</time>
      </trkpt>
      <trkpt lat="41.4392690" lon="1.8319220">
        <ele>164.8</ele>
        <time>2021-05-08T14:18:38Z</time>
      </trkpt>
      <trkpt lat="41.4393340" lon="1.8318250">
        <ele>165.2</ele>
        <time>2021-05-08T14:18:42Z</time>
      </trkpt>
      <trkpt lat="41.4394060" lon="1.8317340">
        <ele>164.4</ele>
        <time>2021-05-08T14:18:45Z</time>
      </trkpt>
      <trkpt lat="41.4394320" lon="1.8316940">
        <ele>164.4</ele>
        <time>2021-05-08T14:18:46Z</time>
      </trkpt>
      <trkpt lat="41.4394580" lon="1.8316460">
        <ele>164.8</ele>
        <time>2021-05-08T14:18:47Z</time>
      </trkpt>
      <trkpt lat="41.4395220" lon="1.8315660">
        <ele>163.6</ele>
        <time>2021-05-08T14:18:49Z</time>
      </trkpt>
      <trkpt lat="41.4396270" lon="1.8316070">
        <ele>162.4</ele>
        <time>2021-05-08T14:18:52Z</time>
      </trkpt>
      <trkpt lat="41.4396730" lon="1.8316930">
        <ele>162.4</ele>
        <time>2021-05-08T14:18:54Z</time>
      </trkpt>
      <trkpt lat="41.4397410" lon="1.8318490">
        <ele>162.0</ele>
        <time>2021-05-08T14:18:57Z</time>
      </trkpt>
      <trkpt lat="41.4397860" lon="1.8319730">
        <ele>161.4</ele>
        <time>2021-05-08T14:18:59Z</time>
      </trkpt>
      <trkpt lat="41.4399190" lon="1.8322670">
        <ele>160.6</ele>
        <time>2021-05-08T14:19:04Z</time>
      </trkpt>
      <trkpt lat="41.4399400" lon="1.8323220">
        <ele>160.4</ele>
        <time>2021-05-08T14:19:05Z</time>
      </trkpt>
      <trkpt lat="41.4399550" lon="1.8323770">
        <ele>160.0</ele>
        <time>2021-05-08T14:19:06Z</time>
      </trkpt>
      <trkpt lat="41.4399830" lon="1.8325150">
        <ele>159.8</ele>
        <time>2021-05-08T14:19:09Z</time>
      </trkpt>
      <trkpt lat="41.4400210" lon="1.8326640">
        <ele>160.6</ele>
        <time>2021-05-08T14:19:14Z</time>
      </trkpt>
      <trkpt lat="41.4400740" lon="1.8328250">
        <ele>161.0</ele>
        <time>2021-05-08T14:19:20Z</time>
      </trkpt>
      <trkpt lat="41.4401130" lon="1.8329450">
        <ele>161.2</ele>
        <time>2021-05-08T14:19:24Z</time>
      </trkpt>
      <trkpt lat="41.4401350" lon="1.8330340">
        <ele>161.6</ele>
        <time>2021-05-08T14:19:27Z</time>
      </trkpt>
      <trkpt lat="41.4401490" lon="1.8330880">
        <ele>162.2</ele>
        <time>2021-05-08T14:19:29Z</time>
      </trkpt>
      <trkpt lat="41.4401790" lon="1.8331850">
        <ele>163.0</ele>
        <time>2021-05-08T14:19:33Z</time>
      </trkpt>
      <trkpt lat="41.4401970" lon="1.8332340">
        <ele>163.4</ele>
        <time>2021-05-08T14:19:35Z</time>
      </trkpt>
      <trkpt lat="41.4402360" lon="1.8333800">
        <ele>163.6</ele>
        <time>2021-05-08T14:19:40Z</time>
      </trkpt>
      <trkpt lat="41.4402860" lon="1.8336310">
        <ele>164.0</ele>
        <time>2021-05-08T14:19:48Z</time>
      </trkpt>
      <trkpt lat="41.4403040" lon="1.8337120">
        <ele>164.4</ele>
        <time>2021-05-08T14:19:51Z</time>
      </trkpt>
      <trkpt lat="41.4403200" lon="1.8337930">
        <ele>165.8</ele>
        <time>2021-05-08T14:19:54Z</time>
      </trkpt>
      <trkpt lat="41.4403260" lon="1.8338170">
        <ele>165.8</ele>
        <time>2021-05-08T14:19:55Z</time>
      </trkpt>
      <trkpt lat="41.4403820" lon="1.8340270">
        <ele>165.4</ele>
        <time>2021-05-08T14:20:03Z</time>
      </trkpt>
      <trkpt lat="41.4404620" lon="1.8342300">
        <ele>166.6</ele>
        <time>2021-05-08T14:20:10Z</time>
      </trkpt>
      <trkpt lat="41.4405060" lon="1.8343140">
        <ele>166.8</ele>
        <time>2021-05-08T14:20:13Z</time>
      </trkpt>
      <trkpt lat="41.4405660" lon="1.8344230">
        <ele>167.0</ele>
        <time>2021-05-08T14:20:17Z</time>
      </trkpt>
      <trkpt lat="41.4407070" lon="1.8346940">
        <ele>166.6</ele>
        <time>2021-05-08T14:20:27Z</time>
      </trkpt>
      <trkpt lat="41.4408000" lon="1.8349170">
        <ele>167.6</ele>
        <time>2021-05-08T14:20:35Z</time>
      </trkpt>
      <trkpt lat="41.4408440" lon="1.8350020">
        <ele>167.8</ele>
        <time>2021-05-08T14:20:38Z</time>
      </trkpt>
      <trkpt lat="41.4408990" lon="1.8351420">
        <ele>168.2</ele>
        <time>2021-05-08T14:20:43Z</time>
      </trkpt>
      <trkpt lat="41.4409870" lon="1.8353160">
        <ele>168.8</ele>
        <time>2021-05-08T14:20:50Z</time>
      </trkpt>
      <trkpt lat="41.4410050" lon="1.8353350">
        <ele>169.2</ele>
        <time>2021-05-08T14:20:51Z</time>
      </trkpt>
      <trkpt lat="41.4411070" lon="1.8354030">
        <ele>169.8</ele>
        <time>2021-05-08T14:20:56Z</time>
      </trkpt>
      <trkpt lat="41.4411510" lon="1.8354250">
        <ele>170.2</ele>
        <time>2021-05-08T14:20:58Z</time>
      </trkpt>
      <trkpt lat="41.4413060" lon="1.8354800">
        <ele>169.4</ele>
        <time>2021-05-08T14:21:04Z</time>
      </trkpt>
      <trkpt lat="41.4415070" lon="1.8355610">
        <ele>170.8</ele>
        <time>2021-05-08T14:21:11Z</time>
      </trkpt>
      <trkpt lat="41.4417800" lon="1.8357100">
        <ele>170.0</ele>
        <time>2021-05-08T14:21:19Z</time>
      </trkpt>
      <trkpt lat="41.4418910" lon="1.8358000">
        <ele>170.2</ele>
        <time>2021-05-08T14:21:22Z</time>
      </trkpt>
      <trkpt lat="41.4419490" lon="1.8358880">
        <ele>170.0</ele>
        <time>2021-05-08T14:21:24Z</time>
      </trkpt>
      <trkpt lat="41.4420010" lon="1.8360530">
        <ele>169.6</ele>
        <time>2021-05-08T14:21:27Z</time>
      </trkpt>
      <trkpt lat="41.4420290" lon="1.8361660">
        <ele>169.2</ele>
        <time>2021-05-08T14:21:29Z</time>
      </trkpt>
      <trkpt lat="41.4420400" lon="1.8362220">
        <ele>169.0</ele>
        <time>2021-05-08T14:21:30Z</time>
      </trkpt>
      <trkpt lat="41.4421210" lon="1.8365750">
        <ele>168.0</ele>
        <time>2021-05-08T14:21:36Z</time>
      </trkpt>
      <trkpt lat="41.4421980" lon="1.8368180">
        <ele>166.8</ele>
        <time>2021-05-08T14:21:40Z</time>
      </trkpt>
      <trkpt lat="41.4422690" lon="1.8370090">
        <ele>166.4</ele>
        <time>2021-05-08T14:21:43Z</time>
      </trkpt>
      <trkpt lat="41.4423810" lon="1.8373350">
        <ele>165.4</ele>
        <time>2021-05-08T14:21:48Z</time>
      </trkpt>
      <trkpt lat="41.4424010" lon="1.8374120">
        <ele>164.8</ele>
        <time>2021-05-08T14:21:49Z</time>
      </trkpt>
      <trkpt lat="41.4424200" lon="1.8374950">
        <ele>164.2</ele>
        <time>2021-05-08T14:21:50Z</time>
      </trkpt>
      <trkpt lat="41.4424670" lon="1.8377560">
        <ele>162.8</ele>
        <time>2021-05-08T14:21:53Z</time>
      </trkpt>
      <trkpt lat="41.4424860" lon="1.8378400">
        <ele>162.0</ele>
        <time>2021-05-08T14:21:54Z</time>
      </trkpt>
      <trkpt lat="41.4425120" lon="1.8379190">
        <ele>161.6</ele>
        <time>2021-05-08T14:21:55Z</time>
      </trkpt>
      <trkpt lat="41.4426850" lon="1.8382740">
        <ele>160.2</ele>
        <time>2021-05-08T14:22:00Z</time>
      </trkpt>
      <trkpt lat="41.4427230" lon="1.8383350">
        <ele>159.6</ele>
        <time>2021-05-08T14:22:01Z</time>
      </trkpt>
      <trkpt lat="41.4427620" lon="1.8383880">
        <ele>159.0</ele>
        <time>2021-05-08T14:22:02Z</time>
      </trkpt>
      <trkpt lat="41.4428050" lon="1.8384350">
        <ele>158.0</ele>
        <time>2021-05-08T14:22:03Z</time>
      </trkpt>
      <trkpt lat="41.4429000" lon="1.8385260">
        <ele>156.4</ele>
        <time>2021-05-08T14:22:05Z</time>
      </trkpt>
      <trkpt lat="41.4429500" lon="1.8385710">
        <ele>156.2</ele>
        <time>2021-05-08T14:22:06Z</time>
      </trkpt>
      <trkpt lat="41.4431000" lon="1.8387090">
        <ele>155.4</ele>
        <time>2021-05-08T14:22:09Z</time>
      </trkpt>
      <trkpt lat="41.4432560" lon="1.8388590">
        <ele>154.0</ele>
        <time>2021-05-08T14:22:12Z</time>
      </trkpt>
      <trkpt lat="41.4433520" lon="1.8389640">
        <ele>153.4</ele>
        <time>2021-05-08T14:22:14Z</time>
      </trkpt>
      <trkpt lat="41.4433970" lon="1.8390160">
        <ele>153.0</ele>
        <time>2021-05-08T14:22:15Z</time>
      </trkpt>
      <trkpt lat="41.4434390" lon="1.8390650">
        <ele>152.0</ele>
        <time>2021-05-08T14:22:16Z</time>
      </trkpt>
      <trkpt lat="41.4435120" lon="1.8391610">
        <ele>150.4</ele>
        <time>2021-05-08T14:22:18Z</time>
      </trkpt>
      <trkpt lat="41.4435350" lon="1.8392100">
        <ele>150.0</ele>
        <time>2021-05-08T14:22:19Z</time>
      </trkpt>
      <trkpt lat="41.4435550" lon="1.8393080">
        <ele>149.2</ele>
        <time>2021-05-08T14:22:21Z</time>
      </trkpt>
      <trkpt lat="41.4435420" lon="1.8394090">
        <ele>148.4</ele>
        <time>2021-05-08T14:22:23Z</time>
      </trkpt>
      <trkpt lat="41.4435260" lon="1.8394660">
        <ele>148.0</ele>
        <time>2021-05-08T14:22:24Z</time>
      </trkpt>
      <trkpt lat="41.4434950" lon="1.8395970">
        <ele>147.8</ele>
        <time>2021-05-08T14:22:26Z</time>
      </trkpt>
      <trkpt lat="41.4434790" lon="1.8396670">
        <ele>147.0</ele>
        <time>2021-05-08T14:22:27Z</time>
      </trkpt>
      <trkpt lat="41.4434640" lon="1.8397400">
        <ele>146.0</ele>
        <time>2021-05-08T14:22:28Z</time>
      </trkpt>
      <trkpt lat="41.4434160" lon="1.8399780">
        <ele>145.0</ele>
        <time>2021-05-08T14:22:31Z</time>
      </trkpt>
      <trkpt lat="41.4433920" lon="1.8402340">
        <ele>143.2</ele>
        <time>2021-05-08T14:22:34Z</time>
      </trkpt>
      <trkpt lat="41.4434100" lon="1.8404200">
        <ele>142.0</ele>
        <time>2021-05-08T14:22:36Z</time>
      </trkpt>
      <trkpt lat="41.4434560" lon="1.8406060">
        <ele>141.8</ele>
        <time>2021-05-08T14:22:38Z</time>
      </trkpt>
      <trkpt lat="41.4436260" lon="1.8411350">
        <ele>140.8</ele>
        <time>2021-05-08T14:22:44Z</time>
      </trkpt>
      <trkpt lat="41.4436510" lon="1.8412170">
        <ele>140.6</ele>
        <time>2021-05-08T14:22:45Z</time>
      </trkpt>
      <trkpt lat="41.4437600" lon="1.8414300">
        <ele>139.8</ele>
        <time>2021-05-08T14:22:48Z</time>
      </trkpt>
      <trkpt lat="41.4438020" lon="1.8414850">
        <ele>139.4</ele>
        <time>2021-05-08T14:22:49Z</time>
      </trkpt>
      <trkpt lat="41.4438370" lon="1.8415410">
        <ele>139.2</ele>
        <time>2021-05-08T14:22:50Z</time>
      </trkpt>
      <trkpt lat="41.4438680" lon="1.8416640">
        <ele>138.8</ele>
        <time>2021-05-08T14:22:52Z</time>
      </trkpt>
      <trkpt lat="41.4438570" lon="1.8417170">
        <ele>138.6</ele>
        <time>2021-05-08T14:22:53Z</time>
      </trkpt>
      <trkpt lat="41.4438080" lon="1.8418000">
        <ele>138.4</ele>
        <time>2021-05-08T14:22:55Z</time>
      </trkpt>
      <trkpt lat="41.4437840" lon="1.8418430">
        <ele>138.0</ele>
        <time>2021-05-08T14:22:56Z</time>
      </trkpt>
      <trkpt lat="41.4437600" lon="1.8418860">
        <ele>137.6</ele>
        <time>2021-05-08T14:22:57Z</time>
      </trkpt>
      <trkpt lat="41.4436710" lon="1.8420690">
        <ele>137.4</ele>
        <time>2021-05-08T14:23:01Z</time>
      </trkpt>
      <trkpt lat="41.4435620" lon="1.8423790">
        <ele>138.4</ele>
        <time>2021-05-08T14:23:08Z</time>
      </trkpt>
      <trkpt lat="41.4435330" lon="1.8425150">
        <ele>138.6</ele>
        <time>2021-05-08T14:23:11Z</time>
      </trkpt>
      <trkpt lat="41.4435020" lon="1.8426980">
        <ele>139.2</ele>
        <time>2021-05-08T14:23:15Z</time>
      </trkpt>
      <trkpt lat="41.4434410" lon="1.8430140">
        <ele>139.2</ele>
        <time>2021-05-08T14:23:22Z</time>
      </trkpt>
      <trkpt lat="41.4433400" lon="1.8431860">
        <ele>138.6</ele>
        <time>2021-05-08T14:23:27Z</time>
      </trkpt>
      <trkpt lat="41.4433040" lon="1.8434490">
        <ele>138.2</ele>
        <time>2021-05-08T14:23:32Z</time>
      </trkpt>
      <trkpt lat="41.4432800" lon="1.8436510">
        <ele>137.6</ele>
        <time>2021-05-08T14:23:36Z</time>
      </trkpt>
      <trkpt lat="41.4432400" lon="1.8437910">
        <ele>137.8</ele>
        <time>2021-05-08T14:23:39Z</time>
      </trkpt>
      <trkpt lat="41.4431650" lon="1.8441040">
        <ele>136.6</ele>
        <time>2021-05-08T14:23:45Z</time>
      </trkpt>
      <trkpt lat="41.4431530" lon="1.8441550">
        <ele>136.6</ele>
        <time>2021-05-08T14:23:46Z</time>
      </trkpt>
      <trkpt lat="41.4431120" lon="1.8444470">
        <ele>135.6</ele>
        <time>2021-05-08T14:23:51Z</time>
      </trkpt>
      <trkpt lat="41.4431030" lon="1.8445030">
        <ele>135.2</ele>
        <time>2021-05-08T14:23:52Z</time>
      </trkpt>
      <trkpt lat="41.4430660" lon="1.8447560">
        <ele>135.4</ele>
        <time>2021-05-08T14:23:56Z</time>
      </trkpt>
      <trkpt lat="41.4430540" lon="1.8448200">
        <ele>135.4</ele>
        <time>2021-05-08T14:23:57Z</time>
      </trkpt>
      <trkpt lat="41.4430350" lon="1.8449410">
        <ele>135.0</ele>
        <time>2021-05-08T14:23:59Z</time>
      </trkpt>
      <trkpt lat="41.4430110" lon="1.8450440">
        <ele>133.6</ele>
        <time>2021-05-08T14:24:01Z</time>
      </trkpt>
      <trkpt lat="41.4429920" lon="1.8450880">
        <ele>132.6</ele>
        <time>2021-05-08T14:24:02Z</time>
      </trkpt>
      <trkpt lat="41.4429670" lon="1.8451280">
        <ele>132.0</ele>
        <time>2021-05-08T14:24:03Z</time>
      </trkpt>
      <trkpt lat="41.4428610" lon="1.8452300">
        <ele>130.4</ele>
        <time>2021-05-08T14:24:06Z</time>
      </trkpt>
      <trkpt lat="41.4428000" lon="1.8453150">
        <ele>129.6</ele>
        <time>2021-05-08T14:24:08Z</time>
      </trkpt>
      <trkpt lat="41.4427720" lon="1.8453580">
        <ele>129.2</ele>
        <time>2021-05-08T14:24:09Z</time>
      </trkpt>
      <trkpt lat="41.4426860" lon="1.8454750">
        <ele>128.6</ele>
        <time>2021-05-08T14:24:12Z</time>
      </trkpt>
      <trkpt lat="41.4426530" lon="1.8455100">
        <ele>128.0</ele>
        <time>2021-05-08T14:24:13Z</time>
      </trkpt>
      <trkpt lat="41.4425440" lon="1.8456200">
        <ele>127.0</ele>
        <time>2021-05-08T14:24:16Z</time>
      </trkpt>
      <trkpt lat="41.4424750" lon="1.8456900">
        <ele>126.2</ele>
        <time>2021-05-08T14:24:18Z</time>
      </trkpt>
      <trkpt lat="41.4424470" lon="1.8457240">
        <ele>126.0</ele>
        <time>2021-05-08T14:24:19Z</time>
      </trkpt>
      <trkpt lat="41.4424090" lon="1.8457910">
        <ele>124.6</ele>
        <time>2021-05-08T14:24:21Z</time>
      </trkpt>
      <trkpt lat="41.4423990" lon="1.8458250">
        <ele>124.0</ele>
        <time>2021-05-08T14:24:22Z</time>
      </trkpt>
      <trkpt lat="41.4423860" lon="1.8458640">
        <ele>123.4</ele>
        <time>2021-05-08T14:24:23Z</time>
      </trkpt>
      <trkpt lat="41.4423510" lon="1.8459460">
        <ele>122.4</ele>
        <time>2021-05-08T14:24:25Z</time>
      </trkpt>
      <trkpt lat="41.4423320" lon="1.8459950">
        <ele>121.4</ele>
        <time>2021-05-08T14:24:26Z</time>
      </trkpt>
      <trkpt lat="41.4423190" lon="1.8460530">
        <ele>121.0</ele>
        <time>2021-05-08T14:24:27Z</time>
      </trkpt>
      <trkpt lat="41.4422930" lon="1.8462330">
        <ele>119.6</ele>
        <time>2021-05-08T14:24:30Z</time>
      </trkpt>
      <trkpt lat="41.4422660" lon="1.8463140">
        <ele>119.0</ele>
        <time>2021-05-08T14:24:32Z</time>
      </trkpt>
      <trkpt lat="41.4421650" lon="1.8464540">
        <ele>118.8</ele>
        <time>2021-05-08T14:24:37Z</time>
      </trkpt>
      <trkpt lat="41.4421540" lon="1.8464900">
        <ele>118.8</ele>
        <time>2021-05-08T14:24:38Z</time>
      </trkpt>
      <trkpt lat="41.4421450" lon="1.8465280">
        <ele>118.0</ele>
        <time>2021-05-08T14:24:39Z</time>
      </trkpt>
      <trkpt lat="41.4421510" lon="1.8466280">
        <ele>117.0</ele>
        <time>2021-05-08T14:24:41Z</time>
      </trkpt>
      <trkpt lat="41.4421660" lon="1.8466840">
        <ele>116.6</ele>
        <time>2021-05-08T14:24:42Z</time>
      </trkpt>
      <trkpt lat="41.4422130" lon="1.8468260">
        <ele>116.0</ele>
        <time>2021-05-08T14:24:45Z</time>
      </trkpt>
      <trkpt lat="41.4422250" lon="1.8468510">
        <ele>115.8</ele>
        <time>2021-05-08T14:24:46Z</time>
      </trkpt>
      <trkpt lat="41.4422810" lon="1.8469940">
        <ele>117.0</ele>
        <time>2021-05-08T14:24:52Z</time>
      </trkpt>
      <trkpt lat="41.4423000" lon="1.8470560">
        <ele>117.8</ele>
        <time>2021-05-08T14:24:55Z</time>
      </trkpt>
      <trkpt lat="41.4423130" lon="1.8470900">
        <ele>118.2</ele>
        <time>2021-05-08T14:24:57Z</time>
      </trkpt>
      <trkpt lat="41.4423380" lon="1.8471670">
        <ele>118.4</ele>
        <time>2021-05-08T14:25:02Z</time>
      </trkpt>
      <trkpt lat="41.4423470" lon="1.8472090">
        <ele>118.8</ele>
        <time>2021-05-08T14:25:05Z</time>
      </trkpt>
      <trkpt lat="41.4423430" lon="1.8472210">
        <ele>119.0</ele>
        <time>2021-05-08T14:25:08Z</time>
      </trkpt>
      <trkpt lat="41.4423490" lon="1.8472590">
        <ele>119.0</ele>
        <time>2021-05-08T14:25:46Z</time>
      </trkpt>
      <trkpt lat="41.4423620" lon="1.8473180">
        <ele>119.0</ele>
        <time>2021-05-08T14:25:48Z</time>
      </trkpt>
      <trkpt lat="41.4424310" lon="1.8475440">
        <ele>118.8</ele>
        <time>2021-05-08T14:25:55Z</time>
      </trkpt>
      <trkpt lat="41.4425170" lon="1.8478000">
        <ele>118.6</ele>
        <time>2021-05-08T14:26:02Z</time>
      </trkpt>
      <trkpt lat="41.4426280" lon="1.8482000">
        <ele>118.0</ele>
        <time>2021-05-08T14:26:12Z</time>
      </trkpt>
      <trkpt lat="41.4427060" lon="1.8484700">
        <ele>117.0</ele>
        <time>2021-05-08T14:26:18Z</time>
      </trkpt>
      <trkpt lat="41.4427350" lon="1.8485680">
        <ele>117.0</ele>
        <time>2021-05-08T14:26:20Z</time>
      </trkpt>
      <trkpt lat="41.4427770" lon="1.8487150">
        <ele>116.8</ele>
        <time>2021-05-08T14:26:23Z</time>
      </trkpt>
      <trkpt lat="41.4428080" lon="1.8488110">
        <ele>116.6</ele>
        <time>2021-05-08T14:26:25Z</time>
      </trkpt>
      <trkpt lat="41.4428760" lon="1.8491830">
        <ele>116.0</ele>
        <time>2021-05-08T14:26:32Z</time>
      </trkpt>
      <trkpt lat="41.4429480" lon="1.8495230">
        <ele>116.6</ele>
        <time>2021-05-08T14:26:39Z</time>
      </trkpt>
      <trkpt lat="41.4430040" lon="1.8496550">
        <ele>116.4</ele>
        <time>2021-05-08T14:26:42Z</time>
      </trkpt>
      <trkpt lat="41.4430610" lon="1.8497280">
        <ele>116.2</ele>
        <time>2021-05-08T14:26:44Z</time>
      </trkpt>
      <trkpt lat="41.4432610" lon="1.8499790">
        <ele>115.8</ele>
        <time>2021-05-08T14:26:51Z</time>
      </trkpt>
      <trkpt lat="41.4434190" lon="1.8501970">
        <ele>115.6</ele>
        <time>2021-05-08T14:26:58Z</time>
      </trkpt>
      <trkpt lat="41.4434530" lon="1.8502280">
        <ele>115.0</ele>
        <time>2021-05-08T14:27:00Z</time>
      </trkpt>
      <trkpt lat="41.4435140" lon="1.8502600">
        <ele>115.0</ele>
        <time>2021-05-08T14:27:04Z</time>
      </trkpt>
      <trkpt lat="41.4436280" lon="1.8502820">
        <ele>114.8</ele>
        <time>2021-05-08T14:27:11Z</time>
      </trkpt>
      <trkpt lat="41.4436350" lon="1.8502860">
        <ele>114.6</ele>
        <time>2021-05-08T14:27:13Z</time>
      </trkpt>
      <trkpt lat="41.4436460" lon="1.8503210">
        <ele>114.6</ele>
        <time>2021-05-08T14:27:31Z</time>
      </trkpt>
      <trkpt lat="41.4436470" lon="1.8503470">
        <ele>114.6</ele>
        <time>2021-05-08T14:27:32Z</time>
      </trkpt>
      <trkpt lat="41.4436240" lon="1.8504630">
        <ele>114.2</ele>
        <time>2021-05-08T14:27:35Z</time>
      </trkpt>
      <trkpt lat="41.4436140" lon="1.8505090">
        <ele>114.2</ele>
        <time>2021-05-08T14:27:36Z</time>
      </trkpt>
      <trkpt lat="41.4435900" lon="1.8506140">
        <ele>113.8</ele>
        <time>2021-05-08T14:27:38Z</time>
      </trkpt>
      <trkpt lat="41.4435400" lon="1.8508640">
        <ele>113.2</ele>
        <time>2021-05-08T14:27:42Z</time>
      </trkpt>
      <trkpt lat="41.4435250" lon="1.8510050">
        <ele>112.8</ele>
        <time>2021-05-08T14:27:44Z</time>
      </trkpt>
      <trkpt lat="41.4435420" lon="1.8512290">
        <ele>112.0</ele>
        <time>2021-05-08T14:27:47Z</time>
      </trkpt>
      <trkpt lat="41.4435890" lon="1.8513930">
        <ele>112.0</ele>
        <time>2021-05-08T14:27:49Z</time>
      </trkpt>
      <trkpt lat="41.4436670" lon="1.8515470">
        <ele>111.2</ele>
        <time>2021-05-08T14:27:51Z</time>
      </trkpt>
      <trkpt lat="41.4437160" lon="1.8516180">
        <ele>110.8</ele>
        <time>2021-05-08T14:27:52Z</time>
      </trkpt>
      <trkpt lat="41.4437680" lon="1.8516850">
        <ele>110.4</ele>
        <time>2021-05-08T14:27:53Z</time>
      </trkpt>
      <trkpt lat="41.4438210" lon="1.8517510">
        <ele>109.8</ele>
        <time>2021-05-08T14:27:54Z</time>
      </trkpt>
      <trkpt lat="41.4439720" lon="1.8519330">
        <ele>108.6</ele>
        <time>2021-05-08T14:27:57Z</time>
      </trkpt>
      <trkpt lat="41.4442370" lon="1.8522670">
        <ele>108.0</ele>
        <time>2021-05-08T14:28:03Z</time>
      </trkpt>
      <trkpt lat="41.4445160" lon="1.8526050">
        <ele>108.0</ele>
        <time>2021-05-08T14:28:09Z</time>
      </trkpt>
      <trkpt lat="41.4449490" lon="1.8531410">
        <ele>108.2</ele>
        <time>2021-05-08T14:28:18Z</time>
      </trkpt>
      <trkpt lat="41.4449980" lon="1.8532000">
        <ele>108.2</ele>
        <time>2021-05-08T14:28:19Z</time>
      </trkpt>
      <trkpt lat="41.4453650" lon="1.8536550">
        <ele>108.0</ele>
        <time>2021-05-08T14:28:27Z</time>
      </trkpt>
      <trkpt lat="41.4456040" lon="1.8539330">
        <ele>108.4</ele>
        <time>2021-05-08T14:28:33Z</time>
      </trkpt>
      <trkpt lat="41.4457680" lon="1.8541230">
        <ele>109.4</ele>
        <time>2021-05-08T14:28:39Z</time>
      </trkpt>
      <trkpt lat="41.4458130" lon="1.8541790">
        <ele>109.8</ele>
        <time>2021-05-08T14:28:41Z</time>
      </trkpt>
      <trkpt lat="41.4458610" lon="1.8542860">
        <ele>110.4</ele>
        <time>2021-05-08T14:28:44Z</time>
      </trkpt>
      <trkpt lat="41.4458410" lon="1.8543840">
        <ele>111.0</ele>
        <time>2021-05-08T14:28:47Z</time>
      </trkpt>
      <trkpt lat="41.4458310" lon="1.8544090">
        <ele>111.2</ele>
        <time>2021-05-08T14:28:48Z</time>
      </trkpt>
      <trkpt lat="41.4458080" lon="1.8544440">
        <ele>112.2</ele>
        <time>2021-05-08T14:28:50Z</time>
      </trkpt>
      <trkpt lat="41.4457710" lon="1.8545060">
        <ele>113.4</ele>
        <time>2021-05-08T14:28:53Z</time>
      </trkpt>
      <trkpt lat="41.4457480" lon="1.8545450">
        <ele>114.2</ele>
        <time>2021-05-08T14:28:55Z</time>
      </trkpt>
      <trkpt lat="41.4457370" lon="1.8545630">
        <ele>114.6</ele>
        <time>2021-05-08T14:28:56Z</time>
      </trkpt>
      <trkpt lat="41.4456840" lon="1.8546180">
        <ele>115.6</ele>
        <time>2021-05-08T14:29:00Z</time>
      </trkpt>
      <trkpt lat="41.4456550" lon="1.8546490">
        <ele>115.8</ele>
        <time>2021-05-08T14:29:02Z</time>
      </trkpt>
      <trkpt lat="41.4455720" lon="1.8547100">
        <ele>116.2</ele>
        <time>2021-05-08T14:29:07Z</time>
      </trkpt>
      <trkpt lat="41.4454810" lon="1.8547770">
        <ele>115.8</ele>
        <time>2021-05-08T14:29:13Z</time>
      </trkpt>
      <trkpt lat="41.4454660" lon="1.8547860">
        <ele>116.0</ele>
        <time>2021-05-08T14:29:14Z</time>
      </trkpt>
      <trkpt lat="41.4453850" lon="1.8548270">
        <ele>116.6</ele>
        <time>2021-05-08T14:29:19Z</time>
      </trkpt>
      <trkpt lat="41.4453260" lon="1.8548590">
        <ele>117.0</ele>
        <time>2021-05-08T14:29:23Z</time>
      </trkpt>
      <trkpt lat="41.4452850" lon="1.8548840">
        <ele>117.6</ele>
        <time>2021-05-08T14:29:26Z</time>
      </trkpt>
      <trkpt lat="41.4452080" lon="1.8549370">
        <ele>117.8</ele>
        <time>2021-05-08T14:29:32Z</time>
      </trkpt>
      <trkpt lat="41.4451740" lon="1.8549690">
        <ele>119.0</ele>
        <time>2021-05-08T14:29:35Z</time>
      </trkpt>
      <trkpt lat="41.4451200" lon="1.8550190">
        <ele>119.0</ele>
        <time>2021-05-08T14:29:40Z</time>
      </trkpt>
      <trkpt lat="41.4450240" lon="1.8551060">
        <ele>120.0</ele>
        <time>2021-05-08T14:29:47Z</time>
      </trkpt>
      <trkpt lat="41.4449440" lon="1.8551730">
        <ele>120.2</ele>
        <time>2021-05-08T14:29:52Z</time>
      </trkpt>
      <trkpt lat="41.4448980" lon="1.8552310">
        <ele>120.6</ele>
        <time>2021-05-08T14:29:55Z</time>
      </trkpt>
      <trkpt lat="41.4448530" lon="1.8552910">
        <ele>121.2</ele>
        <time>2021-05-08T14:29:58Z</time>
      </trkpt>
      <trkpt lat="41.4447820" lon="1.8553630">
        <ele>121.8</ele>
        <time>2021-05-08T14:30:02Z</time>
      </trkpt>
      <trkpt lat="41.4447180" lon="1.8554390">
        <ele>122.4</ele>
        <time>2021-05-08T14:30:06Z</time>
      </trkpt>
      <trkpt lat="41.4446370" lon="1.8555240">
        <ele>123.0</ele>
        <time>2021-05-08T14:30:11Z</time>
      </trkpt>
      <trkpt lat="41.4446050" lon="1.8555560">
        <ele>123.4</ele>
        <time>2021-05-08T14:30:13Z</time>
      </trkpt>
      <trkpt lat="41.4445280" lon="1.8556410">
        <ele>124.8</ele>
        <time>2021-05-08T14:30:18Z</time>
      </trkpt>
      <trkpt lat="41.4445130" lon="1.8556580">
        <ele>125.0</ele>
        <time>2021-05-08T14:30:19Z</time>
      </trkpt>
      <trkpt lat="41.4443860" lon="1.8558420">
        <ele>125.8</ele>
        <time>2021-05-08T14:30:28Z</time>
      </trkpt>
      <trkpt lat="41.4443750" lon="1.8558660">
        <ele>125.8</ele>
        <time>2021-05-08T14:30:29Z</time>
      </trkpt>
      <trkpt lat="41.4442970" lon="1.8560370">
        <ele>126.8</ele>
        <time>2021-05-08T14:30:36Z</time>
      </trkpt>
      <trkpt lat="41.4442770" lon="1.8560830">
        <ele>127.0</ele>
        <time>2021-05-08T14:30:38Z</time>
      </trkpt>
      <trkpt lat="41.4442200" lon="1.8562410">
        <ele>128.0</ele>
        <time>2021-05-08T14:30:45Z</time>
      </trkpt>
      <trkpt lat="41.4442240" lon="1.8562900">
        <ele>128.2</ele>
        <time>2021-05-08T14:30:47Z</time>
      </trkpt>
      <trkpt lat="41.4442650" lon="1.8564360">
        <ele>129.0</ele>
        <time>2021-05-08T14:30:53Z</time>
      </trkpt>
      <trkpt lat="41.4442770" lon="1.8564890">
        <ele>129.2</ele>
        <time>2021-05-08T14:30:55Z</time>
      </trkpt>
      <trkpt lat="41.4443530" lon="1.8567830">
        <ele>129.8</ele>
        <time>2021-05-08T14:31:05Z</time>
      </trkpt>
      <trkpt lat="41.4444110" lon="1.8569340">
        <ele>130.0</ele>
        <time>2021-05-08T14:31:10Z</time>
      </trkpt>
      <trkpt lat="41.4444240" lon="1.8569690">
        <ele>130.2</ele>
        <time>2021-05-08T14:31:11Z</time>
      </trkpt>
      <trkpt lat="41.4445270" lon="1.8573810">
        <ele>130.6</ele>
        <time>2021-05-08T14:31:21Z</time>
      </trkpt>
      <trkpt lat="41.4446200" lon="1.8577130">
        <ele>130.6</ele>
        <time>2021-05-08T14:31:29Z</time>
      </trkpt>
      <trkpt lat="41.4447100" lon="1.8580110">
        <ele>130.0</ele>
        <time>2021-05-08T14:31:35Z</time>
      </trkpt>
      <trkpt lat="41.4447370" lon="1.8581200">
        <ele>129.4</ele>
        <time>2021-05-08T14:31:37Z</time>
      </trkpt>
      <trkpt lat="41.4448580" lon="1.8585600">
        <ele>129.0</ele>
        <time>2021-05-08T14:31:45Z</time>
      </trkpt>
      <trkpt lat="41.4448730" lon="1.8586150">
        <ele>128.4</ele>
        <time>2021-05-08T14:31:46Z</time>
      </trkpt>
      <trkpt lat="41.4449740" lon="1.8589450">
        <ele>128.0</ele>
        <time>2021-05-08T14:31:53Z</time>
      </trkpt>
      <trkpt lat="41.4449890" lon="1.8589880">
        <ele>127.8</ele>
        <time>2021-05-08T14:31:54Z</time>
      </trkpt>
      <trkpt lat="41.4450850" lon="1.8592820">
        <ele>126.6</ele>
        <time>2021-05-08T14:32:01Z</time>
      </trkpt>
      <trkpt lat="41.4451440" lon="1.8594360">
        <ele>125.6</ele>
        <time>2021-05-08T14:32:05Z</time>
      </trkpt>
      <trkpt lat="41.4451610" lon="1.8594700">
        <ele>125.4</ele>
        <time>2021-05-08T14:32:06Z</time>
      </trkpt>
      <trkpt lat="41.4452200" lon="1.8595740">
        <ele>124.6</ele>
        <time>2021-05-08T14:32:10Z</time>
      </trkpt>
      <trkpt lat="41.4452520" lon="1.8596060">
        <ele>124.2</ele>
        <time>2021-05-08T14:32:12Z</time>
      </trkpt>
      <trkpt lat="41.4452800" lon="1.8596290">
        <ele>123.6</ele>
        <time>2021-05-08T14:32:16Z</time>
      </trkpt>
      <trkpt lat="41.4452890" lon="1.8596390">
        <ele>123.4</ele>
        <time>2021-05-08T14:32:17Z</time>
      </trkpt>
      <trkpt lat="41.4453290" lon="1.8597070">
        <ele>123.6</ele>
        <time>2021-05-08T14:32:20Z</time>
      </trkpt>
      <trkpt lat="41.4454250" lon="1.8599140">
        <ele>123.2</ele>
        <time>2021-05-08T14:32:26Z</time>
      </trkpt>
      <trkpt lat="41.4454750" lon="1.8599930">
        <ele>123.0</ele>
        <time>2021-05-08T14:32:28Z</time>
      </trkpt>
      <trkpt lat="41.4455620" lon="1.8601130">
        <ele>123.0</ele>
        <time>2021-05-08T14:32:31Z</time>
      </trkpt>
      <trkpt lat="41.4458180" lon="1.8603600">
        <ele>123.8</ele>
        <time>2021-05-08T14:32:38Z</time>
      </trkpt>
      <trkpt lat="41.4460760" lon="1.8606440">
        <ele>124.0</ele>
        <time>2021-05-08T14:32:46Z</time>
      </trkpt>
      <trkpt lat="41.4463140" lon="1.8610190">
        <ele>123.6</ele>
        <time>2021-05-08T14:32:54Z</time>
      </trkpt>
      <trkpt lat="41.4465170" lon="1.8615130">
        <ele>123.6</ele>
        <time>2021-05-08T14:33:02Z</time>
      </trkpt>
      <trkpt lat="41.4466290" lon="1.8620750">
        <ele>122.8</ele>
        <time>2021-05-08T14:33:10Z</time>
      </trkpt>
      <trkpt lat="41.4466510" lon="1.8625590">
        <ele>122.6</ele>
        <time>2021-05-08T14:33:17Z</time>
      </trkpt>
      <trkpt lat="41.4466400" lon="1.8629150">
        <ele>122.4</ele>
        <time>2021-05-08T14:33:23Z</time>
      </trkpt>
      <trkpt lat="41.4466370" lon="1.8629730">
        <ele>122.6</ele>
        <time>2021-05-08T14:33:24Z</time>
      </trkpt>
      <trkpt lat="41.4466240" lon="1.8635250">
        <ele>123.6</ele>
        <time>2021-05-08T14:33:34Z</time>
      </trkpt>
      <trkpt lat="41.4466110" lon="1.8638980">
        <ele>124.6</ele>
        <time>2021-05-08T14:33:41Z</time>
      </trkpt>
      <trkpt lat="41.4466090" lon="1.8639930">
        <ele>125.0</ele>
        <time>2021-05-08T14:33:43Z</time>
      </trkpt>
      <trkpt lat="41.4465990" lon="1.8642090">
        <ele>125.8</ele>
        <time>2021-05-08T14:33:48Z</time>
      </trkpt>
      <trkpt lat="41.4465890" lon="1.8643280">
        <ele>126.6</ele>
        <time>2021-05-08T14:33:51Z</time>
      </trkpt>
      <trkpt lat="41.4465850" lon="1.8643670">
        <ele>127.0</ele>
        <time>2021-05-08T14:33:52Z</time>
      </trkpt>
      <trkpt lat="41.4465200" lon="1.8645610">
        <ele>128.0</ele>
        <time>2021-05-08T14:33:58Z</time>
      </trkpt>
      <trkpt lat="41.4464070" lon="1.8646410">
        <ele>128.4</ele>
        <time>2021-05-08T14:34:03Z</time>
      </trkpt>
      <trkpt lat="41.4463060" lon="1.8646710">
        <ele>129.2</ele>
        <time>2021-05-08T14:34:06Z</time>
      </trkpt>
      <trkpt lat="41.4462160" lon="1.8647430">
        <ele>129.6</ele>
        <time>2021-05-08T14:34:09Z</time>
      </trkpt>
      <trkpt lat="41.4461820" lon="1.8649340">
        <ele>129.8</ele>
        <time>2021-05-08T14:34:13Z</time>
      </trkpt>
      <trkpt lat="41.4462810" lon="1.8651070">
        <ele>129.2</ele>
        <time>2021-05-08T14:34:17Z</time>
      </trkpt>
      <trkpt lat="41.4463430" lon="1.8652590">
        <ele>128.8</ele>
        <time>2021-05-08T14:34:21Z</time>
      </trkpt>
      <trkpt lat="41.4463380" lon="1.8652920">
        <ele>128.8</ele>
        <time>2021-05-08T14:34:22Z</time>
      </trkpt>
      <trkpt lat="41.4463340" lon="1.8653540">
        <ele>128.8</ele>
        <time>2021-05-08T14:34:24Z</time>
      </trkpt>
      <trkpt lat="41.4462630" lon="1.8655140">
        <ele>119.6</ele>
        <time>2021-05-09T08:22:22Z</time>
      </trkpt>
      <trkpt lat="41.4462620" lon="1.8655150">
        <ele>119.6</ele>
        <time>2021-05-09T08:22:23Z</time>
      </trkpt>
      <trkpt lat="41.4462670" lon="1.8656050">
        <ele>119.8</ele>
        <time>2021-05-09T08:22:30Z</time>
      </trkpt>
      <trkpt lat="41.4462880" lon="1.8656200">
        <ele>119.8</ele>
        <time>2021-05-09T08:22:32Z</time>
      </trkpt>
      <trkpt lat="41.4463480" lon="1.8656530">
        <ele>119.0</ele>
        <time>2021-05-09T08:22:37Z</time>
      </trkpt>
      <trkpt lat="41.4463600" lon="1.8656660">
        <ele>118.8</ele>
        <time>2021-05-09T08:22:38Z</time>
      </trkpt>
      <trkpt lat="41.4463670" lon="1.8657300">
        <ele>118.6</ele>
        <time>2021-05-09T08:22:41Z</time>
      </trkpt>
      <trkpt lat="41.4463660" lon="1.8657550">
        <ele>118.6</ele>
        <time>2021-05-09T08:22:42Z</time>
      </trkpt>
      <trkpt lat="41.4463600" lon="1.8659080">
        <ele>118.8</ele>
        <time>2021-05-09T08:22:48Z</time>
      </trkpt>
      <trkpt lat="41.4463760" lon="1.8660910">
        <ele>119.4</ele>
        <time>2021-05-09T08:22:56Z</time>
      </trkpt>
      <trkpt lat="41.4464170" lon="1.8663290">
        <ele>119.4</ele>
        <time>2021-05-09T08:23:05Z</time>
      </trkpt>
      <trkpt lat="41.4464360" lon="1.8664630">
        <ele>119.8</ele>
        <time>2021-05-09T08:23:09Z</time>
      </trkpt>
      <trkpt lat="41.4464490" lon="1.8665270">
        <ele>120.2</ele>
        <time>2021-05-09T08:23:11Z</time>
      </trkpt>
      <trkpt lat="41.4464690" lon="1.8666790">
        <ele>120.4</ele>
        <time>2021-05-09T08:23:16Z</time>
      </trkpt>
      <trkpt lat="41.4464520" lon="1.8668180">
        <ele>120.4</ele>
        <time>2021-05-09T08:23:21Z</time>
      </trkpt>
      <trkpt lat="41.4464400" lon="1.8670450">
        <ele>120.8</ele>
        <time>2021-05-09T08:23:29Z</time>
      </trkpt>
      <trkpt lat="41.4464380" lon="1.8672500">
        <ele>121.2</ele>
        <time>2021-05-09T08:23:36Z</time>
      </trkpt>
      <trkpt lat="41.4464370" lon="1.8673340">
        <ele>121.4</ele>
        <time>2021-05-09T08:23:39Z</time>
      </trkpt>
      <trkpt lat="41.4464480" lon="1.8674270">
        <ele>121.6</ele>
        <time>2021-05-09T08:23:42Z</time>
      </trkpt>
      <trkpt lat="41.4464770" lon="1.8676360">
        <ele>122.0</ele>
        <time>2021-05-09T08:23:49Z</time>
      </trkpt>
      <trkpt lat="41.4464980" lon="1.8678150">
        <ele>122.0</ele>
        <time>2021-05-09T08:23:55Z</time>
      </trkpt>
      <trkpt lat="41.4465000" lon="1.8678630">
        <ele>122.0</ele>
        <time>2021-05-09T08:23:57Z</time>
      </trkpt>
      <trkpt lat="41.4464810" lon="1.8679080">
        <ele>122.4</ele>
        <time>2021-05-09T08:23:59Z</time>
      </trkpt>
      <trkpt lat="41.4464640" lon="1.8679610">
        <ele>122.4</ele>
        <time>2021-05-09T08:24:01Z</time>
      </trkpt>
      <trkpt lat="41.4464660" lon="1.8680230">
        <ele>122.6</ele>
        <time>2021-05-09T08:24:03Z</time>
      </trkpt>
      <trkpt lat="41.4464750" lon="1.8682220">
        <ele>123.0</ele>
        <time>2021-05-09T08:24:09Z</time>
      </trkpt>
      <trkpt lat="41.4464940" lon="1.8684940">
        <ele>123.2</ele>
        <time>2021-05-09T08:24:16Z</time>
      </trkpt>
      <trkpt lat="41.4465000" lon="1.8686090">
        <ele>123.8</ele>
        <time>2021-05-09T08:24:21Z</time>
      </trkpt>
      <trkpt lat="41.4464960" lon="1.8687800">
        <ele>124.0</ele>
        <time>2021-05-09T08:24:28Z</time>
      </trkpt>
      <trkpt lat="41.4465190" lon="1.8689260">
        <ele>124.4</ele>
        <time>2021-05-09T08:24:33Z</time>
      </trkpt>
      <trkpt lat="41.4465370" lon="1.8691790">
        <ele>124.6</ele>
        <time>2021-05-09T08:24:41Z</time>
      </trkpt>
      <trkpt lat="41.4465560" lon="1.8693670">
        <ele>123.8</ele>
        <time>2021-05-09T08:24:48Z</time>
      </trkpt>
      <trkpt lat="41.4465450" lon="1.8694960">
        <ele>124.0</ele>
        <time>2021-05-09T08:24:54Z</time>
      </trkpt>
      <trkpt lat="41.4465910" lon="1.8696500">
        <ele>123.8</ele>
        <time>2021-05-09T08:24:59Z</time>
      </trkpt>
      <trkpt lat="41.4466360" lon="1.8697530">
        <ele>123.2</ele>
        <time>2021-05-09T08:25:02Z</time>
      </trkpt>
      <trkpt lat="41.4466370" lon="1.8697920">
        <ele>122.6</ele>
        <time>2021-05-09T08:25:03Z</time>
      </trkpt>
      <trkpt lat="41.4466170" lon="1.8698510">
        <ele>122.0</ele>
        <time>2021-05-09T08:25:05Z</time>
      </trkpt>
      <trkpt lat="41.4465650" lon="1.8698730">
        <ele>121.2</ele>
        <time>2021-05-09T08:25:07Z</time>
      </trkpt>
      <trkpt lat="41.4465140" lon="1.8699030">
        <ele>121.2</ele>
        <time>2021-05-09T08:25:09Z</time>
      </trkpt>
      <trkpt lat="41.4464240" lon="1.8699670">
        <ele>121.0</ele>
        <time>2021-05-09T08:25:13Z</time>
      </trkpt>
      <trkpt lat="41.4463350" lon="1.8701050">
        <ele>121.4</ele>
        <time>2021-05-09T08:25:18Z</time>
      </trkpt>
      <trkpt lat="41.4463130" lon="1.8703310">
        <ele>121.8</ele>
        <time>2021-05-09T08:25:24Z</time>
      </trkpt>
      <trkpt lat="41.4463480" lon="1.8705530">
        <ele>122.2</ele>
        <time>2021-05-09T08:25:30Z</time>
      </trkpt>
      <trkpt lat="41.4463850" lon="1.8707250">
        <ele>122.4</ele>
        <time>2021-05-09T08:25:36Z</time>
      </trkpt>
      <trkpt lat="41.4464200" lon="1.8708320">
        <ele>122.6</ele>
        <time>2021-05-09T08:25:40Z</time>
      </trkpt>
      <trkpt lat="41.4464420" lon="1.8710240">
        <ele>123.0</ele>
        <time>2021-05-09T08:25:47Z</time>
      </trkpt>
      <trkpt lat="41.4464700" lon="1.8711580">
        <ele>123.4</ele>
        <time>2021-05-09T08:25:52Z</time>
      </trkpt>
      <trkpt lat="41.4465050" lon="1.8712770">
        <ele>123.4</ele>
        <time>2021-05-09T08:25:57Z</time>
      </trkpt>
      <trkpt lat="41.4465720" lon="1.8714650">
        <ele>123.6</ele>
        <time>2021-05-09T08:26:04Z</time>
      </trkpt>
      <trkpt lat="41.4466520" lon="1.8716950">
        <ele>123.4</ele>
        <time>2021-05-09T08:26:11Z</time>
      </trkpt>
      <trkpt lat="41.4467520" lon="1.8719920">
        <ele>123.2</ele>
        <time>2021-05-09T08:26:19Z</time>
      </trkpt>
      <trkpt lat="41.4468500" lon="1.8722320">
        <ele>123.2</ele>
        <time>2021-05-09T08:26:25Z</time>
      </trkpt>
      <trkpt lat="41.4469510" lon="1.8724780">
        <ele>122.8</ele>
        <time>2021-05-09T08:26:31Z</time>
      </trkpt>
      <trkpt lat="41.4470390" lon="1.8727000">
        <ele>122.0</ele>
        <time>2021-05-09T08:26:37Z</time>
      </trkpt>
      <trkpt lat="41.4471390" lon="1.8728660">
        <ele>122.0</ele>
        <time>2021-05-09T08:26:42Z</time>
      </trkpt>
      <trkpt lat="41.4472490" lon="1.8730220">
        <ele>122.2</ele>
        <time>2021-05-09T08:26:48Z</time>
      </trkpt>
      <trkpt lat="41.4473080" lon="1.8731490">
        <ele>122.2</ele>
        <time>2021-05-09T08:26:53Z</time>
      </trkpt>
      <trkpt lat="41.4473800" lon="1.8733350">
        <ele>122.4</ele>
        <time>2021-05-09T08:26:59Z</time>
      </trkpt>
      <trkpt lat="41.4474540" lon="1.8735260">
        <ele>122.2</ele>
        <time>2021-05-09T08:27:04Z</time>
      </trkpt>
      <trkpt lat="41.4474900" lon="1.8736460">
        <ele>123.2</ele>
        <time>2021-05-09T08:27:08Z</time>
      </trkpt>
      <trkpt lat="41.4474980" lon="1.8736940">
        <ele>123.4</ele>
        <time>2021-05-09T08:27:10Z</time>
      </trkpt>
      <trkpt lat="41.4474950" lon="1.8737170">
        <ele>123.6</ele>
        <time>2021-05-09T08:27:11Z</time>
      </trkpt>
      <trkpt lat="41.4475030" lon="1.8737900">
        <ele>124.4</ele>
        <time>2021-05-09T08:27:15Z</time>
      </trkpt>
      <trkpt lat="41.4475100" lon="1.8738010">
        <ele>124.4</ele>
        <time>2021-05-09T08:27:16Z</time>
      </trkpt>
      <trkpt lat="41.4475230" lon="1.8738430">
        <ele>124.8</ele>
        <time>2021-05-09T08:27:20Z</time>
      </trkpt>
      <trkpt lat="41.4475630" lon="1.8739210">
        <ele>125.6</ele>
        <time>2021-05-09T08:27:27Z</time>
      </trkpt>
      <trkpt lat="41.4476010" lon="1.8739870">
        <ele>125.8</ele>
        <time>2021-05-09T08:27:31Z</time>
      </trkpt>
      <trkpt lat="41.4476080" lon="1.8740260">
        <ele>126.2</ele>
        <time>2021-05-09T08:27:33Z</time>
      </trkpt>
      <trkpt lat="41.4476570" lon="1.8741520">
        <ele>127.6</ele>
        <time>2021-05-09T08:27:40Z</time>
      </trkpt>
      <trkpt lat="41.4476670" lon="1.8741670">
        <ele>127.8</ele>
        <time>2021-05-09T08:27:41Z</time>
      </trkpt>
      <trkpt lat="41.4477000" lon="1.8742070">
        <ele>128.8</ele>
        <time>2021-05-09T08:27:44Z</time>
      </trkpt>
      <trkpt lat="41.4477360" lon="1.8742500">
        <ele>130.0</ele>
        <time>2021-05-09T08:27:47Z</time>
      </trkpt>
      <trkpt lat="41.4477460" lon="1.8742660">
        <ele>130.4</ele>
        <time>2021-05-09T08:27:48Z</time>
      </trkpt>
      <trkpt lat="41.4477810" lon="1.8743010">
        <ele>131.4</ele>
        <time>2021-05-09T08:27:51Z</time>
      </trkpt>
      <trkpt lat="41.4478100" lon="1.8743450">
        <ele>132.0</ele>
        <time>2021-05-09T08:27:54Z</time>
      </trkpt>
      <trkpt lat="41.4478280" lon="1.8743750">
        <ele>132.6</ele>
        <time>2021-05-09T08:27:56Z</time>
      </trkpt>
      <trkpt lat="41.4478710" lon="1.8744520">
        <ele>133.2</ele>
        <time>2021-05-09T08:28:01Z</time>
      </trkpt>
      <trkpt lat="41.4478960" lon="1.8745050">
        <ele>133.8</ele>
        <time>2021-05-09T08:28:05Z</time>
      </trkpt>
      <trkpt lat="41.4479160" lon="1.8745610">
        <ele>134.4</ele>
        <time>2021-05-09T08:28:09Z</time>
      </trkpt>
      <trkpt lat="41.4479590" lon="1.8746350">
        <ele>134.8</ele>
        <time>2021-05-09T08:28:15Z</time>
      </trkpt>
      <trkpt lat="41.4479650" lon="1.8746480">
        <ele>135.0</ele>
        <time>2021-05-09T08:28:16Z</time>
      </trkpt>
      <trkpt lat="41.4480070" lon="1.8746920">
        <ele>135.2</ele>
        <time>2021-05-09T08:28:22Z</time>
      </trkpt>
      <trkpt lat="41.4480140" lon="1.8747020">
        <ele>135.4</ele>
        <time>2021-05-09T08:28:23Z</time>
      </trkpt>
      <trkpt lat="41.4480560" lon="1.8747670">
        <ele>135.6</ele>
        <time>2021-05-09T08:28:28Z</time>
      </trkpt>
      <trkpt lat="41.4480910" lon="1.8748170">
        <ele>135.6</ele>
        <time>2021-05-09T08:28:31Z</time>
      </trkpt>
      <trkpt lat="41.4481590" lon="1.8748700">
        <ele>135.6</ele>
        <time>2021-05-09T08:28:36Z</time>
      </trkpt>
      <trkpt lat="41.4482120" lon="1.8749240">
        <ele>135.6</ele>
        <time>2021-05-09T08:28:41Z</time>
      </trkpt>
      <trkpt lat="41.4483070" lon="1.8750780">
        <ele>134.6</ele>
        <time>2021-05-09T08:28:47Z</time>
      </trkpt>
      <trkpt lat="41.4483300" lon="1.8751160">
        <ele>134.2</ele>
        <time>2021-05-09T08:28:48Z</time>
      </trkpt>
      <trkpt lat="41.4484530" lon="1.8753320">
        <ele>133.2</ele>
        <time>2021-05-09T08:28:53Z</time>
      </trkpt>
      <trkpt lat="41.4486500" lon="1.8756610">
        <ele>132.4</ele>
        <time>2021-05-09T08:28:59Z</time>
      </trkpt>
      <trkpt lat="41.4487230" lon="1.8757700">
        <ele>131.8</ele>
        <time>2021-05-09T08:29:01Z</time>
      </trkpt>
      <trkpt lat="41.4487900" lon="1.8758750">
        <ele>130.6</ele>
        <time>2021-05-09T08:29:03Z</time>
      </trkpt>
      <trkpt lat="41.4488820" lon="1.8760350">
        <ele>130.2</ele>
        <time>2021-05-09T08:29:06Z</time>
      </trkpt>
      <trkpt lat="41.4489940" lon="1.8761620">
        <ele>130.0</ele>
        <time>2021-05-09T08:29:09Z</time>
      </trkpt>
      <trkpt lat="41.4490610" lon="1.8762210">
        <ele>129.4</ele>
        <time>2021-05-09T08:29:11Z</time>
      </trkpt>
      <trkpt lat="41.4492270" lon="1.8763450">
        <ele>129.2</ele>
        <time>2021-05-09T08:29:17Z</time>
      </trkpt>
      <trkpt lat="41.4493770" lon="1.8764690">
        <ele>130.6</ele>
        <time>2021-05-09T08:29:23Z</time>
      </trkpt>
      <trkpt lat="41.4493970" lon="1.8764950">
        <ele>131.0</ele>
        <time>2021-05-09T08:29:24Z</time>
      </trkpt>
      <trkpt lat="41.4494510" lon="1.8765640">
        <ele>131.8</ele>
        <time>2021-05-09T08:29:27Z</time>
      </trkpt>
      <trkpt lat="41.4494830" lon="1.8766080">
        <ele>132.8</ele>
        <time>2021-05-09T08:29:29Z</time>
      </trkpt>
      <trkpt lat="41.4495220" lon="1.8766540">
        <ele>133.6</ele>
        <time>2021-05-09T08:29:31Z</time>
      </trkpt>
      <trkpt lat="41.4495660" lon="1.8767030">
        <ele>133.8</ele>
        <time>2021-05-09T08:29:33Z</time>
      </trkpt>
      <trkpt lat="41.4496500" lon="1.8767930">
        <ele>133.0</ele>
        <time>2021-05-09T08:29:37Z</time>
      </trkpt>
      <trkpt lat="41.4496670" lon="1.8768170">
        <ele>132.4</ele>
        <time>2021-05-09T08:29:38Z</time>
      </trkpt>
      <trkpt lat="41.4497580" lon="1.8769440">
        <ele>131.8</ele>
        <time>2021-05-09T08:29:42Z</time>
      </trkpt>
      <trkpt lat="41.4497940" lon="1.8770070">
        <ele>131.4</ele>
        <time>2021-05-09T08:29:44Z</time>
      </trkpt>
      <trkpt lat="41.4498300" lon="1.8770650">
        <ele>130.8</ele>
        <time>2021-05-09T08:29:46Z</time>
      </trkpt>
      <trkpt lat="41.4499070" lon="1.8771660">
        <ele>130.4</ele>
        <time>2021-05-09T08:29:49Z</time>
      </trkpt>
      <trkpt lat="41.4500250" lon="1.8772960">
        <ele>131.2</ele>
        <time>2021-05-09T08:29:54Z</time>
      </trkpt>
      <trkpt lat="41.4501560" lon="1.8774620">
        <ele>130.6</ele>
        <time>2021-05-09T08:30:00Z</time>
      </trkpt>
      <trkpt lat="41.4502700" lon="1.8775440">
        <ele>130.6</ele>
        <time>2021-05-09T08:30:04Z</time>
      </trkpt>
      <trkpt lat="41.4503540" lon="1.8776290">
        <ele>131.6</ele>
        <time>2021-05-09T08:30:10Z</time>
      </trkpt>
      <trkpt lat="41.4504170" lon="1.8776780">
        <ele>132.2</ele>
        <time>2021-05-09T08:30:13Z</time>
      </trkpt>
      <trkpt lat="41.4504960" lon="1.8777350">
        <ele>133.0</ele>
        <time>2021-05-09T08:30:17Z</time>
      </trkpt>
      <trkpt lat="41.4505960" lon="1.8778460">
        <ele>133.4</ele>
        <time>2021-05-09T08:30:23Z</time>
      </trkpt>
      <trkpt lat="41.4506350" lon="1.8778880">
        <ele>133.4</ele>
        <time>2021-05-09T08:30:25Z</time>
      </trkpt>
      <trkpt lat="41.4507410" lon="1.8780220">
        <ele>133.8</ele>
        <time>2021-05-09T08:30:31Z</time>
      </trkpt>
      <trkpt lat="41.4508620" lon="1.8782310">
        <ele>132.2</ele>
        <time>2021-05-09T08:30:38Z</time>
      </trkpt>
      <trkpt lat="41.4509000" lon="1.8783130">
        <ele>131.2</ele>
        <time>2021-05-09T08:30:40Z</time>
      </trkpt>
      <trkpt lat="41.4509510" lon="1.8783980">
        <ele>130.0</ele>
        <time>2021-05-09T08:30:42Z</time>
      </trkpt>
      <trkpt lat="41.4509740" lon="1.8784360">
        <ele>129.4</ele>
        <time>2021-05-09T08:30:43Z</time>
      </trkpt>
      <trkpt lat="41.4509990" lon="1.8784750">
        <ele>128.8</ele>
        <time>2021-05-09T08:30:44Z</time>
      </trkpt>
      <trkpt lat="41.4510670" lon="1.8785970">
        <ele>127.6</ele>
        <time>2021-05-09T08:30:47Z</time>
      </trkpt>
      <trkpt lat="41.4511330" lon="1.8787260">
        <ele>126.6</ele>
        <time>2021-05-09T08:30:50Z</time>
      </trkpt>
      <trkpt lat="41.4512080" lon="1.8788170">
        <ele>125.0</ele>
        <time>2021-05-09T08:30:54Z</time>
      </trkpt>
      <trkpt lat="41.4512350" lon="1.8788330">
        <ele>124.4</ele>
        <time>2021-05-09T08:30:55Z</time>
      </trkpt>
      <trkpt lat="41.4512930" lon="1.8788740">
        <ele>123.6</ele>
        <time>2021-05-09T08:30:57Z</time>
      </trkpt>
      <trkpt lat="41.4513910" lon="1.8789460">
        <ele>121.8</ele>
        <time>2021-05-09T08:31:00Z</time>
      </trkpt>
      <trkpt lat="41.4514530" lon="1.8789950">
        <ele>120.2</ele>
        <time>2021-05-09T08:31:02Z</time>
      </trkpt>
      <trkpt lat="41.4515040" lon="1.8790300">
        <ele>118.6</ele>
        <time>2021-05-09T08:31:04Z</time>
      </trkpt>
      <trkpt lat="41.4515610" lon="1.8790790">
        <ele>117.2</ele>
        <time>2021-05-09T08:31:06Z</time>
      </trkpt>
      <trkpt lat="41.4516150" lon="1.8791400">
        <ele>116.0</ele>
        <time>2021-05-09T08:31:08Z</time>
      </trkpt>
      <trkpt lat="41.4517100" lon="1.8792400">
        <ele>115.0</ele>
        <time>2021-05-09T08:31:11Z</time>
      </trkpt>
      <trkpt lat="41.4517520" lon="1.8792800">
        <ele>114.8</ele>
        <time>2021-05-09T08:31:12Z</time>
      </trkpt>
      <trkpt lat="41.4518500" lon="1.8793810">
        <ele>114.0</ele>
        <time>2021-05-09T08:31:14Z</time>
      </trkpt>
      <trkpt lat="41.4518950" lon="1.8794360">
        <ele>113.6</ele>
        <time>2021-05-09T08:31:15Z</time>
      </trkpt>
      <trkpt lat="41.4519360" lon="1.8794960">
        <ele>112.8</ele>
        <time>2021-05-09T08:31:16Z</time>
      </trkpt>
      <trkpt lat="41.4519780" lon="1.8795470">
        <ele>112.4</ele>
        <time>2021-05-09T08:31:17Z</time>
      </trkpt>
      <trkpt lat="41.4520800" lon="1.8796280">
        <ele>112.6</ele>
        <time>2021-05-09T08:31:20Z</time>
      </trkpt>
      <trkpt lat="41.4521570" lon="1.8796650">
        <ele>114.2</ele>
        <time>2021-05-09T08:31:23Z</time>
      </trkpt>
      <trkpt lat="41.4522000" lon="1.8796880">
        <ele>115.2</ele>
        <time>2021-05-09T08:31:25Z</time>
      </trkpt>
      <trkpt lat="41.4522740" lon="1.8797260">
        <ele>116.4</ele>
        <time>2021-05-09T08:31:29Z</time>
      </trkpt>
      <trkpt lat="41.4523180" lon="1.8797360">
        <ele>116.8</ele>
        <time>2021-05-09T08:31:31Z</time>
      </trkpt>
      <trkpt lat="41.4523380" lon="1.8797360">
        <ele>117.4</ele>
        <time>2021-05-09T08:31:32Z</time>
      </trkpt>
      <trkpt lat="41.4523790" lon="1.8797350">
        <ele>118.4</ele>
        <time>2021-05-09T08:31:34Z</time>
      </trkpt>
      <trkpt lat="41.4524190" lon="1.8797300">
        <ele>119.8</ele>
        <time>2021-05-09T08:31:37Z</time>
      </trkpt>
      <trkpt lat="41.4524260" lon="1.8797290">
        <ele>120.0</ele>
        <time>2021-05-09T08:31:38Z</time>
      </trkpt>
      <trkpt lat="41.4524380" lon="1.8797290">
        <ele>120.0</ele>
        <time>2021-05-09T08:31:39Z</time>
      </trkpt>
      <trkpt lat="41.4524660" lon="1.8797500">
        <ele>121.0</ele>
        <time>2021-05-09T08:31:42Z</time>
      </trkpt>
      <trkpt lat="41.4524660" lon="1.8797490">
        <ele>121.2</ele>
        <time>2021-05-09T08:31:44Z</time>
      </trkpt>
      <trkpt lat="41.4524110" lon="1.8798060">
        <ele>120.8</ele>
        <time>2021-05-09T08:32:00Z</time>
      </trkpt>
      <trkpt lat="41.4524000" lon="1.8798150">
        <ele>121.0</ele>
        <time>2021-05-09T08:32:01Z</time>
      </trkpt>
      <trkpt lat="41.4523630" lon="1.8798380">
        <ele>121.4</ele>
        <time>2021-05-09T08:32:04Z</time>
      </trkpt>
      <trkpt lat="41.4522850" lon="1.8798880">
        <ele>121.6</ele>
        <time>2021-05-09T08:32:09Z</time>
      </trkpt>
      <trkpt lat="41.4521970" lon="1.8799850">
        <ele>121.6</ele>
        <time>2021-05-09T08:32:15Z</time>
      </trkpt>
      <trkpt lat="41.4521930" lon="1.8800630">
        <ele>121.4</ele>
        <time>2021-05-09T08:32:20Z</time>
      </trkpt>
      <trkpt lat="41.4522550" lon="1.8802730">
        <ele>121.8</ele>
        <time>2021-05-09T08:32:28Z</time>
      </trkpt>
      <trkpt lat="41.4523580" lon="1.8804620">
        <ele>122.4</ele>
        <time>2021-05-09T08:32:36Z</time>
      </trkpt>
      <trkpt lat="41.4524520" lon="1.8806170">
        <ele>122.6</ele>
        <time>2021-05-09T08:32:43Z</time>
      </trkpt>
      <trkpt lat="41.4525430" lon="1.8807560">
        <ele>122.8</ele>
        <time>2021-05-09T08:32:50Z</time>
      </trkpt>
      <trkpt lat="41.4526210" lon="1.8808700">
        <ele>123.2</ele>
        <time>2021-05-09T08:32:58Z</time>
      </trkpt>
      <trkpt lat="41.4526540" lon="1.8809110">
        <ele>123.6</ele>
        <time>2021-05-09T08:33:02Z</time>
      </trkpt>
      <trkpt lat="41.4526810" lon="1.8809350">
        <ele>123.8</ele>
        <time>2021-05-09T08:33:04Z</time>
      </trkpt>
      <trkpt lat="41.4526930" lon="1.8809510">
        <ele>124.0</ele>
        <time>2021-05-09T08:33:05Z</time>
      </trkpt>
      <trkpt lat="41.4527240" lon="1.8809980">
        <ele>124.8</ele>
        <time>2021-05-09T08:33:08Z</time>
      </trkpt>
      <trkpt lat="41.4527330" lon="1.8810160">
        <ele>125.4</ele>
        <time>2021-05-09T08:33:09Z</time>
      </trkpt>
      <trkpt lat="41.4527430" lon="1.8810320">
        <ele>125.6</ele>
        <time>2021-05-09T08:33:10Z</time>
      </trkpt>
      <trkpt lat="41.4527600" lon="1.8810610">
        <ele>126.4</ele>
        <time>2021-05-09T08:33:12Z</time>
      </trkpt>
      <trkpt lat="41.4527790" lon="1.8810940">
        <ele>127.0</ele>
        <time>2021-05-09T08:33:14Z</time>
      </trkpt>
      <trkpt lat="41.4527990" lon="1.8811250">
        <ele>127.8</ele>
        <time>2021-05-09T08:33:16Z</time>
      </trkpt>
      <trkpt lat="41.4528310" lon="1.8811950">
        <ele>128.8</ele>
        <time>2021-05-09T08:33:21Z</time>
      </trkpt>
      <trkpt lat="41.4528380" lon="1.8812100">
        <ele>128.8</ele>
        <time>2021-05-09T08:33:22Z</time>
      </trkpt>
      <trkpt lat="41.4529060" lon="1.8812950">
        <ele>129.6</ele>
        <time>2021-05-09T08:33:28Z</time>
      </trkpt>
      <trkpt lat="41.4529160" lon="1.8813100">
        <ele>129.6</ele>
        <time>2021-05-09T08:33:29Z</time>
      </trkpt>
      <trkpt lat="41.4529730" lon="1.8813980">
        <ele>129.8</ele>
        <time>2021-05-09T08:33:34Z</time>
      </trkpt>
      <trkpt lat="41.4529950" lon="1.8814370">
        <ele>130.2</ele>
        <time>2021-05-09T08:33:36Z</time>
      </trkpt>
      <trkpt lat="41.4530570" lon="1.8815310">
        <ele>130.4</ele>
        <time>2021-05-09T08:33:41Z</time>
      </trkpt>
      <trkpt lat="41.4531420" lon="1.8816330">
        <ele>131.0</ele>
        <time>2021-05-09T08:33:47Z</time>
      </trkpt>
      <trkpt lat="41.4531650" lon="1.8816630">
        <ele>131.4</ele>
        <time>2021-05-09T08:33:49Z</time>
      </trkpt>
      <trkpt lat="41.4532320" lon="1.8817550">
        <ele>132.0</ele>
        <time>2021-05-09T08:33:54Z</time>
      </trkpt>
      <trkpt lat="41.4533030" lon="1.8819720">
        <ele>131.6</ele>
        <time>2021-05-09T08:34:00Z</time>
      </trkpt>
      <trkpt lat="41.4533640" lon="1.8821840">
        <ele>130.4</ele>
        <time>2021-05-09T08:34:04Z</time>
      </trkpt>
      <trkpt lat="41.4534090" lon="1.8823110">
        <ele>129.6</ele>
        <time>2021-05-09T08:34:06Z</time>
      </trkpt>
      <trkpt lat="41.4534520" lon="1.8824350">
        <ele>129.4</ele>
        <time>2021-05-09T08:34:08Z</time>
      </trkpt>
      <trkpt lat="41.4535000" lon="1.8825480">
        <ele>128.2</ele>
        <time>2021-05-09T08:34:10Z</time>
      </trkpt>
      <trkpt lat="41.4535500" lon="1.8826550">
        <ele>127.8</ele>
        <time>2021-05-09T08:34:12Z</time>
      </trkpt>
      <trkpt lat="41.4537270" lon="1.8830110">
        <ele>127.8</ele>
        <time>2021-05-09T08:34:19Z</time>
      </trkpt>
      <trkpt lat="41.4538370" lon="1.8832290">
        <ele>128.4</ele>
        <time>2021-05-09T08:34:25Z</time>
      </trkpt>
      <trkpt lat="41.4539150" lon="1.8834290">
        <ele>128.6</ele>
        <time>2021-05-09T08:34:30Z</time>
      </trkpt>
      <trkpt lat="41.4539570" lon="1.8835820">
        <ele>127.0</ele>
        <time>2021-05-09T08:34:33Z</time>
      </trkpt>
      <trkpt lat="41.4539940" lon="1.8836780">
        <ele>125.6</ele>
        <time>2021-05-09T08:34:35Z</time>
      </trkpt>
      <trkpt lat="41.4540200" lon="1.8837260">
        <ele>125.0</ele>
        <time>2021-05-09T08:34:36Z</time>
      </trkpt>
      <trkpt lat="41.4540480" lon="1.8837670">
        <ele>124.4</ele>
        <time>2021-05-09T08:34:37Z</time>
      </trkpt>
      <trkpt lat="41.4541240" lon="1.8838190">
        <ele>123.4</ele>
        <time>2021-05-09T08:34:39Z</time>
      </trkpt>
      <trkpt lat="41.4541690" lon="1.8838240">
        <ele>123.0</ele>
        <time>2021-05-09T08:34:40Z</time>
      </trkpt>
      <trkpt lat="41.4542650" lon="1.8838060">
        <ele>122.2</ele>
        <time>2021-05-09T08:34:42Z</time>
      </trkpt>
      <trkpt lat="41.4543590" lon="1.8837630">
        <ele>120.4</ele>
        <time>2021-05-09T08:34:44Z</time>
      </trkpt>
      <trkpt lat="41.4544060" lon="1.8837340">
        <ele>119.8</ele>
        <time>2021-05-09T08:34:45Z</time>
      </trkpt>
      <trkpt lat="41.4544500" lon="1.8836970">
        <ele>119.0</ele>
        <time>2021-05-09T08:34:46Z</time>
      </trkpt>
      <trkpt lat="41.4545660" lon="1.8835630">
        <ele>118.2</ele>
        <time>2021-05-09T08:34:49Z</time>
      </trkpt>
      <trkpt lat="41.4545940" lon="1.8835040">
        <ele>118.0</ele>
        <time>2021-05-09T08:34:50Z</time>
      </trkpt>
      <trkpt lat="41.4546150" lon="1.8834430">
        <ele>117.6</ele>
        <time>2021-05-09T08:34:51Z</time>
      </trkpt>
      <trkpt lat="41.4546540" lon="1.8832780">
        <ele>116.6</ele>
        <time>2021-05-09T08:34:54Z</time>
      </trkpt>
      <trkpt lat="41.4546880" lon="1.8831580">
        <ele>116.2</ele>
        <time>2021-05-09T08:34:56Z</time>
      </trkpt>
      <trkpt lat="41.4547410" lon="1.8830380">
        <ele>114.6</ele>
        <time>2021-05-09T08:34:58Z</time>
      </trkpt>
      <trkpt lat="41.4547630" lon="1.8829740">
        <ele>113.8</ele>
        <time>2021-05-09T08:34:59Z</time>
      </trkpt>
      <trkpt lat="41.4547820" lon="1.8829070">
        <ele>113.6</ele>
        <time>2021-05-09T08:35:00Z</time>
      </trkpt>
      <trkpt lat="41.4548170" lon="1.8827740">
        <ele>112.0</ele>
        <time>2021-05-09T08:35:02Z</time>
      </trkpt>
      <trkpt lat="41.4548560" lon="1.8826540">
        <ele>111.0</ele>
        <time>2021-05-09T08:35:04Z</time>
      </trkpt>
      <trkpt lat="41.4548850" lon="1.8826150">
        <ele>110.6</ele>
        <time>2021-05-09T08:35:05Z</time>
      </trkpt>
      <trkpt lat="41.4549550" lon="1.8825760">
        <ele>109.6</ele>
        <time>2021-05-09T08:35:07Z</time>
      </trkpt>
      <trkpt lat="41.4549920" lon="1.8825840">
        <ele>109.4</ele>
        <time>2021-05-09T08:35:08Z</time>
      </trkpt>
      <trkpt lat="41.4550280" lon="1.8825950">
        <ele>109.0</ele>
        <time>2021-05-09T08:35:09Z</time>
      </trkpt>
      <trkpt lat="41.4551230" lon="1.8826230">
        <ele>108.8</ele>
        <time>2021-05-09T08:35:12Z</time>
      </trkpt>
      <trkpt lat="41.4551810" lon="1.8826390">
        <ele>108.6</ele>
        <time>2021-05-09T08:35:14Z</time>
      </trkpt>
      <trkpt lat="41.4553730" lon="1.8826900">
        <ele>108.2</ele>
        <time>2021-05-09T08:35:21Z</time>
      </trkpt>
      <trkpt lat="41.4555070" lon="1.8828280">
        <ele>108.0</ele>
        <time>2021-05-09T08:35:26Z</time>
      </trkpt>
      <trkpt lat="41.4555400" lon="1.8829130">
        <ele>107.6</ele>
        <time>2021-05-09T08:35:28Z</time>
      </trkpt>
      <trkpt lat="41.4555460" lon="1.8830210">
        <ele>107.6</ele>
        <time>2021-05-09T08:35:30Z</time>
      </trkpt>
      <trkpt lat="41.4555150" lon="1.8832280">
        <ele>106.6</ele>
        <time>2021-05-09T08:35:34Z</time>
      </trkpt>
      <trkpt lat="41.4554900" lon="1.8833130">
        <ele>106.4</ele>
        <time>2021-05-09T08:35:36Z</time>
      </trkpt>
      <trkpt lat="41.4554460" lon="1.8834220">
        <ele>106.6</ele>
        <time>2021-05-09T08:35:39Z</time>
      </trkpt>
      <trkpt lat="41.4553670" lon="1.8836450">
        <ele>107.8</ele>
        <time>2021-05-09T08:35:45Z</time>
      </trkpt>
      <trkpt lat="41.4553530" lon="1.8836790">
        <ele>108.0</ele>
        <time>2021-05-09T08:35:46Z</time>
      </trkpt>
      <trkpt lat="41.4552620" lon="1.8838710">
        <ele>108.6</ele>
        <time>2021-05-09T08:35:52Z</time>
      </trkpt>
      <trkpt lat="41.4552020" lon="1.8841100">
        <ele>108.4</ele>
        <time>2021-05-09T08:35:59Z</time>
      </trkpt>
      <trkpt lat="41.4551290" lon="1.8843550">
        <ele>109.0</ele>
        <time>2021-05-09T08:36:07Z</time>
      </trkpt>
      <trkpt lat="41.4551200" lon="1.8843830">
        <ele>109.2</ele>
        <time>2021-05-09T08:36:08Z</time>
      </trkpt>
      <trkpt lat="41.4550480" lon="1.8846360">
        <ele>110.0</ele>
        <time>2021-05-09T08:36:16Z</time>
      </trkpt>
      <trkpt lat="41.4550170" lon="1.8847200">
        <ele>110.2</ele>
        <time>2021-05-09T08:36:19Z</time>
      </trkpt>
      <trkpt lat="41.4549690" lon="1.8848460">
        <ele>110.6</ele>
        <time>2021-05-09T08:36:24Z</time>
      </trkpt>
      <trkpt lat="41.4549390" lon="1.8849970">
        <ele>111.2</ele>
        <time>2021-05-09T08:36:30Z</time>
      </trkpt>
      <trkpt lat="41.4549360" lon="1.8850220">
        <ele>111.6</ele>
        <time>2021-05-09T08:36:31Z</time>
      </trkpt>
      <trkpt lat="41.4549330" lon="1.8852050">
        <ele>112.6</ele>
        <time>2021-05-09T08:36:38Z</time>
      </trkpt>
      <trkpt lat="41.4549360" lon="1.8852320">
        <ele>112.8</ele>
        <time>2021-05-09T08:36:39Z</time>
      </trkpt>
      <trkpt lat="41.4549720" lon="1.8854110">
        <ele>112.6</ele>
        <time>2021-05-09T08:36:45Z</time>
      </trkpt>
      <trkpt lat="41.4550630" lon="1.8856210">
        <ele>112.4</ele>
        <time>2021-05-09T08:36:53Z</time>
      </trkpt>
      <trkpt lat="41.4552140" lon="1.8857890">
        <ele>112.0</ele>
        <time>2021-05-09T08:37:00Z</time>
      </trkpt>
      <trkpt lat="41.4552370" lon="1.8858170">
        <ele>111.8</ele>
        <time>2021-05-09T08:37:01Z</time>
      </trkpt>
      <trkpt lat="41.4553800" lon="1.8859930">
        <ele>110.8</ele>
        <time>2021-05-09T08:37:07Z</time>
      </trkpt>
      <trkpt lat="41.4555330" lon="1.8861880">
        <ele>110.0</ele>
        <time>2021-05-09T08:37:13Z</time>
      </trkpt>
      <trkpt lat="41.4556950" lon="1.8863720">
        <ele>109.0</ele>
        <time>2021-05-09T08:37:19Z</time>
      </trkpt>
      <trkpt lat="41.4557610" lon="1.8864360">
        <ele>108.6</ele>
        <time>2021-05-09T08:37:21Z</time>
      </trkpt>
      <trkpt lat="41.4558650" lon="1.8865480">
        <ele>107.4</ele>
        <time>2021-05-09T08:37:24Z</time>
      </trkpt>
      <trkpt lat="41.4559390" lon="1.8866280">
        <ele>107.2</ele>
        <time>2021-05-09T08:37:26Z</time>
      </trkpt>
      <trkpt lat="41.4560860" lon="1.8867790">
        <ele>106.4</ele>
        <time>2021-05-09T08:37:30Z</time>
      </trkpt>
      <trkpt lat="41.4561620" lon="1.8868520">
        <ele>106.2</ele>
        <time>2021-05-09T08:37:32Z</time>
      </trkpt>
      <trkpt lat="41.4562030" lon="1.8868800">
        <ele>106.0</ele>
        <time>2021-05-09T08:37:33Z</time>
      </trkpt>
      <trkpt lat="41.4562410" lon="1.8869110">
        <ele>105.8</ele>
        <time>2021-05-09T08:37:34Z</time>
      </trkpt>
      <trkpt lat="41.4562770" lon="1.8869450">
        <ele>105.0</ele>
        <time>2021-05-09T08:37:35Z</time>
      </trkpt>
      <trkpt lat="41.4563630" lon="1.8870400">
        <ele>104.0</ele>
        <time>2021-05-09T08:37:38Z</time>
      </trkpt>
      <trkpt lat="41.4563860" lon="1.8870700">
        <ele>104.0</ele>
        <time>2021-05-09T08:37:39Z</time>
      </trkpt>
      <trkpt lat="41.4565080" lon="1.8871830">
        <ele>103.0</ele>
        <time>2021-05-09T08:37:43Z</time>
      </trkpt>
      <trkpt lat="41.4565370" lon="1.8872180">
        <ele>103.0</ele>
        <time>2021-05-09T08:37:44Z</time>
      </trkpt>
      <trkpt lat="41.4566450" lon="1.8873650">
        <ele>102.0</ele>
        <time>2021-05-09T08:37:48Z</time>
      </trkpt>
      <trkpt lat="41.4566820" lon="1.8874040">
        <ele>102.0</ele>
        <time>2021-05-09T08:37:49Z</time>
      </trkpt>
      <trkpt lat="41.4567950" lon="1.8875210">
        <ele>101.4</ele>
        <time>2021-05-09T08:37:52Z</time>
      </trkpt>
      <trkpt lat="41.4568360" lon="1.8875660">
        <ele>100.8</ele>
        <time>2021-05-09T08:37:53Z</time>
      </trkpt>
      <trkpt lat="41.4569480" lon="1.8876990">
        <ele>99.8</ele>
        <time>2021-05-09T08:37:56Z</time>
      </trkpt>
      <trkpt lat="41.4569860" lon="1.8877440">
        <ele>99.8</ele>
        <time>2021-05-09T08:37:57Z</time>
      </trkpt>
      <trkpt lat="41.4571320" lon="1.8879330">
        <ele>98.8</ele>
        <time>2021-05-09T08:38:01Z</time>
      </trkpt>
      <trkpt lat="41.4571680" lon="1.8879810">
        <ele>98.4</ele>
        <time>2021-05-09T08:38:02Z</time>
      </trkpt>
      <trkpt lat="41.4572290" lon="1.8880750">
        <ele>97.2</ele>
        <time>2021-05-09T08:38:04Z</time>
      </trkpt>
      <trkpt lat="41.4573080" lon="1.8881710">
        <ele>96.8</ele>
        <time>2021-05-09T08:38:06Z</time>
      </trkpt>
      <trkpt lat="41.4573470" lon="1.8882150">
        <ele>96.6</ele>
        <time>2021-05-09T08:38:07Z</time>
      </trkpt>
      <trkpt lat="41.4574230" lon="1.8883090">
        <ele>96.0</ele>
        <time>2021-05-09T08:38:09Z</time>
      </trkpt>
      <trkpt lat="41.4575080" lon="1.8884080">
        <ele>94.6</ele>
        <time>2021-05-09T08:38:11Z</time>
      </trkpt>
      <trkpt lat="41.4575970" lon="1.8885060">
        <ele>93.6</ele>
        <time>2021-05-09T08:38:13Z</time>
      </trkpt>
      <trkpt lat="41.4576420" lon="1.8885530">
        <ele>93.2</ele>
        <time>2021-05-09T08:38:14Z</time>
      </trkpt>
      <trkpt lat="41.4577740" lon="1.8887050">
        <ele>92.6</ele>
        <time>2021-05-09T08:38:17Z</time>
      </trkpt>
      <trkpt lat="41.4578190" lon="1.8887550">
        <ele>92.0</ele>
        <time>2021-05-09T08:38:18Z</time>
      </trkpt>
      <trkpt lat="41.4579450" lon="1.8889050">
        <ele>90.8</ele>
        <time>2021-05-09T08:38:21Z</time>
      </trkpt>
      <trkpt lat="41.4580410" lon="1.8889980">
        <ele>89.4</ele>
        <time>2021-05-09T08:38:23Z</time>
      </trkpt>
      <trkpt lat="41.4581460" lon="1.8890640">
        <ele>87.4</ele>
        <time>2021-05-09T08:38:25Z</time>
      </trkpt>
      <trkpt lat="41.4582460" lon="1.8891420">
        <ele>85.6</ele>
        <time>2021-05-09T08:38:27Z</time>
      </trkpt>
      <trkpt lat="41.4582980" lon="1.8891850">
        <ele>84.6</ele>
        <time>2021-05-09T08:38:28Z</time>
      </trkpt>
      <trkpt lat="41.4583440" lon="1.8892290">
        <ele>83.6</ele>
        <time>2021-05-09T08:38:29Z</time>
      </trkpt>
      <trkpt lat="41.4583810" lon="1.8892800">
        <ele>82.6</ele>
        <time>2021-05-09T08:38:30Z</time>
      </trkpt>
      <trkpt lat="41.4584080" lon="1.8893370">
        <ele>81.6</ele>
        <time>2021-05-09T08:38:31Z</time>
      </trkpt>
      <trkpt lat="41.4584450" lon="1.8894460">
        <ele>80.2</ele>
        <time>2021-05-09T08:38:33Z</time>
      </trkpt>
      <trkpt lat="41.4584680" lon="1.8894980">
        <ele>79.6</ele>
        <time>2021-05-09T08:38:34Z</time>
      </trkpt>
      <trkpt lat="41.4584960" lon="1.8895420">
        <ele>79.0</ele>
        <time>2021-05-09T08:38:35Z</time>
      </trkpt>
      <trkpt lat="41.4585480" lon="1.8895930">
        <ele>78.6</ele>
        <time>2021-05-09T08:38:37Z</time>
      </trkpt>
      <trkpt lat="41.4586000" lon="1.8896180">
        <ele>78.6</ele>
        <time>2021-05-09T08:38:39Z</time>
      </trkpt>
      <trkpt lat="41.4586770" lon="1.8896220">
        <ele>79.2</ele>
        <time>2021-05-09T08:38:42Z</time>
      </trkpt>
      <trkpt lat="41.4588650" lon="1.8896530">
        <ele>79.4</ele>
        <time>2021-05-09T08:38:48Z</time>
      </trkpt>
      <trkpt lat="41.4589100" lon="1.8896560">
        <ele>79.6</ele>
        <time>2021-05-09T08:38:50Z</time>
      </trkpt>
      <trkpt lat="41.4589810" lon="1.8896490">
        <ele>79.4</ele>
        <time>2021-05-09T08:38:53Z</time>
      </trkpt>
      <trkpt lat="41.4590520" lon="1.8896590">
        <ele>80.0</ele>
        <time>2021-05-09T08:38:57Z</time>
      </trkpt>
      <trkpt lat="41.4591130" lon="1.8896650">
        <ele>80.6</ele>
        <time>2021-05-09T08:39:00Z</time>
      </trkpt>
      <trkpt lat="41.4591710" lon="1.8896810">
        <ele>81.2</ele>
        <time>2021-05-09T08:39:03Z</time>
      </trkpt>
      <trkpt lat="41.4591910" lon="1.8896830">
        <ele>81.4</ele>
        <time>2021-05-09T08:39:04Z</time>
      </trkpt>
      <trkpt lat="41.4593050" lon="1.8896990">
        <ele>81.4</ele>
        <time>2021-05-09T08:39:10Z</time>
      </trkpt>
      <trkpt lat="41.4594100" lon="1.8897300">
        <ele>81.8</ele>
        <time>2021-05-09T08:39:15Z</time>
      </trkpt>
      <trkpt lat="41.4595550" lon="1.8897750">
        <ele>81.8</ele>
        <time>2021-05-09T08:39:22Z</time>
      </trkpt>
      <trkpt lat="41.4596390" lon="1.8897940">
        <ele>82.4</ele>
        <time>2021-05-09T08:39:27Z</time>
      </trkpt>
      <trkpt lat="41.4596930" lon="1.8898090">
        <ele>82.4</ele>
        <time>2021-05-09T08:39:30Z</time>
      </trkpt>
      <trkpt lat="41.4597880" lon="1.8898720">
        <ele>83.0</ele>
        <time>2021-05-09T08:39:36Z</time>
      </trkpt>
      <trkpt lat="41.4598780" lon="1.8899720">
        <ele>82.4</ele>
        <time>2021-05-09T08:39:41Z</time>
      </trkpt>
      <trkpt lat="41.4600090" lon="1.8901660">
        <ele>81.6</ele>
        <time>2021-05-09T08:39:48Z</time>
      </trkpt>
      <trkpt lat="41.4601230" lon="1.8903660">
        <ele>81.2</ele>
        <time>2021-05-09T08:39:54Z</time>
      </trkpt>
      <trkpt lat="41.4602590" lon="1.8905650">
        <ele>80.8</ele>
        <time>2021-05-09T08:40:01Z</time>
      </trkpt>
      <trkpt lat="41.4602900" lon="1.8906230">
        <ele>80.6</ele>
        <time>2021-05-09T08:40:03Z</time>
      </trkpt>
      <trkpt lat="41.4603600" lon="1.8907300">
        <ele>80.0</ele>
        <time>2021-05-09T08:40:07Z</time>
      </trkpt>
      <trkpt lat="41.4604890" lon="1.8909060">
        <ele>79.6</ele>
        <time>2021-05-09T08:40:14Z</time>
      </trkpt>
      <trkpt lat="41.4605230" lon="1.8909650">
        <ele>79.4</ele>
        <time>2021-05-09T08:40:16Z</time>
      </trkpt>
      <trkpt lat="41.4605920" lon="1.8910740">
        <ele>79.0</ele>
        <time>2021-05-09T08:40:19Z</time>
      </trkpt>
      <trkpt lat="41.4607680" lon="1.8913060">
        <ele>78.6</ele>
        <time>2021-05-09T08:40:25Z</time>
      </trkpt>
      <trkpt lat="41.4608840" lon="1.8914520">
        <ele>78.2</ele>
        <time>2021-05-09T08:40:28Z</time>
      </trkpt>
      <trkpt lat="41.4609630" lon="1.8915310">
        <ele>77.8</ele>
        <time>2021-05-09T08:40:30Z</time>
      </trkpt>
      <trkpt lat="41.4610020" lon="1.8915650">
        <ele>77.0</ele>
        <time>2021-05-09T08:40:31Z</time>
      </trkpt>
      <trkpt lat="41.4610390" lon="1.8916000">
        <ele>76.6</ele>
        <time>2021-05-09T08:40:32Z</time>
      </trkpt>
      <trkpt lat="41.4611160" lon="1.8917250">
        <ele>76.2</ele>
        <time>2021-05-09T08:40:35Z</time>
      </trkpt>
      <trkpt lat="41.4611150" lon="1.8918540">
        <ele>76.4</ele>
        <time>2021-05-09T08:40:38Z</time>
      </trkpt>
      <trkpt lat="41.4610180" lon="1.8919900">
        <ele>76.4</ele>
        <time>2021-05-09T08:40:42Z</time>
      </trkpt>
      <trkpt lat="41.4609920" lon="1.8920190">
        <ele>76.4</ele>
        <time>2021-05-09T08:40:43Z</time>
      </trkpt>
      <trkpt lat="41.4608150" lon="1.8922210">
        <ele>76.6</ele>
        <time>2021-05-09T08:40:51Z</time>
      </trkpt>
      <trkpt lat="41.4607280" lon="1.8923510">
        <ele>77.0</ele>
        <time>2021-05-09T08:40:57Z</time>
      </trkpt>
      <trkpt lat="41.4607120" lon="1.8924910">
        <ele>78.0</ele>
        <time>2021-05-09T08:41:03Z</time>
      </trkpt>
      <trkpt lat="41.4607210" lon="1.8925870">
        <ele>78.2</ele>
        <time>2021-05-09T08:41:08Z</time>
      </trkpt>
      <trkpt lat="41.4607240" lon="1.8926030">
        <ele>78.4</ele>
        <time>2021-05-09T08:41:09Z</time>
      </trkpt>
      <trkpt lat="41.4607360" lon="1.8927260">
        <ele>78.6</ele>
        <time>2021-05-09T08:41:16Z</time>
      </trkpt>
      <trkpt lat="41.4607650" lon="1.8928550">
        <ele>79.0</ele>
        <time>2021-05-09T08:41:23Z</time>
      </trkpt>
      <trkpt lat="41.4607680" lon="1.8928710">
        <ele>79.0</ele>
        <time>2021-05-09T08:41:24Z</time>
      </trkpt>
      <trkpt lat="41.4607750" lon="1.8929300">
        <ele>79.0</ele>
        <time>2021-05-09T08:41:28Z</time>
      </trkpt>
      <trkpt lat="41.4607760" lon="1.8929470">
        <ele>78.8</ele>
        <time>2021-05-09T08:41:29Z</time>
      </trkpt>
      <trkpt lat="41.4607940" lon="1.8930810">
        <ele>79.0</ele>
        <time>2021-05-09T08:41:37Z</time>
      </trkpt>
      <trkpt lat="41.4608120" lon="1.8931900">
        <ele>79.2</ele>
        <time>2021-05-09T08:41:44Z</time>
      </trkpt>
      <trkpt lat="41.4608170" lon="1.8932490">
        <ele>79.4</ele>
        <time>2021-05-09T08:41:48Z</time>
      </trkpt>
      <trkpt lat="41.4608200" lon="1.8933020">
        <ele>79.8</ele>
        <time>2021-05-09T08:41:51Z</time>
      </trkpt>
      <trkpt lat="41.4608280" lon="1.8933330">
        <ele>80.2</ele>
        <time>2021-05-09T08:41:53Z</time>
      </trkpt>
      <trkpt lat="41.4608350" lon="1.8934000">
        <ele>80.0</ele>
        <time>2021-05-09T08:41:57Z</time>
      </trkpt>
      <trkpt lat="41.4608420" lon="1.8935070">
        <ele>80.4</ele>
        <time>2021-05-09T08:42:04Z</time>
      </trkpt>
      <trkpt lat="41.4608410" lon="1.8935480">
        <ele>80.6</ele>
        <time>2021-05-09T08:42:06Z</time>
      </trkpt>
      <trkpt lat="41.4608560" lon="1.8936750">
        <ele>80.6</ele>
        <time>2021-05-09T08:42:11Z</time>
      </trkpt>
      <trkpt lat="41.4608970" lon="1.8939840">
        <ele>81.4</ele>
        <time>2021-05-09T08:42:22Z</time>
      </trkpt>
      <trkpt lat="41.4609310" lon="1.8941730">
        <ele>81.8</ele>
        <time>2021-05-09T08:42:28Z</time>
      </trkpt>
      <trkpt lat="41.4609360" lon="1.8942320">
        <ele>82.2</ele>
        <time>2021-05-09T08:42:30Z</time>
      </trkpt>
      <trkpt lat="41.4609540" lon="1.8943380">
        <ele>82.8</ele>
        <time>2021-05-09T08:42:34Z</time>
      </trkpt>
      <trkpt lat="41.4609600" lon="1.8943800">
        <ele>83.6</ele>
        <time>2021-05-09T08:42:36Z</time>
      </trkpt>
      <trkpt lat="41.4609750" lon="1.8944570">
        <ele>84.2</ele>
        <time>2021-05-09T08:42:39Z</time>
      </trkpt>
      <trkpt lat="41.4610010" lon="1.8945860">
        <ele>84.8</ele>
        <time>2021-05-09T08:42:43Z</time>
      </trkpt>
      <trkpt lat="41.4610390" lon="1.8947920">
        <ele>84.8</ele>
        <time>2021-05-09T08:42:50Z</time>
      </trkpt>
      <trkpt lat="41.4610640" lon="1.8949710">
        <ele>85.2</ele>
        <time>2021-05-09T08:42:57Z</time>
      </trkpt>
      <trkpt lat="41.4610650" lon="1.8949990">
        <ele>85.4</ele>
        <time>2021-05-09T08:42:58Z</time>
      </trkpt>
      <trkpt lat="41.4610920" lon="1.8951930">
        <ele>85.6</ele>
        <time>2021-05-09T08:43:05Z</time>
      </trkpt>
      <trkpt lat="41.4611090" lon="1.8953830">
        <ele>85.8</ele>
        <time>2021-05-09T08:43:12Z</time>
      </trkpt>
      <trkpt lat="41.4611440" lon="1.8955710">
        <ele>86.4</ele>
        <time>2021-05-09T08:43:19Z</time>
      </trkpt>
      <trkpt lat="41.4611550" lon="1.8956760">
        <ele>86.6</ele>
        <time>2021-05-09T08:43:23Z</time>
      </trkpt>
      <trkpt lat="41.4611570" lon="1.8957630">
        <ele>86.8</ele>
        <time>2021-05-09T08:43:26Z</time>
      </trkpt>
      <trkpt lat="41.4611330" lon="1.8959400">
        <ele>86.8</ele>
        <time>2021-05-09T08:43:32Z</time>
      </trkpt>
      <trkpt lat="41.4611360" lon="1.8959710">
        <ele>86.8</ele>
        <time>2021-05-09T08:43:33Z</time>
      </trkpt>
      <trkpt lat="41.4611910" lon="1.8961830">
        <ele>86.4</ele>
        <time>2021-05-09T08:43:40Z</time>
      </trkpt>
      <trkpt lat="41.4612510" lon="1.8964600">
        <ele>86.4</ele>
        <time>2021-05-09T08:43:48Z</time>
      </trkpt>
      <trkpt lat="41.4612660" lon="1.8965270">
        <ele>86.0</ele>
        <time>2021-05-09T08:43:50Z</time>
      </trkpt>
      <trkpt lat="41.4613120" lon="1.8966000">
        <ele>85.4</ele>
        <time>2021-05-09T08:43:53Z</time>
      </trkpt>
      <trkpt lat="41.4613520" lon="1.8966570">
        <ele>84.8</ele>
        <time>2021-05-09T08:43:55Z</time>
      </trkpt>
      <trkpt lat="41.4614230" lon="1.8967410">
        <ele>83.8</ele>
        <time>2021-05-09T08:43:58Z</time>
      </trkpt>
      <trkpt lat="41.4614470" lon="1.8967720">
        <ele>83.4</ele>
        <time>2021-05-09T08:43:59Z</time>
      </trkpt>
      <trkpt lat="41.4615120" lon="1.8968680">
        <ele>82.6</ele>
        <time>2021-05-09T08:44:02Z</time>
      </trkpt>
      <trkpt lat="41.4615580" lon="1.8969450">
        <ele>82.2</ele>
        <time>2021-05-09T08:44:04Z</time>
      </trkpt>
      <trkpt lat="41.4616080" lon="1.8970290">
        <ele>81.6</ele>
        <time>2021-05-09T08:44:06Z</time>
      </trkpt>
      <trkpt lat="41.4616340" lon="1.8970770">
        <ele>81.0</ele>
        <time>2021-05-09T08:44:07Z</time>
      </trkpt>
      <trkpt lat="41.4616590" lon="1.8971310">
        <ele>80.4</ele>
        <time>2021-05-09T08:44:08Z</time>
      </trkpt>
      <trkpt lat="41.4616870" lon="1.8971880">
        <ele>80.0</ele>
        <time>2021-05-09T08:44:09Z</time>
      </trkpt>
      <trkpt lat="41.4617120" lon="1.8972500">
        <ele>79.4</ele>
        <time>2021-05-09T08:44:10Z</time>
      </trkpt>
      <trkpt lat="41.4618160" lon="1.8975110">
        <ele>78.2</ele>
        <time>2021-05-09T08:44:14Z</time>
      </trkpt>
      <trkpt lat="41.4618400" lon="1.8975720">
        <ele>77.8</ele>
        <time>2021-05-09T08:44:15Z</time>
      </trkpt>
      <trkpt lat="41.4619030" lon="1.8978150">
        <ele>77.0</ele>
        <time>2021-05-09T08:44:19Z</time>
      </trkpt>
      <trkpt lat="41.4619590" lon="1.8982020">
        <ele>76.2</ele>
        <time>2021-05-09T08:44:25Z</time>
      </trkpt>
      <trkpt lat="41.4619700" lon="1.8982640">
        <ele>76.0</ele>
        <time>2021-05-09T08:44:26Z</time>
      </trkpt>
      <trkpt lat="41.4619920" lon="1.8983830">
        <ele>75.6</ele>
        <time>2021-05-09T08:44:28Z</time>
      </trkpt>
      <trkpt lat="41.4620290" lon="1.8986040">
        <ele>75.2</ele>
        <time>2021-05-09T08:44:32Z</time>
      </trkpt>
      <trkpt lat="41.4620800" lon="1.8989280">
        <ele>74.8</ele>
        <time>2021-05-09T08:44:39Z</time>
      </trkpt>
      <trkpt lat="41.4621380" lon="1.8990550">
        <ele>74.6</ele>
        <time>2021-05-09T08:44:42Z</time>
      </trkpt>
      <trkpt lat="41.4621680" lon="1.8991010">
        <ele>74.4</ele>
        <time>2021-05-09T08:44:43Z</time>
      </trkpt>
      <trkpt lat="41.4621980" lon="1.8991490">
        <ele>74.0</ele>
        <time>2021-05-09T08:44:44Z</time>
      </trkpt>
      <trkpt lat="41.4622250" lon="1.8991970">
        <ele>73.8</ele>
        <time>2021-05-09T08:44:45Z</time>
      </trkpt>
      <trkpt lat="41.4622990" lon="1.8993300">
        <ele>73.6</ele>
        <time>2021-05-09T08:44:48Z</time>
      </trkpt>
      <trkpt lat="41.4624180" lon="1.8996480">
        <ele>74.2</ele>
        <time>2021-05-09T08:44:55Z</time>
      </trkpt>
      <trkpt lat="41.4625330" lon="1.8998700">
        <ele>74.6</ele>
        <time>2021-05-09T08:45:01Z</time>
      </trkpt>
      <trkpt lat="41.4626270" lon="1.8999770">
        <ele>75.2</ele>
        <time>2021-05-09T08:45:05Z</time>
      </trkpt>
      <trkpt lat="41.4627260" lon="1.9000750">
        <ele>75.8</ele>
        <time>2021-05-09T08:45:09Z</time>
      </trkpt>
      <trkpt lat="41.4628280" lon="1.9001520">
        <ele>76.0</ele>
        <time>2021-05-09T08:45:12Z</time>
      </trkpt>
      <trkpt lat="41.4629070" lon="1.9002010">
        <ele>75.8</ele>
        <time>2021-05-09T08:45:14Z</time>
      </trkpt>
      <trkpt lat="41.4631760" lon="1.9003140">
        <ele>75.2</ele>
        <time>2021-05-09T08:45:20Z</time>
      </trkpt>
      <trkpt lat="41.4633730" lon="1.9003830">
        <ele>74.6</ele>
        <time>2021-05-09T08:45:25Z</time>
      </trkpt>
      <trkpt lat="41.4634690" lon="1.9004140">
        <ele>74.4</ele>
        <time>2021-05-09T08:45:27Z</time>
      </trkpt>
      <trkpt lat="41.4635680" lon="1.9004390">
        <ele>74.2</ele>
        <time>2021-05-09T08:45:29Z</time>
      </trkpt>
      <trkpt lat="41.4637690" lon="1.9005250">
        <ele>73.6</ele>
        <time>2021-05-09T08:45:33Z</time>
      </trkpt>
      <trkpt lat="41.4638510" lon="1.9006120">
        <ele>73.4</ele>
        <time>2021-05-09T08:45:35Z</time>
      </trkpt>
      <trkpt lat="41.4639220" lon="1.9007170">
        <ele>73.0</ele>
        <time>2021-05-09T08:45:37Z</time>
      </trkpt>
      <trkpt lat="41.4639750" lon="1.9008250">
        <ele>73.0</ele>
        <time>2021-05-09T08:45:39Z</time>
      </trkpt>
      <trkpt lat="41.4639920" lon="1.9008830">
        <ele>73.0</ele>
        <time>2021-05-09T08:45:40Z</time>
      </trkpt>
      <trkpt lat="41.4640210" lon="1.9010010">
        <ele>72.8</ele>
        <time>2021-05-09T08:45:42Z</time>
      </trkpt>
      <trkpt lat="41.4640440" lon="1.9011480">
        <ele>72.6</ele>
        <time>2021-05-09T08:45:45Z</time>
      </trkpt>
      <trkpt lat="41.4640640" lon="1.9012530">
        <ele>72.6</ele>
        <time>2021-05-09T08:45:48Z</time>
      </trkpt>
      <trkpt lat="41.4640820" lon="1.9013080">
        <ele>72.6</ele>
        <time>2021-05-09T08:45:50Z</time>
      </trkpt>
      <trkpt lat="41.4641320" lon="1.9014440">
        <ele>72.2</ele>
        <time>2021-05-09T08:45:54Z</time>
      </trkpt>
      <trkpt lat="41.4641460" lon="1.9014840">
        <ele>72.2</ele>
        <time>2021-05-09T08:45:55Z</time>
      </trkpt>
      <trkpt lat="41.4642160" lon="1.9017260">
        <ele>72.4</ele>
        <time>2021-05-09T08:46:00Z</time>
      </trkpt>
      <trkpt lat="41.4642890" lon="1.9020850">
        <ele>72.4</ele>
        <time>2021-05-09T08:46:06Z</time>
      </trkpt>
      <trkpt lat="41.4643220" lon="1.9022030">
        <ele>72.4</ele>
        <time>2021-05-09T08:46:08Z</time>
      </trkpt>
      <trkpt lat="41.4643770" lon="1.9024170">
        <ele>72.2</ele>
        <time>2021-05-09T08:46:12Z</time>
      </trkpt>
      <trkpt lat="41.4644060" lon="1.9026980">
        <ele>72.0</ele>
        <time>2021-05-09T08:46:17Z</time>
      </trkpt>
      <trkpt lat="41.4644420" lon="1.9031240">
        <ele>71.8</ele>
        <time>2021-05-09T08:46:24Z</time>
      </trkpt>
      <trkpt lat="41.4644480" lon="1.9031830">
        <ele>71.8</ele>
        <time>2021-05-09T08:46:25Z</time>
      </trkpt>
      <trkpt lat="41.4644450" lon="1.9034050">
        <ele>72.0</ele>
        <time>2021-05-09T08:46:29Z</time>
      </trkpt>
      <trkpt lat="41.4644560" lon="1.9036650">
        <ele>71.6</ele>
        <time>2021-05-09T08:46:34Z</time>
      </trkpt>
      <trkpt lat="41.4644730" lon="1.9040500">
        <ele>71.8</ele>
        <time>2021-05-09T08:46:41Z</time>
      </trkpt>
      <trkpt lat="41.4644840" lon="1.9043120">
        <ele>72.2</ele>
        <time>2021-05-09T08:46:46Z</time>
      </trkpt>
      <trkpt lat="41.4645260" lon="1.9047110">
        <ele>72.8</ele>
        <time>2021-05-09T08:46:53Z</time>
      </trkpt>
      <trkpt lat="41.4645420" lon="1.9049260">
        <ele>72.4</ele>
        <time>2021-05-09T08:46:57Z</time>
      </trkpt>
      <trkpt lat="41.4645770" lon="1.9052290">
        <ele>71.8</ele>
        <time>2021-05-09T08:47:03Z</time>
      </trkpt>
      <trkpt lat="41.4646110" lon="1.9056390">
        <ele>72.2</ele>
        <time>2021-05-09T08:47:11Z</time>
      </trkpt>
      <trkpt lat="41.4646510" lon="1.9060670">
        <ele>71.8</ele>
        <time>2021-05-09T08:47:19Z</time>
      </trkpt>
      <trkpt lat="41.4646660" lon="1.9064000">
        <ele>71.6</ele>
        <time>2021-05-09T08:47:25Z</time>
      </trkpt>
      <trkpt lat="41.4646760" lon="1.9065250">
        <ele>71.4</ele>
        <time>2021-05-09T08:47:27Z</time>
      </trkpt>
      <trkpt lat="41.4646880" lon="1.9065890">
        <ele>71.2</ele>
        <time>2021-05-09T08:47:28Z</time>
      </trkpt>
      <trkpt lat="41.4647310" lon="1.9067050">
        <ele>71.0</ele>
        <time>2021-05-09T08:47:30Z</time>
      </trkpt>
      <trkpt lat="41.4647870" lon="1.9068700">
        <ele>71.0</ele>
        <time>2021-05-09T08:47:34Z</time>
      </trkpt>
      <trkpt lat="41.4647980" lon="1.9069080">
        <ele>71.0</ele>
        <time>2021-05-09T08:47:35Z</time>
      </trkpt>
      <trkpt lat="41.4648560" lon="1.9070850">
        <ele>71.8</ele>
        <time>2021-05-09T08:47:40Z</time>
      </trkpt>
      <trkpt lat="41.4649620" lon="1.9073650">
        <ele>72.0</ele>
        <time>2021-05-09T08:47:47Z</time>
      </trkpt>
      <trkpt lat="41.4649820" lon="1.9076100">
        <ele>72.8</ele>
        <time>2021-05-09T08:47:54Z</time>
      </trkpt>
      <trkpt lat="41.4649760" lon="1.9078150">
        <ele>73.4</ele>
        <time>2021-05-09T08:48:00Z</time>
      </trkpt>
      <trkpt lat="41.4649870" lon="1.9080140">
        <ele>73.4</ele>
        <time>2021-05-09T08:48:06Z</time>
      </trkpt>
      <trkpt lat="41.4650220" lon="1.9082390">
        <ele>73.6</ele>
        <time>2021-05-09T08:48:12Z</time>
      </trkpt>
      <trkpt lat="41.4650700" lon="1.9085870">
        <ele>73.6</ele>
        <time>2021-05-09T08:48:20Z</time>
      </trkpt>
      <trkpt lat="41.4650740" lon="1.9088220">
        <ele>73.6</ele>
        <time>2021-05-09T08:48:25Z</time>
      </trkpt>
      <trkpt lat="41.4650080" lon="1.9091360">
        <ele>73.4</ele>
        <time>2021-05-09T08:48:32Z</time>
      </trkpt>
      <trkpt lat="41.4649690" lon="1.9093460">
        <ele>73.0</ele>
        <time>2021-05-09T08:48:37Z</time>
      </trkpt>
      <trkpt lat="41.4649990" lon="1.9095420">
        <ele>73.4</ele>
        <time>2021-05-09T08:48:42Z</time>
      </trkpt>
      <trkpt lat="41.4651220" lon="1.9096510">
        <ele>73.2</ele>
        <time>2021-05-09T08:48:47Z</time>
      </trkpt>
      <trkpt lat="41.4652460" lon="1.9097690">
        <ele>73.6</ele>
        <time>2021-05-09T08:48:53Z</time>
      </trkpt>
      <trkpt lat="41.4653400" lon="1.9098670">
        <ele>74.0</ele>
        <time>2021-05-09T08:48:58Z</time>
      </trkpt>
      <trkpt lat="41.4654540" lon="1.9100000">
        <ele>74.2</ele>
        <time>2021-05-09T08:49:03Z</time>
      </trkpt>
      <trkpt lat="41.4654810" lon="1.9100260">
        <ele>74.2</ele>
        <time>2021-05-09T08:49:04Z</time>
      </trkpt>
      <trkpt lat="41.4656150" lon="1.9101320">
        <ele>74.6</ele>
        <time>2021-05-09T08:49:09Z</time>
      </trkpt>
      <trkpt lat="41.4657820" lon="1.9102260">
        <ele>74.6</ele>
        <time>2021-05-09T08:49:14Z</time>
      </trkpt>
      <trkpt lat="41.4660200" lon="1.9103470">
        <ele>74.0</ele>
        <time>2021-05-09T08:49:20Z</time>
      </trkpt>
      <trkpt lat="41.4662240" lon="1.9104850">
        <ele>73.6</ele>
        <time>2021-05-09T08:49:25Z</time>
      </trkpt>
      <trkpt lat="41.4662620" lon="1.9105200">
        <ele>73.4</ele>
        <time>2021-05-09T08:49:26Z</time>
      </trkpt>
      <trkpt lat="41.4663910" lon="1.9106580">
        <ele>73.0</ele>
        <time>2021-05-09T08:49:30Z</time>
      </trkpt>
      <trkpt lat="41.4665250" lon="1.9108210">
        <ele>72.6</ele>
        <time>2021-05-09T08:49:35Z</time>
      </trkpt>
      <trkpt lat="41.4667150" lon="1.9109920">
        <ele>72.2</ele>
        <time>2021-05-09T08:49:40Z</time>
      </trkpt>
      <trkpt lat="41.4667600" lon="1.9110240">
        <ele>72.2</ele>
        <time>2021-05-09T08:49:41Z</time>
      </trkpt>
      <trkpt lat="41.4668440" lon="1.9110860">
        <ele>72.0</ele>
        <time>2021-05-09T08:49:43Z</time>
      </trkpt>
      <trkpt lat="41.4670170" lon="1.9112230">
        <ele>71.8</ele>
        <time>2021-05-09T08:49:47Z</time>
      </trkpt>
      <trkpt lat="41.4672250" lon="1.9113810">
        <ele>71.6</ele>
        <time>2021-05-09T08:49:52Z</time>
      </trkpt>
      <trkpt lat="41.4673050" lon="1.9114410">
        <ele>71.6</ele>
        <time>2021-05-09T08:49:54Z</time>
      </trkpt>
      <trkpt lat="41.4673930" lon="1.9114910">
        <ele>71.6</ele>
        <time>2021-05-09T08:49:56Z</time>
      </trkpt>
      <trkpt lat="41.4674410" lon="1.9115140">
        <ele>71.6</ele>
        <time>2021-05-09T08:49:57Z</time>
      </trkpt>
      <trkpt lat="41.4676560" lon="1.9116380">
        <ele>71.6</ele>
        <time>2021-05-09T08:50:02Z</time>
      </trkpt>
      <trkpt lat="41.4677650" lon="1.9117150">
        <ele>71.6</ele>
        <time>2021-05-09T08:50:05Z</time>
      </trkpt>
      <trkpt lat="41.4678330" lon="1.9117740">
        <ele>71.4</ele>
        <time>2021-05-09T08:50:07Z</time>
      </trkpt>
      <trkpt lat="41.4679150" lon="1.9118320">
        <ele>71.2</ele>
        <time>2021-05-09T08:50:09Z</time>
      </trkpt>
      <trkpt lat="41.4680110" lon="1.9118810">
        <ele>71.2</ele>
        <time>2021-05-09T08:50:11Z</time>
      </trkpt>
      <trkpt lat="41.4682050" lon="1.9120160">
        <ele>70.8</ele>
        <time>2021-05-09T08:50:16Z</time>
      </trkpt>
      <trkpt lat="41.4683630" lon="1.9121780">
        <ele>70.8</ele>
        <time>2021-05-09T08:50:21Z</time>
      </trkpt>
      <trkpt lat="41.4685450" lon="1.9123810">
        <ele>71.0</ele>
        <time>2021-05-09T08:50:27Z</time>
      </trkpt>
      <trkpt lat="41.4687600" lon="1.9126230">
        <ele>71.2</ele>
        <time>2021-05-09T08:50:34Z</time>
      </trkpt>
      <trkpt lat="41.4689590" lon="1.9128640">
        <ele>71.0</ele>
        <time>2021-05-09T08:50:41Z</time>
      </trkpt>
      <trkpt lat="41.4691610" lon="1.9131540">
        <ele>71.0</ele>
        <time>2021-05-09T08:50:49Z</time>
      </trkpt>
      <trkpt lat="41.4693000" lon="1.9133880">
        <ele>71.0</ele>
        <time>2021-05-09T08:50:55Z</time>
      </trkpt>
      <trkpt lat="41.4694170" lon="1.9136010">
        <ele>70.8</ele>
        <time>2021-05-09T08:51:00Z</time>
      </trkpt>
      <trkpt lat="41.4694640" lon="1.9136860">
        <ele>70.6</ele>
        <time>2021-05-09T08:51:02Z</time>
      </trkpt>
      <trkpt lat="41.4695860" lon="1.9139590">
        <ele>70.6</ele>
        <time>2021-05-09T08:51:08Z</time>
      </trkpt>
      <trkpt lat="41.4697160" lon="1.9142900">
        <ele>70.6</ele>
        <time>2021-05-09T08:51:15Z</time>
      </trkpt>
      <trkpt lat="41.4698290" lon="1.9145540">
        <ele>70.0</ele>
        <time>2021-05-09T08:51:21Z</time>
      </trkpt>
      <trkpt lat="41.4698990" lon="1.9147300">
        <ele>69.8</ele>
        <time>2021-05-09T08:51:25Z</time>
      </trkpt>
      <trkpt lat="41.4700690" lon="1.9151650">
        <ele>70.2</ele>
        <time>2021-05-09T08:51:34Z</time>
      </trkpt>
      <trkpt lat="41.4701890" lon="1.9155560">
        <ele>70.0</ele>
        <time>2021-05-09T08:51:42Z</time>
      </trkpt>
      <trkpt lat="41.4702030" lon="1.9156060">
        <ele>69.8</ele>
        <time>2021-05-09T08:51:43Z</time>
      </trkpt>
      <trkpt lat="41.4703140" lon="1.9160900">
        <ele>69.4</ele>
        <time>2021-05-09T08:51:52Z</time>
      </trkpt>
      <trkpt lat="41.4703500" lon="1.9166000">
        <ele>69.4</ele>
        <time>2021-05-09T08:52:01Z</time>
      </trkpt>
      <trkpt lat="41.4703820" lon="1.9170350">
        <ele>69.4</ele>
        <time>2021-05-09T08:52:09Z</time>
      </trkpt>
      <trkpt lat="41.4703830" lon="1.9173270">
        <ele>69.6</ele>
        <time>2021-05-09T08:52:15Z</time>
      </trkpt>
      <trkpt lat="41.4703750" lon="1.9175400">
        <ele>69.2</ele>
        <time>2021-05-09T08:52:19Z</time>
      </trkpt>
      <trkpt lat="41.4703480" lon="1.9178660">
        <ele>54.2</ele>
        <time>2021-05-09T08:52:25Z</time>
      </trkpt>
      <trkpt lat="41.4703340" lon="1.9179570">
        <ele>68.8</ele>
        <time>2021-05-09T08:52:27Z</time>
      </trkpt>
      <trkpt lat="41.4702850" lon="1.9182410">
        <ele>69.0</ele>
        <time>2021-05-09T08:52:33Z</time>
      </trkpt>
      <trkpt lat="41.4702380" lon="1.9185530">
        <ele>69.0</ele>
        <time>2021-05-09T08:52:39Z</time>
      </trkpt>
      <trkpt lat="41.4701650" lon="1.9188640">
        <ele>68.8</ele>
        <time>2021-05-09T08:52:46Z</time>
      </trkpt>
      <trkpt lat="41.4701280" lon="1.9190940">
        <ele>68.8</ele>
        <time>2021-05-09T08:52:51Z</time>
      </trkpt>
      <trkpt lat="41.4701000" lon="1.9192330">
        <ele>68.8</ele>
        <time>2021-05-09T08:52:55Z</time>
      </trkpt>
      <trkpt lat="41.4700810" lon="1.9192750">
        <ele>68.2</ele>
        <time>2021-05-09T08:52:59Z</time>
      </trkpt>
      <trkpt lat="41.4701830" lon="1.9193210">
        <ele>68.2</ele>
        <time>2021-05-09T08:53:17Z</time>
      </trkpt>
      <trkpt lat="41.4701990" lon="1.9193300">
        <ele>68.0</ele>
        <time>2021-05-09T08:53:18Z</time>
      </trkpt>
      <trkpt lat="41.4703130" lon="1.9194010">
        <ele>67.4</ele>
        <time>2021-05-09T08:53:23Z</time>
      </trkpt>
      <trkpt lat="41.4703790" lon="1.9194560">
        <ele>67.0</ele>
        <time>2021-05-09T08:53:25Z</time>
      </trkpt>
      <trkpt lat="41.4704160" lon="1.9194900">
        <ele>66.8</ele>
        <time>2021-05-09T08:53:26Z</time>
      </trkpt>
      <trkpt lat="41.4704590" lon="1.9195240">
        <ele>66.4</ele>
        <time>2021-05-09T08:53:27Z</time>
      </trkpt>
      <trkpt lat="41.4704970" lon="1.9195490">
        <ele>66.0</ele>
        <time>2021-05-09T08:53:28Z</time>
      </trkpt>
      <trkpt lat="41.4705580" lon="1.9195790">
        <ele>65.6</ele>
        <time>2021-05-09T08:53:30Z</time>
      </trkpt>
      <trkpt lat="41.4705820" lon="1.9195950">
        <ele>65.8</ele>
        <time>2021-05-09T08:53:31Z</time>
      </trkpt>
      <trkpt lat="41.4705980" lon="1.9196150">
        <ele>65.8</ele>
        <time>2021-05-09T08:53:32Z</time>
      </trkpt>
      <trkpt lat="41.4706040" lon="1.9196720">
        <ele>66.0</ele>
        <time>2021-05-09T08:53:34Z</time>
      </trkpt>
      <trkpt lat="41.4705990" lon="1.9197720">
        <ele>66.2</ele>
        <time>2021-05-09T08:53:37Z</time>
      </trkpt>
      <trkpt lat="41.4705940" lon="1.9198530">
        <ele>66.4</ele>
        <time>2021-05-09T08:53:40Z</time>
      </trkpt>
      <trkpt lat="41.4705940" lon="1.9199180">
        <ele>67.0</ele>
        <time>2021-05-09T08:53:43Z</time>
      </trkpt>
      <trkpt lat="41.4705940" lon="1.9199420">
        <ele>67.4</ele>
        <time>2021-05-09T08:53:44Z</time>
      </trkpt>
      <trkpt lat="41.4705830" lon="1.9199650">
        <ele>67.4</ele>
        <time>2021-05-09T08:53:45Z</time>
      </trkpt>
      <trkpt lat="41.4705700" lon="1.9200740">
        <ele>67.6</ele>
        <time>2021-05-09T08:53:49Z</time>
      </trkpt>
      <trkpt lat="41.4705580" lon="1.9202270">
        <ele>67.2</ele>
        <time>2021-05-09T08:53:54Z</time>
      </trkpt>
      <trkpt lat="41.4705560" lon="1.9202650">
        <ele>67.4</ele>
        <time>2021-05-09T08:53:55Z</time>
      </trkpt>
      <trkpt lat="41.4705540" lon="1.9203690">
        <ele>67.6</ele>
        <time>2021-05-09T08:53:58Z</time>
      </trkpt>
      <trkpt lat="41.4705500" lon="1.9205390">
        <ele>67.2</ele>
        <time>2021-05-09T08:54:03Z</time>
      </trkpt>
      <trkpt lat="41.4705340" lon="1.9208500">
        <ele>67.0</ele>
        <time>2021-05-09T08:54:11Z</time>
      </trkpt>
      <trkpt lat="41.4705560" lon="1.9211220">
        <ele>66.8</ele>
        <time>2021-05-09T08:54:18Z</time>
      </trkpt>
      <trkpt lat="41.4705760" lon="1.9213860">
        <ele>66.8</ele>
        <time>2021-05-09T08:54:24Z</time>
      </trkpt>
      <trkpt lat="41.4706240" lon="1.9217350">
        <ele>66.6</ele>
        <time>2021-05-09T08:54:32Z</time>
      </trkpt>
      <trkpt lat="41.4706400" lon="1.9218130">
        <ele>66.4</ele>
        <time>2021-05-09T08:54:34Z</time>
      </trkpt>
      <trkpt lat="41.4707040" lon="1.9220690">
        <ele>66.4</ele>
        <time>2021-05-09T08:54:40Z</time>
      </trkpt>
      <trkpt lat="41.4707860" lon="1.9224190">
        <ele>66.4</ele>
        <time>2021-05-09T08:54:47Z</time>
      </trkpt>
      <trkpt lat="41.4708630" lon="1.9227270">
        <ele>66.2</ele>
        <time>2021-05-09T08:54:53Z</time>
      </trkpt>
      <trkpt lat="41.4709460" lon="1.9230220">
        <ele>66.0</ele>
        <time>2021-05-09T08:54:59Z</time>
      </trkpt>
      <trkpt lat="41.4710520" lon="1.9232650">
        <ele>66.2</ele>
        <time>2021-05-09T08:55:05Z</time>
      </trkpt>
      <trkpt lat="41.4711880" lon="1.9234690">
        <ele>66.2</ele>
        <time>2021-05-09T08:55:11Z</time>
      </trkpt>
      <trkpt lat="41.4714040" lon="1.9237050">
        <ele>66.2</ele>
        <time>2021-05-09T08:55:18Z</time>
      </trkpt>
      <trkpt lat="41.4715850" lon="1.9238950">
        <ele>66.0</ele>
        <time>2021-05-09T08:55:24Z</time>
      </trkpt>
      <trkpt lat="41.4718040" lon="1.9241260">
        <ele>66.2</ele>
        <time>2021-05-09T08:55:31Z</time>
      </trkpt>
      <trkpt lat="41.4719440" lon="1.9242410">
        <ele>65.6</ele>
        <time>2021-05-09T08:55:35Z</time>
      </trkpt>
      <trkpt lat="41.4720410" lon="1.9243260">
        <ele>65.4</ele>
        <time>2021-05-09T08:55:38Z</time>
      </trkpt>
      <trkpt lat="41.4722780" lon="1.9245140">
        <ele>65.6</ele>
        <time>2021-05-09T08:55:45Z</time>
      </trkpt>
      <trkpt lat="41.4725340" lon="1.9247440">
        <ele>65.8</ele>
        <time>2021-05-09T08:55:53Z</time>
      </trkpt>
      <trkpt lat="41.4727730" lon="1.9249490">
        <ele>65.6</ele>
        <time>2021-05-09T08:56:00Z</time>
      </trkpt>
      <trkpt lat="41.4729240" lon="1.9250930">
        <ele>65.4</ele>
        <time>2021-05-09T08:56:05Z</time>
      </trkpt>
      <trkpt lat="41.4730960" lon="1.9252290">
        <ele>65.4</ele>
        <time>2021-05-09T08:56:10Z</time>
      </trkpt>
      <trkpt lat="41.4731330" lon="1.9252550">
        <ele>65.6</ele>
        <time>2021-05-09T08:56:11Z</time>
      </trkpt>
      <trkpt lat="41.4732090" lon="1.9253050">
        <ele>65.6</ele>
        <time>2021-05-09T08:56:13Z</time>
      </trkpt>
      <trkpt lat="41.4733710" lon="1.9253900">
        <ele>65.4</ele>
        <time>2021-05-09T08:56:17Z</time>
      </trkpt>
      <trkpt lat="41.4736220" lon="1.9255210">
        <ele>65.2</ele>
        <time>2021-05-09T08:56:24Z</time>
      </trkpt>
      <trkpt lat="41.4739100" lon="1.9256660">
        <ele>65.4</ele>
        <time>2021-05-09T08:56:32Z</time>
      </trkpt>
      <trkpt lat="41.4740770" lon="1.9257630">
        <ele>65.6</ele>
        <time>2021-05-09T08:56:38Z</time>
      </trkpt>
      <trkpt lat="41.4742350" lon="1.9258200">
        <ele>65.4</ele>
        <time>2021-05-09T08:56:43Z</time>
      </trkpt>
      <trkpt lat="41.4743350" lon="1.9258790">
        <ele>65.8</ele>
        <time>2021-05-09T08:56:47Z</time>
      </trkpt>
      <trkpt lat="41.4744340" lon="1.9259580">
        <ele>65.8</ele>
        <time>2021-05-09T08:56:52Z</time>
      </trkpt>
      <trkpt lat="41.4744420" lon="1.9259790">
        <ele>65.8</ele>
        <time>2021-05-09T08:56:53Z</time>
      </trkpt>
      <trkpt lat="41.4744870" lon="1.9260620">
        <ele>65.4</ele>
        <time>2021-05-09T08:56:56Z</time>
      </trkpt>
      <trkpt lat="41.4744650" lon="1.9261760">
        <ele>65.6</ele>
        <time>2021-05-09T08:56:59Z</time>
      </trkpt>
      <trkpt lat="41.4744520" lon="1.9262180">
        <ele>65.6</ele>
        <time>2021-05-09T08:57:00Z</time>
      </trkpt>
      <trkpt lat="41.4744280" lon="1.9264420">
        <ele>65.4</ele>
        <time>2021-05-09T08:57:05Z</time>
      </trkpt>
      <trkpt lat="41.4744980" lon="1.9266020">
        <ele>65.2</ele>
        <time>2021-05-09T08:57:09Z</time>
      </trkpt>
      <trkpt lat="41.4746380" lon="1.9267490">
        <ele>65.0</ele>
        <time>2021-05-09T08:57:14Z</time>
      </trkpt>
      <trkpt lat="41.4748240" lon="1.9269070">
        <ele>64.6</ele>
        <time>2021-05-09T08:57:21Z</time>
      </trkpt>
      <trkpt lat="41.4748520" lon="1.9270000">
        <ele>64.2</ele>
        <time>2021-05-09T08:57:23Z</time>
      </trkpt>
      <trkpt lat="41.4748550" lon="1.9270600">
        <ele>63.8</ele>
        <time>2021-05-09T08:57:24Z</time>
      </trkpt>
      <trkpt lat="41.4748480" lon="1.9273390">
        <ele>62.8</ele>
        <time>2021-05-09T08:57:29Z</time>
      </trkpt>
      <trkpt lat="41.4748330" lon="1.9274280">
        <ele>63.2</ele>
        <time>2021-05-09T08:57:31Z</time>
      </trkpt>
      <trkpt lat="41.4748180" lon="1.9274950">
        <ele>64.0</ele>
        <time>2021-05-09T08:57:33Z</time>
      </trkpt>
      <trkpt lat="41.4748220" lon="1.9275920">
        <ele>64.6</ele>
        <time>2021-05-09T08:57:36Z</time>
      </trkpt>
      <trkpt lat="41.4748850" lon="1.9276860">
        <ele>64.8</ele>
        <time>2021-05-09T08:57:40Z</time>
      </trkpt>
      <trkpt lat="41.4749280" lon="1.9276910">
        <ele>64.8</ele>
        <time>2021-05-09T08:57:42Z</time>
      </trkpt>
      <trkpt lat="41.4749610" lon="1.9276770">
        <ele>65.0</ele>
        <time>2021-05-09T08:57:44Z</time>
      </trkpt>
      <trkpt lat="41.4749810" lon="1.9276730">
        <ele>65.0</ele>
        <time>2021-05-09T08:57:45Z</time>
      </trkpt>
      <trkpt lat="41.4750560" lon="1.9276680">
        <ele>65.2</ele>
        <time>2021-05-09T08:57:48Z</time>
      </trkpt>
      <trkpt lat="41.4751500" lon="1.9277090">
        <ele>65.4</ele>
        <time>2021-05-09T08:57:52Z</time>
      </trkpt>
      <trkpt lat="41.4752790" lon="1.9277860">
        <ele>65.4</ele>
        <time>2021-05-09T08:57:57Z</time>
      </trkpt>
      <trkpt lat="41.4754310" lon="1.9278540">
        <ele>65.4</ele>
        <time>2021-05-09T08:58:02Z</time>
      </trkpt>
      <trkpt lat="41.4755790" lon="1.9279340">
        <ele>65.4</ele>
        <time>2021-05-09T08:58:07Z</time>
      </trkpt>
      <trkpt lat="41.4757420" lon="1.9280340">
        <ele>65.0</ele>
        <time>2021-05-09T08:58:12Z</time>
      </trkpt>
      <trkpt lat="41.4759930" lon="1.9281570">
        <ele>65.0</ele>
        <time>2021-05-09T08:58:19Z</time>
      </trkpt>
      <trkpt lat="41.4762660" lon="1.9281940">
        <ele>64.6</ele>
        <time>2021-05-09T08:58:26Z</time>
      </trkpt>
      <trkpt lat="41.4765320" lon="1.9281770">
        <ele>65.0</ele>
        <time>2021-05-09T08:58:33Z</time>
      </trkpt>
      <trkpt lat="41.4767170" lon="1.9282380">
        <ele>64.8</ele>
        <time>2021-05-09T08:58:39Z</time>
      </trkpt>
      <trkpt lat="41.4768490" lon="1.9283160">
        <ele>64.2</ele>
        <time>2021-05-09T08:58:43Z</time>
      </trkpt>
      <trkpt lat="41.4769490" lon="1.9283870">
        <ele>64.0</ele>
        <time>2021-05-09T08:58:46Z</time>
      </trkpt>
      <trkpt lat="41.4770690" lon="1.9285690">
        <ele>64.6</ele>
        <time>2021-05-09T08:58:51Z</time>
      </trkpt>
      <trkpt lat="41.4772460" lon="1.9288220">
        <ele>64.8</ele>
        <time>2021-05-09T08:58:59Z</time>
      </trkpt>
      <trkpt lat="41.4772810" lon="1.9288750">
        <ele>65.2</ele>
        <time>2021-05-09T08:59:01Z</time>
      </trkpt>
      <trkpt lat="41.4773770" lon="1.9290010">
        <ele>65.6</ele>
        <time>2021-05-09T08:59:07Z</time>
      </trkpt>
      <trkpt lat="41.4773810" lon="1.9290830">
        <ele>65.6</ele>
        <time>2021-05-09T08:59:12Z</time>
      </trkpt>
      <trkpt lat="41.4773660" lon="1.9291800">
        <ele>65.8</ele>
        <time>2021-05-09T08:59:17Z</time>
      </trkpt>
      <trkpt lat="41.4773680" lon="1.9291820">
        <ele>65.8</ele>
        <time>2021-05-09T08:59:19Z</time>
      </trkpt>
      <trkpt lat="41.4774160" lon="1.9291750">
        <ele>69.8</ele>
        <time>2021-05-09T09:03:10Z</time>
      </trkpt>
      <trkpt lat="41.4774360" lon="1.9291670">
        <ele>69.8</ele>
        <time>2021-05-09T09:03:11Z</time>
      </trkpt>
      <trkpt lat="41.4774970" lon="1.9291570">
        <ele>69.8</ele>
        <time>2021-05-09T09:03:14Z</time>
      </trkpt>
      <trkpt lat="41.4775600" lon="1.9292070">
        <ele>69.8</ele>
        <time>2021-05-09T09:03:17Z</time>
      </trkpt>
      <trkpt lat="41.4776020" lon="1.9292500">
        <ele>70.0</ele>
        <time>2021-05-09T09:03:19Z</time>
      </trkpt>
      <trkpt lat="41.4776910" lon="1.9293680">
        <ele>69.8</ele>
        <time>2021-05-09T09:03:23Z</time>
      </trkpt>
      <trkpt lat="41.4778010" lon="1.9295640">
        <ele>69.8</ele>
        <time>2021-05-09T09:03:29Z</time>
      </trkpt>
      <trkpt lat="41.4778760" lon="1.9297100">
        <ele>69.6</ele>
        <time>2021-05-09T09:03:34Z</time>
      </trkpt>
      <trkpt lat="41.4779760" lon="1.9299110">
        <ele>70.0</ele>
        <time>2021-05-09T09:03:41Z</time>
      </trkpt>
      <trkpt lat="41.4780610" lon="1.9301990">
        <ele>70.4</ele>
        <time>2021-05-09T09:03:49Z</time>
      </trkpt>
      <trkpt lat="41.4781410" lon="1.9304800">
        <ele>70.4</ele>
        <time>2021-05-09T09:03:57Z</time>
      </trkpt>
      <trkpt lat="41.4782080" lon="1.9307030">
        <ele>70.6</ele>
        <time>2021-05-09T09:04:04Z</time>
      </trkpt>
      <trkpt lat="41.4782960" lon="1.9309970">
        <ele>70.2</ele>
        <time>2021-05-09T09:04:12Z</time>
      </trkpt>
      <trkpt lat="41.4783720" lon="1.9313620">
        <ele>69.4</ele>
        <time>2021-05-09T09:04:21Z</time>
      </trkpt>
      <trkpt lat="41.4784060" lon="1.9315910">
        <ele>69.8</ele>
        <time>2021-05-09T09:04:28Z</time>
      </trkpt>
      <trkpt lat="41.4784420" lon="1.9318390">
        <ele>69.6</ele>
        <time>2021-05-09T09:04:35Z</time>
      </trkpt>
      <trkpt lat="41.4784500" lon="1.9319140">
        <ele>69.4</ele>
        <time>2021-05-09T09:04:37Z</time>
      </trkpt>
      <trkpt lat="41.4784710" lon="1.9320700">
        <ele>69.4</ele>
        <time>2021-05-09T09:04:41Z</time>
      </trkpt>
      <trkpt lat="41.4785060" lon="1.9324240">
        <ele>70.2</ele>
        <time>2021-05-09T09:04:50Z</time>
      </trkpt>
      <trkpt lat="41.4785110" lon="1.9325730">
        <ele>70.6</ele>
        <time>2021-05-09T09:04:54Z</time>
      </trkpt>
      <trkpt lat="41.4785040" lon="1.9326860">
        <ele>70.2</ele>
        <time>2021-05-09T09:04:57Z</time>
      </trkpt>
      <trkpt lat="41.4784400" lon="1.9329700">
        <ele>71.0</ele>
        <time>2021-05-09T09:05:05Z</time>
      </trkpt>
      <trkpt lat="41.4782940" lon="1.9331940">
        <ele>71.2</ele>
        <time>2021-05-09T09:05:13Z</time>
      </trkpt>
      <trkpt lat="41.4780810" lon="1.9334700">
        <ele>71.6</ele>
        <time>2021-05-09T09:05:22Z</time>
      </trkpt>
      <trkpt lat="41.4780510" lon="1.9334980">
        <ele>71.8</ele>
        <time>2021-05-09T09:05:23Z</time>
      </trkpt>
      <trkpt lat="41.4777960" lon="1.9337430">
        <ele>72.0</ele>
        <time>2021-05-09T09:05:32Z</time>
      </trkpt>
      <trkpt lat="41.4774470" lon="1.9340210">
        <ele>71.6</ele>
        <time>2021-05-09T09:05:43Z</time>
      </trkpt>
      <trkpt lat="41.4771810" lon="1.9342130">
        <ele>71.2</ele>
        <time>2021-05-09T09:05:51Z</time>
      </trkpt>
      <trkpt lat="41.4769290" lon="1.9344310">
        <ele>71.2</ele>
        <time>2021-05-09T09:05:59Z</time>
      </trkpt>
      <trkpt lat="41.4767380" lon="1.9346090">
        <ele>71.2</ele>
        <time>2021-05-09T09:06:05Z</time>
      </trkpt>
      <trkpt lat="41.4764890" lon="1.9348530">
        <ele>72.0</ele>
        <time>2021-05-09T09:06:13Z</time>
      </trkpt>
      <trkpt lat="41.4762130" lon="1.9351780">
        <ele>72.2</ele>
        <time>2021-05-09T09:06:23Z</time>
      </trkpt>
      <trkpt lat="41.4760250" lon="1.9354450">
        <ele>72.6</ele>
        <time>2021-05-09T09:06:31Z</time>
      </trkpt>
      <trkpt lat="41.4758350" lon="1.9357560">
        <ele>72.2</ele>
        <time>2021-05-09T09:06:39Z</time>
      </trkpt>
      <trkpt lat="41.4757070" lon="1.9358660">
        <ele>72.4</ele>
        <time>2021-05-09T09:06:44Z</time>
      </trkpt>
      <trkpt lat="41.4756090" lon="1.9358830">
        <ele>72.2</ele>
        <time>2021-05-09T09:06:49Z</time>
      </trkpt>
      <trkpt lat="41.4755860" lon="1.9359910">
        <ele>72.2</ele>
        <time>2021-05-09T09:06:53Z</time>
      </trkpt>
      <trkpt lat="41.4755750" lon="1.9361040">
        <ele>72.6</ele>
        <time>2021-05-09T09:06:57Z</time>
      </trkpt>
      <trkpt lat="41.4755730" lon="1.9361320">
        <ele>72.8</ele>
        <time>2021-05-09T09:06:58Z</time>
      </trkpt>
      <trkpt lat="41.4755200" lon="1.9363020">
        <ele>72.6</ele>
        <time>2021-05-09T09:07:04Z</time>
      </trkpt>
      <trkpt lat="41.4754460" lon="1.9364310">
        <ele>73.0</ele>
        <time>2021-05-09T09:07:09Z</time>
      </trkpt>
      <trkpt lat="41.4753800" lon="1.9364730">
        <ele>73.2</ele>
        <time>2021-05-09T09:07:12Z</time>
      </trkpt>
      <trkpt lat="41.4753260" lon="1.9364860">
        <ele>73.2</ele>
        <time>2021-05-09T09:07:14Z</time>
      </trkpt>
      <trkpt lat="41.4751230" lon="1.9365600">
        <ele>73.4</ele>
        <time>2021-05-09T09:07:21Z</time>
      </trkpt>
      <trkpt lat="41.4749830" lon="1.9366290">
        <ele>73.0</ele>
        <time>2021-05-09T09:07:27Z</time>
      </trkpt>
      <trkpt lat="41.4749170" lon="1.9367460">
        <ele>73.4</ele>
        <time>2021-05-09T09:07:32Z</time>
      </trkpt>
      <trkpt lat="41.4749240" lon="1.9369730">
        <ele>73.8</ele>
        <time>2021-05-09T09:07:37Z</time>
      </trkpt>
      <trkpt lat="41.4749450" lon="1.9371950">
        <ele>74.0</ele>
        <time>2021-05-09T09:07:43Z</time>
      </trkpt>
      <trkpt lat="41.4749490" lon="1.9372180">
        <ele>74.2</ele>
        <time>2021-05-09T09:07:44Z</time>
      </trkpt>
      <trkpt lat="41.4749520" lon="1.9372490">
        <ele>74.6</ele>
        <time>2021-05-09T09:07:46Z</time>
      </trkpt>
      <trkpt lat="41.4749510" lon="1.9372560">
        <ele>74.6</ele>
        <time>2021-05-09T09:07:48Z</time>
      </trkpt>
      <trkpt lat="41.4750240" lon="1.9383940">
        <ele>75.4</ele>
        <time>2021-05-09T09:13:14Z</time>
      </trkpt>
      <trkpt lat="41.4750230" lon="1.9384320">
        <ele>75.4</ele>
        <time>2021-05-09T09:13:16Z</time>
      </trkpt>
      <trkpt lat="41.4750230" lon="1.9384540">
        <ele>75.8</ele>
        <time>2021-05-09T09:13:17Z</time>
      </trkpt>
      <trkpt lat="41.4749510" lon="1.9386320">
        <ele>74.6</ele>
        <time>2021-05-09T09:13:31Z</time>
      </trkpt>
      <trkpt lat="41.4749070" lon="1.9386410">
        <ele>74.8</ele>
        <time>2021-05-09T09:13:33Z</time>
      </trkpt>
      <trkpt lat="41.4747720" lon="1.9386820">
        <ele>74.6</ele>
        <time>2021-05-09T09:13:39Z</time>
      </trkpt>
      <trkpt lat="41.4746690" lon="1.9387420">
        <ele>74.4</ele>
        <time>2021-05-09T09:13:45Z</time>
      </trkpt>
      <trkpt lat="41.4746340" lon="1.9387640">
        <ele>74.2</ele>
        <time>2021-05-09T09:13:47Z</time>
      </trkpt>
      <trkpt lat="41.4745060" lon="1.9388350">
        <ele>74.6</ele>
        <time>2021-05-09T09:13:53Z</time>
      </trkpt>
      <trkpt lat="41.4743600" lon="1.9388970">
        <ele>73.8</ele>
        <time>2021-05-09T09:13:58Z</time>
      </trkpt>
      <trkpt lat="41.4743090" lon="1.9389190">
        <ele>73.4</ele>
        <time>2021-05-09T09:14:00Z</time>
      </trkpt>
      <trkpt lat="41.4742100" lon="1.9389520">
        <ele>72.6</ele>
        <time>2021-05-09T09:14:04Z</time>
      </trkpt>
      <trkpt lat="41.4741570" lon="1.9389670">
        <ele>72.2</ele>
        <time>2021-05-09T09:14:06Z</time>
      </trkpt>
      <trkpt lat="41.4740540" lon="1.9390100">
        <ele>71.4</ele>
        <time>2021-05-09T09:14:10Z</time>
      </trkpt>
      <trkpt lat="41.4740330" lon="1.9390200">
        <ele>71.2</ele>
        <time>2021-05-09T09:14:11Z</time>
      </trkpt>
      <trkpt lat="41.4739390" lon="1.9390630">
        <ele>70.4</ele>
        <time>2021-05-09T09:14:15Z</time>
      </trkpt>
      <trkpt lat="41.4739100" lon="1.9390830">
        <ele>70.2</ele>
        <time>2021-05-09T09:14:16Z</time>
      </trkpt>
      <trkpt lat="41.4737430" lon="1.9391830">
        <ele>69.2</ele>
        <time>2021-05-09T09:14:21Z</time>
      </trkpt>
      <trkpt lat="41.4737090" lon="1.9392080">
        <ele>69.0</ele>
        <time>2021-05-09T09:14:22Z</time>
      </trkpt>
      <trkpt lat="41.4736040" lon="1.9392870">
        <ele>68.0</ele>
        <time>2021-05-09T09:14:25Z</time>
      </trkpt>
      <trkpt lat="41.4734920" lon="1.9393670">
        <ele>67.2</ele>
        <time>2021-05-09T09:14:28Z</time>
      </trkpt>
      <trkpt lat="41.4734550" lon="1.9393960">
        <ele>66.8</ele>
        <time>2021-05-09T09:14:29Z</time>
      </trkpt>
      <trkpt lat="41.4734150" lon="1.9394200">
        <ele>66.4</ele>
        <time>2021-05-09T09:14:30Z</time>
      </trkpt>
      <trkpt lat="41.4733400" lon="1.9394760">
        <ele>66.0</ele>
        <time>2021-05-09T09:14:32Z</time>
      </trkpt>
      <trkpt lat="41.4733050" lon="1.9395060">
        <ele>65.6</ele>
        <time>2021-05-09T09:14:33Z</time>
      </trkpt>
      <trkpt lat="41.4731980" lon="1.9395950">
        <ele>64.4</ele>
        <time>2021-05-09T09:14:36Z</time>
      </trkpt>
      <trkpt lat="41.4730780" lon="1.9397200">
        <ele>64.0</ele>
        <time>2021-05-09T09:14:40Z</time>
      </trkpt>
      <trkpt lat="41.4729300" lon="1.9398820">
        <ele>64.2</ele>
        <time>2021-05-09T09:14:46Z</time>
      </trkpt>
      <trkpt lat="41.4728010" lon="1.9400750">
        <ele>64.0</ele>
        <time>2021-05-09T09:14:53Z</time>
      </trkpt>
      <trkpt lat="41.4727020" lon="1.9401840">
        <ele>65.4</ele>
        <time>2021-05-09T09:14:58Z</time>
      </trkpt>
      <trkpt lat="41.4726790" lon="1.9402020">
        <ele>65.6</ele>
        <time>2021-05-09T09:14:59Z</time>
      </trkpt>
      <trkpt lat="41.4726350" lon="1.9402590">
        <ele>65.8</ele>
        <time>2021-05-09T09:15:03Z</time>
      </trkpt>
      <trkpt lat="41.4725850" lon="1.9403390">
        <ele>65.6</ele>
        <time>2021-05-09T09:15:08Z</time>
      </trkpt>
      <trkpt lat="41.4725200" lon="1.9404590">
        <ele>66.0</ele>
        <time>2021-05-09T09:15:14Z</time>
      </trkpt>
      <trkpt lat="41.4723940" lon="1.9405710">
        <ele>66.4</ele>
        <time>2021-05-09T09:15:19Z</time>
      </trkpt>
      <trkpt lat="41.4722400" lon="1.9406800">
        <ele>66.0</ele>
        <time>2021-05-09T09:15:24Z</time>
      </trkpt>
      <trkpt lat="41.4721420" lon="1.9407630">
        <ele>66.6</ele>
        <time>2021-05-09T09:15:29Z</time>
      </trkpt>
      <trkpt lat="41.4721230" lon="1.9407720">
        <ele>66.6</ele>
        <time>2021-05-09T09:15:30Z</time>
      </trkpt>
      <trkpt lat="41.4720650" lon="1.9408020">
        <ele>66.8</ele>
        <time>2021-05-09T09:15:33Z</time>
      </trkpt>
      <trkpt lat="41.4720160" lon="1.9408350">
        <ele>67.0</ele>
        <time>2021-05-09T09:15:35Z</time>
      </trkpt>
      <trkpt lat="41.4719720" lon="1.9408620">
        <ele>67.4</ele>
        <time>2021-05-09T09:15:37Z</time>
      </trkpt>
      <trkpt lat="41.4719150" lon="1.9409090">
        <ele>67.8</ele>
        <time>2021-05-09T09:15:40Z</time>
      </trkpt>
      <trkpt lat="41.4718640" lon="1.9409680">
        <ele>68.2</ele>
        <time>2021-05-09T09:15:43Z</time>
      </trkpt>
      <trkpt lat="41.4717460" lon="1.9411030">
        <ele>68.4</ele>
        <time>2021-05-09T09:15:50Z</time>
      </trkpt>
      <trkpt lat="41.4716230" lon="1.9412410">
        <ele>68.2</ele>
        <time>2021-05-09T09:15:57Z</time>
      </trkpt>
      <trkpt lat="41.4715210" lon="1.9413340">
        <ele>68.6</ele>
        <time>2021-05-09T09:16:02Z</time>
      </trkpt>
      <trkpt lat="41.4714230" lon="1.9414180">
        <ele>69.0</ele>
        <time>2021-05-09T09:16:07Z</time>
      </trkpt>
      <trkpt lat="41.4713820" lon="1.9414610">
        <ele>69.0</ele>
        <time>2021-05-09T09:16:09Z</time>
      </trkpt>
      <trkpt lat="41.4712450" lon="1.9415850">
        <ele>68.8</ele>
        <time>2021-05-09T09:16:15Z</time>
      </trkpt>
      <trkpt lat="41.4711620" lon="1.9416860">
        <ele>68.0</ele>
        <time>2021-05-09T09:16:20Z</time>
      </trkpt>
      <trkpt lat="41.4710720" lon="1.9418090">
        <ele>68.6</ele>
        <time>2021-05-09T09:16:26Z</time>
      </trkpt>
      <trkpt lat="41.4709600" lon="1.9419530">
        <ele>68.6</ele>
        <time>2021-05-09T09:16:31Z</time>
      </trkpt>
      <trkpt lat="41.4707990" lon="1.9420650">
        <ele>68.6</ele>
        <time>2021-05-09T09:16:36Z</time>
      </trkpt>
      <trkpt lat="41.4707250" lon="1.9421300">
        <ele>68.2</ele>
        <time>2021-05-09T09:16:38Z</time>
      </trkpt>
      <trkpt lat="41.4706260" lon="1.9422340">
        <ele>67.4</ele>
        <time>2021-05-09T09:16:41Z</time>
      </trkpt>
      <trkpt lat="41.4705930" lon="1.9422550">
        <ele>67.4</ele>
        <time>2021-05-09T09:16:42Z</time>
      </trkpt>
      <trkpt lat="41.4704600" lon="1.9423720">
        <ele>67.4</ele>
        <time>2021-05-09T09:16:47Z</time>
      </trkpt>
      <trkpt lat="41.4703020" lon="1.9425530">
        <ele>67.4</ele>
        <time>2021-05-09T09:16:53Z</time>
      </trkpt>
      <trkpt lat="41.4701260" lon="1.9427920">
        <ele>67.6</ele>
        <time>2021-05-09T09:17:00Z</time>
      </trkpt>
      <trkpt lat="41.4700480" lon="1.9429100">
        <ele>67.8</ele>
        <time>2021-05-09T09:17:05Z</time>
      </trkpt>
      <trkpt lat="41.4699690" lon="1.9430020">
        <ele>67.6</ele>
        <time>2021-05-09T09:17:10Z</time>
      </trkpt>
      <trkpt lat="41.4698780" lon="1.9430830">
        <ele>67.6</ele>
        <time>2021-05-09T09:17:16Z</time>
      </trkpt>
      <trkpt lat="41.4698450" lon="1.9431160">
        <ele>67.4</ele>
        <time>2021-05-09T09:17:18Z</time>
      </trkpt>
      <trkpt lat="41.4697920" lon="1.9431730">
        <ele>67.4</ele>
        <time>2021-05-09T09:17:22Z</time>
      </trkpt>
      <trkpt lat="41.4696800" lon="1.9432730">
        <ele>67.2</ele>
        <time>2021-05-09T09:17:28Z</time>
      </trkpt>
      <trkpt lat="41.4695800" lon="1.9434210">
        <ele>67.6</ele>
        <time>2021-05-09T09:17:34Z</time>
      </trkpt>
      <trkpt lat="41.4694840" lon="1.9435610">
        <ele>67.6</ele>
        <time>2021-05-09T09:17:40Z</time>
      </trkpt>
      <trkpt lat="41.4693970" lon="1.9436910">
        <ele>68.0</ele>
        <time>2021-05-09T09:17:45Z</time>
      </trkpt>
      <trkpt lat="41.4693750" lon="1.9437310">
        <ele>68.0</ele>
        <time>2021-05-09T09:17:47Z</time>
      </trkpt>
      <trkpt lat="41.4693440" lon="1.9437570">
        <ele>67.8</ele>
        <time>2021-05-09T09:17:49Z</time>
      </trkpt>
      <trkpt lat="41.4692650" lon="1.9438330">
        <ele>67.8</ele>
        <time>2021-05-09T09:17:54Z</time>
      </trkpt>
      <trkpt lat="41.4691540" lon="1.9439510">
        <ele>68.6</ele>
        <time>2021-05-09T09:18:01Z</time>
      </trkpt>
      <trkpt lat="41.4690600" lon="1.9440420">
        <ele>70.0</ele>
        <time>2021-05-09T09:18:07Z</time>
      </trkpt>
      <trkpt lat="41.4690270" lon="1.9440800">
        <ele>70.0</ele>
        <time>2021-05-09T09:18:09Z</time>
      </trkpt>
      <trkpt lat="41.4689220" lon="1.9441990">
        <ele>70.2</ele>
        <time>2021-05-09T09:18:15Z</time>
      </trkpt>
      <trkpt lat="41.4688020" lon="1.9443400">
        <ele>70.0</ele>
        <time>2021-05-09T09:18:22Z</time>
      </trkpt>
      <trkpt lat="41.4687060" lon="1.9444790">
        <ele>70.2</ele>
        <time>2021-05-09T09:18:28Z</time>
      </trkpt>
      <trkpt lat="41.4686110" lon="1.9446040">
        <ele>70.6</ele>
        <time>2021-05-09T09:18:33Z</time>
      </trkpt>
      <trkpt lat="41.4685020" lon="1.9447420">
        <ele>71.0</ele>
        <time>2021-05-09T09:18:39Z</time>
      </trkpt>
      <trkpt lat="41.4683920" lon="1.9448860">
        <ele>71.2</ele>
        <time>2021-05-09T09:18:46Z</time>
      </trkpt>
      <trkpt lat="41.4682750" lon="1.9450710">
        <ele>71.2</ele>
        <time>2021-05-09T09:18:53Z</time>
      </trkpt>
      <trkpt lat="41.4681420" lon="1.9453410">
        <ele>71.0</ele>
        <time>2021-05-09T09:19:01Z</time>
      </trkpt>
      <trkpt lat="41.4680600" lon="1.9455770">
        <ele>70.2</ele>
        <time>2021-05-09T09:19:08Z</time>
      </trkpt>
      <trkpt lat="41.4680710" lon="1.9458200">
        <ele>69.8</ele>
        <time>2021-05-09T09:19:14Z</time>
      </trkpt>
      <trkpt lat="41.4681540" lon="1.9460520">
        <ele>70.0</ele>
        <time>2021-05-09T09:19:20Z</time>
      </trkpt>
      <trkpt lat="41.4683110" lon="1.9462120">
        <ele>70.2</ele>
        <time>2021-05-09T09:19:26Z</time>
      </trkpt>
      <trkpt lat="41.4685470" lon="1.9463680">
        <ele>69.4</ele>
        <time>2021-05-09T09:19:34Z</time>
      </trkpt>
      <trkpt lat="41.4686310" lon="1.9464630">
        <ele>69.6</ele>
        <time>2021-05-09T09:19:38Z</time>
      </trkpt>
      <trkpt lat="41.4686510" lon="1.9465030">
        <ele>69.6</ele>
        <time>2021-05-09T09:19:39Z</time>
      </trkpt>
      <trkpt lat="41.4687150" lon="1.9466040">
        <ele>68.8</ele>
        <time>2021-05-09T09:19:42Z</time>
      </trkpt>
      <trkpt lat="41.4687830" lon="1.9466800">
        <ele>68.2</ele>
        <time>2021-05-09T09:19:45Z</time>
      </trkpt>
      <trkpt lat="41.4688740" lon="1.9467800">
        <ele>68.0</ele>
        <time>2021-05-09T09:19:51Z</time>
      </trkpt>
      <trkpt lat="41.4689250" lon="1.9468300">
        <ele>67.6</ele>
        <time>2021-05-09T09:19:53Z</time>
      </trkpt>
      <trkpt lat="41.4690090" lon="1.9469200">
        <ele>67.6</ele>
        <time>2021-05-09T09:19:56Z</time>
      </trkpt>
      <trkpt lat="41.4692140" lon="1.9470810">
        <ele>68.0</ele>
        <time>2021-05-09T09:20:03Z</time>
      </trkpt>
      <trkpt lat="41.4694570" lon="1.9472710">
        <ele>68.8</ele>
        <time>2021-05-09T09:20:10Z</time>
      </trkpt>
      <trkpt lat="41.4694850" lon="1.9473030">
        <ele>68.6</ele>
        <time>2021-05-09T09:20:11Z</time>
      </trkpt>
      <trkpt lat="41.4695720" lon="1.9473970">
        <ele>67.8</ele>
        <time>2021-05-09T09:20:14Z</time>
      </trkpt>
      <trkpt lat="41.4696030" lon="1.9474270">
        <ele>67.2</ele>
        <time>2021-05-09T09:20:15Z</time>
      </trkpt>
      <trkpt lat="41.4696650" lon="1.9475030">
        <ele>66.8</ele>
        <time>2021-05-09T09:20:17Z</time>
      </trkpt>
      <trkpt lat="41.4697200" lon="1.9475980">
        <ele>66.4</ele>
        <time>2021-05-09T09:20:19Z</time>
      </trkpt>
      <trkpt lat="41.4697650" lon="1.9477080">
        <ele>66.2</ele>
        <time>2021-05-09T09:20:21Z</time>
      </trkpt>
      <trkpt lat="41.4697990" lon="1.9477670">
        <ele>66.0</ele>
        <time>2021-05-09T09:20:22Z</time>
      </trkpt>
      <trkpt lat="41.4698720" lon="1.9478400">
        <ele>65.4</ele>
        <time>2021-05-09T09:20:23Z</time>
      </trkpt>
      <trkpt lat="41.4699250" lon="1.9479050">
        <ele>65.0</ele>
        <time>2021-05-09T09:20:24Z</time>
      </trkpt>
      <trkpt lat="41.4699760" lon="1.9479640">
        <ele>64.8</ele>
        <time>2021-05-09T09:20:25Z</time>
      </trkpt>
      <trkpt lat="41.4702150" lon="1.9482130">
        <ele>63.8</ele>
        <time>2021-05-09T09:20:30Z</time>
      </trkpt>
      <trkpt lat="41.4703620" lon="1.9483720">
        <ele>63.2</ele>
        <time>2021-05-09T09:20:34Z</time>
      </trkpt>
      <trkpt lat="41.4704770" lon="1.9484800">
        <ele>63.2</ele>
        <time>2021-05-09T09:20:38Z</time>
      </trkpt>
      <trkpt lat="41.4706090" lon="1.9486400">
        <ele>62.8</ele>
        <time>2021-05-09T09:20:42Z</time>
      </trkpt>
      <trkpt lat="41.4706480" lon="1.9486870">
        <ele>62.4</ele>
        <time>2021-05-09T09:20:43Z</time>
      </trkpt>
      <trkpt lat="41.4707330" lon="1.9487920">
        <ele>61.8</ele>
        <time>2021-05-09T09:20:45Z</time>
      </trkpt>
      <trkpt lat="41.4708190" lon="1.9488930">
        <ele>60.8</ele>
        <time>2021-05-09T09:20:47Z</time>
      </trkpt>
      <trkpt lat="41.4708650" lon="1.9489430">
        <ele>60.2</ele>
        <time>2021-05-09T09:20:48Z</time>
      </trkpt>
      <trkpt lat="41.4710620" lon="1.9491370">
        <ele>60.2</ele>
        <time>2021-05-09T09:20:53Z</time>
      </trkpt>
      <trkpt lat="41.4712980" lon="1.9493680">
        <ele>60.0</ele>
        <time>2021-05-09T09:21:01Z</time>
      </trkpt>
      <trkpt lat="41.4714370" lon="1.9494740">
        <ele>60.8</ele>
        <time>2021-05-09T09:21:07Z</time>
      </trkpt>
      <trkpt lat="41.4716380" lon="1.9496940">
        <ele>61.2</ele>
        <time>2021-05-09T09:21:16Z</time>
      </trkpt>
      <trkpt lat="41.4717890" lon="1.9498990">
        <ele>60.8</ele>
        <time>2021-05-09T09:21:23Z</time>
      </trkpt>
      <trkpt lat="41.4719340" lon="1.9501070">
        <ele>60.6</ele>
        <time>2021-05-09T09:21:30Z</time>
      </trkpt>
      <trkpt lat="41.4721450" lon="1.9504050">
        <ele>60.2</ele>
        <time>2021-05-09T09:21:39Z</time>
      </trkpt>
      <trkpt lat="41.4722930" lon="1.9506590">
        <ele>60.6</ele>
        <time>2021-05-09T09:21:46Z</time>
      </trkpt>
      <trkpt lat="41.4724480" lon="1.9508650">
        <ele>59.8</ele>
        <time>2021-05-09T09:21:52Z</time>
      </trkpt>
      <trkpt lat="41.4724790" lon="1.9508950">
        <ele>59.6</ele>
        <time>2021-05-09T09:21:53Z</time>
      </trkpt>
      <trkpt lat="41.4727340" lon="1.9511240">
        <ele>59.0</ele>
        <time>2021-05-09T09:22:01Z</time>
      </trkpt>
      <trkpt lat="41.4729020" lon="1.9513210">
        <ele>58.8</ele>
        <time>2021-05-09T09:22:07Z</time>
      </trkpt>
      <trkpt lat="41.4730400" lon="1.9515030">
        <ele>58.8</ele>
        <time>2021-05-09T09:22:13Z</time>
      </trkpt>
      <trkpt lat="41.4731500" lon="1.9516450">
        <ele>58.6</ele>
        <time>2021-05-09T09:22:18Z</time>
      </trkpt>
      <trkpt lat="41.4731940" lon="1.9516990">
        <ele>58.4</ele>
        <time>2021-05-09T09:22:20Z</time>
      </trkpt>
      <trkpt lat="41.4733190" lon="1.9518330">
        <ele>58.6</ele>
        <time>2021-05-09T09:22:26Z</time>
      </trkpt>
      <trkpt lat="41.4734500" lon="1.9519710">
        <ele>59.2</ele>
        <time>2021-05-09T09:22:32Z</time>
      </trkpt>
      <trkpt lat="41.4736270" lon="1.9521750">
        <ele>59.6</ele>
        <time>2021-05-09T09:22:40Z</time>
      </trkpt>
      <trkpt lat="41.4737980" lon="1.9524030">
        <ele>59.2</ele>
        <time>2021-05-09T09:22:48Z</time>
      </trkpt>
      <trkpt lat="41.4739410" lon="1.9526040">
        <ele>58.4</ele>
        <time>2021-05-09T09:22:55Z</time>
      </trkpt>
      <trkpt lat="41.4739610" lon="1.9526280">
        <ele>58.4</ele>
        <time>2021-05-09T09:22:56Z</time>
      </trkpt>
      <trkpt lat="41.4740190" lon="1.9526720">
        <ele>58.2</ele>
        <time>2021-05-09T09:22:59Z</time>
      </trkpt>
      <trkpt lat="41.4740490" lon="1.9527150">
        <ele>58.2</ele>
        <time>2021-05-09T09:23:02Z</time>
      </trkpt>
      <trkpt lat="41.4740900" lon="1.9527880">
        <ele>58.0</ele>
        <time>2021-05-09T09:23:07Z</time>
      </trkpt>
      <trkpt lat="41.4741730" lon="1.9528900">
        <ele>58.2</ele>
        <time>2021-05-09T09:23:12Z</time>
      </trkpt>
      <trkpt lat="41.4743350" lon="1.9530860">
        <ele>58.2</ele>
        <time>2021-05-09T09:23:19Z</time>
      </trkpt>
      <trkpt lat="41.4745640" lon="1.9533630">
        <ele>58.6</ele>
        <time>2021-05-09T09:23:28Z</time>
      </trkpt>
      <trkpt lat="41.4747300" lon="1.9536150">
        <ele>58.6</ele>
        <time>2021-05-09T09:23:36Z</time>
      </trkpt>
      <trkpt lat="41.4748420" lon="1.9538080">
        <ele>59.6</ele>
        <time>2021-05-09T09:23:43Z</time>
      </trkpt>
      <trkpt lat="41.4749300" lon="1.9539200">
        <ele>60.0</ele>
        <time>2021-05-09T09:23:48Z</time>
      </trkpt>
      <trkpt lat="41.4749970" lon="1.9540350">
        <ele>60.2</ele>
        <time>2021-05-09T09:23:52Z</time>
      </trkpt>
      <trkpt lat="41.4751070" lon="1.9543080">
        <ele>60.4</ele>
        <time>2021-05-09T09:23:58Z</time>
      </trkpt>
      <trkpt lat="41.4753080" lon="1.9546960">
        <ele>59.2</ele>
        <time>2021-05-09T09:24:06Z</time>
      </trkpt>
      <trkpt lat="41.4754650" lon="1.9549040">
        <ele>58.8</ele>
        <time>2021-05-09T09:24:12Z</time>
      </trkpt>
      <trkpt lat="41.4756250" lon="1.9550300">
        <ele>59.0</ele>
        <time>2021-05-09T09:24:18Z</time>
      </trkpt>
      <trkpt lat="41.4756950" lon="1.9551780">
        <ele>58.8</ele>
        <time>2021-05-09T09:24:22Z</time>
      </trkpt>
      <trkpt lat="41.4757250" lon="1.9553400">
        <ele>59.4</ele>
        <time>2021-05-09T09:24:26Z</time>
      </trkpt>
      <trkpt lat="41.4757480" lon="1.9554170">
        <ele>59.6</ele>
        <time>2021-05-09T09:24:28Z</time>
      </trkpt>
      <trkpt lat="41.4758660" lon="1.9556860">
        <ele>59.6</ele>
        <time>2021-05-09T09:24:35Z</time>
      </trkpt>
      <trkpt lat="41.4759650" lon="1.9559300">
        <ele>59.8</ele>
        <time>2021-05-09T09:24:41Z</time>
      </trkpt>
      <trkpt lat="41.4759800" lon="1.9559750">
        <ele>59.8</ele>
        <time>2021-05-09T09:24:42Z</time>
      </trkpt>
      <trkpt lat="41.4761040" lon="1.9562840">
        <ele>59.4</ele>
        <time>2021-05-09T09:24:49Z</time>
      </trkpt>
      <trkpt lat="41.4761760" lon="1.9565120">
        <ele>59.4</ele>
        <time>2021-05-09T09:24:55Z</time>
      </trkpt>
      <trkpt lat="41.4761940" lon="1.9567080">
        <ele>59.8</ele>
        <time>2021-05-09T09:25:01Z</time>
      </trkpt>
      <trkpt lat="41.4761870" lon="1.9567930">
        <ele>59.0</ele>
        <time>2021-05-09T09:25:03Z</time>
      </trkpt>
      <trkpt lat="41.4761660" lon="1.9569990">
        <ele>58.8</ele>
        <time>2021-05-09T09:25:07Z</time>
      </trkpt>
      <trkpt lat="41.4761070" lon="1.9574450">
        <ele>58.4</ele>
        <time>2021-05-09T09:25:16Z</time>
      </trkpt>
      <trkpt lat="41.4760920" lon="1.9575400">
        <ele>58.0</ele>
        <time>2021-05-09T09:25:18Z</time>
      </trkpt>
      <trkpt lat="41.4760520" lon="1.9578440">
        <ele>58.6</ele>
        <time>2021-05-09T09:25:24Z</time>
      </trkpt>
      <trkpt lat="41.4760430" lon="1.9582220">
        <ele>58.4</ele>
        <time>2021-05-09T09:25:32Z</time>
      </trkpt>
      <trkpt lat="41.4760730" lon="1.9585510">
        <ele>57.8</ele>
        <time>2021-05-09T09:25:39Z</time>
      </trkpt>
      <trkpt lat="41.4760720" lon="1.9588760">
        <ele>57.6</ele>
        <time>2021-05-09T09:25:46Z</time>
      </trkpt>
      <trkpt lat="41.4761020" lon="1.9593030">
        <ele>58.6</ele>
        <time>2021-05-09T09:25:56Z</time>
      </trkpt>
      <trkpt lat="41.4760690" lon="1.9596530">
        <ele>59.0</ele>
        <time>2021-05-09T09:26:04Z</time>
      </trkpt>
      <trkpt lat="41.4760240" lon="1.9600060">
        <ele>58.6</ele>
        <time>2021-05-09T09:26:12Z</time>
      </trkpt>
      <trkpt lat="41.4759680" lon="1.9603330">
        <ele>59.0</ele>
        <time>2021-05-09T09:26:20Z</time>
      </trkpt>
      <trkpt lat="41.4759600" lon="1.9603700">
        <ele>59.2</ele>
        <time>2021-05-09T09:26:21Z</time>
      </trkpt>
      <trkpt lat="41.4758930" lon="1.9606710">
        <ele>59.4</ele>
        <time>2021-05-09T09:26:29Z</time>
      </trkpt>
      <trkpt lat="41.4758040" lon="1.9610190">
        <ele>59.4</ele>
        <time>2021-05-09T09:26:38Z</time>
      </trkpt>
      <trkpt lat="41.4757330" lon="1.9613660">
        <ele>59.6</ele>
        <time>2021-05-09T09:26:47Z</time>
      </trkpt>
      <trkpt lat="41.4756320" lon="1.9616450">
        <ele>59.6</ele>
        <time>2021-05-09T09:26:55Z</time>
      </trkpt>
      <trkpt lat="41.4755640" lon="1.9618490">
        <ele>59.4</ele>
        <time>2021-05-09T09:27:02Z</time>
      </trkpt>
      <trkpt lat="41.4754750" lon="1.9620730">
        <ele>59.4</ele>
        <time>2021-05-09T09:27:09Z</time>
      </trkpt>
      <trkpt lat="41.4753230" lon="1.9624420">
        <ele>59.4</ele>
        <time>2021-05-09T09:27:17Z</time>
      </trkpt>
      <trkpt lat="41.4751790" lon="1.9627390">
        <ele>60.0</ele>
        <time>2021-05-09T09:27:23Z</time>
      </trkpt>
      <trkpt lat="41.4749720" lon="1.9630780">
        <ele>59.2</ele>
        <time>2021-05-09T09:27:31Z</time>
      </trkpt>
      <trkpt lat="41.4747540" lon="1.9633120">
        <ele>59.0</ele>
        <time>2021-05-09T09:27:38Z</time>
      </trkpt>
      <trkpt lat="41.4745810" lon="1.9635500">
        <ele>58.6</ele>
        <time>2021-05-09T09:27:44Z</time>
      </trkpt>
      <trkpt lat="41.4745080" lon="1.9636720">
        <ele>58.0</ele>
        <time>2021-05-09T09:27:47Z</time>
      </trkpt>
      <trkpt lat="41.4743760" lon="1.9638640">
        <ele>58.0</ele>
        <time>2021-05-09T09:27:52Z</time>
      </trkpt>
      <trkpt lat="41.4741190" lon="1.9641840">
        <ele>58.2</ele>
        <time>2021-05-09T09:28:01Z</time>
      </trkpt>
      <trkpt lat="41.4739010" lon="1.9644070">
        <ele>58.0</ele>
        <time>2021-05-09T09:28:09Z</time>
      </trkpt>
      <trkpt lat="41.4738710" lon="1.9644300">
        <ele>58.0</ele>
        <time>2021-05-09T09:28:10Z</time>
      </trkpt>
      <trkpt lat="41.4736590" lon="1.9645520">
        <ele>58.0</ele>
        <time>2021-05-09T09:28:17Z</time>
      </trkpt>
      <trkpt lat="41.4735230" lon="1.9646910">
        <ele>58.4</ele>
        <time>2021-05-09T09:28:23Z</time>
      </trkpt>
      <trkpt lat="41.4733650" lon="1.9648360">
        <ele>58.0</ele>
        <time>2021-05-09T09:28:30Z</time>
      </trkpt>
      <trkpt lat="41.4732860" lon="1.9648960">
        <ele>57.2</ele>
        <time>2021-05-09T09:28:33Z</time>
      </trkpt>
      <trkpt lat="41.4731940" lon="1.9649510">
        <ele>56.8</ele>
        <time>2021-05-09T09:28:36Z</time>
      </trkpt>
      <trkpt lat="41.4731200" lon="1.9650380">
        <ele>57.0</ele>
        <time>2021-05-09T09:28:41Z</time>
      </trkpt>
      <trkpt lat="41.4731180" lon="1.9650440">
        <ele>57.0</ele>
        <time>2021-05-09T09:28:43Z</time>
      </trkpt>
      <trkpt lat="41.4729430" lon="1.9651540">
        <ele>56.6</ele>
        <time>2021-05-09T09:31:42Z</time>
      </trkpt>
      <trkpt lat="41.4729240" lon="1.9651680">
        <ele>56.6</ele>
        <time>2021-05-09T09:31:43Z</time>
      </trkpt>
      <trkpt lat="41.4727730" lon="1.9652620">
        <ele>56.6</ele>
        <time>2021-05-09T09:31:49Z</time>
      </trkpt>
      <trkpt lat="41.4727160" lon="1.9653010">
        <ele>56.2</ele>
        <time>2021-05-09T09:31:53Z</time>
      </trkpt>
      <trkpt lat="41.4727150" lon="1.9653010">
        <ele>56.2</ele>
        <time>2021-05-09T09:31:54Z</time>
      </trkpt>
      <trkpt lat="41.4726530" lon="1.9653630">
        <ele>56.6</ele>
        <time>2021-05-09T09:33:30Z</time>
      </trkpt>
      <trkpt lat="41.4726210" lon="1.9653900">
        <ele>56.6</ele>
        <time>2021-05-09T09:33:32Z</time>
      </trkpt>
      <trkpt lat="41.4724830" lon="1.9655060">
        <ele>56.6</ele>
        <time>2021-05-09T09:33:39Z</time>
      </trkpt>
      <trkpt lat="41.4723400" lon="1.9656350">
        <ele>56.6</ele>
        <time>2021-05-09T09:33:45Z</time>
      </trkpt>
      <trkpt lat="41.4721460" lon="1.9658170">
        <ele>56.0</ele>
        <time>2021-05-09T09:33:53Z</time>
      </trkpt>
      <trkpt lat="41.4720230" lon="1.9659610">
        <ele>56.2</ele>
        <time>2021-05-09T09:33:59Z</time>
      </trkpt>
      <trkpt lat="41.4719030" lon="1.9661000">
        <ele>56.4</ele>
        <time>2021-05-09T09:34:05Z</time>
      </trkpt>
      <trkpt lat="41.4717640" lon="1.9662470">
        <ele>56.4</ele>
        <time>2021-05-09T09:34:12Z</time>
      </trkpt>
      <trkpt lat="41.4717190" lon="1.9662900">
        <ele>56.4</ele>
        <time>2021-05-09T09:34:14Z</time>
      </trkpt>
      <trkpt lat="41.4716240" lon="1.9663690">
        <ele>56.4</ele>
        <time>2021-05-09T09:34:18Z</time>
      </trkpt>
      <trkpt lat="41.4714370" lon="1.9665070">
        <ele>56.2</ele>
        <time>2021-05-09T09:34:26Z</time>
      </trkpt>
      <trkpt lat="41.4712640" lon="1.9666320">
        <ele>56.2</ele>
        <time>2021-05-09T09:34:32Z</time>
      </trkpt>
      <trkpt lat="41.4710990" lon="1.9667580">
        <ele>55.8</ele>
        <time>2021-05-09T09:34:38Z</time>
      </trkpt>
      <trkpt lat="41.4709010" lon="1.9669810">
        <ele>56.2</ele>
        <time>2021-05-09T09:34:46Z</time>
      </trkpt>
      <trkpt lat="41.4707490" lon="1.9672060">
        <ele>55.8</ele>
        <time>2021-05-09T09:34:53Z</time>
      </trkpt>
      <trkpt lat="41.4705820" lon="1.9674130">
        <ele>56.0</ele>
        <time>2021-05-09T09:35:00Z</time>
      </trkpt>
      <trkpt lat="41.4703990" lon="1.9675410">
        <ele>55.8</ele>
        <time>2021-05-09T09:35:07Z</time>
      </trkpt>
      <trkpt lat="41.4701960" lon="1.9676690">
        <ele>56.0</ele>
        <time>2021-05-09T09:35:15Z</time>
      </trkpt>
      <trkpt lat="41.4699780" lon="1.9678280">
        <ele>55.2</ele>
        <time>2021-05-09T09:35:23Z</time>
      </trkpt>
      <trkpt lat="41.4697630" lon="1.9680040">
        <ele>55.0</ele>
        <time>2021-05-09T09:35:30Z</time>
      </trkpt>
      <trkpt lat="41.4696230" lon="1.9681400">
        <ele>54.8</ele>
        <time>2021-05-09T09:35:36Z</time>
      </trkpt>
      <trkpt lat="41.4694920" lon="1.9682650">
        <ele>54.6</ele>
        <time>2021-05-09T09:35:42Z</time>
      </trkpt>
      <trkpt lat="41.4693780" lon="1.9684220">
        <ele>54.6</ele>
        <time>2021-05-09T09:35:48Z</time>
      </trkpt>
      <trkpt lat="41.4692820" lon="1.9685560">
        <ele>54.6</ele>
        <time>2021-05-09T09:35:54Z</time>
      </trkpt>
      <trkpt lat="41.4691950" lon="1.9686980">
        <ele>54.4</ele>
        <time>2021-05-09T09:35:59Z</time>
      </trkpt>
      <trkpt lat="41.4691280" lon="1.9688090">
        <ele>54.6</ele>
        <time>2021-05-09T09:36:04Z</time>
      </trkpt>
      <trkpt lat="41.4690390" lon="1.9689260">
        <ele>54.6</ele>
        <time>2021-05-09T09:36:10Z</time>
      </trkpt>
      <trkpt lat="41.4688920" lon="1.9690610">
        <ele>54.6</ele>
        <time>2021-05-09T09:36:17Z</time>
      </trkpt>
      <trkpt lat="41.4686580" lon="1.9692400">
        <ele>54.4</ele>
        <time>2021-05-09T09:36:25Z</time>
      </trkpt>
      <trkpt lat="41.4683990" lon="1.9694420">
        <ele>53.8</ele>
        <time>2021-05-09T09:36:33Z</time>
      </trkpt>
      <trkpt lat="41.4681250" lon="1.9696660">
        <ele>53.2</ele>
        <time>2021-05-09T09:36:41Z</time>
      </trkpt>
      <trkpt lat="41.4679220" lon="1.9698250">
        <ele>53.0</ele>
        <time>2021-05-09T09:36:47Z</time>
      </trkpt>
      <trkpt lat="41.4678670" lon="1.9698700">
        <ele>52.6</ele>
        <time>2021-05-09T09:36:49Z</time>
      </trkpt>
      <trkpt lat="41.4677770" lon="1.9699560">
        <ele>52.8</ele>
        <time>2021-05-09T09:36:52Z</time>
      </trkpt>
      <trkpt lat="41.4675720" lon="1.9702160">
        <ele>53.0</ele>
        <time>2021-05-09T09:36:59Z</time>
      </trkpt>
      <trkpt lat="41.4673940" lon="1.9704900">
        <ele>53.0</ele>
        <time>2021-05-09T09:37:06Z</time>
      </trkpt>
      <trkpt lat="41.4672070" lon="1.9707680">
        <ele>53.2</ele>
        <time>2021-05-09T09:37:14Z</time>
      </trkpt>
      <trkpt lat="41.4670400" lon="1.9709360">
        <ele>53.2</ele>
        <time>2021-05-09T09:37:20Z</time>
      </trkpt>
      <trkpt lat="41.4667980" lon="1.9711230">
        <ele>53.4</ele>
        <time>2021-05-09T09:37:27Z</time>
      </trkpt>
      <trkpt lat="41.4664980" lon="1.9713950">
        <ele>53.8</ele>
        <time>2021-05-09T09:37:36Z</time>
      </trkpt>
      <trkpt lat="41.4662890" lon="1.9716160">
        <ele>53.6</ele>
        <time>2021-05-09T09:37:43Z</time>
      </trkpt>
      <trkpt lat="41.4660760" lon="1.9718390">
        <ele>53.4</ele>
        <time>2021-05-09T09:37:50Z</time>
      </trkpt>
      <trkpt lat="41.4659370" lon="1.9720020">
        <ele>53.6</ele>
        <time>2021-05-09T09:37:55Z</time>
      </trkpt>
      <trkpt lat="41.4657250" lon="1.9721990">
        <ele>53.6</ele>
        <time>2021-05-09T09:38:02Z</time>
      </trkpt>
      <trkpt lat="41.4655070" lon="1.9723850">
        <ele>53.6</ele>
        <time>2021-05-09T09:38:09Z</time>
      </trkpt>
      <trkpt lat="41.4651720" lon="1.9726570">
        <ele>53.6</ele>
        <time>2021-05-09T09:38:19Z</time>
      </trkpt>
      <trkpt lat="41.4650070" lon="1.9728330">
        <ele>53.6</ele>
        <time>2021-05-09T09:38:24Z</time>
      </trkpt>
      <trkpt lat="41.4649510" lon="1.9729160">
        <ele>53.4</ele>
        <time>2021-05-09T09:38:26Z</time>
      </trkpt>
      <trkpt lat="41.4647560" lon="1.9730970">
        <ele>53.2</ele>
        <time>2021-05-09T09:38:32Z</time>
      </trkpt>
      <trkpt lat="41.4644650" lon="1.9732820">
        <ele>52.8</ele>
        <time>2021-05-09T09:38:40Z</time>
      </trkpt>
      <trkpt lat="41.4642500" lon="1.9734900">
        <ele>53.0</ele>
        <time>2021-05-09T09:38:47Z</time>
      </trkpt>
      <trkpt lat="41.4642190" lon="1.9735190">
        <ele>52.6</ele>
        <time>2021-05-09T09:38:48Z</time>
      </trkpt>
      <trkpt lat="41.4640030" lon="1.9737040">
        <ele>52.8</ele>
        <time>2021-05-09T09:38:55Z</time>
      </trkpt>
      <trkpt lat="41.4638300" lon="1.9738810">
        <ele>52.6</ele>
        <time>2021-05-09T09:39:01Z</time>
      </trkpt>
      <trkpt lat="41.4636470" lon="1.9739790">
        <ele>53.0</ele>
        <time>2021-05-09T09:39:06Z</time>
      </trkpt>
      <trkpt lat="41.4633740" lon="1.9741540">
        <ele>52.6</ele>
        <time>2021-05-09T09:39:14Z</time>
      </trkpt>
      <trkpt lat="41.4632010" lon="1.9742930">
        <ele>52.6</ele>
        <time>2021-05-09T09:39:20Z</time>
      </trkpt>
      <trkpt lat="41.4630320" lon="1.9744350">
        <ele>52.2</ele>
        <time>2021-05-09T09:39:26Z</time>
      </trkpt>
      <trkpt lat="41.4628520" lon="1.9745820">
        <ele>52.2</ele>
        <time>2021-05-09T09:39:33Z</time>
      </trkpt>
      <trkpt lat="41.4627190" lon="1.9747010">
        <ele>52.6</ele>
        <time>2021-05-09T09:39:38Z</time>
      </trkpt>
      <trkpt lat="41.4624860" lon="1.9748880">
        <ele>52.0</ele>
        <time>2021-05-09T09:39:45Z</time>
      </trkpt>
      <trkpt lat="41.4622050" lon="1.9750720">
        <ele>51.8</ele>
        <time>2021-05-09T09:39:53Z</time>
      </trkpt>
      <trkpt lat="41.4620060" lon="1.9751940">
        <ele>52.4</ele>
        <time>2021-05-09T09:40:00Z</time>
      </trkpt>
      <trkpt lat="41.4618080" lon="1.9753090">
        <ele>52.2</ele>
        <time>2021-05-09T09:40:07Z</time>
      </trkpt>
      <trkpt lat="41.4616540" lon="1.9753910">
        <ele>52.0</ele>
        <time>2021-05-09T09:40:12Z</time>
      </trkpt>
      <trkpt lat="41.4614610" lon="1.9754940">
        <ele>52.6</ele>
        <time>2021-05-09T09:40:18Z</time>
      </trkpt>
      <trkpt lat="41.4612640" lon="1.9756170">
        <ele>52.4</ele>
        <time>2021-05-09T09:40:25Z</time>
      </trkpt>
      <trkpt lat="41.4610420" lon="1.9757680">
        <ele>52.6</ele>
        <time>2021-05-09T09:40:33Z</time>
      </trkpt>
      <trkpt lat="41.4607780" lon="1.9759130">
        <ele>52.8</ele>
        <time>2021-05-09T09:40:41Z</time>
      </trkpt>
      <trkpt lat="41.4604220" lon="1.9760900">
        <ele>52.6</ele>
        <time>2021-05-09T09:40:50Z</time>
      </trkpt>
      <trkpt lat="41.4600230" lon="1.9762530">
        <ele>53.4</ele>
        <time>2021-05-09T09:41:00Z</time>
      </trkpt>
      <trkpt lat="41.4597120" lon="1.9763770">
        <ele>52.2</ele>
        <time>2021-05-09T09:41:08Z</time>
      </trkpt>
      <trkpt lat="41.4594570" lon="1.9764840">
        <ele>52.6</ele>
        <time>2021-05-09T09:41:15Z</time>
      </trkpt>
      <trkpt lat="41.4591420" lon="1.9766100">
        <ele>52.4</ele>
        <time>2021-05-09T09:41:23Z</time>
      </trkpt>
      <trkpt lat="41.4588580" lon="1.9767030">
        <ele>52.4</ele>
        <time>2021-05-09T09:41:30Z</time>
      </trkpt>
      <trkpt lat="41.4586980" lon="1.9767550">
        <ele>52.2</ele>
        <time>2021-05-09T09:41:34Z</time>
      </trkpt>
      <trkpt lat="41.4586170" lon="1.9767780">
        <ele>52.2</ele>
        <time>2021-05-09T09:41:36Z</time>
      </trkpt>
      <trkpt lat="41.4585370" lon="1.9767900">
        <ele>52.2</ele>
        <time>2021-05-09T09:41:38Z</time>
      </trkpt>
      <trkpt lat="41.4584180" lon="1.9768180">
        <ele>52.4</ele>
        <time>2021-05-09T09:41:41Z</time>
      </trkpt>
      <trkpt lat="41.4583060" lon="1.9768440">
        <ele>52.2</ele>
        <time>2021-05-09T09:41:44Z</time>
      </trkpt>
      <trkpt lat="41.4581240" lon="1.9768910">
        <ele>52.2</ele>
        <time>2021-05-09T09:41:49Z</time>
      </trkpt>
      <trkpt lat="41.4578730" lon="1.9769610">
        <ele>52.4</ele>
        <time>2021-05-09T09:41:56Z</time>
      </trkpt>
      <trkpt lat="41.4576290" lon="1.9770080">
        <ele>52.4</ele>
        <time>2021-05-09T09:42:02Z</time>
      </trkpt>
      <trkpt lat="41.4573450" lon="1.9770600">
        <ele>52.0</ele>
        <time>2021-05-09T09:42:09Z</time>
      </trkpt>
      <trkpt lat="41.4570630" lon="1.9771100">
        <ele>52.2</ele>
        <time>2021-05-09T09:42:16Z</time>
      </trkpt>
      <trkpt lat="41.4568740" lon="1.9771330">
        <ele>52.6</ele>
        <time>2021-05-09T09:42:22Z</time>
      </trkpt>
      <trkpt lat="41.4567090" lon="1.9771560">
        <ele>51.8</ele>
        <time>2021-05-09T09:42:27Z</time>
      </trkpt>
      <trkpt lat="41.4564960" lon="1.9772000">
        <ele>52.2</ele>
        <time>2021-05-09T09:42:33Z</time>
      </trkpt>
      <trkpt lat="41.4563150" lon="1.9772190">
        <ele>52.4</ele>
        <time>2021-05-09T09:42:38Z</time>
      </trkpt>
      <trkpt lat="41.4560180" lon="1.9772640">
        <ele>52.6</ele>
        <time>2021-05-09T09:42:46Z</time>
      </trkpt>
      <trkpt lat="41.4557640" lon="1.9773000">
        <ele>52.0</ele>
        <time>2021-05-09T09:42:53Z</time>
      </trkpt>
      <trkpt lat="41.4555360" lon="1.9773380">
        <ele>51.8</ele>
        <time>2021-05-09T09:43:00Z</time>
      </trkpt>
      <trkpt lat="41.4552410" lon="1.9773710">
        <ele>52.4</ele>
        <time>2021-05-09T09:43:09Z</time>
      </trkpt>
      <trkpt lat="41.4550310" lon="1.9773920">
        <ele>52.0</ele>
        <time>2021-05-09T09:43:15Z</time>
      </trkpt>
      <trkpt lat="41.4547950" lon="1.9774310">
        <ele>52.4</ele>
        <time>2021-05-09T09:43:21Z</time>
      </trkpt>
      <trkpt lat="41.4545640" lon="1.9775160">
        <ele>51.8</ele>
        <time>2021-05-09T09:43:27Z</time>
      </trkpt>
      <trkpt lat="41.4543170" lon="1.9775770">
        <ele>52.6</ele>
        <time>2021-05-09T09:43:34Z</time>
      </trkpt>
      <trkpt lat="41.4540130" lon="1.9775390">
        <ele>52.6</ele>
        <time>2021-05-09T09:43:42Z</time>
      </trkpt>
      <trkpt lat="41.4537710" lon="1.9775690">
        <ele>52.8</ele>
        <time>2021-05-09T09:43:48Z</time>
      </trkpt>
      <trkpt lat="41.4537310" lon="1.9775800">
        <ele>52.8</ele>
        <time>2021-05-09T09:43:49Z</time>
      </trkpt>
      <trkpt lat="41.4533980" lon="1.9776530">
        <ele>52.2</ele>
        <time>2021-05-09T09:43:58Z</time>
      </trkpt>
      <trkpt lat="41.4532370" lon="1.9776810">
        <ele>52.2</ele>
        <time>2021-05-09T09:44:03Z</time>
      </trkpt>
      <trkpt lat="41.4531560" lon="1.9776930">
        <ele>52.2</ele>
        <time>2021-05-09T09:44:05Z</time>
      </trkpt>
      <trkpt lat="41.4530690" lon="1.9777090">
        <ele>52.2</ele>
        <time>2021-05-09T09:44:07Z</time>
      </trkpt>
      <trkpt lat="41.4529360" lon="1.9777720">
        <ele>52.0</ele>
        <time>2021-05-09T09:44:11Z</time>
      </trkpt>
      <trkpt lat="41.4527880" lon="1.9779460">
        <ele>53.6</ele>
        <time>2021-05-09T09:44:17Z</time>
      </trkpt>
      <trkpt lat="41.4527630" lon="1.9779770">
        <ele>53.6</ele>
        <time>2021-05-09T09:44:18Z</time>
      </trkpt>
      <trkpt lat="41.4525780" lon="1.9781020">
        <ele>54.2</ele>
        <time>2021-05-09T09:44:24Z</time>
      </trkpt>
      <trkpt lat="41.4523520" lon="1.9781570">
        <ele>54.0</ele>
        <time>2021-05-09T09:44:30Z</time>
      </trkpt>
      <trkpt lat="41.4520650" lon="1.9781190">
        <ele>53.6</ele>
        <time>2021-05-09T09:44:38Z</time>
      </trkpt>
      <trkpt lat="41.4517500" lon="1.9781340">
        <ele>52.6</ele>
        <time>2021-05-09T09:44:46Z</time>
      </trkpt>
      <trkpt lat="41.4514190" lon="1.9782430">
        <ele>52.8</ele>
        <time>2021-05-09T09:44:55Z</time>
      </trkpt>
      <trkpt lat="41.4510920" lon="1.9783610">
        <ele>52.6</ele>
        <time>2021-05-09T09:45:04Z</time>
      </trkpt>
      <trkpt lat="41.4509030" lon="1.9784570">
        <ele>52.2</ele>
        <time>2021-05-09T09:45:09Z</time>
      </trkpt>
      <trkpt lat="41.4508560" lon="1.9784770">
        <ele>52.2</ele>
        <time>2021-05-09T09:45:10Z</time>
      </trkpt>
      <trkpt lat="41.4506320" lon="1.9785930">
        <ele>52.0</ele>
        <time>2021-05-09T09:45:16Z</time>
      </trkpt>
      <trkpt lat="41.4505070" lon="1.9786670">
        <ele>51.8</ele>
        <time>2021-05-09T09:45:20Z</time>
      </trkpt>
      <trkpt lat="41.4504570" lon="1.9787050">
        <ele>51.6</ele>
        <time>2021-05-09T09:45:22Z</time>
      </trkpt>
      <trkpt lat="41.4503030" lon="1.9787890">
        <ele>52.2</ele>
        <time>2021-05-09T09:45:28Z</time>
      </trkpt>
      <trkpt lat="41.4500310" lon="1.9789550">
        <ele>51.6</ele>
        <time>2021-05-09T09:45:36Z</time>
      </trkpt>
      <trkpt lat="41.4497910" lon="1.9790990">
        <ele>51.8</ele>
        <time>2021-05-09T09:45:43Z</time>
      </trkpt>
      <trkpt lat="41.4494930" lon="1.9792800">
        <ele>51.6</ele>
        <time>2021-05-09T09:45:51Z</time>
      </trkpt>
      <trkpt lat="41.4492960" lon="1.9794010">
        <ele>51.8</ele>
        <time>2021-05-09T09:45:56Z</time>
      </trkpt>
      <trkpt lat="41.4492600" lon="1.9794310">
        <ele>51.8</ele>
        <time>2021-05-09T09:45:57Z</time>
      </trkpt>
      <trkpt lat="41.4490160" lon="1.9796040">
        <ele>50.6</ele>
        <time>2021-05-09T09:46:04Z</time>
      </trkpt>
      <trkpt lat="41.4488970" lon="1.9796630">
        <ele>50.6</ele>
        <time>2021-05-09T09:46:07Z</time>
      </trkpt>
      <trkpt lat="41.4487930" lon="1.9797410">
        <ele>50.4</ele>
        <time>2021-05-09T09:46:10Z</time>
      </trkpt>
      <trkpt lat="41.4485890" lon="1.9799380">
        <ele>50.0</ele>
        <time>2021-05-09T09:46:17Z</time>
      </trkpt>
      <trkpt lat="41.4484660" lon="1.9801190">
        <ele>50.0</ele>
        <time>2021-05-09T09:46:23Z</time>
      </trkpt>
      <trkpt lat="41.4482870" lon="1.9803380">
        <ele>50.4</ele>
        <time>2021-05-09T09:46:30Z</time>
      </trkpt>
      <trkpt lat="41.4480030" lon="1.9806140">
        <ele>50.2</ele>
        <time>2021-05-09T09:46:39Z</time>
      </trkpt>
      <trkpt lat="41.4477810" lon="1.9808330">
        <ele>50.6</ele>
        <time>2021-05-09T09:46:46Z</time>
      </trkpt>
      <trkpt lat="41.4476250" lon="1.9809680">
        <ele>50.6</ele>
        <time>2021-05-09T09:46:51Z</time>
      </trkpt>
      <trkpt lat="41.4474270" lon="1.9811720">
        <ele>50.4</ele>
        <time>2021-05-09T09:46:57Z</time>
      </trkpt>
      <trkpt lat="41.4472770" lon="1.9813340">
        <ele>49.8</ele>
        <time>2021-05-09T09:47:02Z</time>
      </trkpt>
      <trkpt lat="41.4472130" lon="1.9814110">
        <ele>49.6</ele>
        <time>2021-05-09T09:47:04Z</time>
      </trkpt>
      <trkpt lat="41.4470900" lon="1.9815440">
        <ele>49.8</ele>
        <time>2021-05-09T09:47:08Z</time>
      </trkpt>
      <trkpt lat="41.4468780" lon="1.9818040">
        <ele>50.0</ele>
        <time>2021-05-09T09:47:15Z</time>
      </trkpt>
      <trkpt lat="41.4467150" lon="1.9820400">
        <ele>49.2</ele>
        <time>2021-05-09T09:47:21Z</time>
      </trkpt>
      <trkpt lat="41.4465620" lon="1.9822510">
        <ele>49.2</ele>
        <time>2021-05-09T09:47:27Z</time>
      </trkpt>
      <trkpt lat="41.4463390" lon="1.9825510">
        <ele>48.8</ele>
        <time>2021-05-09T09:47:35Z</time>
      </trkpt>
      <trkpt lat="41.4461530" lon="1.9827780">
        <ele>48.8</ele>
        <time>2021-05-09T09:47:41Z</time>
      </trkpt>
      <trkpt lat="41.4459340" lon="1.9830030">
        <ele>49.0</ele>
        <time>2021-05-09T09:47:48Z</time>
      </trkpt>
      <trkpt lat="41.4458380" lon="1.9831180">
        <ele>48.4</ele>
        <time>2021-05-09T09:47:51Z</time>
      </trkpt>
      <trkpt lat="41.4457640" lon="1.9832240">
        <ele>48.4</ele>
        <time>2021-05-09T09:47:54Z</time>
      </trkpt>
      <trkpt lat="41.4456790" lon="1.9833870">
        <ele>47.6</ele>
        <time>2021-05-09T09:47:59Z</time>
      </trkpt>
      <trkpt lat="41.4456610" lon="1.9834270">
        <ele>47.4</ele>
        <time>2021-05-09T09:48:00Z</time>
      </trkpt>
      <trkpt lat="41.4455460" lon="1.9835870">
        <ele>47.4</ele>
        <time>2021-05-09T09:48:04Z</time>
      </trkpt>
      <trkpt lat="41.4453640" lon="1.9838060">
        <ele>47.4</ele>
        <time>2021-05-09T09:48:10Z</time>
      </trkpt>
      <trkpt lat="41.4452550" lon="1.9839670">
        <ele>47.6</ele>
        <time>2021-05-09T09:48:15Z</time>
      </trkpt>
      <trkpt lat="41.4451030" lon="1.9841740">
        <ele>47.2</ele>
        <time>2021-05-09T09:48:21Z</time>
      </trkpt>
      <trkpt lat="41.4449910" lon="1.9843100">
        <ele>46.6</ele>
        <time>2021-05-09T09:48:25Z</time>
      </trkpt>
      <trkpt lat="41.4449640" lon="1.9843430">
        <ele>46.6</ele>
        <time>2021-05-09T09:48:26Z</time>
      </trkpt>
      <trkpt lat="41.4448100" lon="1.9845310">
        <ele>47.2</ele>
        <time>2021-05-09T09:48:31Z</time>
      </trkpt>
      <trkpt lat="41.4446780" lon="1.9846930">
        <ele>46.8</ele>
        <time>2021-05-09T09:48:37Z</time>
      </trkpt>
      <trkpt lat="41.4445850" lon="1.9848230">
        <ele>47.0</ele>
        <time>2021-05-09T09:48:42Z</time>
      </trkpt>
      <trkpt lat="41.4444430" lon="1.9850410">
        <ele>47.0</ele>
        <time>2021-05-09T09:48:48Z</time>
      </trkpt>
      <trkpt lat="41.4442900" lon="1.9852440">
        <ele>47.2</ele>
        <time>2021-05-09T09:48:54Z</time>
      </trkpt>
      <trkpt lat="41.4442070" lon="1.9853500">
        <ele>46.6</ele>
        <time>2021-05-09T09:48:58Z</time>
      </trkpt>
      <trkpt lat="41.4440980" lon="1.9854800">
        <ele>46.4</ele>
        <time>2021-05-09T09:49:03Z</time>
      </trkpt>
      <trkpt lat="41.4439500" lon="1.9856780">
        <ele>46.4</ele>
        <time>2021-05-09T09:49:09Z</time>
      </trkpt>
      <trkpt lat="41.4437990" lon="1.9858770">
        <ele>46.4</ele>
        <time>2021-05-09T09:49:15Z</time>
      </trkpt>
      <trkpt lat="41.4436940" lon="1.9860280">
        <ele>46.4</ele>
        <time>2021-05-09T09:49:20Z</time>
      </trkpt>
      <trkpt lat="41.4435380" lon="1.9862640">
        <ele>46.6</ele>
        <time>2021-05-09T09:49:27Z</time>
      </trkpt>
      <trkpt lat="41.4433410" lon="1.9865420">
        <ele>46.4</ele>
        <time>2021-05-09T09:49:34Z</time>
      </trkpt>
      <trkpt lat="41.4431860" lon="1.9867580">
        <ele>46.4</ele>
        <time>2021-05-09T09:49:40Z</time>
      </trkpt>
      <trkpt lat="41.4430950" lon="1.9869080">
        <ele>46.2</ele>
        <time>2021-05-09T09:49:44Z</time>
      </trkpt>
      <trkpt lat="41.4429630" lon="1.9870890">
        <ele>46.2</ele>
        <time>2021-05-09T09:49:50Z</time>
      </trkpt>
      <trkpt lat="41.4428780" lon="1.9872110">
        <ele>46.6</ele>
        <time>2021-05-09T09:49:54Z</time>
      </trkpt>
      <trkpt lat="41.4427400" lon="1.9874100">
        <ele>46.8</ele>
        <time>2021-05-09T09:49:59Z</time>
      </trkpt>
      <trkpt lat="41.4425940" lon="1.9876340">
        <ele>46.8</ele>
        <time>2021-05-09T09:50:05Z</time>
      </trkpt>
      <trkpt lat="41.4424450" lon="1.9878470">
        <ele>46.8</ele>
        <time>2021-05-09T09:50:11Z</time>
      </trkpt>
      <trkpt lat="41.4422850" lon="1.9880740">
        <ele>46.6</ele>
        <time>2021-05-09T09:50:18Z</time>
      </trkpt>
      <trkpt lat="41.4421290" lon="1.9883070">
        <ele>46.2</ele>
        <time>2021-05-09T09:50:24Z</time>
      </trkpt>
      <trkpt lat="41.4420760" lon="1.9884830">
        <ele>46.2</ele>
        <time>2021-05-09T09:50:29Z</time>
      </trkpt>
      <trkpt lat="41.4420440" lon="1.9885740">
        <ele>46.6</ele>
        <time>2021-05-09T09:50:33Z</time>
      </trkpt>
      <trkpt lat="41.4419910" lon="1.9887230">
        <ele>46.8</ele>
        <time>2021-05-09T09:50:39Z</time>
      </trkpt>
      <trkpt lat="41.4419570" lon="1.9887800">
        <ele>47.4</ele>
        <time>2021-05-09T09:50:41Z</time>
      </trkpt>
      <trkpt lat="41.4418940" lon="1.9888840">
        <ele>48.4</ele>
        <time>2021-05-09T09:50:45Z</time>
      </trkpt>
      <trkpt lat="41.4418350" lon="1.9889650">
        <ele>48.4</ele>
        <time>2021-05-09T09:50:48Z</time>
      </trkpt>
      <trkpt lat="41.4417550" lon="1.9890440">
        <ele>48.6</ele>
        <time>2021-05-09T09:50:51Z</time>
      </trkpt>
      <trkpt lat="41.4416080" lon="1.9891790">
        <ele>48.4</ele>
        <time>2021-05-09T09:50:57Z</time>
      </trkpt>
      <trkpt lat="41.4414620" lon="1.9893000">
        <ele>48.2</ele>
        <time>2021-05-09T09:51:03Z</time>
      </trkpt>
      <trkpt lat="41.4413100" lon="1.9894660">
        <ele>48.8</ele>
        <time>2021-05-09T09:51:09Z</time>
      </trkpt>
      <trkpt lat="41.4412530" lon="1.9895380">
        <ele>49.8</ele>
        <time>2021-05-09T09:51:12Z</time>
      </trkpt>
      <trkpt lat="41.4411520" lon="1.9896770">
        <ele>50.6</ele>
        <time>2021-05-09T09:51:17Z</time>
      </trkpt>
      <trkpt lat="41.4411120" lon="1.9897290">
        <ele>50.8</ele>
        <time>2021-05-09T09:51:19Z</time>
      </trkpt>
      <trkpt lat="41.4410040" lon="1.9898800">
        <ele>50.6</ele>
        <time>2021-05-09T09:51:25Z</time>
      </trkpt>
      <trkpt lat="41.4408990" lon="1.9900380">
        <ele>50.6</ele>
        <time>2021-05-09T09:51:30Z</time>
      </trkpt>
      <trkpt lat="41.4407510" lon="1.9902510">
        <ele>51.2</ele>
        <time>2021-05-09T09:51:36Z</time>
      </trkpt>
      <trkpt lat="41.4407210" lon="1.9902940">
        <ele>51.2</ele>
        <time>2021-05-09T09:51:37Z</time>
      </trkpt>
      <trkpt lat="41.4405760" lon="1.9905020">
        <ele>50.8</ele>
        <time>2021-05-09T09:51:42Z</time>
      </trkpt>
      <trkpt lat="41.4403920" lon="1.9907600">
        <ele>50.6</ele>
        <time>2021-05-09T09:51:49Z</time>
      </trkpt>
      <trkpt lat="41.4401750" lon="1.9910260">
        <ele>51.0</ele>
        <time>2021-05-09T09:51:57Z</time>
      </trkpt>
      <trkpt lat="41.4399280" lon="1.9913310">
        <ele>50.0</ele>
        <time>2021-05-09T09:52:05Z</time>
      </trkpt>
      <trkpt lat="41.4397110" lon="1.9916110">
        <ele>49.8</ele>
        <time>2021-05-09T09:52:12Z</time>
      </trkpt>
      <trkpt lat="41.4396780" lon="1.9916550">
        <ele>49.6</ele>
        <time>2021-05-09T09:52:13Z</time>
      </trkpt>
      <trkpt lat="41.4394420" lon="1.9919410">
        <ele>48.8</ele>
        <time>2021-05-09T09:52:20Z</time>
      </trkpt>
      <trkpt lat="41.4393760" lon="1.9920090">
        <ele>48.8</ele>
        <time>2021-05-09T09:52:22Z</time>
      </trkpt>
      <trkpt lat="41.4392520" lon="1.9921200">
        <ele>49.0</ele>
        <time>2021-05-09T09:52:26Z</time>
      </trkpt>
      <trkpt lat="41.4392230" lon="1.9921610">
        <ele>49.2</ele>
        <time>2021-05-09T09:52:27Z</time>
      </trkpt>
      <trkpt lat="41.4391320" lon="1.9923250">
        <ele>49.0</ele>
        <time>2021-05-09T09:52:31Z</time>
      </trkpt>
      <trkpt lat="41.4391030" lon="1.9923650">
        <ele>48.8</ele>
        <time>2021-05-09T09:52:32Z</time>
      </trkpt>
      <trkpt lat="41.4388930" lon="1.9926330">
        <ele>47.8</ele>
        <time>2021-05-09T09:52:39Z</time>
      </trkpt>
      <trkpt lat="41.4386690" lon="1.9929120">
        <ele>48.2</ele>
        <time>2021-05-09T09:52:47Z</time>
      </trkpt>
      <trkpt lat="41.4385320" lon="1.9931070">
        <ele>47.8</ele>
        <time>2021-05-09T09:52:53Z</time>
      </trkpt>
      <trkpt lat="41.4385080" lon="1.9931340">
        <ele>47.6</ele>
        <time>2021-05-09T09:52:54Z</time>
      </trkpt>
      <trkpt lat="41.4383860" lon="1.9932740">
        <ele>47.2</ele>
        <time>2021-05-09T09:52:59Z</time>
      </trkpt>
      <trkpt lat="41.4382970" lon="1.9934200">
        <ele>46.8</ele>
        <time>2021-05-09T09:53:04Z</time>
      </trkpt>
      <trkpt lat="41.4382930" lon="1.9935030">
        <ele>47.4</ele>
        <time>2021-05-09T09:53:06Z</time>
      </trkpt>
      <trkpt lat="41.4383010" lon="1.9935780">
        <ele>47.4</ele>
        <time>2021-05-09T09:53:08Z</time>
      </trkpt>
      <trkpt lat="41.4383880" lon="1.9938520">
        <ele>47.4</ele>
        <time>2021-05-09T09:53:16Z</time>
      </trkpt>
      <trkpt lat="41.4384800" lon="1.9940360">
        <ele>47.4</ele>
        <time>2021-05-09T09:53:22Z</time>
      </trkpt>
      <trkpt lat="41.4385070" lon="1.9942690">
        <ele>46.8</ele>
        <time>2021-05-09T09:53:28Z</time>
      </trkpt>
      <trkpt lat="41.4384680" lon="1.9944350">
        <ele>47.0</ele>
        <time>2021-05-09T09:53:33Z</time>
      </trkpt>
      <trkpt lat="41.4384220" lon="1.9946840">
        <ele>47.2</ele>
        <time>2021-05-09T09:53:39Z</time>
      </trkpt>
      <trkpt lat="41.4383520" lon="1.9950010">
        <ele>47.6</ele>
        <time>2021-05-09T09:53:46Z</time>
      </trkpt>
      <trkpt lat="41.4382610" lon="1.9951450">
        <ele>47.2</ele>
        <time>2021-05-09T09:53:51Z</time>
      </trkpt>
      <trkpt lat="41.4381930" lon="1.9953160">
        <ele>46.8</ele>
        <time>2021-05-09T09:53:57Z</time>
      </trkpt>
      <trkpt lat="41.4381820" lon="1.9953580">
        <ele>46.6</ele>
        <time>2021-05-09T09:53:58Z</time>
      </trkpt>
      <trkpt lat="41.4381560" lon="1.9954910">
        <ele>45.4</ele>
        <time>2021-05-09T09:54:01Z</time>
      </trkpt>
      <trkpt lat="41.4381500" lon="1.9955310">
        <ele>45.2</ele>
        <time>2021-05-09T09:54:02Z</time>
      </trkpt>
      <trkpt lat="41.4381450" lon="1.9955810">
        <ele>44.4</ele>
        <time>2021-05-09T09:54:06Z</time>
      </trkpt>
      <trkpt lat="41.4381460" lon="1.9955810">
        <ele>44.6</ele>
        <time>2021-05-09T09:54:07Z</time>
      </trkpt>
      <trkpt lat="41.4379190" lon="1.9960570">
        <ele>46.8</ele>
        <time>2021-05-09T09:56:33Z</time>
      </trkpt>
      <trkpt lat="41.4378920" lon="1.9960670">
        <ele>46.8</ele>
        <time>2021-05-09T09:56:36Z</time>
      </trkpt>
      <trkpt lat="41.4378040" lon="1.9960640">
        <ele>46.6</ele>
        <time>2021-05-09T09:56:42Z</time>
      </trkpt>
      <trkpt lat="41.4376800" lon="1.9960380">
        <ele>47.0</ele>
        <time>2021-05-09T09:56:50Z</time>
      </trkpt>
      <trkpt lat="41.4375810" lon="1.9960090">
        <ele>47.2</ele>
        <time>2021-05-09T09:56:56Z</time>
      </trkpt>
      <trkpt lat="41.4374760" lon="1.9959800">
        <ele>46.8</ele>
        <time>2021-05-09T09:57:03Z</time>
      </trkpt>
      <trkpt lat="41.4373150" lon="1.9959470">
        <ele>46.6</ele>
        <time>2021-05-09T09:57:11Z</time>
      </trkpt>
      <trkpt lat="41.4371210" lon="1.9958910">
        <ele>46.4</ele>
        <time>2021-05-09T09:57:18Z</time>
      </trkpt>
      <trkpt lat="41.4370050" lon="1.9958760">
        <ele>46.2</ele>
        <time>2021-05-09T09:57:23Z</time>
      </trkpt>
      <trkpt lat="41.4369990" lon="1.9958700">
        <ele>46.4</ele>
        <time>2021-05-09T09:57:25Z</time>
      </trkpt>
      <trkpt lat="41.4369620" lon="1.9958200">
        <ele>45.6</ele>
        <time>2021-05-09T09:58:15Z</time>
      </trkpt>
      <trkpt lat="41.4369160" lon="1.9957830">
        <ele>45.6</ele>
        <time>2021-05-09T09:58:19Z</time>
      </trkpt>
      <trkpt lat="41.4369760" lon="1.9958280">
        <ele>45.8</ele>
        <time>2021-05-09T09:58:26Z</time>
      </trkpt>
      <trkpt lat="41.4369990" lon="1.9958530">
        <ele>45.6</ele>
        <time>2021-05-09T09:58:28Z</time>
      </trkpt>
      <trkpt lat="41.4369930" lon="1.9958970">
        <ele>45.4</ele>
        <time>2021-05-09T09:58:31Z</time>
      </trkpt>
      <trkpt lat="41.4369740" lon="1.9959120">
        <ele>45.4</ele>
        <time>2021-05-09T09:58:32Z</time>
      </trkpt>
      <trkpt lat="41.4368710" lon="1.9960010">
        <ele>45.4</ele>
        <time>2021-05-09T09:58:36Z</time>
      </trkpt>
      <trkpt lat="41.4368530" lon="1.9960240">
        <ele>45.6</ele>
        <time>2021-05-09T09:58:37Z</time>
      </trkpt>
      <trkpt lat="41.4368190" lon="1.9960660">
        <ele>46.6</ele>
        <time>2021-05-09T09:58:40Z</time>
      </trkpt>
      <trkpt lat="41.4367960" lon="1.9960880">
        <ele>47.2</ele>
        <time>2021-05-09T09:58:43Z</time>
      </trkpt>
      <trkpt lat="41.4367920" lon="1.9960900">
        <ele>47.4</ele>
        <time>2021-05-09T09:58:45Z</time>
      </trkpt>
      <trkpt lat="41.4367550" lon="1.9960860">
        <ele>47.4</ele>
        <time>2021-05-09T09:59:09Z</time>
      </trkpt>
      <trkpt lat="41.4367360" lon="1.9960860">
        <ele>47.4</ele>
        <time>2021-05-09T09:59:10Z</time>
      </trkpt>
      <trkpt lat="41.4366280" lon="1.9960720">
        <ele>47.0</ele>
        <time>2021-05-09T09:59:16Z</time>
      </trkpt>
      <trkpt lat="41.4364260" lon="1.9960420">
        <ele>47.0</ele>
        <time>2021-05-09T09:59:27Z</time>
      </trkpt>
      <trkpt lat="41.4362890" lon="1.9960240">
        <ele>47.6</ele>
        <time>2021-05-09T09:59:34Z</time>
      </trkpt>
      <trkpt lat="41.4362570" lon="1.9960080">
        <ele>47.6</ele>
        <time>2021-05-09T09:59:36Z</time>
      </trkpt>
      <trkpt lat="41.4362480" lon="1.9959920">
        <ele>47.4</ele>
        <time>2021-05-09T09:59:37Z</time>
      </trkpt>
      <trkpt lat="41.4362380" lon="1.9958980">
        <ele>47.0</ele>
        <time>2021-05-09T09:59:40Z</time>
      </trkpt>
      <trkpt lat="41.4362250" lon="1.9957600">
        <ele>46.0</ele>
        <time>2021-05-09T09:59:43Z</time>
      </trkpt>
      <trkpt lat="41.4362220" lon="1.9957260">
        <ele>45.6</ele>
        <time>2021-05-09T09:59:44Z</time>
      </trkpt>
      <trkpt lat="41.4362180" lon="1.9957090">
        <ele>45.0</ele>
        <time>2021-05-09T09:59:45Z</time>
      </trkpt>
      <trkpt lat="41.4362070" lon="1.9956930">
        <ele>44.6</ele>
        <time>2021-05-09T09:59:47Z</time>
      </trkpt>
      <trkpt lat="41.4362070" lon="1.9956630">
        <ele>44.6</ele>
        <time>2021-05-09T09:59:48Z</time>
      </trkpt>
      <trkpt lat="41.4362190" lon="1.9955380">
        <ele>43.8</ele>
        <time>2021-05-09T09:59:51Z</time>
      </trkpt>
      <trkpt lat="41.4362260" lon="1.9955140">
        <ele>42.6</ele>
        <time>2021-05-09T09:59:52Z</time>
      </trkpt>
      <trkpt lat="41.4362250" lon="1.9955180">
        <ele>41.2</ele>
        <time>2021-05-09T09:59:54Z</time>
      </trkpt>
      <trkpt lat="41.4361150" lon="1.9954770">
        <ele>39.8</ele>
        <time>2021-05-09T10:01:20Z</time>
      </trkpt>
      <trkpt lat="41.4360720" lon="1.9954680">
        <ele>39.8</ele>
        <time>2021-05-09T10:01:22Z</time>
      </trkpt>
      <trkpt lat="41.4360220" lon="1.9954830">
        <ele>39.8</ele>
        <time>2021-05-09T10:01:24Z</time>
      </trkpt>
      <trkpt lat="41.4359280" lon="1.9955280">
        <ele>39.8</ele>
        <time>2021-05-09T10:01:27Z</time>
      </trkpt>
      <trkpt lat="41.4357790" lon="1.9955720">
        <ele>39.6</ele>
        <time>2021-05-09T10:01:32Z</time>
      </trkpt>
      <trkpt lat="41.4356200" lon="1.9956450">
        <ele>39.6</ele>
        <time>2021-05-09T10:01:37Z</time>
      </trkpt>
      <trkpt lat="41.4354930" lon="1.9957550">
        <ele>39.8</ele>
        <time>2021-05-09T10:01:42Z</time>
      </trkpt>
      <trkpt lat="41.4353280" lon="1.9958620">
        <ele>39.6</ele>
        <time>2021-05-09T10:01:47Z</time>
      </trkpt>
      <trkpt lat="41.4352090" lon="1.9959560">
        <ele>39.0</ele>
        <time>2021-05-09T10:01:52Z</time>
      </trkpt>
      <trkpt lat="41.4351680" lon="1.9960750">
        <ele>39.6</ele>
        <time>2021-05-09T10:01:56Z</time>
      </trkpt>
      <trkpt lat="41.4350840" lon="1.9962600">
        <ele>40.2</ele>
        <time>2021-05-09T10:02:02Z</time>
      </trkpt>
      <trkpt lat="41.4350460" lon="1.9963000">
        <ele>39.6</ele>
        <time>2021-05-09T10:02:07Z</time>
      </trkpt>
      <trkpt lat="41.4350470" lon="1.9962960">
        <ele>39.4</ele>
        <time>2021-05-09T10:02:08Z</time>
      </trkpt>
      <trkpt lat="41.4349440" lon="1.9964920">
        <ele>39.6</ele>
        <time>2021-05-09T10:02:31Z</time>
      </trkpt>
      <trkpt lat="41.4349170" lon="1.9965370">
        <ele>40.0</ele>
        <time>2021-05-09T10:02:33Z</time>
      </trkpt>
      <trkpt lat="41.4348860" lon="1.9966180">
        <ele>40.0</ele>
        <time>2021-05-09T10:02:36Z</time>
      </trkpt>
      <trkpt lat="41.4348340" lon="1.9968290">
        <ele>40.4</ele>
        <time>2021-05-09T10:02:42Z</time>
      </trkpt>
      <trkpt lat="41.4348110" lon="1.9969190">
        <ele>40.8</ele>
        <time>2021-05-09T10:02:45Z</time>
      </trkpt>
      <trkpt lat="41.4347740" lon="1.9969660">
        <ele>40.6</ele>
        <time>2021-05-09T10:02:47Z</time>
      </trkpt>
      <trkpt lat="41.4346200" lon="1.9970380">
        <ele>40.6</ele>
        <time>2021-05-09T10:02:52Z</time>
      </trkpt>
      <trkpt lat="41.4344560" lon="1.9971160">
        <ele>40.4</ele>
        <time>2021-05-09T10:02:58Z</time>
      </trkpt>
      <trkpt lat="41.4343410" lon="1.9972010">
        <ele>40.4</ele>
        <time>2021-05-09T10:03:04Z</time>
      </trkpt>
      <trkpt lat="41.4342250" lon="1.9972490">
        <ele>40.0</ele>
        <time>2021-05-09T10:03:10Z</time>
      </trkpt>
      <trkpt lat="41.4341000" lon="1.9973190">
        <ele>41.0</ele>
        <time>2021-05-09T10:03:17Z</time>
      </trkpt>
      <trkpt lat="41.4339710" lon="1.9973630">
        <ele>41.0</ele>
        <time>2021-05-09T10:03:24Z</time>
      </trkpt>
      <trkpt lat="41.4338470" lon="1.9973970">
        <ele>41.0</ele>
        <time>2021-05-09T10:03:31Z</time>
      </trkpt>
      <trkpt lat="41.4337290" lon="1.9974620">
        <ele>41.6</ele>
        <time>2021-05-09T10:03:37Z</time>
      </trkpt>
      <trkpt lat="41.4336840" lon="1.9974860">
        <ele>41.6</ele>
        <time>2021-05-09T10:03:39Z</time>
      </trkpt>
      <trkpt lat="41.4334980" lon="1.9975480">
        <ele>40.8</ele>
        <time>2021-05-09T10:03:45Z</time>
      </trkpt>
      <trkpt lat="41.4333820" lon="1.9975920">
        <ele>40.6</ele>
        <time>2021-05-09T10:03:49Z</time>
      </trkpt>
      <trkpt lat="41.4333570" lon="1.9976080">
        <ele>40.6</ele>
        <time>2021-05-09T10:03:50Z</time>
      </trkpt>
      <trkpt lat="41.4332310" lon="1.9976760">
        <ele>40.6</ele>
        <time>2021-05-09T10:03:56Z</time>
      </trkpt>
      <trkpt lat="41.4331120" lon="1.9977450">
        <ele>40.8</ele>
        <time>2021-05-09T10:04:02Z</time>
      </trkpt>
      <trkpt lat="41.4329430" lon="1.9978680">
        <ele>40.8</ele>
        <time>2021-05-09T10:04:08Z</time>
      </trkpt>
      <trkpt lat="41.4327240" lon="1.9980510">
        <ele>40.4</ele>
        <time>2021-05-09T10:04:15Z</time>
      </trkpt>
      <trkpt lat="41.4326010" lon="1.9981660">
        <ele>40.4</ele>
        <time>2021-05-09T10:04:19Z</time>
      </trkpt>
      <trkpt lat="41.4325710" lon="1.9982070">
        <ele>40.4</ele>
        <time>2021-05-09T10:04:20Z</time>
      </trkpt>
      <trkpt lat="41.4324430" lon="1.9983010">
        <ele>39.8</ele>
        <time>2021-05-09T10:04:24Z</time>
      </trkpt>
      <trkpt lat="41.4323130" lon="1.9984120">
        <ele>40.8</ele>
        <time>2021-05-09T10:04:30Z</time>
      </trkpt>
      <trkpt lat="41.4321610" lon="1.9985460">
        <ele>41.0</ele>
        <time>2021-05-09T10:04:37Z</time>
      </trkpt>
      <trkpt lat="41.4321170" lon="1.9985870">
        <ele>41.6</ele>
        <time>2021-05-09T10:04:39Z</time>
      </trkpt>
      <trkpt lat="41.4320050" lon="1.9987100">
        <ele>41.6</ele>
        <time>2021-05-09T10:04:44Z</time>
      </trkpt>
      <trkpt lat="41.4318420" lon="1.9988950">
        <ele>41.6</ele>
        <time>2021-05-09T10:04:52Z</time>
      </trkpt>
      <trkpt lat="41.4317180" lon="1.9990320">
        <ele>41.8</ele>
        <time>2021-05-09T10:04:58Z</time>
      </trkpt>
      <trkpt lat="41.4316300" lon="1.9991280">
        <ele>42.4</ele>
        <time>2021-05-09T10:05:02Z</time>
      </trkpt>
      <trkpt lat="41.4315400" lon="1.9992230">
        <ele>42.8</ele>
        <time>2021-05-09T10:05:06Z</time>
      </trkpt>
      <trkpt lat="41.4313700" lon="1.9994220">
        <ele>42.2</ele>
        <time>2021-05-09T10:05:12Z</time>
      </trkpt>
      <trkpt lat="41.4312430" lon="1.9995510">
        <ele>41.0</ele>
        <time>2021-05-09T10:05:16Z</time>
      </trkpt>
      <trkpt lat="41.4311320" lon="1.9996380">
        <ele>40.4</ele>
        <time>2021-05-09T10:05:19Z</time>
      </trkpt>
      <trkpt lat="41.4309540" lon="1.9998070">
        <ele>40.2</ele>
        <time>2021-05-09T10:05:24Z</time>
      </trkpt>
      <trkpt lat="41.4308780" lon="1.9998620">
        <ele>40.4</ele>
        <time>2021-05-09T10:05:26Z</time>
      </trkpt>
      <trkpt lat="41.4307760" lon="1.9999440">
        <ele>40.8</ele>
        <time>2021-05-09T10:05:29Z</time>
      </trkpt>
      <trkpt lat="41.4306560" lon="2.0000220">
        <ele>40.0</ele>
        <time>2021-05-09T10:05:33Z</time>
      </trkpt>
      <trkpt lat="41.4306280" lon="2.0000370">
        <ele>39.8</ele>
        <time>2021-05-09T10:05:34Z</time>
      </trkpt>
      <trkpt lat="41.4305160" lon="2.0000900">
        <ele>39.6</ele>
        <time>2021-05-09T10:05:38Z</time>
      </trkpt>
      <trkpt lat="41.4303480" lon="2.0001400">
        <ele>39.4</ele>
        <time>2021-05-09T10:05:43Z</time>
      </trkpt>
      <trkpt lat="41.4301710" lon="2.0002400">
        <ele>39.0</ele>
        <time>2021-05-09T10:05:49Z</time>
      </trkpt>
      <trkpt lat="41.4301310" lon="2.0002860">
        <ele>39.0</ele>
        <time>2021-05-09T10:05:53Z</time>
      </trkpt>
      <trkpt lat="41.4300900" lon="2.0003020">
        <ele>38.8</ele>
        <time>2021-05-09T10:07:12Z</time>
      </trkpt>
      <trkpt lat="41.4300460" lon="2.0003360">
        <ele>38.8</ele>
        <time>2021-05-09T10:07:14Z</time>
      </trkpt>
      <trkpt lat="41.4299870" lon="2.0003820">
        <ele>38.6</ele>
        <time>2021-05-09T10:07:16Z</time>
      </trkpt>
      <trkpt lat="41.4298600" lon="2.0004730">
        <ele>38.6</ele>
        <time>2021-05-09T10:07:20Z</time>
      </trkpt>
      <trkpt lat="41.4296960" lon="2.0006190">
        <ele>39.0</ele>
        <time>2021-05-09T10:07:26Z</time>
      </trkpt>
      <trkpt lat="41.4295080" lon="2.0007220">
        <ele>39.2</ele>
        <time>2021-05-09T10:07:33Z</time>
      </trkpt>
      <trkpt lat="41.4293310" lon="2.0008060">
        <ele>38.4</ele>
        <time>2021-05-09T10:07:39Z</time>
      </trkpt>
      <trkpt lat="41.4291990" lon="2.0009400">
        <ele>38.0</ele>
        <time>2021-05-09T10:07:44Z</time>
      </trkpt>
      <trkpt lat="41.4290530" lon="2.0010990">
        <ele>37.8</ele>
        <time>2021-05-09T10:07:51Z</time>
      </trkpt>
      <trkpt lat="41.4289950" lon="2.0011550">
        <ele>37.4</ele>
        <time>2021-05-09T10:07:54Z</time>
      </trkpt>
      <trkpt lat="41.4289170" lon="2.0012390">
        <ele>37.2</ele>
        <time>2021-05-09T10:07:57Z</time>
      </trkpt>
      <trkpt lat="41.4287320" lon="2.0014360">
        <ele>37.8</ele>
        <time>2021-05-09T10:08:03Z</time>
      </trkpt>
      <trkpt lat="41.4286750" lon="2.0014860">
        <ele>38.6</ele>
        <time>2021-05-09T10:08:05Z</time>
      </trkpt>
      <trkpt lat="41.4286060" lon="2.0015360">
        <ele>38.8</ele>
        <time>2021-05-09T10:08:07Z</time>
      </trkpt>
      <trkpt lat="41.4284790" lon="2.0016230">
        <ele>37.8</ele>
        <time>2021-05-09T10:08:12Z</time>
      </trkpt>
      <trkpt lat="41.4284460" lon="2.0016520">
        <ele>37.6</ele>
        <time>2021-05-09T10:08:18Z</time>
      </trkpt>
      <trkpt lat="41.4283340" lon="2.0017360">
        <ele>38.2</ele>
        <time>2021-05-09T10:09:20Z</time>
      </trkpt>
      <trkpt lat="41.4282890" lon="2.0017810">
        <ele>38.2</ele>
        <time>2021-05-09T10:09:23Z</time>
      </trkpt>
      <trkpt lat="41.4282650" lon="2.0018050">
        <ele>38.2</ele>
        <time>2021-05-09T10:09:27Z</time>
      </trkpt>
      <trkpt lat="41.4282210" lon="2.0018680">
        <ele>38.4</ele>
        <time>2021-05-09T10:09:43Z</time>
      </trkpt>
      <trkpt lat="41.4281700" lon="2.0019220">
        <ele>38.6</ele>
        <time>2021-05-09T10:09:46Z</time>
      </trkpt>
      <trkpt lat="41.4281080" lon="2.0019890">
        <ele>38.4</ele>
        <time>2021-05-09T10:09:50Z</time>
      </trkpt>
      <trkpt lat="41.4280220" lon="2.0020720">
        <ele>38.4</ele>
        <time>2021-05-09T10:09:56Z</time>
      </trkpt>
      <trkpt lat="41.4279110" lon="2.0021860">
        <ele>38.8</ele>
        <time>2021-05-09T10:10:02Z</time>
      </trkpt>
      <trkpt lat="41.4278590" lon="2.0022720">
        <ele>39.8</ele>
        <time>2021-05-09T10:10:06Z</time>
      </trkpt>
      <trkpt lat="41.4278390" lon="2.0023460">
        <ele>40.6</ele>
        <time>2021-05-09T10:10:09Z</time>
      </trkpt>
      <trkpt lat="41.4278360" lon="2.0023750">
        <ele>40.8</ele>
        <time>2021-05-09T10:10:10Z</time>
      </trkpt>
      <trkpt lat="41.4278200" lon="2.0024890">
        <ele>41.2</ele>
        <time>2021-05-09T10:10:14Z</time>
      </trkpt>
      <trkpt lat="41.4278020" lon="2.0025820">
        <ele>41.2</ele>
        <time>2021-05-09T10:10:18Z</time>
      </trkpt>
      <trkpt lat="41.4277960" lon="2.0026010">
        <ele>41.2</ele>
        <time>2021-05-09T10:10:19Z</time>
      </trkpt>
      <trkpt lat="41.4277900" lon="2.0026220">
        <ele>41.2</ele>
        <time>2021-05-09T10:10:20Z</time>
      </trkpt>
      <trkpt lat="41.4276870" lon="2.0028050">
        <ele>41.4</ele>
        <time>2021-05-09T10:10:28Z</time>
      </trkpt>
      <trkpt lat="41.4276650" lon="2.0028410">
        <ele>41.4</ele>
        <time>2021-05-09T10:10:30Z</time>
      </trkpt>
      <trkpt lat="41.4276620" lon="2.0028770">
        <ele>41.2</ele>
        <time>2021-05-09T10:10:34Z</time>
      </trkpt>
      <trkpt lat="41.4276300" lon="2.0029720">
        <ele>41.2</ele>
        <time>2021-05-09T10:10:38Z</time>
      </trkpt>
      <trkpt lat="41.4276100" lon="2.0030010">
        <ele>41.4</ele>
        <time>2021-05-09T10:10:39Z</time>
      </trkpt>
      <trkpt lat="41.4275600" lon="2.0030760">
        <ele>41.2</ele>
        <time>2021-05-09T10:10:42Z</time>
      </trkpt>
      <trkpt lat="41.4275130" lon="2.0031650">
        <ele>41.0</ele>
        <time>2021-05-09T10:10:45Z</time>
      </trkpt>
      <trkpt lat="41.4274570" lon="2.0031940">
        <ele>40.6</ele>
        <time>2021-05-09T10:10:47Z</time>
      </trkpt>
      <trkpt lat="41.4273260" lon="2.0031520">
        <ele>39.8</ele>
        <time>2021-05-09T10:10:51Z</time>
      </trkpt>
      <trkpt lat="41.4272260" lon="2.0031630">
        <ele>39.2</ele>
        <time>2021-05-09T10:10:54Z</time>
      </trkpt>
      <trkpt lat="41.4271700" lon="2.0032110">
        <ele>39.0</ele>
        <time>2021-05-09T10:10:56Z</time>
      </trkpt>
      <trkpt lat="41.4270910" lon="2.0032980">
        <ele>38.4</ele>
        <time>2021-05-09T10:10:59Z</time>
      </trkpt>
      <trkpt lat="41.4270630" lon="2.0033330">
        <ele>38.2</ele>
        <time>2021-05-09T10:11:00Z</time>
      </trkpt>
      <trkpt lat="41.4269520" lon="2.0034370">
        <ele>36.8</ele>
        <time>2021-05-09T10:11:04Z</time>
      </trkpt>
      <trkpt lat="41.4269170" lon="2.0034660">
        <ele>36.6</ele>
        <time>2021-05-09T10:11:05Z</time>
      </trkpt>
      <trkpt lat="41.4268120" lon="2.0035800">
        <ele>36.8</ele>
        <time>2021-05-09T10:11:09Z</time>
      </trkpt>
      <trkpt lat="41.4267530" lon="2.0036510">
        <ele>38.0</ele>
        <time>2021-05-09T10:11:12Z</time>
      </trkpt>
      <trkpt lat="41.4266720" lon="2.0037300">
        <ele>38.6</ele>
        <time>2021-05-09T10:11:16Z</time>
      </trkpt>
      <trkpt lat="41.4266060" lon="2.0037880">
        <ele>39.0</ele>
        <time>2021-05-09T10:11:19Z</time>
      </trkpt>
      <trkpt lat="41.4265250" lon="2.0038740">
        <ele>39.6</ele>
        <time>2021-05-09T10:11:23Z</time>
      </trkpt>
      <trkpt lat="41.4263510" lon="2.0040550">
        <ele>39.0</ele>
        <time>2021-05-09T10:11:30Z</time>
      </trkpt>
      <trkpt lat="41.4261710" lon="2.0042650">
        <ele>38.8</ele>
        <time>2021-05-09T10:11:38Z</time>
      </trkpt>
      <trkpt lat="41.4260600" lon="2.0043840">
        <ele>38.6</ele>
        <time>2021-05-09T10:11:43Z</time>
      </trkpt>
      <trkpt lat="41.4259110" lon="2.0045520">
        <ele>38.6</ele>
        <time>2021-05-09T10:11:50Z</time>
      </trkpt>
      <trkpt lat="41.4258660" lon="2.0046830">
        <ele>39.8</ele>
        <time>2021-05-09T10:11:54Z</time>
      </trkpt>
      <trkpt lat="41.4258220" lon="2.0047540">
        <ele>40.6</ele>
        <time>2021-05-09T10:11:57Z</time>
      </trkpt>
      <trkpt lat="41.4256700" lon="2.0048200">
        <ele>40.6</ele>
        <time>2021-05-09T10:12:03Z</time>
      </trkpt>
      <trkpt lat="41.4254410" lon="2.0048780">
        <ele>40.4</ele>
        <time>2021-05-09T10:12:11Z</time>
      </trkpt>
      <trkpt lat="41.4252300" lon="2.0049270">
        <ele>40.4</ele>
        <time>2021-05-09T10:12:18Z</time>
      </trkpt>
      <trkpt lat="41.4250480" lon="2.0049920">
        <ele>40.4</ele>
        <time>2021-05-09T10:12:24Z</time>
      </trkpt>
      <trkpt lat="41.4248990" lon="2.0050120">
        <ele>39.8</ele>
        <time>2021-05-09T10:12:30Z</time>
      </trkpt>
      <trkpt lat="41.4247570" lon="2.0050580">
        <ele>39.8</ele>
        <time>2021-05-09T10:12:36Z</time>
      </trkpt>
      <trkpt lat="41.4245740" lon="2.0050970">
        <ele>39.8</ele>
        <time>2021-05-09T10:12:43Z</time>
      </trkpt>
      <trkpt lat="41.4243890" lon="2.0051730">
        <ele>40.2</ele>
        <time>2021-05-09T10:12:50Z</time>
      </trkpt>
      <trkpt lat="41.4241810" lon="2.0052340">
        <ele>39.6</ele>
        <time>2021-05-09T10:12:58Z</time>
      </trkpt>
      <trkpt lat="41.4239450" lon="2.0052780">
        <ele>39.8</ele>
        <time>2021-05-09T10:13:06Z</time>
      </trkpt>
      <trkpt lat="41.4237240" lon="2.0053090">
        <ele>39.8</ele>
        <time>2021-05-09T10:13:13Z</time>
      </trkpt>
      <trkpt lat="41.4235550" lon="2.0053820">
        <ele>39.2</ele>
        <time>2021-05-09T10:13:19Z</time>
      </trkpt>
      <trkpt lat="41.4233540" lon="2.0054740">
        <ele>39.4</ele>
        <time>2021-05-09T10:13:26Z</time>
      </trkpt>
      <trkpt lat="41.4231090" lon="2.0055520">
        <ele>39.0</ele>
        <time>2021-05-09T10:13:33Z</time>
      </trkpt>
      <trkpt lat="41.4228990" lon="2.0056180">
        <ele>39.2</ele>
        <time>2021-05-09T10:13:39Z</time>
      </trkpt>
      <trkpt lat="41.4227160" lon="2.0057000">
        <ele>39.4</ele>
        <time>2021-05-09T10:13:45Z</time>
      </trkpt>
      <trkpt lat="41.4225150" lon="2.0058140">
        <ele>39.2</ele>
        <time>2021-05-09T10:13:52Z</time>
      </trkpt>
      <trkpt lat="41.4222940" lon="2.0059250">
        <ele>39.0</ele>
        <time>2021-05-09T10:13:59Z</time>
      </trkpt>
      <trkpt lat="41.4221900" lon="2.0059740">
        <ele>38.6</ele>
        <time>2021-05-09T10:14:02Z</time>
      </trkpt>
      <trkpt lat="41.4220210" lon="2.0060610">
        <ele>38.6</ele>
        <time>2021-05-09T10:14:07Z</time>
      </trkpt>
      <trkpt lat="41.4217400" lon="2.0061850">
        <ele>38.6</ele>
        <time>2021-05-09T10:14:15Z</time>
      </trkpt>
      <trkpt lat="41.4214470" lon="2.0062950">
        <ele>39.0</ele>
        <time>2021-05-09T10:14:23Z</time>
      </trkpt>
      <trkpt lat="41.4210980" lon="2.0064080">
        <ele>38.8</ele>
        <time>2021-05-09T10:14:33Z</time>
      </trkpt>
      <trkpt lat="41.4207630" lon="2.0064970">
        <ele>38.4</ele>
        <time>2021-05-09T10:14:42Z</time>
      </trkpt>
      <trkpt lat="41.4204300" lon="2.0066460">
        <ele>38.0</ele>
        <time>2021-05-09T10:14:51Z</time>
      </trkpt>
      <trkpt lat="41.4200820" lon="2.0068740">
        <ele>38.8</ele>
        <time>2021-05-09T10:15:01Z</time>
      </trkpt>
      <trkpt lat="41.4197560" lon="2.0070310">
        <ele>38.8</ele>
        <time>2021-05-09T10:15:10Z</time>
      </trkpt>
      <trkpt lat="41.4194760" lon="2.0071790">
        <ele>39.0</ele>
        <time>2021-05-09T10:15:18Z</time>
      </trkpt>
      <trkpt lat="41.4191890" lon="2.0073050">
        <ele>39.0</ele>
        <time>2021-05-09T10:15:26Z</time>
      </trkpt>
      <trkpt lat="41.4190140" lon="2.0073760">
        <ele>39.0</ele>
        <time>2021-05-09T10:15:31Z</time>
      </trkpt>
      <trkpt lat="41.4189800" lon="2.0073920">
        <ele>38.8</ele>
        <time>2021-05-09T10:15:32Z</time>
      </trkpt>
      <trkpt lat="41.4187270" lon="2.0074960">
        <ele>38.0</ele>
        <time>2021-05-09T10:15:39Z</time>
      </trkpt>
      <trkpt lat="41.4184500" lon="2.0076130">
        <ele>37.8</ele>
        <time>2021-05-09T10:15:47Z</time>
      </trkpt>
      <trkpt lat="41.4183410" lon="2.0076660">
        <ele>37.4</ele>
        <time>2021-05-09T10:15:50Z</time>
      </trkpt>
      <trkpt lat="41.4181990" lon="2.0077300">
        <ele>37.2</ele>
        <time>2021-05-09T10:15:54Z</time>
      </trkpt>
      <trkpt lat="41.4179110" lon="2.0078700">
        <ele>38.0</ele>
        <time>2021-05-09T10:16:02Z</time>
      </trkpt>
      <trkpt lat="41.4177350" lon="2.0079750">
        <ele>38.2</ele>
        <time>2021-05-09T10:16:06Z</time>
      </trkpt>
      <trkpt lat="41.4175800" lon="2.0080430">
        <ele>37.0</ele>
        <time>2021-05-09T10:16:10Z</time>
      </trkpt>
      <trkpt lat="41.4173670" lon="2.0080900">
        <ele>37.2</ele>
        <time>2021-05-09T10:16:16Z</time>
      </trkpt>
      <trkpt lat="41.4170400" lon="2.0081690">
        <ele>37.2</ele>
        <time>2021-05-09T10:16:24Z</time>
      </trkpt>
      <trkpt lat="41.4167970" lon="2.0082020">
        <ele>37.4</ele>
        <time>2021-05-09T10:16:30Z</time>
      </trkpt>
      <trkpt lat="41.4165140" lon="2.0082050">
        <ele>37.4</ele>
        <time>2021-05-09T10:16:37Z</time>
      </trkpt>
      <trkpt lat="41.4163360" lon="2.0083100">
        <ele>36.6</ele>
        <time>2021-05-09T10:16:42Z</time>
      </trkpt>
      <trkpt lat="41.4161260" lon="2.0084850">
        <ele>37.0</ele>
        <time>2021-05-09T10:16:49Z</time>
      </trkpt>
      <trkpt lat="41.4159560" lon="2.0086450">
        <ele>36.6</ele>
        <time>2021-05-09T10:16:55Z</time>
      </trkpt>
      <trkpt lat="41.4157820" lon="2.0087790">
        <ele>36.6</ele>
        <time>2021-05-09T10:17:01Z</time>
      </trkpt>
      <trkpt lat="41.4156490" lon="2.0088650">
        <ele>37.0</ele>
        <time>2021-05-09T10:17:06Z</time>
      </trkpt>
      <trkpt lat="41.4155250" lon="2.0089460">
        <ele>37.4</ele>
        <time>2021-05-09T10:17:10Z</time>
      </trkpt>
      <trkpt lat="41.4152940" lon="2.0091110">
        <ele>37.4</ele>
        <time>2021-05-09T10:17:17Z</time>
      </trkpt>
      <trkpt lat="41.4149730" lon="2.0092970">
        <ele>37.2</ele>
        <time>2021-05-09T10:17:27Z</time>
      </trkpt>
      <trkpt lat="41.4148500" lon="2.0093650">
        <ele>37.4</ele>
        <time>2021-05-09T10:17:31Z</time>
      </trkpt>
      <trkpt lat="41.4146580" lon="2.0094510">
        <ele>38.0</ele>
        <time>2021-05-09T10:17:37Z</time>
      </trkpt>
      <trkpt lat="41.4144310" lon="2.0095320">
        <ele>37.6</ele>
        <time>2021-05-09T10:17:44Z</time>
      </trkpt>
      <trkpt lat="41.4141870" lon="2.0096330">
        <ele>37.4</ele>
        <time>2021-05-09T10:17:52Z</time>
      </trkpt>
      <trkpt lat="41.4138950" lon="2.0097730">
        <ele>37.0</ele>
        <time>2021-05-09T10:18:00Z</time>
      </trkpt>
      <trkpt lat="41.4135900" lon="2.0099260">
        <ele>36.4</ele>
        <time>2021-05-09T10:18:08Z</time>
      </trkpt>
      <trkpt lat="41.4132450" lon="2.0101060">
        <ele>36.4</ele>
        <time>2021-05-09T10:18:17Z</time>
      </trkpt>
      <trkpt lat="41.4131670" lon="2.0101700">
        <ele>36.2</ele>
        <time>2021-05-09T10:18:19Z</time>
      </trkpt>
      <trkpt lat="41.4130660" lon="2.0103230">
        <ele>35.8</ele>
        <time>2021-05-09T10:18:22Z</time>
      </trkpt>
      <trkpt lat="41.4130330" lon="2.0103770">
        <ele>35.6</ele>
        <time>2021-05-09T10:18:23Z</time>
      </trkpt>
      <trkpt lat="41.4129190" lon="2.0104770">
        <ele>35.2</ele>
        <time>2021-05-09T10:18:26Z</time>
      </trkpt>
      <trkpt lat="41.4128130" lon="2.0104780">
        <ele>35.2</ele>
        <time>2021-05-09T10:18:29Z</time>
      </trkpt>
      <trkpt lat="41.4127460" lon="2.0104720">
        <ele>35.4</ele>
        <time>2021-05-09T10:18:31Z</time>
      </trkpt>
      <trkpt lat="41.4125970" lon="2.0104800">
        <ele>36.2</ele>
        <time>2021-05-09T10:18:36Z</time>
      </trkpt>
      <trkpt lat="41.4125380" lon="2.0105000">
        <ele>36.4</ele>
        <time>2021-05-09T10:18:38Z</time>
      </trkpt>
      <trkpt lat="41.4122670" lon="2.0106350">
        <ele>36.8</ele>
        <time>2021-05-09T10:18:46Z</time>
      </trkpt>
      <trkpt lat="41.4119140" lon="2.0108190">
        <ele>36.8</ele>
        <time>2021-05-09T10:18:55Z</time>
      </trkpt>
      <trkpt lat="41.4118740" lon="2.0108320">
        <ele>36.6</ele>
        <time>2021-05-09T10:18:56Z</time>
      </trkpt>
      <trkpt lat="41.4116580" lon="2.0108630">
        <ele>36.2</ele>
        <time>2021-05-09T10:19:01Z</time>
      </trkpt>
      <trkpt lat="41.4113760" lon="2.0109910">
        <ele>35.8</ele>
        <time>2021-05-09T10:19:08Z</time>
      </trkpt>
      <trkpt lat="41.4110910" lon="2.0111660">
        <ele>35.6</ele>
        <time>2021-05-09T10:19:16Z</time>
      </trkpt>
      <trkpt lat="41.4110590" lon="2.0111860">
        <ele>35.0</ele>
        <time>2021-05-09T10:19:17Z</time>
      </trkpt>
      <trkpt lat="41.4107900" lon="2.0113230">
        <ele>35.0</ele>
        <time>2021-05-09T10:19:25Z</time>
      </trkpt>
      <trkpt lat="41.4104740" lon="2.0114740">
        <ele>35.0</ele>
        <time>2021-05-09T10:19:34Z</time>
      </trkpt>
      <trkpt lat="41.4101180" lon="2.0116640">
        <ele>35.4</ele>
        <time>2021-05-09T10:19:44Z</time>
      </trkpt>
      <trkpt lat="41.4098290" lon="2.0118140">
        <ele>35.6</ele>
        <time>2021-05-09T10:19:52Z</time>
      </trkpt>
      <trkpt lat="41.4095130" lon="2.0119840">
        <ele>34.8</ele>
        <time>2021-05-09T10:20:00Z</time>
      </trkpt>
      <trkpt lat="41.4092050" lon="2.0121380">
        <ele>35.0</ele>
        <time>2021-05-09T10:20:08Z</time>
      </trkpt>
      <trkpt lat="41.4088370" lon="2.0123000">
        <ele>35.8</ele>
        <time>2021-05-09T10:20:18Z</time>
      </trkpt>
      <trkpt lat="41.4086410" lon="2.0124400">
        <ele>35.8</ele>
        <time>2021-05-09T10:20:24Z</time>
      </trkpt>
      <trkpt lat="41.4084760" lon="2.0126380">
        <ele>35.6</ele>
        <time>2021-05-09T10:20:30Z</time>
      </trkpt>
      <trkpt lat="41.4082650" lon="2.0128000">
        <ele>35.6</ele>
        <time>2021-05-09T10:20:37Z</time>
      </trkpt>
      <trkpt lat="41.4081360" lon="2.0128890">
        <ele>36.0</ele>
        <time>2021-05-09T10:20:41Z</time>
      </trkpt>
      <trkpt lat="41.4080330" lon="2.0129630">
        <ele>36.0</ele>
        <time>2021-05-09T10:20:44Z</time>
      </trkpt>
      <trkpt lat="41.4077870" lon="2.0131520">
        <ele>35.2</ele>
        <time>2021-05-09T10:20:51Z</time>
      </trkpt>
      <trkpt lat="41.4077240" lon="2.0132060">
        <ele>35.0</ele>
        <time>2021-05-09T10:20:53Z</time>
      </trkpt>
      <trkpt lat="41.4075440" lon="2.0133590">
        <ele>35.0</ele>
        <time>2021-05-09T10:20:59Z</time>
      </trkpt>
      <trkpt lat="41.4073560" lon="2.0134990">
        <ele>35.2</ele>
        <time>2021-05-09T10:21:05Z</time>
      </trkpt>
      <trkpt lat="41.4071540" lon="2.0136670">
        <ele>35.2</ele>
        <time>2021-05-09T10:21:12Z</time>
      </trkpt>
      <trkpt lat="41.4069200" lon="2.0138830">
        <ele>35.4</ele>
        <time>2021-05-09T10:21:19Z</time>
      </trkpt>
      <trkpt lat="41.4065190" lon="2.0142010">
        <ele>35.0</ele>
        <time>2021-05-09T10:21:30Z</time>
      </trkpt>
      <trkpt lat="41.4061240" lon="2.0145000">
        <ele>34.8</ele>
        <time>2021-05-09T10:21:41Z</time>
      </trkpt>
      <trkpt lat="41.4057400" lon="2.0147610">
        <ele>34.6</ele>
        <time>2021-05-09T10:21:52Z</time>
      </trkpt>
      <trkpt lat="41.4054830" lon="2.0149590">
        <ele>35.2</ele>
        <time>2021-05-09T10:22:00Z</time>
      </trkpt>
      <trkpt lat="41.4050960" lon="2.0151820">
        <ele>34.6</ele>
        <time>2021-05-09T10:22:11Z</time>
      </trkpt>
      <trkpt lat="41.4048830" lon="2.0153080">
        <ele>35.6</ele>
        <time>2021-05-09T10:22:17Z</time>
      </trkpt>
      <trkpt lat="41.4048080" lon="2.0153570">
        <ele>35.4</ele>
        <time>2021-05-09T10:22:19Z</time>
      </trkpt>
      <trkpt lat="41.4045630" lon="2.0154950">
        <ele>35.0</ele>
        <time>2021-05-09T10:22:26Z</time>
      </trkpt>
      <trkpt lat="41.4042770" lon="2.0156610">
        <ele>34.6</ele>
        <time>2021-05-09T10:22:34Z</time>
      </trkpt>
      <trkpt lat="41.4039090" lon="2.0158470">
        <ele>34.4</ele>
        <time>2021-05-09T10:22:44Z</time>
      </trkpt>
      <trkpt lat="41.4036870" lon="2.0159680">
        <ele>34.2</ele>
        <time>2021-05-09T10:22:50Z</time>
      </trkpt>
      <trkpt lat="41.4036120" lon="2.0160090">
        <ele>34.2</ele>
        <time>2021-05-09T10:22:52Z</time>
      </trkpt>
      <trkpt lat="41.4032310" lon="2.0162180">
        <ele>34.0</ele>
        <time>2021-05-09T10:23:02Z</time>
      </trkpt>
      <trkpt lat="41.4027450" lon="2.0164720">
        <ele>34.0</ele>
        <time>2021-05-09T10:23:15Z</time>
      </trkpt>
      <trkpt lat="41.4024420" lon="2.0166470">
        <ele>34.4</ele>
        <time>2021-05-09T10:23:23Z</time>
      </trkpt>
      <trkpt lat="41.4022760" lon="2.0167240">
        <ele>34.4</ele>
        <time>2021-05-09T10:23:27Z</time>
      </trkpt>
      <trkpt lat="41.4021980" lon="2.0167650">
        <ele>34.2</ele>
        <time>2021-05-09T10:23:29Z</time>
      </trkpt>
      <trkpt lat="41.4019570" lon="2.0168790">
        <ele>34.2</ele>
        <time>2021-05-09T10:23:36Z</time>
      </trkpt>
      <trkpt lat="41.4017010" lon="2.0170370">
        <ele>34.0</ele>
        <time>2021-05-09T10:23:43Z</time>
      </trkpt>
      <trkpt lat="41.4014830" lon="2.0171570">
        <ele>34.4</ele>
        <time>2021-05-09T10:23:49Z</time>
      </trkpt>
      <trkpt lat="41.4011420" lon="2.0173410">
        <ele>34.8</ele>
        <time>2021-05-09T10:23:58Z</time>
      </trkpt>
      <trkpt lat="41.4008460" lon="2.0175060">
        <ele>34.6</ele>
        <time>2021-05-09T10:24:06Z</time>
      </trkpt>
      <trkpt lat="41.4005090" lon="2.0176930">
        <ele>34.6</ele>
        <time>2021-05-09T10:24:15Z</time>
      </trkpt>
      <trkpt lat="41.4002200" lon="2.0178780">
        <ele>34.8</ele>
        <time>2021-05-09T10:24:23Z</time>
      </trkpt>
      <trkpt lat="41.4000860" lon="2.0180450">
        <ele>34.4</ele>
        <time>2021-05-09T10:24:28Z</time>
      </trkpt>
      <trkpt lat="41.4000450" lon="2.0181470">
        <ele>34.2</ele>
        <time>2021-05-09T10:24:30Z</time>
      </trkpt>
      <trkpt lat="41.3999800" lon="2.0182450">
        <ele>33.8</ele>
        <time>2021-05-09T10:24:32Z</time>
      </trkpt>
      <trkpt lat="41.3999450" lon="2.0182850">
        <ele>33.8</ele>
        <time>2021-05-09T10:24:33Z</time>
      </trkpt>
      <trkpt lat="41.3998070" lon="2.0183510">
        <ele>33.4</ele>
        <time>2021-05-09T10:24:37Z</time>
      </trkpt>
      <trkpt lat="41.3996260" lon="2.0183370">
        <ele>33.6</ele>
        <time>2021-05-09T10:24:42Z</time>
      </trkpt>
      <trkpt lat="41.3994350" lon="2.0183320">
        <ele>33.4</ele>
        <time>2021-05-09T10:24:47Z</time>
      </trkpt>
      <trkpt lat="41.3992740" lon="2.0184480">
        <ele>34.2</ele>
        <time>2021-05-09T10:24:52Z</time>
      </trkpt>
      <trkpt lat="41.3990380" lon="2.0186180">
        <ele>34.4</ele>
        <time>2021-05-09T10:24:59Z</time>
      </trkpt>
      <trkpt lat="41.3986740" lon="2.0188320">
        <ele>34.4</ele>
        <time>2021-05-09T10:25:09Z</time>
      </trkpt>
      <trkpt lat="41.3986010" lon="2.0188760">
        <ele>34.6</ele>
        <time>2021-05-09T10:25:11Z</time>
      </trkpt>
      <trkpt lat="41.3983810" lon="2.0190010">
        <ele>34.4</ele>
        <time>2021-05-09T10:25:17Z</time>
      </trkpt>
      <trkpt lat="41.3980510" lon="2.0192030">
        <ele>34.6</ele>
        <time>2021-05-09T10:25:26Z</time>
      </trkpt>
      <trkpt lat="41.3977120" lon="2.0194270">
        <ele>34.4</ele>
        <time>2021-05-09T10:25:35Z</time>
      </trkpt>
      <trkpt lat="41.3975220" lon="2.0195590">
        <ele>33.6</ele>
        <time>2021-05-09T10:25:40Z</time>
      </trkpt>
      <trkpt lat="41.3973220" lon="2.0196890">
        <ele>34.2</ele>
        <time>2021-05-09T10:25:45Z</time>
      </trkpt>
      <trkpt lat="41.3970510" lon="2.0198310">
        <ele>33.6</ele>
        <time>2021-05-09T10:25:52Z</time>
      </trkpt>
      <trkpt lat="41.3970120" lon="2.0198520">
        <ele>33.8</ele>
        <time>2021-05-09T10:25:53Z</time>
      </trkpt>
      <trkpt lat="41.3968350" lon="2.0199520">
        <ele>34.2</ele>
        <time>2021-05-09T10:25:58Z</time>
      </trkpt>
      <trkpt lat="41.3967050" lon="2.0200190">
        <ele>34.6</ele>
        <time>2021-05-09T10:26:02Z</time>
      </trkpt>
      <trkpt lat="41.3965530" lon="2.0200960">
        <ele>34.6</ele>
        <time>2021-05-09T10:26:07Z</time>
      </trkpt>
      <trkpt lat="41.3963380" lon="2.0202240">
        <ele>34.6</ele>
        <time>2021-05-09T10:26:13Z</time>
      </trkpt>
      <trkpt lat="41.3960450" lon="2.0204020">
        <ele>34.6</ele>
        <time>2021-05-09T10:26:21Z</time>
      </trkpt>
      <trkpt lat="41.3957650" lon="2.0205590">
        <ele>34.4</ele>
        <time>2021-05-09T10:26:29Z</time>
      </trkpt>
      <trkpt lat="41.3954660" lon="2.0206930">
        <ele>34.4</ele>
        <time>2021-05-09T10:26:36Z</time>
      </trkpt>
      <trkpt lat="41.3952040" lon="2.0208420">
        <ele>34.0</ele>
        <time>2021-05-09T10:26:43Z</time>
      </trkpt>
      <trkpt lat="41.3949030" lon="2.0209870">
        <ele>33.8</ele>
        <time>2021-05-09T10:26:51Z</time>
      </trkpt>
      <trkpt lat="41.3947850" lon="2.0210490">
        <ele>33.6</ele>
        <time>2021-05-09T10:26:54Z</time>
      </trkpt>
      <trkpt lat="41.3946280" lon="2.0211260">
        <ele>33.4</ele>
        <time>2021-05-09T10:26:58Z</time>
      </trkpt>
      <trkpt lat="41.3943740" lon="2.0212660">
        <ele>34.0</ele>
        <time>2021-05-09T10:27:05Z</time>
      </trkpt>
      <trkpt lat="41.3941150" lon="2.0213980">
        <ele>33.6</ele>
        <time>2021-05-09T10:27:12Z</time>
      </trkpt>
      <trkpt lat="41.3938220" lon="2.0215470">
        <ele>34.2</ele>
        <time>2021-05-09T10:27:19Z</time>
      </trkpt>
      <trkpt lat="41.3935490" lon="2.0217060">
        <ele>33.6</ele>
        <time>2021-05-09T10:27:26Z</time>
      </trkpt>
      <trkpt lat="41.3932920" lon="2.0218430">
        <ele>33.8</ele>
        <time>2021-05-09T10:27:33Z</time>
      </trkpt>
      <trkpt lat="41.3930690" lon="2.0218870">
        <ele>33.8</ele>
        <time>2021-05-09T10:27:39Z</time>
      </trkpt>
      <trkpt lat="41.3928400" lon="2.0219740">
        <ele>33.4</ele>
        <time>2021-05-09T10:27:46Z</time>
      </trkpt>
      <trkpt lat="41.3926330" lon="2.0220530">
        <ele>33.2</ele>
        <time>2021-05-09T10:27:52Z</time>
      </trkpt>
      <trkpt lat="41.3923620" lon="2.0221200">
        <ele>33.2</ele>
        <time>2021-05-09T10:27:59Z</time>
      </trkpt>
      <trkpt lat="41.3920580" lon="2.0221880">
        <ele>33.6</ele>
        <time>2021-05-09T10:28:07Z</time>
      </trkpt>
      <trkpt lat="41.3918310" lon="2.0222290">
        <ele>32.8</ele>
        <time>2021-05-09T10:28:14Z</time>
      </trkpt>
      <trkpt lat="41.3915260" lon="2.0222720">
        <ele>33.2</ele>
        <time>2021-05-09T10:28:23Z</time>
      </trkpt>
      <trkpt lat="41.3912820" lon="2.0223240">
        <ele>33.2</ele>
        <time>2021-05-09T10:28:30Z</time>
      </trkpt>
      <trkpt lat="41.3910980" lon="2.0223940">
        <ele>33.2</ele>
        <time>2021-05-09T10:28:35Z</time>
      </trkpt>
      <trkpt lat="41.3907970" lon="2.0224650">
        <ele>33.6</ele>
        <time>2021-05-09T10:28:43Z</time>
      </trkpt>
      <trkpt lat="41.3905210" lon="2.0225680">
        <ele>33.4</ele>
        <time>2021-05-09T10:28:52Z</time>
      </trkpt>
      <trkpt lat="41.3903360" lon="2.0226610">
        <ele>32.6</ele>
        <time>2021-05-09T10:28:58Z</time>
      </trkpt>
      <trkpt lat="41.3901040" lon="2.0227900">
        <ele>32.8</ele>
        <time>2021-05-09T10:29:05Z</time>
      </trkpt>
      <trkpt lat="41.3898900" lon="2.0229060">
        <ele>32.4</ele>
        <time>2021-05-09T10:29:12Z</time>
      </trkpt>
      <trkpt lat="41.3898620" lon="2.0229280">
        <ele>32.4</ele>
        <time>2021-05-09T10:29:13Z</time>
      </trkpt>
      <trkpt lat="41.3896680" lon="2.0230850">
        <ele>32.6</ele>
        <time>2021-05-09T10:29:20Z</time>
      </trkpt>
      <trkpt lat="41.3894510" lon="2.0232490">
        <ele>33.4</ele>
        <time>2021-05-09T10:29:28Z</time>
      </trkpt>
      <trkpt lat="41.3892900" lon="2.0233450">
        <ele>32.6</ele>
        <time>2021-05-09T10:29:33Z</time>
      </trkpt>
      <trkpt lat="41.3892310" lon="2.0233720">
        <ele>32.6</ele>
        <time>2021-05-09T10:29:35Z</time>
      </trkpt>
      <trkpt lat="41.3890460" lon="2.0234730">
        <ele>32.6</ele>
        <time>2021-05-09T10:29:41Z</time>
      </trkpt>
      <trkpt lat="41.3889710" lon="2.0235190">
        <ele>32.4</ele>
        <time>2021-05-09T10:29:43Z</time>
      </trkpt>
      <trkpt lat="41.3887640" lon="2.0236470">
        <ele>32.0</ele>
        <time>2021-05-09T10:29:48Z</time>
      </trkpt>
      <trkpt lat="41.3885870" lon="2.0237570">
        <ele>31.2</ele>
        <time>2021-05-09T10:29:53Z</time>
      </trkpt>
      <trkpt lat="41.3885210" lon="2.0237990">
        <ele>31.0</ele>
        <time>2021-05-09T10:29:55Z</time>
      </trkpt>
      <trkpt lat="41.3882200" lon="2.0240210">
        <ele>31.6</ele>
        <time>2021-05-09T10:30:04Z</time>
      </trkpt>
      <trkpt lat="41.3879310" lon="2.0242400">
        <ele>31.4</ele>
        <time>2021-05-09T10:30:12Z</time>
      </trkpt>
      <trkpt lat="41.3876260" lon="2.0244580">
        <ele>31.2</ele>
        <time>2021-05-09T10:30:20Z</time>
      </trkpt>
      <trkpt lat="41.3872190" lon="2.0247450">
        <ele>30.8</ele>
        <time>2021-05-09T10:30:31Z</time>
      </trkpt>
      <trkpt lat="41.3868710" lon="2.0250290">
        <ele>30.6</ele>
        <time>2021-05-09T10:30:41Z</time>
      </trkpt>
      <trkpt lat="41.3866290" lon="2.0252730">
        <ele>30.6</ele>
        <time>2021-05-09T10:30:49Z</time>
      </trkpt>
      <trkpt lat="41.3864320" lon="2.0254190">
        <ele>30.6</ele>
        <time>2021-05-09T10:30:55Z</time>
      </trkpt>
      <trkpt lat="41.3861980" lon="2.0255340">
        <ele>30.4</ele>
        <time>2021-05-09T10:31:02Z</time>
      </trkpt>
      <trkpt lat="41.3861710" lon="2.0255500">
        <ele>30.2</ele>
        <time>2021-05-09T10:31:03Z</time>
      </trkpt>
      <trkpt lat="41.3860110" lon="2.0256420">
        <ele>30.4</ele>
        <time>2021-05-09T10:31:09Z</time>
      </trkpt>
      <trkpt lat="41.3858400" lon="2.0257540">
        <ele>30.2</ele>
        <time>2021-05-09T10:31:15Z</time>
      </trkpt>
      <trkpt lat="41.3856740" lon="2.0259130">
        <ele>30.0</ele>
        <time>2021-05-09T10:31:22Z</time>
      </trkpt>
      <trkpt lat="41.3855160" lon="2.0260470">
        <ele>30.4</ele>
        <time>2021-05-09T10:31:28Z</time>
      </trkpt>
      <trkpt lat="41.3853060" lon="2.0262260">
        <ele>29.8</ele>
        <time>2021-05-09T10:31:35Z</time>
      </trkpt>
      <trkpt lat="41.3850340" lon="2.0264120">
        <ele>30.2</ele>
        <time>2021-05-09T10:31:43Z</time>
      </trkpt>
      <trkpt lat="41.3847530" lon="2.0266070">
        <ele>29.6</ele>
        <time>2021-05-09T10:31:51Z</time>
      </trkpt>
      <trkpt lat="41.3845210" lon="2.0267710">
        <ele>30.0</ele>
        <time>2021-05-09T10:31:58Z</time>
      </trkpt>
      <trkpt lat="41.3842180" lon="2.0269510">
        <ele>30.0</ele>
        <time>2021-05-09T10:32:07Z</time>
      </trkpt>
      <trkpt lat="41.3839190" lon="2.0271240">
        <ele>30.4</ele>
        <time>2021-05-09T10:32:16Z</time>
      </trkpt>
      <trkpt lat="41.3837120" lon="2.0272160">
        <ele>30.2</ele>
        <time>2021-05-09T10:32:22Z</time>
      </trkpt>
      <trkpt lat="41.3834220" lon="2.0273450">
        <ele>30.4</ele>
        <time>2021-05-09T10:32:30Z</time>
      </trkpt>
      <trkpt lat="41.3830860" lon="2.0274600">
        <ele>29.8</ele>
        <time>2021-05-09T10:32:39Z</time>
      </trkpt>
      <trkpt lat="41.3827930" lon="2.0275590">
        <ele>30.0</ele>
        <time>2021-05-09T10:32:47Z</time>
      </trkpt>
      <trkpt lat="41.3825210" lon="2.0276470">
        <ele>29.8</ele>
        <time>2021-05-09T10:32:55Z</time>
      </trkpt>
      <trkpt lat="41.3824020" lon="2.0276900">
        <ele>29.8</ele>
        <time>2021-05-09T10:33:01Z</time>
      </trkpt>
      <trkpt lat="41.3823050" lon="2.0277330">
        <ele>30.2</ele>
        <time>2021-05-09T10:33:05Z</time>
      </trkpt>
      <trkpt lat="41.3821230" lon="2.0277680">
        <ele>30.4</ele>
        <time>2021-05-09T10:33:10Z</time>
      </trkpt>
      <trkpt lat="41.3817900" lon="2.0278450">
        <ele>30.0</ele>
        <time>2021-05-09T10:33:19Z</time>
      </trkpt>
      <trkpt lat="41.3815270" lon="2.0279320">
        <ele>30.2</ele>
        <time>2021-05-09T10:33:26Z</time>
      </trkpt>
      <trkpt lat="41.3812480" lon="2.0280180">
        <ele>30.4</ele>
        <time>2021-05-09T10:33:33Z</time>
      </trkpt>
      <trkpt lat="41.3808760" lon="2.0281080">
        <ele>30.2</ele>
        <time>2021-05-09T10:33:42Z</time>
      </trkpt>
      <trkpt lat="41.3805240" lon="2.0282340">
        <ele>30.0</ele>
        <time>2021-05-09T10:33:50Z</time>
      </trkpt>
      <trkpt lat="41.3801800" lon="2.0283240">
        <ele>29.8</ele>
        <time>2021-05-09T10:33:58Z</time>
      </trkpt>
      <trkpt lat="41.3798520" lon="2.0284570">
        <ele>30.2</ele>
        <time>2021-05-09T10:34:06Z</time>
      </trkpt>
      <trkpt lat="41.3795460" lon="2.0285920">
        <ele>29.6</ele>
        <time>2021-05-09T10:34:14Z</time>
      </trkpt>
      <trkpt lat="41.3793360" lon="2.0287260">
        <ele>29.8</ele>
        <time>2021-05-09T10:34:20Z</time>
      </trkpt>
      <trkpt lat="41.3790840" lon="2.0288670">
        <ele>30.0</ele>
        <time>2021-05-09T10:34:28Z</time>
      </trkpt>
      <trkpt lat="41.3789330" lon="2.0289830">
        <ele>29.0</ele>
        <time>2021-05-09T10:34:33Z</time>
      </trkpt>
      <trkpt lat="41.3788740" lon="2.0290350">
        <ele>28.6</ele>
        <time>2021-05-09T10:34:35Z</time>
      </trkpt>
      <trkpt lat="41.3786120" lon="2.0292420">
        <ele>28.8</ele>
        <time>2021-05-09T10:34:43Z</time>
      </trkpt>
      <trkpt lat="41.3783960" lon="2.0294260">
        <ele>29.0</ele>
        <time>2021-05-09T10:34:50Z</time>
      </trkpt>
      <trkpt lat="41.3782310" lon="2.0295600">
        <ele>28.6</ele>
        <time>2021-05-09T10:34:56Z</time>
      </trkpt>
      <trkpt lat="41.3780000" lon="2.0297390">
        <ele>29.0</ele>
        <time>2021-05-09T10:35:04Z</time>
      </trkpt>
      <trkpt lat="41.3778190" lon="2.0298980">
        <ele>29.0</ele>
        <time>2021-05-09T10:35:11Z</time>
      </trkpt>
      <trkpt lat="41.3776880" lon="2.0300170">
        <ele>29.2</ele>
        <time>2021-05-09T10:35:17Z</time>
      </trkpt>
      <trkpt lat="41.3774620" lon="2.0301900">
        <ele>29.2</ele>
        <time>2021-05-09T10:35:24Z</time>
      </trkpt>
      <trkpt lat="41.3772770" lon="2.0303330">
        <ele>29.2</ele>
        <time>2021-05-09T10:35:30Z</time>
      </trkpt>
      <trkpt lat="41.3770020" lon="2.0305190">
        <ele>29.6</ele>
        <time>2021-05-09T10:35:38Z</time>
      </trkpt>
      <trkpt lat="41.3767530" lon="2.0306830">
        <ele>29.6</ele>
        <time>2021-05-09T10:35:45Z</time>
      </trkpt>
      <trkpt lat="41.3765060" lon="2.0308700">
        <ele>29.8</ele>
        <time>2021-05-09T10:35:52Z</time>
      </trkpt>
      <trkpt lat="41.3762660" lon="2.0310720">
        <ele>29.6</ele>
        <time>2021-05-09T10:35:59Z</time>
      </trkpt>
      <trkpt lat="41.3760230" lon="2.0312650">
        <ele>30.0</ele>
        <time>2021-05-09T10:36:06Z</time>
      </trkpt>
      <trkpt lat="41.3759880" lon="2.0312910">
        <ele>30.0</ele>
        <time>2021-05-09T10:36:07Z</time>
      </trkpt>
      <trkpt lat="41.3757480" lon="2.0314700">
        <ele>29.4</ele>
        <time>2021-05-09T10:36:14Z</time>
      </trkpt>
      <trkpt lat="41.3755420" lon="2.0316480">
        <ele>29.6</ele>
        <time>2021-05-09T10:36:21Z</time>
      </trkpt>
      <trkpt lat="41.3753580" lon="2.0318120">
        <ele>30.0</ele>
        <time>2021-05-09T10:36:27Z</time>
      </trkpt>
      <trkpt lat="41.3751390" lon="2.0319960">
        <ele>30.0</ele>
        <time>2021-05-09T10:36:34Z</time>
      </trkpt>
      <trkpt lat="41.3748590" lon="2.0322300">
        <ele>29.8</ele>
        <time>2021-05-09T10:36:43Z</time>
      </trkpt>
      <trkpt lat="41.3746000" lon="2.0324450">
        <ele>30.0</ele>
        <time>2021-05-09T10:36:51Z</time>
      </trkpt>
      <trkpt lat="41.3742940" lon="2.0326740">
        <ele>29.6</ele>
        <time>2021-05-09T10:36:59Z</time>
      </trkpt>
      <trkpt lat="41.3739980" lon="2.0329090">
        <ele>30.2</ele>
        <time>2021-05-09T10:37:07Z</time>
      </trkpt>
      <trkpt lat="41.3737020" lon="2.0331480">
        <ele>29.8</ele>
        <time>2021-05-09T10:37:15Z</time>
      </trkpt>
      <trkpt lat="41.3734010" lon="2.0333870">
        <ele>29.8</ele>
        <time>2021-05-09T10:37:23Z</time>
      </trkpt>
      <trkpt lat="41.3730770" lon="2.0336490">
        <ele>29.4</ele>
        <time>2021-05-09T10:37:32Z</time>
      </trkpt>
      <trkpt lat="41.3728690" lon="2.0338020">
        <ele>29.0</ele>
        <time>2021-05-09T10:37:37Z</time>
      </trkpt>
      <trkpt lat="41.3727090" lon="2.0339350">
        <ele>29.0</ele>
        <time>2021-05-09T10:37:41Z</time>
      </trkpt>
      <trkpt lat="41.3725360" lon="2.0340290">
        <ele>29.6</ele>
        <time>2021-05-09T10:37:46Z</time>
      </trkpt>
      <trkpt lat="41.3724030" lon="2.0341230">
        <ele>29.8</ele>
        <time>2021-05-09T10:37:50Z</time>
      </trkpt>
      <trkpt lat="41.3723460" lon="2.0341960">
        <ele>29.8</ele>
        <time>2021-05-09T10:37:52Z</time>
      </trkpt>
      <trkpt lat="41.3721450" lon="2.0344280">
        <ele>29.6</ele>
        <time>2021-05-09T10:37:59Z</time>
      </trkpt>
      <trkpt lat="41.3719060" lon="2.0346820">
        <ele>29.8</ele>
        <time>2021-05-09T10:38:08Z</time>
      </trkpt>
      <trkpt lat="41.3718500" lon="2.0347430">
        <ele>30.0</ele>
        <time>2021-05-09T10:38:10Z</time>
      </trkpt>
      <trkpt lat="41.3717270" lon="2.0348730">
        <ele>29.8</ele>
        <time>2021-05-09T10:38:14Z</time>
      </trkpt>
      <trkpt lat="41.3716920" lon="2.0349020">
        <ele>29.4</ele>
        <time>2021-05-09T10:38:15Z</time>
      </trkpt>
      <trkpt lat="41.3714860" lon="2.0351370">
        <ele>29.8</ele>
        <time>2021-05-09T10:38:22Z</time>
      </trkpt>
      <trkpt lat="41.3712410" lon="2.0354620">
        <ele>29.2</ele>
        <time>2021-05-09T10:38:31Z</time>
      </trkpt>
      <trkpt lat="41.3711560" lon="2.0355700">
        <ele>29.0</ele>
        <time>2021-05-09T10:38:34Z</time>
      </trkpt>
      <trkpt lat="41.3709780" lon="2.0357820">
        <ele>29.6</ele>
        <time>2021-05-09T10:38:40Z</time>
      </trkpt>
      <trkpt lat="41.3707720" lon="2.0360490">
        <ele>29.6</ele>
        <time>2021-05-09T10:38:48Z</time>
      </trkpt>
      <trkpt lat="41.3706480" lon="2.0361900">
        <ele>29.2</ele>
        <time>2021-05-09T10:38:54Z</time>
      </trkpt>
      <trkpt lat="41.3705160" lon="2.0363090">
        <ele>30.0</ele>
        <time>2021-05-09T10:38:59Z</time>
      </trkpt>
      <trkpt lat="41.3704570" lon="2.0363610">
        <ele>30.2</ele>
        <time>2021-05-09T10:39:01Z</time>
      </trkpt>
      <trkpt lat="41.3701980" lon="2.0365720">
        <ele>30.0</ele>
        <time>2021-05-09T10:39:09Z</time>
      </trkpt>
      <trkpt lat="41.3701610" lon="2.0366010">
        <ele>30.0</ele>
        <time>2021-05-09T10:39:10Z</time>
      </trkpt>
      <trkpt lat="41.3700180" lon="2.0367060">
        <ele>30.2</ele>
        <time>2021-05-09T10:39:14Z</time>
      </trkpt>
      <trkpt lat="41.3699820" lon="2.0367380">
        <ele>30.2</ele>
        <time>2021-05-09T10:39:15Z</time>
      </trkpt>
      <trkpt lat="41.3698390" lon="2.0368640">
        <ele>30.0</ele>
        <time>2021-05-09T10:39:19Z</time>
      </trkpt>
      <trkpt lat="41.3698010" lon="2.0368920">
        <ele>30.0</ele>
        <time>2021-05-09T10:39:20Z</time>
      </trkpt>
      <trkpt lat="41.3696530" lon="2.0369770">
        <ele>30.0</ele>
        <time>2021-05-09T10:39:24Z</time>
      </trkpt>
      <trkpt lat="41.3694180" lon="2.0371410">
        <ele>30.2</ele>
        <time>2021-05-09T10:39:31Z</time>
      </trkpt>
      <trkpt lat="41.3692250" lon="2.0373280">
        <ele>29.6</ele>
        <time>2021-05-09T10:39:37Z</time>
      </trkpt>
      <trkpt lat="41.3690310" lon="2.0375740">
        <ele>29.4</ele>
        <time>2021-05-09T10:39:44Z</time>
      </trkpt>
      <trkpt lat="41.3688880" lon="2.0377720">
        <ele>29.2</ele>
        <time>2021-05-09T10:39:50Z</time>
      </trkpt>
      <trkpt lat="41.3687470" lon="2.0380320">
        <ele>29.6</ele>
        <time>2021-05-09T10:39:57Z</time>
      </trkpt>
      <trkpt lat="41.3686320" lon="2.0382580">
        <ele>30.2</ele>
        <time>2021-05-09T10:40:03Z</time>
      </trkpt>
      <trkpt lat="41.3685580" lon="2.0384990">
        <ele>29.6</ele>
        <time>2021-05-09T10:40:10Z</time>
      </trkpt>
      <trkpt lat="41.3684640" lon="2.0387740">
        <ele>29.2</ele>
        <time>2021-05-09T10:40:18Z</time>
      </trkpt>
      <trkpt lat="41.3683870" lon="2.0390300">
        <ele>29.2</ele>
        <time>2021-05-09T10:40:25Z</time>
      </trkpt>
      <trkpt lat="41.3683050" lon="2.0392450">
        <ele>29.2</ele>
        <time>2021-05-09T10:40:31Z</time>
      </trkpt>
      <trkpt lat="41.3682340" lon="2.0395240">
        <ele>29.0</ele>
        <time>2021-05-09T10:40:38Z</time>
      </trkpt>
      <trkpt lat="41.3682750" lon="2.0397320">
        <ele>29.4</ele>
        <time>2021-05-09T10:40:44Z</time>
      </trkpt>
      <trkpt lat="41.3683380" lon="2.0398260">
        <ele>30.2</ele>
        <time>2021-05-09T10:40:49Z</time>
      </trkpt>
      <trkpt lat="41.3683720" lon="2.0398810">
        <ele>30.4</ele>
        <time>2021-05-09T10:40:52Z</time>
      </trkpt>
      <trkpt lat="41.3683620" lon="2.0399160">
        <ele>30.4</ele>
        <time>2021-05-09T10:40:54Z</time>
      </trkpt>
      <trkpt lat="41.3683500" lon="2.0399420">
        <ele>30.6</ele>
        <time>2021-05-09T10:40:56Z</time>
      </trkpt>
      <trkpt lat="41.3683210" lon="2.0400180">
        <ele>30.8</ele>
        <time>2021-05-09T10:41:00Z</time>
      </trkpt>
      <trkpt lat="41.3682650" lon="2.0401560">
        <ele>31.2</ele>
        <time>2021-05-09T10:41:06Z</time>
      </trkpt>
      <trkpt lat="41.3682510" lon="2.0401810">
        <ele>31.2</ele>
        <time>2021-05-09T10:41:07Z</time>
      </trkpt>
      <trkpt lat="41.3681580" lon="2.0403750">
        <ele>30.2</ele>
        <time>2021-05-09T10:41:14Z</time>
      </trkpt>
      <trkpt lat="41.3681260" lon="2.0404200">
        <ele>30.2</ele>
        <time>2021-05-09T10:41:17Z</time>
      </trkpt>
      <trkpt lat="41.3681260" lon="2.0404160">
        <ele>30.0</ele>
        <time>2021-05-09T10:41:19Z</time>
      </trkpt>
      <trkpt lat="41.3680980" lon="2.0405530">
        <ele>31.2</ele>
        <time>2021-05-09T10:53:38Z</time>
      </trkpt>
      <trkpt lat="41.3680740" lon="2.0406070">
        <ele>31.6</ele>
        <time>2021-05-09T10:53:40Z</time>
      </trkpt>
      <trkpt lat="41.3680310" lon="2.0408110">
        <ele>32.2</ele>
        <time>2021-05-09T10:53:46Z</time>
      </trkpt>
      <trkpt lat="41.3679980" lon="2.0410770">
        <ele>32.2</ele>
        <time>2021-05-09T10:53:52Z</time>
      </trkpt>
      <trkpt lat="41.3679720" lon="2.0413180">
        <ele>31.8</ele>
        <time>2021-05-09T10:53:58Z</time>
      </trkpt>
      <trkpt lat="41.3679470" lon="2.0415170">
        <ele>32.2</ele>
        <time>2021-05-09T10:54:04Z</time>
      </trkpt>
      <trkpt lat="41.3679100" lon="2.0418180">
        <ele>32.2</ele>
        <time>2021-05-09T10:54:12Z</time>
      </trkpt>
      <trkpt lat="41.3678670" lon="2.0420430">
        <ele>32.6</ele>
        <time>2021-05-09T10:54:17Z</time>
      </trkpt>
      <trkpt lat="41.3677850" lon="2.0424190">
        <ele>33.0</ele>
        <time>2021-05-09T10:54:23Z</time>
      </trkpt>
      <trkpt lat="41.3676460" lon="2.0428420">
        <ele>32.6</ele>
        <time>2021-05-09T10:54:30Z</time>
      </trkpt>
      <trkpt lat="41.3675360" lon="2.0430510">
        <ele>32.6</ele>
        <time>2021-05-09T10:54:35Z</time>
      </trkpt>
      <trkpt lat="41.3675180" lon="2.0430730">
        <ele>32.6</ele>
        <time>2021-05-09T10:54:38Z</time>
      </trkpt>
      <trkpt lat="41.3674520" lon="2.0431580">
        <ele>32.8</ele>
        <time>2021-05-09T10:58:03Z</time>
      </trkpt>
      <trkpt lat="41.3674070" lon="2.0432040">
        <ele>32.8</ele>
        <time>2021-05-09T10:58:05Z</time>
      </trkpt>
      <trkpt lat="41.3671800" lon="2.0435040">
        <ele>33.0</ele>
        <time>2021-05-09T10:58:12Z</time>
      </trkpt>
      <trkpt lat="41.3669440" lon="2.0438730">
        <ele>32.6</ele>
        <time>2021-05-09T10:58:19Z</time>
      </trkpt>
      <trkpt lat="41.3667510" lon="2.0442170">
        <ele>32.4</ele>
        <time>2021-05-09T10:58:25Z</time>
      </trkpt>
      <trkpt lat="41.3665570" lon="2.0445090">
        <ele>32.4</ele>
        <time>2021-05-09T10:58:31Z</time>
      </trkpt>
      <trkpt lat="41.3663320" lon="2.0448220">
        <ele>32.0</ele>
        <time>2021-05-09T10:58:38Z</time>
      </trkpt>
      <trkpt lat="41.3661250" lon="2.0450160">
        <ele>32.0</ele>
        <time>2021-05-09T10:58:43Z</time>
      </trkpt>
      <trkpt lat="41.3660790" lon="2.0450390">
        <ele>31.8</ele>
        <time>2021-05-09T10:58:44Z</time>
      </trkpt>
      <trkpt lat="41.3659960" lon="2.0450740">
        <ele>32.0</ele>
        <time>2021-05-09T10:58:46Z</time>
      </trkpt>
      <trkpt lat="41.3659570" lon="2.0451020">
        <ele>31.8</ele>
        <time>2021-05-09T10:58:47Z</time>
      </trkpt>
      <trkpt lat="41.3659180" lon="2.0451410">
        <ele>32.0</ele>
        <time>2021-05-09T10:58:48Z</time>
      </trkpt>
      <trkpt lat="41.3656300" lon="2.0454690">
        <ele>32.0</ele>
        <time>2021-05-09T10:58:56Z</time>
      </trkpt>
      <trkpt lat="41.3654770" lon="2.0456770">
        <ele>30.8</ele>
        <time>2021-05-09T10:59:01Z</time>
      </trkpt>
      <trkpt lat="41.3654540" lon="2.0457340">
        <ele>30.8</ele>
        <time>2021-05-09T10:59:02Z</time>
      </trkpt>
      <trkpt lat="41.3654130" lon="2.0458590">
        <ele>30.8</ele>
        <time>2021-05-09T10:59:04Z</time>
      </trkpt>
      <trkpt lat="41.3653590" lon="2.0459790">
        <ele>30.8</ele>
        <time>2021-05-09T10:59:06Z</time>
      </trkpt>
      <trkpt lat="41.3651800" lon="2.0462370">
        <ele>30.6</ele>
        <time>2021-05-09T10:59:11Z</time>
      </trkpt>
      <trkpt lat="41.3648590" lon="2.0465900">
        <ele>31.4</ele>
        <time>2021-05-09T10:59:18Z</time>
      </trkpt>
      <trkpt lat="41.3645020" lon="2.0469070">
        <ele>31.4</ele>
        <time>2021-05-09T10:59:25Z</time>
      </trkpt>
      <trkpt lat="41.3643020" lon="2.0470820">
        <ele>31.6</ele>
        <time>2021-05-09T10:59:30Z</time>
      </trkpt>
      <trkpt lat="41.3642280" lon="2.0471440">
        <ele>31.6</ele>
        <time>2021-05-09T10:59:32Z</time>
      </trkpt>
      <trkpt lat="41.3641080" lon="2.0472500">
        <ele>31.2</ele>
        <time>2021-05-09T10:59:35Z</time>
      </trkpt>
      <trkpt lat="41.3638770" lon="2.0474840">
        <ele>31.0</ele>
        <time>2021-05-09T10:59:41Z</time>
      </trkpt>
      <trkpt lat="41.3635410" lon="2.0478610">
        <ele>31.6</ele>
        <time>2021-05-09T10:59:49Z</time>
      </trkpt>
      <trkpt lat="41.3633400" lon="2.0481000">
        <ele>32.2</ele>
        <time>2021-05-09T10:59:54Z</time>
      </trkpt>
      <trkpt lat="41.3632080" lon="2.0482290">
        <ele>32.4</ele>
        <time>2021-05-09T10:59:57Z</time>
      </trkpt>
      <trkpt lat="41.3628110" lon="2.0485940">
        <ele>32.4</ele>
        <time>2021-05-09T11:00:06Z</time>
      </trkpt>
      <trkpt lat="41.3625030" lon="2.0488790">
        <ele>32.0</ele>
        <time>2021-05-09T11:00:13Z</time>
      </trkpt>
      <trkpt lat="41.3622160" lon="2.0490630">
        <ele>31.4</ele>
        <time>2021-05-09T11:00:19Z</time>
      </trkpt>
      <trkpt lat="41.3619240" lon="2.0491300">
        <ele>32.0</ele>
        <time>2021-05-09T11:00:25Z</time>
      </trkpt>
      <trkpt lat="41.3614790" lon="2.0491770">
        <ele>32.0</ele>
        <time>2021-05-09T11:00:33Z</time>
      </trkpt>
      <trkpt lat="41.3611060" lon="2.0491310">
        <ele>31.6</ele>
        <time>2021-05-09T11:00:40Z</time>
      </trkpt>
      <trkpt lat="41.3606640" lon="2.0490180">
        <ele>31.6</ele>
        <time>2021-05-09T11:00:48Z</time>
      </trkpt>
      <trkpt lat="41.3603550" lon="2.0489400">
        <ele>31.4</ele>
        <time>2021-05-09T11:00:54Z</time>
      </trkpt>
      <trkpt lat="41.3602530" lon="2.0489040">
        <ele>31.4</ele>
        <time>2021-05-09T11:00:56Z</time>
      </trkpt>
      <trkpt lat="41.3600390" lon="2.0488250">
        <ele>31.0</ele>
        <time>2021-05-09T11:01:00Z</time>
      </trkpt>
      <trkpt lat="41.3598810" lon="2.0487680">
        <ele>30.6</ele>
        <time>2021-05-09T11:01:03Z</time>
      </trkpt>
      <trkpt lat="41.3596390" lon="2.0486820">
        <ele>31.0</ele>
        <time>2021-05-09T11:01:08Z</time>
      </trkpt>
      <trkpt lat="41.3595950" lon="2.0486670">
        <ele>31.2</ele>
        <time>2021-05-09T11:01:09Z</time>
      </trkpt>
      <trkpt lat="41.3595060" lon="2.0486400">
        <ele>31.2</ele>
        <time>2021-05-09T11:01:11Z</time>
      </trkpt>
      <trkpt lat="41.3593470" lon="2.0485950">
        <ele>31.8</ele>
        <time>2021-05-09T11:01:15Z</time>
      </trkpt>
      <trkpt lat="41.3591060" lon="2.0484970">
        <ele>31.6</ele>
        <time>2021-05-09T11:01:21Z</time>
      </trkpt>
      <trkpt lat="41.3587610" lon="2.0483730">
        <ele>31.4</ele>
        <time>2021-05-09T11:01:29Z</time>
      </trkpt>
      <trkpt lat="41.3585460" lon="2.0483210">
        <ele>31.4</ele>
        <time>2021-05-09T11:01:35Z</time>
      </trkpt>
      <trkpt lat="41.3583960" lon="2.0482500">
        <ele>31.2</ele>
        <time>2021-05-09T11:01:40Z</time>
      </trkpt>
      <trkpt lat="41.3583190" lon="2.0482140">
        <ele>31.4</ele>
        <time>2021-05-09T11:01:45Z</time>
      </trkpt>
      <trkpt lat="41.3581910" lon="2.0481360">
        <ele>31.6</ele>
        <time>2021-05-09T11:01:50Z</time>
      </trkpt>
      <trkpt lat="41.3579860" lon="2.0480520">
        <ele>31.4</ele>
        <time>2021-05-09T11:01:55Z</time>
      </trkpt>
      <trkpt lat="41.3576730" lon="2.0478760">
        <ele>31.4</ele>
        <time>2021-05-09T11:02:02Z</time>
      </trkpt>
      <trkpt lat="41.3573570" lon="2.0476950">
        <ele>31.0</ele>
        <time>2021-05-09T11:02:09Z</time>
      </trkpt>
      <trkpt lat="41.3573070" lon="2.0476590">
        <ele>31.0</ele>
        <time>2021-05-09T11:02:10Z</time>
      </trkpt>
      <trkpt lat="41.3571220" lon="2.0475140">
        <ele>30.8</ele>
        <time>2021-05-09T11:02:14Z</time>
      </trkpt>
      <trkpt lat="41.3569840" lon="2.0474240">
        <ele>30.6</ele>
        <time>2021-05-09T11:02:17Z</time>
      </trkpt>
      <trkpt lat="41.3569140" lon="2.0473710">
        <ele>30.2</ele>
        <time>2021-05-09T11:02:19Z</time>
      </trkpt>
      <trkpt lat="41.3568050" lon="2.0472960">
        <ele>29.6</ele>
        <time>2021-05-09T11:02:24Z</time>
      </trkpt>
      <trkpt lat="41.3566780" lon="2.0472210">
        <ele>29.8</ele>
        <time>2021-05-09T11:02:29Z</time>
      </trkpt>
      <trkpt lat="41.3564490" lon="2.0470690">
        <ele>30.0</ele>
        <time>2021-05-09T11:02:35Z</time>
      </trkpt>
      <trkpt lat="41.3561140" lon="2.0468600">
        <ele>29.6</ele>
        <time>2021-05-09T11:02:42Z</time>
      </trkpt>
      <trkpt lat="41.3558700" lon="2.0467280">
        <ele>29.6</ele>
        <time>2021-05-09T11:02:47Z</time>
      </trkpt>
      <trkpt lat="41.3558260" lon="2.0466950">
        <ele>29.6</ele>
        <time>2021-05-09T11:02:48Z</time>
      </trkpt>
      <trkpt lat="41.3555560" lon="2.0465350">
        <ele>29.2</ele>
        <time>2021-05-09T11:02:54Z</time>
      </trkpt>
      <trkpt lat="41.3552510" lon="2.0464060">
        <ele>28.8</ele>
        <time>2021-05-09T11:03:01Z</time>
      </trkpt>
      <trkpt lat="41.3552020" lon="2.0463900">
        <ele>28.8</ele>
        <time>2021-05-09T11:03:02Z</time>
      </trkpt>
      <trkpt lat="41.3551080" lon="2.0463510">
        <ele>28.6</ele>
        <time>2021-05-09T11:03:04Z</time>
      </trkpt>
      <trkpt lat="41.3549150" lon="2.0462850">
        <ele>28.6</ele>
        <time>2021-05-09T11:03:08Z</time>
      </trkpt>
      <trkpt lat="41.3545860" lon="2.0462080">
        <ele>28.6</ele>
        <time>2021-05-09T11:03:15Z</time>
      </trkpt>
      <trkpt lat="41.3541930" lon="2.0461560">
        <ele>29.2</ele>
        <time>2021-05-09T11:03:23Z</time>
      </trkpt>
      <trkpt lat="41.3541470" lon="2.0461510">
        <ele>29.2</ele>
        <time>2021-05-09T11:03:24Z</time>
      </trkpt>
      <trkpt lat="41.3540020" lon="2.0461120">
        <ele>29.2</ele>
        <time>2021-05-09T11:03:27Z</time>
      </trkpt>
      <trkpt lat="41.3539570" lon="2.0461070">
        <ele>29.0</ele>
        <time>2021-05-09T11:03:28Z</time>
      </trkpt>
      <trkpt lat="41.3537680" lon="2.0461150">
        <ele>29.0</ele>
        <time>2021-05-09T11:03:33Z</time>
      </trkpt>
      <trkpt lat="41.3535350" lon="2.0461270">
        <ele>28.4</ele>
        <time>2021-05-09T11:03:39Z</time>
      </trkpt>
      <trkpt lat="41.3532620" lon="2.0461690">
        <ele>28.4</ele>
        <time>2021-05-09T11:03:47Z</time>
      </trkpt>
      <trkpt lat="41.3530490" lon="2.0462220">
        <ele>27.8</ele>
        <time>2021-05-09T11:03:54Z</time>
      </trkpt>
      <trkpt lat="41.3528140" lon="2.0462820">
        <ele>28.2</ele>
        <time>2021-05-09T11:04:01Z</time>
      </trkpt>
      <trkpt lat="41.3525300" lon="2.0463440">
        <ele>27.8</ele>
        <time>2021-05-09T11:04:08Z</time>
      </trkpt>
      <trkpt lat="41.3524860" lon="2.0463570">
        <ele>27.8</ele>
        <time>2021-05-09T11:04:09Z</time>
      </trkpt>
      <trkpt lat="41.3522900" lon="2.0464380">
        <ele>28.0</ele>
        <time>2021-05-09T11:04:14Z</time>
      </trkpt>
      <trkpt lat="41.3520620" lon="2.0465380">
        <ele>28.0</ele>
        <time>2021-05-09T11:04:21Z</time>
      </trkpt>
      <trkpt lat="41.3519270" lon="2.0465930">
        <ele>28.2</ele>
        <time>2021-05-09T11:04:26Z</time>
      </trkpt>
      <trkpt lat="41.3518200" lon="2.0466530">
        <ele>29.8</ele>
        <time>2021-05-09T11:04:31Z</time>
      </trkpt>
      <trkpt lat="41.3517590" lon="2.0466870">
        <ele>30.4</ele>
        <time>2021-05-09T11:04:35Z</time>
      </trkpt>
      <trkpt lat="41.3517420" lon="2.0466930">
        <ele>30.6</ele>
        <time>2021-05-09T11:04:37Z</time>
      </trkpt>
      <trkpt lat="41.3516570" lon="2.0467160">
        <ele>30.8</ele>
        <time>2021-05-09T11:04:41Z</time>
      </trkpt>
      <trkpt lat="41.3514540" lon="2.0466830">
        <ele>31.0</ele>
        <time>2021-05-09T11:04:48Z</time>
      </trkpt>
      <trkpt lat="41.3512590" lon="2.0466820">
        <ele>30.8</ele>
        <time>2021-05-09T11:04:55Z</time>
      </trkpt>
      <trkpt lat="41.3510120" lon="2.0466750">
        <ele>30.8</ele>
        <time>2021-05-09T11:05:02Z</time>
      </trkpt>
      <trkpt lat="41.3508210" lon="2.0466710">
        <ele>31.4</ele>
        <time>2021-05-09T11:05:08Z</time>
      </trkpt>
      <trkpt lat="41.3507420" lon="2.0467210">
        <ele>31.8</ele>
        <time>2021-05-09T11:05:11Z</time>
      </trkpt>
      <trkpt lat="41.3506820" lon="2.0467690">
        <ele>32.2</ele>
        <time>2021-05-09T11:05:14Z</time>
      </trkpt>
      <trkpt lat="41.3505390" lon="2.0468790">
        <ele>32.8</ele>
        <time>2021-05-09T11:05:20Z</time>
      </trkpt>
      <trkpt lat="41.3505050" lon="2.0468930">
        <ele>33.0</ele>
        <time>2021-05-09T11:05:21Z</time>
      </trkpt>
      <trkpt lat="41.3503190" lon="2.0470120">
        <ele>33.2</ele>
        <time>2021-05-09T11:05:27Z</time>
      </trkpt>
      <trkpt lat="41.3501740" lon="2.0471200">
        <ele>33.2</ele>
        <time>2021-05-09T11:05:33Z</time>
      </trkpt>
      <trkpt lat="41.3501030" lon="2.0471580">
        <ele>33.2</ele>
        <time>2021-05-09T11:05:37Z</time>
      </trkpt>
      <trkpt lat="41.3499600" lon="2.0472800">
        <ele>33.4</ele>
        <time>2021-05-09T11:05:42Z</time>
      </trkpt>
      <trkpt lat="41.3497900" lon="2.0474400">
        <ele>33.0</ele>
        <time>2021-05-09T11:05:48Z</time>
      </trkpt>
      <trkpt lat="41.3496010" lon="2.0476380">
        <ele>33.4</ele>
        <time>2021-05-09T11:05:55Z</time>
      </trkpt>
      <trkpt lat="41.3495710" lon="2.0476660">
        <ele>33.6</ele>
        <time>2021-05-09T11:05:56Z</time>
      </trkpt>
      <trkpt lat="41.3494630" lon="2.0476970">
        <ele>33.2</ele>
        <time>2021-05-09T11:05:59Z</time>
      </trkpt>
      <trkpt lat="41.3493890" lon="2.0476940">
        <ele>32.4</ele>
        <time>2021-05-09T11:06:01Z</time>
      </trkpt>
      <trkpt lat="41.3493280" lon="2.0476720">
        <ele>31.8</ele>
        <time>2021-05-09T11:06:03Z</time>
      </trkpt>
      <trkpt lat="41.3492960" lon="2.0476460">
        <ele>31.4</ele>
        <time>2021-05-09T11:06:04Z</time>
      </trkpt>
      <trkpt lat="41.3492570" lon="2.0476330">
        <ele>31.2</ele>
        <time>2021-05-09T11:06:05Z</time>
      </trkpt>
      <trkpt lat="41.3491900" lon="2.0476420">
        <ele>30.4</ele>
        <time>2021-05-09T11:06:07Z</time>
      </trkpt>
      <trkpt lat="41.3491590" lon="2.0476430">
        <ele>30.2</ele>
        <time>2021-05-09T11:06:08Z</time>
      </trkpt>
      <trkpt lat="41.3490970" lon="2.0476490">
        <ele>29.6</ele>
        <time>2021-05-09T11:06:10Z</time>
      </trkpt>
      <trkpt lat="41.3490160" lon="2.0477340">
        <ele>29.0</ele>
        <time>2021-05-09T11:06:13Z</time>
      </trkpt>
      <trkpt lat="41.3490000" lon="2.0478010">
        <ele>27.8</ele>
        <time>2021-05-09T11:06:15Z</time>
      </trkpt>
      <trkpt lat="41.3489920" lon="2.0478350">
        <ele>27.8</ele>
        <time>2021-05-09T11:06:16Z</time>
      </trkpt>
      <trkpt lat="41.3489640" lon="2.0479030">
        <ele>27.8</ele>
        <time>2021-05-09T11:06:18Z</time>
      </trkpt>
      <trkpt lat="41.3488500" lon="2.0481150">
        <ele>28.2</ele>
        <time>2021-05-09T11:06:23Z</time>
      </trkpt>
      <trkpt lat="41.3486870" lon="2.0484320">
        <ele>28.0</ele>
        <time>2021-05-09T11:06:30Z</time>
      </trkpt>
      <trkpt lat="41.3485350" lon="2.0487690">
        <ele>27.8</ele>
        <time>2021-05-09T11:06:37Z</time>
      </trkpt>
      <trkpt lat="41.3484310" lon="2.0491480">
        <ele>27.6</ele>
        <time>2021-05-09T11:06:44Z</time>
      </trkpt>
      <trkpt lat="41.3483580" lon="2.0495900">
        <ele>27.6</ele>
        <time>2021-05-09T11:06:52Z</time>
      </trkpt>
      <trkpt lat="41.3483010" lon="2.0500570">
        <ele>27.2</ele>
        <time>2021-05-09T11:07:00Z</time>
      </trkpt>
      <trkpt lat="41.3482900" lon="2.0501760">
        <ele>26.8</ele>
        <time>2021-05-09T11:07:02Z</time>
      </trkpt>
      <trkpt lat="41.3482760" lon="2.0505260">
        <ele>27.6</ele>
        <time>2021-05-09T11:07:08Z</time>
      </trkpt>
      <trkpt lat="41.3483020" lon="2.0507610">
        <ele>27.6</ele>
        <time>2021-05-09T11:07:12Z</time>
      </trkpt>
      <trkpt lat="41.3483130" lon="2.0508780">
        <ele>27.6</ele>
        <time>2021-05-09T11:07:14Z</time>
      </trkpt>
      <trkpt lat="41.3483690" lon="2.0513550">
        <ele>27.6</ele>
        <time>2021-05-09T11:07:22Z</time>
      </trkpt>
      <trkpt lat="41.3483750" lon="2.0514730">
        <ele>28.2</ele>
        <time>2021-05-09T11:07:24Z</time>
      </trkpt>
      <trkpt lat="41.3483880" lon="2.0517420">
        <ele>27.8</ele>
        <time>2021-05-09T11:07:29Z</time>
      </trkpt>
      <trkpt lat="41.3484530" lon="2.0520760">
        <ele>28.4</ele>
        <time>2021-05-09T11:07:36Z</time>
      </trkpt>
      <trkpt lat="41.3485700" lon="2.0524410">
        <ele>28.8</ele>
        <time>2021-05-09T11:07:43Z</time>
      </trkpt>
      <trkpt lat="41.3486940" lon="2.0526710">
        <ele>28.6</ele>
        <time>2021-05-09T11:07:49Z</time>
      </trkpt>
      <trkpt lat="41.3487970" lon="2.0529960">
        <ele>28.8</ele>
        <time>2021-05-09T11:07:57Z</time>
      </trkpt>
      <trkpt lat="41.3488050" lon="2.0530300">
        <ele>29.2</ele>
        <time>2021-05-09T11:07:58Z</time>
      </trkpt>
      <trkpt lat="41.3488610" lon="2.0532330">
        <ele>30.2</ele>
        <time>2021-05-09T11:08:04Z</time>
      </trkpt>
      <trkpt lat="41.3489350" lon="2.0535080">
        <ele>31.2</ele>
        <time>2021-05-09T11:08:11Z</time>
      </trkpt>
      <trkpt lat="41.3489460" lon="2.0535420">
        <ele>31.2</ele>
        <time>2021-05-09T11:08:12Z</time>
      </trkpt>
      <trkpt lat="41.3489990" lon="2.0537470">
        <ele>31.8</ele>
        <time>2021-05-09T11:08:18Z</time>
      </trkpt>
      <trkpt lat="41.3490290" lon="2.0538440">
        <ele>32.4</ele>
        <time>2021-05-09T11:08:21Z</time>
      </trkpt>
      <trkpt lat="41.3490640" lon="2.0539060">
        <ele>32.6</ele>
        <time>2021-05-09T11:08:23Z</time>
      </trkpt>
      <trkpt lat="41.3491110" lon="2.0541550">
        <ele>33.0</ele>
        <time>2021-05-09T11:08:29Z</time>
      </trkpt>
      <trkpt lat="41.3491500" lon="2.0544540">
        <ele>33.0</ele>
        <time>2021-05-09T11:08:35Z</time>
      </trkpt>
      <trkpt lat="41.3492000" lon="2.0547660">
        <ele>33.4</ele>
        <time>2021-05-09T11:08:41Z</time>
      </trkpt>
      <trkpt lat="41.3492180" lon="2.0549430">
        <ele>33.2</ele>
        <time>2021-05-09T11:08:46Z</time>
      </trkpt>
      <trkpt lat="41.3492050" lon="2.0549600">
        <ele>33.2</ele>
        <time>2021-05-09T11:08:49Z</time>
      </trkpt>
      <trkpt lat="41.3491560" lon="2.0550450">
        <ele>34.4</ele>
        <time>2021-05-09T11:12:43Z</time>
      </trkpt>
      <trkpt lat="41.3491890" lon="2.0551810">
        <ele>34.6</ele>
        <time>2021-05-09T11:12:46Z</time>
      </trkpt>
      <trkpt lat="41.3492010" lon="2.0552440">
        <ele>34.6</ele>
        <time>2021-05-09T11:12:47Z</time>
      </trkpt>
      <trkpt lat="41.3492280" lon="2.0554310">
        <ele>34.6</ele>
        <time>2021-05-09T11:12:50Z</time>
      </trkpt>
      <trkpt lat="41.3492470" lon="2.0555600">
        <ele>34.6</ele>
        <time>2021-05-09T11:12:52Z</time>
      </trkpt>
      <trkpt lat="41.3492770" lon="2.0557790">
        <ele>34.2</ele>
        <time>2021-05-09T11:12:55Z</time>
      </trkpt>
      <trkpt lat="41.3493090" lon="2.0563260">
        <ele>34.6</ele>
        <time>2021-05-09T11:13:02Z</time>
      </trkpt>
      <trkpt lat="41.3493180" lon="2.0566490">
        <ele>34.4</ele>
        <time>2021-05-09T11:13:06Z</time>
      </trkpt>
      <trkpt lat="41.3493210" lon="2.0568080">
        <ele>34.4</ele>
        <time>2021-05-09T11:13:08Z</time>
      </trkpt>
      <trkpt lat="41.3493120" lon="2.0574440">
        <ele>34.4</ele>
        <time>2021-05-09T11:13:16Z</time>
      </trkpt>
      <trkpt lat="41.3493040" lon="2.0575990">
        <ele>34.4</ele>
        <time>2021-05-09T11:13:18Z</time>
      </trkpt>
      <trkpt lat="41.3492800" lon="2.0578950">
        <ele>34.4</ele>
        <time>2021-05-09T11:13:22Z</time>
      </trkpt>
      <trkpt lat="41.3492500" lon="2.0582560">
        <ele>34.6</ele>
        <time>2021-05-09T11:13:27Z</time>
      </trkpt>
      <trkpt lat="41.3492420" lon="2.0584100">
        <ele>34.4</ele>
        <time>2021-05-09T11:13:29Z</time>
      </trkpt>
      <trkpt lat="41.3491990" lon="2.0589420">
        <ele>34.2</ele>
        <time>2021-05-09T11:13:36Z</time>
      </trkpt>
      <trkpt lat="41.3491790" lon="2.0591470">
        <ele>33.8</ele>
        <time>2021-05-09T11:13:39Z</time>
      </trkpt>
      <trkpt lat="41.3491590" lon="2.0593560">
        <ele>33.6</ele>
        <time>2021-05-09T11:13:42Z</time>
      </trkpt>
      <trkpt lat="41.3491020" lon="2.0598020">
        <ele>34.0</ele>
        <time>2021-05-09T11:13:48Z</time>
      </trkpt>
      <trkpt lat="41.3490630" lon="2.0600290">
        <ele>34.0</ele>
        <time>2021-05-09T11:13:51Z</time>
      </trkpt>
      <trkpt lat="41.3490270" lon="2.0602550">
        <ele>33.8</ele>
        <time>2021-05-09T11:13:54Z</time>
      </trkpt>
      <trkpt lat="41.3489580" lon="2.0606950">
        <ele>33.6</ele>
        <time>2021-05-09T11:14:00Z</time>
      </trkpt>
      <trkpt lat="41.3489330" lon="2.0608370">
        <ele>33.6</ele>
        <time>2021-05-09T11:14:02Z</time>
      </trkpt>
      <trkpt lat="41.3488770" lon="2.0611660">
        <ele>33.4</ele>
        <time>2021-05-09T11:14:07Z</time>
      </trkpt>
      <trkpt lat="41.3487680" lon="2.0616550">
        <ele>33.6</ele>
        <time>2021-05-09T11:14:14Z</time>
      </trkpt>
      <trkpt lat="41.3487360" lon="2.0617940">
        <ele>33.6</ele>
        <time>2021-05-09T11:14:16Z</time>
      </trkpt>
      <trkpt lat="41.3486760" lon="2.0620050">
        <ele>33.2</ele>
        <time>2021-05-09T11:14:19Z</time>
      </trkpt>
      <trkpt lat="41.3485270" lon="2.0625120">
        <ele>34.0</ele>
        <time>2021-05-09T11:14:26Z</time>
      </trkpt>
      <trkpt lat="41.3484610" lon="2.0627100">
        <ele>34.2</ele>
        <time>2021-05-09T11:14:29Z</time>
      </trkpt>
      <trkpt lat="41.3484140" lon="2.0628410">
        <ele>34.0</ele>
        <time>2021-05-09T11:14:31Z</time>
      </trkpt>
      <trkpt lat="41.3483710" lon="2.0629870">
        <ele>34.0</ele>
        <time>2021-05-09T11:14:33Z</time>
      </trkpt>
      <trkpt lat="41.3483000" lon="2.0632070">
        <ele>33.6</ele>
        <time>2021-05-09T11:14:36Z</time>
      </trkpt>
      <trkpt lat="41.3481510" lon="2.0636400">
        <ele>33.6</ele>
        <time>2021-05-09T11:14:42Z</time>
      </trkpt>
      <trkpt lat="41.3479850" lon="2.0641520">
        <ele>33.4</ele>
        <time>2021-05-09T11:14:49Z</time>
      </trkpt>
      <trkpt lat="41.3478460" lon="2.0645920">
        <ele>32.8</ele>
        <time>2021-05-09T11:14:55Z</time>
      </trkpt>
      <trkpt lat="41.3477910" lon="2.0647450">
        <ele>32.8</ele>
        <time>2021-05-09T11:14:57Z</time>
      </trkpt>
      <trkpt lat="41.3475840" lon="2.0653610">
        <ele>34.0</ele>
        <time>2021-05-09T11:15:05Z</time>
      </trkpt>
      <trkpt lat="41.3475330" lon="2.0655190">
        <ele>33.4</ele>
        <time>2021-05-09T11:15:07Z</time>
      </trkpt>
      <trkpt lat="41.3474590" lon="2.0657390">
        <ele>33.4</ele>
        <time>2021-05-09T11:15:10Z</time>
      </trkpt>
      <trkpt lat="41.3473080" lon="2.0661610">
        <ele>33.4</ele>
        <time>2021-05-09T11:15:16Z</time>
      </trkpt>
      <trkpt lat="41.3471380" lon="2.0667030">
        <ele>33.4</ele>
        <time>2021-05-09T11:15:24Z</time>
      </trkpt>
      <trkpt lat="41.3470960" lon="2.0668290">
        <ele>33.2</ele>
        <time>2021-05-09T11:15:26Z</time>
      </trkpt>
      <trkpt lat="41.3470790" lon="2.0668910">
        <ele>33.0</ele>
        <time>2021-05-09T11:15:27Z</time>
      </trkpt>
      <trkpt lat="41.3470280" lon="2.0670740">
        <ele>33.0</ele>
        <time>2021-05-09T11:15:30Z</time>
      </trkpt>
      <trkpt lat="41.3469650" lon="2.0672390">
        <ele>33.0</ele>
        <time>2021-05-09T11:15:33Z</time>
      </trkpt>
      <trkpt lat="41.3469110" lon="2.0673960">
        <ele>33.0</ele>
        <time>2021-05-09T11:15:36Z</time>
      </trkpt>
      <trkpt lat="41.3468130" lon="2.0676650">
        <ele>33.0</ele>
        <time>2021-05-09T11:15:42Z</time>
      </trkpt>
      <trkpt lat="41.3467460" lon="2.0679080">
        <ele>32.6</ele>
        <time>2021-05-09T11:15:49Z</time>
      </trkpt>
      <trkpt lat="41.3466830" lon="2.0681160">
        <ele>32.6</ele>
        <time>2021-05-09T11:15:55Z</time>
      </trkpt>
      <trkpt lat="41.3466150" lon="2.0683260">
        <ele>32.4</ele>
        <time>2021-05-09T11:16:00Z</time>
      </trkpt>
      <trkpt lat="41.3465780" lon="2.0684840">
        <ele>32.0</ele>
        <time>2021-05-09T11:16:05Z</time>
      </trkpt>
      <trkpt lat="41.3465720" lon="2.0685120">
        <ele>32.0</ele>
        <time>2021-05-09T11:16:06Z</time>
      </trkpt>
      <trkpt lat="41.3465250" lon="2.0687190">
        <ele>31.8</ele>
        <time>2021-05-09T11:16:13Z</time>
      </trkpt>
      <trkpt lat="41.3464600" lon="2.0689510">
        <ele>32.0</ele>
        <time>2021-05-09T11:16:20Z</time>
      </trkpt>
      <trkpt lat="41.3463750" lon="2.0692090">
        <ele>32.2</ele>
        <time>2021-05-09T11:16:26Z</time>
      </trkpt>
      <trkpt lat="41.3463430" lon="2.0693090">
        <ele>32.0</ele>
        <time>2021-05-09T11:16:28Z</time>
      </trkpt>
      <trkpt lat="41.3463140" lon="2.0694690">
        <ele>32.2</ele>
        <time>2021-05-09T11:16:31Z</time>
      </trkpt>
      <trkpt lat="41.3461980" lon="2.0699120">
        <ele>31.8</ele>
        <time>2021-05-09T11:16:39Z</time>
      </trkpt>
      <trkpt lat="41.3460390" lon="2.0703260">
        <ele>31.6</ele>
        <time>2021-05-09T11:16:47Z</time>
      </trkpt>
      <trkpt lat="41.3459250" lon="2.0707130">
        <ele>32.4</ele>
        <time>2021-05-09T11:16:54Z</time>
      </trkpt>
      <trkpt lat="41.3459080" lon="2.0707680">
        <ele>32.4</ele>
        <time>2021-05-09T11:16:55Z</time>
      </trkpt>
      <trkpt lat="41.3458080" lon="2.0711560">
        <ele>32.4</ele>
        <time>2021-05-09T11:17:02Z</time>
      </trkpt>
      <trkpt lat="41.3457950" lon="2.0712110">
        <ele>32.4</ele>
        <time>2021-05-09T11:17:03Z</time>
      </trkpt>
      <trkpt lat="41.3456770" lon="2.0716590">
        <ele>32.0</ele>
        <time>2021-05-09T11:17:11Z</time>
      </trkpt>
      <trkpt lat="41.3455780" lon="2.0720650">
        <ele>32.0</ele>
        <time>2021-05-09T11:17:18Z</time>
      </trkpt>
      <trkpt lat="41.3454720" lon="2.0724940">
        <ele>31.6</ele>
        <time>2021-05-09T11:17:25Z</time>
      </trkpt>
      <trkpt lat="41.3453690" lon="2.0729900">
        <ele>31.8</ele>
        <time>2021-05-09T11:17:33Z</time>
      </trkpt>
      <trkpt lat="41.3452760" lon="2.0734830">
        <ele>31.6</ele>
        <time>2021-05-09T11:17:41Z</time>
      </trkpt>
      <trkpt lat="41.3452260" lon="2.0737290">
        <ele>31.2</ele>
        <time>2021-05-09T11:17:45Z</time>
      </trkpt>
      <trkpt lat="41.3451770" lon="2.0739790">
        <ele>30.8</ele>
        <time>2021-05-09T11:17:49Z</time>
      </trkpt>
      <trkpt lat="41.3450560" lon="2.0746970">
        <ele>31.4</ele>
        <time>2021-05-09T11:18:01Z</time>
      </trkpt>
      <trkpt lat="41.3449610" lon="2.0751750">
        <ele>30.8</ele>
        <time>2021-05-09T11:18:09Z</time>
      </trkpt>
      <trkpt lat="41.3448760" lon="2.0757790">
        <ele>31.2</ele>
        <time>2021-05-09T11:18:19Z</time>
      </trkpt>
      <trkpt lat="41.3448390" lon="2.0760110">
        <ele>31.2</ele>
        <time>2021-05-09T11:18:23Z</time>
      </trkpt>
      <trkpt lat="41.3448140" lon="2.0761880">
        <ele>31.0</ele>
        <time>2021-05-09T11:18:26Z</time>
      </trkpt>
      <trkpt lat="41.3447470" lon="2.0767000">
        <ele>30.4</ele>
        <time>2021-05-09T11:18:35Z</time>
      </trkpt>
      <trkpt lat="41.3446970" lon="2.0771250">
        <ele>30.6</ele>
        <time>2021-05-09T11:18:42Z</time>
      </trkpt>
      <trkpt lat="41.3446660" lon="2.0774350">
        <ele>30.4</ele>
        <time>2021-05-09T11:18:47Z</time>
      </trkpt>
      <trkpt lat="41.3446190" lon="2.0778680">
        <ele>29.8</ele>
        <time>2021-05-09T11:18:54Z</time>
      </trkpt>
      <trkpt lat="41.3445560" lon="2.0784220">
        <ele>30.2</ele>
        <time>2021-05-09T11:19:03Z</time>
      </trkpt>
      <trkpt lat="41.3444830" lon="2.0790290">
        <ele>29.8</ele>
        <time>2021-05-09T11:19:13Z</time>
      </trkpt>
      <trkpt lat="41.3444080" lon="2.0795900">
        <ele>30.0</ele>
        <time>2021-05-09T11:19:22Z</time>
      </trkpt>
      <trkpt lat="41.3443450" lon="2.0801140">
        <ele>29.6</ele>
        <time>2021-05-09T11:19:31Z</time>
      </trkpt>
      <trkpt lat="41.3443120" lon="2.0805230">
        <ele>29.0</ele>
        <time>2021-05-09T11:19:38Z</time>
      </trkpt>
      <trkpt lat="41.3443030" lon="2.0805840">
        <ele>29.0</ele>
        <time>2021-05-09T11:19:39Z</time>
      </trkpt>
      <trkpt lat="41.3442320" lon="2.0811930">
        <ele>29.6</ele>
        <time>2021-05-09T11:19:49Z</time>
      </trkpt>
      <trkpt lat="41.3442150" lon="2.0813110">
        <ele>30.2</ele>
        <time>2021-05-09T11:19:51Z</time>
      </trkpt>
      <trkpt lat="41.3441430" lon="2.0818560">
        <ele>29.8</ele>
        <time>2021-05-09T11:20:00Z</time>
      </trkpt>
      <trkpt lat="41.3440810" lon="2.0823500">
        <ele>29.4</ele>
        <time>2021-05-09T11:20:08Z</time>
      </trkpt>
      <trkpt lat="41.3440340" lon="2.0826650">
        <ele>29.0</ele>
        <time>2021-05-09T11:20:13Z</time>
      </trkpt>
      <trkpt lat="41.3439980" lon="2.0829200">
        <ele>28.4</ele>
        <time>2021-05-09T11:20:17Z</time>
      </trkpt>
      <trkpt lat="41.3439160" lon="2.0834070">
        <ele>28.8</ele>
        <time>2021-05-09T11:20:25Z</time>
      </trkpt>
      <trkpt lat="41.3438200" lon="2.0839310">
        <ele>29.0</ele>
        <time>2021-05-09T11:20:34Z</time>
      </trkpt>
      <trkpt lat="41.3437140" lon="2.0845080">
        <ele>29.0</ele>
        <time>2021-05-09T11:20:44Z</time>
      </trkpt>
      <trkpt lat="41.3436180" lon="2.0849970">
        <ele>29.2</ele>
        <time>2021-05-09T11:20:53Z</time>
      </trkpt>
      <trkpt lat="41.3435020" lon="2.0856750">
        <ele>28.4</ele>
        <time>2021-05-09T11:21:05Z</time>
      </trkpt>
      <trkpt lat="41.3433720" lon="2.0863100">
        <ele>29.2</ele>
        <time>2021-05-09T11:21:16Z</time>
      </trkpt>
      <trkpt lat="41.3432410" lon="2.0868840">
        <ele>28.6</ele>
        <time>2021-05-09T11:21:26Z</time>
      </trkpt>
      <trkpt lat="41.3431160" lon="2.0874040">
        <ele>28.8</ele>
        <time>2021-05-09T11:21:35Z</time>
      </trkpt>
      <trkpt lat="41.3429910" lon="2.0879690">
        <ele>28.2</ele>
        <time>2021-05-09T11:21:45Z</time>
      </trkpt>
      <trkpt lat="41.3428990" lon="2.0883570">
        <ele>29.2</ele>
        <time>2021-05-09T11:21:52Z</time>
      </trkpt>
      <trkpt lat="41.3428420" lon="2.0885710">
        <ele>29.4</ele>
        <time>2021-05-09T11:21:56Z</time>
      </trkpt>
      <trkpt lat="41.3426890" lon="2.0891120">
        <ele>29.2</ele>
        <time>2021-05-09T11:22:06Z</time>
      </trkpt>
      <trkpt lat="41.3425400" lon="2.0896800">
        <ele>28.6</ele>
        <time>2021-05-09T11:22:16Z</time>
      </trkpt>
      <trkpt lat="41.3424420" lon="2.0900360">
        <ele>28.6</ele>
        <time>2021-05-09T11:22:22Z</time>
      </trkpt>
      <trkpt lat="41.3423250" lon="2.0904800">
        <ele>29.4</ele>
        <time>2021-05-09T11:22:30Z</time>
      </trkpt>
      <trkpt lat="41.3422260" lon="2.0908160">
        <ele>29.0</ele>
        <time>2021-05-09T11:22:36Z</time>
      </trkpt>
      <trkpt lat="41.3420700" lon="2.0912610">
        <ele>29.2</ele>
        <time>2021-05-09T11:22:44Z</time>
      </trkpt>
      <trkpt lat="41.3419010" lon="2.0917110">
        <ele>28.4</ele>
        <time>2021-05-09T11:22:52Z</time>
      </trkpt>
      <trkpt lat="41.3417160" lon="2.0921900">
        <ele>28.8</ele>
        <time>2021-05-09T11:23:01Z</time>
      </trkpt>
      <trkpt lat="41.3415230" lon="2.0927010">
        <ele>29.0</ele>
        <time>2021-05-09T11:23:11Z</time>
      </trkpt>
      <trkpt lat="41.3413230" lon="2.0932020">
        <ele>28.6</ele>
        <time>2021-05-09T11:23:21Z</time>
      </trkpt>
      <trkpt lat="41.3412230" lon="2.0934380">
        <ele>28.2</ele>
        <time>2021-05-09T11:23:26Z</time>
      </trkpt>
      <trkpt lat="41.3411580" lon="2.0935840">
        <ele>28.6</ele>
        <time>2021-05-09T11:23:29Z</time>
      </trkpt>
      <trkpt lat="41.3410270" lon="2.0938500">
        <ele>29.2</ele>
        <time>2021-05-09T11:23:35Z</time>
      </trkpt>
      <trkpt lat="41.3409260" lon="2.0940780">
        <ele>29.2</ele>
        <time>2021-05-09T11:23:40Z</time>
      </trkpt>
      <trkpt lat="41.3408420" lon="2.0942660">
        <ele>28.2</ele>
        <time>2021-05-09T11:23:44Z</time>
      </trkpt>
      <trkpt lat="41.3407080" lon="2.0945360">
        <ele>28.6</ele>
        <time>2021-05-09T11:23:50Z</time>
      </trkpt>
      <trkpt lat="41.3404970" lon="2.0949280">
        <ele>28.0</ele>
        <time>2021-05-09T11:23:59Z</time>
      </trkpt>
      <trkpt lat="41.3403330" lon="2.0952480">
        <ele>28.4</ele>
        <time>2021-05-09T11:24:07Z</time>
      </trkpt>
      <trkpt lat="41.3401410" lon="2.0956540">
        <ele>27.8</ele>
        <time>2021-05-09T11:24:17Z</time>
      </trkpt>
      <trkpt lat="41.3399030" lon="2.0961290">
        <ele>28.2</ele>
        <time>2021-05-09T11:24:28Z</time>
      </trkpt>
      <trkpt lat="41.3396700" lon="2.0966010">
        <ele>28.2</ele>
        <time>2021-05-09T11:24:39Z</time>
      </trkpt>
      <trkpt lat="41.3395400" lon="2.0968470">
        <ele>27.6</ele>
        <time>2021-05-09T11:24:46Z</time>
      </trkpt>
      <trkpt lat="41.3394000" lon="2.0970920">
        <ele>27.8</ele>
        <time>2021-05-09T11:24:53Z</time>
      </trkpt>
      <trkpt lat="41.3392610" lon="2.0973520">
        <ele>27.8</ele>
        <time>2021-05-09T11:25:00Z</time>
      </trkpt>
      <trkpt lat="41.3390880" lon="2.0976120">
        <ele>27.8</ele>
        <time>2021-05-09T11:25:08Z</time>
      </trkpt>
      <trkpt lat="41.3389620" lon="2.0977990">
        <ele>27.6</ele>
        <time>2021-05-09T11:25:14Z</time>
      </trkpt>
      <trkpt lat="41.3388490" lon="2.0979730">
        <ele>27.4</ele>
        <time>2021-05-09T11:25:19Z</time>
      </trkpt>
      <trkpt lat="41.3387820" lon="2.0980700">
        <ele>27.2</ele>
        <time>2021-05-09T11:25:22Z</time>
      </trkpt>
      <trkpt lat="41.3386000" lon="2.0983400">
        <ele>27.6</ele>
        <time>2021-05-09T11:25:30Z</time>
      </trkpt>
      <trkpt lat="41.3384570" lon="2.0985380">
        <ele>27.6</ele>
        <time>2021-05-09T11:25:36Z</time>
      </trkpt>
      <trkpt lat="41.3382860" lon="2.0987750">
        <ele>27.0</ele>
        <time>2021-05-09T11:25:43Z</time>
      </trkpt>
      <trkpt lat="41.3381120" lon="2.0989910">
        <ele>27.2</ele>
        <time>2021-05-09T11:25:50Z</time>
      </trkpt>
      <trkpt lat="41.3379640" lon="2.0992020">
        <ele>27.2</ele>
        <time>2021-05-09T11:25:57Z</time>
      </trkpt>
      <trkpt lat="41.3379650" lon="2.0992320">
        <ele>27.4</ele>
        <time>2021-05-09T11:25:58Z</time>
      </trkpt>
      <trkpt lat="41.3379870" lon="2.0992900">
        <ele>28.4</ele>
        <time>2021-05-09T11:26:00Z</time>
      </trkpt>
      <trkpt lat="41.3380040" lon="2.0993170">
        <ele>28.6</ele>
        <time>2021-05-09T11:26:01Z</time>
      </trkpt>
      <trkpt lat="41.3381230" lon="2.0994000">
        <ele>28.6</ele>
        <time>2021-05-09T11:26:06Z</time>
      </trkpt>
      <trkpt lat="41.3382230" lon="2.0993120">
        <ele>28.2</ele>
        <time>2021-05-09T11:26:10Z</time>
      </trkpt>
      <trkpt lat="41.3383340" lon="2.0991810">
        <ele>27.6</ele>
        <time>2021-05-09T11:26:14Z</time>
      </trkpt>
      <trkpt lat="41.3383760" lon="2.0991860">
        <ele>27.2</ele>
        <time>2021-05-09T11:26:15Z</time>
      </trkpt>
      <trkpt lat="41.3384790" lon="2.0993090">
        <ele>26.2</ele>
        <time>2021-05-09T11:26:18Z</time>
      </trkpt>
      <trkpt lat="41.3386020" lon="2.0993880">
        <ele>25.2</ele>
        <time>2021-05-09T11:26:21Z</time>
      </trkpt>
      <trkpt lat="41.3386410" lon="2.0994100">
        <ele>25.0</ele>
        <time>2021-05-09T11:26:22Z</time>
      </trkpt>
      <trkpt lat="41.3386980" lon="2.0995170">
        <ele>25.0</ele>
        <time>2021-05-09T11:26:25Z</time>
      </trkpt>
      <trkpt lat="41.3387450" lon="2.0996590">
        <ele>25.4</ele>
        <time>2021-05-09T11:26:28Z</time>
      </trkpt>
      <trkpt lat="41.3387760" lon="2.0997430">
        <ele>25.2</ele>
        <time>2021-05-09T11:26:30Z</time>
      </trkpt>
      <trkpt lat="41.3388330" lon="2.0999890">
        <ele>25.0</ele>
        <time>2021-05-09T11:26:36Z</time>
      </trkpt>
      <trkpt lat="41.3388700" lon="2.1001250">
        <ele>26.2</ele>
        <time>2021-05-09T11:26:42Z</time>
      </trkpt>
      <trkpt lat="41.3389180" lon="2.1001920">
        <ele>26.0</ele>
        <time>2021-05-09T11:26:47Z</time>
      </trkpt>
      <trkpt lat="41.3389170" lon="2.1001920">
        <ele>25.8</ele>
        <time>2021-05-09T11:26:48Z</time>
      </trkpt>
      <trkpt lat="41.3389090" lon="2.1001400">
        <ele>25.6</ele>
        <time>2021-05-09T11:26:54Z</time>
      </trkpt>
      <trkpt lat="41.3389040" lon="2.1000880">
        <ele>25.6</ele>
        <time>2021-05-09T11:26:56Z</time>
      </trkpt>
      <trkpt lat="41.3388540" lon="2.0999710">
        <ele>26.2</ele>
        <time>2021-05-09T11:27:01Z</time>
      </trkpt>
      <trkpt lat="41.3388170" lon="2.0998310">
        <ele>25.2</ele>
        <time>2021-05-09T11:27:05Z</time>
      </trkpt>
      <trkpt lat="41.3387280" lon="2.0996310">
        <ele>24.0</ele>
        <time>2021-05-09T11:27:10Z</time>
      </trkpt>
      <trkpt lat="41.3386820" lon="2.0994680">
        <ele>24.2</ele>
        <time>2021-05-09T11:27:15Z</time>
      </trkpt>
      <trkpt lat="41.3386970" lon="2.0994270">
        <ele>24.2</ele>
        <time>2021-05-09T11:27:17Z</time>
      </trkpt>
      <trkpt lat="41.3387310" lon="2.0994170">
        <ele>24.4</ele>
        <time>2021-05-09T11:27:19Z</time>
      </trkpt>
      <trkpt lat="41.3387800" lon="2.0994500">
        <ele>25.0</ele>
        <time>2021-05-09T11:27:22Z</time>
      </trkpt>
      <trkpt lat="41.3387970" lon="2.0994630">
        <ele>25.2</ele>
        <time>2021-05-09T11:27:23Z</time>
      </trkpt>
      <trkpt lat="41.3388370" lon="2.0994970">
        <ele>25.6</ele>
        <time>2021-05-09T11:27:25Z</time>
      </trkpt>
      <trkpt lat="41.3389770" lon="2.0996530">
        <ele>25.6</ele>
        <time>2021-05-09T11:27:31Z</time>
      </trkpt>
      <trkpt lat="41.3390460" lon="2.0998950">
        <ele>25.6</ele>
        <time>2021-05-09T11:27:38Z</time>
      </trkpt>
      <trkpt lat="41.3390500" lon="2.1000170">
        <ele>26.2</ele>
        <time>2021-05-09T11:27:42Z</time>
      </trkpt>
      <trkpt lat="41.3390280" lon="2.1001690">
        <ele>26.0</ele>
        <time>2021-05-09T11:27:46Z</time>
      </trkpt>
      <trkpt lat="41.3389560" lon="2.1004210">
        <ele>25.6</ele>
        <time>2021-05-09T11:27:53Z</time>
      </trkpt>
      <trkpt lat="41.3389940" lon="2.1006120">
        <ele>25.2</ele>
        <time>2021-05-09T11:27:58Z</time>
      </trkpt>
      <trkpt lat="41.3390550" lon="2.1007400">
        <ele>26.0</ele>
        <time>2021-05-09T11:28:03Z</time>
      </trkpt>
      <trkpt lat="41.3391190" lon="2.1008370">
        <ele>26.2</ele>
        <time>2021-05-09T11:28:08Z</time>
      </trkpt>
      <trkpt lat="41.3391410" lon="2.1008690">
        <ele>26.2</ele>
        <time>2021-05-09T11:28:11Z</time>
      </trkpt>
      <trkpt lat="41.3391630" lon="2.1008890">
        <ele>26.0</ele>
        <time>2021-05-09T11:28:12Z</time>
      </trkpt>
      <trkpt lat="41.3392810" lon="2.1010270">
        <ele>25.2</ele>
        <time>2021-05-09T11:28:17Z</time>
      </trkpt>
      <trkpt lat="41.3393070" lon="2.1010530">
        <ele>25.0</ele>
        <time>2021-05-09T11:28:18Z</time>
      </trkpt>
      <trkpt lat="41.3394430" lon="2.1011280">
        <ele>24.6</ele>
        <time>2021-05-09T11:28:23Z</time>
      </trkpt>
      <trkpt lat="41.3395770" lon="2.1011430">
        <ele>24.4</ele>
        <time>2021-05-09T11:28:27Z</time>
      </trkpt>
      <trkpt lat="41.3397400" lon="2.1012740">
        <ele>24.4</ele>
        <time>2021-05-09T11:28:32Z</time>
      </trkpt>
      <trkpt lat="41.3397730" lon="2.1013060">
        <ele>24.6</ele>
        <time>2021-05-09T11:28:33Z</time>
      </trkpt>
      <trkpt lat="41.3398960" lon="2.1013660">
        <ele>24.6</ele>
        <time>2021-05-09T11:28:36Z</time>
      </trkpt>
      <trkpt lat="41.3401940" lon="2.1014450">
        <ele>24.2</ele>
        <time>2021-05-09T11:28:43Z</time>
      </trkpt>
      <trkpt lat="41.3404750" lon="2.1014990">
        <ele>24.4</ele>
        <time>2021-05-09T11:28:50Z</time>
      </trkpt>
      <trkpt lat="41.3405590" lon="2.1015140">
        <ele>24.4</ele>
        <time>2021-05-09T11:28:52Z</time>
      </trkpt>
      <trkpt lat="41.3406720" lon="2.1015430">
        <ele>24.0</ele>
        <time>2021-05-09T11:28:55Z</time>
      </trkpt>
      <trkpt lat="41.3407100" lon="2.1015530">
        <ele>23.8</ele>
        <time>2021-05-09T11:28:56Z</time>
      </trkpt>
      <trkpt lat="41.3409150" lon="2.1015950">
        <ele>24.0</ele>
        <time>2021-05-09T11:29:02Z</time>
      </trkpt>
      <trkpt lat="41.3411630" lon="2.1016490">
        <ele>24.0</ele>
        <time>2021-05-09T11:29:08Z</time>
      </trkpt>
      <trkpt lat="41.3414320" lon="2.1016990">
        <ele>24.4</ele>
        <time>2021-05-09T11:29:15Z</time>
      </trkpt>
      <trkpt lat="41.3416460" lon="2.1016760">
        <ele>25.2</ele>
        <time>2021-05-09T11:29:21Z</time>
      </trkpt>
      <trkpt lat="41.3418070" lon="2.1016950">
        <ele>26.0</ele>
        <time>2021-05-09T11:29:27Z</time>
      </trkpt>
      <trkpt lat="41.3419610" lon="2.1018410">
        <ele>26.0</ele>
        <time>2021-05-09T11:29:33Z</time>
      </trkpt>
      <trkpt lat="41.3422650" lon="2.1020870">
        <ele>25.6</ele>
        <time>2021-05-09T11:29:42Z</time>
      </trkpt>
      <trkpt lat="41.3425100" lon="2.1022890">
        <ele>25.4</ele>
        <time>2021-05-09T11:29:50Z</time>
      </trkpt>
      <trkpt lat="41.3427310" lon="2.1024730">
        <ele>25.2</ele>
        <time>2021-05-09T11:29:57Z</time>
      </trkpt>
      <trkpt lat="41.3430190" lon="2.1027070">
        <ele>25.0</ele>
        <time>2021-05-09T11:30:06Z</time>
      </trkpt>
      <trkpt lat="41.3432990" lon="2.1028980">
        <ele>24.8</ele>
        <time>2021-05-09T11:30:14Z</time>
      </trkpt>
      <trkpt lat="41.3434660" lon="2.1030060">
        <ele>24.2</ele>
        <time>2021-05-09T11:30:20Z</time>
      </trkpt>
      <trkpt lat="41.3435060" lon="2.1030460">
        <ele>24.2</ele>
        <time>2021-05-09T11:30:22Z</time>
      </trkpt>
      <trkpt lat="41.3436150" lon="2.1031740">
        <ele>24.6</ele>
        <time>2021-05-09T11:30:28Z</time>
      </trkpt>
      <trkpt lat="41.3436630" lon="2.1032870">
        <ele>24.4</ele>
        <time>2021-05-09T11:30:34Z</time>
      </trkpt>
      <trkpt lat="41.3436790" lon="2.1033230">
        <ele>24.2</ele>
        <time>2021-05-09T11:30:36Z</time>
      </trkpt>
      <trkpt lat="41.3437120" lon="2.1033530">
        <ele>24.2</ele>
        <time>2021-05-09T11:30:38Z</time>
      </trkpt>
      <trkpt lat="41.3437500" lon="2.1033860">
        <ele>24.4</ele>
        <time>2021-05-09T11:30:40Z</time>
      </trkpt>
      <trkpt lat="41.3438020" lon="2.1034320">
        <ele>24.4</ele>
        <time>2021-05-09T11:30:43Z</time>
      </trkpt>
      <trkpt lat="41.3438620" lon="2.1035660">
        <ele>24.8</ele>
        <time>2021-05-09T11:30:49Z</time>
      </trkpt>
      <trkpt lat="41.3439440" lon="2.1036610">
        <ele>25.0</ele>
        <time>2021-05-09T11:30:54Z</time>
      </trkpt>
      <trkpt lat="41.3440050" lon="2.1037290">
        <ele>24.8</ele>
        <time>2021-05-09T11:30:58Z</time>
      </trkpt>
      <trkpt lat="41.3440000" lon="2.1037750">
        <ele>25.0</ele>
        <time>2021-05-09T11:31:00Z</time>
      </trkpt>
      <trkpt lat="41.3439410" lon="2.1039050">
        <ele>25.4</ele>
        <time>2021-05-09T11:31:05Z</time>
      </trkpt>
      <trkpt lat="41.3439310" lon="2.1039340">
        <ele>25.4</ele>
        <time>2021-05-09T11:31:06Z</time>
      </trkpt>
      <trkpt lat="41.3438960" lon="2.1040520">
        <ele>25.2</ele>
        <time>2021-05-09T11:31:11Z</time>
      </trkpt>
      <trkpt lat="41.3438640" lon="2.1043370">
        <ele>25.2</ele>
        <time>2021-05-09T11:31:18Z</time>
      </trkpt>
      <trkpt lat="41.3439010" lon="2.1046790">
        <ele>25.6</ele>
        <time>2021-05-09T11:31:26Z</time>
      </trkpt>
      <trkpt lat="41.3440280" lon="2.1049360">
        <ele>25.4</ele>
        <time>2021-05-09T11:31:33Z</time>
      </trkpt>
      <trkpt lat="41.3442170" lon="2.1051820">
        <ele>25.2</ele>
        <time>2021-05-09T11:31:41Z</time>
      </trkpt>
      <trkpt lat="41.3443250" lon="2.1053970">
        <ele>25.0</ele>
        <time>2021-05-09T11:31:47Z</time>
      </trkpt>
      <trkpt lat="41.3443530" lon="2.1057680">
        <ele>24.8</ele>
        <time>2021-05-09T11:31:55Z</time>
      </trkpt>
      <trkpt lat="41.3443770" lon="2.1058510">
        <ele>24.8</ele>
        <time>2021-05-09T11:31:57Z</time>
      </trkpt>
      <trkpt lat="41.3444380" lon="2.1058850">
        <ele>24.8</ele>
        <time>2021-05-09T11:31:59Z</time>
      </trkpt>
      <trkpt lat="41.3446510" lon="2.1058900">
        <ele>24.8</ele>
        <time>2021-05-09T11:32:05Z</time>
      </trkpt>
      <trkpt lat="41.3448300" lon="2.1058840">
        <ele>24.6</ele>
        <time>2021-05-09T11:32:10Z</time>
      </trkpt>
      <trkpt lat="41.3451300" lon="2.1058740">
        <ele>24.8</ele>
        <time>2021-05-09T11:32:18Z</time>
      </trkpt>
      <trkpt lat="41.3452330" lon="2.1058890">
        <ele>24.8</ele>
        <time>2021-05-09T11:32:21Z</time>
      </trkpt>
      <trkpt lat="41.3452420" lon="2.1059310">
        <ele>24.8</ele>
        <time>2021-05-09T11:32:22Z</time>
      </trkpt>
      <trkpt lat="41.3452570" lon="2.1060670">
        <ele>25.0</ele>
        <time>2021-05-09T11:32:25Z</time>
      </trkpt>
      <trkpt lat="41.3452730" lon="2.1061560">
        <ele>25.0</ele>
        <time>2021-05-09T11:32:27Z</time>
      </trkpt>
      <trkpt lat="41.3453230" lon="2.1064740">
        <ele>24.8</ele>
        <time>2021-05-09T11:32:34Z</time>
      </trkpt>
      <trkpt lat="41.3453780" lon="2.1067280">
        <ele>25.2</ele>
        <time>2021-05-09T11:32:40Z</time>
      </trkpt>
      <trkpt lat="41.3454860" lon="2.1069200">
        <ele>25.0</ele>
        <time>2021-05-09T11:32:45Z</time>
      </trkpt>
      <trkpt lat="41.3456510" lon="2.1070950">
        <ele>24.6</ele>
        <time>2021-05-09T11:32:51Z</time>
      </trkpt>
      <trkpt lat="41.3457760" lon="2.1071390">
        <ele>25.2</ele>
        <time>2021-05-09T11:32:55Z</time>
      </trkpt>
      <trkpt lat="41.3458630" lon="2.1072400">
        <ele>26.0</ele>
        <time>2021-05-09T11:32:59Z</time>
      </trkpt>
      <trkpt lat="41.3460220" lon="2.1072870">
        <ele>25.4</ele>
        <time>2021-05-09T11:33:05Z</time>
      </trkpt>
      <trkpt lat="41.3461810" lon="2.1074350">
        <ele>24.8</ele>
        <time>2021-05-09T11:33:11Z</time>
      </trkpt>
      <trkpt lat="41.3463100" lon="2.1075030">
        <ele>24.6</ele>
        <time>2021-05-09T11:33:16Z</time>
      </trkpt>
      <trkpt lat="41.3463320" lon="2.1075090">
        <ele>24.6</ele>
        <time>2021-05-09T11:33:17Z</time>
      </trkpt>
      <trkpt lat="41.3463670" lon="2.1075730">
        <ele>24.6</ele>
        <time>2021-05-09T11:33:20Z</time>
      </trkpt>
      <trkpt lat="41.3463750" lon="2.1076080">
        <ele>24.6</ele>
        <time>2021-05-09T11:33:21Z</time>
      </trkpt>
      <trkpt lat="41.3463840" lon="2.1076930">
        <ele>24.6</ele>
        <time>2021-05-09T11:33:23Z</time>
      </trkpt>
      <trkpt lat="41.3463770" lon="2.1077280">
        <ele>24.8</ele>
        <time>2021-05-09T11:33:24Z</time>
      </trkpt>
      <trkpt lat="41.3463450" lon="2.1078950">
        <ele>26.0</ele>
        <time>2021-05-09T11:33:29Z</time>
      </trkpt>
      <trkpt lat="41.3463280" lon="2.1079900">
        <ele>26.0</ele>
        <time>2021-05-09T11:33:34Z</time>
      </trkpt>
      <trkpt lat="41.3463320" lon="2.1080110">
        <ele>26.0</ele>
        <time>2021-05-09T11:33:36Z</time>
      </trkpt>
      <trkpt lat="41.3463790" lon="2.1080900">
        <ele>26.4</ele>
        <time>2021-05-09T11:35:03Z</time>
      </trkpt>
      <trkpt lat="41.3463930" lon="2.1081040">
        <ele>26.4</ele>
        <time>2021-05-09T11:35:04Z</time>
      </trkpt>
      <trkpt lat="41.3464570" lon="2.1082430">
        <ele>25.8</ele>
        <time>2021-05-09T11:35:10Z</time>
      </trkpt>
      <trkpt lat="41.3465590" lon="2.1083410">
        <ele>26.0</ele>
        <time>2021-05-09T11:35:15Z</time>
      </trkpt>
      <trkpt lat="41.3466940" lon="2.1083350">
        <ele>25.8</ele>
        <time>2021-05-09T11:35:20Z</time>
      </trkpt>
      <trkpt lat="41.3468120" lon="2.1083770">
        <ele>25.6</ele>
        <time>2021-05-09T11:35:23Z</time>
      </trkpt>
      <trkpt lat="41.3469530" lon="2.1084820">
        <ele>25.2</ele>
        <time>2021-05-09T11:35:27Z</time>
      </trkpt>
      <trkpt lat="41.3470870" lon="2.1086150">
        <ele>25.4</ele>
        <time>2021-05-09T11:35:33Z</time>
      </trkpt>
      <trkpt lat="41.3472230" lon="2.1088520">
        <ele>25.4</ele>
        <time>2021-05-09T11:35:40Z</time>
      </trkpt>
      <trkpt lat="41.3472980" lon="2.1091260">
        <ele>25.6</ele>
        <time>2021-05-09T11:35:47Z</time>
      </trkpt>
      <trkpt lat="41.3473040" lon="2.1093930">
        <ele>25.2</ele>
        <time>2021-05-09T11:35:54Z</time>
      </trkpt>
      <trkpt lat="41.3472510" lon="2.1096800">
        <ele>25.0</ele>
        <time>2021-05-09T11:36:01Z</time>
      </trkpt>
      <trkpt lat="41.3472520" lon="2.1097200">
        <ele>25.0</ele>
        <time>2021-05-09T11:36:02Z</time>
      </trkpt>
      <trkpt lat="41.3472800" lon="2.1098760">
        <ele>25.0</ele>
        <time>2021-05-09T11:36:06Z</time>
      </trkpt>
      <trkpt lat="41.3473540" lon="2.1101810">
        <ele>25.2</ele>
        <time>2021-05-09T11:36:14Z</time>
      </trkpt>
      <trkpt lat="41.3474620" lon="2.1104420">
        <ele>25.6</ele>
        <time>2021-05-09T11:36:22Z</time>
      </trkpt>
      <trkpt lat="41.3475200" lon="2.1105560">
        <ele>26.0</ele>
        <time>2021-05-09T11:36:26Z</time>
      </trkpt>
      <trkpt lat="41.3475360" lon="2.1105830">
        <ele>26.2</ele>
        <time>2021-05-09T11:36:27Z</time>
      </trkpt>
      <trkpt lat="41.3475830" lon="2.1106620">
        <ele>26.2</ele>
        <time>2021-05-09T11:36:30Z</time>
      </trkpt>
      <trkpt lat="41.3477550" lon="2.1108160">
        <ele>26.4</ele>
        <time>2021-05-09T11:36:38Z</time>
      </trkpt>
      <trkpt lat="41.3479410" lon="2.1108990">
        <ele>26.4</ele>
        <time>2021-05-09T11:36:45Z</time>
      </trkpt>
      <trkpt lat="41.3481540" lon="2.1109440">
        <ele>26.2</ele>
        <time>2021-05-09T11:36:52Z</time>
      </trkpt>
      <trkpt lat="41.3484010" lon="2.1109680">
        <ele>26.0</ele>
        <time>2021-05-09T11:36:59Z</time>
      </trkpt>
      <trkpt lat="41.3485670" lon="2.1109460">
        <ele>26.0</ele>
        <time>2021-05-09T11:37:04Z</time>
      </trkpt>
      <trkpt lat="41.3487770" lon="2.1109160">
        <ele>25.8</ele>
        <time>2021-05-09T11:37:11Z</time>
      </trkpt>
      <trkpt lat="41.3489500" lon="2.1109120">
        <ele>25.6</ele>
        <time>2021-05-09T11:37:16Z</time>
      </trkpt>
      <trkpt lat="41.3491240" lon="2.1109540">
        <ele>25.6</ele>
        <time>2021-05-09T11:37:21Z</time>
      </trkpt>
      <trkpt lat="41.3492580" lon="2.1110160">
        <ele>26.0</ele>
        <time>2021-05-09T11:37:26Z</time>
      </trkpt>
      <trkpt lat="41.3494180" lon="2.1110790">
        <ele>26.2</ele>
        <time>2021-05-09T11:37:32Z</time>
      </trkpt>
      <trkpt lat="41.3495870" lon="2.1111230">
        <ele>25.8</ele>
        <time>2021-05-09T11:37:37Z</time>
      </trkpt>
      <trkpt lat="41.3497860" lon="2.1111640">
        <ele>25.8</ele>
        <time>2021-05-09T11:37:43Z</time>
      </trkpt>
      <trkpt lat="41.3499910" lon="2.1111440">
        <ele>25.8</ele>
        <time>2021-05-09T11:37:49Z</time>
      </trkpt>
      <trkpt lat="41.3501280" lon="2.1110940">
        <ele>25.8</ele>
        <time>2021-05-09T11:37:55Z</time>
      </trkpt>
      <trkpt lat="41.3501910" lon="2.1110820">
        <ele>25.8</ele>
        <time>2021-05-09T11:37:59Z</time>
      </trkpt>
      <trkpt lat="41.3502470" lon="2.1110940">
        <ele>25.8</ele>
        <time>2021-05-09T11:38:04Z</time>
      </trkpt>
      <trkpt lat="41.3502550" lon="2.1110940">
        <ele>25.8</ele>
        <time>2021-05-09T11:38:06Z</time>
      </trkpt>
      <trkpt lat="41.3502700" lon="2.1111110">
        <ele>25.8</ele>
        <time>2021-05-09T11:38:32Z</time>
      </trkpt>
      <trkpt lat="41.3502880" lon="2.1111580">
        <ele>25.8</ele>
        <time>2021-05-09T11:38:34Z</time>
      </trkpt>
      <trkpt lat="41.3503820" lon="2.1112930">
        <ele>26.0</ele>
        <time>2021-05-09T11:38:39Z</time>
      </trkpt>
      <trkpt lat="41.3504500" lon="2.1113440">
        <ele>26.4</ele>
        <time>2021-05-09T11:38:42Z</time>
      </trkpt>
      <trkpt lat="41.3504630" lon="2.1113720">
        <ele>26.4</ele>
        <time>2021-05-09T11:38:43Z</time>
      </trkpt>
      <trkpt lat="41.3505200" lon="2.1114570">
        <ele>26.4</ele>
        <time>2021-05-09T11:38:47Z</time>
      </trkpt>
      <trkpt lat="41.3506300" lon="2.1114970">
        <ele>26.2</ele>
        <time>2021-05-09T11:38:51Z</time>
      </trkpt>
      <trkpt lat="41.3506890" lon="2.1115790">
        <ele>26.4</ele>
        <time>2021-05-09T11:38:54Z</time>
      </trkpt>
      <trkpt lat="41.3507150" lon="2.1116440">
        <ele>26.6</ele>
        <time>2021-05-09T11:38:56Z</time>
      </trkpt>
      <trkpt lat="41.3507170" lon="2.1116830">
        <ele>26.6</ele>
        <time>2021-05-09T11:38:57Z</time>
      </trkpt>
      <trkpt lat="41.3507720" lon="2.1119180">
        <ele>26.6</ele>
        <time>2021-05-09T11:39:03Z</time>
      </trkpt>
      <trkpt lat="41.3508560" lon="2.1122360">
        <ele>26.8</ele>
        <time>2021-05-09T11:39:11Z</time>
      </trkpt>
      <trkpt lat="41.3509560" lon="2.1124150">
        <ele>26.6</ele>
        <time>2021-05-09T11:39:17Z</time>
      </trkpt>
      <trkpt lat="41.3509660" lon="2.1125380">
        <ele>26.6</ele>
        <time>2021-05-09T11:39:21Z</time>
      </trkpt>
      <trkpt lat="41.3509670" lon="2.1126390">
        <ele>26.8</ele>
        <time>2021-05-09T11:39:24Z</time>
      </trkpt>
      <trkpt lat="41.3510070" lon="2.1129320">
        <ele>26.4</ele>
        <time>2021-05-09T11:39:33Z</time>
      </trkpt>
      <trkpt lat="41.3510300" lon="2.1130530">
        <ele>26.4</ele>
        <time>2021-05-09T11:39:37Z</time>
      </trkpt>
      <trkpt lat="41.3510430" lon="2.1130800">
        <ele>26.4</ele>
        <time>2021-05-09T11:39:38Z</time>
      </trkpt>
      <trkpt lat="41.3510970" lon="2.1131470">
        <ele>26.4</ele>
        <time>2021-05-09T11:39:42Z</time>
      </trkpt>
      <trkpt lat="41.3511130" lon="2.1131650">
        <ele>26.4</ele>
        <time>2021-05-09T11:39:43Z</time>
      </trkpt>
      <trkpt lat="41.3511890" lon="2.1133100">
        <ele>26.4</ele>
        <time>2021-05-09T11:39:47Z</time>
      </trkpt>
      <trkpt lat="41.3512590" lon="2.1134970">
        <ele>26.6</ele>
        <time>2021-05-09T11:39:53Z</time>
      </trkpt>
      <trkpt lat="41.3513250" lon="2.1136990">
        <ele>26.6</ele>
        <time>2021-05-09T11:40:01Z</time>
      </trkpt>
      <trkpt lat="41.3513810" lon="2.1139160">
        <ele>26.6</ele>
        <time>2021-05-09T11:40:08Z</time>
      </trkpt>
      <trkpt lat="41.3514270" lon="2.1141020">
        <ele>26.8</ele>
        <time>2021-05-09T11:40:14Z</time>
      </trkpt>
      <trkpt lat="41.3514890" lon="2.1142680">
        <ele>26.8</ele>
        <time>2021-05-09T11:40:20Z</time>
      </trkpt>
      <trkpt lat="41.3515020" lon="2.1142850">
        <ele>26.8</ele>
        <time>2021-05-09T11:40:21Z</time>
      </trkpt>
      <trkpt lat="41.3515260" lon="2.1144250">
        <ele>27.0</ele>
        <time>2021-05-09T11:40:26Z</time>
      </trkpt>
      <trkpt lat="41.3515090" lon="2.1144430">
        <ele>27.0</ele>
        <time>2021-05-09T11:40:27Z</time>
      </trkpt>
      <trkpt lat="41.3514350" lon="2.1144870">
        <ele>26.6</ele>
        <time>2021-05-09T11:40:31Z</time>
      </trkpt>
      <trkpt lat="41.3513610" lon="2.1145450">
        <ele>26.2</ele>
        <time>2021-05-09T11:40:34Z</time>
      </trkpt>
      <trkpt lat="41.3513080" lon="2.1145620">
        <ele>26.2</ele>
        <time>2021-05-09T11:40:36Z</time>
      </trkpt>
      <trkpt lat="41.3512220" lon="2.1146440">
        <ele>25.8</ele>
        <time>2021-05-09T11:40:40Z</time>
      </trkpt>
      <trkpt lat="41.3512230" lon="2.1147130">
        <ele>25.6</ele>
        <time>2021-05-09T11:40:42Z</time>
      </trkpt>
      <trkpt lat="41.3512400" lon="2.1148040">
        <ele>26.0</ele>
        <time>2021-05-09T11:40:45Z</time>
      </trkpt>
      <trkpt lat="41.3512240" lon="2.1149740">
        <ele>25.6</ele>
        <time>2021-05-09T11:40:50Z</time>
      </trkpt>
      <trkpt lat="41.3512140" lon="2.1150400">
        <ele>25.6</ele>
        <time>2021-05-09T11:40:52Z</time>
      </trkpt>
      <trkpt lat="41.3512380" lon="2.1150630">
        <ele>25.6</ele>
        <time>2021-05-09T11:40:54Z</time>
      </trkpt>
      <trkpt lat="41.3513700" lon="2.1150790">
        <ele>26.6</ele>
        <time>2021-05-09T11:41:01Z</time>
      </trkpt>
      <trkpt lat="41.3514100" lon="2.1150950">
        <ele>27.0</ele>
        <time>2021-05-09T11:41:04Z</time>
      </trkpt>
      <trkpt lat="41.3514250" lon="2.1150950">
        <ele>27.2</ele>
        <time>2021-05-09T11:41:05Z</time>
      </trkpt>
      <trkpt lat="41.3515330" lon="2.1150990">
        <ele>28.0</ele>
        <time>2021-05-09T11:41:10Z</time>
      </trkpt>
      <trkpt lat="41.3515540" lon="2.1151020">
        <ele>28.2</ele>
        <time>2021-05-09T11:41:11Z</time>
      </trkpt>
      <trkpt lat="41.3516570" lon="2.1150870">
        <ele>28.8</ele>
        <time>2021-05-09T11:41:16Z</time>
      </trkpt>
      <trkpt lat="41.3516640" lon="2.1150810">
        <ele>29.0</ele>
        <time>2021-05-09T11:41:17Z</time>
      </trkpt>
      <trkpt lat="41.3516600" lon="2.1150770">
        <ele>29.2</ele>
        <time>2021-05-09T11:41:18Z</time>
      </trkpt>
      <trkpt lat="41.3516040" lon="2.1150400">
        <ele>29.6</ele>
        <time>2021-05-09T11:41:22Z</time>
      </trkpt>
      <trkpt lat="41.3515640" lon="2.1150270">
        <ele>29.8</ele>
        <time>2021-05-09T11:41:24Z</time>
      </trkpt>
      <trkpt lat="41.3515440" lon="2.1150210">
        <ele>30.0</ele>
        <time>2021-05-09T11:41:25Z</time>
      </trkpt>
      <trkpt lat="41.3514740" lon="2.1149940">
        <ele>30.8</ele>
        <time>2021-05-09T11:41:29Z</time>
      </trkpt>
      <trkpt lat="41.3514250" lon="2.1149720">
        <ele>31.2</ele>
        <time>2021-05-09T11:41:32Z</time>
      </trkpt>
      <trkpt lat="41.3514040" lon="2.1149840">
        <ele>31.4</ele>
        <time>2021-05-09T11:41:34Z</time>
      </trkpt>
      <trkpt lat="41.3514370" lon="2.1150180">
        <ele>31.6</ele>
        <time>2021-05-09T11:41:37Z</time>
      </trkpt>
      <trkpt lat="41.3515330" lon="2.1150360">
        <ele>32.2</ele>
        <time>2021-05-09T11:41:42Z</time>
      </trkpt>
      <trkpt lat="41.3516030" lon="2.1150490">
        <ele>32.8</ele>
        <time>2021-05-09T11:41:46Z</time>
      </trkpt>
      <trkpt lat="41.3516530" lon="2.1150570">
        <ele>33.2</ele>
        <time>2021-05-09T11:41:49Z</time>
      </trkpt>
      <trkpt lat="41.3516990" lon="2.1150690">
        <ele>33.6</ele>
        <time>2021-05-09T11:41:52Z</time>
      </trkpt>
      <trkpt lat="41.3517040" lon="2.1150880">
        <ele>33.8</ele>
        <time>2021-05-09T11:41:53Z</time>
      </trkpt>
      <trkpt lat="41.3517010" lon="2.1152540">
        <ele>33.6</ele>
        <time>2021-05-09T11:41:59Z</time>
      </trkpt>
      <trkpt lat="41.3517000" lon="2.1152760">
        <ele>33.6</ele>
        <time>2021-05-09T11:42:00Z</time>
      </trkpt>
      <trkpt lat="41.3516740" lon="2.1152860">
        <ele>33.6</ele>
        <time>2021-05-09T11:42:02Z</time>
      </trkpt>
      <trkpt lat="41.3515540" lon="2.1152800">
        <ele>33.6</ele>
        <time>2021-05-09T11:42:07Z</time>
      </trkpt>
      <trkpt lat="41.3514640" lon="2.1152700">
        <ele>32.8</ele>
        <time>2021-05-09T11:42:11Z</time>
      </trkpt>
      <trkpt lat="41.3514100" lon="2.1152650">
        <ele>32.4</ele>
        <time>2021-05-09T11:42:14Z</time>
      </trkpt>
      <trkpt lat="41.3514210" lon="2.1152500">
        <ele>32.2</ele>
        <time>2021-05-09T11:42:16Z</time>
      </trkpt>
      <trkpt lat="41.3514350" lon="2.1152520">
        <ele>32.0</ele>
        <time>2021-05-09T11:42:17Z</time>
      </trkpt>
      <trkpt lat="41.3514520" lon="2.1152560">
        <ele>31.8</ele>
        <time>2021-05-09T11:42:18Z</time>
      </trkpt>
      <trkpt lat="41.3515250" lon="2.1152700">
        <ele>31.6</ele>
        <time>2021-05-09T11:42:21Z</time>
      </trkpt>
      <trkpt lat="41.3516010" lon="2.1152820">
        <ele>30.8</ele>
        <time>2021-05-09T11:42:24Z</time>
      </trkpt>
      <trkpt lat="41.3516510" lon="2.1152950">
        <ele>30.4</ele>
        <time>2021-05-09T11:42:26Z</time>
      </trkpt>
      <trkpt lat="41.3516840" lon="2.1153220">
        <ele>30.0</ele>
        <time>2021-05-09T11:42:30Z</time>
      </trkpt>
      <trkpt lat="41.3516660" lon="2.1153320">
        <ele>30.0</ele>
        <time>2021-05-09T11:42:32Z</time>
      </trkpt>
      <trkpt lat="41.3516030" lon="2.1153250">
        <ele>29.6</ele>
        <time>2021-05-09T11:42:35Z</time>
      </trkpt>
      <trkpt lat="41.3515640" lon="2.1153160">
        <ele>29.4</ele>
        <time>2021-05-09T11:42:36Z</time>
      </trkpt>
      <trkpt lat="41.3514710" lon="2.1153010">
        <ele>28.8</ele>
        <time>2021-05-09T11:42:38Z</time>
      </trkpt>
      <trkpt lat="41.3513730" lon="2.1152780">
        <ele>28.6</ele>
        <time>2021-05-09T11:42:40Z</time>
      </trkpt>
      <trkpt lat="41.3513220" lon="2.1152720">
        <ele>28.4</ele>
        <time>2021-05-09T11:42:41Z</time>
      </trkpt>
      <trkpt lat="41.3511980" lon="2.1152500">
        <ele>28.4</ele>
        <time>2021-05-09T11:42:44Z</time>
      </trkpt>
      <trkpt lat="41.3511340" lon="2.1152430">
        <ele>27.4</ele>
        <time>2021-05-09T11:42:47Z</time>
      </trkpt>
      <trkpt lat="41.3511300" lon="2.1152430">
        <ele>27.2</ele>
        <time>2021-05-09T11:42:48Z</time>
      </trkpt>
      <trkpt lat="41.3511310" lon="2.1152470">
        <ele>27.2</ele>
        <time>2021-05-09T11:42:49Z</time>
      </trkpt>
      <trkpt lat="41.3510680" lon="2.1154230">
        <ele>28.6</ele>
        <time>2021-05-09T11:45:05Z</time>
      </trkpt>
      <trkpt lat="41.3510670" lon="2.1154650">
        <ele>28.6</ele>
        <time>2021-05-09T11:45:07Z</time>
      </trkpt>
      <trkpt lat="41.3510320" lon="2.1155660">
        <ele>28.6</ele>
        <time>2021-05-09T11:45:12Z</time>
      </trkpt>
      <trkpt lat="41.3509840" lon="2.1156990">
        <ele>29.0</ele>
        <time>2021-05-09T11:45:17Z</time>
      </trkpt>
      <trkpt lat="41.3509720" lon="2.1159980">
        <ele>29.0</ele>
        <time>2021-05-09T11:45:26Z</time>
      </trkpt>
      <trkpt lat="41.3509810" lon="2.1161670">
        <ele>29.2</ele>
        <time>2021-05-09T11:45:31Z</time>
      </trkpt>
      <trkpt lat="41.3510470" lon="2.1163350">
        <ele>28.8</ele>
        <time>2021-05-09T11:45:36Z</time>
      </trkpt>
      <trkpt lat="41.3511180" lon="2.1164910">
        <ele>28.8</ele>
        <time>2021-05-09T11:45:40Z</time>
      </trkpt>
      <trkpt lat="41.3511710" lon="2.1165990">
        <ele>28.6</ele>
        <time>2021-05-09T11:45:43Z</time>
      </trkpt>
      <trkpt lat="41.3512980" lon="2.1168340">
        <ele>28.6</ele>
        <time>2021-05-09T11:45:49Z</time>
      </trkpt>
      <trkpt lat="41.3514810" lon="2.1171590">
        <ele>28.6</ele>
        <time>2021-05-09T11:45:57Z</time>
      </trkpt>
      <trkpt lat="41.3515950" lon="2.1173190">
        <ele>28.4</ele>
        <time>2021-05-09T11:46:02Z</time>
      </trkpt>
      <trkpt lat="41.3517370" lon="2.1174620">
        <ele>28.0</ele>
        <time>2021-05-09T11:46:08Z</time>
      </trkpt>
      <trkpt lat="41.3517520" lon="2.1174800">
        <ele>28.0</ele>
        <time>2021-05-09T11:46:11Z</time>
      </trkpt>
      <trkpt lat="41.3517750" lon="2.1175030">
        <ele>28.0</ele>
        <time>2021-05-09T11:46:16Z</time>
      </trkpt>
      <trkpt lat="41.3518510" lon="2.1176260">
        <ele>28.0</ele>
        <time>2021-05-09T11:46:21Z</time>
      </trkpt>
      <trkpt lat="41.3518780" lon="2.1178060">
        <ele>28.4</ele>
        <time>2021-05-09T11:46:26Z</time>
      </trkpt>
      <trkpt lat="41.3519160" lon="2.1179540">
        <ele>28.6</ele>
        <time>2021-05-09T11:46:30Z</time>
      </trkpt>
      <trkpt lat="41.3519370" lon="2.1179830">
        <ele>28.6</ele>
        <time>2021-05-09T11:46:31Z</time>
      </trkpt>
      <trkpt lat="41.3521200" lon="2.1182150">
        <ele>28.8</ele>
        <time>2021-05-09T11:46:38Z</time>
      </trkpt>
      <trkpt lat="41.3523520" lon="2.1185200">
        <ele>28.6</ele>
        <time>2021-05-09T11:46:47Z</time>
      </trkpt>
      <trkpt lat="41.3525420" lon="2.1187780">
        <ele>28.8</ele>
        <time>2021-05-09T11:46:55Z</time>
      </trkpt>
      <trkpt lat="41.3526950" lon="2.1189920">
        <ele>28.6</ele>
        <time>2021-05-09T11:47:02Z</time>
      </trkpt>
      <trkpt lat="41.3528750" lon="2.1192290">
        <ele>28.4</ele>
        <time>2021-05-09T11:47:10Z</time>
      </trkpt>
      <trkpt lat="41.3530700" lon="2.1194810">
        <ele>28.4</ele>
        <time>2021-05-09T11:47:19Z</time>
      </trkpt>
      <trkpt lat="41.3532650" lon="2.1197320">
        <ele>28.6</ele>
        <time>2021-05-09T11:47:27Z</time>
      </trkpt>
      <trkpt lat="41.3534250" lon="2.1199390">
        <ele>28.4</ele>
        <time>2021-05-09T11:47:34Z</time>
      </trkpt>
      <trkpt lat="41.3535480" lon="2.1200960">
        <ele>28.2</ele>
        <time>2021-05-09T11:47:40Z</time>
      </trkpt>
      <trkpt lat="41.3536570" lon="2.1202490">
        <ele>28.4</ele>
        <time>2021-05-09T11:47:45Z</time>
      </trkpt>
      <trkpt lat="41.3537000" lon="2.1203140">
        <ele>28.2</ele>
        <time>2021-05-09T11:47:47Z</time>
      </trkpt>
      <trkpt lat="41.3538490" lon="2.1204910">
        <ele>28.4</ele>
        <time>2021-05-09T11:47:53Z</time>
      </trkpt>
      <trkpt lat="41.3540160" lon="2.1207270">
        <ele>28.2</ele>
        <time>2021-05-09T11:48:00Z</time>
      </trkpt>
      <trkpt lat="41.3542010" lon="2.1209780">
        <ele>28.2</ele>
        <time>2021-05-09T11:48:08Z</time>
      </trkpt>
      <trkpt lat="41.3543880" lon="2.1212340">
        <ele>29.0</ele>
        <time>2021-05-09T11:48:16Z</time>
      </trkpt>
      <trkpt lat="41.3546350" lon="2.1214500">
        <ele>28.8</ele>
        <time>2021-05-09T11:48:25Z</time>
      </trkpt>
      <trkpt lat="41.3547570" lon="2.1214360">
        <ele>29.0</ele>
        <time>2021-05-09T11:48:29Z</time>
      </trkpt>
      <trkpt lat="41.3548410" lon="2.1214410">
        <ele>29.0</ele>
        <time>2021-05-09T11:48:32Z</time>
      </trkpt>
      <trkpt lat="41.3548550" lon="2.1214670">
        <ele>29.0</ele>
        <time>2021-05-09T11:48:33Z</time>
      </trkpt>
      <trkpt lat="41.3548550" lon="2.1215570">
        <ele>29.0</ele>
        <time>2021-05-09T11:48:36Z</time>
      </trkpt>
      <trkpt lat="41.3548500" lon="2.1216220">
        <ele>29.0</ele>
        <time>2021-05-09T11:48:38Z</time>
      </trkpt>
      <trkpt lat="41.3548960" lon="2.1217800">
        <ele>29.0</ele>
        <time>2021-05-09T11:48:43Z</time>
      </trkpt>
      <trkpt lat="41.3550600" lon="2.1219170">
        <ele>29.2</ele>
        <time>2021-05-09T11:48:49Z</time>
      </trkpt>
      <trkpt lat="41.3552590" lon="2.1221510">
        <ele>28.8</ele>
        <time>2021-05-09T11:48:56Z</time>
      </trkpt>
      <trkpt lat="41.3553590" lon="2.1222880">
        <ele>28.2</ele>
        <time>2021-05-09T11:48:59Z</time>
      </trkpt>
      <trkpt lat="41.3554030" lon="2.1223910">
        <ele>28.0</ele>
        <time>2021-05-09T11:49:01Z</time>
      </trkpt>
      <trkpt lat="41.3554680" lon="2.1226150">
        <ele>28.8</ele>
        <time>2021-05-09T11:49:07Z</time>
      </trkpt>
      <trkpt lat="41.3555200" lon="2.1227850">
        <ele>29.2</ele>
        <time>2021-05-09T11:49:13Z</time>
      </trkpt>
      <trkpt lat="41.3556710" lon="2.1230060">
        <ele>29.6</ele>
        <time>2021-05-09T11:49:20Z</time>
      </trkpt>
      <trkpt lat="41.3557690" lon="2.1231190">
        <ele>29.8</ele>
        <time>2021-05-09T11:49:24Z</time>
      </trkpt>
      <trkpt lat="41.3558750" lon="2.1232240">
        <ele>30.0</ele>
        <time>2021-05-09T11:49:28Z</time>
      </trkpt>
      <trkpt lat="41.3560420" lon="2.1234600">
        <ele>30.4</ele>
        <time>2021-05-09T11:49:36Z</time>
      </trkpt>
      <trkpt lat="41.3561760" lon="2.1236060">
        <ele>30.8</ele>
        <time>2021-05-09T11:49:42Z</time>
      </trkpt>
      <trkpt lat="41.3563470" lon="2.1238430">
        <ele>30.4</ele>
        <time>2021-05-09T11:49:50Z</time>
      </trkpt>
      <trkpt lat="41.3565370" lon="2.1240750">
        <ele>30.0</ele>
        <time>2021-05-09T11:49:58Z</time>
      </trkpt>
      <trkpt lat="41.3566960" lon="2.1242990">
        <ele>29.8</ele>
        <time>2021-05-09T11:50:05Z</time>
      </trkpt>
      <trkpt lat="41.3568010" lon="2.1244210">
        <ele>29.8</ele>
        <time>2021-05-09T11:50:09Z</time>
      </trkpt>
      <trkpt lat="41.3569980" lon="2.1245970">
        <ele>29.8</ele>
        <time>2021-05-09T11:50:16Z</time>
      </trkpt>
      <trkpt lat="41.3572820" lon="2.1247040">
        <ele>30.0</ele>
        <time>2021-05-09T11:50:25Z</time>
      </trkpt>
      <trkpt lat="41.3575370" lon="2.1247410">
        <ele>30.0</ele>
        <time>2021-05-09T11:50:33Z</time>
      </trkpt>
      <trkpt lat="41.3576520" lon="2.1247050">
        <ele>30.0</ele>
        <time>2021-05-09T11:50:38Z</time>
      </trkpt>
      <trkpt lat="41.3576790" lon="2.1247130">
        <ele>30.2</ele>
        <time>2021-05-09T11:50:39Z</time>
      </trkpt>
      <trkpt lat="41.3577180" lon="2.1247720">
        <ele>30.0</ele>
        <time>2021-05-09T11:50:41Z</time>
      </trkpt>
      <trkpt lat="41.3577490" lon="2.1249250">
        <ele>30.0</ele>
        <time>2021-05-09T11:50:45Z</time>
      </trkpt>
      <trkpt lat="41.3577410" lon="2.1249570">
        <ele>30.0</ele>
        <time>2021-05-09T11:50:46Z</time>
      </trkpt>
      <trkpt lat="41.3577100" lon="2.1250650">
        <ele>30.2</ele>
        <time>2021-05-09T11:50:49Z</time>
      </trkpt>
      <trkpt lat="41.3577140" lon="2.1250960">
        <ele>30.6</ele>
        <time>2021-05-09T11:50:50Z</time>
      </trkpt>
      <trkpt lat="41.3577430" lon="2.1252100">
        <ele>31.4</ele>
        <time>2021-05-09T11:50:54Z</time>
      </trkpt>
      <trkpt lat="41.3577610" lon="2.1253840">
        <ele>31.4</ele>
        <time>2021-05-09T11:50:58Z</time>
      </trkpt>
      <trkpt lat="41.3577990" lon="2.1254960">
        <ele>30.8</ele>
        <time>2021-05-09T11:51:01Z</time>
      </trkpt>
      <trkpt lat="41.3578380" lon="2.1256230">
        <ele>30.6</ele>
        <time>2021-05-09T11:51:04Z</time>
      </trkpt>
      <trkpt lat="41.3578950" lon="2.1257930">
        <ele>30.4</ele>
        <time>2021-05-09T11:51:08Z</time>
      </trkpt>
      <trkpt lat="41.3579400" lon="2.1259080">
        <ele>30.0</ele>
        <time>2021-05-09T11:51:11Z</time>
      </trkpt>
      <trkpt lat="41.3580370" lon="2.1261160">
        <ele>30.0</ele>
        <time>2021-05-09T11:51:17Z</time>
      </trkpt>
      <trkpt lat="41.3582760" lon="2.1264090">
        <ele>29.8</ele>
        <time>2021-05-09T11:51:26Z</time>
      </trkpt>
      <trkpt lat="41.3584520" lon="2.1266080">
        <ele>29.6</ele>
        <time>2021-05-09T11:51:32Z</time>
      </trkpt>
      <trkpt lat="41.3585110" lon="2.1266810">
        <ele>29.4</ele>
        <time>2021-05-09T11:51:34Z</time>
      </trkpt>
      <trkpt lat="41.3586640" lon="2.1268430">
        <ele>28.8</ele>
        <time>2021-05-09T11:51:40Z</time>
      </trkpt>
      <trkpt lat="41.3588490" lon="2.1270370">
        <ele>29.4</ele>
        <time>2021-05-09T11:51:47Z</time>
      </trkpt>
      <trkpt lat="41.3590240" lon="2.1271990">
        <ele>29.4</ele>
        <time>2021-05-09T11:51:54Z</time>
      </trkpt>
      <trkpt lat="41.3591160" lon="2.1273430">
        <ele>28.6</ele>
        <time>2021-05-09T11:51:59Z</time>
      </trkpt>
      <trkpt lat="41.3592480" lon="2.1275540">
        <ele>29.6</ele>
        <time>2021-05-09T11:52:06Z</time>
      </trkpt>
      <trkpt lat="41.3592690" lon="2.1276910">
        <ele>29.4</ele>
        <time>2021-05-09T11:52:10Z</time>
      </trkpt>
      <trkpt lat="41.3593470" lon="2.1278240">
        <ele>29.4</ele>
        <time>2021-05-09T11:52:14Z</time>
      </trkpt>
      <trkpt lat="41.3594850" lon="2.1280090">
        <ele>29.6</ele>
        <time>2021-05-09T11:52:20Z</time>
      </trkpt>
      <trkpt lat="41.3596870" lon="2.1282830">
        <ele>29.0</ele>
        <time>2021-05-09T11:52:29Z</time>
      </trkpt>
      <trkpt lat="41.3598020" lon="2.1284410">
        <ele>29.2</ele>
        <time>2021-05-09T11:52:35Z</time>
      </trkpt>
      <trkpt lat="41.3600270" lon="2.1287370">
        <ele>29.8</ele>
        <time>2021-05-09T11:52:45Z</time>
      </trkpt>
      <trkpt lat="41.3602080" lon="2.1289710">
        <ele>29.4</ele>
        <time>2021-05-09T11:52:53Z</time>
      </trkpt>
      <trkpt lat="41.3603470" lon="2.1291520">
        <ele>29.2</ele>
        <time>2021-05-09T11:52:59Z</time>
      </trkpt>
      <trkpt lat="41.3605170" lon="2.1293530">
        <ele>29.4</ele>
        <time>2021-05-09T11:53:05Z</time>
      </trkpt>
      <trkpt lat="41.3606780" lon="2.1295490">
        <ele>29.6</ele>
        <time>2021-05-09T11:53:12Z</time>
      </trkpt>
      <trkpt lat="41.3607230" lon="2.1295820">
        <ele>29.8</ele>
        <time>2021-05-09T11:53:14Z</time>
      </trkpt>
      <trkpt lat="41.3607720" lon="2.1296210">
        <ele>29.8</ele>
        <time>2021-05-09T11:53:16Z</time>
      </trkpt>
      <trkpt lat="41.3609200" lon="2.1298090">
        <ele>29.6</ele>
        <time>2021-05-09T11:53:23Z</time>
      </trkpt>
      <trkpt lat="41.3610910" lon="2.1300850">
        <ele>29.4</ele>
        <time>2021-05-09T11:53:31Z</time>
      </trkpt>
      <trkpt lat="41.3612720" lon="2.1302980">
        <ele>29.6</ele>
        <time>2021-05-09T11:53:38Z</time>
      </trkpt>
      <trkpt lat="41.3613970" lon="2.1304530">
        <ele>29.2</ele>
        <time>2021-05-09T11:53:44Z</time>
      </trkpt>
      <trkpt lat="41.3614110" lon="2.1304800">
        <ele>29.0</ele>
        <time>2021-05-09T11:53:45Z</time>
      </trkpt>
      <trkpt lat="41.3614520" lon="2.1305960">
        <ele>29.0</ele>
        <time>2021-05-09T11:53:51Z</time>
      </trkpt>
      <trkpt lat="41.3614810" lon="2.1306290">
        <ele>30.0</ele>
        <time>2021-05-09T11:54:19Z</time>
      </trkpt>
      <trkpt lat="41.3615210" lon="2.1306870">
        <ele>29.8</ele>
        <time>2021-05-09T11:54:21Z</time>
      </trkpt>
      <trkpt lat="41.3616710" lon="2.1308940">
        <ele>30.0</ele>
        <time>2021-05-09T11:54:28Z</time>
      </trkpt>
      <trkpt lat="41.3617990" lon="2.1310520">
        <ele>30.0</ele>
        <time>2021-05-09T11:54:34Z</time>
      </trkpt>
      <trkpt lat="41.3619880" lon="2.1313140">
        <ele>30.8</ele>
        <time>2021-05-09T11:54:42Z</time>
      </trkpt>
      <trkpt lat="41.3621660" lon="2.1315800">
        <ele>30.6</ele>
        <time>2021-05-09T11:54:49Z</time>
      </trkpt>
      <trkpt lat="41.3622460" lon="2.1316980">
        <ele>30.8</ele>
        <time>2021-05-09T11:54:52Z</time>
      </trkpt>
      <trkpt lat="41.3623930" lon="2.1319000">
        <ele>32.0</ele>
        <time>2021-05-09T11:54:58Z</time>
      </trkpt>
      <trkpt lat="41.3625760" lon="2.1321370">
        <ele>31.6</ele>
        <time>2021-05-09T11:55:05Z</time>
      </trkpt>
      <trkpt lat="41.3627610" lon="2.1323690">
        <ele>32.4</ele>
        <time>2021-05-09T11:55:13Z</time>
      </trkpt>
      <trkpt lat="41.3628690" lon="2.1324310">
        <ele>32.6</ele>
        <time>2021-05-09T11:55:18Z</time>
      </trkpt>
      <trkpt lat="41.3629510" lon="2.1325540">
        <ele>32.4</ele>
        <time>2021-05-09T11:55:22Z</time>
      </trkpt>
      <trkpt lat="41.3630850" lon="2.1327310">
        <ele>32.4</ele>
        <time>2021-05-09T11:55:28Z</time>
      </trkpt>
      <trkpt lat="41.3632220" lon="2.1329220">
        <ele>33.0</ele>
        <time>2021-05-09T11:55:34Z</time>
      </trkpt>
      <trkpt lat="41.3633470" lon="2.1331190">
        <ele>33.4</ele>
        <time>2021-05-09T11:55:40Z</time>
      </trkpt>
      <trkpt lat="41.3634510" lon="2.1333070">
        <ele>33.2</ele>
        <time>2021-05-09T11:55:45Z</time>
      </trkpt>
      <trkpt lat="41.3635940" lon="2.1334360">
        <ele>33.0</ele>
        <time>2021-05-09T11:55:51Z</time>
      </trkpt>
      <trkpt lat="41.3637200" lon="2.1336260">
        <ele>33.2</ele>
        <time>2021-05-09T11:55:57Z</time>
      </trkpt>
      <trkpt lat="41.3638770" lon="2.1338580">
        <ele>33.4</ele>
        <time>2021-05-09T11:56:04Z</time>
      </trkpt>
      <trkpt lat="41.3640110" lon="2.1339540">
        <ele>33.6</ele>
        <time>2021-05-09T11:56:09Z</time>
      </trkpt>
      <trkpt lat="41.3641510" lon="2.1340370">
        <ele>33.8</ele>
        <time>2021-05-09T11:56:14Z</time>
      </trkpt>
      <trkpt lat="41.3641760" lon="2.1340510">
        <ele>34.0</ele>
        <time>2021-05-09T11:56:15Z</time>
      </trkpt>
      <trkpt lat="41.3641970" lon="2.1340660">
        <ele>34.0</ele>
        <time>2021-05-09T11:56:16Z</time>
      </trkpt>
      <trkpt lat="41.3642450" lon="2.1341060">
        <ele>33.8</ele>
        <time>2021-05-09T11:56:18Z</time>
      </trkpt>
      <trkpt lat="41.3643570" lon="2.1342650">
        <ele>33.6</ele>
        <time>2021-05-09T11:56:24Z</time>
      </trkpt>
      <trkpt lat="41.3644170" lon="2.1344340">
        <ele>33.4</ele>
        <time>2021-05-09T11:56:28Z</time>
      </trkpt>
      <trkpt lat="41.3645260" lon="2.1345910">
        <ele>34.4</ele>
        <time>2021-05-09T11:56:33Z</time>
      </trkpt>
      <trkpt lat="41.3647200" lon="2.1347010">
        <ele>34.4</ele>
        <time>2021-05-09T11:56:40Z</time>
      </trkpt>
      <trkpt lat="41.3649160" lon="2.1348130">
        <ele>35.2</ele>
        <time>2021-05-09T11:56:47Z</time>
      </trkpt>
      <trkpt lat="41.3650740" lon="2.1349030">
        <ele>35.2</ele>
        <time>2021-05-09T11:56:54Z</time>
      </trkpt>
      <trkpt lat="41.3651130" lon="2.1349600">
        <ele>35.4</ele>
        <time>2021-05-09T11:56:56Z</time>
      </trkpt>
      <trkpt lat="41.3651940" lon="2.1351550">
        <ele>35.8</ele>
        <time>2021-05-09T11:57:01Z</time>
      </trkpt>
      <trkpt lat="41.3652300" lon="2.1352410">
        <ele>36.2</ele>
        <time>2021-05-09T11:57:04Z</time>
      </trkpt>
      <trkpt lat="41.3652420" lon="2.1352560">
        <ele>36.2</ele>
        <time>2021-05-09T11:57:05Z</time>
      </trkpt>
      <trkpt lat="41.3652670" lon="2.1353060">
        <ele>36.4</ele>
        <time>2021-05-09T11:57:08Z</time>
      </trkpt>
      <trkpt lat="41.3652480" lon="2.1353730">
        <ele>38.0</ele>
        <time>2021-05-09T11:58:20Z</time>
      </trkpt>
      <trkpt lat="41.3652750" lon="2.1354840">
        <ele>37.6</ele>
        <time>2021-05-09T11:58:24Z</time>
      </trkpt>
      <trkpt lat="41.3652800" lon="2.1355180">
        <ele>37.6</ele>
        <time>2021-05-09T11:58:25Z</time>
      </trkpt>
      <trkpt lat="41.3652860" lon="2.1356340">
        <ele>37.6</ele>
        <time>2021-05-09T11:58:28Z</time>
      </trkpt>
      <trkpt lat="41.3652760" lon="2.1357000">
        <ele>37.6</ele>
        <time>2021-05-09T11:58:30Z</time>
      </trkpt>
      <trkpt lat="41.3652770" lon="2.1357760">
        <ele>37.4</ele>
        <time>2021-05-09T11:58:32Z</time>
      </trkpt>
      <trkpt lat="41.3653070" lon="2.1358480">
        <ele>37.6</ele>
        <time>2021-05-09T11:58:34Z</time>
      </trkpt>
      <trkpt lat="41.3654340" lon="2.1360410">
        <ele>37.8</ele>
        <time>2021-05-09T11:58:40Z</time>
      </trkpt>
      <trkpt lat="41.3655490" lon="2.1362560">
        <ele>37.4</ele>
        <time>2021-05-09T11:58:46Z</time>
      </trkpt>
      <trkpt lat="41.3657510" lon="2.1364380">
        <ele>37.4</ele>
        <time>2021-05-09T11:58:54Z</time>
      </trkpt>
      <trkpt lat="41.3658380" lon="2.1364770">
        <ele>37.4</ele>
        <time>2021-05-09T11:58:58Z</time>
      </trkpt>
      <trkpt lat="41.3659330" lon="2.1365540">
        <ele>37.4</ele>
        <time>2021-05-09T11:59:03Z</time>
      </trkpt>
      <trkpt lat="41.3660750" lon="2.1367450">
        <ele>37.6</ele>
        <time>2021-05-09T11:59:10Z</time>
      </trkpt>
      <trkpt lat="41.3662040" lon="2.1369260">
        <ele>37.8</ele>
        <time>2021-05-09T11:59:17Z</time>
      </trkpt>
      <trkpt lat="41.3663380" lon="2.1371580">
        <ele>39.0</ele>
        <time>2021-05-09T11:59:24Z</time>
      </trkpt>
      <trkpt lat="41.3663950" lon="2.1373540">
        <ele>38.6</ele>
        <time>2021-05-09T11:59:30Z</time>
      </trkpt>
      <trkpt lat="41.3664000" lon="2.1373860">
        <ele>37.6</ele>
        <time>2021-05-09T11:59:34Z</time>
      </trkpt>
      <trkpt lat="41.3664310" lon="2.1374210">
        <ele>37.4</ele>
        <time>2021-05-09T11:59:59Z</time>
      </trkpt>
      <trkpt lat="41.3665090" lon="2.1375320">
        <ele>37.0</ele>
        <time>2021-05-09T12:00:04Z</time>
      </trkpt>
      <trkpt lat="41.3666120" lon="2.1376270">
        <ele>37.2</ele>
        <time>2021-05-09T12:00:08Z</time>
      </trkpt>
      <trkpt lat="41.3668420" lon="2.1378310">
        <ele>37.0</ele>
        <time>2021-05-09T12:00:16Z</time>
      </trkpt>
      <trkpt lat="41.3669890" lon="2.1381530">
        <ele>36.6</ele>
        <time>2021-05-09T12:00:23Z</time>
      </trkpt>
      <trkpt lat="41.3672550" lon="2.1385600">
        <ele>36.4</ele>
        <time>2021-05-09T12:00:33Z</time>
      </trkpt>
      <trkpt lat="41.3672820" lon="2.1385970">
        <ele>36.2</ele>
        <time>2021-05-09T12:00:34Z</time>
      </trkpt>
      <trkpt lat="41.3674890" lon="2.1388770">
        <ele>35.8</ele>
        <time>2021-05-09T12:00:42Z</time>
      </trkpt>
      <trkpt lat="41.3677490" lon="2.1392460">
        <ele>36.2</ele>
        <time>2021-05-09T12:00:53Z</time>
      </trkpt>
      <trkpt lat="41.3678750" lon="2.1394160">
        <ele>36.0</ele>
        <time>2021-05-09T12:00:59Z</time>
      </trkpt>
      <trkpt lat="41.3680160" lon="2.1395740">
        <ele>35.6</ele>
        <time>2021-05-09T12:01:05Z</time>
      </trkpt>
      <trkpt lat="41.3681690" lon="2.1397570">
        <ele>35.6</ele>
        <time>2021-05-09T12:01:11Z</time>
      </trkpt>
      <trkpt lat="41.3683960" lon="2.1400250">
        <ele>35.8</ele>
        <time>2021-05-09T12:01:19Z</time>
      </trkpt>
      <trkpt lat="41.3685220" lon="2.1402000">
        <ele>35.8</ele>
        <time>2021-05-09T12:01:24Z</time>
      </trkpt>
      <trkpt lat="41.3686820" lon="2.1404060">
        <ele>35.4</ele>
        <time>2021-05-09T12:01:30Z</time>
      </trkpt>
      <trkpt lat="41.3687060" lon="2.1404430">
        <ele>35.4</ele>
        <time>2021-05-09T12:01:31Z</time>
      </trkpt>
      <trkpt lat="41.3688070" lon="2.1406350">
        <ele>35.8</ele>
        <time>2021-05-09T12:01:36Z</time>
      </trkpt>
      <trkpt lat="41.3689950" lon="2.1408360">
        <ele>36.2</ele>
        <time>2021-05-09T12:01:43Z</time>
      </trkpt>
      <trkpt lat="41.3691090" lon="2.1409990">
        <ele>36.0</ele>
        <time>2021-05-09T12:01:48Z</time>
      </trkpt>
      <trkpt lat="41.3692070" lon="2.1411170">
        <ele>36.2</ele>
        <time>2021-05-09T12:01:52Z</time>
      </trkpt>
      <trkpt lat="41.3692510" lon="2.1411800">
        <ele>36.4</ele>
        <time>2021-05-09T12:01:54Z</time>
      </trkpt>
      <trkpt lat="41.3693210" lon="2.1412780">
        <ele>36.6</ele>
        <time>2021-05-09T12:01:57Z</time>
      </trkpt>
      <trkpt lat="41.3694430" lon="2.1414500">
        <ele>36.6</ele>
        <time>2021-05-09T12:02:03Z</time>
      </trkpt>
      <trkpt lat="41.3695950" lon="2.1416300">
        <ele>37.0</ele>
        <time>2021-05-09T12:02:09Z</time>
      </trkpt>
      <trkpt lat="41.3697860" lon="2.1418410">
        <ele>37.4</ele>
        <time>2021-05-09T12:02:16Z</time>
      </trkpt>
      <trkpt lat="41.3698310" lon="2.1419070">
        <ele>37.4</ele>
        <time>2021-05-09T12:02:18Z</time>
      </trkpt>
      <trkpt lat="41.3698710" lon="2.1419810">
        <ele>37.6</ele>
        <time>2021-05-09T12:02:20Z</time>
      </trkpt>
      <trkpt lat="41.3700230" lon="2.1422030">
        <ele>37.6</ele>
        <time>2021-05-09T12:02:27Z</time>
      </trkpt>
      <trkpt lat="41.3701660" lon="2.1423830">
        <ele>37.6</ele>
        <time>2021-05-09T12:02:33Z</time>
      </trkpt>
      <trkpt lat="41.3702710" lon="2.1425660">
        <ele>38.0</ele>
        <time>2021-05-09T12:02:38Z</time>
      </trkpt>
      <trkpt lat="41.3704080" lon="2.1427520">
        <ele>37.8</ele>
        <time>2021-05-09T12:02:44Z</time>
      </trkpt>
      <trkpt lat="41.3705650" lon="2.1428790">
        <ele>37.8</ele>
        <time>2021-05-09T12:02:49Z</time>
      </trkpt>
      <trkpt lat="41.3706830" lon="2.1429980">
        <ele>37.6</ele>
        <time>2021-05-09T12:02:53Z</time>
      </trkpt>
      <trkpt lat="41.3708600" lon="2.1432120">
        <ele>37.8</ele>
        <time>2021-05-09T12:02:59Z</time>
      </trkpt>
      <trkpt lat="41.3709670" lon="2.1433610">
        <ele>38.2</ele>
        <time>2021-05-09T12:03:03Z</time>
      </trkpt>
      <trkpt lat="41.3711330" lon="2.1435700">
        <ele>38.4</ele>
        <time>2021-05-09T12:03:09Z</time>
      </trkpt>
      <trkpt lat="41.3711610" lon="2.1435940">
        <ele>38.4</ele>
        <time>2021-05-09T12:03:10Z</time>
      </trkpt>
      <trkpt lat="41.3712380" lon="2.1437550">
        <ele>38.4</ele>
        <time>2021-05-09T12:03:15Z</time>
      </trkpt>
      <trkpt lat="41.3713620" lon="2.1439120">
        <ele>38.4</ele>
        <time>2021-05-09T12:03:21Z</time>
      </trkpt>
      <trkpt lat="41.3714640" lon="2.1440770">
        <ele>38.6</ele>
        <time>2021-05-09T12:03:26Z</time>
      </trkpt>
      <trkpt lat="41.3715790" lon="2.1442480">
        <ele>38.6</ele>
        <time>2021-05-09T12:03:31Z</time>
      </trkpt>
      <trkpt lat="41.3717360" lon="2.1445450">
        <ele>39.0</ele>
        <time>2021-05-09T12:03:39Z</time>
      </trkpt>
      <trkpt lat="41.3717940" lon="2.1446710">
        <ele>39.2</ele>
        <time>2021-05-09T12:03:42Z</time>
      </trkpt>
      <trkpt lat="41.3718370" lon="2.1448770">
        <ele>39.4</ele>
        <time>2021-05-09T12:03:46Z</time>
      </trkpt>
      <trkpt lat="41.3719840" lon="2.1450550">
        <ele>39.4</ele>
        <time>2021-05-09T12:03:52Z</time>
      </trkpt>
      <trkpt lat="41.3721780" lon="2.1452380">
        <ele>39.8</ele>
        <time>2021-05-09T12:03:59Z</time>
      </trkpt>
      <trkpt lat="41.3723220" lon="2.1454360">
        <ele>39.8</ele>
        <time>2021-05-09T12:04:05Z</time>
      </trkpt>
      <trkpt lat="41.3724220" lon="2.1457130">
        <ele>40.2</ele>
        <time>2021-05-09T12:04:11Z</time>
      </trkpt>
      <trkpt lat="41.3724980" lon="2.1458600">
        <ele>40.2</ele>
        <time>2021-05-09T12:04:15Z</time>
      </trkpt>
      <trkpt lat="41.3725180" lon="2.1458950">
        <ele>40.4</ele>
        <time>2021-05-09T12:04:16Z</time>
      </trkpt>
      <trkpt lat="41.3726160" lon="2.1460560">
        <ele>40.6</ele>
        <time>2021-05-09T12:04:21Z</time>
      </trkpt>
      <trkpt lat="41.3727400" lon="2.1462360">
        <ele>41.2</ele>
        <time>2021-05-09T12:04:27Z</time>
      </trkpt>
      <trkpt lat="41.3727880" lon="2.1462930">
        <ele>41.4</ele>
        <time>2021-05-09T12:04:29Z</time>
      </trkpt>
      <trkpt lat="41.3728300" lon="2.1463420">
        <ele>41.6</ele>
        <time>2021-05-09T12:04:31Z</time>
      </trkpt>
      <trkpt lat="41.3729070" lon="2.1464780">
        <ele>41.6</ele>
        <time>2021-05-09T12:04:35Z</time>
      </trkpt>
      <trkpt lat="41.3731220" lon="2.1466820">
        <ele>42.2</ele>
        <time>2021-05-09T12:04:43Z</time>
      </trkpt>
      <trkpt lat="41.3733120" lon="2.1469320">
        <ele>42.0</ele>
        <time>2021-05-09T12:04:51Z</time>
      </trkpt>
      <trkpt lat="41.3734310" lon="2.1471480">
        <ele>42.0</ele>
        <time>2021-05-09T12:04:57Z</time>
      </trkpt>
      <trkpt lat="41.3735100" lon="2.1472920">
        <ele>42.2</ele>
        <time>2021-05-09T12:05:01Z</time>
      </trkpt>
      <trkpt lat="41.3736250" lon="2.1473720">
        <ele>42.2</ele>
        <time>2021-05-09T12:05:05Z</time>
      </trkpt>
      <trkpt lat="41.3738660" lon="2.1474870">
        <ele>42.8</ele>
        <time>2021-05-09T12:05:14Z</time>
      </trkpt>
      <trkpt lat="41.3739000" lon="2.1475080">
        <ele>43.2</ele>
        <time>2021-05-09T12:05:16Z</time>
      </trkpt>
      <trkpt lat="41.3739220" lon="2.1475250">
        <ele>43.4</ele>
        <time>2021-05-09T12:05:18Z</time>
      </trkpt>
      <trkpt lat="41.3739250" lon="2.1475160">
        <ele>43.2</ele>
        <time>2021-05-09T12:05:20Z</time>
      </trkpt>
      <trkpt lat="41.3739600" lon="2.1475040">
        <ele>44.2</ele>
        <time>2021-05-09T12:05:56Z</time>
      </trkpt>
      <trkpt lat="41.3739910" lon="2.1475390">
        <ele>44.6</ele>
        <time>2021-05-09T12:05:58Z</time>
      </trkpt>
      <trkpt lat="41.3741080" lon="2.1476450">
        <ele>44.8</ele>
        <time>2021-05-09T12:06:03Z</time>
      </trkpt>
      <trkpt lat="41.3741720" lon="2.1477200">
        <ele>45.4</ele>
        <time>2021-05-09T12:06:06Z</time>
      </trkpt>
      <trkpt lat="41.3742540" lon="2.1478500">
        <ele>46.0</ele>
        <time>2021-05-09T12:06:11Z</time>
      </trkpt>
      <trkpt lat="41.3742760" lon="2.1478820">
        <ele>46.0</ele>
        <time>2021-05-09T12:06:13Z</time>
      </trkpt>
      <trkpt lat="41.3743040" lon="2.1478970">
        <ele>46.0</ele>
        <time>2021-05-09T12:06:15Z</time>
      </trkpt>
      <trkpt lat="41.3743740" lon="2.1479550">
        <ele>46.2</ele>
        <time>2021-05-09T12:06:19Z</time>
      </trkpt>
      <trkpt lat="41.3744110" lon="2.1480210">
        <ele>46.2</ele>
        <time>2021-05-09T12:06:21Z</time>
      </trkpt>
      <trkpt lat="41.3744300" lon="2.1480540">
        <ele>46.2</ele>
        <time>2021-05-09T12:06:22Z</time>
      </trkpt>
      <trkpt lat="41.3744750" lon="2.1481120">
        <ele>46.6</ele>
        <time>2021-05-09T12:06:24Z</time>
      </trkpt>
      <trkpt lat="41.3745830" lon="2.1482460">
        <ele>47.4</ele>
        <time>2021-05-09T12:06:29Z</time>
      </trkpt>
      <trkpt lat="41.3746440" lon="2.1483140">
        <ele>47.8</ele>
        <time>2021-05-09T12:06:32Z</time>
      </trkpt>
      <trkpt lat="41.3747050" lon="2.1483970">
        <ele>48.4</ele>
        <time>2021-05-09T12:06:37Z</time>
      </trkpt>
      <trkpt lat="41.3747050" lon="2.1484020">
        <ele>48.6</ele>
        <time>2021-05-09T12:06:38Z</time>
      </trkpt>
      <trkpt lat="41.3747050" lon="2.1484020">
        <ele>48.6</ele>
        <time>2021-05-09T12:06:39Z</time>
      </trkpt>
      <trkpt lat="41.3746680" lon="2.1484060">
        <ele>50.4</ele>
        <time>2021-05-09T12:08:12Z</time>
      </trkpt>
      <trkpt lat="41.3746340" lon="2.1484220">
        <ele>50.4</ele>
        <time>2021-05-09T12:08:14Z</time>
      </trkpt>
      <trkpt lat="41.3745580" lon="2.1485220">
        <ele>50.8</ele>
        <time>2021-05-09T12:08:20Z</time>
      </trkpt>
      <trkpt lat="41.3745240" lon="2.1485670">
        <ele>50.8</ele>
        <time>2021-05-09T12:08:23Z</time>
      </trkpt>
      <trkpt lat="41.3745120" lon="2.1485980">
        <ele>50.8</ele>
        <time>2021-05-09T12:08:24Z</time>
      </trkpt>
      <trkpt lat="41.3744750" lon="2.1486750">
        <ele>51.0</ele>
        <time>2021-05-09T12:08:27Z</time>
      </trkpt>
      <trkpt lat="41.3744510" lon="2.1487340">
        <ele>51.0</ele>
        <time>2021-05-09T12:08:29Z</time>
      </trkpt>
      <trkpt lat="41.3744060" lon="2.1489540">
        <ele>50.8</ele>
        <time>2021-05-09T12:08:36Z</time>
      </trkpt>
      <trkpt lat="41.3743410" lon="2.1491490">
        <ele>50.8</ele>
        <time>2021-05-09T12:08:43Z</time>
      </trkpt>
      <trkpt lat="41.3742470" lon="2.1493850">
        <ele>51.0</ele>
        <time>2021-05-09T12:08:52Z</time>
      </trkpt>
      <trkpt lat="41.3742630" lon="2.1494670">
        <ele>51.2</ele>
        <time>2021-05-09T12:08:56Z</time>
      </trkpt>
      <trkpt lat="41.3742540" lon="2.1494890">
        <ele>51.2</ele>
        <time>2021-05-09T12:08:57Z</time>
      </trkpt>
      <trkpt lat="41.3741850" lon="2.1495330">
        <ele>51.4</ele>
        <time>2021-05-09T12:09:00Z</time>
      </trkpt>
      <trkpt lat="41.3741590" lon="2.1495470">
        <ele>51.4</ele>
        <time>2021-05-09T12:09:01Z</time>
      </trkpt>
      <trkpt lat="41.3740800" lon="2.1496270">
        <ele>51.4</ele>
        <time>2021-05-09T12:09:05Z</time>
      </trkpt>
      <trkpt lat="41.3740600" lon="2.1496430">
        <ele>51.4</ele>
        <time>2021-05-09T12:09:06Z</time>
      </trkpt>
      <trkpt lat="41.3739520" lon="2.1496960">
        <ele>51.4</ele>
        <time>2021-05-09T12:09:11Z</time>
      </trkpt>
      <trkpt lat="41.3738270" lon="2.1497430">
        <ele>51.4</ele>
        <time>2021-05-09T12:09:18Z</time>
      </trkpt>
      <trkpt lat="41.3738050" lon="2.1497810">
        <ele>51.4</ele>
        <time>2021-05-09T12:09:22Z</time>
      </trkpt>
      <trkpt lat="41.3738210" lon="2.1498480">
        <ele>51.6</ele>
        <time>2021-05-09T12:09:39Z</time>
      </trkpt>
      <trkpt lat="41.3737910" lon="2.1499230">
        <ele>51.6</ele>
        <time>2021-05-09T12:09:42Z</time>
      </trkpt>
      <trkpt lat="41.3737430" lon="2.1499610">
        <ele>51.8</ele>
        <time>2021-05-09T12:09:44Z</time>
      </trkpt>
      <trkpt lat="41.3736180" lon="2.1500550">
        <ele>51.8</ele>
        <time>2021-05-09T12:09:49Z</time>
      </trkpt>
      <trkpt lat="41.3734240" lon="2.1502050">
        <ele>52.2</ele>
        <time>2021-05-09T12:09:57Z</time>
      </trkpt>
      <trkpt lat="41.3733440" lon="2.1502590">
        <ele>52.0</ele>
        <time>2021-05-09T12:10:02Z</time>
      </trkpt>
      <trkpt lat="41.3733390" lon="2.1502700">
        <ele>51.8</ele>
        <time>2021-05-09T12:10:04Z</time>
      </trkpt>
      <trkpt lat="41.3733460" lon="2.1502590">
        <ele>51.0</ele>
        <time>2021-05-09T12:10:34Z</time>
      </trkpt>
      <trkpt lat="41.3733620" lon="2.1502540">
        <ele>51.0</ele>
        <time>2021-05-09T12:10:35Z</time>
      </trkpt>
      <trkpt lat="41.3734240" lon="2.1502010">
        <ele>50.8</ele>
        <time>2021-05-09T12:10:41Z</time>
      </trkpt>
      <trkpt lat="41.3734230" lon="2.1502040">
        <ele>50.8</ele>
        <time>2021-05-09T12:10:42Z</time>
      </trkpt>
      <trkpt lat="41.3734440" lon="2.1501910">
        <ele>50.6</ele>
        <time>2021-05-09T12:11:05Z</time>
      </trkpt>
      <trkpt lat="41.3734750" lon="2.1501700">
        <ele>50.6</ele>
        <time>2021-05-09T12:11:07Z</time>
      </trkpt>
      <trkpt lat="41.3736030" lon="2.1500690">
        <ele>50.6</ele>
        <time>2021-05-09T12:11:14Z</time>
      </trkpt>
      <trkpt lat="41.3737230" lon="2.1499770">
        <ele>49.6</ele>
        <time>2021-05-09T12:11:20Z</time>
      </trkpt>
      <trkpt lat="41.3738420" lon="2.1498840">
        <ele>49.4</ele>
        <time>2021-05-09T12:11:26Z</time>
      </trkpt>
      <trkpt lat="41.3740760" lon="2.1497140">
        <ele>48.8</ele>
        <time>2021-05-09T12:11:37Z</time>
      </trkpt>
      <trkpt lat="41.3741350" lon="2.1496910">
        <ele>48.4</ele>
        <time>2021-05-09T12:11:40Z</time>
      </trkpt>
      <trkpt lat="41.3741410" lon="2.1496880">
        <ele>48.4</ele>
        <time>2021-05-09T12:11:42Z</time>
      </trkpt>
      <trkpt lat="41.3741430" lon="2.1496890">
        <ele>48.2</ele>
        <time>2021-05-09T12:11:43Z</time>
      </trkpt>
      <trkpt lat="41.3742420" lon="2.1496390">
        <ele>47.4</ele>
        <time>2021-05-09T12:12:09Z</time>
      </trkpt>
      <trkpt lat="41.3742830" lon="2.1496230">
        <ele>47.2</ele>
        <time>2021-05-09T12:12:12Z</time>
      </trkpt>
      <trkpt lat="41.3743520" lon="2.1495900">
        <ele>47.0</ele>
        <time>2021-05-09T12:12:19Z</time>
      </trkpt>
      <trkpt lat="41.3743780" lon="2.1496340">
        <ele>46.2</ele>
        <time>2021-05-09T12:12:53Z</time>
      </trkpt>
      <trkpt lat="41.3744140" lon="2.1496770">
        <ele>46.2</ele>
        <time>2021-05-09T12:12:56Z</time>
      </trkpt>
      <trkpt lat="41.3744250" lon="2.1497500">
        <ele>46.0</ele>
        <time>2021-05-09T12:12:59Z</time>
      </trkpt>
      <trkpt lat="41.3744270" lon="2.1498630">
        <ele>46.2</ele>
        <time>2021-05-09T12:13:03Z</time>
      </trkpt>
      <trkpt lat="41.3744690" lon="2.1499120">
        <ele>46.4</ele>
        <time>2021-05-09T12:13:05Z</time>
      </trkpt>
      <trkpt lat="41.3745850" lon="2.1500060">
        <ele>46.2</ele>
        <time>2021-05-09T12:13:10Z</time>
      </trkpt>
      <trkpt lat="41.3747310" lon="2.1500210">
        <ele>45.6</ele>
        <time>2021-05-09T12:13:16Z</time>
      </trkpt>
      <trkpt lat="41.3748570" lon="2.1500740">
        <ele>45.4</ele>
        <time>2021-05-09T12:13:23Z</time>
      </trkpt>
      <trkpt lat="41.3749090" lon="2.1501420">
        <ele>45.8</ele>
        <time>2021-05-09T12:13:28Z</time>
      </trkpt>
      <trkpt lat="41.3749240" lon="2.1501430">
        <ele>45.6</ele>
        <time>2021-05-09T12:13:29Z</time>
      </trkpt>
      <trkpt lat="41.3750120" lon="2.1501670">
        <ele>45.6</ele>
        <time>2021-05-09T12:13:36Z</time>
      </trkpt>
      <trkpt lat="41.3750200" lon="2.1501770">
        <ele>45.6</ele>
        <time>2021-05-09T12:13:37Z</time>
      </trkpt>
      <trkpt lat="41.3750150" lon="2.1502050">
        <ele>45.6</ele>
        <time>2021-05-09T12:13:39Z</time>
      </trkpt>
      <trkpt lat="41.3750140" lon="2.1502170">
        <ele>45.6</ele>
        <time>2021-05-09T12:13:40Z</time>
      </trkpt>
      <trkpt lat="41.3750180" lon="2.1502560">
        <ele>45.2</ele>
        <time>2021-05-09T12:13:45Z</time>
      </trkpt>
      <trkpt lat="41.3750240" lon="2.1503050">
        <ele>45.2</ele>
        <time>2021-05-09T12:13:49Z</time>
      </trkpt>
      <trkpt lat="41.3750210" lon="2.1503660">
        <ele>45.4</ele>
        <time>2021-05-09T12:13:51Z</time>
      </trkpt>
      <trkpt lat="41.3750290" lon="2.1505960">
        <ele>45.4</ele>
        <time>2021-05-09T12:13:58Z</time>
      </trkpt>
      <trkpt lat="41.3750330" lon="2.1508380">
        <ele>45.4</ele>
        <time>2021-05-09T12:14:04Z</time>
      </trkpt>
      <trkpt lat="41.3750410" lon="2.1511360">
        <ele>45.0</ele>
        <time>2021-05-09T12:14:11Z</time>
      </trkpt>
      <trkpt lat="41.3750440" lon="2.1514390">
        <ele>45.0</ele>
        <time>2021-05-09T12:14:20Z</time>
      </trkpt>
      <trkpt lat="41.3750420" lon="2.1515170">
        <ele>44.6</ele>
        <time>2021-05-09T12:14:26Z</time>
      </trkpt>
      <trkpt lat="41.3750430" lon="2.1516050">
        <ele>44.6</ele>
        <time>2021-05-09T12:14:31Z</time>
      </trkpt>
      <trkpt lat="41.3750400" lon="2.1516820">
        <ele>44.4</ele>
        <time>2021-05-09T12:14:33Z</time>
      </trkpt>
      <trkpt lat="41.3750370" lon="2.1521410">
        <ele>44.4</ele>
        <time>2021-05-09T12:14:42Z</time>
      </trkpt>
      <trkpt lat="41.3750350" lon="2.1521960">
        <ele>44.4</ele>
        <time>2021-05-09T12:14:43Z</time>
      </trkpt>
      <trkpt lat="41.3750170" lon="2.1527400">
        <ele>43.6</ele>
        <time>2021-05-09T12:14:52Z</time>
      </trkpt>
      <trkpt lat="41.3750160" lon="2.1529350">
        <ele>43.2</ele>
        <time>2021-05-09T12:14:55Z</time>
      </trkpt>
      <trkpt lat="41.3750210" lon="2.1534990">
        <ele>42.4</ele>
        <time>2021-05-09T12:15:03Z</time>
      </trkpt>
      <trkpt lat="41.3750140" lon="2.1536170">
        <ele>42.0</ele>
        <time>2021-05-09T12:15:05Z</time>
      </trkpt>
      <trkpt lat="41.3750090" lon="2.1536940">
        <ele>41.6</ele>
        <time>2021-05-09T12:15:07Z</time>
      </trkpt>
      <trkpt lat="41.3750030" lon="2.1537320">
        <ele>41.2</ele>
        <time>2021-05-09T12:15:10Z</time>
      </trkpt>
      <trkpt lat="41.3750030" lon="2.1537880">
        <ele>41.8</ele>
        <time>2021-05-09T12:16:01Z</time>
      </trkpt>
      <trkpt lat="41.3750040" lon="2.1540320">
        <ele>41.6</ele>
        <time>2021-05-09T12:16:07Z</time>
      </trkpt>
      <trkpt lat="41.3749990" lon="2.1544600">
        <ele>41.0</ele>
        <time>2021-05-09T12:16:15Z</time>
      </trkpt>
      <trkpt lat="41.3749970" lon="2.1545160">
        <ele>41.0</ele>
        <time>2021-05-09T12:16:16Z</time>
      </trkpt>
      <trkpt lat="41.3750000" lon="2.1549390">
        <ele>40.8</ele>
        <time>2021-05-09T12:16:23Z</time>
      </trkpt>
      <trkpt lat="41.3750020" lon="2.1555180">
        <ele>40.0</ele>
        <time>2021-05-09T12:16:32Z</time>
      </trkpt>
      <trkpt lat="41.3749970" lon="2.1561100">
        <ele>39.6</ele>
        <time>2021-05-09T12:16:41Z</time>
      </trkpt>
      <trkpt lat="41.3749980" lon="2.1564990">
        <ele>39.0</ele>
        <time>2021-05-09T12:16:48Z</time>
      </trkpt>
      <trkpt lat="41.3749960" lon="2.1566020">
        <ele>38.4</ele>
        <time>2021-05-09T12:16:53Z</time>
      </trkpt>
      <trkpt lat="41.3749880" lon="2.1567180">
        <ele>38.4</ele>
        <time>2021-05-09T12:16:59Z</time>
      </trkpt>
      <trkpt lat="41.3749930" lon="2.1570770">
        <ele>38.4</ele>
        <time>2021-05-09T12:17:08Z</time>
      </trkpt>
      <trkpt lat="41.3749900" lon="2.1574950">
        <ele>38.0</ele>
        <time>2021-05-09T12:17:16Z</time>
      </trkpt>
      <trkpt lat="41.3749840" lon="2.1579020">
        <ele>37.8</ele>
        <time>2021-05-09T12:17:24Z</time>
      </trkpt>
      <trkpt lat="41.3749860" lon="2.1583090">
        <ele>37.8</ele>
        <time>2021-05-09T12:17:32Z</time>
      </trkpt>
      <trkpt lat="41.3749800" lon="2.1587690">
        <ele>37.4</ele>
        <time>2021-05-09T12:17:40Z</time>
      </trkpt>
      <trkpt lat="41.3749850" lon="2.1588230">
        <ele>37.2</ele>
        <time>2021-05-09T12:17:41Z</time>
      </trkpt>
      <trkpt lat="41.3749800" lon="2.1592490">
        <ele>37.0</ele>
        <time>2021-05-09T12:17:48Z</time>
      </trkpt>
      <trkpt lat="41.3749830" lon="2.1594390">
        <ele>36.8</ele>
        <time>2021-05-09T12:17:51Z</time>
      </trkpt>
      <trkpt lat="41.3749820" lon="2.1598940">
        <ele>36.4</ele>
        <time>2021-05-09T12:17:58Z</time>
      </trkpt>
      <trkpt lat="41.3749760" lon="2.1603400">
        <ele>36.0</ele>
        <time>2021-05-09T12:18:05Z</time>
      </trkpt>
      <trkpt lat="41.3749610" lon="2.1606060">
        <ele>36.0</ele>
        <time>2021-05-09T12:18:11Z</time>
      </trkpt>
      <trkpt lat="41.3749600" lon="2.1606400">
        <ele>36.0</ele>
        <time>2021-05-09T12:18:12Z</time>
      </trkpt>
      <trkpt lat="41.3749520" lon="2.1607360">
        <ele>35.4</ele>
        <time>2021-05-09T12:18:17Z</time>
      </trkpt>
      <trkpt lat="41.3749530" lon="2.1607450">
        <ele>35.2</ele>
        <time>2021-05-09T12:18:18Z</time>
      </trkpt>
      <trkpt lat="41.3749370" lon="2.1608100">
        <ele>36.0</ele>
        <time>2021-05-09T12:19:03Z</time>
      </trkpt>
      <trkpt lat="41.3749270" lon="2.1609070">
        <ele>36.0</ele>
        <time>2021-05-09T12:19:05Z</time>
      </trkpt>
      <trkpt lat="41.3749190" lon="2.1612060">
        <ele>36.0</ele>
        <time>2021-05-09T12:19:11Z</time>
      </trkpt>
      <trkpt lat="41.3749200" lon="2.1614580">
        <ele>35.8</ele>
        <time>2021-05-09T12:19:16Z</time>
      </trkpt>
      <trkpt lat="41.3749210" lon="2.1617130">
        <ele>35.8</ele>
        <time>2021-05-09T12:19:21Z</time>
      </trkpt>
      <trkpt lat="41.3749160" lon="2.1620590">
        <ele>35.8</ele>
        <time>2021-05-09T12:19:28Z</time>
      </trkpt>
      <trkpt lat="41.3749220" lon="2.1622770">
        <ele>35.6</ele>
        <time>2021-05-09T12:19:32Z</time>
      </trkpt>
      <trkpt lat="41.3749220" lon="2.1623930">
        <ele>35.6</ele>
        <time>2021-05-09T12:19:34Z</time>
      </trkpt>
      <trkpt lat="41.3749270" lon="2.1625690">
        <ele>35.2</ele>
        <time>2021-05-09T12:19:37Z</time>
      </trkpt>
      <trkpt lat="41.3749250" lon="2.1627380">
        <ele>35.0</ele>
        <time>2021-05-09T12:19:40Z</time>
      </trkpt>
      <trkpt lat="41.3749430" lon="2.1629500">
        <ele>34.8</ele>
        <time>2021-05-09T12:19:45Z</time>
      </trkpt>
      <trkpt lat="41.3749400" lon="2.1630250">
        <ele>34.8</ele>
        <time>2021-05-09T12:19:50Z</time>
      </trkpt>
      <trkpt lat="41.3749430" lon="2.1631060">
        <ele>34.8</ele>
        <time>2021-05-09T12:20:40Z</time>
      </trkpt>
      <trkpt lat="41.3749450" lon="2.1631990">
        <ele>34.8</ele>
        <time>2021-05-09T12:20:42Z</time>
      </trkpt>
      <trkpt lat="41.3749170" lon="2.1635130">
        <ele>34.6</ele>
        <time>2021-05-09T12:20:47Z</time>
      </trkpt>
      <trkpt lat="41.3748980" lon="2.1639700">
        <ele>34.6</ele>
        <time>2021-05-09T12:20:55Z</time>
      </trkpt>
      <trkpt lat="41.3749070" lon="2.1643720">
        <ele>34.2</ele>
        <time>2021-05-09T12:21:02Z</time>
      </trkpt>
      <trkpt lat="41.3749030" lon="2.1646750">
        <ele>34.2</ele>
        <time>2021-05-09T12:21:07Z</time>
      </trkpt>
      <trkpt lat="41.3748950" lon="2.1647850">
        <ele>34.2</ele>
        <time>2021-05-09T12:21:09Z</time>
      </trkpt>
      <trkpt lat="41.3748950" lon="2.1648280">
        <ele>34.2</ele>
        <time>2021-05-09T12:21:10Z</time>
      </trkpt>
      <trkpt lat="41.3749100" lon="2.1650190">
        <ele>34.0</ele>
        <time>2021-05-09T12:21:14Z</time>
      </trkpt>
      <trkpt lat="41.3749060" lon="2.1650960">
        <ele>33.6</ele>
        <time>2021-05-09T12:21:19Z</time>
      </trkpt>
      <trkpt lat="41.3749030" lon="2.1651460">
        <ele>33.4</ele>
        <time>2021-05-09T12:21:59Z</time>
      </trkpt>
      <trkpt lat="41.3749030" lon="2.1651940">
        <ele>33.4</ele>
        <time>2021-05-09T12:22:01Z</time>
      </trkpt>
      <trkpt lat="41.3748860" lon="2.1654190">
        <ele>33.6</ele>
        <time>2021-05-09T12:22:06Z</time>
      </trkpt>
      <trkpt lat="41.3748830" lon="2.1657830">
        <ele>33.8</ele>
        <time>2021-05-09T12:22:13Z</time>
      </trkpt>
      <trkpt lat="41.3748890" lon="2.1660160">
        <ele>33.6</ele>
        <time>2021-05-09T12:22:17Z</time>
      </trkpt>
      <trkpt lat="41.3749020" lon="2.1661940">
        <ele>33.2</ele>
        <time>2021-05-09T12:22:20Z</time>
      </trkpt>
      <trkpt lat="41.3748880" lon="2.1665090">
        <ele>33.4</ele>
        <time>2021-05-09T12:22:26Z</time>
      </trkpt>
      <trkpt lat="41.3748850" lon="2.1666300">
        <ele>33.2</ele>
        <time>2021-05-09T12:22:28Z</time>
      </trkpt>
      <trkpt lat="41.3748900" lon="2.1668250">
        <ele>33.0</ele>
        <time>2021-05-09T12:22:31Z</time>
      </trkpt>
      <trkpt lat="41.3749000" lon="2.1671910">
        <ele>33.0</ele>
        <time>2021-05-09T12:22:37Z</time>
      </trkpt>
      <trkpt lat="41.3749060" lon="2.1672430">
        <ele>32.8</ele>
        <time>2021-05-09T12:22:38Z</time>
      </trkpt>
      <trkpt lat="41.3749110" lon="2.1672940">
        <ele>32.8</ele>
        <time>2021-05-09T12:22:39Z</time>
      </trkpt>
      <trkpt lat="41.3749270" lon="2.1675020">
        <ele>32.6</ele>
        <time>2021-05-09T12:22:43Z</time>
      </trkpt>
      <trkpt lat="41.3749330" lon="2.1676520">
        <ele>32.4</ele>
        <time>2021-05-09T12:22:48Z</time>
      </trkpt>
      <trkpt lat="41.3749300" lon="2.1676600">
        <ele>32.4</ele>
        <time>2021-05-09T12:22:50Z</time>
      </trkpt>
      <trkpt lat="41.3749250" lon="2.1677480">
        <ele>32.6</ele>
        <time>2021-05-09T12:23:33Z</time>
      </trkpt>
      <trkpt lat="41.3749250" lon="2.1677830">
        <ele>32.6</ele>
        <time>2021-05-09T12:23:34Z</time>
      </trkpt>
      <trkpt lat="41.3749320" lon="2.1681290">
        <ele>32.8</ele>
        <time>2021-05-09T12:23:41Z</time>
      </trkpt>
      <trkpt lat="41.3749520" lon="2.1686210">
        <ele>33.0</ele>
        <time>2021-05-09T12:23:50Z</time>
      </trkpt>
      <trkpt lat="41.3749240" lon="2.1692220">
        <ele>32.6</ele>
        <time>2021-05-09T12:24:01Z</time>
      </trkpt>
      <trkpt lat="41.3749180" lon="2.1695290">
        <ele>32.8</ele>
        <time>2021-05-09T12:24:07Z</time>
      </trkpt>
      <trkpt lat="41.3749310" lon="2.1699030">
        <ele>32.8</ele>
        <time>2021-05-09T12:24:14Z</time>
      </trkpt>
      <trkpt lat="41.3749230" lon="2.1701130">
        <ele>32.4</ele>
        <time>2021-05-09T12:24:18Z</time>
      </trkpt>
      <trkpt lat="41.3749150" lon="2.1702700">
        <ele>32.2</ele>
        <time>2021-05-09T12:24:21Z</time>
      </trkpt>
      <trkpt lat="41.3749100" lon="2.1706540">
        <ele>32.6</ele>
        <time>2021-05-09T12:24:28Z</time>
      </trkpt>
      <trkpt lat="41.3748990" lon="2.1712670">
        <ele>32.0</ele>
        <time>2021-05-09T12:24:39Z</time>
      </trkpt>
      <trkpt lat="41.3748810" lon="2.1716280">
        <ele>31.8</ele>
        <time>2021-05-09T12:24:47Z</time>
      </trkpt>
      <trkpt lat="41.3748800" lon="2.1717500">
        <ele>31.4</ele>
        <time>2021-05-09T12:24:53Z</time>
      </trkpt>
      <trkpt lat="41.3748820" lon="2.1717550">
        <ele>31.2</ele>
        <time>2021-05-09T12:24:54Z</time>
      </trkpt>
      <trkpt lat="41.3748830" lon="2.1717570">
        <ele>31.4</ele>
        <time>2021-05-09T12:24:55Z</time>
      </trkpt>
      <trkpt lat="41.3748840" lon="2.1717840">
        <ele>31.4</ele>
        <time>2021-05-09T12:25:06Z</time>
      </trkpt>
      <trkpt lat="41.3748830" lon="2.1718070">
        <ele>31.4</ele>
        <time>2021-05-09T12:25:07Z</time>
      </trkpt>
      <trkpt lat="41.3748860" lon="2.1719480">
        <ele>31.8</ele>
        <time>2021-05-09T12:25:11Z</time>
      </trkpt>
      <trkpt lat="41.3748670" lon="2.1722100">
        <ele>32.0</ele>
        <time>2021-05-09T12:25:16Z</time>
      </trkpt>
      <trkpt lat="41.3748250" lon="2.1726880">
        <ele>31.6</ele>
        <time>2021-05-09T12:25:24Z</time>
      </trkpt>
      <trkpt lat="41.3747880" lon="2.1731220">
        <ele>31.4</ele>
        <time>2021-05-09T12:25:32Z</time>
      </trkpt>
      <trkpt lat="41.3747440" lon="2.1736390">
        <ele>31.0</ele>
        <time>2021-05-09T12:25:42Z</time>
      </trkpt>
      <trkpt lat="41.3747040" lon="2.1741380">
        <ele>31.2</ele>
        <time>2021-05-09T12:25:52Z</time>
      </trkpt>
      <trkpt lat="41.3746570" lon="2.1746780">
        <ele>31.4</ele>
        <time>2021-05-09T12:26:03Z</time>
      </trkpt>
      <trkpt lat="41.3746330" lon="2.1749740">
        <ele>31.4</ele>
        <time>2021-05-09T12:26:10Z</time>
      </trkpt>
      <trkpt lat="41.3746180" lon="2.1752650">
        <ele>30.8</ele>
        <time>2021-05-09T12:26:16Z</time>
      </trkpt>
      <trkpt lat="41.3745560" lon="2.1754420">
        <ele>30.6</ele>
        <time>2021-05-09T12:26:21Z</time>
      </trkpt>
      <trkpt lat="41.3745320" lon="2.1754800">
        <ele>30.4</ele>
        <time>2021-05-09T12:26:23Z</time>
      </trkpt>
      <trkpt lat="41.3745160" lon="2.1754940">
        <ele>30.4</ele>
        <time>2021-05-09T12:26:26Z</time>
      </trkpt>
      <trkpt lat="41.3745300" lon="2.1755650">
        <ele>30.4</ele>
        <time>2021-05-09T12:26:31Z</time>
      </trkpt>
      <trkpt lat="41.3745570" lon="2.1756200">
        <ele>30.4</ele>
        <time>2021-05-09T12:26:33Z</time>
      </trkpt>
      <trkpt lat="41.3745730" lon="2.1757330">
        <ele>30.6</ele>
        <time>2021-05-09T12:26:37Z</time>
      </trkpt>
      <trkpt lat="41.3746010" lon="2.1759810">
        <ele>31.0</ele>
        <time>2021-05-09T12:26:43Z</time>
      </trkpt>
      <trkpt lat="41.3746120" lon="2.1761880">
        <ele>31.0</ele>
        <time>2021-05-09T12:26:48Z</time>
      </trkpt>
      <trkpt lat="41.3746660" lon="2.1765150">
        <ele>31.0</ele>
        <time>2021-05-09T12:26:55Z</time>
      </trkpt>
      <trkpt lat="41.3747000" lon="2.1766470">
        <ele>31.0</ele>
        <time>2021-05-09T12:27:00Z</time>
      </trkpt>
      <trkpt lat="41.3746970" lon="2.1766650">
        <ele>30.8</ele>
        <time>2021-05-09T12:27:03Z</time>
      </trkpt>
      <trkpt lat="41.3746650" lon="2.1767140">
        <ele>31.6</ele>
        <time>2021-05-09T12:27:31Z</time>
      </trkpt>
      <trkpt lat="41.3746520" lon="2.1767770">
        <ele>31.6</ele>
        <time>2021-05-09T12:27:33Z</time>
      </trkpt>
      <trkpt lat="41.3746810" lon="2.1768380">
        <ele>31.8</ele>
        <time>2021-05-09T12:27:35Z</time>
      </trkpt>
      <trkpt lat="41.3747850" lon="2.1769430">
        <ele>32.2</ele>
        <time>2021-05-09T12:27:41Z</time>
      </trkpt>
      <trkpt lat="41.3748010" lon="2.1769620">
        <ele>32.2</ele>
        <time>2021-05-09T12:27:42Z</time>
      </trkpt>
      <trkpt lat="41.3749760" lon="2.1771200">
        <ele>32.4</ele>
        <time>2021-05-09T12:27:51Z</time>
      </trkpt>
      <trkpt lat="41.3751490" lon="2.1772630">
        <ele>32.6</ele>
        <time>2021-05-09T12:28:00Z</time>
      </trkpt>
      <trkpt lat="41.3752940" lon="2.1773350">
        <ele>32.8</ele>
        <time>2021-05-09T12:28:06Z</time>
      </trkpt>
      <trkpt lat="41.3753160" lon="2.1773500">
        <ele>32.8</ele>
        <time>2021-05-09T12:28:07Z</time>
      </trkpt>
      <trkpt lat="41.3753870" lon="2.1774370">
        <ele>32.8</ele>
        <time>2021-05-09T12:28:13Z</time>
      </trkpt>
      <trkpt lat="41.3753920" lon="2.1774360">
        <ele>32.8</ele>
        <time>2021-05-09T12:28:15Z</time>
      </trkpt>
      <trkpt lat="41.3753540" lon="2.1774780">
        <ele>33.6</ele>
        <time>2021-05-09T12:29:12Z</time>
      </trkpt>
      <trkpt lat="41.3753390" lon="2.1775170">
        <ele>33.8</ele>
        <time>2021-05-09T12:29:14Z</time>
      </trkpt>
      <trkpt lat="41.3753200" lon="2.1775690">
        <ele>34.0</ele>
        <time>2021-05-09T12:29:16Z</time>
      </trkpt>
      <trkpt lat="41.3752890" lon="2.1776700">
        <ele>34.4</ele>
        <time>2021-05-09T12:29:19Z</time>
      </trkpt>
      <trkpt lat="41.3752400" lon="2.1777960">
        <ele>34.0</ele>
        <time>2021-05-09T12:29:23Z</time>
      </trkpt>
      <trkpt lat="41.3751430" lon="2.1779740">
        <ele>33.4</ele>
        <time>2021-05-09T12:29:29Z</time>
      </trkpt>
      <trkpt lat="41.3750620" lon="2.1781430">
        <ele>33.2</ele>
        <time>2021-05-09T12:29:35Z</time>
      </trkpt>
      <trkpt lat="41.3750570" lon="2.1781840">
        <ele>33.0</ele>
        <time>2021-05-09T12:29:36Z</time>
      </trkpt>
      <trkpt lat="41.3750730" lon="2.1782870">
        <ele>33.2</ele>
        <time>2021-05-09T12:29:39Z</time>
      </trkpt>
      <trkpt lat="41.3751100" lon="2.1783780">
        <ele>33.4</ele>
        <time>2021-05-09T12:29:42Z</time>
      </trkpt>
      <trkpt lat="41.3751800" lon="2.1785210">
        <ele>33.0</ele>
        <time>2021-05-09T12:29:47Z</time>
      </trkpt>
      <trkpt lat="41.3752760" lon="2.1786800">
        <ele>33.0</ele>
        <time>2021-05-09T12:29:53Z</time>
      </trkpt>
      <trkpt lat="41.3754130" lon="2.1788290">
        <ele>33.2</ele>
        <time>2021-05-09T12:29:59Z</time>
      </trkpt>
      <trkpt lat="41.3755870" lon="2.1789690">
        <ele>33.2</ele>
        <time>2021-05-09T12:30:06Z</time>
      </trkpt>
      <trkpt lat="41.3757430" lon="2.1791310">
        <ele>33.4</ele>
        <time>2021-05-09T12:30:15Z</time>
      </trkpt>
      <trkpt lat="41.3758120" lon="2.1792480">
        <ele>33.6</ele>
        <time>2021-05-09T12:30:22Z</time>
      </trkpt>
      <trkpt lat="41.3759350" lon="2.1793570">
        <ele>33.2</ele>
        <time>2021-05-09T12:30:28Z</time>
      </trkpt>
      <trkpt lat="41.3761080" lon="2.1795100">
        <ele>33.0</ele>
        <time>2021-05-09T12:30:36Z</time>
      </trkpt>
      <trkpt lat="41.3762270" lon="2.1796020">
        <ele>33.2</ele>
        <time>2021-05-09T12:30:42Z</time>
      </trkpt>
      <trkpt lat="41.3763730" lon="2.1797190">
        <ele>33.2</ele>
        <time>2021-05-09T12:30:49Z</time>
      </trkpt>
      <trkpt lat="41.3765230" lon="2.1798450">
        <ele>33.2</ele>
        <time>2021-05-09T12:30:56Z</time>
      </trkpt>
      <trkpt lat="41.3767670" lon="2.1800510">
        <ele>33.2</ele>
        <time>2021-05-09T12:31:06Z</time>
      </trkpt>
      <trkpt lat="41.3770300" lon="2.1802570">
        <ele>33.4</ele>
        <time>2021-05-09T12:31:16Z</time>
      </trkpt>
      <trkpt lat="41.3772860" lon="2.1804320">
        <ele>33.4</ele>
        <time>2021-05-09T12:31:25Z</time>
      </trkpt>
      <trkpt lat="41.3774750" lon="2.1806080">
        <ele>33.2</ele>
        <time>2021-05-09T12:31:32Z</time>
      </trkpt>
      <trkpt lat="41.3777190" lon="2.1807910">
        <ele>33.2</ele>
        <time>2021-05-09T12:31:41Z</time>
      </trkpt>
      <trkpt lat="41.3778790" lon="2.1809400">
        <ele>33.4</ele>
        <time>2021-05-09T12:31:47Z</time>
      </trkpt>
      <trkpt lat="41.3781890" lon="2.1811760">
        <ele>33.2</ele>
        <time>2021-05-09T12:31:58Z</time>
      </trkpt>
      <trkpt lat="41.3784360" lon="2.1813850">
        <ele>32.8</ele>
        <time>2021-05-09T12:32:07Z</time>
      </trkpt>
      <trkpt lat="41.3786270" lon="2.1815450">
        <ele>33.0</ele>
        <time>2021-05-09T12:32:14Z</time>
      </trkpt>
      <trkpt lat="41.3787690" lon="2.1816600">
        <ele>32.6</ele>
        <time>2021-05-09T12:32:19Z</time>
      </trkpt>
      <trkpt lat="41.3788310" lon="2.1817030">
        <ele>32.6</ele>
        <time>2021-05-09T12:32:21Z</time>
      </trkpt>
      <trkpt lat="41.3790410" lon="2.1818700">
        <ele>32.8</ele>
        <time>2021-05-09T12:32:28Z</time>
      </trkpt>
      <trkpt lat="41.3791280" lon="2.1819440">
        <ele>32.8</ele>
        <time>2021-05-09T12:32:31Z</time>
      </trkpt>
      <trkpt lat="41.3793040" lon="2.1820850">
        <ele>32.4</ele>
        <time>2021-05-09T12:32:37Z</time>
      </trkpt>
      <trkpt lat="41.3795920" lon="2.1823150">
        <ele>32.6</ele>
        <time>2021-05-09T12:32:47Z</time>
      </trkpt>
      <trkpt lat="41.3798730" lon="2.1825610">
        <ele>32.2</ele>
        <time>2021-05-09T12:32:57Z</time>
      </trkpt>
      <trkpt lat="41.3801000" lon="2.1827670">
        <ele>32.0</ele>
        <time>2021-05-09T12:33:05Z</time>
      </trkpt>
      <trkpt lat="41.3801270" lon="2.1827920">
        <ele>31.8</ele>
        <time>2021-05-09T12:33:06Z</time>
      </trkpt>
      <trkpt lat="41.3803060" lon="2.1829490">
        <ele>33.2</ele>
        <time>2021-05-09T12:33:13Z</time>
      </trkpt>
      <trkpt lat="41.3803310" lon="2.1829670">
        <ele>33.0</ele>
        <time>2021-05-09T12:33:14Z</time>
      </trkpt>
      <trkpt lat="41.3805230" lon="2.1831060">
        <ele>32.6</ele>
        <time>2021-05-09T12:33:23Z</time>
      </trkpt>
      <trkpt lat="41.3805870" lon="2.1832110">
        <ele>32.6</ele>
        <time>2021-05-09T12:33:30Z</time>
      </trkpt>
      <trkpt lat="41.3806140" lon="2.1833710">
        <ele>32.0</ele>
        <time>2021-05-09T12:33:35Z</time>
      </trkpt>
      <trkpt lat="41.3806380" lon="2.1835170">
        <ele>31.8</ele>
        <time>2021-05-09T12:33:41Z</time>
      </trkpt>
      <trkpt lat="41.3806960" lon="2.1836150">
        <ele>31.8</ele>
        <time>2021-05-09T12:33:45Z</time>
      </trkpt>
      <trkpt lat="41.3808350" lon="2.1837580">
        <ele>31.8</ele>
        <time>2021-05-09T12:33:52Z</time>
      </trkpt>
      <trkpt lat="41.3808970" lon="2.1840260">
        <ele>31.8</ele>
        <time>2021-05-09T12:33:59Z</time>
      </trkpt>
      <trkpt lat="41.3809600" lon="2.1843360">
        <ele>31.6</ele>
        <time>2021-05-09T12:34:08Z</time>
      </trkpt>
      <trkpt lat="41.3809910" lon="2.1845280">
        <ele>31.6</ele>
        <time>2021-05-09T12:34:15Z</time>
      </trkpt>
      <trkpt lat="41.3810640" lon="2.1846650">
        <ele>31.6</ele>
        <time>2021-05-09T12:34:21Z</time>
      </trkpt>
      <trkpt lat="41.3811730" lon="2.1848270">
        <ele>31.6</ele>
        <time>2021-05-09T12:34:29Z</time>
      </trkpt>
      <trkpt lat="41.3811940" lon="2.1848970">
        <ele>31.6</ele>
        <time>2021-05-09T12:34:33Z</time>
      </trkpt>
      <trkpt lat="41.3811910" lon="2.1849290">
        <ele>31.4</ele>
        <time>2021-05-09T12:34:35Z</time>
      </trkpt>
      <trkpt lat="41.3811960" lon="2.1849640">
        <ele>31.2</ele>
        <time>2021-05-09T12:34:38Z</time>
      </trkpt>
      <trkpt lat="41.3811990" lon="2.1849720">
        <ele>30.8</ele>
        <time>2021-05-09T12:34:40Z</time>
      </trkpt>
    </trkseg>
  </trk>
</gpx>
